<?xml version="1.0" encoding="UTF-8" standalone="no" ?>
<gpx xmlns="http://www.topografix.com/GPX/1/1" xmlns:xsi="http://www.w3.org/2001/XMLSchema-instance" xsi:schemaLocation="http://www.topografix.com/GPX/1/1 http://www.topografix.com/GPX/1/1/gpx.xsd" version="1.1" creator="VisuGPX - https://www.visugpx.com">
  <metadata>
    <name>Route des Grandes Alpes J2-Roquebillière-Saint Martin d'Entraunes</name>
  </metadata>
  <trk>
    <name><![CDATA[Sortie vélo le matin]]></name>
    <trkseg>
      <trkpt lat="44.02007" lon="7.31099">
        <ele>599.7</ele>
        <time>2022-06-11T06:38:01Z</time>
      </trkpt>
      <trkpt lat="44.02007" lon="7.31099">
        <ele>599.7</ele>
        <time>2022-06-11T06:38:02Z</time>
      </trkpt>
      <trkpt lat="44.02007" lon="7.31099">
        <ele>599.7</ele>
        <time>2022-06-11T06:38:03Z</time>
      </trkpt>
      <trkpt lat="44.0201" lon="7.31099">
        <ele>599.7</ele>
        <time>2022-06-11T06:38:04Z</time>
      </trkpt>
      <trkpt lat="44.02013" lon="7.31098">
        <ele>599.8</ele>
        <time>2022-06-11T06:38:05Z</time>
      </trkpt>
      <trkpt lat="44.02016" lon="7.31098">
        <ele>599.9</ele>
        <time>2022-06-11T06:38:06Z</time>
      </trkpt>
      <trkpt lat="44.02019" lon="7.31098">
        <ele>600.1</ele>
        <time>2022-06-11T06:38:07Z</time>
      </trkpt>
      <trkpt lat="44.02021" lon="7.31098">
        <ele>600.2</ele>
        <time>2022-06-11T06:38:08Z</time>
      </trkpt>
      <trkpt lat="44.02024" lon="7.31098">
        <ele>600.3</ele>
        <time>2022-06-11T06:38:09Z</time>
      </trkpt>
      <trkpt lat="44.02027" lon="7.31098">
        <ele>600.5</ele>
        <time>2022-06-11T06:38:10Z</time>
      </trkpt>
      <trkpt lat="44.0203" lon="7.31097">
        <ele>600.5</ele>
        <time>2022-06-11T06:38:11Z</time>
      </trkpt>
      <trkpt lat="44.02032" lon="7.31097">
        <ele>600.7</ele>
        <time>2022-06-11T06:38:12Z</time>
      </trkpt>
      <trkpt lat="44.02035" lon="7.31097">
        <ele>600.9</ele>
        <time>2022-06-11T06:38:13Z</time>
      </trkpt>
      <trkpt lat="44.02038" lon="7.31097">
        <ele>601</ele>
        <time>2022-06-11T06:38:14Z</time>
      </trkpt>
      <trkpt lat="44.02041" lon="7.31097">
        <ele>601.1</ele>
        <time>2022-06-11T06:38:15Z</time>
      </trkpt>
      <trkpt lat="44.02043" lon="7.31097">
        <ele>601.2</ele>
        <time>2022-06-11T06:38:16Z</time>
      </trkpt>
      <trkpt lat="44.02046" lon="7.31096">
        <ele>601.4</ele>
        <time>2022-06-11T06:38:17Z</time>
      </trkpt>
      <trkpt lat="44.02049" lon="7.31097">
        <ele>601.5</ele>
        <time>2022-06-11T06:38:18Z</time>
      </trkpt>
      <trkpt lat="44.02051" lon="7.31096">
        <ele>601.6</ele>
        <time>2022-06-11T06:38:19Z</time>
      </trkpt>
      <trkpt lat="44.02054" lon="7.31095">
        <ele>601.6</ele>
        <time>2022-06-11T06:38:20Z</time>
      </trkpt>
      <trkpt lat="44.02057" lon="7.31095">
        <ele>601.9</ele>
        <time>2022-06-11T06:38:21Z</time>
      </trkpt>
      <trkpt lat="44.0206" lon="7.31095">
        <ele>602</ele>
        <time>2022-06-11T06:38:22Z</time>
      </trkpt>
      <trkpt lat="44.02063" lon="7.31094">
        <ele>602.3</ele>
        <time>2022-06-11T06:38:23Z</time>
      </trkpt>
      <trkpt lat="44.02065" lon="7.31094">
        <ele>602.5</ele>
        <time>2022-06-11T06:38:24Z</time>
      </trkpt>
      <trkpt lat="44.02068" lon="7.31093">
        <ele>602.7</ele>
        <time>2022-06-11T06:38:25Z</time>
      </trkpt>
      <trkpt lat="44.0207" lon="7.31093">
        <ele>603</ele>
        <time>2022-06-11T06:38:26Z</time>
      </trkpt>
      <trkpt lat="44.02073" lon="7.31092">
        <ele>603.2</ele>
        <time>2022-06-11T06:38:27Z</time>
      </trkpt>
      <trkpt lat="44.02076" lon="7.31092">
        <ele>603.4</ele>
        <time>2022-06-11T06:38:28Z</time>
      </trkpt>
      <trkpt lat="44.02079" lon="7.31091">
        <ele>603.6</ele>
        <time>2022-06-11T06:38:29Z</time>
      </trkpt>
      <trkpt lat="44.02082" lon="7.3109">
        <ele>603.8</ele>
        <time>2022-06-11T06:38:30Z</time>
      </trkpt>
      <trkpt lat="44.02085" lon="7.3109">
        <ele>604.1</ele>
        <time>2022-06-11T06:38:31Z</time>
      </trkpt>
      <trkpt lat="44.02087" lon="7.31089">
        <ele>604.4</ele>
        <time>2022-06-11T06:38:32Z</time>
      </trkpt>
      <trkpt lat="44.0209" lon="7.31088">
        <ele>604.7</ele>
        <time>2022-06-11T06:38:33Z</time>
      </trkpt>
      <trkpt lat="44.02092" lon="7.31088">
        <ele>605</ele>
        <time>2022-06-11T06:38:34Z</time>
      </trkpt>
      <trkpt lat="44.02095" lon="7.31087">
        <ele>605.2</ele>
        <time>2022-06-11T06:38:35Z</time>
      </trkpt>
      <trkpt lat="44.02097" lon="7.31086">
        <ele>605.5</ele>
        <time>2022-06-11T06:38:36Z</time>
      </trkpt>
      <trkpt lat="44.021" lon="7.31085">
        <ele>605.7</ele>
        <time>2022-06-11T06:38:37Z</time>
      </trkpt>
      <trkpt lat="44.02103" lon="7.31085">
        <ele>606.1</ele>
        <time>2022-06-11T06:38:38Z</time>
      </trkpt>
      <trkpt lat="44.02106" lon="7.31084">
        <ele>606.4</ele>
        <time>2022-06-11T06:38:39Z</time>
      </trkpt>
      <trkpt lat="44.02109" lon="7.31083">
        <ele>606.6</ele>
        <time>2022-06-11T06:38:40Z</time>
      </trkpt>
      <trkpt lat="44.02111" lon="7.31082">
        <ele>606.7</ele>
        <time>2022-06-11T06:38:41Z</time>
      </trkpt>
      <trkpt lat="44.02113" lon="7.31081">
        <ele>606.8</ele>
        <time>2022-06-11T06:38:42Z</time>
      </trkpt>
      <trkpt lat="44.02116" lon="7.3108">
        <ele>607.1</ele>
        <time>2022-06-11T06:38:43Z</time>
      </trkpt>
      <trkpt lat="44.02118" lon="7.31079">
        <ele>607.3</ele>
        <time>2022-06-11T06:38:44Z</time>
      </trkpt>
      <trkpt lat="44.02121" lon="7.31079">
        <ele>607.6</ele>
        <time>2022-06-11T06:38:45Z</time>
      </trkpt>
      <trkpt lat="44.02124" lon="7.31078">
        <ele>607.9</ele>
        <time>2022-06-11T06:38:46Z</time>
      </trkpt>
      <trkpt lat="44.02126" lon="7.31078">
        <ele>608.2</ele>
        <time>2022-06-11T06:38:47Z</time>
      </trkpt>
      <trkpt lat="44.02129" lon="7.31077">
        <ele>608.4</ele>
        <time>2022-06-11T06:38:48Z</time>
      </trkpt>
      <trkpt lat="44.02131" lon="7.31076">
        <ele>608.6</ele>
        <time>2022-06-11T06:38:49Z</time>
      </trkpt>
      <trkpt lat="44.02134" lon="7.31076">
        <ele>609</ele>
        <time>2022-06-11T06:38:50Z</time>
      </trkpt>
      <trkpt lat="44.02136" lon="7.31076">
        <ele>609.3</ele>
        <time>2022-06-11T06:38:51Z</time>
      </trkpt>
      <trkpt lat="44.0214" lon="7.31074">
        <ele>609.5</ele>
        <time>2022-06-11T06:38:52Z</time>
      </trkpt>
      <trkpt lat="44.02143" lon="7.31073">
        <ele>609.7</ele>
        <time>2022-06-11T06:38:53Z</time>
      </trkpt>
      <trkpt lat="44.02146" lon="7.31072">
        <ele>609.9</ele>
        <time>2022-06-11T06:38:54Z</time>
      </trkpt>
      <trkpt lat="44.02149" lon="7.31072">
        <ele>610.1</ele>
        <time>2022-06-11T06:38:55Z</time>
      </trkpt>
      <trkpt lat="44.02152" lon="7.31071">
        <ele>610.5</ele>
        <time>2022-06-11T06:38:56Z</time>
      </trkpt>
      <trkpt lat="44.02155" lon="7.31071">
        <ele>610.7</ele>
        <time>2022-06-11T06:38:57Z</time>
      </trkpt>
      <trkpt lat="44.02158" lon="7.31071">
        <ele>611.2</ele>
        <time>2022-06-11T06:38:58Z</time>
      </trkpt>
      <trkpt lat="44.02161" lon="7.3107">
        <ele>611.5</ele>
        <time>2022-06-11T06:38:59Z</time>
      </trkpt>
      <trkpt lat="44.02164" lon="7.3107">
        <ele>611.7</ele>
        <time>2022-06-11T06:39:00Z</time>
      </trkpt>
      <trkpt lat="44.02167" lon="7.31069">
        <ele>611.9</ele>
        <time>2022-06-11T06:39:01Z</time>
      </trkpt>
      <trkpt lat="44.0217" lon="7.31068">
        <ele>612</ele>
        <time>2022-06-11T06:39:02Z</time>
      </trkpt>
      <trkpt lat="44.02174" lon="7.31068">
        <ele>612.3</ele>
        <time>2022-06-11T06:39:03Z</time>
      </trkpt>
      <trkpt lat="44.02177" lon="7.31068">
        <ele>612.6</ele>
        <time>2022-06-11T06:39:04Z</time>
      </trkpt>
      <trkpt lat="44.0218" lon="7.31067">
        <ele>612.7</ele>
        <time>2022-06-11T06:39:05Z</time>
      </trkpt>
      <trkpt lat="44.02182" lon="7.31066">
        <ele>612.7</ele>
        <time>2022-06-11T06:39:06Z</time>
      </trkpt>
      <trkpt lat="44.02185" lon="7.31066">
        <ele>612.9</ele>
        <time>2022-06-11T06:39:07Z</time>
      </trkpt>
      <trkpt lat="44.02188" lon="7.31065">
        <ele>613.1</ele>
        <time>2022-06-11T06:39:08Z</time>
      </trkpt>
      <trkpt lat="44.02191" lon="7.31065">
        <ele>613.1</ele>
        <time>2022-06-11T06:39:09Z</time>
      </trkpt>
      <trkpt lat="44.02194" lon="7.31063">
        <ele>612.9</ele>
        <time>2022-06-11T06:39:10Z</time>
      </trkpt>
      <trkpt lat="44.02197" lon="7.31062">
        <ele>612.9</ele>
        <time>2022-06-11T06:39:11Z</time>
      </trkpt>
      <trkpt lat="44.022" lon="7.31062">
        <ele>613.3</ele>
        <time>2022-06-11T06:39:12Z</time>
      </trkpt>
      <trkpt lat="44.02203" lon="7.31062">
        <ele>613.3</ele>
        <time>2022-06-11T06:39:13Z</time>
      </trkpt>
      <trkpt lat="44.02206" lon="7.31061">
        <ele>613.3</ele>
        <time>2022-06-11T06:39:14Z</time>
      </trkpt>
      <trkpt lat="44.02209" lon="7.3106">
        <ele>613.4</ele>
        <time>2022-06-11T06:39:15Z</time>
      </trkpt>
      <trkpt lat="44.02211" lon="7.31059">
        <ele>613.3</ele>
        <time>2022-06-11T06:39:16Z</time>
      </trkpt>
      <trkpt lat="44.02214" lon="7.31058">
        <ele>613.2</ele>
        <time>2022-06-11T06:39:17Z</time>
      </trkpt>
      <trkpt lat="44.02217" lon="7.31057">
        <ele>613.2</ele>
        <time>2022-06-11T06:39:18Z</time>
      </trkpt>
      <trkpt lat="44.0222" lon="7.31057">
        <ele>613.2</ele>
        <time>2022-06-11T06:39:19Z</time>
      </trkpt>
      <trkpt lat="44.02223" lon="7.31056">
        <ele>613.3</ele>
        <time>2022-06-11T06:39:20Z</time>
      </trkpt>
      <trkpt lat="44.02226" lon="7.31055">
        <ele>613.3</ele>
        <time>2022-06-11T06:39:21Z</time>
      </trkpt>
      <trkpt lat="44.02229" lon="7.31055">
        <ele>613.5</ele>
        <time>2022-06-11T06:39:22Z</time>
      </trkpt>
      <trkpt lat="44.02232" lon="7.31054">
        <ele>613.7</ele>
        <time>2022-06-11T06:39:23Z</time>
      </trkpt>
      <trkpt lat="44.02235" lon="7.31054">
        <ele>613.9</ele>
        <time>2022-06-11T06:39:24Z</time>
      </trkpt>
      <trkpt lat="44.02238" lon="7.31053">
        <ele>614.1</ele>
        <time>2022-06-11T06:39:25Z</time>
      </trkpt>
      <trkpt lat="44.02241" lon="7.31053">
        <ele>614.3</ele>
        <time>2022-06-11T06:39:26Z</time>
      </trkpt>
      <trkpt lat="44.02244" lon="7.31053">
        <ele>614.5</ele>
        <time>2022-06-11T06:39:27Z</time>
      </trkpt>
      <trkpt lat="44.02247" lon="7.31052">
        <ele>614.7</ele>
        <time>2022-06-11T06:39:28Z</time>
      </trkpt>
      <trkpt lat="44.0225" lon="7.31051">
        <ele>614.9</ele>
        <time>2022-06-11T06:39:29Z</time>
      </trkpt>
      <trkpt lat="44.02253" lon="7.31051">
        <ele>615.1</ele>
        <time>2022-06-11T06:39:30Z</time>
      </trkpt>
      <trkpt lat="44.02255" lon="7.3105">
        <ele>615.4</ele>
        <time>2022-06-11T06:39:31Z</time>
      </trkpt>
      <trkpt lat="44.02258" lon="7.3105">
        <ele>615.6</ele>
        <time>2022-06-11T06:39:32Z</time>
      </trkpt>
      <trkpt lat="44.02261" lon="7.31049">
        <ele>615.8</ele>
        <time>2022-06-11T06:39:33Z</time>
      </trkpt>
      <trkpt lat="44.02263" lon="7.31048">
        <ele>615.9</ele>
        <time>2022-06-11T06:39:34Z</time>
      </trkpt>
      <trkpt lat="44.02266" lon="7.31047">
        <ele>616.2</ele>
        <time>2022-06-11T06:39:35Z</time>
      </trkpt>
      <trkpt lat="44.02269" lon="7.31046">
        <ele>616.3</ele>
        <time>2022-06-11T06:39:36Z</time>
      </trkpt>
      <trkpt lat="44.02271" lon="7.31045">
        <ele>616.4</ele>
        <time>2022-06-11T06:39:37Z</time>
      </trkpt>
      <trkpt lat="44.02274" lon="7.31044">
        <ele>616.5</ele>
        <time>2022-06-11T06:39:38Z</time>
      </trkpt>
      <trkpt lat="44.02277" lon="7.31043">
        <ele>616.6</ele>
        <time>2022-06-11T06:39:39Z</time>
      </trkpt>
      <trkpt lat="44.0228" lon="7.31042">
        <ele>616.7</ele>
        <time>2022-06-11T06:39:40Z</time>
      </trkpt>
      <trkpt lat="44.02282" lon="7.3104">
        <ele>616.7</ele>
        <time>2022-06-11T06:39:41Z</time>
      </trkpt>
      <trkpt lat="44.02285" lon="7.31039">
        <ele>616.8</ele>
        <time>2022-06-11T06:39:42Z</time>
      </trkpt>
      <trkpt lat="44.02288" lon="7.31037">
        <ele>616.7</ele>
        <time>2022-06-11T06:39:43Z</time>
      </trkpt>
      <trkpt lat="44.0229" lon="7.31035">
        <ele>616.5</ele>
        <time>2022-06-11T06:39:44Z</time>
      </trkpt>
      <trkpt lat="44.02292" lon="7.31033">
        <ele>616.3</ele>
        <time>2022-06-11T06:39:45Z</time>
      </trkpt>
      <trkpt lat="44.02295" lon="7.31031">
        <ele>616.2</ele>
        <time>2022-06-11T06:39:46Z</time>
      </trkpt>
      <trkpt lat="44.02297" lon="7.31029">
        <ele>616</ele>
        <time>2022-06-11T06:39:47Z</time>
      </trkpt>
      <trkpt lat="44.023" lon="7.31027">
        <ele>616</ele>
        <time>2022-06-11T06:39:48Z</time>
      </trkpt>
      <trkpt lat="44.02302" lon="7.31024">
        <ele>616</ele>
        <time>2022-06-11T06:39:49Z</time>
      </trkpt>
      <trkpt lat="44.02304" lon="7.31022">
        <ele>616.1</ele>
        <time>2022-06-11T06:39:50Z</time>
      </trkpt>
      <trkpt lat="44.02306" lon="7.3102">
        <ele>616.3</ele>
        <time>2022-06-11T06:39:51Z</time>
      </trkpt>
      <trkpt lat="44.02308" lon="7.31018">
        <ele>616.4</ele>
        <time>2022-06-11T06:39:52Z</time>
      </trkpt>
      <trkpt lat="44.02311" lon="7.31016">
        <ele>616.5</ele>
        <time>2022-06-11T06:39:53Z</time>
      </trkpt>
      <trkpt lat="44.02313" lon="7.31013">
        <ele>616.6</ele>
        <time>2022-06-11T06:39:54Z</time>
      </trkpt>
      <trkpt lat="44.02316" lon="7.3101">
        <ele>616.7</ele>
        <time>2022-06-11T06:39:55Z</time>
      </trkpt>
      <trkpt lat="44.02318" lon="7.31008">
        <ele>616.7</ele>
        <time>2022-06-11T06:39:56Z</time>
      </trkpt>
      <trkpt lat="44.0232" lon="7.31006">
        <ele>616.8</ele>
        <time>2022-06-11T06:39:57Z</time>
      </trkpt>
      <trkpt lat="44.02322" lon="7.31003">
        <ele>616.8</ele>
        <time>2022-06-11T06:39:58Z</time>
      </trkpt>
      <trkpt lat="44.02325" lon="7.31001">
        <ele>616.9</ele>
        <time>2022-06-11T06:39:59Z</time>
      </trkpt>
      <trkpt lat="44.02327" lon="7.30999">
        <ele>617</ele>
        <time>2022-06-11T06:40:00Z</time>
      </trkpt>
      <trkpt lat="44.02329" lon="7.30997">
        <ele>617</ele>
        <time>2022-06-11T06:40:01Z</time>
      </trkpt>
      <trkpt lat="44.02332" lon="7.30995">
        <ele>617.1</ele>
        <time>2022-06-11T06:40:02Z</time>
      </trkpt>
      <trkpt lat="44.02335" lon="7.30993">
        <ele>617.1</ele>
        <time>2022-06-11T06:40:03Z</time>
      </trkpt>
      <trkpt lat="44.02337" lon="7.30991">
        <ele>617.1</ele>
        <time>2022-06-11T06:40:04Z</time>
      </trkpt>
      <trkpt lat="44.0234" lon="7.3099">
        <ele>617.1</ele>
        <time>2022-06-11T06:40:05Z</time>
      </trkpt>
      <trkpt lat="44.02342" lon="7.30989">
        <ele>617.2</ele>
        <time>2022-06-11T06:40:06Z</time>
      </trkpt>
      <trkpt lat="44.02345" lon="7.30988">
        <ele>617.3</ele>
        <time>2022-06-11T06:40:07Z</time>
      </trkpt>
      <trkpt lat="44.02348" lon="7.30988">
        <ele>617.5</ele>
        <time>2022-06-11T06:40:08Z</time>
      </trkpt>
      <trkpt lat="44.02351" lon="7.30987">
        <ele>617.7</ele>
        <time>2022-06-11T06:40:09Z</time>
      </trkpt>
      <trkpt lat="44.02353" lon="7.30987">
        <ele>617.9</ele>
        <time>2022-06-11T06:40:10Z</time>
      </trkpt>
      <trkpt lat="44.02356" lon="7.30987">
        <ele>618.1</ele>
        <time>2022-06-11T06:40:11Z</time>
      </trkpt>
      <trkpt lat="44.02359" lon="7.30987">
        <ele>618.4</ele>
        <time>2022-06-11T06:40:12Z</time>
      </trkpt>
      <trkpt lat="44.02362" lon="7.30987">
        <ele>618.7</ele>
        <time>2022-06-11T06:40:13Z</time>
      </trkpt>
      <trkpt lat="44.02364" lon="7.30988">
        <ele>618.8</ele>
        <time>2022-06-11T06:40:14Z</time>
      </trkpt>
      <trkpt lat="44.02367" lon="7.30989">
        <ele>618.9</ele>
        <time>2022-06-11T06:40:15Z</time>
      </trkpt>
      <trkpt lat="44.0237" lon="7.3099">
        <ele>619.1</ele>
        <time>2022-06-11T06:40:16Z</time>
      </trkpt>
      <trkpt lat="44.02373" lon="7.30992">
        <ele>619.5</ele>
        <time>2022-06-11T06:40:17Z</time>
      </trkpt>
      <trkpt lat="44.02375" lon="7.30995">
        <ele>619.9</ele>
        <time>2022-06-11T06:40:18Z</time>
      </trkpt>
      <trkpt lat="44.02377" lon="7.30997">
        <ele>620.3</ele>
        <time>2022-06-11T06:40:19Z</time>
      </trkpt>
      <trkpt lat="44.0238" lon="7.30999">
        <ele>620.8</ele>
        <time>2022-06-11T06:40:20Z</time>
      </trkpt>
      <trkpt lat="44.02382" lon="7.31001">
        <ele>621.2</ele>
        <time>2022-06-11T06:40:21Z</time>
      </trkpt>
      <trkpt lat="44.02385" lon="7.31003">
        <ele>621.7</ele>
        <time>2022-06-11T06:40:22Z</time>
      </trkpt>
      <trkpt lat="44.02387" lon="7.31005">
        <ele>622.1</ele>
        <time>2022-06-11T06:40:23Z</time>
      </trkpt>
      <trkpt lat="44.02389" lon="7.31007">
        <ele>622.6</ele>
        <time>2022-06-11T06:40:24Z</time>
      </trkpt>
      <trkpt lat="44.02392" lon="7.31009">
        <ele>623</ele>
        <time>2022-06-11T06:40:25Z</time>
      </trkpt>
      <trkpt lat="44.02395" lon="7.3101">
        <ele>623.3</ele>
        <time>2022-06-11T06:40:26Z</time>
      </trkpt>
      <trkpt lat="44.02397" lon="7.31012">
        <ele>623.6</ele>
        <time>2022-06-11T06:40:27Z</time>
      </trkpt>
      <trkpt lat="44.024" lon="7.31013">
        <ele>623.9</ele>
        <time>2022-06-11T06:40:28Z</time>
      </trkpt>
      <trkpt lat="44.02403" lon="7.31014">
        <ele>624.2</ele>
        <time>2022-06-11T06:40:29Z</time>
      </trkpt>
      <trkpt lat="44.02405" lon="7.31014">
        <ele>624.3</ele>
        <time>2022-06-11T06:40:30Z</time>
      </trkpt>
      <trkpt lat="44.02408" lon="7.31014">
        <ele>624.4</ele>
        <time>2022-06-11T06:40:31Z</time>
      </trkpt>
      <trkpt lat="44.02411" lon="7.31015">
        <ele>624.7</ele>
        <time>2022-06-11T06:40:32Z</time>
      </trkpt>
      <trkpt lat="44.02413" lon="7.31015">
        <ele>624.7</ele>
        <time>2022-06-11T06:40:33Z</time>
      </trkpt>
      <trkpt lat="44.02416" lon="7.31015">
        <ele>624.8</ele>
        <time>2022-06-11T06:40:34Z</time>
      </trkpt>
      <trkpt lat="44.02419" lon="7.31015">
        <ele>624.9</ele>
        <time>2022-06-11T06:40:35Z</time>
      </trkpt>
      <trkpt lat="44.02422" lon="7.31015">
        <ele>624.9</ele>
        <time>2022-06-11T06:40:36Z</time>
      </trkpt>
      <trkpt lat="44.02425" lon="7.31014">
        <ele>625</ele>
        <time>2022-06-11T06:40:37Z</time>
      </trkpt>
      <trkpt lat="44.02428" lon="7.31015">
        <ele>625.2</ele>
        <time>2022-06-11T06:40:38Z</time>
      </trkpt>
      <trkpt lat="44.02431" lon="7.31014">
        <ele>625.3</ele>
        <time>2022-06-11T06:40:39Z</time>
      </trkpt>
      <trkpt lat="44.02433" lon="7.31014">
        <ele>625.3</ele>
        <time>2022-06-11T06:40:40Z</time>
      </trkpt>
      <trkpt lat="44.02436" lon="7.31013">
        <ele>625.3</ele>
        <time>2022-06-11T06:40:41Z</time>
      </trkpt>
      <trkpt lat="44.02439" lon="7.31013">
        <ele>625.3</ele>
        <time>2022-06-11T06:40:42Z</time>
      </trkpt>
      <trkpt lat="44.02442" lon="7.31012">
        <ele>625.3</ele>
        <time>2022-06-11T06:40:43Z</time>
      </trkpt>
      <trkpt lat="44.02445" lon="7.31012">
        <ele>625.4</ele>
        <time>2022-06-11T06:40:44Z</time>
      </trkpt>
      <trkpt lat="44.02448" lon="7.31011">
        <ele>625.4</ele>
        <time>2022-06-11T06:40:45Z</time>
      </trkpt>
      <trkpt lat="44.0245" lon="7.31011">
        <ele>625.4</ele>
        <time>2022-06-11T06:40:46Z</time>
      </trkpt>
      <trkpt lat="44.02453" lon="7.3101">
        <ele>625.4</ele>
        <time>2022-06-11T06:40:47Z</time>
      </trkpt>
      <trkpt lat="44.02456" lon="7.3101">
        <ele>625.4</ele>
        <time>2022-06-11T06:40:48Z</time>
      </trkpt>
      <trkpt lat="44.02459" lon="7.31009">
        <ele>625.4</ele>
        <time>2022-06-11T06:40:49Z</time>
      </trkpt>
      <trkpt lat="44.02462" lon="7.31009">
        <ele>625.5</ele>
        <time>2022-06-11T06:40:50Z</time>
      </trkpt>
      <trkpt lat="44.02465" lon="7.31008">
        <ele>625.6</ele>
        <time>2022-06-11T06:40:51Z</time>
      </trkpt>
      <trkpt lat="44.02467" lon="7.31008">
        <ele>625.6</ele>
        <time>2022-06-11T06:40:52Z</time>
      </trkpt>
      <trkpt lat="44.0247" lon="7.31006">
        <ele>625.4</ele>
        <time>2022-06-11T06:40:53Z</time>
      </trkpt>
      <trkpt lat="44.02473" lon="7.31006">
        <ele>625.5</ele>
        <time>2022-06-11T06:40:54Z</time>
      </trkpt>
      <trkpt lat="44.02476" lon="7.31006">
        <ele>625.5</ele>
        <time>2022-06-11T06:40:55Z</time>
      </trkpt>
      <trkpt lat="44.02478" lon="7.31005">
        <ele>625.5</ele>
        <time>2022-06-11T06:40:56Z</time>
      </trkpt>
      <trkpt lat="44.02481" lon="7.31005">
        <ele>625.5</ele>
        <time>2022-06-11T06:40:57Z</time>
      </trkpt>
      <trkpt lat="44.02484" lon="7.31004">
        <ele>625.5</ele>
        <time>2022-06-11T06:40:58Z</time>
      </trkpt>
      <trkpt lat="44.02487" lon="7.31004">
        <ele>625.5</ele>
        <time>2022-06-11T06:40:59Z</time>
      </trkpt>
      <trkpt lat="44.0249" lon="7.31004">
        <ele>625.6</ele>
        <time>2022-06-11T06:41:00Z</time>
      </trkpt>
      <trkpt lat="44.02493" lon="7.31003">
        <ele>625.5</ele>
        <time>2022-06-11T06:41:01Z</time>
      </trkpt>
      <trkpt lat="44.02495" lon="7.31002">
        <ele>625.4</ele>
        <time>2022-06-11T06:41:02Z</time>
      </trkpt>
      <trkpt lat="44.02498" lon="7.31002">
        <ele>625.4</ele>
        <time>2022-06-11T06:41:03Z</time>
      </trkpt>
      <trkpt lat="44.02501" lon="7.31001">
        <ele>625.3</ele>
        <time>2022-06-11T06:41:04Z</time>
      </trkpt>
      <trkpt lat="44.02503" lon="7.31001">
        <ele>625.4</ele>
        <time>2022-06-11T06:41:05Z</time>
      </trkpt>
      <trkpt lat="44.02506" lon="7.31">
        <ele>625.2</ele>
        <time>2022-06-11T06:41:06Z</time>
      </trkpt>
      <trkpt lat="44.02509" lon="7.31">
        <ele>625.2</ele>
        <time>2022-06-11T06:41:07Z</time>
      </trkpt>
      <trkpt lat="44.02511" lon="7.31">
        <ele>625.3</ele>
        <time>2022-06-11T06:41:08Z</time>
      </trkpt>
      <trkpt lat="44.02514" lon="7.30999">
        <ele>625.2</ele>
        <time>2022-06-11T06:41:09Z</time>
      </trkpt>
      <trkpt lat="44.02517" lon="7.30999">
        <ele>625.3</ele>
        <time>2022-06-11T06:41:10Z</time>
      </trkpt>
      <trkpt lat="44.02519" lon="7.30999">
        <ele>625.4</ele>
        <time>2022-06-11T06:41:11Z</time>
      </trkpt>
      <trkpt lat="44.02522" lon="7.30999">
        <ele>625.5</ele>
        <time>2022-06-11T06:41:12Z</time>
      </trkpt>
      <trkpt lat="44.02524" lon="7.31">
        <ele>625.7</ele>
        <time>2022-06-11T06:41:13Z</time>
      </trkpt>
      <trkpt lat="44.02527" lon="7.31">
        <ele>625.8</ele>
        <time>2022-06-11T06:41:14Z</time>
      </trkpt>
      <trkpt lat="44.0253" lon="7.31">
        <ele>625.9</ele>
        <time>2022-06-11T06:41:15Z</time>
      </trkpt>
      <trkpt lat="44.02532" lon="7.31">
        <ele>626.1</ele>
        <time>2022-06-11T06:41:16Z</time>
      </trkpt>
      <trkpt lat="44.02535" lon="7.31">
        <ele>626.3</ele>
        <time>2022-06-11T06:41:17Z</time>
      </trkpt>
      <trkpt lat="44.02537" lon="7.31002">
        <ele>626.8</ele>
        <time>2022-06-11T06:41:18Z</time>
      </trkpt>
      <trkpt lat="44.02539" lon="7.31002">
        <ele>627.1</ele>
        <time>2022-06-11T06:41:19Z</time>
      </trkpt>
      <trkpt lat="44.02542" lon="7.31003">
        <ele>627.6</ele>
        <time>2022-06-11T06:41:20Z</time>
      </trkpt>
      <trkpt lat="44.02544" lon="7.31004">
        <ele>627.9</ele>
        <time>2022-06-11T06:41:21Z</time>
      </trkpt>
      <trkpt lat="44.02546" lon="7.31004">
        <ele>628.1</ele>
        <time>2022-06-11T06:41:22Z</time>
      </trkpt>
      <trkpt lat="44.02549" lon="7.31004">
        <ele>628.3</ele>
        <time>2022-06-11T06:41:23Z</time>
      </trkpt>
      <trkpt lat="44.02551" lon="7.31005">
        <ele>628.6</ele>
        <time>2022-06-11T06:41:24Z</time>
      </trkpt>
      <trkpt lat="44.02553" lon="7.31006">
        <ele>629.1</ele>
        <time>2022-06-11T06:41:25Z</time>
      </trkpt>
      <trkpt lat="44.02556" lon="7.31007">
        <ele>629.5</ele>
        <time>2022-06-11T06:41:26Z</time>
      </trkpt>
      <trkpt lat="44.02558" lon="7.31008">
        <ele>630.1</ele>
        <time>2022-06-11T06:41:27Z</time>
      </trkpt>
      <trkpt lat="44.02561" lon="7.31009">
        <ele>630.6</ele>
        <time>2022-06-11T06:41:28Z</time>
      </trkpt>
      <trkpt lat="44.02564" lon="7.3101">
        <ele>631</ele>
        <time>2022-06-11T06:41:29Z</time>
      </trkpt>
      <trkpt lat="44.02566" lon="7.31011">
        <ele>631.7</ele>
        <time>2022-06-11T06:41:30Z</time>
      </trkpt>
      <trkpt lat="44.02569" lon="7.31012">
        <ele>632.2</ele>
        <time>2022-06-11T06:41:31Z</time>
      </trkpt>
      <trkpt lat="44.02572" lon="7.31012">
        <ele>632.5</ele>
        <time>2022-06-11T06:41:32Z</time>
      </trkpt>
      <trkpt lat="44.02574" lon="7.31013">
        <ele>633.1</ele>
        <time>2022-06-11T06:41:33Z</time>
      </trkpt>
      <trkpt lat="44.02577" lon="7.31014">
        <ele>633.5</ele>
        <time>2022-06-11T06:41:34Z</time>
      </trkpt>
      <trkpt lat="44.02579" lon="7.31015">
        <ele>633.9</ele>
        <time>2022-06-11T06:41:35Z</time>
      </trkpt>
      <trkpt lat="44.02582" lon="7.31015">
        <ele>634.4</ele>
        <time>2022-06-11T06:41:36Z</time>
      </trkpt>
      <trkpt lat="44.02585" lon="7.31016">
        <ele>634.8</ele>
        <time>2022-06-11T06:41:37Z</time>
      </trkpt>
      <trkpt lat="44.02587" lon="7.31017">
        <ele>635.5</ele>
        <time>2022-06-11T06:41:38Z</time>
      </trkpt>
      <trkpt lat="44.0259" lon="7.31018">
        <ele>636.1</ele>
        <time>2022-06-11T06:41:39Z</time>
      </trkpt>
      <trkpt lat="44.02593" lon="7.31018">
        <ele>636.6</ele>
        <time>2022-06-11T06:41:40Z</time>
      </trkpt>
      <trkpt lat="44.02596" lon="7.31019">
        <ele>637.2</ele>
        <time>2022-06-11T06:41:41Z</time>
      </trkpt>
      <trkpt lat="44.02598" lon="7.31019">
        <ele>637.5</ele>
        <time>2022-06-11T06:41:42Z</time>
      </trkpt>
      <trkpt lat="44.02601" lon="7.31017">
        <ele>637.4</ele>
        <time>2022-06-11T06:41:43Z</time>
      </trkpt>
      <trkpt lat="44.02604" lon="7.31016">
        <ele>637.2</ele>
        <time>2022-06-11T06:41:44Z</time>
      </trkpt>
      <trkpt lat="44.02607" lon="7.31014">
        <ele>637</ele>
        <time>2022-06-11T06:41:45Z</time>
      </trkpt>
      <trkpt lat="44.02609" lon="7.31013">
        <ele>636.8</ele>
        <time>2022-06-11T06:41:46Z</time>
      </trkpt>
      <trkpt lat="44.02612" lon="7.31011">
        <ele>636.5</ele>
        <time>2022-06-11T06:41:47Z</time>
      </trkpt>
      <trkpt lat="44.02614" lon="7.31009">
        <ele>636.5</ele>
        <time>2022-06-11T06:41:48Z</time>
      </trkpt>
      <trkpt lat="44.02616" lon="7.31007">
        <ele>636.4</ele>
        <time>2022-06-11T06:41:49Z</time>
      </trkpt>
      <trkpt lat="44.02619" lon="7.31006">
        <ele>636.6</ele>
        <time>2022-06-11T06:41:50Z</time>
      </trkpt>
      <trkpt lat="44.02621" lon="7.31004">
        <ele>636.7</ele>
        <time>2022-06-11T06:41:51Z</time>
      </trkpt>
      <trkpt lat="44.02624" lon="7.31003">
        <ele>636.9</ele>
        <time>2022-06-11T06:41:52Z</time>
      </trkpt>
      <trkpt lat="44.02626" lon="7.31001">
        <ele>637.1</ele>
        <time>2022-06-11T06:41:53Z</time>
      </trkpt>
      <trkpt lat="44.02629" lon="7.30999">
        <ele>637.2</ele>
        <time>2022-06-11T06:41:54Z</time>
      </trkpt>
      <trkpt lat="44.02632" lon="7.30998">
        <ele>637.4</ele>
        <time>2022-06-11T06:41:55Z</time>
      </trkpt>
      <trkpt lat="44.02634" lon="7.30995">
        <ele>637.3</ele>
        <time>2022-06-11T06:41:56Z</time>
      </trkpt>
      <trkpt lat="44.02636" lon="7.30993">
        <ele>637.1</ele>
        <time>2022-06-11T06:41:57Z</time>
      </trkpt>
      <trkpt lat="44.02638" lon="7.30991">
        <ele>637.2</ele>
        <time>2022-06-11T06:41:58Z</time>
      </trkpt>
      <trkpt lat="44.02641" lon="7.30989">
        <ele>637.1</ele>
        <time>2022-06-11T06:41:59Z</time>
      </trkpt>
      <trkpt lat="44.02643" lon="7.30988">
        <ele>637</ele>
        <time>2022-06-11T06:42:00Z</time>
      </trkpt>
      <trkpt lat="44.02646" lon="7.30987">
        <ele>636.9</ele>
        <time>2022-06-11T06:42:01Z</time>
      </trkpt>
      <trkpt lat="44.02648" lon="7.30986">
        <ele>636.8</ele>
        <time>2022-06-11T06:42:02Z</time>
      </trkpt>
      <trkpt lat="44.02651" lon="7.30986">
        <ele>637.1</ele>
        <time>2022-06-11T06:42:03Z</time>
      </trkpt>
      <trkpt lat="44.02654" lon="7.30986">
        <ele>637.3</ele>
        <time>2022-06-11T06:42:04Z</time>
      </trkpt>
      <trkpt lat="44.02656" lon="7.30987">
        <ele>637.7</ele>
        <time>2022-06-11T06:42:05Z</time>
      </trkpt>
      <trkpt lat="44.02659" lon="7.30986">
        <ele>637.7</ele>
        <time>2022-06-11T06:42:06Z</time>
      </trkpt>
      <trkpt lat="44.02661" lon="7.30986">
        <ele>638</ele>
        <time>2022-06-11T06:42:07Z</time>
      </trkpt>
      <trkpt lat="44.02664" lon="7.30987">
        <ele>638.5</ele>
        <time>2022-06-11T06:42:08Z</time>
      </trkpt>
      <trkpt lat="44.02666" lon="7.30987">
        <ele>638.9</ele>
        <time>2022-06-11T06:42:09Z</time>
      </trkpt>
      <trkpt lat="44.02669" lon="7.30989">
        <ele>639.4</ele>
        <time>2022-06-11T06:42:10Z</time>
      </trkpt>
      <trkpt lat="44.02671" lon="7.3099">
        <ele>639.8</ele>
        <time>2022-06-11T06:42:11Z</time>
      </trkpt>
      <trkpt lat="44.02673" lon="7.3099">
        <ele>640.2</ele>
        <time>2022-06-11T06:42:12Z</time>
      </trkpt>
      <trkpt lat="44.02676" lon="7.3099">
        <ele>640.2</ele>
        <time>2022-06-11T06:42:13Z</time>
      </trkpt>
      <trkpt lat="44.02678" lon="7.30991">
        <ele>640.5</ele>
        <time>2022-06-11T06:42:14Z</time>
      </trkpt>
      <trkpt lat="44.02681" lon="7.30991">
        <ele>640.8</ele>
        <time>2022-06-11T06:42:15Z</time>
      </trkpt>
      <trkpt lat="44.02683" lon="7.30992">
        <ele>641.1</ele>
        <time>2022-06-11T06:42:16Z</time>
      </trkpt>
      <trkpt lat="44.02686" lon="7.30993">
        <ele>641.6</ele>
        <time>2022-06-11T06:42:17Z</time>
      </trkpt>
      <trkpt lat="44.02689" lon="7.30993">
        <ele>641.9</ele>
        <time>2022-06-11T06:42:18Z</time>
      </trkpt>
      <trkpt lat="44.02692" lon="7.30994">
        <ele>642.3</ele>
        <time>2022-06-11T06:42:19Z</time>
      </trkpt>
      <trkpt lat="44.02695" lon="7.30994">
        <ele>642.5</ele>
        <time>2022-06-11T06:42:20Z</time>
      </trkpt>
      <trkpt lat="44.02698" lon="7.30994">
        <ele>642.7</ele>
        <time>2022-06-11T06:42:21Z</time>
      </trkpt>
      <trkpt lat="44.02701" lon="7.30994">
        <ele>643</ele>
        <time>2022-06-11T06:42:22Z</time>
      </trkpt>
      <trkpt lat="44.02703" lon="7.30994">
        <ele>643.2</ele>
        <time>2022-06-11T06:42:23Z</time>
      </trkpt>
      <trkpt lat="44.02706" lon="7.30993">
        <ele>643.2</ele>
        <time>2022-06-11T06:42:24Z</time>
      </trkpt>
      <trkpt lat="44.02709" lon="7.30993">
        <ele>643.3</ele>
        <time>2022-06-11T06:42:25Z</time>
      </trkpt>
      <trkpt lat="44.02712" lon="7.30993">
        <ele>643.5</ele>
        <time>2022-06-11T06:42:26Z</time>
      </trkpt>
      <trkpt lat="44.02715" lon="7.30993">
        <ele>643.8</ele>
        <time>2022-06-11T06:42:27Z</time>
      </trkpt>
      <trkpt lat="44.02717" lon="7.30993">
        <ele>644</ele>
        <time>2022-06-11T06:42:28Z</time>
      </trkpt>
      <trkpt lat="44.0272" lon="7.30994">
        <ele>644.3</ele>
        <time>2022-06-11T06:42:29Z</time>
      </trkpt>
      <trkpt lat="44.02723" lon="7.30993">
        <ele>644.3</ele>
        <time>2022-06-11T06:42:30Z</time>
      </trkpt>
      <trkpt lat="44.02726" lon="7.30993">
        <ele>644.5</ele>
        <time>2022-06-11T06:42:31Z</time>
      </trkpt>
      <trkpt lat="44.02729" lon="7.30993">
        <ele>644.9</ele>
        <time>2022-06-11T06:42:32Z</time>
      </trkpt>
      <trkpt lat="44.02732" lon="7.30992">
        <ele>645.1</ele>
        <time>2022-06-11T06:42:33Z</time>
      </trkpt>
      <trkpt lat="44.02735" lon="7.30991">
        <ele>645.1</ele>
        <time>2022-06-11T06:42:34Z</time>
      </trkpt>
      <trkpt lat="44.02737" lon="7.3099">
        <ele>645</ele>
        <time>2022-06-11T06:42:35Z</time>
      </trkpt>
      <trkpt lat="44.02741" lon="7.30989">
        <ele>644.8</ele>
        <time>2022-06-11T06:42:36Z</time>
      </trkpt>
      <trkpt lat="44.02743" lon="7.30987">
        <ele>644.7</ele>
        <time>2022-06-11T06:42:37Z</time>
      </trkpt>
      <trkpt lat="44.02746" lon="7.30986">
        <ele>644.6</ele>
        <time>2022-06-11T06:42:38Z</time>
      </trkpt>
      <trkpt lat="44.02749" lon="7.30986">
        <ele>644.7</ele>
        <time>2022-06-11T06:42:39Z</time>
      </trkpt>
      <trkpt lat="44.02752" lon="7.30986">
        <ele>645</ele>
        <time>2022-06-11T06:42:40Z</time>
      </trkpt>
      <trkpt lat="44.02755" lon="7.30985">
        <ele>645.2</ele>
        <time>2022-06-11T06:42:41Z</time>
      </trkpt>
      <trkpt lat="44.02758" lon="7.30985">
        <ele>645.7</ele>
        <time>2022-06-11T06:42:42Z</time>
      </trkpt>
      <trkpt lat="44.0276" lon="7.30984">
        <ele>645.5</ele>
        <time>2022-06-11T06:42:43Z</time>
      </trkpt>
      <trkpt lat="44.02763" lon="7.30983">
        <ele>645.5</ele>
        <time>2022-06-11T06:42:44Z</time>
      </trkpt>
      <trkpt lat="44.02766" lon="7.30983">
        <ele>645.7</ele>
        <time>2022-06-11T06:42:45Z</time>
      </trkpt>
      <trkpt lat="44.02768" lon="7.30983">
        <ele>646</ele>
        <time>2022-06-11T06:42:46Z</time>
      </trkpt>
      <trkpt lat="44.02771" lon="7.30982">
        <ele>646.1</ele>
        <time>2022-06-11T06:42:47Z</time>
      </trkpt>
      <trkpt lat="44.02774" lon="7.30983">
        <ele>646.7</ele>
        <time>2022-06-11T06:42:48Z</time>
      </trkpt>
      <trkpt lat="44.02776" lon="7.30983">
        <ele>647</ele>
        <time>2022-06-11T06:42:49Z</time>
      </trkpt>
      <trkpt lat="44.02778" lon="7.30983">
        <ele>647.3</ele>
        <time>2022-06-11T06:42:50Z</time>
      </trkpt>
      <trkpt lat="44.02781" lon="7.30982">
        <ele>647.5</ele>
        <time>2022-06-11T06:42:51Z</time>
      </trkpt>
      <trkpt lat="44.02783" lon="7.30982">
        <ele>647.8</ele>
        <time>2022-06-11T06:42:52Z</time>
      </trkpt>
      <trkpt lat="44.02786" lon="7.30981">
        <ele>647.6</ele>
        <time>2022-06-11T06:42:53Z</time>
      </trkpt>
      <trkpt lat="44.02788" lon="7.3098">
        <ele>647.9</ele>
        <time>2022-06-11T06:42:54Z</time>
      </trkpt>
      <trkpt lat="44.02791" lon="7.3098">
        <ele>648.2</ele>
        <time>2022-06-11T06:42:55Z</time>
      </trkpt>
      <trkpt lat="44.02794" lon="7.30979">
        <ele>648.4</ele>
        <time>2022-06-11T06:42:56Z</time>
      </trkpt>
      <trkpt lat="44.02797" lon="7.30979">
        <ele>648.6</ele>
        <time>2022-06-11T06:42:57Z</time>
      </trkpt>
      <trkpt lat="44.02799" lon="7.30979">
        <ele>649.3</ele>
        <time>2022-06-11T06:42:58Z</time>
      </trkpt>
      <trkpt lat="44.02802" lon="7.3098">
        <ele>650</ele>
        <time>2022-06-11T06:42:59Z</time>
      </trkpt>
      <trkpt lat="44.02805" lon="7.30979">
        <ele>650.1</ele>
        <time>2022-06-11T06:43:00Z</time>
      </trkpt>
      <trkpt lat="44.02807" lon="7.30978">
        <ele>650.1</ele>
        <time>2022-06-11T06:43:01Z</time>
      </trkpt>
      <trkpt lat="44.0281" lon="7.30978">
        <ele>650.9</ele>
        <time>2022-06-11T06:43:02Z</time>
      </trkpt>
      <trkpt lat="44.02813" lon="7.30978">
        <ele>651.2</ele>
        <time>2022-06-11T06:43:03Z</time>
      </trkpt>
      <trkpt lat="44.02815" lon="7.30978">
        <ele>651.6</ele>
        <time>2022-06-11T06:43:04Z</time>
      </trkpt>
      <trkpt lat="44.02818" lon="7.30978">
        <ele>652.1</ele>
        <time>2022-06-11T06:43:05Z</time>
      </trkpt>
      <trkpt lat="44.02821" lon="7.30976">
        <ele>651.7</ele>
        <time>2022-06-11T06:43:06Z</time>
      </trkpt>
      <trkpt lat="44.02824" lon="7.30974">
        <ele>651.2</ele>
        <time>2022-06-11T06:43:07Z</time>
      </trkpt>
      <trkpt lat="44.02826" lon="7.30973">
        <ele>651</ele>
        <time>2022-06-11T06:43:08Z</time>
      </trkpt>
      <trkpt lat="44.02829" lon="7.30972">
        <ele>651</ele>
        <time>2022-06-11T06:43:09Z</time>
      </trkpt>
      <trkpt lat="44.02832" lon="7.30971">
        <ele>651.3</ele>
        <time>2022-06-11T06:43:10Z</time>
      </trkpt>
      <trkpt lat="44.02834" lon="7.30971">
        <ele>651.5</ele>
        <time>2022-06-11T06:43:11Z</time>
      </trkpt>
      <trkpt lat="44.02837" lon="7.30971">
        <ele>651.9</ele>
        <time>2022-06-11T06:43:12Z</time>
      </trkpt>
      <trkpt lat="44.02839" lon="7.30969">
        <ele>651.7</ele>
        <time>2022-06-11T06:43:13Z</time>
      </trkpt>
      <trkpt lat="44.02842" lon="7.30968">
        <ele>651.5</ele>
        <time>2022-06-11T06:43:14Z</time>
      </trkpt>
      <trkpt lat="44.02844" lon="7.30967">
        <ele>651.6</ele>
        <time>2022-06-11T06:43:15Z</time>
      </trkpt>
      <trkpt lat="44.02846" lon="7.30965">
        <ele>651.1</ele>
        <time>2022-06-11T06:43:16Z</time>
      </trkpt>
      <trkpt lat="44.02849" lon="7.30964">
        <ele>650.9</ele>
        <time>2022-06-11T06:43:17Z</time>
      </trkpt>
      <trkpt lat="44.02851" lon="7.30962">
        <ele>650.7</ele>
        <time>2022-06-11T06:43:18Z</time>
      </trkpt>
      <trkpt lat="44.02854" lon="7.3096">
        <ele>650.4</ele>
        <time>2022-06-11T06:43:19Z</time>
      </trkpt>
      <trkpt lat="44.02856" lon="7.30959">
        <ele>650.2</ele>
        <time>2022-06-11T06:43:20Z</time>
      </trkpt>
      <trkpt lat="44.02858" lon="7.30957">
        <ele>650.1</ele>
        <time>2022-06-11T06:43:21Z</time>
      </trkpt>
      <trkpt lat="44.02861" lon="7.30955">
        <ele>649.8</ele>
        <time>2022-06-11T06:43:22Z</time>
      </trkpt>
      <trkpt lat="44.02863" lon="7.30954">
        <ele>649.8</ele>
        <time>2022-06-11T06:43:23Z</time>
      </trkpt>
      <trkpt lat="44.02865" lon="7.30952">
        <ele>649.6</ele>
        <time>2022-06-11T06:43:24Z</time>
      </trkpt>
      <trkpt lat="44.02867" lon="7.3095">
        <ele>649.6</ele>
        <time>2022-06-11T06:43:25Z</time>
      </trkpt>
      <trkpt lat="44.0287" lon="7.30948">
        <ele>649.3</ele>
        <time>2022-06-11T06:43:26Z</time>
      </trkpt>
      <trkpt lat="44.02872" lon="7.30946">
        <ele>649.1</ele>
        <time>2022-06-11T06:43:27Z</time>
      </trkpt>
      <trkpt lat="44.02874" lon="7.30944">
        <ele>649.1</ele>
        <time>2022-06-11T06:43:28Z</time>
      </trkpt>
      <trkpt lat="44.02876" lon="7.30943">
        <ele>649.3</ele>
        <time>2022-06-11T06:43:29Z</time>
      </trkpt>
      <trkpt lat="44.02879" lon="7.30941">
        <ele>649.4</ele>
        <time>2022-06-11T06:43:30Z</time>
      </trkpt>
      <trkpt lat="44.02881" lon="7.30939">
        <ele>649.3</ele>
        <time>2022-06-11T06:43:31Z</time>
      </trkpt>
      <trkpt lat="44.02883" lon="7.30937">
        <ele>649.3</ele>
        <time>2022-06-11T06:43:32Z</time>
      </trkpt>
      <trkpt lat="44.02885" lon="7.30935">
        <ele>649.4</ele>
        <time>2022-06-11T06:43:33Z</time>
      </trkpt>
      <trkpt lat="44.02887" lon="7.30934">
        <ele>649.5</ele>
        <time>2022-06-11T06:43:34Z</time>
      </trkpt>
      <trkpt lat="44.0289" lon="7.30932">
        <ele>649.7</ele>
        <time>2022-06-11T06:43:35Z</time>
      </trkpt>
      <trkpt lat="44.02892" lon="7.30931">
        <ele>650.2</ele>
        <time>2022-06-11T06:43:36Z</time>
      </trkpt>
      <trkpt lat="44.02894" lon="7.30929">
        <ele>650.6</ele>
        <time>2022-06-11T06:43:37Z</time>
      </trkpt>
      <trkpt lat="44.02896" lon="7.30928">
        <ele>650.8</ele>
        <time>2022-06-11T06:43:38Z</time>
      </trkpt>
      <trkpt lat="44.02899" lon="7.30926">
        <ele>651.2</ele>
        <time>2022-06-11T06:43:39Z</time>
      </trkpt>
      <trkpt lat="44.02901" lon="7.30924">
        <ele>651.5</ele>
        <time>2022-06-11T06:43:40Z</time>
      </trkpt>
      <trkpt lat="44.02903" lon="7.30923">
        <ele>651.7</ele>
        <time>2022-06-11T06:43:41Z</time>
      </trkpt>
      <trkpt lat="44.02905" lon="7.30921">
        <ele>652</ele>
        <time>2022-06-11T06:43:42Z</time>
      </trkpt>
      <trkpt lat="44.02907" lon="7.30919">
        <ele>652.4</ele>
        <time>2022-06-11T06:43:43Z</time>
      </trkpt>
      <trkpt lat="44.0291" lon="7.30918">
        <ele>652.7</ele>
        <time>2022-06-11T06:43:44Z</time>
      </trkpt>
      <trkpt lat="44.02912" lon="7.30916">
        <ele>653.1</ele>
        <time>2022-06-11T06:43:45Z</time>
      </trkpt>
      <trkpt lat="44.02914" lon="7.30915">
        <ele>653.5</ele>
        <time>2022-06-11T06:43:46Z</time>
      </trkpt>
      <trkpt lat="44.02916" lon="7.30914">
        <ele>653.8</ele>
        <time>2022-06-11T06:43:47Z</time>
      </trkpt>
      <trkpt lat="44.02919" lon="7.30912">
        <ele>654.4</ele>
        <time>2022-06-11T06:43:48Z</time>
      </trkpt>
      <trkpt lat="44.02921" lon="7.3091">
        <ele>654.9</ele>
        <time>2022-06-11T06:43:49Z</time>
      </trkpt>
      <trkpt lat="44.02923" lon="7.30908">
        <ele>655.2</ele>
        <time>2022-06-11T06:43:50Z</time>
      </trkpt>
      <trkpt lat="44.02925" lon="7.30906">
        <ele>655.5</ele>
        <time>2022-06-11T06:43:51Z</time>
      </trkpt>
      <trkpt lat="44.02927" lon="7.30904">
        <ele>655.9</ele>
        <time>2022-06-11T06:43:52Z</time>
      </trkpt>
      <trkpt lat="44.02929" lon="7.30902">
        <ele>656.5</ele>
        <time>2022-06-11T06:43:53Z</time>
      </trkpt>
      <trkpt lat="44.02932" lon="7.30901">
        <ele>656.9</ele>
        <time>2022-06-11T06:43:54Z</time>
      </trkpt>
      <trkpt lat="44.02934" lon="7.309">
        <ele>657.8</ele>
        <time>2022-06-11T06:43:55Z</time>
      </trkpt>
      <trkpt lat="44.02937" lon="7.30898">
        <ele>658.4</ele>
        <time>2022-06-11T06:43:56Z</time>
      </trkpt>
      <trkpt lat="44.0294" lon="7.30896">
        <ele>658.7</ele>
        <time>2022-06-11T06:43:57Z</time>
      </trkpt>
      <trkpt lat="44.02942" lon="7.30894">
        <ele>659.1</ele>
        <time>2022-06-11T06:43:58Z</time>
      </trkpt>
      <trkpt lat="44.02944" lon="7.30892">
        <ele>659.3</ele>
        <time>2022-06-11T06:43:59Z</time>
      </trkpt>
      <trkpt lat="44.02947" lon="7.3089">
        <ele>659.4</ele>
        <time>2022-06-11T06:44:00Z</time>
      </trkpt>
      <trkpt lat="44.02949" lon="7.30888">
        <ele>659.7</ele>
        <time>2022-06-11T06:44:01Z</time>
      </trkpt>
      <trkpt lat="44.02951" lon="7.30886">
        <ele>659.9</ele>
        <time>2022-06-11T06:44:02Z</time>
      </trkpt>
      <trkpt lat="44.02953" lon="7.30884">
        <ele>660.5</ele>
        <time>2022-06-11T06:44:03Z</time>
      </trkpt>
      <trkpt lat="44.02955" lon="7.30882">
        <ele>660.6</ele>
        <time>2022-06-11T06:44:04Z</time>
      </trkpt>
      <trkpt lat="44.02958" lon="7.3088">
        <ele>660.9</ele>
        <time>2022-06-11T06:44:05Z</time>
      </trkpt>
      <trkpt lat="44.0296" lon="7.30878">
        <ele>661.3</ele>
        <time>2022-06-11T06:44:06Z</time>
      </trkpt>
      <trkpt lat="44.02962" lon="7.30876">
        <ele>661.4</ele>
        <time>2022-06-11T06:44:07Z</time>
      </trkpt>
      <trkpt lat="44.02965" lon="7.30874">
        <ele>661.8</ele>
        <time>2022-06-11T06:44:08Z</time>
      </trkpt>
      <trkpt lat="44.02967" lon="7.30872">
        <ele>661.9</ele>
        <time>2022-06-11T06:44:09Z</time>
      </trkpt>
      <trkpt lat="44.02969" lon="7.30871">
        <ele>662.2</ele>
        <time>2022-06-11T06:44:10Z</time>
      </trkpt>
      <trkpt lat="44.02971" lon="7.30869">
        <ele>662.3</ele>
        <time>2022-06-11T06:44:11Z</time>
      </trkpt>
      <trkpt lat="44.02974" lon="7.30867">
        <ele>662.9</ele>
        <time>2022-06-11T06:44:12Z</time>
      </trkpt>
      <trkpt lat="44.02976" lon="7.30866">
        <ele>663.3</ele>
        <time>2022-06-11T06:44:13Z</time>
      </trkpt>
      <trkpt lat="44.02978" lon="7.30864">
        <ele>663.8</ele>
        <time>2022-06-11T06:44:14Z</time>
      </trkpt>
      <trkpt lat="44.02981" lon="7.30863">
        <ele>664.2</ele>
        <time>2022-06-11T06:44:15Z</time>
      </trkpt>
      <trkpt lat="44.02983" lon="7.3086">
        <ele>663.9</ele>
        <time>2022-06-11T06:44:16Z</time>
      </trkpt>
      <trkpt lat="44.02985" lon="7.30857">
        <ele>663.9</ele>
        <time>2022-06-11T06:44:17Z</time>
      </trkpt>
      <trkpt lat="44.02987" lon="7.30856">
        <ele>664.4</ele>
        <time>2022-06-11T06:44:18Z</time>
      </trkpt>
      <trkpt lat="44.02989" lon="7.30853">
        <ele>664.4</ele>
        <time>2022-06-11T06:44:19Z</time>
      </trkpt>
      <trkpt lat="44.02991" lon="7.30851">
        <ele>664.3</ele>
        <time>2022-06-11T06:44:20Z</time>
      </trkpt>
      <trkpt lat="44.02993" lon="7.30849">
        <ele>664.6</ele>
        <time>2022-06-11T06:44:21Z</time>
      </trkpt>
      <trkpt lat="44.02995" lon="7.30847">
        <ele>664.5</ele>
        <time>2022-06-11T06:44:22Z</time>
      </trkpt>
      <trkpt lat="44.02997" lon="7.30845">
        <ele>664.4</ele>
        <time>2022-06-11T06:44:23Z</time>
      </trkpt>
      <trkpt lat="44.02999" lon="7.30842">
        <ele>663.8</ele>
        <time>2022-06-11T06:44:24Z</time>
      </trkpt>
      <trkpt lat="44.03001" lon="7.30839">
        <ele>663.4</ele>
        <time>2022-06-11T06:44:25Z</time>
      </trkpt>
      <trkpt lat="44.03003" lon="7.30837">
        <ele>662.9</ele>
        <time>2022-06-11T06:44:26Z</time>
      </trkpt>
      <trkpt lat="44.03005" lon="7.30835">
        <ele>662.7</ele>
        <time>2022-06-11T06:44:27Z</time>
      </trkpt>
      <trkpt lat="44.03007" lon="7.30833">
        <ele>662.8</ele>
        <time>2022-06-11T06:44:28Z</time>
      </trkpt>
      <trkpt lat="44.03009" lon="7.3083">
        <ele>662.4</ele>
        <time>2022-06-11T06:44:29Z</time>
      </trkpt>
      <trkpt lat="44.03011" lon="7.30827">
        <ele>662.3</ele>
        <time>2022-06-11T06:44:30Z</time>
      </trkpt>
      <trkpt lat="44.03013" lon="7.30825">
        <ele>662.5</ele>
        <time>2022-06-11T06:44:31Z</time>
      </trkpt>
      <trkpt lat="44.03015" lon="7.30823">
        <ele>662.7</ele>
        <time>2022-06-11T06:44:32Z</time>
      </trkpt>
      <trkpt lat="44.03017" lon="7.3082">
        <ele>662.6</ele>
        <time>2022-06-11T06:44:33Z</time>
      </trkpt>
      <trkpt lat="44.03019" lon="7.30818">
        <ele>662.6</ele>
        <time>2022-06-11T06:44:34Z</time>
      </trkpt>
      <trkpt lat="44.03021" lon="7.30815">
        <ele>662.5</ele>
        <time>2022-06-11T06:44:35Z</time>
      </trkpt>
      <trkpt lat="44.03023" lon="7.30812">
        <ele>662.2</ele>
        <time>2022-06-11T06:44:36Z</time>
      </trkpt>
      <trkpt lat="44.03025" lon="7.30809">
        <ele>662.2</ele>
        <time>2022-06-11T06:44:37Z</time>
      </trkpt>
      <trkpt lat="44.03027" lon="7.30806">
        <ele>662.1</ele>
        <time>2022-06-11T06:44:38Z</time>
      </trkpt>
      <trkpt lat="44.0303" lon="7.30804">
        <ele>662.4</ele>
        <time>2022-06-11T06:44:39Z</time>
      </trkpt>
      <trkpt lat="44.03031" lon="7.30802">
        <ele>662.6</ele>
        <time>2022-06-11T06:44:40Z</time>
      </trkpt>
      <trkpt lat="44.03034" lon="7.308">
        <ele>663.1</ele>
        <time>2022-06-11T06:44:41Z</time>
      </trkpt>
      <trkpt lat="44.03036" lon="7.30798">
        <ele>663.6</ele>
        <time>2022-06-11T06:44:42Z</time>
      </trkpt>
      <trkpt lat="44.03038" lon="7.30796">
        <ele>663.7</ele>
        <time>2022-06-11T06:44:43Z</time>
      </trkpt>
      <trkpt lat="44.0304" lon="7.30794">
        <ele>664.4</ele>
        <time>2022-06-11T06:44:44Z</time>
      </trkpt>
      <trkpt lat="44.03043" lon="7.30791">
        <ele>664.8</ele>
        <time>2022-06-11T06:44:45Z</time>
      </trkpt>
      <trkpt lat="44.03045" lon="7.30789">
        <ele>665.1</ele>
        <time>2022-06-11T06:44:46Z</time>
      </trkpt>
      <trkpt lat="44.03046" lon="7.30787">
        <ele>665.2</ele>
        <time>2022-06-11T06:44:47Z</time>
      </trkpt>
      <trkpt lat="44.03048" lon="7.30783">
        <ele>665.1</ele>
        <time>2022-06-11T06:44:48Z</time>
      </trkpt>
      <trkpt lat="44.0305" lon="7.30781">
        <ele>665.1</ele>
        <time>2022-06-11T06:44:49Z</time>
      </trkpt>
      <trkpt lat="44.03052" lon="7.30778">
        <ele>665.3</ele>
        <time>2022-06-11T06:44:50Z</time>
      </trkpt>
      <trkpt lat="44.03054" lon="7.30776">
        <ele>665.8</ele>
        <time>2022-06-11T06:44:51Z</time>
      </trkpt>
      <trkpt lat="44.03057" lon="7.30774">
        <ele>666.6</ele>
        <time>2022-06-11T06:44:52Z</time>
      </trkpt>
      <trkpt lat="44.03059" lon="7.30772">
        <ele>666.8</ele>
        <time>2022-06-11T06:44:53Z</time>
      </trkpt>
      <trkpt lat="44.03061" lon="7.3077">
        <ele>667.5</ele>
        <time>2022-06-11T06:44:54Z</time>
      </trkpt>
      <trkpt lat="44.03063" lon="7.30767">
        <ele>667.7</ele>
        <time>2022-06-11T06:44:55Z</time>
      </trkpt>
      <trkpt lat="44.03065" lon="7.30765">
        <ele>668.1</ele>
        <time>2022-06-11T06:44:56Z</time>
      </trkpt>
      <trkpt lat="44.03067" lon="7.30762">
        <ele>668.3</ele>
        <time>2022-06-11T06:44:57Z</time>
      </trkpt>
      <trkpt lat="44.03068" lon="7.30759">
        <ele>668.3</ele>
        <time>2022-06-11T06:44:58Z</time>
      </trkpt>
      <trkpt lat="44.0307" lon="7.30756">
        <ele>668.3</ele>
        <time>2022-06-11T06:44:59Z</time>
      </trkpt>
      <trkpt lat="44.03072" lon="7.30753">
        <ele>668</ele>
        <time>2022-06-11T06:45:00Z</time>
      </trkpt>
      <trkpt lat="44.03074" lon="7.3075">
        <ele>668.2</ele>
        <time>2022-06-11T06:45:01Z</time>
      </trkpt>
      <trkpt lat="44.03075" lon="7.30747">
        <ele>667.8</ele>
        <time>2022-06-11T06:45:02Z</time>
      </trkpt>
      <trkpt lat="44.03078" lon="7.30744">
        <ele>668.1</ele>
        <time>2022-06-11T06:45:03Z</time>
      </trkpt>
      <trkpt lat="44.0308" lon="7.30742">
        <ele>668.2</ele>
        <time>2022-06-11T06:45:04Z</time>
      </trkpt>
      <trkpt lat="44.03081" lon="7.30739">
        <ele>668.1</ele>
        <time>2022-06-11T06:45:05Z</time>
      </trkpt>
      <trkpt lat="44.03083" lon="7.30736">
        <ele>667.9</ele>
        <time>2022-06-11T06:45:06Z</time>
      </trkpt>
      <trkpt lat="44.03085" lon="7.30734">
        <ele>667.8</ele>
        <time>2022-06-11T06:45:07Z</time>
      </trkpt>
      <trkpt lat="44.03087" lon="7.30731">
        <ele>667.6</ele>
        <time>2022-06-11T06:45:08Z</time>
      </trkpt>
      <trkpt lat="44.03089" lon="7.30728">
        <ele>667.4</ele>
        <time>2022-06-11T06:45:09Z</time>
      </trkpt>
      <trkpt lat="44.0309" lon="7.30724">
        <ele>667</ele>
        <time>2022-06-11T06:45:10Z</time>
      </trkpt>
      <trkpt lat="44.03092" lon="7.30722">
        <ele>667.2</ele>
        <time>2022-06-11T06:45:11Z</time>
      </trkpt>
      <trkpt lat="44.03094" lon="7.30719">
        <ele>667.2</ele>
        <time>2022-06-11T06:45:12Z</time>
      </trkpt>
      <trkpt lat="44.03096" lon="7.30717">
        <ele>667.7</ele>
        <time>2022-06-11T06:45:13Z</time>
      </trkpt>
      <trkpt lat="44.03098" lon="7.30715">
        <ele>667.9</ele>
        <time>2022-06-11T06:45:14Z</time>
      </trkpt>
      <trkpt lat="44.031" lon="7.30712">
        <ele>668.2</ele>
        <time>2022-06-11T06:45:15Z</time>
      </trkpt>
      <trkpt lat="44.03102" lon="7.30709">
        <ele>668.2</ele>
        <time>2022-06-11T06:45:16Z</time>
      </trkpt>
      <trkpt lat="44.03104" lon="7.30706">
        <ele>668.1</ele>
        <time>2022-06-11T06:45:17Z</time>
      </trkpt>
      <trkpt lat="44.03106" lon="7.30703">
        <ele>668</ele>
        <time>2022-06-11T06:45:18Z</time>
      </trkpt>
      <trkpt lat="44.03107" lon="7.307">
        <ele>667.6</ele>
        <time>2022-06-11T06:45:19Z</time>
      </trkpt>
      <trkpt lat="44.03109" lon="7.30696">
        <ele>667.4</ele>
        <time>2022-06-11T06:45:20Z</time>
      </trkpt>
      <trkpt lat="44.0311" lon="7.30693">
        <ele>667.3</ele>
        <time>2022-06-11T06:45:21Z</time>
      </trkpt>
      <trkpt lat="44.03111" lon="7.30689">
        <ele>667.7</ele>
        <time>2022-06-11T06:45:22Z</time>
      </trkpt>
      <trkpt lat="44.03112" lon="7.30685">
        <ele>668</ele>
        <time>2022-06-11T06:45:23Z</time>
      </trkpt>
      <trkpt lat="44.03113" lon="7.3068">
        <ele>668</ele>
        <time>2022-06-11T06:45:24Z</time>
      </trkpt>
      <trkpt lat="44.03114" lon="7.30677">
        <ele>668.3</ele>
        <time>2022-06-11T06:45:25Z</time>
      </trkpt>
      <trkpt lat="44.03115" lon="7.30673">
        <ele>668.8</ele>
        <time>2022-06-11T06:45:26Z</time>
      </trkpt>
      <trkpt lat="44.03115" lon="7.30669">
        <ele>668.8</ele>
        <time>2022-06-11T06:45:27Z</time>
      </trkpt>
      <trkpt lat="44.03116" lon="7.30666">
        <ele>669</ele>
        <time>2022-06-11T06:45:28Z</time>
      </trkpt>
      <trkpt lat="44.03116" lon="7.30662">
        <ele>669.4</ele>
        <time>2022-06-11T06:45:29Z</time>
      </trkpt>
      <trkpt lat="44.03117" lon="7.30658">
        <ele>669.3</ele>
        <time>2022-06-11T06:45:30Z</time>
      </trkpt>
      <trkpt lat="44.03117" lon="7.30655">
        <ele>669.4</ele>
        <time>2022-06-11T06:45:31Z</time>
      </trkpt>
      <trkpt lat="44.03117" lon="7.30651">
        <ele>669.3</ele>
        <time>2022-06-11T06:45:32Z</time>
      </trkpt>
      <trkpt lat="44.03117" lon="7.30648">
        <ele>669.3</ele>
        <time>2022-06-11T06:45:33Z</time>
      </trkpt>
      <trkpt lat="44.03118" lon="7.30644">
        <ele>669.4</ele>
        <time>2022-06-11T06:45:34Z</time>
      </trkpt>
      <trkpt lat="44.03118" lon="7.30641">
        <ele>669.6</ele>
        <time>2022-06-11T06:45:35Z</time>
      </trkpt>
      <trkpt lat="44.03119" lon="7.30638">
        <ele>670.1</ele>
        <time>2022-06-11T06:45:36Z</time>
      </trkpt>
      <trkpt lat="44.0312" lon="7.30635">
        <ele>669.7</ele>
        <time>2022-06-11T06:45:37Z</time>
      </trkpt>
      <trkpt lat="44.0312" lon="7.30632">
        <ele>669.5</ele>
        <time>2022-06-11T06:45:38Z</time>
      </trkpt>
      <trkpt lat="44.03121" lon="7.30629">
        <ele>669.4</ele>
        <time>2022-06-11T06:45:39Z</time>
      </trkpt>
      <trkpt lat="44.03122" lon="7.30626">
        <ele>669.5</ele>
        <time>2022-06-11T06:45:40Z</time>
      </trkpt>
      <trkpt lat="44.03123" lon="7.30622">
        <ele>669.7</ele>
        <time>2022-06-11T06:45:41Z</time>
      </trkpt>
      <trkpt lat="44.03124" lon="7.30619">
        <ele>670</ele>
        <time>2022-06-11T06:45:42Z</time>
      </trkpt>
      <trkpt lat="44.03126" lon="7.30617">
        <ele>670.5</ele>
        <time>2022-06-11T06:45:43Z</time>
      </trkpt>
      <trkpt lat="44.03128" lon="7.30615">
        <ele>671.7</ele>
        <time>2022-06-11T06:45:44Z</time>
      </trkpt>
      <trkpt lat="44.0313" lon="7.30614">
        <ele>672.9</ele>
        <time>2022-06-11T06:45:45Z</time>
      </trkpt>
      <trkpt lat="44.03133" lon="7.30613">
        <ele>674.4</ele>
        <time>2022-06-11T06:45:46Z</time>
      </trkpt>
      <trkpt lat="44.03135" lon="7.30611">
        <ele>675.4</ele>
        <time>2022-06-11T06:45:47Z</time>
      </trkpt>
      <trkpt lat="44.03138" lon="7.30609">
        <ele>676.5</ele>
        <time>2022-06-11T06:45:48Z</time>
      </trkpt>
      <trkpt lat="44.03139" lon="7.30608">
        <ele>677.2</ele>
        <time>2022-06-11T06:45:49Z</time>
      </trkpt>
      <trkpt lat="44.03141" lon="7.30605">
        <ele>677.6</ele>
        <time>2022-06-11T06:45:50Z</time>
      </trkpt>
      <trkpt lat="44.03143" lon="7.30603">
        <ele>678.5</ele>
        <time>2022-06-11T06:45:51Z</time>
      </trkpt>
      <trkpt lat="44.03145" lon="7.30602">
        <ele>679.5</ele>
        <time>2022-06-11T06:45:52Z</time>
      </trkpt>
      <trkpt lat="44.03147" lon="7.306">
        <ele>680.3</ele>
        <time>2022-06-11T06:45:53Z</time>
      </trkpt>
      <trkpt lat="44.03149" lon="7.30599">
        <ele>681.1</ele>
        <time>2022-06-11T06:45:54Z</time>
      </trkpt>
      <trkpt lat="44.03151" lon="7.30596">
        <ele>681.6</ele>
        <time>2022-06-11T06:45:55Z</time>
      </trkpt>
      <trkpt lat="44.03153" lon="7.30594">
        <ele>682.1</ele>
        <time>2022-06-11T06:45:56Z</time>
      </trkpt>
      <trkpt lat="44.03155" lon="7.30591">
        <ele>682.4</ele>
        <time>2022-06-11T06:45:57Z</time>
      </trkpt>
      <trkpt lat="44.03156" lon="7.30588">
        <ele>682.6</ele>
        <time>2022-06-11T06:45:58Z</time>
      </trkpt>
      <trkpt lat="44.03158" lon="7.30584">
        <ele>682.5</ele>
        <time>2022-06-11T06:45:59Z</time>
      </trkpt>
      <trkpt lat="44.0316" lon="7.30581">
        <ele>682.6</ele>
        <time>2022-06-11T06:46:00Z</time>
      </trkpt>
      <trkpt lat="44.03162" lon="7.30579">
        <ele>683.5</ele>
        <time>2022-06-11T06:46:01Z</time>
      </trkpt>
      <trkpt lat="44.03164" lon="7.30577">
        <ele>684</ele>
        <time>2022-06-11T06:46:02Z</time>
      </trkpt>
      <trkpt lat="44.03165" lon="7.30572">
        <ele>682.8</ele>
        <time>2022-06-11T06:46:03Z</time>
      </trkpt>
      <trkpt lat="44.03167" lon="7.3057">
        <ele>683</ele>
        <time>2022-06-11T06:46:04Z</time>
      </trkpt>
      <trkpt lat="44.03168" lon="7.30567">
        <ele>683</ele>
        <time>2022-06-11T06:46:05Z</time>
      </trkpt>
      <trkpt lat="44.0317" lon="7.30564">
        <ele>683.2</ele>
        <time>2022-06-11T06:46:06Z</time>
      </trkpt>
      <trkpt lat="44.03171" lon="7.3056">
        <ele>682.5</ele>
        <time>2022-06-11T06:46:07Z</time>
      </trkpt>
      <trkpt lat="44.03173" lon="7.30557">
        <ele>682.5</ele>
        <time>2022-06-11T06:46:08Z</time>
      </trkpt>
      <trkpt lat="44.03175" lon="7.30554">
        <ele>682.3</ele>
        <time>2022-06-11T06:46:09Z</time>
      </trkpt>
      <trkpt lat="44.03176" lon="7.3055">
        <ele>682.1</ele>
        <time>2022-06-11T06:46:10Z</time>
      </trkpt>
      <trkpt lat="44.03178" lon="7.30547">
        <ele>682</ele>
        <time>2022-06-11T06:46:11Z</time>
      </trkpt>
      <trkpt lat="44.03179" lon="7.30543">
        <ele>681.6</ele>
        <time>2022-06-11T06:46:12Z</time>
      </trkpt>
      <trkpt lat="44.03181" lon="7.3054">
        <ele>681.6</ele>
        <time>2022-06-11T06:46:13Z</time>
      </trkpt>
      <trkpt lat="44.03183" lon="7.30537">
        <ele>681.6</ele>
        <time>2022-06-11T06:46:14Z</time>
      </trkpt>
      <trkpt lat="44.03184" lon="7.30534">
        <ele>681.5</ele>
        <time>2022-06-11T06:46:15Z</time>
      </trkpt>
      <trkpt lat="44.03186" lon="7.30531">
        <ele>681.2</ele>
        <time>2022-06-11T06:46:16Z</time>
      </trkpt>
      <trkpt lat="44.03187" lon="7.30527">
        <ele>680.6</ele>
        <time>2022-06-11T06:46:17Z</time>
      </trkpt>
      <trkpt lat="44.03188" lon="7.30525">
        <ele>680.8</ele>
        <time>2022-06-11T06:46:18Z</time>
      </trkpt>
      <trkpt lat="44.0319" lon="7.30522">
        <ele>680.8</ele>
        <time>2022-06-11T06:46:19Z</time>
      </trkpt>
      <trkpt lat="44.0319" lon="7.30518">
        <ele>680.2</ele>
        <time>2022-06-11T06:46:20Z</time>
      </trkpt>
      <trkpt lat="44.03191" lon="7.30513">
        <ele>679.7</ele>
        <time>2022-06-11T06:46:21Z</time>
      </trkpt>
      <trkpt lat="44.03193" lon="7.30509">
        <ele>679.1</ele>
        <time>2022-06-11T06:46:22Z</time>
      </trkpt>
      <trkpt lat="44.03194" lon="7.30505">
        <ele>679.2</ele>
        <time>2022-06-11T06:46:23Z</time>
      </trkpt>
      <trkpt lat="44.03196" lon="7.30501">
        <ele>678.9</ele>
        <time>2022-06-11T06:46:24Z</time>
      </trkpt>
      <trkpt lat="44.03197" lon="7.30498">
        <ele>678.8</ele>
        <time>2022-06-11T06:46:25Z</time>
      </trkpt>
      <trkpt lat="44.03199" lon="7.30494">
        <ele>678.9</ele>
        <time>2022-06-11T06:46:26Z</time>
      </trkpt>
      <trkpt lat="44.03201" lon="7.3049">
        <ele>678.6</ele>
        <time>2022-06-11T06:46:27Z</time>
      </trkpt>
      <trkpt lat="44.03203" lon="7.30487">
        <ele>678.6</ele>
        <time>2022-06-11T06:46:28Z</time>
      </trkpt>
      <trkpt lat="44.03204" lon="7.30484">
        <ele>678.7</ele>
        <time>2022-06-11T06:46:29Z</time>
      </trkpt>
      <trkpt lat="44.03206" lon="7.30481">
        <ele>678.8</ele>
        <time>2022-06-11T06:46:30Z</time>
      </trkpt>
      <trkpt lat="44.03208" lon="7.30477">
        <ele>678.6</ele>
        <time>2022-06-11T06:46:31Z</time>
      </trkpt>
      <trkpt lat="44.0321" lon="7.30475">
        <ele>678.8</ele>
        <time>2022-06-11T06:46:32Z</time>
      </trkpt>
      <trkpt lat="44.03212" lon="7.30472">
        <ele>678.8</ele>
        <time>2022-06-11T06:46:33Z</time>
      </trkpt>
      <trkpt lat="44.03214" lon="7.30469">
        <ele>679.2</ele>
        <time>2022-06-11T06:46:34Z</time>
      </trkpt>
      <trkpt lat="44.03216" lon="7.30467">
        <ele>679.5</ele>
        <time>2022-06-11T06:46:35Z</time>
      </trkpt>
      <trkpt lat="44.03218" lon="7.30464">
        <ele>679.6</ele>
        <time>2022-06-11T06:46:36Z</time>
      </trkpt>
      <trkpt lat="44.0322" lon="7.30462">
        <ele>680</ele>
        <time>2022-06-11T06:46:37Z</time>
      </trkpt>
      <trkpt lat="44.03222" lon="7.3046">
        <ele>680.4</ele>
        <time>2022-06-11T06:46:38Z</time>
      </trkpt>
      <trkpt lat="44.03224" lon="7.30458">
        <ele>680.6</ele>
        <time>2022-06-11T06:46:39Z</time>
      </trkpt>
      <trkpt lat="44.03227" lon="7.30456">
        <ele>681.1</ele>
        <time>2022-06-11T06:46:40Z</time>
      </trkpt>
      <trkpt lat="44.03229" lon="7.30454">
        <ele>681.4</ele>
        <time>2022-06-11T06:46:41Z</time>
      </trkpt>
      <trkpt lat="44.03232" lon="7.30452">
        <ele>681.8</ele>
        <time>2022-06-11T06:46:42Z</time>
      </trkpt>
      <trkpt lat="44.03234" lon="7.3045">
        <ele>682.1</ele>
        <time>2022-06-11T06:46:43Z</time>
      </trkpt>
      <trkpt lat="44.03236" lon="7.30448">
        <ele>682.1</ele>
        <time>2022-06-11T06:46:44Z</time>
      </trkpt>
      <trkpt lat="44.03238" lon="7.30446">
        <ele>682.6</ele>
        <time>2022-06-11T06:46:45Z</time>
      </trkpt>
      <trkpt lat="44.03241" lon="7.30444">
        <ele>682.9</ele>
        <time>2022-06-11T06:46:46Z</time>
      </trkpt>
      <trkpt lat="44.03243" lon="7.30443">
        <ele>683.4</ele>
        <time>2022-06-11T06:46:47Z</time>
      </trkpt>
      <trkpt lat="44.03246" lon="7.30441">
        <ele>683.8</ele>
        <time>2022-06-11T06:46:48Z</time>
      </trkpt>
      <trkpt lat="44.03249" lon="7.3044">
        <ele>684.4</ele>
        <time>2022-06-11T06:46:49Z</time>
      </trkpt>
      <trkpt lat="44.03251" lon="7.30438">
        <ele>684.7</ele>
        <time>2022-06-11T06:46:50Z</time>
      </trkpt>
      <trkpt lat="44.03254" lon="7.30436">
        <ele>685</ele>
        <time>2022-06-11T06:46:51Z</time>
      </trkpt>
      <trkpt lat="44.03256" lon="7.30434">
        <ele>685.3</ele>
        <time>2022-06-11T06:46:52Z</time>
      </trkpt>
      <trkpt lat="44.03258" lon="7.30432">
        <ele>685.3</ele>
        <time>2022-06-11T06:46:53Z</time>
      </trkpt>
      <trkpt lat="44.03261" lon="7.3043">
        <ele>685.5</ele>
        <time>2022-06-11T06:46:54Z</time>
      </trkpt>
      <trkpt lat="44.03263" lon="7.30428">
        <ele>685.8</ele>
        <time>2022-06-11T06:46:55Z</time>
      </trkpt>
      <trkpt lat="44.03266" lon="7.30427">
        <ele>686.1</ele>
        <time>2022-06-11T06:46:56Z</time>
      </trkpt>
      <trkpt lat="44.03268" lon="7.30425">
        <ele>686.4</ele>
        <time>2022-06-11T06:46:57Z</time>
      </trkpt>
      <trkpt lat="44.03271" lon="7.30423">
        <ele>686.7</ele>
        <time>2022-06-11T06:46:58Z</time>
      </trkpt>
      <trkpt lat="44.03273" lon="7.30421">
        <ele>686.8</ele>
        <time>2022-06-11T06:46:59Z</time>
      </trkpt>
      <trkpt lat="44.03276" lon="7.30418">
        <ele>686.8</ele>
        <time>2022-06-11T06:47:00Z</time>
      </trkpt>
      <trkpt lat="44.03278" lon="7.30416">
        <ele>686.9</ele>
        <time>2022-06-11T06:47:01Z</time>
      </trkpt>
      <trkpt lat="44.0328" lon="7.30414">
        <ele>687.3</ele>
        <time>2022-06-11T06:47:02Z</time>
      </trkpt>
      <trkpt lat="44.03283" lon="7.30414">
        <ele>688.1</ele>
        <time>2022-06-11T06:47:03Z</time>
      </trkpt>
      <trkpt lat="44.03286" lon="7.30413">
        <ele>688.8</ele>
        <time>2022-06-11T06:47:04Z</time>
      </trkpt>
      <trkpt lat="44.03289" lon="7.30412">
        <ele>689.3</ele>
        <time>2022-06-11T06:47:05Z</time>
      </trkpt>
      <trkpt lat="44.03291" lon="7.3041">
        <ele>689.6</ele>
        <time>2022-06-11T06:47:06Z</time>
      </trkpt>
      <trkpt lat="44.03293" lon="7.30409">
        <ele>690</ele>
        <time>2022-06-11T06:47:07Z</time>
      </trkpt>
      <trkpt lat="44.03296" lon="7.30407">
        <ele>690.5</ele>
        <time>2022-06-11T06:47:08Z</time>
      </trkpt>
      <trkpt lat="44.03298" lon="7.30405">
        <ele>690.8</ele>
        <time>2022-06-11T06:47:09Z</time>
      </trkpt>
      <trkpt lat="44.033" lon="7.30403">
        <ele>690.9</ele>
        <time>2022-06-11T06:47:10Z</time>
      </trkpt>
      <trkpt lat="44.03303" lon="7.304">
        <ele>691</ele>
        <time>2022-06-11T06:47:11Z</time>
      </trkpt>
      <trkpt lat="44.03305" lon="7.30398">
        <ele>690.9</ele>
        <time>2022-06-11T06:47:12Z</time>
      </trkpt>
      <trkpt lat="44.03307" lon="7.30395">
        <ele>690.8</ele>
        <time>2022-06-11T06:47:13Z</time>
      </trkpt>
      <trkpt lat="44.03309" lon="7.30392">
        <ele>691</ele>
        <time>2022-06-11T06:47:14Z</time>
      </trkpt>
      <trkpt lat="44.03311" lon="7.3039">
        <ele>691</ele>
        <time>2022-06-11T06:47:15Z</time>
      </trkpt>
      <trkpt lat="44.03314" lon="7.30388">
        <ele>691.4</ele>
        <time>2022-06-11T06:47:16Z</time>
      </trkpt>
      <trkpt lat="44.03316" lon="7.30386">
        <ele>691.6</ele>
        <time>2022-06-11T06:47:17Z</time>
      </trkpt>
      <trkpt lat="44.03318" lon="7.30382">
        <ele>691.5</ele>
        <time>2022-06-11T06:47:18Z</time>
      </trkpt>
      <trkpt lat="44.0332" lon="7.30378">
        <ele>691.1</ele>
        <time>2022-06-11T06:47:19Z</time>
      </trkpt>
      <trkpt lat="44.03322" lon="7.30375">
        <ele>690.9</ele>
        <time>2022-06-11T06:47:20Z</time>
      </trkpt>
      <trkpt lat="44.03324" lon="7.30372">
        <ele>690.9</ele>
        <time>2022-06-11T06:47:21Z</time>
      </trkpt>
      <trkpt lat="44.03326" lon="7.30369">
        <ele>690.9</ele>
        <time>2022-06-11T06:47:22Z</time>
      </trkpt>
      <trkpt lat="44.03328" lon="7.30366">
        <ele>690.8</ele>
        <time>2022-06-11T06:47:23Z</time>
      </trkpt>
      <trkpt lat="44.03331" lon="7.30363">
        <ele>690.8</ele>
        <time>2022-06-11T06:47:24Z</time>
      </trkpt>
      <trkpt lat="44.03333" lon="7.3036">
        <ele>690.6</ele>
        <time>2022-06-11T06:47:25Z</time>
      </trkpt>
      <trkpt lat="44.03335" lon="7.30358">
        <ele>691</ele>
        <time>2022-06-11T06:47:26Z</time>
      </trkpt>
      <trkpt lat="44.03338" lon="7.30356">
        <ele>691.4</ele>
        <time>2022-06-11T06:47:27Z</time>
      </trkpt>
      <trkpt lat="44.0334" lon="7.30353">
        <ele>691.4</ele>
        <time>2022-06-11T06:47:28Z</time>
      </trkpt>
      <trkpt lat="44.03342" lon="7.30351">
        <ele>691.7</ele>
        <time>2022-06-11T06:47:29Z</time>
      </trkpt>
      <trkpt lat="44.03344" lon="7.30348">
        <ele>691.8</ele>
        <time>2022-06-11T06:47:30Z</time>
      </trkpt>
      <trkpt lat="44.03347" lon="7.30346">
        <ele>692.2</ele>
        <time>2022-06-11T06:47:31Z</time>
      </trkpt>
      <trkpt lat="44.03349" lon="7.30344">
        <ele>692.3</ele>
        <time>2022-06-11T06:47:32Z</time>
      </trkpt>
      <trkpt lat="44.03351" lon="7.3034">
        <ele>692</ele>
        <time>2022-06-11T06:47:33Z</time>
      </trkpt>
      <trkpt lat="44.03353" lon="7.30337">
        <ele>691.9</ele>
        <time>2022-06-11T06:47:34Z</time>
      </trkpt>
      <trkpt lat="44.03356" lon="7.30334">
        <ele>691.8</ele>
        <time>2022-06-11T06:47:35Z</time>
      </trkpt>
      <trkpt lat="44.03358" lon="7.30332">
        <ele>692</ele>
        <time>2022-06-11T06:47:36Z</time>
      </trkpt>
      <trkpt lat="44.0336" lon="7.30328">
        <ele>692</ele>
        <time>2022-06-11T06:47:37Z</time>
      </trkpt>
      <trkpt lat="44.03363" lon="7.30325">
        <ele>692.2</ele>
        <time>2022-06-11T06:47:38Z</time>
      </trkpt>
      <trkpt lat="44.03365" lon="7.30323">
        <ele>692.4</ele>
        <time>2022-06-11T06:47:39Z</time>
      </trkpt>
      <trkpt lat="44.03367" lon="7.30319">
        <ele>692.4</ele>
        <time>2022-06-11T06:47:40Z</time>
      </trkpt>
      <trkpt lat="44.03369" lon="7.30316">
        <ele>692.4</ele>
        <time>2022-06-11T06:47:41Z</time>
      </trkpt>
      <trkpt lat="44.03371" lon="7.30312">
        <ele>692.2</ele>
        <time>2022-06-11T06:47:42Z</time>
      </trkpt>
      <trkpt lat="44.03372" lon="7.30308">
        <ele>691.8</ele>
        <time>2022-06-11T06:47:43Z</time>
      </trkpt>
      <trkpt lat="44.03374" lon="7.30303">
        <ele>691.3</ele>
        <time>2022-06-11T06:47:44Z</time>
      </trkpt>
      <trkpt lat="44.03375" lon="7.30298">
        <ele>690.7</ele>
        <time>2022-06-11T06:47:45Z</time>
      </trkpt>
      <trkpt lat="44.03376" lon="7.30294">
        <ele>690.2</ele>
        <time>2022-06-11T06:47:46Z</time>
      </trkpt>
      <trkpt lat="44.03377" lon="7.30289">
        <ele>689.7</ele>
        <time>2022-06-11T06:47:47Z</time>
      </trkpt>
      <trkpt lat="44.03378" lon="7.30285">
        <ele>689.2</ele>
        <time>2022-06-11T06:47:48Z</time>
      </trkpt>
      <trkpt lat="44.03378" lon="7.3028">
        <ele>688.5</ele>
        <time>2022-06-11T06:47:49Z</time>
      </trkpt>
      <trkpt lat="44.03379" lon="7.30276">
        <ele>688.1</ele>
        <time>2022-06-11T06:47:50Z</time>
      </trkpt>
      <trkpt lat="44.03379" lon="7.30273">
        <ele>687.7</ele>
        <time>2022-06-11T06:47:51Z</time>
      </trkpt>
      <trkpt lat="44.03379" lon="7.30268">
        <ele>687.4</ele>
        <time>2022-06-11T06:47:52Z</time>
      </trkpt>
      <trkpt lat="44.03379" lon="7.30264">
        <ele>686.9</ele>
        <time>2022-06-11T06:47:53Z</time>
      </trkpt>
      <trkpt lat="44.03379" lon="7.30259">
        <ele>686.4</ele>
        <time>2022-06-11T06:47:54Z</time>
      </trkpt>
      <trkpt lat="44.03378" lon="7.30254">
        <ele>685.8</ele>
        <time>2022-06-11T06:47:55Z</time>
      </trkpt>
      <trkpt lat="44.03377" lon="7.30249">
        <ele>685.2</ele>
        <time>2022-06-11T06:47:56Z</time>
      </trkpt>
      <trkpt lat="44.03376" lon="7.30243">
        <ele>684.7</ele>
        <time>2022-06-11T06:47:57Z</time>
      </trkpt>
      <trkpt lat="44.03374" lon="7.30237">
        <ele>684.2</ele>
        <time>2022-06-11T06:47:58Z</time>
      </trkpt>
      <trkpt lat="44.03373" lon="7.30231">
        <ele>683.7</ele>
        <time>2022-06-11T06:47:59Z</time>
      </trkpt>
      <trkpt lat="44.03372" lon="7.30225">
        <ele>683.2</ele>
        <time>2022-06-11T06:48:00Z</time>
      </trkpt>
      <trkpt lat="44.0337" lon="7.30219">
        <ele>683.2</ele>
        <time>2022-06-11T06:48:01Z</time>
      </trkpt>
      <trkpt lat="44.03369" lon="7.30212">
        <ele>683.4</ele>
        <time>2022-06-11T06:48:02Z</time>
      </trkpt>
      <trkpt lat="44.03368" lon="7.30206">
        <ele>683.6</ele>
        <time>2022-06-11T06:48:03Z</time>
      </trkpt>
      <trkpt lat="44.03366" lon="7.302">
        <ele>683.9</ele>
        <time>2022-06-11T06:48:04Z</time>
      </trkpt>
      <trkpt lat="44.03365" lon="7.30194">
        <ele>684.3</ele>
        <time>2022-06-11T06:48:05Z</time>
      </trkpt>
      <trkpt lat="44.03363" lon="7.30188">
        <ele>685.8</ele>
        <time>2022-06-11T06:48:06Z</time>
      </trkpt>
      <trkpt lat="44.03361" lon="7.30182">
        <ele>687.3</ele>
        <time>2022-06-11T06:48:07Z</time>
      </trkpt>
      <trkpt lat="44.03359" lon="7.30176">
        <ele>688.5</ele>
        <time>2022-06-11T06:48:08Z</time>
      </trkpt>
      <trkpt lat="44.03355" lon="7.30172">
        <ele>689.4</ele>
        <time>2022-06-11T06:48:09Z</time>
      </trkpt>
      <trkpt lat="44.0335" lon="7.30169">
        <ele>690</ele>
        <time>2022-06-11T06:48:10Z</time>
      </trkpt>
      <trkpt lat="44.03346" lon="7.30167">
        <ele>690.4</ele>
        <time>2022-06-11T06:48:11Z</time>
      </trkpt>
      <trkpt lat="44.03341" lon="7.30166">
        <ele>690.8</ele>
        <time>2022-06-11T06:48:12Z</time>
      </trkpt>
      <trkpt lat="44.03336" lon="7.30165">
        <ele>691.2</ele>
        <time>2022-06-11T06:48:13Z</time>
      </trkpt>
      <trkpt lat="44.03331" lon="7.30164">
        <ele>691.3</ele>
        <time>2022-06-11T06:48:14Z</time>
      </trkpt>
      <trkpt lat="44.03325" lon="7.30164">
        <ele>690.8</ele>
        <time>2022-06-11T06:48:15Z</time>
      </trkpt>
      <trkpt lat="44.0332" lon="7.30163">
        <ele>690.3</ele>
        <time>2022-06-11T06:48:16Z</time>
      </trkpt>
      <trkpt lat="44.03315" lon="7.30161">
        <ele>690.2</ele>
        <time>2022-06-11T06:48:17Z</time>
      </trkpt>
      <trkpt lat="44.0331" lon="7.30158">
        <ele>690.4</ele>
        <time>2022-06-11T06:48:18Z</time>
      </trkpt>
      <trkpt lat="44.03307" lon="7.30152">
        <ele>691.2</ele>
        <time>2022-06-11T06:48:19Z</time>
      </trkpt>
      <trkpt lat="44.03305" lon="7.30145">
        <ele>692</ele>
        <time>2022-06-11T06:48:20Z</time>
      </trkpt>
      <trkpt lat="44.03304" lon="7.30138">
        <ele>692.7</ele>
        <time>2022-06-11T06:48:21Z</time>
      </trkpt>
      <trkpt lat="44.03304" lon="7.30131">
        <ele>692.3</ele>
        <time>2022-06-11T06:48:22Z</time>
      </trkpt>
      <trkpt lat="44.03306" lon="7.30125">
        <ele>692.6</ele>
        <time>2022-06-11T06:48:23Z</time>
      </trkpt>
      <trkpt lat="44.03307" lon="7.30118">
        <ele>692.8</ele>
        <time>2022-06-11T06:48:24Z</time>
      </trkpt>
      <trkpt lat="44.03308" lon="7.30112">
        <ele>693.1</ele>
        <time>2022-06-11T06:48:25Z</time>
      </trkpt>
      <trkpt lat="44.0331" lon="7.30107">
        <ele>693.4</ele>
        <time>2022-06-11T06:48:26Z</time>
      </trkpt>
      <trkpt lat="44.03311" lon="7.30101">
        <ele>693.5</ele>
        <time>2022-06-11T06:48:27Z</time>
      </trkpt>
      <trkpt lat="44.03313" lon="7.30095">
        <ele>693.8</ele>
        <time>2022-06-11T06:48:28Z</time>
      </trkpt>
      <trkpt lat="44.03314" lon="7.3009">
        <ele>694.2</ele>
        <time>2022-06-11T06:48:29Z</time>
      </trkpt>
      <trkpt lat="44.03316" lon="7.30083">
        <ele>694.2</ele>
        <time>2022-06-11T06:48:30Z</time>
      </trkpt>
      <trkpt lat="44.03317" lon="7.30078">
        <ele>694.5</ele>
        <time>2022-06-11T06:48:31Z</time>
      </trkpt>
      <trkpt lat="44.03319" lon="7.30072">
        <ele>694.6</ele>
        <time>2022-06-11T06:48:32Z</time>
      </trkpt>
      <trkpt lat="44.0332" lon="7.30066">
        <ele>694.7</ele>
        <time>2022-06-11T06:48:33Z</time>
      </trkpt>
      <trkpt lat="44.03322" lon="7.30061">
        <ele>694.8</ele>
        <time>2022-06-11T06:48:34Z</time>
      </trkpt>
      <trkpt lat="44.03323" lon="7.30056">
        <ele>694.9</ele>
        <time>2022-06-11T06:48:35Z</time>
      </trkpt>
      <trkpt lat="44.03324" lon="7.3005">
        <ele>694.9</ele>
        <time>2022-06-11T06:48:36Z</time>
      </trkpt>
      <trkpt lat="44.03325" lon="7.30045">
        <ele>695</ele>
        <time>2022-06-11T06:48:37Z</time>
      </trkpt>
      <trkpt lat="44.03326" lon="7.30039">
        <ele>695.2</ele>
        <time>2022-06-11T06:48:38Z</time>
      </trkpt>
      <trkpt lat="44.03327" lon="7.30033">
        <ele>695</ele>
        <time>2022-06-11T06:48:39Z</time>
      </trkpt>
      <trkpt lat="44.03327" lon="7.30027">
        <ele>694.6</ele>
        <time>2022-06-11T06:48:40Z</time>
      </trkpt>
      <trkpt lat="44.03327" lon="7.30022">
        <ele>694.3</ele>
        <time>2022-06-11T06:48:41Z</time>
      </trkpt>
      <trkpt lat="44.03327" lon="7.30015">
        <ele>693.7</ele>
        <time>2022-06-11T06:48:42Z</time>
      </trkpt>
      <trkpt lat="44.03328" lon="7.30009">
        <ele>693.3</ele>
        <time>2022-06-11T06:48:43Z</time>
      </trkpt>
      <trkpt lat="44.03328" lon="7.30003">
        <ele>692.9</ele>
        <time>2022-06-11T06:48:44Z</time>
      </trkpt>
      <trkpt lat="44.03329" lon="7.29997">
        <ele>692.8</ele>
        <time>2022-06-11T06:48:45Z</time>
      </trkpt>
      <trkpt lat="44.03329" lon="7.29991">
        <ele>692.8</ele>
        <time>2022-06-11T06:48:46Z</time>
      </trkpt>
      <trkpt lat="44.0333" lon="7.29985">
        <ele>692.8</ele>
        <time>2022-06-11T06:48:47Z</time>
      </trkpt>
      <trkpt lat="44.03331" lon="7.29979">
        <ele>692.8</ele>
        <time>2022-06-11T06:48:48Z</time>
      </trkpt>
      <trkpt lat="44.03331" lon="7.29973">
        <ele>692.9</ele>
        <time>2022-06-11T06:48:49Z</time>
      </trkpt>
      <trkpt lat="44.03332" lon="7.29968">
        <ele>693.1</ele>
        <time>2022-06-11T06:48:50Z</time>
      </trkpt>
      <trkpt lat="44.03333" lon="7.29962">
        <ele>693.2</ele>
        <time>2022-06-11T06:48:51Z</time>
      </trkpt>
      <trkpt lat="44.03333" lon="7.29957">
        <ele>693.3</ele>
        <time>2022-06-11T06:48:52Z</time>
      </trkpt>
      <trkpt lat="44.03333" lon="7.29951">
        <ele>693.1</ele>
        <time>2022-06-11T06:48:53Z</time>
      </trkpt>
      <trkpt lat="44.03334" lon="7.29945">
        <ele>693.2</ele>
        <time>2022-06-11T06:48:54Z</time>
      </trkpt>
      <trkpt lat="44.03334" lon="7.29939">
        <ele>693.5</ele>
        <time>2022-06-11T06:48:55Z</time>
      </trkpt>
      <trkpt lat="44.03335" lon="7.29933">
        <ele>693.8</ele>
        <time>2022-06-11T06:48:56Z</time>
      </trkpt>
      <trkpt lat="44.03335" lon="7.29927">
        <ele>694.2</ele>
        <time>2022-06-11T06:48:57Z</time>
      </trkpt>
      <trkpt lat="44.03336" lon="7.29921">
        <ele>694.6</ele>
        <time>2022-06-11T06:48:58Z</time>
      </trkpt>
      <trkpt lat="44.03336" lon="7.29915">
        <ele>695.1</ele>
        <time>2022-06-11T06:48:59Z</time>
      </trkpt>
      <trkpt lat="44.03337" lon="7.29909">
        <ele>695.4</ele>
        <time>2022-06-11T06:49:00Z</time>
      </trkpt>
      <trkpt lat="44.03338" lon="7.29903">
        <ele>695.6</ele>
        <time>2022-06-11T06:49:01Z</time>
      </trkpt>
      <trkpt lat="44.03338" lon="7.29897">
        <ele>696</ele>
        <time>2022-06-11T06:49:02Z</time>
      </trkpt>
      <trkpt lat="44.03339" lon="7.29891">
        <ele>696.2</ele>
        <time>2022-06-11T06:49:03Z</time>
      </trkpt>
      <trkpt lat="44.0334" lon="7.29886">
        <ele>696.6</ele>
        <time>2022-06-11T06:49:04Z</time>
      </trkpt>
      <trkpt lat="44.03341" lon="7.2988">
        <ele>697.2</ele>
        <time>2022-06-11T06:49:05Z</time>
      </trkpt>
      <trkpt lat="44.03341" lon="7.29876">
        <ele>697.5</ele>
        <time>2022-06-11T06:49:06Z</time>
      </trkpt>
      <trkpt lat="44.03342" lon="7.29871">
        <ele>697.8</ele>
        <time>2022-06-11T06:49:07Z</time>
      </trkpt>
      <trkpt lat="44.03343" lon="7.29867">
        <ele>698.6</ele>
        <time>2022-06-11T06:49:08Z</time>
      </trkpt>
      <trkpt lat="44.03343" lon="7.29862">
        <ele>698.9</ele>
        <time>2022-06-11T06:49:09Z</time>
      </trkpt>
      <trkpt lat="44.03344" lon="7.29857">
        <ele>699</ele>
        <time>2022-06-11T06:49:10Z</time>
      </trkpt>
      <trkpt lat="44.03345" lon="7.29854">
        <ele>699.7</ele>
        <time>2022-06-11T06:49:11Z</time>
      </trkpt>
      <trkpt lat="44.03346" lon="7.29851">
        <ele>700.8</ele>
        <time>2022-06-11T06:49:12Z</time>
      </trkpt>
      <trkpt lat="44.03347" lon="7.29846">
        <ele>701.8</ele>
        <time>2022-06-11T06:49:13Z</time>
      </trkpt>
      <trkpt lat="44.03348" lon="7.29841">
        <ele>702.3</ele>
        <time>2022-06-11T06:49:14Z</time>
      </trkpt>
      <trkpt lat="44.03349" lon="7.29836">
        <ele>703</ele>
        <time>2022-06-11T06:49:15Z</time>
      </trkpt>
      <trkpt lat="44.0335" lon="7.2983">
        <ele>703.5</ele>
        <time>2022-06-11T06:49:16Z</time>
      </trkpt>
      <trkpt lat="44.03352" lon="7.29825">
        <ele>704.7</ele>
        <time>2022-06-11T06:49:17Z</time>
      </trkpt>
      <trkpt lat="44.03353" lon="7.29821">
        <ele>705.1</ele>
        <time>2022-06-11T06:49:18Z</time>
      </trkpt>
      <trkpt lat="44.03355" lon="7.29816">
        <ele>706</ele>
        <time>2022-06-11T06:49:19Z</time>
      </trkpt>
      <trkpt lat="44.03357" lon="7.29811">
        <ele>707.1</ele>
        <time>2022-06-11T06:49:20Z</time>
      </trkpt>
      <trkpt lat="44.03359" lon="7.29806">
        <ele>708</ele>
        <time>2022-06-11T06:49:21Z</time>
      </trkpt>
      <trkpt lat="44.0336" lon="7.298">
        <ele>708</ele>
        <time>2022-06-11T06:49:22Z</time>
      </trkpt>
      <trkpt lat="44.03361" lon="7.29794">
        <ele>708.1</ele>
        <time>2022-06-11T06:49:23Z</time>
      </trkpt>
      <trkpt lat="44.03362" lon="7.29789">
        <ele>708.3</ele>
        <time>2022-06-11T06:49:24Z</time>
      </trkpt>
      <trkpt lat="44.03363" lon="7.29783">
        <ele>707.7</ele>
        <time>2022-06-11T06:49:25Z</time>
      </trkpt>
      <trkpt lat="44.03363" lon="7.29778">
        <ele>707.4</ele>
        <time>2022-06-11T06:49:26Z</time>
      </trkpt>
      <trkpt lat="44.03363" lon="7.29772">
        <ele>706.1</ele>
        <time>2022-06-11T06:49:27Z</time>
      </trkpt>
      <trkpt lat="44.03363" lon="7.29765">
        <ele>704.9</ele>
        <time>2022-06-11T06:49:28Z</time>
      </trkpt>
      <trkpt lat="44.03363" lon="7.29758">
        <ele>703.1</ele>
        <time>2022-06-11T06:49:29Z</time>
      </trkpt>
      <trkpt lat="44.03363" lon="7.29751">
        <ele>701.9</ele>
        <time>2022-06-11T06:49:30Z</time>
      </trkpt>
      <trkpt lat="44.03364" lon="7.29745">
        <ele>701.1</ele>
        <time>2022-06-11T06:49:31Z</time>
      </trkpt>
      <trkpt lat="44.03365" lon="7.29739">
        <ele>700.3</ele>
        <time>2022-06-11T06:49:32Z</time>
      </trkpt>
      <trkpt lat="44.03366" lon="7.29734">
        <ele>699.7</ele>
        <time>2022-06-11T06:49:33Z</time>
      </trkpt>
      <trkpt lat="44.03368" lon="7.29728">
        <ele>699.3</ele>
        <time>2022-06-11T06:49:34Z</time>
      </trkpt>
      <trkpt lat="44.03369" lon="7.29723">
        <ele>699</ele>
        <time>2022-06-11T06:49:35Z</time>
      </trkpt>
      <trkpt lat="44.03371" lon="7.29718">
        <ele>699.3</ele>
        <time>2022-06-11T06:49:36Z</time>
      </trkpt>
      <trkpt lat="44.03373" lon="7.29714">
        <ele>699.8</ele>
        <time>2022-06-11T06:49:37Z</time>
      </trkpt>
      <trkpt lat="44.03375" lon="7.29709">
        <ele>700</ele>
        <time>2022-06-11T06:49:38Z</time>
      </trkpt>
      <trkpt lat="44.03378" lon="7.29703">
        <ele>700.2</ele>
        <time>2022-06-11T06:49:39Z</time>
      </trkpt>
      <trkpt lat="44.0338" lon="7.29699">
        <ele>700.7</ele>
        <time>2022-06-11T06:49:40Z</time>
      </trkpt>
      <trkpt lat="44.03383" lon="7.29695">
        <ele>701.5</ele>
        <time>2022-06-11T06:49:41Z</time>
      </trkpt>
      <trkpt lat="44.03385" lon="7.29692">
        <ele>702</ele>
        <time>2022-06-11T06:49:42Z</time>
      </trkpt>
      <trkpt lat="44.03388" lon="7.29688">
        <ele>702.2</ele>
        <time>2022-06-11T06:49:43Z</time>
      </trkpt>
      <trkpt lat="44.0339" lon="7.29684">
        <ele>702.4</ele>
        <time>2022-06-11T06:49:44Z</time>
      </trkpt>
      <trkpt lat="44.03392" lon="7.2968">
        <ele>702.3</ele>
        <time>2022-06-11T06:49:45Z</time>
      </trkpt>
      <trkpt lat="44.03394" lon="7.29675">
        <ele>702.5</ele>
        <time>2022-06-11T06:49:46Z</time>
      </trkpt>
      <trkpt lat="44.03397" lon="7.29671">
        <ele>702.7</ele>
        <time>2022-06-11T06:49:47Z</time>
      </trkpt>
      <trkpt lat="44.03399" lon="7.29666">
        <ele>702.8</ele>
        <time>2022-06-11T06:49:48Z</time>
      </trkpt>
      <trkpt lat="44.03402" lon="7.29662">
        <ele>702.9</ele>
        <time>2022-06-11T06:49:49Z</time>
      </trkpt>
      <trkpt lat="44.03404" lon="7.29658">
        <ele>703.2</ele>
        <time>2022-06-11T06:49:50Z</time>
      </trkpt>
      <trkpt lat="44.03407" lon="7.29653">
        <ele>703.1</ele>
        <time>2022-06-11T06:49:51Z</time>
      </trkpt>
      <trkpt lat="44.0341" lon="7.2965">
        <ele>703.4</ele>
        <time>2022-06-11T06:49:52Z</time>
      </trkpt>
      <trkpt lat="44.03413" lon="7.29646">
        <ele>703.4</ele>
        <time>2022-06-11T06:49:53Z</time>
      </trkpt>
      <trkpt lat="44.03415" lon="7.29642">
        <ele>703.3</ele>
        <time>2022-06-11T06:49:54Z</time>
      </trkpt>
      <trkpt lat="44.03418" lon="7.29638">
        <ele>703.1</ele>
        <time>2022-06-11T06:49:55Z</time>
      </trkpt>
      <trkpt lat="44.0342" lon="7.29634">
        <ele>703.1</ele>
        <time>2022-06-11T06:49:56Z</time>
      </trkpt>
      <trkpt lat="44.03423" lon="7.2963">
        <ele>703.3</ele>
        <time>2022-06-11T06:49:57Z</time>
      </trkpt>
      <trkpt lat="44.03426" lon="7.29627">
        <ele>703.9</ele>
        <time>2022-06-11T06:49:58Z</time>
      </trkpt>
      <trkpt lat="44.03429" lon="7.29625">
        <ele>704.7</ele>
        <time>2022-06-11T06:49:59Z</time>
      </trkpt>
      <trkpt lat="44.03432" lon="7.29622">
        <ele>705.5</ele>
        <time>2022-06-11T06:50:00Z</time>
      </trkpt>
      <trkpt lat="44.03435" lon="7.2962">
        <ele>706.5</ele>
        <time>2022-06-11T06:50:01Z</time>
      </trkpt>
      <trkpt lat="44.03438" lon="7.29617">
        <ele>706.8</ele>
        <time>2022-06-11T06:50:02Z</time>
      </trkpt>
      <trkpt lat="44.03441" lon="7.29616">
        <ele>707.9</ele>
        <time>2022-06-11T06:50:03Z</time>
      </trkpt>
      <trkpt lat="44.03444" lon="7.29614">
        <ele>709</ele>
        <time>2022-06-11T06:50:04Z</time>
      </trkpt>
      <trkpt lat="44.03448" lon="7.29611">
        <ele>709.8</ele>
        <time>2022-06-11T06:50:05Z</time>
      </trkpt>
      <trkpt lat="44.0345" lon="7.29609">
        <ele>710.7</ele>
        <time>2022-06-11T06:50:06Z</time>
      </trkpt>
      <trkpt lat="44.03453" lon="7.29607">
        <ele>711.6</ele>
        <time>2022-06-11T06:50:07Z</time>
      </trkpt>
      <trkpt lat="44.03456" lon="7.29604">
        <ele>712</ele>
        <time>2022-06-11T06:50:08Z</time>
      </trkpt>
      <trkpt lat="44.03459" lon="7.29602">
        <ele>713</ele>
        <time>2022-06-11T06:50:09Z</time>
      </trkpt>
      <trkpt lat="44.03462" lon="7.296">
        <ele>713.8</ele>
        <time>2022-06-11T06:50:10Z</time>
      </trkpt>
      <trkpt lat="44.03464" lon="7.29597">
        <ele>714.5</ele>
        <time>2022-06-11T06:50:11Z</time>
      </trkpt>
      <trkpt lat="44.03467" lon="7.29594">
        <ele>715</ele>
        <time>2022-06-11T06:50:12Z</time>
      </trkpt>
      <trkpt lat="44.0347" lon="7.29591">
        <ele>715.3</ele>
        <time>2022-06-11T06:50:13Z</time>
      </trkpt>
      <trkpt lat="44.03472" lon="7.29588">
        <ele>715.7</ele>
        <time>2022-06-11T06:50:14Z</time>
      </trkpt>
      <trkpt lat="44.03474" lon="7.29585">
        <ele>716</ele>
        <time>2022-06-11T06:50:15Z</time>
      </trkpt>
      <trkpt lat="44.03477" lon="7.29582">
        <ele>716.6</ele>
        <time>2022-06-11T06:50:16Z</time>
      </trkpt>
      <trkpt lat="44.03479" lon="7.29579">
        <ele>717.2</ele>
        <time>2022-06-11T06:50:17Z</time>
      </trkpt>
      <trkpt lat="44.03482" lon="7.29576">
        <ele>717.7</ele>
        <time>2022-06-11T06:50:18Z</time>
      </trkpt>
      <trkpt lat="44.03484" lon="7.29572">
        <ele>718</ele>
        <time>2022-06-11T06:50:19Z</time>
      </trkpt>
      <trkpt lat="44.03486" lon="7.29568">
        <ele>717.5</ele>
        <time>2022-06-11T06:50:20Z</time>
      </trkpt>
      <trkpt lat="44.03487" lon="7.29564">
        <ele>717.3</ele>
        <time>2022-06-11T06:50:21Z</time>
      </trkpt>
      <trkpt lat="44.03489" lon="7.2956">
        <ele>716.8</ele>
        <time>2022-06-11T06:50:22Z</time>
      </trkpt>
      <trkpt lat="44.0349" lon="7.29555">
        <ele>715.4</ele>
        <time>2022-06-11T06:50:23Z</time>
      </trkpt>
      <trkpt lat="44.03491" lon="7.2955">
        <ele>714.3</ele>
        <time>2022-06-11T06:50:24Z</time>
      </trkpt>
      <trkpt lat="44.03493" lon="7.29546">
        <ele>713.7</ele>
        <time>2022-06-11T06:50:25Z</time>
      </trkpt>
      <trkpt lat="44.03494" lon="7.29542">
        <ele>712.9</ele>
        <time>2022-06-11T06:50:26Z</time>
      </trkpt>
      <trkpt lat="44.03496" lon="7.29537">
        <ele>712.1</ele>
        <time>2022-06-11T06:50:27Z</time>
      </trkpt>
      <trkpt lat="44.03497" lon="7.29533">
        <ele>711</ele>
        <time>2022-06-11T06:50:28Z</time>
      </trkpt>
      <trkpt lat="44.03498" lon="7.29529">
        <ele>709.8</ele>
        <time>2022-06-11T06:50:29Z</time>
      </trkpt>
      <trkpt lat="44.035" lon="7.29524">
        <ele>709.1</ele>
        <time>2022-06-11T06:50:30Z</time>
      </trkpt>
      <trkpt lat="44.03501" lon="7.29521">
        <ele>708.6</ele>
        <time>2022-06-11T06:50:31Z</time>
      </trkpt>
      <trkpt lat="44.03503" lon="7.29517">
        <ele>707.9</ele>
        <time>2022-06-11T06:50:32Z</time>
      </trkpt>
      <trkpt lat="44.03505" lon="7.29514">
        <ele>708</ele>
        <time>2022-06-11T06:50:33Z</time>
      </trkpt>
      <trkpt lat="44.03508" lon="7.29511">
        <ele>708.3</ele>
        <time>2022-06-11T06:50:34Z</time>
      </trkpt>
      <trkpt lat="44.03511" lon="7.29508">
        <ele>708.8</ele>
        <time>2022-06-11T06:50:35Z</time>
      </trkpt>
      <trkpt lat="44.03514" lon="7.29506">
        <ele>709.2</ele>
        <time>2022-06-11T06:50:36Z</time>
      </trkpt>
      <trkpt lat="44.03516" lon="7.29503">
        <ele>709.6</ele>
        <time>2022-06-11T06:50:37Z</time>
      </trkpt>
      <trkpt lat="44.03519" lon="7.29501">
        <ele>710.1</ele>
        <time>2022-06-11T06:50:38Z</time>
      </trkpt>
      <trkpt lat="44.03522" lon="7.29499">
        <ele>710.9</ele>
        <time>2022-06-11T06:50:39Z</time>
      </trkpt>
      <trkpt lat="44.03525" lon="7.29497">
        <ele>712</ele>
        <time>2022-06-11T06:50:40Z</time>
      </trkpt>
      <trkpt lat="44.03528" lon="7.29496">
        <ele>713.5</ele>
        <time>2022-06-11T06:50:41Z</time>
      </trkpt>
      <trkpt lat="44.03531" lon="7.29495">
        <ele>714.9</ele>
        <time>2022-06-11T06:50:42Z</time>
      </trkpt>
      <trkpt lat="44.03534" lon="7.29493">
        <ele>716.2</ele>
        <time>2022-06-11T06:50:43Z</time>
      </trkpt>
      <trkpt lat="44.03537" lon="7.29491">
        <ele>716.9</ele>
        <time>2022-06-11T06:50:44Z</time>
      </trkpt>
      <trkpt lat="44.03539" lon="7.29486">
        <ele>715.7</ele>
        <time>2022-06-11T06:50:45Z</time>
      </trkpt>
      <trkpt lat="44.03542" lon="7.29484">
        <ele>716.2</ele>
        <time>2022-06-11T06:50:46Z</time>
      </trkpt>
      <trkpt lat="44.03545" lon="7.29481">
        <ele>716.9</ele>
        <time>2022-06-11T06:50:47Z</time>
      </trkpt>
      <trkpt lat="44.03548" lon="7.29479">
        <ele>717.5</ele>
        <time>2022-06-11T06:50:48Z</time>
      </trkpt>
      <trkpt lat="44.0355" lon="7.29477">
        <ele>717.3</ele>
        <time>2022-06-11T06:50:49Z</time>
      </trkpt>
      <trkpt lat="44.03553" lon="7.29473">
        <ele>716.9</ele>
        <time>2022-06-11T06:50:50Z</time>
      </trkpt>
      <trkpt lat="44.03555" lon="7.2947">
        <ele>716.5</ele>
        <time>2022-06-11T06:50:51Z</time>
      </trkpt>
      <trkpt lat="44.03557" lon="7.29468">
        <ele>716.9</ele>
        <time>2022-06-11T06:50:52Z</time>
      </trkpt>
      <trkpt lat="44.0356" lon="7.29465">
        <ele>717.5</ele>
        <time>2022-06-11T06:50:53Z</time>
      </trkpt>
      <trkpt lat="44.03563" lon="7.29463">
        <ele>717.9</ele>
        <time>2022-06-11T06:50:54Z</time>
      </trkpt>
      <trkpt lat="44.03565" lon="7.2946">
        <ele>718.3</ele>
        <time>2022-06-11T06:50:55Z</time>
      </trkpt>
      <trkpt lat="44.03568" lon="7.29458">
        <ele>718.5</ele>
        <time>2022-06-11T06:50:56Z</time>
      </trkpt>
      <trkpt lat="44.0357" lon="7.29455">
        <ele>718.5</ele>
        <time>2022-06-11T06:50:57Z</time>
      </trkpt>
      <trkpt lat="44.03572" lon="7.29451">
        <ele>718</ele>
        <time>2022-06-11T06:50:58Z</time>
      </trkpt>
      <trkpt lat="44.03574" lon="7.29448">
        <ele>717.2</ele>
        <time>2022-06-11T06:50:59Z</time>
      </trkpt>
      <trkpt lat="44.03576" lon="7.29444">
        <ele>716.4</ele>
        <time>2022-06-11T06:51:00Z</time>
      </trkpt>
      <trkpt lat="44.03577" lon="7.29441">
        <ele>716.3</ele>
        <time>2022-06-11T06:51:01Z</time>
      </trkpt>
      <trkpt lat="44.03579" lon="7.29437">
        <ele>716</ele>
        <time>2022-06-11T06:51:02Z</time>
      </trkpt>
      <trkpt lat="44.0358" lon="7.29433">
        <ele>715.7</ele>
        <time>2022-06-11T06:51:03Z</time>
      </trkpt>
      <trkpt lat="44.03582" lon="7.2943">
        <ele>715.5</ele>
        <time>2022-06-11T06:51:04Z</time>
      </trkpt>
      <trkpt lat="44.03583" lon="7.29426">
        <ele>715</ele>
        <time>2022-06-11T06:51:05Z</time>
      </trkpt>
      <trkpt lat="44.03585" lon="7.29423">
        <ele>714.3</ele>
        <time>2022-06-11T06:51:06Z</time>
      </trkpt>
      <trkpt lat="44.03586" lon="7.29419">
        <ele>713.6</ele>
        <time>2022-06-11T06:51:07Z</time>
      </trkpt>
      <trkpt lat="44.03587" lon="7.29416">
        <ele>713.1</ele>
        <time>2022-06-11T06:51:08Z</time>
      </trkpt>
      <trkpt lat="44.03589" lon="7.29413">
        <ele>712.8</ele>
        <time>2022-06-11T06:51:09Z</time>
      </trkpt>
      <trkpt lat="44.0359" lon="7.29409">
        <ele>712.3</ele>
        <time>2022-06-11T06:51:10Z</time>
      </trkpt>
      <trkpt lat="44.03591" lon="7.29405">
        <ele>711.7</ele>
        <time>2022-06-11T06:51:11Z</time>
      </trkpt>
      <trkpt lat="44.03593" lon="7.29402">
        <ele>711</ele>
        <time>2022-06-11T06:51:12Z</time>
      </trkpt>
      <trkpt lat="44.03594" lon="7.29398">
        <ele>710.1</ele>
        <time>2022-06-11T06:51:13Z</time>
      </trkpt>
      <trkpt lat="44.03595" lon="7.29394">
        <ele>709.3</ele>
        <time>2022-06-11T06:51:14Z</time>
      </trkpt>
      <trkpt lat="44.03596" lon="7.29391">
        <ele>708.5</ele>
        <time>2022-06-11T06:51:15Z</time>
      </trkpt>
      <trkpt lat="44.03598" lon="7.29388">
        <ele>708</ele>
        <time>2022-06-11T06:51:16Z</time>
      </trkpt>
      <trkpt lat="44.03599" lon="7.29385">
        <ele>707.9</ele>
        <time>2022-06-11T06:51:17Z</time>
      </trkpt>
      <trkpt lat="44.03601" lon="7.29382">
        <ele>708</ele>
        <time>2022-06-11T06:51:18Z</time>
      </trkpt>
      <trkpt lat="44.03602" lon="7.29378">
        <ele>708.1</ele>
        <time>2022-06-11T06:51:19Z</time>
      </trkpt>
      <trkpt lat="44.03603" lon="7.29375">
        <ele>708.2</ele>
        <time>2022-06-11T06:51:20Z</time>
      </trkpt>
      <trkpt lat="44.03605" lon="7.29371">
        <ele>708.4</ele>
        <time>2022-06-11T06:51:21Z</time>
      </trkpt>
      <trkpt lat="44.03606" lon="7.29367">
        <ele>708.7</ele>
        <time>2022-06-11T06:51:22Z</time>
      </trkpt>
      <trkpt lat="44.03607" lon="7.29364">
        <ele>709</ele>
        <time>2022-06-11T06:51:23Z</time>
      </trkpt>
      <trkpt lat="44.03609" lon="7.29361">
        <ele>709.5</ele>
        <time>2022-06-11T06:51:24Z</time>
      </trkpt>
      <trkpt lat="44.03611" lon="7.29357">
        <ele>709.9</ele>
        <time>2022-06-11T06:51:25Z</time>
      </trkpt>
      <trkpt lat="44.03612" lon="7.29354">
        <ele>710.2</ele>
        <time>2022-06-11T06:51:26Z</time>
      </trkpt>
      <trkpt lat="44.03614" lon="7.2935">
        <ele>710.5</ele>
        <time>2022-06-11T06:51:27Z</time>
      </trkpt>
      <trkpt lat="44.03615" lon="7.29345">
        <ele>710.9</ele>
        <time>2022-06-11T06:51:28Z</time>
      </trkpt>
      <trkpt lat="44.03616" lon="7.29342">
        <ele>711.3</ele>
        <time>2022-06-11T06:51:29Z</time>
      </trkpt>
      <trkpt lat="44.03618" lon="7.29338">
        <ele>711.9</ele>
        <time>2022-06-11T06:51:30Z</time>
      </trkpt>
      <trkpt lat="44.0362" lon="7.29335">
        <ele>712.6</ele>
        <time>2022-06-11T06:51:31Z</time>
      </trkpt>
      <trkpt lat="44.03622" lon="7.29332">
        <ele>713.1</ele>
        <time>2022-06-11T06:51:32Z</time>
      </trkpt>
      <trkpt lat="44.03624" lon="7.29329">
        <ele>713.5</ele>
        <time>2022-06-11T06:51:33Z</time>
      </trkpt>
      <trkpt lat="44.03626" lon="7.29326">
        <ele>713.7</ele>
        <time>2022-06-11T06:51:34Z</time>
      </trkpt>
      <trkpt lat="44.03627" lon="7.29322">
        <ele>713.7</ele>
        <time>2022-06-11T06:51:35Z</time>
      </trkpt>
      <trkpt lat="44.03629" lon="7.29319">
        <ele>713.9</ele>
        <time>2022-06-11T06:51:36Z</time>
      </trkpt>
      <trkpt lat="44.03631" lon="7.29316">
        <ele>714.4</ele>
        <time>2022-06-11T06:51:37Z</time>
      </trkpt>
      <trkpt lat="44.03634" lon="7.29313">
        <ele>714.9</ele>
        <time>2022-06-11T06:51:38Z</time>
      </trkpt>
      <trkpt lat="44.03636" lon="7.2931">
        <ele>715.3</ele>
        <time>2022-06-11T06:51:39Z</time>
      </trkpt>
      <trkpt lat="44.03638" lon="7.29307">
        <ele>715.9</ele>
        <time>2022-06-11T06:51:40Z</time>
      </trkpt>
      <trkpt lat="44.03641" lon="7.29304">
        <ele>716.4</ele>
        <time>2022-06-11T06:51:41Z</time>
      </trkpt>
      <trkpt lat="44.03644" lon="7.29302">
        <ele>716.9</ele>
        <time>2022-06-11T06:51:42Z</time>
      </trkpt>
      <trkpt lat="44.03646" lon="7.29299">
        <ele>717.3</ele>
        <time>2022-06-11T06:51:43Z</time>
      </trkpt>
      <trkpt lat="44.03649" lon="7.29297">
        <ele>717.9</ele>
        <time>2022-06-11T06:51:44Z</time>
      </trkpt>
      <trkpt lat="44.03652" lon="7.29295">
        <ele>718.6</ele>
        <time>2022-06-11T06:51:45Z</time>
      </trkpt>
      <trkpt lat="44.03655" lon="7.29293">
        <ele>719.2</ele>
        <time>2022-06-11T06:51:46Z</time>
      </trkpt>
      <trkpt lat="44.03657" lon="7.2929">
        <ele>719.6</ele>
        <time>2022-06-11T06:51:47Z</time>
      </trkpt>
      <trkpt lat="44.0366" lon="7.29288">
        <ele>720.2</ele>
        <time>2022-06-11T06:51:48Z</time>
      </trkpt>
      <trkpt lat="44.03663" lon="7.29285">
        <ele>720.4</ele>
        <time>2022-06-11T06:51:49Z</time>
      </trkpt>
      <trkpt lat="44.03665" lon="7.29282">
        <ele>720.6</ele>
        <time>2022-06-11T06:51:50Z</time>
      </trkpt>
      <trkpt lat="44.03668" lon="7.29279">
        <ele>721.3</ele>
        <time>2022-06-11T06:51:51Z</time>
      </trkpt>
      <trkpt lat="44.03671" lon="7.29277">
        <ele>722.1</ele>
        <time>2022-06-11T06:51:52Z</time>
      </trkpt>
      <trkpt lat="44.03674" lon="7.29275">
        <ele>723</ele>
        <time>2022-06-11T06:51:53Z</time>
      </trkpt>
      <trkpt lat="44.03677" lon="7.29273">
        <ele>723.7</ele>
        <time>2022-06-11T06:51:54Z</time>
      </trkpt>
      <trkpt lat="44.03679" lon="7.2927">
        <ele>724.2</ele>
        <time>2022-06-11T06:51:55Z</time>
      </trkpt>
      <trkpt lat="44.03682" lon="7.29268">
        <ele>724.7</ele>
        <time>2022-06-11T06:51:56Z</time>
      </trkpt>
      <trkpt lat="44.03684" lon="7.29265">
        <ele>725</ele>
        <time>2022-06-11T06:51:57Z</time>
      </trkpt>
      <trkpt lat="44.03687" lon="7.29262">
        <ele>725.3</ele>
        <time>2022-06-11T06:51:58Z</time>
      </trkpt>
      <trkpt lat="44.03689" lon="7.2926">
        <ele>725.8</ele>
        <time>2022-06-11T06:51:59Z</time>
      </trkpt>
      <trkpt lat="44.03692" lon="7.29257">
        <ele>726.2</ele>
        <time>2022-06-11T06:52:00Z</time>
      </trkpt>
      <trkpt lat="44.03694" lon="7.29255">
        <ele>726.5</ele>
        <time>2022-06-11T06:52:01Z</time>
      </trkpt>
      <trkpt lat="44.03696" lon="7.29252">
        <ele>726.6</ele>
        <time>2022-06-11T06:52:02Z</time>
      </trkpt>
      <trkpt lat="44.03698" lon="7.2925">
        <ele>726.8</ele>
        <time>2022-06-11T06:52:03Z</time>
      </trkpt>
      <trkpt lat="44.03701" lon="7.29247">
        <ele>727.2</ele>
        <time>2022-06-11T06:52:04Z</time>
      </trkpt>
      <trkpt lat="44.03703" lon="7.29244">
        <ele>727.3</ele>
        <time>2022-06-11T06:52:05Z</time>
      </trkpt>
      <trkpt lat="44.03705" lon="7.29242">
        <ele>727.2</ele>
        <time>2022-06-11T06:52:06Z</time>
      </trkpt>
      <trkpt lat="44.03707" lon="7.29239">
        <ele>727.4</ele>
        <time>2022-06-11T06:52:07Z</time>
      </trkpt>
      <trkpt lat="44.03709" lon="7.29236">
        <ele>727.2</ele>
        <time>2022-06-11T06:52:08Z</time>
      </trkpt>
      <trkpt lat="44.03711" lon="7.29233">
        <ele>727.4</ele>
        <time>2022-06-11T06:52:09Z</time>
      </trkpt>
      <trkpt lat="44.03714" lon="7.29231">
        <ele>727.3</ele>
        <time>2022-06-11T06:52:10Z</time>
      </trkpt>
      <trkpt lat="44.03716" lon="7.29228">
        <ele>727.1</ele>
        <time>2022-06-11T06:52:11Z</time>
      </trkpt>
      <trkpt lat="44.03718" lon="7.29225">
        <ele>727.1</ele>
        <time>2022-06-11T06:52:12Z</time>
      </trkpt>
      <trkpt lat="44.03721" lon="7.29222">
        <ele>727.3</ele>
        <time>2022-06-11T06:52:13Z</time>
      </trkpt>
      <trkpt lat="44.03724" lon="7.29219">
        <ele>727.1</ele>
        <time>2022-06-11T06:52:14Z</time>
      </trkpt>
      <trkpt lat="44.03726" lon="7.29217">
        <ele>726.9</ele>
        <time>2022-06-11T06:52:15Z</time>
      </trkpt>
      <trkpt lat="44.03728" lon="7.29214">
        <ele>726.6</ele>
        <time>2022-06-11T06:52:16Z</time>
      </trkpt>
      <trkpt lat="44.03731" lon="7.29212">
        <ele>726.5</ele>
        <time>2022-06-11T06:52:17Z</time>
      </trkpt>
      <trkpt lat="44.03734" lon="7.29211">
        <ele>726.7</ele>
        <time>2022-06-11T06:52:18Z</time>
      </trkpt>
      <trkpt lat="44.03736" lon="7.2921">
        <ele>727</ele>
        <time>2022-06-11T06:52:19Z</time>
      </trkpt>
      <trkpt lat="44.03739" lon="7.29208">
        <ele>727.3</ele>
        <time>2022-06-11T06:52:20Z</time>
      </trkpt>
      <trkpt lat="44.03742" lon="7.29207">
        <ele>727.5</ele>
        <time>2022-06-11T06:52:21Z</time>
      </trkpt>
      <trkpt lat="44.03745" lon="7.29206">
        <ele>727.9</ele>
        <time>2022-06-11T06:52:22Z</time>
      </trkpt>
      <trkpt lat="44.03748" lon="7.29204">
        <ele>727.9</ele>
        <time>2022-06-11T06:52:23Z</time>
      </trkpt>
      <trkpt lat="44.03751" lon="7.29203">
        <ele>728.3</ele>
        <time>2022-06-11T06:52:24Z</time>
      </trkpt>
      <trkpt lat="44.03753" lon="7.29202">
        <ele>728.6</ele>
        <time>2022-06-11T06:52:25Z</time>
      </trkpt>
      <trkpt lat="44.03756" lon="7.29201">
        <ele>728.9</ele>
        <time>2022-06-11T06:52:26Z</time>
      </trkpt>
      <trkpt lat="44.03759" lon="7.29199">
        <ele>729</ele>
        <time>2022-06-11T06:52:27Z</time>
      </trkpt>
      <trkpt lat="44.03762" lon="7.29198">
        <ele>729.3</ele>
        <time>2022-06-11T06:52:28Z</time>
      </trkpt>
      <trkpt lat="44.03765" lon="7.29197">
        <ele>729.4</ele>
        <time>2022-06-11T06:52:29Z</time>
      </trkpt>
      <trkpt lat="44.03768" lon="7.29196">
        <ele>729.6</ele>
        <time>2022-06-11T06:52:30Z</time>
      </trkpt>
      <trkpt lat="44.0377" lon="7.29194">
        <ele>729.8</ele>
        <time>2022-06-11T06:52:31Z</time>
      </trkpt>
      <trkpt lat="44.03773" lon="7.29193">
        <ele>730.1</ele>
        <time>2022-06-11T06:52:32Z</time>
      </trkpt>
      <trkpt lat="44.03776" lon="7.29192">
        <ele>730.4</ele>
        <time>2022-06-11T06:52:33Z</time>
      </trkpt>
      <trkpt lat="44.03779" lon="7.29191">
        <ele>730.6</ele>
        <time>2022-06-11T06:52:34Z</time>
      </trkpt>
      <trkpt lat="44.03782" lon="7.29189">
        <ele>730.6</ele>
        <time>2022-06-11T06:52:35Z</time>
      </trkpt>
      <trkpt lat="44.03785" lon="7.29188">
        <ele>730.8</ele>
        <time>2022-06-11T06:52:36Z</time>
      </trkpt>
      <trkpt lat="44.03787" lon="7.29187">
        <ele>731</ele>
        <time>2022-06-11T06:52:37Z</time>
      </trkpt>
      <trkpt lat="44.0379" lon="7.29186">
        <ele>731.2</ele>
        <time>2022-06-11T06:52:38Z</time>
      </trkpt>
      <trkpt lat="44.03793" lon="7.29185">
        <ele>731.5</ele>
        <time>2022-06-11T06:52:39Z</time>
      </trkpt>
      <trkpt lat="44.03796" lon="7.29183">
        <ele>731.7</ele>
        <time>2022-06-11T06:52:40Z</time>
      </trkpt>
      <trkpt lat="44.03798" lon="7.29181">
        <ele>731.7</ele>
        <time>2022-06-11T06:52:41Z</time>
      </trkpt>
      <trkpt lat="44.03801" lon="7.2918">
        <ele>731.8</ele>
        <time>2022-06-11T06:52:42Z</time>
      </trkpt>
      <trkpt lat="44.03803" lon="7.29178">
        <ele>731.6</ele>
        <time>2022-06-11T06:52:43Z</time>
      </trkpt>
      <trkpt lat="44.03806" lon="7.29175">
        <ele>731.4</ele>
        <time>2022-06-11T06:52:44Z</time>
      </trkpt>
      <trkpt lat="44.03808" lon="7.29173">
        <ele>731.4</ele>
        <time>2022-06-11T06:52:45Z</time>
      </trkpt>
      <trkpt lat="44.0381" lon="7.2917">
        <ele>731.2</ele>
        <time>2022-06-11T06:52:46Z</time>
      </trkpt>
      <trkpt lat="44.03812" lon="7.29167">
        <ele>731</ele>
        <time>2022-06-11T06:52:47Z</time>
      </trkpt>
      <trkpt lat="44.03815" lon="7.29165">
        <ele>731.1</ele>
        <time>2022-06-11T06:52:48Z</time>
      </trkpt>
      <trkpt lat="44.03817" lon="7.29162">
        <ele>731.3</ele>
        <time>2022-06-11T06:52:49Z</time>
      </trkpt>
      <trkpt lat="44.03819" lon="7.2916">
        <ele>731.4</ele>
        <time>2022-06-11T06:52:50Z</time>
      </trkpt>
      <trkpt lat="44.03822" lon="7.29157">
        <ele>731.4</ele>
        <time>2022-06-11T06:52:51Z</time>
      </trkpt>
      <trkpt lat="44.03824" lon="7.29154">
        <ele>731.4</ele>
        <time>2022-06-11T06:52:52Z</time>
      </trkpt>
      <trkpt lat="44.03827" lon="7.29151">
        <ele>731.5</ele>
        <time>2022-06-11T06:52:53Z</time>
      </trkpt>
      <trkpt lat="44.03829" lon="7.29149">
        <ele>731.7</ele>
        <time>2022-06-11T06:52:54Z</time>
      </trkpt>
      <trkpt lat="44.03832" lon="7.29146">
        <ele>731.9</ele>
        <time>2022-06-11T06:52:55Z</time>
      </trkpt>
      <trkpt lat="44.03835" lon="7.29144">
        <ele>732.2</ele>
        <time>2022-06-11T06:52:56Z</time>
      </trkpt>
      <trkpt lat="44.03837" lon="7.29141">
        <ele>732.5</ele>
        <time>2022-06-11T06:52:57Z</time>
      </trkpt>
      <trkpt lat="44.0384" lon="7.29139">
        <ele>732.6</ele>
        <time>2022-06-11T06:52:58Z</time>
      </trkpt>
      <trkpt lat="44.03843" lon="7.29137">
        <ele>732.9</ele>
        <time>2022-06-11T06:52:59Z</time>
      </trkpt>
      <trkpt lat="44.03846" lon="7.29135">
        <ele>733.2</ele>
        <time>2022-06-11T06:53:00Z</time>
      </trkpt>
      <trkpt lat="44.03849" lon="7.29134">
        <ele>733.6</ele>
        <time>2022-06-11T06:53:01Z</time>
      </trkpt>
      <trkpt lat="44.03851" lon="7.29132">
        <ele>733.9</ele>
        <time>2022-06-11T06:53:02Z</time>
      </trkpt>
      <trkpt lat="44.03854" lon="7.29131">
        <ele>734.4</ele>
        <time>2022-06-11T06:53:03Z</time>
      </trkpt>
      <trkpt lat="44.03857" lon="7.2913">
        <ele>735</ele>
        <time>2022-06-11T06:53:04Z</time>
      </trkpt>
      <trkpt lat="44.0386" lon="7.29129">
        <ele>735.6</ele>
        <time>2022-06-11T06:53:05Z</time>
      </trkpt>
      <trkpt lat="44.03863" lon="7.29128">
        <ele>736.3</ele>
        <time>2022-06-11T06:53:06Z</time>
      </trkpt>
      <trkpt lat="44.03865" lon="7.29127">
        <ele>737.3</ele>
        <time>2022-06-11T06:53:07Z</time>
      </trkpt>
      <trkpt lat="44.03868" lon="7.29127">
        <ele>738.3</ele>
        <time>2022-06-11T06:53:08Z</time>
      </trkpt>
      <trkpt lat="44.03871" lon="7.29126">
        <ele>739.3</ele>
        <time>2022-06-11T06:53:09Z</time>
      </trkpt>
      <trkpt lat="44.03874" lon="7.29126">
        <ele>740.2</ele>
        <time>2022-06-11T06:53:10Z</time>
      </trkpt>
      <trkpt lat="44.03876" lon="7.29125">
        <ele>741</ele>
        <time>2022-06-11T06:53:11Z</time>
      </trkpt>
      <trkpt lat="44.03879" lon="7.29124">
        <ele>741.6</ele>
        <time>2022-06-11T06:53:12Z</time>
      </trkpt>
      <trkpt lat="44.03882" lon="7.29123">
        <ele>742.1</ele>
        <time>2022-06-11T06:53:13Z</time>
      </trkpt>
      <trkpt lat="44.03885" lon="7.29121">
        <ele>742.6</ele>
        <time>2022-06-11T06:53:14Z</time>
      </trkpt>
      <trkpt lat="44.03887" lon="7.2912">
        <ele>743.1</ele>
        <time>2022-06-11T06:53:15Z</time>
      </trkpt>
      <trkpt lat="44.0389" lon="7.29119">
        <ele>743.5</ele>
        <time>2022-06-11T06:53:16Z</time>
      </trkpt>
      <trkpt lat="44.03893" lon="7.29117">
        <ele>743.5</ele>
        <time>2022-06-11T06:53:17Z</time>
      </trkpt>
      <trkpt lat="44.03895" lon="7.29115">
        <ele>743.2</ele>
        <time>2022-06-11T06:53:18Z</time>
      </trkpt>
      <trkpt lat="44.03898" lon="7.29113">
        <ele>742.9</ele>
        <time>2022-06-11T06:53:19Z</time>
      </trkpt>
      <trkpt lat="44.039" lon="7.2911">
        <ele>742.6</ele>
        <time>2022-06-11T06:53:20Z</time>
      </trkpt>
      <trkpt lat="44.03903" lon="7.29108">
        <ele>742.4</ele>
        <time>2022-06-11T06:53:21Z</time>
      </trkpt>
      <trkpt lat="44.03905" lon="7.29106">
        <ele>742.2</ele>
        <time>2022-06-11T06:53:22Z</time>
      </trkpt>
      <trkpt lat="44.03908" lon="7.29104">
        <ele>742</ele>
        <time>2022-06-11T06:53:23Z</time>
      </trkpt>
      <trkpt lat="44.0391" lon="7.29102">
        <ele>741.9</ele>
        <time>2022-06-11T06:53:24Z</time>
      </trkpt>
      <trkpt lat="44.03913" lon="7.291">
        <ele>741.8</ele>
        <time>2022-06-11T06:53:25Z</time>
      </trkpt>
      <trkpt lat="44.03915" lon="7.29098">
        <ele>741.6</ele>
        <time>2022-06-11T06:53:26Z</time>
      </trkpt>
      <trkpt lat="44.03918" lon="7.29095">
        <ele>741.3</ele>
        <time>2022-06-11T06:53:27Z</time>
      </trkpt>
      <trkpt lat="44.03921" lon="7.29093">
        <ele>741</ele>
        <time>2022-06-11T06:53:28Z</time>
      </trkpt>
      <trkpt lat="44.03923" lon="7.29092">
        <ele>741.1</ele>
        <time>2022-06-11T06:53:29Z</time>
      </trkpt>
      <trkpt lat="44.03926" lon="7.2909">
        <ele>741.3</ele>
        <time>2022-06-11T06:53:30Z</time>
      </trkpt>
      <trkpt lat="44.03929" lon="7.29089">
        <ele>741.7</ele>
        <time>2022-06-11T06:53:31Z</time>
      </trkpt>
      <trkpt lat="44.03931" lon="7.29088">
        <ele>742</ele>
        <time>2022-06-11T06:53:32Z</time>
      </trkpt>
      <trkpt lat="44.03934" lon="7.29087">
        <ele>742.2</ele>
        <time>2022-06-11T06:53:33Z</time>
      </trkpt>
      <trkpt lat="44.03937" lon="7.29085">
        <ele>742.4</ele>
        <time>2022-06-11T06:53:34Z</time>
      </trkpt>
      <trkpt lat="44.03939" lon="7.29084">
        <ele>742.3</ele>
        <time>2022-06-11T06:53:35Z</time>
      </trkpt>
      <trkpt lat="44.03942" lon="7.29082">
        <ele>742.5</ele>
        <time>2022-06-11T06:53:36Z</time>
      </trkpt>
      <trkpt lat="44.03944" lon="7.29081">
        <ele>742.8</ele>
        <time>2022-06-11T06:53:37Z</time>
      </trkpt>
      <trkpt lat="44.03947" lon="7.2908">
        <ele>742.9</ele>
        <time>2022-06-11T06:53:38Z</time>
      </trkpt>
      <trkpt lat="44.03949" lon="7.29078">
        <ele>742.8</ele>
        <time>2022-06-11T06:53:39Z</time>
      </trkpt>
      <trkpt lat="44.03952" lon="7.29077">
        <ele>742.9</ele>
        <time>2022-06-11T06:53:40Z</time>
      </trkpt>
      <trkpt lat="44.03955" lon="7.29075">
        <ele>743</ele>
        <time>2022-06-11T06:53:41Z</time>
      </trkpt>
      <trkpt lat="44.03957" lon="7.29074">
        <ele>743</ele>
        <time>2022-06-11T06:53:42Z</time>
      </trkpt>
      <trkpt lat="44.0396" lon="7.29072">
        <ele>743.2</ele>
        <time>2022-06-11T06:53:43Z</time>
      </trkpt>
      <trkpt lat="44.03962" lon="7.29071">
        <ele>743.4</ele>
        <time>2022-06-11T06:53:44Z</time>
      </trkpt>
      <trkpt lat="44.03965" lon="7.2907">
        <ele>743.7</ele>
        <time>2022-06-11T06:53:45Z</time>
      </trkpt>
      <trkpt lat="44.03967" lon="7.29069">
        <ele>744</ele>
        <time>2022-06-11T06:53:46Z</time>
      </trkpt>
      <trkpt lat="44.03969" lon="7.29068">
        <ele>744.3</ele>
        <time>2022-06-11T06:53:47Z</time>
      </trkpt>
      <trkpt lat="44.03972" lon="7.29066">
        <ele>744.3</ele>
        <time>2022-06-11T06:53:48Z</time>
      </trkpt>
      <trkpt lat="44.03974" lon="7.29064">
        <ele>744.2</ele>
        <time>2022-06-11T06:53:49Z</time>
      </trkpt>
      <trkpt lat="44.03976" lon="7.29062">
        <ele>744</ele>
        <time>2022-06-11T06:53:50Z</time>
      </trkpt>
      <trkpt lat="44.03979" lon="7.29059">
        <ele>743.7</ele>
        <time>2022-06-11T06:53:51Z</time>
      </trkpt>
      <trkpt lat="44.03981" lon="7.29057">
        <ele>743.5</ele>
        <time>2022-06-11T06:53:52Z</time>
      </trkpt>
      <trkpt lat="44.03983" lon="7.29055">
        <ele>743.4</ele>
        <time>2022-06-11T06:53:53Z</time>
      </trkpt>
      <trkpt lat="44.03985" lon="7.29053">
        <ele>743.5</ele>
        <time>2022-06-11T06:53:54Z</time>
      </trkpt>
      <trkpt lat="44.03987" lon="7.29051">
        <ele>743.6</ele>
        <time>2022-06-11T06:53:55Z</time>
      </trkpt>
      <trkpt lat="44.03989" lon="7.29049">
        <ele>743.9</ele>
        <time>2022-06-11T06:53:56Z</time>
      </trkpt>
      <trkpt lat="44.03991" lon="7.29047">
        <ele>744.2</ele>
        <time>2022-06-11T06:53:57Z</time>
      </trkpt>
      <trkpt lat="44.03993" lon="7.29044">
        <ele>744.4</ele>
        <time>2022-06-11T06:53:58Z</time>
      </trkpt>
      <trkpt lat="44.03995" lon="7.29042">
        <ele>744.7</ele>
        <time>2022-06-11T06:53:59Z</time>
      </trkpt>
      <trkpt lat="44.03997" lon="7.29039">
        <ele>745.1</ele>
        <time>2022-06-11T06:54:00Z</time>
      </trkpt>
      <trkpt lat="44.03999" lon="7.29036">
        <ele>745.6</ele>
        <time>2022-06-11T06:54:01Z</time>
      </trkpt>
      <trkpt lat="44.04" lon="7.29034">
        <ele>746</ele>
        <time>2022-06-11T06:54:02Z</time>
      </trkpt>
      <trkpt lat="44.04002" lon="7.29031">
        <ele>746.2</ele>
        <time>2022-06-11T06:54:03Z</time>
      </trkpt>
      <trkpt lat="44.04004" lon="7.29028">
        <ele>746.4</ele>
        <time>2022-06-11T06:54:04Z</time>
      </trkpt>
      <trkpt lat="44.04006" lon="7.29025">
        <ele>746.4</ele>
        <time>2022-06-11T06:54:05Z</time>
      </trkpt>
      <trkpt lat="44.04007" lon="7.29022">
        <ele>746.4</ele>
        <time>2022-06-11T06:54:06Z</time>
      </trkpt>
      <trkpt lat="44.04008" lon="7.29019">
        <ele>746.4</ele>
        <time>2022-06-11T06:54:07Z</time>
      </trkpt>
      <trkpt lat="44.0401" lon="7.29016">
        <ele>746.5</ele>
        <time>2022-06-11T06:54:08Z</time>
      </trkpt>
      <trkpt lat="44.04011" lon="7.29013">
        <ele>746.7</ele>
        <time>2022-06-11T06:54:09Z</time>
      </trkpt>
      <trkpt lat="44.04013" lon="7.2901">
        <ele>746.9</ele>
        <time>2022-06-11T06:54:10Z</time>
      </trkpt>
      <trkpt lat="44.04014" lon="7.29007">
        <ele>747.2</ele>
        <time>2022-06-11T06:54:11Z</time>
      </trkpt>
      <trkpt lat="44.04016" lon="7.29004">
        <ele>747.5</ele>
        <time>2022-06-11T06:54:12Z</time>
      </trkpt>
      <trkpt lat="44.04017" lon="7.29001">
        <ele>747.9</ele>
        <time>2022-06-11T06:54:13Z</time>
      </trkpt>
      <trkpt lat="44.04019" lon="7.28998">
        <ele>748.2</ele>
        <time>2022-06-11T06:54:14Z</time>
      </trkpt>
      <trkpt lat="44.0402" lon="7.28995">
        <ele>748.4</ele>
        <time>2022-06-11T06:54:15Z</time>
      </trkpt>
      <trkpt lat="44.04022" lon="7.28992">
        <ele>748.7</ele>
        <time>2022-06-11T06:54:16Z</time>
      </trkpt>
      <trkpt lat="44.04024" lon="7.2899">
        <ele>749</ele>
        <time>2022-06-11T06:54:17Z</time>
      </trkpt>
      <trkpt lat="44.04025" lon="7.28987">
        <ele>749.5</ele>
        <time>2022-06-11T06:54:18Z</time>
      </trkpt>
      <trkpt lat="44.04027" lon="7.28984">
        <ele>749.9</ele>
        <time>2022-06-11T06:54:19Z</time>
      </trkpt>
      <trkpt lat="44.04028" lon="7.28981">
        <ele>750.5</ele>
        <time>2022-06-11T06:54:20Z</time>
      </trkpt>
      <trkpt lat="44.0403" lon="7.28978">
        <ele>751</ele>
        <time>2022-06-11T06:54:21Z</time>
      </trkpt>
      <trkpt lat="44.04031" lon="7.28976">
        <ele>751.4</ele>
        <time>2022-06-11T06:54:22Z</time>
      </trkpt>
      <trkpt lat="44.04032" lon="7.28973">
        <ele>751.9</ele>
        <time>2022-06-11T06:54:23Z</time>
      </trkpt>
      <trkpt lat="44.04034" lon="7.2897">
        <ele>752</ele>
        <time>2022-06-11T06:54:24Z</time>
      </trkpt>
      <trkpt lat="44.04035" lon="7.28967">
        <ele>752</ele>
        <time>2022-06-11T06:54:25Z</time>
      </trkpt>
      <trkpt lat="44.04038" lon="7.28965">
        <ele>752.3</ele>
        <time>2022-06-11T06:54:26Z</time>
      </trkpt>
      <trkpt lat="44.0404" lon="7.28962">
        <ele>752.6</ele>
        <time>2022-06-11T06:54:27Z</time>
      </trkpt>
      <trkpt lat="44.04042" lon="7.28959">
        <ele>752.9</ele>
        <time>2022-06-11T06:54:28Z</time>
      </trkpt>
      <trkpt lat="44.04045" lon="7.28956">
        <ele>753.2</ele>
        <time>2022-06-11T06:54:29Z</time>
      </trkpt>
      <trkpt lat="44.04047" lon="7.28954">
        <ele>753.6</ele>
        <time>2022-06-11T06:54:30Z</time>
      </trkpt>
      <trkpt lat="44.0405" lon="7.28951">
        <ele>754.1</ele>
        <time>2022-06-11T06:54:31Z</time>
      </trkpt>
      <trkpt lat="44.04053" lon="7.28949">
        <ele>754.8</ele>
        <time>2022-06-11T06:54:32Z</time>
      </trkpt>
      <trkpt lat="44.04055" lon="7.28947">
        <ele>755.4</ele>
        <time>2022-06-11T06:54:33Z</time>
      </trkpt>
      <trkpt lat="44.04058" lon="7.28945">
        <ele>756.1</ele>
        <time>2022-06-11T06:54:34Z</time>
      </trkpt>
      <trkpt lat="44.04061" lon="7.28942">
        <ele>756.2</ele>
        <time>2022-06-11T06:54:35Z</time>
      </trkpt>
      <trkpt lat="44.04065" lon="7.2894">
        <ele>756.6</ele>
        <time>2022-06-11T06:54:36Z</time>
      </trkpt>
      <trkpt lat="44.04068" lon="7.28938">
        <ele>756.8</ele>
        <time>2022-06-11T06:54:37Z</time>
      </trkpt>
      <trkpt lat="44.04071" lon="7.28937">
        <ele>757.2</ele>
        <time>2022-06-11T06:54:38Z</time>
      </trkpt>
      <trkpt lat="44.04074" lon="7.28934">
        <ele>757.1</ele>
        <time>2022-06-11T06:54:39Z</time>
      </trkpt>
      <trkpt lat="44.04077" lon="7.28932">
        <ele>757.2</ele>
        <time>2022-06-11T06:54:40Z</time>
      </trkpt>
      <trkpt lat="44.0408" lon="7.2893">
        <ele>757.6</ele>
        <time>2022-06-11T06:54:41Z</time>
      </trkpt>
      <trkpt lat="44.04083" lon="7.28928">
        <ele>757.7</ele>
        <time>2022-06-11T06:54:42Z</time>
      </trkpt>
      <trkpt lat="44.04086" lon="7.28927">
        <ele>757.9</ele>
        <time>2022-06-11T06:54:43Z</time>
      </trkpt>
      <trkpt lat="44.04089" lon="7.28925">
        <ele>758.2</ele>
        <time>2022-06-11T06:54:44Z</time>
      </trkpt>
      <trkpt lat="44.04092" lon="7.28924">
        <ele>758.4</ele>
        <time>2022-06-11T06:54:45Z</time>
      </trkpt>
      <trkpt lat="44.04095" lon="7.28921">
        <ele>758.2</ele>
        <time>2022-06-11T06:54:46Z</time>
      </trkpt>
      <trkpt lat="44.04097" lon="7.28919">
        <ele>758</ele>
        <time>2022-06-11T06:54:47Z</time>
      </trkpt>
      <trkpt lat="44.041" lon="7.28918">
        <ele>757.9</ele>
        <time>2022-06-11T06:54:48Z</time>
      </trkpt>
      <trkpt lat="44.04103" lon="7.28916">
        <ele>758</ele>
        <time>2022-06-11T06:54:49Z</time>
      </trkpt>
      <trkpt lat="44.04105" lon="7.28915">
        <ele>758.1</ele>
        <time>2022-06-11T06:54:50Z</time>
      </trkpt>
      <trkpt lat="44.04108" lon="7.28913">
        <ele>758.1</ele>
        <time>2022-06-11T06:54:51Z</time>
      </trkpt>
      <trkpt lat="44.04111" lon="7.28911">
        <ele>758.4</ele>
        <time>2022-06-11T06:54:52Z</time>
      </trkpt>
      <trkpt lat="44.04114" lon="7.28909">
        <ele>758.7</ele>
        <time>2022-06-11T06:54:53Z</time>
      </trkpt>
      <trkpt lat="44.04117" lon="7.28908">
        <ele>759.1</ele>
        <time>2022-06-11T06:54:54Z</time>
      </trkpt>
      <trkpt lat="44.0412" lon="7.28906">
        <ele>759.3</ele>
        <time>2022-06-11T06:54:55Z</time>
      </trkpt>
      <trkpt lat="44.04123" lon="7.28904">
        <ele>759.5</ele>
        <time>2022-06-11T06:54:56Z</time>
      </trkpt>
      <trkpt lat="44.04126" lon="7.28902">
        <ele>759.8</ele>
        <time>2022-06-11T06:54:57Z</time>
      </trkpt>
      <trkpt lat="44.04128" lon="7.28901">
        <ele>760.1</ele>
        <time>2022-06-11T06:54:58Z</time>
      </trkpt>
      <trkpt lat="44.04131" lon="7.28899">
        <ele>760.3</ele>
        <time>2022-06-11T06:54:59Z</time>
      </trkpt>
      <trkpt lat="44.04134" lon="7.28897">
        <ele>760.3</ele>
        <time>2022-06-11T06:55:00Z</time>
      </trkpt>
      <trkpt lat="44.04137" lon="7.28895">
        <ele>760.5</ele>
        <time>2022-06-11T06:55:01Z</time>
      </trkpt>
      <trkpt lat="44.04139" lon="7.28894">
        <ele>760.7</ele>
        <time>2022-06-11T06:55:02Z</time>
      </trkpt>
      <trkpt lat="44.04142" lon="7.28892">
        <ele>760.6</ele>
        <time>2022-06-11T06:55:03Z</time>
      </trkpt>
      <trkpt lat="44.04144" lon="7.28891">
        <ele>760.6</ele>
        <time>2022-06-11T06:55:04Z</time>
      </trkpt>
      <trkpt lat="44.04147" lon="7.28889">
        <ele>760.7</ele>
        <time>2022-06-11T06:55:05Z</time>
      </trkpt>
      <trkpt lat="44.0415" lon="7.28887">
        <ele>760.7</ele>
        <time>2022-06-11T06:55:06Z</time>
      </trkpt>
      <trkpt lat="44.04153" lon="7.28885">
        <ele>760.9</ele>
        <time>2022-06-11T06:55:07Z</time>
      </trkpt>
      <trkpt lat="44.04156" lon="7.28884">
        <ele>761.4</ele>
        <time>2022-06-11T06:55:08Z</time>
      </trkpt>
      <trkpt lat="44.04158" lon="7.28882">
        <ele>761.5</ele>
        <time>2022-06-11T06:55:09Z</time>
      </trkpt>
      <trkpt lat="44.04161" lon="7.2888">
        <ele>761.5</ele>
        <time>2022-06-11T06:55:10Z</time>
      </trkpt>
      <trkpt lat="44.04163" lon="7.28879">
        <ele>761.5</ele>
        <time>2022-06-11T06:55:11Z</time>
      </trkpt>
      <trkpt lat="44.04166" lon="7.28877">
        <ele>761.5</ele>
        <time>2022-06-11T06:55:12Z</time>
      </trkpt>
      <trkpt lat="44.04169" lon="7.28875">
        <ele>761.6</ele>
        <time>2022-06-11T06:55:13Z</time>
      </trkpt>
      <trkpt lat="44.04171" lon="7.28874">
        <ele>761.6</ele>
        <time>2022-06-11T06:55:14Z</time>
      </trkpt>
      <trkpt lat="44.04174" lon="7.28872">
        <ele>761.5</ele>
        <time>2022-06-11T06:55:15Z</time>
      </trkpt>
      <trkpt lat="44.04177" lon="7.28871">
        <ele>761.5</ele>
        <time>2022-06-11T06:55:16Z</time>
      </trkpt>
      <trkpt lat="44.0418" lon="7.28869">
        <ele>761.4</ele>
        <time>2022-06-11T06:55:17Z</time>
      </trkpt>
      <trkpt lat="44.04183" lon="7.28867">
        <ele>761.3</ele>
        <time>2022-06-11T06:55:18Z</time>
      </trkpt>
      <trkpt lat="44.04185" lon="7.28866">
        <ele>761.4</ele>
        <time>2022-06-11T06:55:19Z</time>
      </trkpt>
      <trkpt lat="44.04188" lon="7.28865">
        <ele>761.4</ele>
        <time>2022-06-11T06:55:20Z</time>
      </trkpt>
      <trkpt lat="44.04191" lon="7.28864">
        <ele>761.6</ele>
        <time>2022-06-11T06:55:21Z</time>
      </trkpt>
      <trkpt lat="44.04194" lon="7.28863">
        <ele>761.5</ele>
        <time>2022-06-11T06:55:22Z</time>
      </trkpt>
      <trkpt lat="44.04196" lon="7.28861">
        <ele>761.2</ele>
        <time>2022-06-11T06:55:23Z</time>
      </trkpt>
      <trkpt lat="44.04199" lon="7.28861">
        <ele>761</ele>
        <time>2022-06-11T06:55:24Z</time>
      </trkpt>
      <trkpt lat="44.04202" lon="7.28861">
        <ele>761</ele>
        <time>2022-06-11T06:55:25Z</time>
      </trkpt>
      <trkpt lat="44.04205" lon="7.2886">
        <ele>761</ele>
        <time>2022-06-11T06:55:26Z</time>
      </trkpt>
      <trkpt lat="44.04207" lon="7.2886">
        <ele>761</ele>
        <time>2022-06-11T06:55:27Z</time>
      </trkpt>
      <trkpt lat="44.0421" lon="7.2886">
        <ele>761.1</ele>
        <time>2022-06-11T06:55:28Z</time>
      </trkpt>
      <trkpt lat="44.04213" lon="7.28861">
        <ele>761.4</ele>
        <time>2022-06-11T06:55:29Z</time>
      </trkpt>
      <trkpt lat="44.04216" lon="7.28861">
        <ele>761.9</ele>
        <time>2022-06-11T06:55:30Z</time>
      </trkpt>
      <trkpt lat="44.04218" lon="7.28862">
        <ele>762.3</ele>
        <time>2022-06-11T06:55:31Z</time>
      </trkpt>
      <trkpt lat="44.04221" lon="7.28863">
        <ele>763</ele>
        <time>2022-06-11T06:55:32Z</time>
      </trkpt>
      <trkpt lat="44.04223" lon="7.28865">
        <ele>764</ele>
        <time>2022-06-11T06:55:33Z</time>
      </trkpt>
      <trkpt lat="44.04225" lon="7.28867">
        <ele>764.8</ele>
        <time>2022-06-11T06:55:34Z</time>
      </trkpt>
      <trkpt lat="44.04228" lon="7.28869">
        <ele>765.7</ele>
        <time>2022-06-11T06:55:35Z</time>
      </trkpt>
      <trkpt lat="44.0423" lon="7.2887">
        <ele>766.5</ele>
        <time>2022-06-11T06:55:36Z</time>
      </trkpt>
      <trkpt lat="44.04232" lon="7.28872">
        <ele>767.2</ele>
        <time>2022-06-11T06:55:37Z</time>
      </trkpt>
      <trkpt lat="44.04234" lon="7.28874">
        <ele>768.1</ele>
        <time>2022-06-11T06:55:38Z</time>
      </trkpt>
      <trkpt lat="44.04237" lon="7.28876">
        <ele>768.7</ele>
        <time>2022-06-11T06:55:39Z</time>
      </trkpt>
      <trkpt lat="44.04239" lon="7.28877">
        <ele>769.2</ele>
        <time>2022-06-11T06:55:40Z</time>
      </trkpt>
      <trkpt lat="44.04241" lon="7.28878">
        <ele>769.4</ele>
        <time>2022-06-11T06:55:41Z</time>
      </trkpt>
      <trkpt lat="44.04244" lon="7.28879">
        <ele>769.6</ele>
        <time>2022-06-11T06:55:42Z</time>
      </trkpt>
      <trkpt lat="44.04247" lon="7.2888">
        <ele>769.9</ele>
        <time>2022-06-11T06:55:43Z</time>
      </trkpt>
      <trkpt lat="44.04249" lon="7.28881">
        <ele>770.1</ele>
        <time>2022-06-11T06:55:44Z</time>
      </trkpt>
      <trkpt lat="44.04252" lon="7.28881">
        <ele>770.5</ele>
        <time>2022-06-11T06:55:45Z</time>
      </trkpt>
      <trkpt lat="44.04255" lon="7.2888">
        <ele>770.9</ele>
        <time>2022-06-11T06:55:46Z</time>
      </trkpt>
      <trkpt lat="44.04258" lon="7.2888">
        <ele>771.3</ele>
        <time>2022-06-11T06:55:47Z</time>
      </trkpt>
      <trkpt lat="44.0426" lon="7.28879">
        <ele>771.8</ele>
        <time>2022-06-11T06:55:48Z</time>
      </trkpt>
      <trkpt lat="44.04263" lon="7.28878">
        <ele>772.1</ele>
        <time>2022-06-11T06:55:49Z</time>
      </trkpt>
      <trkpt lat="44.04266" lon="7.28877">
        <ele>772.4</ele>
        <time>2022-06-11T06:55:50Z</time>
      </trkpt>
      <trkpt lat="44.04268" lon="7.28875">
        <ele>772.6</ele>
        <time>2022-06-11T06:55:51Z</time>
      </trkpt>
      <trkpt lat="44.04271" lon="7.28874">
        <ele>772.9</ele>
        <time>2022-06-11T06:55:52Z</time>
      </trkpt>
      <trkpt lat="44.04273" lon="7.28872">
        <ele>773.1</ele>
        <time>2022-06-11T06:55:53Z</time>
      </trkpt>
      <trkpt lat="44.04275" lon="7.28869">
        <ele>773.4</ele>
        <time>2022-06-11T06:55:54Z</time>
      </trkpt>
      <trkpt lat="44.04277" lon="7.28867">
        <ele>773.6</ele>
        <time>2022-06-11T06:55:55Z</time>
      </trkpt>
      <trkpt lat="44.04279" lon="7.28865">
        <ele>774.1</ele>
        <time>2022-06-11T06:55:56Z</time>
      </trkpt>
      <trkpt lat="44.04281" lon="7.28862">
        <ele>774.8</ele>
        <time>2022-06-11T06:55:57Z</time>
      </trkpt>
      <trkpt lat="44.04282" lon="7.28859">
        <ele>775.5</ele>
        <time>2022-06-11T06:55:58Z</time>
      </trkpt>
      <trkpt lat="44.04284" lon="7.28856">
        <ele>776.1</ele>
        <time>2022-06-11T06:55:59Z</time>
      </trkpt>
      <trkpt lat="44.04285" lon="7.28853">
        <ele>776.6</ele>
        <time>2022-06-11T06:56:00Z</time>
      </trkpt>
      <trkpt lat="44.04286" lon="7.28849">
        <ele>776.9</ele>
        <time>2022-06-11T06:56:01Z</time>
      </trkpt>
      <trkpt lat="44.04287" lon="7.28846">
        <ele>777</ele>
        <time>2022-06-11T06:56:02Z</time>
      </trkpt>
      <trkpt lat="44.04287" lon="7.28842">
        <ele>777</ele>
        <time>2022-06-11T06:56:03Z</time>
      </trkpt>
      <trkpt lat="44.04288" lon="7.28837">
        <ele>776.8</ele>
        <time>2022-06-11T06:56:04Z</time>
      </trkpt>
      <trkpt lat="44.04288" lon="7.28833">
        <ele>776.4</ele>
        <time>2022-06-11T06:56:05Z</time>
      </trkpt>
      <trkpt lat="44.04287" lon="7.2883">
        <ele>776.4</ele>
        <time>2022-06-11T06:56:06Z</time>
      </trkpt>
      <trkpt lat="44.04287" lon="7.28826">
        <ele>776.2</ele>
        <time>2022-06-11T06:56:07Z</time>
      </trkpt>
      <trkpt lat="44.04286" lon="7.28822">
        <ele>775.8</ele>
        <time>2022-06-11T06:56:08Z</time>
      </trkpt>
      <trkpt lat="44.04285" lon="7.28819">
        <ele>775.5</ele>
        <time>2022-06-11T06:56:09Z</time>
      </trkpt>
      <trkpt lat="44.04284" lon="7.28815">
        <ele>775.4</ele>
        <time>2022-06-11T06:56:10Z</time>
      </trkpt>
      <trkpt lat="44.04284" lon="7.28812">
        <ele>775.1</ele>
        <time>2022-06-11T06:56:11Z</time>
      </trkpt>
      <trkpt lat="44.04283" lon="7.28808">
        <ele>774.8</ele>
        <time>2022-06-11T06:56:12Z</time>
      </trkpt>
      <trkpt lat="44.04282" lon="7.28804">
        <ele>774.7</ele>
        <time>2022-06-11T06:56:13Z</time>
      </trkpt>
      <trkpt lat="44.04282" lon="7.28801">
        <ele>774.7</ele>
        <time>2022-06-11T06:56:14Z</time>
      </trkpt>
      <trkpt lat="44.04282" lon="7.28797">
        <ele>774.8</ele>
        <time>2022-06-11T06:56:15Z</time>
      </trkpt>
      <trkpt lat="44.04281" lon="7.28793">
        <ele>774.9</ele>
        <time>2022-06-11T06:56:16Z</time>
      </trkpt>
      <trkpt lat="44.04281" lon="7.2879">
        <ele>775.1</ele>
        <time>2022-06-11T06:56:17Z</time>
      </trkpt>
      <trkpt lat="44.04281" lon="7.28786">
        <ele>775.8</ele>
        <time>2022-06-11T06:56:18Z</time>
      </trkpt>
      <trkpt lat="44.04282" lon="7.28783">
        <ele>776.3</ele>
        <time>2022-06-11T06:56:19Z</time>
      </trkpt>
      <trkpt lat="44.04281" lon="7.28779">
        <ele>776.4</ele>
        <time>2022-06-11T06:56:20Z</time>
      </trkpt>
      <trkpt lat="44.04281" lon="7.28776">
        <ele>776.3</ele>
        <time>2022-06-11T06:56:21Z</time>
      </trkpt>
      <trkpt lat="44.04281" lon="7.28773">
        <ele>776.6</ele>
        <time>2022-06-11T06:56:22Z</time>
      </trkpt>
      <trkpt lat="44.04282" lon="7.2877">
        <ele>777.2</ele>
        <time>2022-06-11T06:56:23Z</time>
      </trkpt>
      <trkpt lat="44.04283" lon="7.28767">
        <ele>777.8</ele>
        <time>2022-06-11T06:56:24Z</time>
      </trkpt>
      <trkpt lat="44.04284" lon="7.28764">
        <ele>778.6</ele>
        <time>2022-06-11T06:56:25Z</time>
      </trkpt>
      <trkpt lat="44.04284" lon="7.28761">
        <ele>779.2</ele>
        <time>2022-06-11T06:56:26Z</time>
      </trkpt>
      <trkpt lat="44.04286" lon="7.28758">
        <ele>780.2</ele>
        <time>2022-06-11T06:56:27Z</time>
      </trkpt>
      <trkpt lat="44.04287" lon="7.28755">
        <ele>781</ele>
        <time>2022-06-11T06:56:28Z</time>
      </trkpt>
      <trkpt lat="44.04288" lon="7.28752">
        <ele>781.8</ele>
        <time>2022-06-11T06:56:29Z</time>
      </trkpt>
      <trkpt lat="44.04289" lon="7.28749">
        <ele>782.4</ele>
        <time>2022-06-11T06:56:30Z</time>
      </trkpt>
      <trkpt lat="44.04291" lon="7.28746">
        <ele>782.8</ele>
        <time>2022-06-11T06:56:31Z</time>
      </trkpt>
      <trkpt lat="44.04292" lon="7.28743">
        <ele>783.2</ele>
        <time>2022-06-11T06:56:32Z</time>
      </trkpt>
      <trkpt lat="44.04294" lon="7.2874">
        <ele>783.4</ele>
        <time>2022-06-11T06:56:33Z</time>
      </trkpt>
      <trkpt lat="44.04295" lon="7.28736">
        <ele>783.8</ele>
        <time>2022-06-11T06:56:34Z</time>
      </trkpt>
      <trkpt lat="44.04296" lon="7.28733">
        <ele>783.7</ele>
        <time>2022-06-11T06:56:35Z</time>
      </trkpt>
      <trkpt lat="44.04298" lon="7.2873">
        <ele>783.8</ele>
        <time>2022-06-11T06:56:36Z</time>
      </trkpt>
      <trkpt lat="44.04299" lon="7.28726">
        <ele>783.8</ele>
        <time>2022-06-11T06:56:37Z</time>
      </trkpt>
      <trkpt lat="44.043" lon="7.28722">
        <ele>783.4</ele>
        <time>2022-06-11T06:56:38Z</time>
      </trkpt>
      <trkpt lat="44.043" lon="7.28718">
        <ele>782.7</ele>
        <time>2022-06-11T06:56:39Z</time>
      </trkpt>
      <trkpt lat="44.04301" lon="7.28713">
        <ele>782.1</ele>
        <time>2022-06-11T06:56:40Z</time>
      </trkpt>
      <trkpt lat="44.04302" lon="7.28709">
        <ele>781.4</ele>
        <time>2022-06-11T06:56:41Z</time>
      </trkpt>
      <trkpt lat="44.04302" lon="7.28705">
        <ele>780.5</ele>
        <time>2022-06-11T06:56:42Z</time>
      </trkpt>
      <trkpt lat="44.04303" lon="7.28701">
        <ele>779.8</ele>
        <time>2022-06-11T06:56:43Z</time>
      </trkpt>
      <trkpt lat="44.04303" lon="7.28697">
        <ele>779</ele>
        <time>2022-06-11T06:56:44Z</time>
      </trkpt>
      <trkpt lat="44.04303" lon="7.28693">
        <ele>778.4</ele>
        <time>2022-06-11T06:56:45Z</time>
      </trkpt>
      <trkpt lat="44.04303" lon="7.28689">
        <ele>777.9</ele>
        <time>2022-06-11T06:56:46Z</time>
      </trkpt>
      <trkpt lat="44.04302" lon="7.28686">
        <ele>777.4</ele>
        <time>2022-06-11T06:56:47Z</time>
      </trkpt>
      <trkpt lat="44.04302" lon="7.28682">
        <ele>777</ele>
        <time>2022-06-11T06:56:48Z</time>
      </trkpt>
      <trkpt lat="44.04302" lon="7.28678">
        <ele>776.5</ele>
        <time>2022-06-11T06:56:49Z</time>
      </trkpt>
      <trkpt lat="44.04302" lon="7.28674">
        <ele>776.1</ele>
        <time>2022-06-11T06:56:50Z</time>
      </trkpt>
      <trkpt lat="44.04302" lon="7.2867">
        <ele>775.8</ele>
        <time>2022-06-11T06:56:51Z</time>
      </trkpt>
      <trkpt lat="44.04302" lon="7.28666">
        <ele>775.4</ele>
        <time>2022-06-11T06:56:52Z</time>
      </trkpt>
      <trkpt lat="44.04302" lon="7.28662">
        <ele>775</ele>
        <time>2022-06-11T06:56:53Z</time>
      </trkpt>
      <trkpt lat="44.04302" lon="7.28658">
        <ele>774.7</ele>
        <time>2022-06-11T06:56:54Z</time>
      </trkpt>
      <trkpt lat="44.04303" lon="7.28655">
        <ele>774.4</ele>
        <time>2022-06-11T06:56:55Z</time>
      </trkpt>
      <trkpt lat="44.04303" lon="7.28651">
        <ele>774.3</ele>
        <time>2022-06-11T06:56:56Z</time>
      </trkpt>
      <trkpt lat="44.04304" lon="7.28648">
        <ele>774.5</ele>
        <time>2022-06-11T06:56:57Z</time>
      </trkpt>
      <trkpt lat="44.04306" lon="7.28645">
        <ele>774.8</ele>
        <time>2022-06-11T06:56:58Z</time>
      </trkpt>
      <trkpt lat="44.04308" lon="7.28643">
        <ele>775.8</ele>
        <time>2022-06-11T06:56:59Z</time>
      </trkpt>
      <trkpt lat="44.0431" lon="7.2864">
        <ele>776.7</ele>
        <time>2022-06-11T06:57:00Z</time>
      </trkpt>
      <trkpt lat="44.04311" lon="7.28637">
        <ele>777.5</ele>
        <time>2022-06-11T06:57:01Z</time>
      </trkpt>
      <trkpt lat="44.04313" lon="7.28635">
        <ele>778.4</ele>
        <time>2022-06-11T06:57:02Z</time>
      </trkpt>
      <trkpt lat="44.04315" lon="7.28632">
        <ele>779.2</ele>
        <time>2022-06-11T06:57:03Z</time>
      </trkpt>
      <trkpt lat="44.04317" lon="7.2863">
        <ele>779.8</ele>
        <time>2022-06-11T06:57:04Z</time>
      </trkpt>
      <trkpt lat="44.04319" lon="7.28628">
        <ele>780.6</ele>
        <time>2022-06-11T06:57:05Z</time>
      </trkpt>
      <trkpt lat="44.04321" lon="7.28626">
        <ele>781.6</ele>
        <time>2022-06-11T06:57:06Z</time>
      </trkpt>
      <trkpt lat="44.04322" lon="7.28623">
        <ele>782.2</ele>
        <time>2022-06-11T06:57:07Z</time>
      </trkpt>
      <trkpt lat="44.04324" lon="7.2862">
        <ele>782.5</ele>
        <time>2022-06-11T06:57:08Z</time>
      </trkpt>
      <trkpt lat="44.04325" lon="7.28617">
        <ele>783.1</ele>
        <time>2022-06-11T06:57:09Z</time>
      </trkpt>
      <trkpt lat="44.04327" lon="7.28614">
        <ele>783.6</ele>
        <time>2022-06-11T06:57:10Z</time>
      </trkpt>
      <trkpt lat="44.04329" lon="7.28611">
        <ele>784.1</ele>
        <time>2022-06-11T06:57:11Z</time>
      </trkpt>
      <trkpt lat="44.0433" lon="7.28608">
        <ele>784.7</ele>
        <time>2022-06-11T06:57:12Z</time>
      </trkpt>
      <trkpt lat="44.04332" lon="7.28605">
        <ele>785.3</ele>
        <time>2022-06-11T06:57:13Z</time>
      </trkpt>
      <trkpt lat="44.04333" lon="7.28602">
        <ele>785.8</ele>
        <time>2022-06-11T06:57:14Z</time>
      </trkpt>
      <trkpt lat="44.04335" lon="7.28598">
        <ele>786.3</ele>
        <time>2022-06-11T06:57:15Z</time>
      </trkpt>
      <trkpt lat="44.04336" lon="7.28595">
        <ele>786.9</ele>
        <time>2022-06-11T06:57:16Z</time>
      </trkpt>
      <trkpt lat="44.04337" lon="7.28592">
        <ele>787.3</ele>
        <time>2022-06-11T06:57:17Z</time>
      </trkpt>
      <trkpt lat="44.04338" lon="7.28588">
        <ele>787.5</ele>
        <time>2022-06-11T06:57:18Z</time>
      </trkpt>
      <trkpt lat="44.04339" lon="7.28584">
        <ele>787.6</ele>
        <time>2022-06-11T06:57:19Z</time>
      </trkpt>
      <trkpt lat="44.0434" lon="7.2858">
        <ele>788</ele>
        <time>2022-06-11T06:57:20Z</time>
      </trkpt>
      <trkpt lat="44.04341" lon="7.28576">
        <ele>788.4</ele>
        <time>2022-06-11T06:57:21Z</time>
      </trkpt>
      <trkpt lat="44.04341" lon="7.28572">
        <ele>788.8</ele>
        <time>2022-06-11T06:57:22Z</time>
      </trkpt>
      <trkpt lat="44.04342" lon="7.28568">
        <ele>789.2</ele>
        <time>2022-06-11T06:57:23Z</time>
      </trkpt>
      <trkpt lat="44.04342" lon="7.28563">
        <ele>789.2</ele>
        <time>2022-06-11T06:57:24Z</time>
      </trkpt>
      <trkpt lat="44.04342" lon="7.28559">
        <ele>789.1</ele>
        <time>2022-06-11T06:57:25Z</time>
      </trkpt>
      <trkpt lat="44.04341" lon="7.28555">
        <ele>788.8</ele>
        <time>2022-06-11T06:57:26Z</time>
      </trkpt>
      <trkpt lat="44.04341" lon="7.2855">
        <ele>788.5</ele>
        <time>2022-06-11T06:57:27Z</time>
      </trkpt>
      <trkpt lat="44.0434" lon="7.28546">
        <ele>788.1</ele>
        <time>2022-06-11T06:57:28Z</time>
      </trkpt>
      <trkpt lat="44.04339" lon="7.28542">
        <ele>787.7</ele>
        <time>2022-06-11T06:57:29Z</time>
      </trkpt>
      <trkpt lat="44.04339" lon="7.28538">
        <ele>787.4</ele>
        <time>2022-06-11T06:57:30Z</time>
      </trkpt>
      <trkpt lat="44.04338" lon="7.28535">
        <ele>787.1</ele>
        <time>2022-06-11T06:57:31Z</time>
      </trkpt>
      <trkpt lat="44.04338" lon="7.28531">
        <ele>786.9</ele>
        <time>2022-06-11T06:57:32Z</time>
      </trkpt>
      <trkpt lat="44.04337" lon="7.28527">
        <ele>786.5</ele>
        <time>2022-06-11T06:57:33Z</time>
      </trkpt>
      <trkpt lat="44.04336" lon="7.28523">
        <ele>786.2</ele>
        <time>2022-06-11T06:57:34Z</time>
      </trkpt>
      <trkpt lat="44.04335" lon="7.28519">
        <ele>785.9</ele>
        <time>2022-06-11T06:57:35Z</time>
      </trkpt>
      <trkpt lat="44.04334" lon="7.28515">
        <ele>785.6</ele>
        <time>2022-06-11T06:57:36Z</time>
      </trkpt>
      <trkpt lat="44.04334" lon="7.28511">
        <ele>785.3</ele>
        <time>2022-06-11T06:57:37Z</time>
      </trkpt>
      <trkpt lat="44.04332" lon="7.28508">
        <ele>784.8</ele>
        <time>2022-06-11T06:57:38Z</time>
      </trkpt>
      <trkpt lat="44.04331" lon="7.28504">
        <ele>784.4</ele>
        <time>2022-06-11T06:57:39Z</time>
      </trkpt>
      <trkpt lat="44.04331" lon="7.285">
        <ele>784.1</ele>
        <time>2022-06-11T06:57:40Z</time>
      </trkpt>
      <trkpt lat="44.0433" lon="7.28496">
        <ele>783.3</ele>
        <time>2022-06-11T06:57:41Z</time>
      </trkpt>
      <trkpt lat="44.04329" lon="7.28492">
        <ele>782.6</ele>
        <time>2022-06-11T06:57:42Z</time>
      </trkpt>
      <trkpt lat="44.04329" lon="7.28488">
        <ele>782.2</ele>
        <time>2022-06-11T06:57:43Z</time>
      </trkpt>
      <trkpt lat="44.0433" lon="7.28484">
        <ele>782.2</ele>
        <time>2022-06-11T06:57:44Z</time>
      </trkpt>
      <trkpt lat="44.0433" lon="7.2848">
        <ele>782.2</ele>
        <time>2022-06-11T06:57:45Z</time>
      </trkpt>
      <trkpt lat="44.04331" lon="7.28475">
        <ele>782.5</ele>
        <time>2022-06-11T06:57:46Z</time>
      </trkpt>
      <trkpt lat="44.04332" lon="7.28472">
        <ele>783</ele>
        <time>2022-06-11T06:57:47Z</time>
      </trkpt>
      <trkpt lat="44.04334" lon="7.28469">
        <ele>783.8</ele>
        <time>2022-06-11T06:57:48Z</time>
      </trkpt>
      <trkpt lat="44.04336" lon="7.28466">
        <ele>784.8</ele>
        <time>2022-06-11T06:57:49Z</time>
      </trkpt>
      <trkpt lat="44.04338" lon="7.28463">
        <ele>785.7</ele>
        <time>2022-06-11T06:57:50Z</time>
      </trkpt>
      <trkpt lat="44.04339" lon="7.2846">
        <ele>786.5</ele>
        <time>2022-06-11T06:57:51Z</time>
      </trkpt>
      <trkpt lat="44.04341" lon="7.28457">
        <ele>787.4</ele>
        <time>2022-06-11T06:57:52Z</time>
      </trkpt>
      <trkpt lat="44.04343" lon="7.28454">
        <ele>788.1</ele>
        <time>2022-06-11T06:57:53Z</time>
      </trkpt>
      <trkpt lat="44.04345" lon="7.2845">
        <ele>788.9</ele>
        <time>2022-06-11T06:57:54Z</time>
      </trkpt>
      <trkpt lat="44.04347" lon="7.28447">
        <ele>789.8</ele>
        <time>2022-06-11T06:57:55Z</time>
      </trkpt>
      <trkpt lat="44.04348" lon="7.28443">
        <ele>790.2</ele>
        <time>2022-06-11T06:57:56Z</time>
      </trkpt>
      <trkpt lat="44.04349" lon="7.2844">
        <ele>790.6</ele>
        <time>2022-06-11T06:57:57Z</time>
      </trkpt>
      <trkpt lat="44.04351" lon="7.28436">
        <ele>791.1</ele>
        <time>2022-06-11T06:57:58Z</time>
      </trkpt>
      <trkpt lat="44.04353" lon="7.28433">
        <ele>792</ele>
        <time>2022-06-11T06:57:59Z</time>
      </trkpt>
      <trkpt lat="44.04354" lon="7.28429">
        <ele>792.5</ele>
        <time>2022-06-11T06:58:00Z</time>
      </trkpt>
      <trkpt lat="44.04355" lon="7.28425">
        <ele>792.8</ele>
        <time>2022-06-11T06:58:01Z</time>
      </trkpt>
      <trkpt lat="44.04357" lon="7.28421">
        <ele>793.1</ele>
        <time>2022-06-11T06:58:02Z</time>
      </trkpt>
      <trkpt lat="44.04358" lon="7.28417">
        <ele>793.3</ele>
        <time>2022-06-11T06:58:03Z</time>
      </trkpt>
      <trkpt lat="44.04358" lon="7.28412">
        <ele>793</ele>
        <time>2022-06-11T06:58:04Z</time>
      </trkpt>
      <trkpt lat="44.04359" lon="7.28408">
        <ele>793</ele>
        <time>2022-06-11T06:58:05Z</time>
      </trkpt>
      <trkpt lat="44.0436" lon="7.28403">
        <ele>792.9</ele>
        <time>2022-06-11T06:58:06Z</time>
      </trkpt>
      <trkpt lat="44.04361" lon="7.28399">
        <ele>792.9</ele>
        <time>2022-06-11T06:58:07Z</time>
      </trkpt>
      <trkpt lat="44.04363" lon="7.28395">
        <ele>793.1</ele>
        <time>2022-06-11T06:58:08Z</time>
      </trkpt>
      <trkpt lat="44.04364" lon="7.2839">
        <ele>793.2</ele>
        <time>2022-06-11T06:58:09Z</time>
      </trkpt>
      <trkpt lat="44.04365" lon="7.28386">
        <ele>793.3</ele>
        <time>2022-06-11T06:58:10Z</time>
      </trkpt>
      <trkpt lat="44.04366" lon="7.28382">
        <ele>793.1</ele>
        <time>2022-06-11T06:58:11Z</time>
      </trkpt>
      <trkpt lat="44.04367" lon="7.28378">
        <ele>793.3</ele>
        <time>2022-06-11T06:58:12Z</time>
      </trkpt>
      <trkpt lat="44.04368" lon="7.28374">
        <ele>793.4</ele>
        <time>2022-06-11T06:58:13Z</time>
      </trkpt>
      <trkpt lat="44.0437" lon="7.28369">
        <ele>794</ele>
        <time>2022-06-11T06:58:14Z</time>
      </trkpt>
      <trkpt lat="44.04372" lon="7.28365">
        <ele>794.7</ele>
        <time>2022-06-11T06:58:15Z</time>
      </trkpt>
      <trkpt lat="44.04374" lon="7.28361">
        <ele>795.7</ele>
        <time>2022-06-11T06:58:16Z</time>
      </trkpt>
      <trkpt lat="44.04375" lon="7.28357">
        <ele>796.2</ele>
        <time>2022-06-11T06:58:17Z</time>
      </trkpt>
      <trkpt lat="44.04378" lon="7.28353">
        <ele>797.1</ele>
        <time>2022-06-11T06:58:18Z</time>
      </trkpt>
      <trkpt lat="44.0438" lon="7.28349">
        <ele>798.1</ele>
        <time>2022-06-11T06:58:19Z</time>
      </trkpt>
      <trkpt lat="44.04382" lon="7.28345">
        <ele>798.9</ele>
        <time>2022-06-11T06:58:20Z</time>
      </trkpt>
      <trkpt lat="44.04385" lon="7.28341">
        <ele>800.1</ele>
        <time>2022-06-11T06:58:21Z</time>
      </trkpt>
      <trkpt lat="44.04387" lon="7.28337">
        <ele>800.8</ele>
        <time>2022-06-11T06:58:22Z</time>
      </trkpt>
      <trkpt lat="44.0439" lon="7.28333">
        <ele>801.4</ele>
        <time>2022-06-11T06:58:23Z</time>
      </trkpt>
      <trkpt lat="44.04391" lon="7.28329">
        <ele>801.6</ele>
        <time>2022-06-11T06:58:24Z</time>
      </trkpt>
      <trkpt lat="44.04393" lon="7.28325">
        <ele>801.5</ele>
        <time>2022-06-11T06:58:25Z</time>
      </trkpt>
      <trkpt lat="44.04394" lon="7.28321">
        <ele>801.4</ele>
        <time>2022-06-11T06:58:26Z</time>
      </trkpt>
      <trkpt lat="44.04395" lon="7.28315">
        <ele>800.7</ele>
        <time>2022-06-11T06:58:27Z</time>
      </trkpt>
      <trkpt lat="44.04395" lon="7.2831">
        <ele>799.5</ele>
        <time>2022-06-11T06:58:28Z</time>
      </trkpt>
      <trkpt lat="44.04394" lon="7.28305">
        <ele>798.5</ele>
        <time>2022-06-11T06:58:29Z</time>
      </trkpt>
      <trkpt lat="44.04393" lon="7.28298">
        <ele>798</ele>
        <time>2022-06-11T06:58:30Z</time>
      </trkpt>
      <trkpt lat="44.04392" lon="7.28292">
        <ele>797.4</ele>
        <time>2022-06-11T06:58:31Z</time>
      </trkpt>
      <trkpt lat="44.04391" lon="7.28286">
        <ele>796.6</ele>
        <time>2022-06-11T06:58:32Z</time>
      </trkpt>
      <trkpt lat="44.0439" lon="7.2828">
        <ele>795.5</ele>
        <time>2022-06-11T06:58:33Z</time>
      </trkpt>
      <trkpt lat="44.04388" lon="7.28273">
        <ele>795.1</ele>
        <time>2022-06-11T06:58:34Z</time>
      </trkpt>
      <trkpt lat="44.04386" lon="7.28266">
        <ele>794.8</ele>
        <time>2022-06-11T06:58:35Z</time>
      </trkpt>
      <trkpt lat="44.04385" lon="7.2826">
        <ele>794.8</ele>
        <time>2022-06-11T06:58:36Z</time>
      </trkpt>
      <trkpt lat="44.04384" lon="7.28254">
        <ele>795</ele>
        <time>2022-06-11T06:58:37Z</time>
      </trkpt>
      <trkpt lat="44.04383" lon="7.28248">
        <ele>795.1</ele>
        <time>2022-06-11T06:58:38Z</time>
      </trkpt>
      <trkpt lat="44.04382" lon="7.28243">
        <ele>794.8</ele>
        <time>2022-06-11T06:58:39Z</time>
      </trkpt>
      <trkpt lat="44.04381" lon="7.28237">
        <ele>794.6</ele>
        <time>2022-06-11T06:58:40Z</time>
      </trkpt>
      <trkpt lat="44.0438" lon="7.28231">
        <ele>794.7</ele>
        <time>2022-06-11T06:58:41Z</time>
      </trkpt>
      <trkpt lat="44.0438" lon="7.28225">
        <ele>795</ele>
        <time>2022-06-11T06:58:42Z</time>
      </trkpt>
      <trkpt lat="44.0438" lon="7.2822">
        <ele>795.2</ele>
        <time>2022-06-11T06:58:43Z</time>
      </trkpt>
      <trkpt lat="44.04381" lon="7.28214">
        <ele>795.3</ele>
        <time>2022-06-11T06:58:44Z</time>
      </trkpt>
      <trkpt lat="44.04381" lon="7.28209">
        <ele>795.6</ele>
        <time>2022-06-11T06:58:45Z</time>
      </trkpt>
      <trkpt lat="44.04383" lon="7.28203">
        <ele>796.2</ele>
        <time>2022-06-11T06:58:46Z</time>
      </trkpt>
      <trkpt lat="44.04384" lon="7.28197">
        <ele>796.8</ele>
        <time>2022-06-11T06:58:47Z</time>
      </trkpt>
      <trkpt lat="44.04385" lon="7.28191">
        <ele>797</ele>
        <time>2022-06-11T06:58:48Z</time>
      </trkpt>
      <trkpt lat="44.04387" lon="7.28186">
        <ele>797.2</ele>
        <time>2022-06-11T06:58:49Z</time>
      </trkpt>
      <trkpt lat="44.04388" lon="7.2818">
        <ele>797.3</ele>
        <time>2022-06-11T06:58:50Z</time>
      </trkpt>
      <trkpt lat="44.0439" lon="7.28174">
        <ele>797.5</ele>
        <time>2022-06-11T06:58:51Z</time>
      </trkpt>
      <trkpt lat="44.04391" lon="7.28169">
        <ele>797.6</ele>
        <time>2022-06-11T06:58:52Z</time>
      </trkpt>
      <trkpt lat="44.04392" lon="7.28164">
        <ele>797.8</ele>
        <time>2022-06-11T06:58:53Z</time>
      </trkpt>
      <trkpt lat="44.04393" lon="7.28159">
        <ele>798.1</ele>
        <time>2022-06-11T06:58:54Z</time>
      </trkpt>
      <trkpt lat="44.04395" lon="7.28154">
        <ele>798.4</ele>
        <time>2022-06-11T06:58:55Z</time>
      </trkpt>
      <trkpt lat="44.04396" lon="7.28149">
        <ele>798.4</ele>
        <time>2022-06-11T06:58:56Z</time>
      </trkpt>
      <trkpt lat="44.04396" lon="7.28143">
        <ele>798.3</ele>
        <time>2022-06-11T06:58:57Z</time>
      </trkpt>
      <trkpt lat="44.04397" lon="7.28138">
        <ele>798</ele>
        <time>2022-06-11T06:58:58Z</time>
      </trkpt>
      <trkpt lat="44.04398" lon="7.28132">
        <ele>797.7</ele>
        <time>2022-06-11T06:58:59Z</time>
      </trkpt>
      <trkpt lat="44.04398" lon="7.28126">
        <ele>797.4</ele>
        <time>2022-06-11T06:59:00Z</time>
      </trkpt>
      <trkpt lat="44.04398" lon="7.2812">
        <ele>796.8</ele>
        <time>2022-06-11T06:59:01Z</time>
      </trkpt>
      <trkpt lat="44.04399" lon="7.28114">
        <ele>796.3</ele>
        <time>2022-06-11T06:59:02Z</time>
      </trkpt>
      <trkpt lat="44.04399" lon="7.28108">
        <ele>795.5</ele>
        <time>2022-06-11T06:59:03Z</time>
      </trkpt>
      <trkpt lat="44.04399" lon="7.28102">
        <ele>795</ele>
        <time>2022-06-11T06:59:04Z</time>
      </trkpt>
      <trkpt lat="44.044" lon="7.28096">
        <ele>794.6</ele>
        <time>2022-06-11T06:59:05Z</time>
      </trkpt>
      <trkpt lat="44.04401" lon="7.28089">
        <ele>794.4</ele>
        <time>2022-06-11T06:59:06Z</time>
      </trkpt>
      <trkpt lat="44.04401" lon="7.28083">
        <ele>794.1</ele>
        <time>2022-06-11T06:59:07Z</time>
      </trkpt>
      <trkpt lat="44.04402" lon="7.28077">
        <ele>793.7</ele>
        <time>2022-06-11T06:59:08Z</time>
      </trkpt>
      <trkpt lat="44.04403" lon="7.28072">
        <ele>793.6</ele>
        <time>2022-06-11T06:59:09Z</time>
      </trkpt>
      <trkpt lat="44.04405" lon="7.28066">
        <ele>793.4</ele>
        <time>2022-06-11T06:59:10Z</time>
      </trkpt>
      <trkpt lat="44.04406" lon="7.28059">
        <ele>793.1</ele>
        <time>2022-06-11T06:59:11Z</time>
      </trkpt>
      <trkpt lat="44.04407" lon="7.28053">
        <ele>792.7</ele>
        <time>2022-06-11T06:59:12Z</time>
      </trkpt>
      <trkpt lat="44.04409" lon="7.28048">
        <ele>792.4</ele>
        <time>2022-06-11T06:59:13Z</time>
      </trkpt>
      <trkpt lat="44.0441" lon="7.28042">
        <ele>792.2</ele>
        <time>2022-06-11T06:59:14Z</time>
      </trkpt>
      <trkpt lat="44.04413" lon="7.28037">
        <ele>792.6</ele>
        <time>2022-06-11T06:59:15Z</time>
      </trkpt>
      <trkpt lat="44.04416" lon="7.28031">
        <ele>793.1</ele>
        <time>2022-06-11T06:59:16Z</time>
      </trkpt>
      <trkpt lat="44.04418" lon="7.28026">
        <ele>793.4</ele>
        <time>2022-06-11T06:59:17Z</time>
      </trkpt>
      <trkpt lat="44.04422" lon="7.28022">
        <ele>794</ele>
        <time>2022-06-11T06:59:18Z</time>
      </trkpt>
      <trkpt lat="44.04425" lon="7.28017">
        <ele>794.5</ele>
        <time>2022-06-11T06:59:19Z</time>
      </trkpt>
      <trkpt lat="44.04428" lon="7.28013">
        <ele>795.3</ele>
        <time>2022-06-11T06:59:20Z</time>
      </trkpt>
      <trkpt lat="44.04432" lon="7.28009">
        <ele>796.3</ele>
        <time>2022-06-11T06:59:21Z</time>
      </trkpt>
      <trkpt lat="44.04436" lon="7.28007">
        <ele>797.9</ele>
        <time>2022-06-11T06:59:22Z</time>
      </trkpt>
      <trkpt lat="44.0444" lon="7.28004">
        <ele>799.6</ele>
        <time>2022-06-11T06:59:23Z</time>
      </trkpt>
      <trkpt lat="44.04444" lon="7.28002">
        <ele>801.2</ele>
        <time>2022-06-11T06:59:24Z</time>
      </trkpt>
      <trkpt lat="44.04448" lon="7.27999">
        <ele>802</ele>
        <time>2022-06-11T06:59:25Z</time>
      </trkpt>
      <trkpt lat="44.04451" lon="7.27996">
        <ele>802.2</ele>
        <time>2022-06-11T06:59:26Z</time>
      </trkpt>
      <trkpt lat="44.04455" lon="7.27993">
        <ele>802.4</ele>
        <time>2022-06-11T06:59:27Z</time>
      </trkpt>
      <trkpt lat="44.04459" lon="7.2799">
        <ele>802.4</ele>
        <time>2022-06-11T06:59:28Z</time>
      </trkpt>
      <trkpt lat="44.04462" lon="7.27986">
        <ele>802</ele>
        <time>2022-06-11T06:59:29Z</time>
      </trkpt>
      <trkpt lat="44.04466" lon="7.27982">
        <ele>801.4</ele>
        <time>2022-06-11T06:59:30Z</time>
      </trkpt>
      <trkpt lat="44.04469" lon="7.27978">
        <ele>800.7</ele>
        <time>2022-06-11T06:59:31Z</time>
      </trkpt>
      <trkpt lat="44.04472" lon="7.27974">
        <ele>799.7</ele>
        <time>2022-06-11T06:59:32Z</time>
      </trkpt>
      <trkpt lat="44.04476" lon="7.27969">
        <ele>798.3</ele>
        <time>2022-06-11T06:59:33Z</time>
      </trkpt>
      <trkpt lat="44.04479" lon="7.27965">
        <ele>797</ele>
        <time>2022-06-11T06:59:34Z</time>
      </trkpt>
      <trkpt lat="44.04482" lon="7.2796">
        <ele>795.7</ele>
        <time>2022-06-11T06:59:35Z</time>
      </trkpt>
      <trkpt lat="44.04485" lon="7.27956">
        <ele>794.2</ele>
        <time>2022-06-11T06:59:36Z</time>
      </trkpt>
      <trkpt lat="44.04486" lon="7.27949">
        <ele>791.6</ele>
        <time>2022-06-11T06:59:37Z</time>
      </trkpt>
      <trkpt lat="44.04487" lon="7.27942">
        <ele>788.3</ele>
        <time>2022-06-11T06:59:38Z</time>
      </trkpt>
      <trkpt lat="44.04488" lon="7.27934">
        <ele>784</ele>
        <time>2022-06-11T06:59:39Z</time>
      </trkpt>
      <trkpt lat="44.04489" lon="7.27927">
        <ele>779.8</ele>
        <time>2022-06-11T06:59:40Z</time>
      </trkpt>
      <trkpt lat="44.04489" lon="7.27918">
        <ele>775</ele>
        <time>2022-06-11T06:59:41Z</time>
      </trkpt>
      <trkpt lat="44.0449" lon="7.2791">
        <ele>773.9</ele>
        <time>2022-06-11T06:59:42Z</time>
      </trkpt>
      <trkpt lat="44.0449" lon="7.27902">
        <ele>773.2</ele>
        <time>2022-06-11T06:59:43Z</time>
      </trkpt>
      <trkpt lat="44.0449" lon="7.27894">
        <ele>772.5</ele>
        <time>2022-06-11T06:59:44Z</time>
      </trkpt>
      <trkpt lat="44.04491" lon="7.27885">
        <ele>773.9</ele>
        <time>2022-06-11T06:59:45Z</time>
      </trkpt>
      <trkpt lat="44.04491" lon="7.27877">
        <ele>777.9</ele>
        <time>2022-06-11T06:59:46Z</time>
      </trkpt>
      <trkpt lat="44.04492" lon="7.27869">
        <ele>781.8</ele>
        <time>2022-06-11T06:59:47Z</time>
      </trkpt>
      <trkpt lat="44.04492" lon="7.27861">
        <ele>785.6</ele>
        <time>2022-06-11T06:59:48Z</time>
      </trkpt>
      <trkpt lat="44.04493" lon="7.27854">
        <ele>787.9</ele>
        <time>2022-06-11T06:59:49Z</time>
      </trkpt>
      <trkpt lat="44.04494" lon="7.27846">
        <ele>790.2</ele>
        <time>2022-06-11T06:59:50Z</time>
      </trkpt>
      <trkpt lat="44.04494" lon="7.27838">
        <ele>792.5</ele>
        <time>2022-06-11T06:59:51Z</time>
      </trkpt>
      <trkpt lat="44.04495" lon="7.27832">
        <ele>794.1</ele>
        <time>2022-06-11T06:59:52Z</time>
      </trkpt>
      <trkpt lat="44.04496" lon="7.27824">
        <ele>794.7</ele>
        <time>2022-06-11T06:59:53Z</time>
      </trkpt>
      <trkpt lat="44.04497" lon="7.27818">
        <ele>795.4</ele>
        <time>2022-06-11T06:59:54Z</time>
      </trkpt>
      <trkpt lat="44.04499" lon="7.27812">
        <ele>796.3</ele>
        <time>2022-06-11T06:59:55Z</time>
      </trkpt>
      <trkpt lat="44.04502" lon="7.27806">
        <ele>797.3</ele>
        <time>2022-06-11T06:59:56Z</time>
      </trkpt>
      <trkpt lat="44.04504" lon="7.27801">
        <ele>797.3</ele>
        <time>2022-06-11T06:59:57Z</time>
      </trkpt>
      <trkpt lat="44.04506" lon="7.27796">
        <ele>797.3</ele>
        <time>2022-06-11T06:59:58Z</time>
      </trkpt>
      <trkpt lat="44.04508" lon="7.27792">
        <ele>797.4</ele>
        <time>2022-06-11T06:59:59Z</time>
      </trkpt>
      <trkpt lat="44.0451" lon="7.27788">
        <ele>797.7</ele>
        <time>2022-06-11T07:00:00Z</time>
      </trkpt>
      <trkpt lat="44.04512" lon="7.27784">
        <ele>798</ele>
        <time>2022-06-11T07:00:01Z</time>
      </trkpt>
      <trkpt lat="44.04515" lon="7.27781">
        <ele>798.4</ele>
        <time>2022-06-11T07:00:02Z</time>
      </trkpt>
      <trkpt lat="44.04517" lon="7.27777">
        <ele>798.7</ele>
        <time>2022-06-11T07:00:03Z</time>
      </trkpt>
      <trkpt lat="44.04519" lon="7.27774">
        <ele>798.9</ele>
        <time>2022-06-11T07:00:04Z</time>
      </trkpt>
      <trkpt lat="44.04521" lon="7.27769">
        <ele>798.9</ele>
        <time>2022-06-11T07:00:05Z</time>
      </trkpt>
      <trkpt lat="44.04523" lon="7.27765">
        <ele>799.1</ele>
        <time>2022-06-11T07:00:06Z</time>
      </trkpt>
      <trkpt lat="44.04525" lon="7.27762">
        <ele>799.2</ele>
        <time>2022-06-11T07:00:07Z</time>
      </trkpt>
      <trkpt lat="44.04527" lon="7.27758">
        <ele>799.4</ele>
        <time>2022-06-11T07:00:08Z</time>
      </trkpt>
      <trkpt lat="44.04529" lon="7.27754">
        <ele>799.6</ele>
        <time>2022-06-11T07:00:09Z</time>
      </trkpt>
      <trkpt lat="44.04531" lon="7.2775">
        <ele>799.5</ele>
        <time>2022-06-11T07:00:10Z</time>
      </trkpt>
      <trkpt lat="44.04532" lon="7.27746">
        <ele>799.4</ele>
        <time>2022-06-11T07:00:11Z</time>
      </trkpt>
      <trkpt lat="44.04535" lon="7.27742">
        <ele>799.5</ele>
        <time>2022-06-11T07:00:12Z</time>
      </trkpt>
      <trkpt lat="44.04537" lon="7.27739">
        <ele>799.5</ele>
        <time>2022-06-11T07:00:13Z</time>
      </trkpt>
      <trkpt lat="44.04539" lon="7.27735">
        <ele>799.6</ele>
        <time>2022-06-11T07:00:14Z</time>
      </trkpt>
      <trkpt lat="44.0454" lon="7.27731">
        <ele>799.6</ele>
        <time>2022-06-11T07:00:15Z</time>
      </trkpt>
      <trkpt lat="44.04542" lon="7.27727">
        <ele>799.6</ele>
        <time>2022-06-11T07:00:16Z</time>
      </trkpt>
      <trkpt lat="44.04544" lon="7.27723">
        <ele>799.7</ele>
        <time>2022-06-11T07:00:17Z</time>
      </trkpt>
      <trkpt lat="44.04546" lon="7.27719">
        <ele>799.9</ele>
        <time>2022-06-11T07:00:18Z</time>
      </trkpt>
      <trkpt lat="44.04548" lon="7.27716">
        <ele>800.1</ele>
        <time>2022-06-11T07:00:19Z</time>
      </trkpt>
      <trkpt lat="44.0455" lon="7.27712">
        <ele>800.3</ele>
        <time>2022-06-11T07:00:20Z</time>
      </trkpt>
      <trkpt lat="44.04553" lon="7.27709">
        <ele>800.7</ele>
        <time>2022-06-11T07:00:21Z</time>
      </trkpt>
      <trkpt lat="44.04555" lon="7.27706">
        <ele>801</ele>
        <time>2022-06-11T07:00:22Z</time>
      </trkpt>
      <trkpt lat="44.04557" lon="7.27703">
        <ele>801.1</ele>
        <time>2022-06-11T07:00:23Z</time>
      </trkpt>
      <trkpt lat="44.04559" lon="7.277">
        <ele>801.3</ele>
        <time>2022-06-11T07:00:24Z</time>
      </trkpt>
      <trkpt lat="44.04561" lon="7.27696">
        <ele>801.4</ele>
        <time>2022-06-11T07:00:25Z</time>
      </trkpt>
      <trkpt lat="44.04563" lon="7.27693">
        <ele>801.8</ele>
        <time>2022-06-11T07:00:26Z</time>
      </trkpt>
      <trkpt lat="44.04565" lon="7.2769">
        <ele>802.2</ele>
        <time>2022-06-11T07:00:27Z</time>
      </trkpt>
      <trkpt lat="44.04567" lon="7.27687">
        <ele>802.6</ele>
        <time>2022-06-11T07:00:28Z</time>
      </trkpt>
      <trkpt lat="44.04569" lon="7.27684">
        <ele>803</ele>
        <time>2022-06-11T07:00:29Z</time>
      </trkpt>
      <trkpt lat="44.04571" lon="7.27681">
        <ele>803.3</ele>
        <time>2022-06-11T07:00:30Z</time>
      </trkpt>
      <trkpt lat="44.04573" lon="7.27677">
        <ele>803.7</ele>
        <time>2022-06-11T07:00:31Z</time>
      </trkpt>
      <trkpt lat="44.04575" lon="7.27674">
        <ele>804</ele>
        <time>2022-06-11T07:00:32Z</time>
      </trkpt>
      <trkpt lat="44.04576" lon="7.27671">
        <ele>804.4</ele>
        <time>2022-06-11T07:00:33Z</time>
      </trkpt>
      <trkpt lat="44.04578" lon="7.27668">
        <ele>804.7</ele>
        <time>2022-06-11T07:00:34Z</time>
      </trkpt>
      <trkpt lat="44.0458" lon="7.27665">
        <ele>805.1</ele>
        <time>2022-06-11T07:00:35Z</time>
      </trkpt>
      <trkpt lat="44.04582" lon="7.27662">
        <ele>805.5</ele>
        <time>2022-06-11T07:00:36Z</time>
      </trkpt>
      <trkpt lat="44.04584" lon="7.27659">
        <ele>806</ele>
        <time>2022-06-11T07:00:37Z</time>
      </trkpt>
      <trkpt lat="44.04585" lon="7.27656">
        <ele>806.3</ele>
        <time>2022-06-11T07:00:38Z</time>
      </trkpt>
      <trkpt lat="44.04587" lon="7.27653">
        <ele>806.6</ele>
        <time>2022-06-11T07:00:39Z</time>
      </trkpt>
      <trkpt lat="44.04589" lon="7.27651">
        <ele>806.9</ele>
        <time>2022-06-11T07:00:40Z</time>
      </trkpt>
      <trkpt lat="44.04591" lon="7.27648">
        <ele>807.3</ele>
        <time>2022-06-11T07:00:41Z</time>
      </trkpt>
      <trkpt lat="44.04592" lon="7.27645">
        <ele>807.6</ele>
        <time>2022-06-11T07:00:42Z</time>
      </trkpt>
      <trkpt lat="44.04594" lon="7.27642">
        <ele>807.9</ele>
        <time>2022-06-11T07:00:43Z</time>
      </trkpt>
      <trkpt lat="44.04596" lon="7.27639">
        <ele>808.2</ele>
        <time>2022-06-11T07:00:44Z</time>
      </trkpt>
      <trkpt lat="44.04598" lon="7.27636">
        <ele>808.3</ele>
        <time>2022-06-11T07:00:45Z</time>
      </trkpt>
      <trkpt lat="44.046" lon="7.27633">
        <ele>808.6</ele>
        <time>2022-06-11T07:00:46Z</time>
      </trkpt>
      <trkpt lat="44.04602" lon="7.27631">
        <ele>808.8</ele>
        <time>2022-06-11T07:00:47Z</time>
      </trkpt>
      <trkpt lat="44.04604" lon="7.27628">
        <ele>809</ele>
        <time>2022-06-11T07:00:48Z</time>
      </trkpt>
      <trkpt lat="44.04606" lon="7.27626">
        <ele>809.1</ele>
        <time>2022-06-11T07:00:49Z</time>
      </trkpt>
      <trkpt lat="44.04608" lon="7.27623">
        <ele>809.4</ele>
        <time>2022-06-11T07:00:50Z</time>
      </trkpt>
      <trkpt lat="44.04611" lon="7.27621">
        <ele>809.6</ele>
        <time>2022-06-11T07:00:51Z</time>
      </trkpt>
      <trkpt lat="44.04613" lon="7.27619">
        <ele>809.9</ele>
        <time>2022-06-11T07:00:52Z</time>
      </trkpt>
      <trkpt lat="44.04615" lon="7.27617">
        <ele>810.1</ele>
        <time>2022-06-11T07:00:53Z</time>
      </trkpt>
      <trkpt lat="44.04618" lon="7.27615">
        <ele>810.4</ele>
        <time>2022-06-11T07:00:54Z</time>
      </trkpt>
      <trkpt lat="44.0462" lon="7.27613">
        <ele>810.7</ele>
        <time>2022-06-11T07:00:55Z</time>
      </trkpt>
      <trkpt lat="44.04623" lon="7.27612">
        <ele>811.1</ele>
        <time>2022-06-11T07:00:56Z</time>
      </trkpt>
      <trkpt lat="44.04625" lon="7.2761">
        <ele>811.4</ele>
        <time>2022-06-11T07:00:57Z</time>
      </trkpt>
      <trkpt lat="44.04628" lon="7.27608">
        <ele>811.6</ele>
        <time>2022-06-11T07:00:58Z</time>
      </trkpt>
      <trkpt lat="44.0463" lon="7.27606">
        <ele>811.9</ele>
        <time>2022-06-11T07:00:59Z</time>
      </trkpt>
      <trkpt lat="44.04633" lon="7.27604">
        <ele>812.1</ele>
        <time>2022-06-11T07:01:00Z</time>
      </trkpt>
      <trkpt lat="44.04635" lon="7.27602">
        <ele>812.3</ele>
        <time>2022-06-11T07:01:01Z</time>
      </trkpt>
      <trkpt lat="44.04637" lon="7.276">
        <ele>812.5</ele>
        <time>2022-06-11T07:01:02Z</time>
      </trkpt>
      <trkpt lat="44.0464" lon="7.27598">
        <ele>812.7</ele>
        <time>2022-06-11T07:01:03Z</time>
      </trkpt>
      <trkpt lat="44.04642" lon="7.27596">
        <ele>812.8</ele>
        <time>2022-06-11T07:01:04Z</time>
      </trkpt>
      <trkpt lat="44.04644" lon="7.27595">
        <ele>813</ele>
        <time>2022-06-11T07:01:05Z</time>
      </trkpt>
      <trkpt lat="44.04647" lon="7.27592">
        <ele>813.1</ele>
        <time>2022-06-11T07:01:06Z</time>
      </trkpt>
      <trkpt lat="44.04649" lon="7.2759">
        <ele>813.3</ele>
        <time>2022-06-11T07:01:07Z</time>
      </trkpt>
      <trkpt lat="44.04652" lon="7.27588">
        <ele>813.4</ele>
        <time>2022-06-11T07:01:08Z</time>
      </trkpt>
      <trkpt lat="44.04654" lon="7.27587">
        <ele>813.6</ele>
        <time>2022-06-11T07:01:09Z</time>
      </trkpt>
      <trkpt lat="44.04656" lon="7.27585">
        <ele>813.7</ele>
        <time>2022-06-11T07:01:10Z</time>
      </trkpt>
      <trkpt lat="44.04659" lon="7.27584">
        <ele>813.9</ele>
        <time>2022-06-11T07:01:11Z</time>
      </trkpt>
      <trkpt lat="44.04661" lon="7.27582">
        <ele>814.1</ele>
        <time>2022-06-11T07:01:12Z</time>
      </trkpt>
      <trkpt lat="44.04664" lon="7.2758">
        <ele>814.3</ele>
        <time>2022-06-11T07:01:13Z</time>
      </trkpt>
      <trkpt lat="44.04666" lon="7.27578">
        <ele>814.5</ele>
        <time>2022-06-11T07:01:14Z</time>
      </trkpt>
      <trkpt lat="44.04668" lon="7.27577">
        <ele>814.8</ele>
        <time>2022-06-11T07:01:15Z</time>
      </trkpt>
      <trkpt lat="44.04671" lon="7.27575">
        <ele>815.1</ele>
        <time>2022-06-11T07:01:16Z</time>
      </trkpt>
      <trkpt lat="44.04672" lon="7.27572">
        <ele>815.2</ele>
        <time>2022-06-11T07:01:17Z</time>
      </trkpt>
      <trkpt lat="44.04675" lon="7.2757">
        <ele>815.4</ele>
        <time>2022-06-11T07:01:18Z</time>
      </trkpt>
      <trkpt lat="44.04676" lon="7.27567">
        <ele>815.5</ele>
        <time>2022-06-11T07:01:19Z</time>
      </trkpt>
      <trkpt lat="44.04678" lon="7.27565">
        <ele>815.7</ele>
        <time>2022-06-11T07:01:20Z</time>
      </trkpt>
      <trkpt lat="44.04681" lon="7.27563">
        <ele>815.8</ele>
        <time>2022-06-11T07:01:21Z</time>
      </trkpt>
      <trkpt lat="44.04683" lon="7.27561">
        <ele>815.9</ele>
        <time>2022-06-11T07:01:22Z</time>
      </trkpt>
      <trkpt lat="44.04684" lon="7.27558">
        <ele>815.8</ele>
        <time>2022-06-11T07:01:23Z</time>
      </trkpt>
      <trkpt lat="44.04686" lon="7.27555">
        <ele>815.8</ele>
        <time>2022-06-11T07:01:24Z</time>
      </trkpt>
      <trkpt lat="44.04689" lon="7.27553">
        <ele>815.8</ele>
        <time>2022-06-11T07:01:25Z</time>
      </trkpt>
      <trkpt lat="44.0469" lon="7.2755">
        <ele>815.7</ele>
        <time>2022-06-11T07:01:26Z</time>
      </trkpt>
      <trkpt lat="44.04691" lon="7.27546">
        <ele>815.4</ele>
        <time>2022-06-11T07:01:27Z</time>
      </trkpt>
      <trkpt lat="44.04692" lon="7.27543">
        <ele>815.3</ele>
        <time>2022-06-11T07:01:28Z</time>
      </trkpt>
      <trkpt lat="44.04694" lon="7.2754">
        <ele>815.3</ele>
        <time>2022-06-11T07:01:29Z</time>
      </trkpt>
      <trkpt lat="44.04696" lon="7.27538">
        <ele>815.4</ele>
        <time>2022-06-11T07:01:30Z</time>
      </trkpt>
      <trkpt lat="44.04697" lon="7.27536">
        <ele>815.5</ele>
        <time>2022-06-11T07:01:31Z</time>
      </trkpt>
      <trkpt lat="44.04699" lon="7.27534">
        <ele>815.6</ele>
        <time>2022-06-11T07:01:32Z</time>
      </trkpt>
      <trkpt lat="44.047" lon="7.27531">
        <ele>815.6</ele>
        <time>2022-06-11T07:01:33Z</time>
      </trkpt>
      <trkpt lat="44.04702" lon="7.27529">
        <ele>815.9</ele>
        <time>2022-06-11T07:01:34Z</time>
      </trkpt>
      <trkpt lat="44.04704" lon="7.27528">
        <ele>816.1</ele>
        <time>2022-06-11T07:01:35Z</time>
      </trkpt>
      <trkpt lat="44.04706" lon="7.27525">
        <ele>816.3</ele>
        <time>2022-06-11T07:01:36Z</time>
      </trkpt>
      <trkpt lat="44.04708" lon="7.27523">
        <ele>816.3</ele>
        <time>2022-06-11T07:01:37Z</time>
      </trkpt>
      <trkpt lat="44.04709" lon="7.27521">
        <ele>816.4</ele>
        <time>2022-06-11T07:01:38Z</time>
      </trkpt>
      <trkpt lat="44.0471" lon="7.27517">
        <ele>816.2</ele>
        <time>2022-06-11T07:01:39Z</time>
      </trkpt>
      <trkpt lat="44.04711" lon="7.27514">
        <ele>816.2</ele>
        <time>2022-06-11T07:01:40Z</time>
      </trkpt>
      <trkpt lat="44.04712" lon="7.2751">
        <ele>815.9</ele>
        <time>2022-06-11T07:01:41Z</time>
      </trkpt>
      <trkpt lat="44.04714" lon="7.27505">
        <ele>815.8</ele>
        <time>2022-06-11T07:01:42Z</time>
      </trkpt>
      <trkpt lat="44.04715" lon="7.27501">
        <ele>815.5</ele>
        <time>2022-06-11T07:01:43Z</time>
      </trkpt>
      <trkpt lat="44.04716" lon="7.27496">
        <ele>815.3</ele>
        <time>2022-06-11T07:01:44Z</time>
      </trkpt>
      <trkpt lat="44.04718" lon="7.27493">
        <ele>815.4</ele>
        <time>2022-06-11T07:01:45Z</time>
      </trkpt>
      <trkpt lat="44.04719" lon="7.2749">
        <ele>815.5</ele>
        <time>2022-06-11T07:01:46Z</time>
      </trkpt>
      <trkpt lat="44.04721" lon="7.27487">
        <ele>815.6</ele>
        <time>2022-06-11T07:01:47Z</time>
      </trkpt>
      <trkpt lat="44.04722" lon="7.27483">
        <ele>815.6</ele>
        <time>2022-06-11T07:01:48Z</time>
      </trkpt>
      <trkpt lat="44.04723" lon="7.27479">
        <ele>815.7</ele>
        <time>2022-06-11T07:01:49Z</time>
      </trkpt>
      <trkpt lat="44.04725" lon="7.27476">
        <ele>815.9</ele>
        <time>2022-06-11T07:01:50Z</time>
      </trkpt>
      <trkpt lat="44.04726" lon="7.27472">
        <ele>815.9</ele>
        <time>2022-06-11T07:01:51Z</time>
      </trkpt>
      <trkpt lat="44.04728" lon="7.27468">
        <ele>815.9</ele>
        <time>2022-06-11T07:01:52Z</time>
      </trkpt>
      <trkpt lat="44.04729" lon="7.27465">
        <ele>815.9</ele>
        <time>2022-06-11T07:01:53Z</time>
      </trkpt>
      <trkpt lat="44.04731" lon="7.27462">
        <ele>815.9</ele>
        <time>2022-06-11T07:01:54Z</time>
      </trkpt>
      <trkpt lat="44.04733" lon="7.27459">
        <ele>816.2</ele>
        <time>2022-06-11T07:01:55Z</time>
      </trkpt>
      <trkpt lat="44.04735" lon="7.27457">
        <ele>816.6</ele>
        <time>2022-06-11T07:01:56Z</time>
      </trkpt>
      <trkpt lat="44.04738" lon="7.27455">
        <ele>817.1</ele>
        <time>2022-06-11T07:01:57Z</time>
      </trkpt>
      <trkpt lat="44.0474" lon="7.27453">
        <ele>817.5</ele>
        <time>2022-06-11T07:01:58Z</time>
      </trkpt>
      <trkpt lat="44.04742" lon="7.27451">
        <ele>817.9</ele>
        <time>2022-06-11T07:01:59Z</time>
      </trkpt>
      <trkpt lat="44.04744" lon="7.27449">
        <ele>818.3</ele>
        <time>2022-06-11T07:02:00Z</time>
      </trkpt>
      <trkpt lat="44.04746" lon="7.27448">
        <ele>818.8</ele>
        <time>2022-06-11T07:02:01Z</time>
      </trkpt>
      <trkpt lat="44.04748" lon="7.27446">
        <ele>819.3</ele>
        <time>2022-06-11T07:02:02Z</time>
      </trkpt>
      <trkpt lat="44.0475" lon="7.27443">
        <ele>819.7</ele>
        <time>2022-06-11T07:02:03Z</time>
      </trkpt>
      <trkpt lat="44.04752" lon="7.27441">
        <ele>819.5</ele>
        <time>2022-06-11T07:02:04Z</time>
      </trkpt>
      <trkpt lat="44.04754" lon="7.27439">
        <ele>819.3</ele>
        <time>2022-06-11T07:02:05Z</time>
      </trkpt>
      <trkpt lat="44.04756" lon="7.27437">
        <ele>819.3</ele>
        <time>2022-06-11T07:02:06Z</time>
      </trkpt>
      <trkpt lat="44.04759" lon="7.27435">
        <ele>819.2</ele>
        <time>2022-06-11T07:02:07Z</time>
      </trkpt>
      <trkpt lat="44.04761" lon="7.27433">
        <ele>819.1</ele>
        <time>2022-06-11T07:02:08Z</time>
      </trkpt>
      <trkpt lat="44.04763" lon="7.27431">
        <ele>818.9</ele>
        <time>2022-06-11T07:02:09Z</time>
      </trkpt>
      <trkpt lat="44.04766" lon="7.2743">
        <ele>819</ele>
        <time>2022-06-11T07:02:10Z</time>
      </trkpt>
      <trkpt lat="44.04768" lon="7.27428">
        <ele>819</ele>
        <time>2022-06-11T07:02:11Z</time>
      </trkpt>
      <trkpt lat="44.04771" lon="7.27429">
        <ele>819.4</ele>
        <time>2022-06-11T07:02:12Z</time>
      </trkpt>
      <trkpt lat="44.04774" lon="7.27429">
        <ele>819.7</ele>
        <time>2022-06-11T07:02:13Z</time>
      </trkpt>
      <trkpt lat="44.04776" lon="7.27428">
        <ele>819.9</ele>
        <time>2022-06-11T07:02:14Z</time>
      </trkpt>
      <trkpt lat="44.04778" lon="7.27428">
        <ele>820.1</ele>
        <time>2022-06-11T07:02:15Z</time>
      </trkpt>
      <trkpt lat="44.04781" lon="7.27429">
        <ele>820.1</ele>
        <time>2022-06-11T07:02:16Z</time>
      </trkpt>
      <trkpt lat="44.04783" lon="7.27429">
        <ele>820.2</ele>
        <time>2022-06-11T07:02:17Z</time>
      </trkpt>
      <trkpt lat="44.04786" lon="7.2743">
        <ele>820.4</ele>
        <time>2022-06-11T07:02:18Z</time>
      </trkpt>
      <trkpt lat="44.04788" lon="7.27432">
        <ele>820.7</ele>
        <time>2022-06-11T07:02:19Z</time>
      </trkpt>
      <trkpt lat="44.04791" lon="7.27433">
        <ele>821.1</ele>
        <time>2022-06-11T07:02:20Z</time>
      </trkpt>
      <trkpt lat="44.04793" lon="7.27435">
        <ele>821.5</ele>
        <time>2022-06-11T07:02:21Z</time>
      </trkpt>
      <trkpt lat="44.04795" lon="7.27437">
        <ele>822</ele>
        <time>2022-06-11T07:02:22Z</time>
      </trkpt>
      <trkpt lat="44.04797" lon="7.27439">
        <ele>822.4</ele>
        <time>2022-06-11T07:02:23Z</time>
      </trkpt>
      <trkpt lat="44.048" lon="7.27441">
        <ele>822.9</ele>
        <time>2022-06-11T07:02:24Z</time>
      </trkpt>
      <trkpt lat="44.04802" lon="7.27443">
        <ele>823.5</ele>
        <time>2022-06-11T07:02:25Z</time>
      </trkpt>
      <trkpt lat="44.04804" lon="7.27445">
        <ele>824</ele>
        <time>2022-06-11T07:02:26Z</time>
      </trkpt>
      <trkpt lat="44.04807" lon="7.27446">
        <ele>824.3</ele>
        <time>2022-06-11T07:02:27Z</time>
      </trkpt>
      <trkpt lat="44.04809" lon="7.27448">
        <ele>824.4</ele>
        <time>2022-06-11T07:02:28Z</time>
      </trkpt>
      <trkpt lat="44.04811" lon="7.27449">
        <ele>824.6</ele>
        <time>2022-06-11T07:02:29Z</time>
      </trkpt>
      <trkpt lat="44.04814" lon="7.2745">
        <ele>824.7</ele>
        <time>2022-06-11T07:02:30Z</time>
      </trkpt>
      <trkpt lat="44.04817" lon="7.27451">
        <ele>824.9</ele>
        <time>2022-06-11T07:02:31Z</time>
      </trkpt>
      <trkpt lat="44.04819" lon="7.27452">
        <ele>825.1</ele>
        <time>2022-06-11T07:02:32Z</time>
      </trkpt>
      <trkpt lat="44.04822" lon="7.27453">
        <ele>825.2</ele>
        <time>2022-06-11T07:02:33Z</time>
      </trkpt>
      <trkpt lat="44.04824" lon="7.27453">
        <ele>825.2</ele>
        <time>2022-06-11T07:02:34Z</time>
      </trkpt>
      <trkpt lat="44.04827" lon="7.27454">
        <ele>825.3</ele>
        <time>2022-06-11T07:02:35Z</time>
      </trkpt>
      <trkpt lat="44.0483" lon="7.27454">
        <ele>825.4</ele>
        <time>2022-06-11T07:02:36Z</time>
      </trkpt>
      <trkpt lat="44.04832" lon="7.27455">
        <ele>825.5</ele>
        <time>2022-06-11T07:02:37Z</time>
      </trkpt>
      <trkpt lat="44.04835" lon="7.27455">
        <ele>825.6</ele>
        <time>2022-06-11T07:02:38Z</time>
      </trkpt>
      <trkpt lat="44.04837" lon="7.27456">
        <ele>825.7</ele>
        <time>2022-06-11T07:02:39Z</time>
      </trkpt>
      <trkpt lat="44.0484" lon="7.27457">
        <ele>825.9</ele>
        <time>2022-06-11T07:02:40Z</time>
      </trkpt>
      <trkpt lat="44.04842" lon="7.27458">
        <ele>826.1</ele>
        <time>2022-06-11T07:02:41Z</time>
      </trkpt>
      <trkpt lat="44.04844" lon="7.27459">
        <ele>826.2</ele>
        <time>2022-06-11T07:02:42Z</time>
      </trkpt>
      <trkpt lat="44.04846" lon="7.2746">
        <ele>826.4</ele>
        <time>2022-06-11T07:02:43Z</time>
      </trkpt>
      <trkpt lat="44.04848" lon="7.27462">
        <ele>826.6</ele>
        <time>2022-06-11T07:02:44Z</time>
      </trkpt>
      <trkpt lat="44.0485" lon="7.27464">
        <ele>826.8</ele>
        <time>2022-06-11T07:02:45Z</time>
      </trkpt>
      <trkpt lat="44.04852" lon="7.27466">
        <ele>826.9</ele>
        <time>2022-06-11T07:02:46Z</time>
      </trkpt>
      <trkpt lat="44.04854" lon="7.27469">
        <ele>827</ele>
        <time>2022-06-11T07:02:47Z</time>
      </trkpt>
      <trkpt lat="44.04857" lon="7.27471">
        <ele>827.1</ele>
        <time>2022-06-11T07:02:48Z</time>
      </trkpt>
      <trkpt lat="44.04859" lon="7.27473">
        <ele>827.2</ele>
        <time>2022-06-11T07:02:49Z</time>
      </trkpt>
      <trkpt lat="44.04861" lon="7.27475">
        <ele>827.7</ele>
        <time>2022-06-11T07:02:50Z</time>
      </trkpt>
      <trkpt lat="44.04863" lon="7.27477">
        <ele>828.1</ele>
        <time>2022-06-11T07:02:51Z</time>
      </trkpt>
      <trkpt lat="44.04865" lon="7.27479">
        <ele>828.6</ele>
        <time>2022-06-11T07:02:52Z</time>
      </trkpt>
      <trkpt lat="44.04867" lon="7.27481">
        <ele>829</ele>
        <time>2022-06-11T07:02:53Z</time>
      </trkpt>
      <trkpt lat="44.04869" lon="7.27484">
        <ele>829.5</ele>
        <time>2022-06-11T07:02:54Z</time>
      </trkpt>
      <trkpt lat="44.04871" lon="7.27486">
        <ele>830</ele>
        <time>2022-06-11T07:02:55Z</time>
      </trkpt>
      <trkpt lat="44.04873" lon="7.27488">
        <ele>830.4</ele>
        <time>2022-06-11T07:02:56Z</time>
      </trkpt>
      <trkpt lat="44.04875" lon="7.27491">
        <ele>830.8</ele>
        <time>2022-06-11T07:02:57Z</time>
      </trkpt>
      <trkpt lat="44.04877" lon="7.27493">
        <ele>831.1</ele>
        <time>2022-06-11T07:02:58Z</time>
      </trkpt>
      <trkpt lat="44.04879" lon="7.27495">
        <ele>831.4</ele>
        <time>2022-06-11T07:02:59Z</time>
      </trkpt>
      <trkpt lat="44.04881" lon="7.27497">
        <ele>831.7</ele>
        <time>2022-06-11T07:03:00Z</time>
      </trkpt>
      <trkpt lat="44.04883" lon="7.27499">
        <ele>832</ele>
        <time>2022-06-11T07:03:01Z</time>
      </trkpt>
      <trkpt lat="44.04885" lon="7.27501">
        <ele>832.3</ele>
        <time>2022-06-11T07:03:02Z</time>
      </trkpt>
      <trkpt lat="44.04887" lon="7.27502">
        <ele>832.6</ele>
        <time>2022-06-11T07:03:03Z</time>
      </trkpt>
      <trkpt lat="44.04889" lon="7.27504">
        <ele>833.1</ele>
        <time>2022-06-11T07:03:04Z</time>
      </trkpt>
      <trkpt lat="44.04891" lon="7.27505">
        <ele>833.5</ele>
        <time>2022-06-11T07:03:05Z</time>
      </trkpt>
      <trkpt lat="44.04893" lon="7.27508">
        <ele>834.1</ele>
        <time>2022-06-11T07:03:06Z</time>
      </trkpt>
      <trkpt lat="44.04895" lon="7.27509">
        <ele>834.4</ele>
        <time>2022-06-11T07:03:07Z</time>
      </trkpt>
      <trkpt lat="44.04897" lon="7.2751">
        <ele>834.7</ele>
        <time>2022-06-11T07:03:08Z</time>
      </trkpt>
      <trkpt lat="44.04899" lon="7.27511">
        <ele>834.9</ele>
        <time>2022-06-11T07:03:09Z</time>
      </trkpt>
      <trkpt lat="44.049" lon="7.27512">
        <ele>835.2</ele>
        <time>2022-06-11T07:03:10Z</time>
      </trkpt>
      <trkpt lat="44.04903" lon="7.27514">
        <ele>835.6</ele>
        <time>2022-06-11T07:03:11Z</time>
      </trkpt>
      <trkpt lat="44.04904" lon="7.27514">
        <ele>835.8</ele>
        <time>2022-06-11T07:03:12Z</time>
      </trkpt>
      <trkpt lat="44.04907" lon="7.27515">
        <ele>836</ele>
        <time>2022-06-11T07:03:13Z</time>
      </trkpt>
      <trkpt lat="44.04909" lon="7.27515">
        <ele>836</ele>
        <time>2022-06-11T07:03:14Z</time>
      </trkpt>
      <trkpt lat="44.04912" lon="7.27516">
        <ele>836</ele>
        <time>2022-06-11T07:03:15Z</time>
      </trkpt>
      <trkpt lat="44.04914" lon="7.27516">
        <ele>836</ele>
        <time>2022-06-11T07:03:16Z</time>
      </trkpt>
      <trkpt lat="44.04917" lon="7.27516">
        <ele>836.1</ele>
        <time>2022-06-11T07:03:17Z</time>
      </trkpt>
      <trkpt lat="44.04919" lon="7.27516">
        <ele>835.9</ele>
        <time>2022-06-11T07:03:18Z</time>
      </trkpt>
      <trkpt lat="44.04921" lon="7.27515">
        <ele>835.8</ele>
        <time>2022-06-11T07:03:19Z</time>
      </trkpt>
      <trkpt lat="44.04923" lon="7.27514">
        <ele>835.5</ele>
        <time>2022-06-11T07:03:20Z</time>
      </trkpt>
      <trkpt lat="44.04925" lon="7.27512">
        <ele>835.3</ele>
        <time>2022-06-11T07:03:21Z</time>
      </trkpt>
      <trkpt lat="44.04928" lon="7.2751">
        <ele>835.1</ele>
        <time>2022-06-11T07:03:22Z</time>
      </trkpt>
      <trkpt lat="44.0493" lon="7.27509">
        <ele>835</ele>
        <time>2022-06-11T07:03:23Z</time>
      </trkpt>
      <trkpt lat="44.04932" lon="7.27507">
        <ele>835.1</ele>
        <time>2022-06-11T07:03:24Z</time>
      </trkpt>
      <trkpt lat="44.04934" lon="7.27506">
        <ele>835</ele>
        <time>2022-06-11T07:03:25Z</time>
      </trkpt>
      <trkpt lat="44.04937" lon="7.27503">
        <ele>835.1</ele>
        <time>2022-06-11T07:03:26Z</time>
      </trkpt>
      <trkpt lat="44.04938" lon="7.275">
        <ele>835.1</ele>
        <time>2022-06-11T07:03:27Z</time>
      </trkpt>
      <trkpt lat="44.04939" lon="7.27497">
        <ele>835.4</ele>
        <time>2022-06-11T07:03:28Z</time>
      </trkpt>
      <trkpt lat="44.04939" lon="7.27494">
        <ele>835.8</ele>
        <time>2022-06-11T07:03:29Z</time>
      </trkpt>
      <trkpt lat="44.0494" lon="7.2749">
        <ele>836.2</ele>
        <time>2022-06-11T07:03:30Z</time>
      </trkpt>
      <trkpt lat="44.0494" lon="7.27487">
        <ele>836.5</ele>
        <time>2022-06-11T07:03:31Z</time>
      </trkpt>
      <trkpt lat="44.04939" lon="7.27483">
        <ele>836.7</ele>
        <time>2022-06-11T07:03:32Z</time>
      </trkpt>
      <trkpt lat="44.04939" lon="7.2748">
        <ele>837</ele>
        <time>2022-06-11T07:03:33Z</time>
      </trkpt>
      <trkpt lat="44.04939" lon="7.27477">
        <ele>837.1</ele>
        <time>2022-06-11T07:03:34Z</time>
      </trkpt>
      <trkpt lat="44.04938" lon="7.27474">
        <ele>837.1</ele>
        <time>2022-06-11T07:03:35Z</time>
      </trkpt>
      <trkpt lat="44.04937" lon="7.27472">
        <ele>837.2</ele>
        <time>2022-06-11T07:03:36Z</time>
      </trkpt>
      <trkpt lat="44.04936" lon="7.27469">
        <ele>837.4</ele>
        <time>2022-06-11T07:03:37Z</time>
      </trkpt>
      <trkpt lat="44.04934" lon="7.27465">
        <ele>837.6</ele>
        <time>2022-06-11T07:03:38Z</time>
      </trkpt>
      <trkpt lat="44.04934" lon="7.27462">
        <ele>838</ele>
        <time>2022-06-11T07:03:39Z</time>
      </trkpt>
      <trkpt lat="44.04933" lon="7.27459">
        <ele>838.2</ele>
        <time>2022-06-11T07:03:40Z</time>
      </trkpt>
      <trkpt lat="44.04931" lon="7.27456">
        <ele>838.3</ele>
        <time>2022-06-11T07:03:41Z</time>
      </trkpt>
      <trkpt lat="44.0493" lon="7.27454">
        <ele>838.4</ele>
        <time>2022-06-11T07:03:42Z</time>
      </trkpt>
      <trkpt lat="44.04929" lon="7.27451">
        <ele>838.4</ele>
        <time>2022-06-11T07:03:43Z</time>
      </trkpt>
      <trkpt lat="44.04928" lon="7.27448">
        <ele>838.6</ele>
        <time>2022-06-11T07:03:44Z</time>
      </trkpt>
      <trkpt lat="44.04926" lon="7.27445">
        <ele>838.7</ele>
        <time>2022-06-11T07:03:45Z</time>
      </trkpt>
      <trkpt lat="44.04925" lon="7.27442">
        <ele>838.5</ele>
        <time>2022-06-11T07:03:46Z</time>
      </trkpt>
      <trkpt lat="44.04923" lon="7.27439">
        <ele>838.4</ele>
        <time>2022-06-11T07:03:47Z</time>
      </trkpt>
      <trkpt lat="44.04922" lon="7.27437">
        <ele>838.2</ele>
        <time>2022-06-11T07:03:48Z</time>
      </trkpt>
      <trkpt lat="44.0492" lon="7.27435">
        <ele>837.9</ele>
        <time>2022-06-11T07:03:49Z</time>
      </trkpt>
      <trkpt lat="44.04918" lon="7.27432">
        <ele>837.8</ele>
        <time>2022-06-11T07:03:50Z</time>
      </trkpt>
      <trkpt lat="44.04917" lon="7.27429">
        <ele>837.7</ele>
        <time>2022-06-11T07:03:51Z</time>
      </trkpt>
      <trkpt lat="44.04916" lon="7.27426">
        <ele>837.7</ele>
        <time>2022-06-11T07:03:52Z</time>
      </trkpt>
      <trkpt lat="44.04915" lon="7.27423">
        <ele>837.9</ele>
        <time>2022-06-11T07:03:53Z</time>
      </trkpt>
      <trkpt lat="44.04914" lon="7.2742">
        <ele>838</ele>
        <time>2022-06-11T07:03:54Z</time>
      </trkpt>
      <trkpt lat="44.04913" lon="7.27416">
        <ele>838.1</ele>
        <time>2022-06-11T07:03:55Z</time>
      </trkpt>
      <trkpt lat="44.04913" lon="7.27413">
        <ele>838.2</ele>
        <time>2022-06-11T07:03:56Z</time>
      </trkpt>
      <trkpt lat="44.04913" lon="7.2741">
        <ele>838.3</ele>
        <time>2022-06-11T07:03:57Z</time>
      </trkpt>
      <trkpt lat="44.04913" lon="7.27407">
        <ele>838.6</ele>
        <time>2022-06-11T07:03:58Z</time>
      </trkpt>
      <trkpt lat="44.04913" lon="7.27404">
        <ele>838.8</ele>
        <time>2022-06-11T07:03:59Z</time>
      </trkpt>
      <trkpt lat="44.04913" lon="7.27401">
        <ele>839</ele>
        <time>2022-06-11T07:04:00Z</time>
      </trkpt>
      <trkpt lat="44.04913" lon="7.27398">
        <ele>839.4</ele>
        <time>2022-06-11T07:04:01Z</time>
      </trkpt>
      <trkpt lat="44.04914" lon="7.27395">
        <ele>839.8</ele>
        <time>2022-06-11T07:04:02Z</time>
      </trkpt>
      <trkpt lat="44.04916" lon="7.27393">
        <ele>840.5</ele>
        <time>2022-06-11T07:04:03Z</time>
      </trkpt>
      <trkpt lat="44.04917" lon="7.2739">
        <ele>841</ele>
        <time>2022-06-11T07:04:04Z</time>
      </trkpt>
      <trkpt lat="44.04918" lon="7.27387">
        <ele>841.4</ele>
        <time>2022-06-11T07:04:05Z</time>
      </trkpt>
      <trkpt lat="44.0492" lon="7.27384">
        <ele>841.8</ele>
        <time>2022-06-11T07:04:06Z</time>
      </trkpt>
      <trkpt lat="44.04922" lon="7.27382">
        <ele>842.2</ele>
        <time>2022-06-11T07:04:07Z</time>
      </trkpt>
      <trkpt lat="44.04924" lon="7.27379">
        <ele>842.7</ele>
        <time>2022-06-11T07:04:08Z</time>
      </trkpt>
      <trkpt lat="44.04926" lon="7.27376">
        <ele>843.2</ele>
        <time>2022-06-11T07:04:09Z</time>
      </trkpt>
      <trkpt lat="44.04928" lon="7.27373">
        <ele>843.6</ele>
        <time>2022-06-11T07:04:10Z</time>
      </trkpt>
      <trkpt lat="44.0493" lon="7.2737">
        <ele>844</ele>
        <time>2022-06-11T07:04:11Z</time>
      </trkpt>
      <trkpt lat="44.04932" lon="7.27367">
        <ele>844.4</ele>
        <time>2022-06-11T07:04:12Z</time>
      </trkpt>
      <trkpt lat="44.04934" lon="7.27364">
        <ele>844.7</ele>
        <time>2022-06-11T07:04:13Z</time>
      </trkpt>
      <trkpt lat="44.04935" lon="7.2736">
        <ele>845</ele>
        <time>2022-06-11T07:04:14Z</time>
      </trkpt>
      <trkpt lat="44.04937" lon="7.27357">
        <ele>845.1</ele>
        <time>2022-06-11T07:04:15Z</time>
      </trkpt>
      <trkpt lat="44.0494" lon="7.27355">
        <ele>845.6</ele>
        <time>2022-06-11T07:04:16Z</time>
      </trkpt>
      <trkpt lat="44.04942" lon="7.27354">
        <ele>846</ele>
        <time>2022-06-11T07:04:17Z</time>
      </trkpt>
      <trkpt lat="44.04945" lon="7.27352">
        <ele>846.4</ele>
        <time>2022-06-11T07:04:18Z</time>
      </trkpt>
      <trkpt lat="44.04947" lon="7.2735">
        <ele>846.6</ele>
        <time>2022-06-11T07:04:19Z</time>
      </trkpt>
      <trkpt lat="44.0495" lon="7.27348">
        <ele>846.8</ele>
        <time>2022-06-11T07:04:20Z</time>
      </trkpt>
      <trkpt lat="44.04952" lon="7.27346">
        <ele>846.9</ele>
        <time>2022-06-11T07:04:21Z</time>
      </trkpt>
      <trkpt lat="44.04954" lon="7.27343">
        <ele>846.9</ele>
        <time>2022-06-11T07:04:22Z</time>
      </trkpt>
      <trkpt lat="44.04957" lon="7.27341">
        <ele>847</ele>
        <time>2022-06-11T07:04:23Z</time>
      </trkpt>
      <trkpt lat="44.04959" lon="7.27339">
        <ele>847</ele>
        <time>2022-06-11T07:04:24Z</time>
      </trkpt>
      <trkpt lat="44.04962" lon="7.27337">
        <ele>847.1</ele>
        <time>2022-06-11T07:04:25Z</time>
      </trkpt>
      <trkpt lat="44.04964" lon="7.27335">
        <ele>847.2</ele>
        <time>2022-06-11T07:04:26Z</time>
      </trkpt>
      <trkpt lat="44.04967" lon="7.27333">
        <ele>847.4</ele>
        <time>2022-06-11T07:04:27Z</time>
      </trkpt>
      <trkpt lat="44.04969" lon="7.27332">
        <ele>847.5</ele>
        <time>2022-06-11T07:04:28Z</time>
      </trkpt>
      <trkpt lat="44.04972" lon="7.2733">
        <ele>847.6</ele>
        <time>2022-06-11T07:04:29Z</time>
      </trkpt>
      <trkpt lat="44.04974" lon="7.27328">
        <ele>847.7</ele>
        <time>2022-06-11T07:04:30Z</time>
      </trkpt>
      <trkpt lat="44.04977" lon="7.27326">
        <ele>847.9</ele>
        <time>2022-06-11T07:04:31Z</time>
      </trkpt>
      <trkpt lat="44.04979" lon="7.27324">
        <ele>848</ele>
        <time>2022-06-11T07:04:32Z</time>
      </trkpt>
      <trkpt lat="44.04981" lon="7.27322">
        <ele>848.1</ele>
        <time>2022-06-11T07:04:33Z</time>
      </trkpt>
      <trkpt lat="44.04984" lon="7.27321">
        <ele>848.3</ele>
        <time>2022-06-11T07:04:34Z</time>
      </trkpt>
      <trkpt lat="44.04986" lon="7.27319">
        <ele>848.4</ele>
        <time>2022-06-11T07:04:35Z</time>
      </trkpt>
      <trkpt lat="44.04989" lon="7.27318">
        <ele>848.7</ele>
        <time>2022-06-11T07:04:36Z</time>
      </trkpt>
      <trkpt lat="44.04991" lon="7.27316">
        <ele>848.9</ele>
        <time>2022-06-11T07:04:37Z</time>
      </trkpt>
      <trkpt lat="44.04994" lon="7.27314">
        <ele>849</ele>
        <time>2022-06-11T07:04:38Z</time>
      </trkpt>
      <trkpt lat="44.04996" lon="7.27312">
        <ele>849.1</ele>
        <time>2022-06-11T07:04:39Z</time>
      </trkpt>
      <trkpt lat="44.04999" lon="7.27311">
        <ele>849.3</ele>
        <time>2022-06-11T07:04:40Z</time>
      </trkpt>
      <trkpt lat="44.05001" lon="7.27309">
        <ele>849.5</ele>
        <time>2022-06-11T07:04:41Z</time>
      </trkpt>
      <trkpt lat="44.05004" lon="7.27307">
        <ele>849.6</ele>
        <time>2022-06-11T07:04:42Z</time>
      </trkpt>
      <trkpt lat="44.05006" lon="7.27305">
        <ele>849.8</ele>
        <time>2022-06-11T07:04:43Z</time>
      </trkpt>
      <trkpt lat="44.05009" lon="7.27304">
        <ele>849.9</ele>
        <time>2022-06-11T07:04:44Z</time>
      </trkpt>
      <trkpt lat="44.05011" lon="7.27302">
        <ele>849.9</ele>
        <time>2022-06-11T07:04:45Z</time>
      </trkpt>
      <trkpt lat="44.05013" lon="7.273">
        <ele>849.9</ele>
        <time>2022-06-11T07:04:46Z</time>
      </trkpt>
      <trkpt lat="44.05015" lon="7.27298">
        <ele>850</ele>
        <time>2022-06-11T07:04:47Z</time>
      </trkpt>
      <trkpt lat="44.05018" lon="7.27296">
        <ele>850</ele>
        <time>2022-06-11T07:04:48Z</time>
      </trkpt>
      <trkpt lat="44.0502" lon="7.27295">
        <ele>850.1</ele>
        <time>2022-06-11T07:04:49Z</time>
      </trkpt>
      <trkpt lat="44.05023" lon="7.27293">
        <ele>850.1</ele>
        <time>2022-06-11T07:04:50Z</time>
      </trkpt>
      <trkpt lat="44.05026" lon="7.27292">
        <ele>850.2</ele>
        <time>2022-06-11T07:04:51Z</time>
      </trkpt>
      <trkpt lat="44.05028" lon="7.2729">
        <ele>850.3</ele>
        <time>2022-06-11T07:04:52Z</time>
      </trkpt>
      <trkpt lat="44.05031" lon="7.27288">
        <ele>850.5</ele>
        <time>2022-06-11T07:04:53Z</time>
      </trkpt>
      <trkpt lat="44.05034" lon="7.27287">
        <ele>850.9</ele>
        <time>2022-06-11T07:04:54Z</time>
      </trkpt>
      <trkpt lat="44.05036" lon="7.27285">
        <ele>851.2</ele>
        <time>2022-06-11T07:04:55Z</time>
      </trkpt>
      <trkpt lat="44.05039" lon="7.27283">
        <ele>851.3</ele>
        <time>2022-06-11T07:04:56Z</time>
      </trkpt>
      <trkpt lat="44.05041" lon="7.27281">
        <ele>851.3</ele>
        <time>2022-06-11T07:04:57Z</time>
      </trkpt>
      <trkpt lat="44.05043" lon="7.27279">
        <ele>851.5</ele>
        <time>2022-06-11T07:04:58Z</time>
      </trkpt>
      <trkpt lat="44.05046" lon="7.27276">
        <ele>851.6</ele>
        <time>2022-06-11T07:04:59Z</time>
      </trkpt>
      <trkpt lat="44.05048" lon="7.27274">
        <ele>851.9</ele>
        <time>2022-06-11T07:05:00Z</time>
      </trkpt>
      <trkpt lat="44.05051" lon="7.27272">
        <ele>852.1</ele>
        <time>2022-06-11T07:05:01Z</time>
      </trkpt>
      <trkpt lat="44.05054" lon="7.2727">
        <ele>852.4</ele>
        <time>2022-06-11T07:05:02Z</time>
      </trkpt>
      <trkpt lat="44.05057" lon="7.27268">
        <ele>852.9</ele>
        <time>2022-06-11T07:05:03Z</time>
      </trkpt>
      <trkpt lat="44.05059" lon="7.27266">
        <ele>853.3</ele>
        <time>2022-06-11T07:05:04Z</time>
      </trkpt>
      <trkpt lat="44.05062" lon="7.27264">
        <ele>853.9</ele>
        <time>2022-06-11T07:05:05Z</time>
      </trkpt>
      <trkpt lat="44.05064" lon="7.27261">
        <ele>854.3</ele>
        <time>2022-06-11T07:05:06Z</time>
      </trkpt>
      <trkpt lat="44.05066" lon="7.27258">
        <ele>854.5</ele>
        <time>2022-06-11T07:05:07Z</time>
      </trkpt>
      <trkpt lat="44.05068" lon="7.27254">
        <ele>854.4</ele>
        <time>2022-06-11T07:05:08Z</time>
      </trkpt>
      <trkpt lat="44.05071" lon="7.27252">
        <ele>854.6</ele>
        <time>2022-06-11T07:05:09Z</time>
      </trkpt>
      <trkpt lat="44.05073" lon="7.27249">
        <ele>854.8</ele>
        <time>2022-06-11T07:05:10Z</time>
      </trkpt>
      <trkpt lat="44.05075" lon="7.27246">
        <ele>855</ele>
        <time>2022-06-11T07:05:11Z</time>
      </trkpt>
      <trkpt lat="44.05077" lon="7.27243">
        <ele>855</ele>
        <time>2022-06-11T07:05:12Z</time>
      </trkpt>
      <trkpt lat="44.05079" lon="7.27241">
        <ele>855.2</ele>
        <time>2022-06-11T07:05:13Z</time>
      </trkpt>
      <trkpt lat="44.05081" lon="7.27238">
        <ele>855.2</ele>
        <time>2022-06-11T07:05:14Z</time>
      </trkpt>
      <trkpt lat="44.05083" lon="7.27236">
        <ele>855.3</ele>
        <time>2022-06-11T07:05:15Z</time>
      </trkpt>
      <trkpt lat="44.05085" lon="7.27233">
        <ele>855.5</ele>
        <time>2022-06-11T07:05:16Z</time>
      </trkpt>
      <trkpt lat="44.05087" lon="7.2723">
        <ele>855.7</ele>
        <time>2022-06-11T07:05:17Z</time>
      </trkpt>
      <trkpt lat="44.0509" lon="7.27228">
        <ele>856</ele>
        <time>2022-06-11T07:05:18Z</time>
      </trkpt>
      <trkpt lat="44.05092" lon="7.27225">
        <ele>856.2</ele>
        <time>2022-06-11T07:05:19Z</time>
      </trkpt>
      <trkpt lat="44.05094" lon="7.27223">
        <ele>856.5</ele>
        <time>2022-06-11T07:05:20Z</time>
      </trkpt>
      <trkpt lat="44.05096" lon="7.27221">
        <ele>857.1</ele>
        <time>2022-06-11T07:05:21Z</time>
      </trkpt>
      <trkpt lat="44.05099" lon="7.2722">
        <ele>857.5</ele>
        <time>2022-06-11T07:05:22Z</time>
      </trkpt>
      <trkpt lat="44.05101" lon="7.27217">
        <ele>857.9</ele>
        <time>2022-06-11T07:05:23Z</time>
      </trkpt>
      <trkpt lat="44.05103" lon="7.27215">
        <ele>858.2</ele>
        <time>2022-06-11T07:05:24Z</time>
      </trkpt>
      <trkpt lat="44.05105" lon="7.27213">
        <ele>858.6</ele>
        <time>2022-06-11T07:05:25Z</time>
      </trkpt>
      <trkpt lat="44.05107" lon="7.2721">
        <ele>858.7</ele>
        <time>2022-06-11T07:05:26Z</time>
      </trkpt>
      <trkpt lat="44.05109" lon="7.27207">
        <ele>858.8</ele>
        <time>2022-06-11T07:05:27Z</time>
      </trkpt>
      <trkpt lat="44.05111" lon="7.27204">
        <ele>858.8</ele>
        <time>2022-06-11T07:05:28Z</time>
      </trkpt>
      <trkpt lat="44.05114" lon="7.27202">
        <ele>859.1</ele>
        <time>2022-06-11T07:05:29Z</time>
      </trkpt>
      <trkpt lat="44.05116" lon="7.272">
        <ele>859.5</ele>
        <time>2022-06-11T07:05:30Z</time>
      </trkpt>
      <trkpt lat="44.05118" lon="7.27198">
        <ele>859.9</ele>
        <time>2022-06-11T07:05:31Z</time>
      </trkpt>
      <trkpt lat="44.0512" lon="7.27194">
        <ele>859.8</ele>
        <time>2022-06-11T07:05:32Z</time>
      </trkpt>
      <trkpt lat="44.05121" lon="7.2719">
        <ele>859.6</ele>
        <time>2022-06-11T07:05:33Z</time>
      </trkpt>
      <trkpt lat="44.05122" lon="7.27186">
        <ele>859.3</ele>
        <time>2022-06-11T07:05:34Z</time>
      </trkpt>
      <trkpt lat="44.05124" lon="7.27183">
        <ele>859.2</ele>
        <time>2022-06-11T07:05:35Z</time>
      </trkpt>
      <trkpt lat="44.05125" lon="7.27179">
        <ele>859.1</ele>
        <time>2022-06-11T07:05:36Z</time>
      </trkpt>
      <trkpt lat="44.05127" lon="7.27176">
        <ele>858.9</ele>
        <time>2022-06-11T07:05:37Z</time>
      </trkpt>
      <trkpt lat="44.05128" lon="7.27172">
        <ele>858.6</ele>
        <time>2022-06-11T07:05:38Z</time>
      </trkpt>
      <trkpt lat="44.0513" lon="7.27168">
        <ele>858.3</ele>
        <time>2022-06-11T07:05:39Z</time>
      </trkpt>
      <trkpt lat="44.05131" lon="7.27165">
        <ele>858.1</ele>
        <time>2022-06-11T07:05:40Z</time>
      </trkpt>
      <trkpt lat="44.05133" lon="7.27161">
        <ele>858.1</ele>
        <time>2022-06-11T07:05:41Z</time>
      </trkpt>
      <trkpt lat="44.05135" lon="7.27158">
        <ele>858.2</ele>
        <time>2022-06-11T07:05:42Z</time>
      </trkpt>
      <trkpt lat="44.05136" lon="7.27155">
        <ele>858.1</ele>
        <time>2022-06-11T07:05:43Z</time>
      </trkpt>
      <trkpt lat="44.05138" lon="7.27151">
        <ele>858</ele>
        <time>2022-06-11T07:05:44Z</time>
      </trkpt>
      <trkpt lat="44.05139" lon="7.27148">
        <ele>858</ele>
        <time>2022-06-11T07:05:45Z</time>
      </trkpt>
      <trkpt lat="44.05141" lon="7.27145">
        <ele>858.3</ele>
        <time>2022-06-11T07:05:46Z</time>
      </trkpt>
      <trkpt lat="44.05143" lon="7.27142">
        <ele>858.5</ele>
        <time>2022-06-11T07:05:47Z</time>
      </trkpt>
      <trkpt lat="44.05145" lon="7.27139">
        <ele>858.6</ele>
        <time>2022-06-11T07:05:48Z</time>
      </trkpt>
      <trkpt lat="44.05147" lon="7.27137">
        <ele>859</ele>
        <time>2022-06-11T07:05:49Z</time>
      </trkpt>
      <trkpt lat="44.05149" lon="7.27134">
        <ele>859.4</ele>
        <time>2022-06-11T07:05:50Z</time>
      </trkpt>
      <trkpt lat="44.05151" lon="7.27131">
        <ele>859.6</ele>
        <time>2022-06-11T07:05:51Z</time>
      </trkpt>
      <trkpt lat="44.05152" lon="7.27128">
        <ele>859.8</ele>
        <time>2022-06-11T07:05:52Z</time>
      </trkpt>
      <trkpt lat="44.05154" lon="7.27125">
        <ele>859.9</ele>
        <time>2022-06-11T07:05:53Z</time>
      </trkpt>
      <trkpt lat="44.05155" lon="7.27122">
        <ele>860.1</ele>
        <time>2022-06-11T07:05:54Z</time>
      </trkpt>
      <trkpt lat="44.05157" lon="7.27119">
        <ele>860.2</ele>
        <time>2022-06-11T07:05:55Z</time>
      </trkpt>
      <trkpt lat="44.05159" lon="7.27116">
        <ele>860.4</ele>
        <time>2022-06-11T07:05:56Z</time>
      </trkpt>
      <trkpt lat="44.05161" lon="7.27113">
        <ele>860.6</ele>
        <time>2022-06-11T07:05:57Z</time>
      </trkpt>
      <trkpt lat="44.05162" lon="7.2711">
        <ele>860.8</ele>
        <time>2022-06-11T07:05:58Z</time>
      </trkpt>
      <trkpt lat="44.05165" lon="7.27108">
        <ele>861.1</ele>
        <time>2022-06-11T07:05:59Z</time>
      </trkpt>
      <trkpt lat="44.05167" lon="7.27105">
        <ele>861.3</ele>
        <time>2022-06-11T07:06:00Z</time>
      </trkpt>
      <trkpt lat="44.05169" lon="7.27102">
        <ele>861.6</ele>
        <time>2022-06-11T07:06:01Z</time>
      </trkpt>
      <trkpt lat="44.05171" lon="7.27099">
        <ele>861.9</ele>
        <time>2022-06-11T07:06:02Z</time>
      </trkpt>
      <trkpt lat="44.05173" lon="7.27097">
        <ele>862.2</ele>
        <time>2022-06-11T07:06:03Z</time>
      </trkpt>
      <trkpt lat="44.05175" lon="7.27095">
        <ele>862.5</ele>
        <time>2022-06-11T07:06:04Z</time>
      </trkpt>
      <trkpt lat="44.05177" lon="7.27092">
        <ele>862.6</ele>
        <time>2022-06-11T07:06:05Z</time>
      </trkpt>
      <trkpt lat="44.05179" lon="7.27089">
        <ele>862.8</ele>
        <time>2022-06-11T07:06:06Z</time>
      </trkpt>
      <trkpt lat="44.05181" lon="7.27086">
        <ele>862.9</ele>
        <time>2022-06-11T07:06:07Z</time>
      </trkpt>
      <trkpt lat="44.05184" lon="7.27083">
        <ele>863.1</ele>
        <time>2022-06-11T07:06:08Z</time>
      </trkpt>
      <trkpt lat="44.05186" lon="7.2708">
        <ele>863.4</ele>
        <time>2022-06-11T07:06:09Z</time>
      </trkpt>
      <trkpt lat="44.05189" lon="7.27077">
        <ele>863.6</ele>
        <time>2022-06-11T07:06:10Z</time>
      </trkpt>
      <trkpt lat="44.05191" lon="7.27074">
        <ele>863.9</ele>
        <time>2022-06-11T07:06:11Z</time>
      </trkpt>
      <trkpt lat="44.05194" lon="7.27072">
        <ele>864.2</ele>
        <time>2022-06-11T07:06:12Z</time>
      </trkpt>
      <trkpt lat="44.05196" lon="7.27069">
        <ele>864.5</ele>
        <time>2022-06-11T07:06:13Z</time>
      </trkpt>
      <trkpt lat="44.05199" lon="7.27067">
        <ele>865</ele>
        <time>2022-06-11T07:06:14Z</time>
      </trkpt>
      <trkpt lat="44.05201" lon="7.27064">
        <ele>865.3</ele>
        <time>2022-06-11T07:06:15Z</time>
      </trkpt>
      <trkpt lat="44.05203" lon="7.27062">
        <ele>865.6</ele>
        <time>2022-06-11T07:06:16Z</time>
      </trkpt>
      <trkpt lat="44.05205" lon="7.27059">
        <ele>865.8</ele>
        <time>2022-06-11T07:06:17Z</time>
      </trkpt>
      <trkpt lat="44.05207" lon="7.27057">
        <ele>866.2</ele>
        <time>2022-06-11T07:06:18Z</time>
      </trkpt>
      <trkpt lat="44.05209" lon="7.27054">
        <ele>866.6</ele>
        <time>2022-06-11T07:06:19Z</time>
      </trkpt>
      <trkpt lat="44.05212" lon="7.27052">
        <ele>867</ele>
        <time>2022-06-11T07:06:20Z</time>
      </trkpt>
      <trkpt lat="44.05214" lon="7.27049">
        <ele>867.4</ele>
        <time>2022-06-11T07:06:21Z</time>
      </trkpt>
      <trkpt lat="44.05216" lon="7.27047">
        <ele>867.8</ele>
        <time>2022-06-11T07:06:22Z</time>
      </trkpt>
      <trkpt lat="44.05219" lon="7.27044">
        <ele>868.2</ele>
        <time>2022-06-11T07:06:23Z</time>
      </trkpt>
      <trkpt lat="44.05221" lon="7.27042">
        <ele>868.6</ele>
        <time>2022-06-11T07:06:24Z</time>
      </trkpt>
      <trkpt lat="44.05223" lon="7.27039">
        <ele>869</ele>
        <time>2022-06-11T07:06:25Z</time>
      </trkpt>
      <trkpt lat="44.05226" lon="7.27037">
        <ele>869.6</ele>
        <time>2022-06-11T07:06:26Z</time>
      </trkpt>
      <trkpt lat="44.05228" lon="7.27035">
        <ele>869.9</ele>
        <time>2022-06-11T07:06:27Z</time>
      </trkpt>
      <trkpt lat="44.0523" lon="7.27032">
        <ele>870.3</ele>
        <time>2022-06-11T07:06:28Z</time>
      </trkpt>
      <trkpt lat="44.05231" lon="7.27028">
        <ele>870.3</ele>
        <time>2022-06-11T07:06:29Z</time>
      </trkpt>
      <trkpt lat="44.05233" lon="7.27026">
        <ele>870.5</ele>
        <time>2022-06-11T07:06:30Z</time>
      </trkpt>
      <trkpt lat="44.05234" lon="7.27022">
        <ele>870.6</ele>
        <time>2022-06-11T07:06:31Z</time>
      </trkpt>
      <trkpt lat="44.05236" lon="7.27019">
        <ele>870.5</ele>
        <time>2022-06-11T07:06:32Z</time>
      </trkpt>
      <trkpt lat="44.05237" lon="7.27015">
        <ele>870.6</ele>
        <time>2022-06-11T07:06:33Z</time>
      </trkpt>
      <trkpt lat="44.05239" lon="7.27011">
        <ele>870.7</ele>
        <time>2022-06-11T07:06:34Z</time>
      </trkpt>
      <trkpt lat="44.0524" lon="7.27007">
        <ele>870.5</ele>
        <time>2022-06-11T07:06:35Z</time>
      </trkpt>
      <trkpt lat="44.05242" lon="7.27003">
        <ele>870.4</ele>
        <time>2022-06-11T07:06:36Z</time>
      </trkpt>
      <trkpt lat="44.05243" lon="7.26999">
        <ele>870.4</ele>
        <time>2022-06-11T07:06:37Z</time>
      </trkpt>
      <trkpt lat="44.05245" lon="7.26994">
        <ele>870.5</ele>
        <time>2022-06-11T07:06:38Z</time>
      </trkpt>
      <trkpt lat="44.05247" lon="7.2699">
        <ele>870.9</ele>
        <time>2022-06-11T07:06:39Z</time>
      </trkpt>
      <trkpt lat="44.05249" lon="7.26986">
        <ele>871.1</ele>
        <time>2022-06-11T07:06:40Z</time>
      </trkpt>
      <trkpt lat="44.05251" lon="7.26982">
        <ele>871.3</ele>
        <time>2022-06-11T07:06:41Z</time>
      </trkpt>
      <trkpt lat="44.05252" lon="7.26977">
        <ele>871.3</ele>
        <time>2022-06-11T07:06:42Z</time>
      </trkpt>
      <trkpt lat="44.05254" lon="7.26974">
        <ele>871.7</ele>
        <time>2022-06-11T07:06:43Z</time>
      </trkpt>
      <trkpt lat="44.05256" lon="7.2697">
        <ele>871.9</ele>
        <time>2022-06-11T07:06:44Z</time>
      </trkpt>
      <trkpt lat="44.05258" lon="7.26966">
        <ele>872.2</ele>
        <time>2022-06-11T07:06:45Z</time>
      </trkpt>
      <trkpt lat="44.05259" lon="7.26961">
        <ele>872.1</ele>
        <time>2022-06-11T07:06:46Z</time>
      </trkpt>
      <trkpt lat="44.0526" lon="7.26954">
        <ele>871.7</ele>
        <time>2022-06-11T07:06:47Z</time>
      </trkpt>
      <trkpt lat="44.05262" lon="7.26949">
        <ele>871.8</ele>
        <time>2022-06-11T07:06:48Z</time>
      </trkpt>
      <trkpt lat="44.05264" lon="7.26944">
        <ele>871.9</ele>
        <time>2022-06-11T07:06:49Z</time>
      </trkpt>
      <trkpt lat="44.05265" lon="7.26938">
        <ele>871.6</ele>
        <time>2022-06-11T07:06:50Z</time>
      </trkpt>
      <trkpt lat="44.05266" lon="7.26932">
        <ele>871.4</ele>
        <time>2022-06-11T07:06:51Z</time>
      </trkpt>
      <trkpt lat="44.05267" lon="7.26927">
        <ele>871.2</ele>
        <time>2022-06-11T07:06:52Z</time>
      </trkpt>
      <trkpt lat="44.05268" lon="7.2692">
        <ele>870.8</ele>
        <time>2022-06-11T07:06:53Z</time>
      </trkpt>
      <trkpt lat="44.05269" lon="7.26914">
        <ele>870.5</ele>
        <time>2022-06-11T07:06:54Z</time>
      </trkpt>
      <trkpt lat="44.05269" lon="7.26908">
        <ele>870</ele>
        <time>2022-06-11T07:06:55Z</time>
      </trkpt>
      <trkpt lat="44.0527" lon="7.26901">
        <ele>869.5</ele>
        <time>2022-06-11T07:06:56Z</time>
      </trkpt>
      <trkpt lat="44.0527" lon="7.26895">
        <ele>869.1</ele>
        <time>2022-06-11T07:06:57Z</time>
      </trkpt>
      <trkpt lat="44.05271" lon="7.26888">
        <ele>868.8</ele>
        <time>2022-06-11T07:06:58Z</time>
      </trkpt>
      <trkpt lat="44.05272" lon="7.26883">
        <ele>868.6</ele>
        <time>2022-06-11T07:06:59Z</time>
      </trkpt>
      <trkpt lat="44.05273" lon="7.26877">
        <ele>868.4</ele>
        <time>2022-06-11T07:07:00Z</time>
      </trkpt>
      <trkpt lat="44.05274" lon="7.26871">
        <ele>868.3</ele>
        <time>2022-06-11T07:07:01Z</time>
      </trkpt>
      <trkpt lat="44.05275" lon="7.26865">
        <ele>868.4</ele>
        <time>2022-06-11T07:07:02Z</time>
      </trkpt>
      <trkpt lat="44.05277" lon="7.2686">
        <ele>868.5</ele>
        <time>2022-06-11T07:07:03Z</time>
      </trkpt>
      <trkpt lat="44.05278" lon="7.26854">
        <ele>868.6</ele>
        <time>2022-06-11T07:07:04Z</time>
      </trkpt>
      <trkpt lat="44.0528" lon="7.26849">
        <ele>868.7</ele>
        <time>2022-06-11T07:07:05Z</time>
      </trkpt>
      <trkpt lat="44.05281" lon="7.26844">
        <ele>868.7</ele>
        <time>2022-06-11T07:07:06Z</time>
      </trkpt>
      <trkpt lat="44.05283" lon="7.26839">
        <ele>868.8</ele>
        <time>2022-06-11T07:07:07Z</time>
      </trkpt>
      <trkpt lat="44.05284" lon="7.26834">
        <ele>868.9</ele>
        <time>2022-06-11T07:07:08Z</time>
      </trkpt>
      <trkpt lat="44.05286" lon="7.26829">
        <ele>869.1</ele>
        <time>2022-06-11T07:07:09Z</time>
      </trkpt>
      <trkpt lat="44.05288" lon="7.26824">
        <ele>869.1</ele>
        <time>2022-06-11T07:07:10Z</time>
      </trkpt>
      <trkpt lat="44.05289" lon="7.26819">
        <ele>869.2</ele>
        <time>2022-06-11T07:07:11Z</time>
      </trkpt>
      <trkpt lat="44.05291" lon="7.26814">
        <ele>869.3</ele>
        <time>2022-06-11T07:07:12Z</time>
      </trkpt>
      <trkpt lat="44.05292" lon="7.26808">
        <ele>869.4</ele>
        <time>2022-06-11T07:07:13Z</time>
      </trkpt>
      <trkpt lat="44.05294" lon="7.26804">
        <ele>869.7</ele>
        <time>2022-06-11T07:07:14Z</time>
      </trkpt>
      <trkpt lat="44.05296" lon="7.268">
        <ele>870.1</ele>
        <time>2022-06-11T07:07:15Z</time>
      </trkpt>
      <trkpt lat="44.05297" lon="7.26795">
        <ele>870.3</ele>
        <time>2022-06-11T07:07:16Z</time>
      </trkpt>
      <trkpt lat="44.05298" lon="7.2679">
        <ele>870.3</ele>
        <time>2022-06-11T07:07:17Z</time>
      </trkpt>
      <trkpt lat="44.05299" lon="7.26784">
        <ele>870.5</ele>
        <time>2022-06-11T07:07:18Z</time>
      </trkpt>
      <trkpt lat="44.053" lon="7.2678">
        <ele>870.6</ele>
        <time>2022-06-11T07:07:19Z</time>
      </trkpt>
      <trkpt lat="44.05301" lon="7.26774">
        <ele>870.7</ele>
        <time>2022-06-11T07:07:20Z</time>
      </trkpt>
      <trkpt lat="44.05302" lon="7.26769">
        <ele>870.7</ele>
        <time>2022-06-11T07:07:21Z</time>
      </trkpt>
      <trkpt lat="44.05302" lon="7.26763">
        <ele>870.6</ele>
        <time>2022-06-11T07:07:22Z</time>
      </trkpt>
      <trkpt lat="44.05303" lon="7.26758">
        <ele>870.7</ele>
        <time>2022-06-11T07:07:23Z</time>
      </trkpt>
      <trkpt lat="44.05303" lon="7.26753">
        <ele>870.6</ele>
        <time>2022-06-11T07:07:24Z</time>
      </trkpt>
      <trkpt lat="44.05304" lon="7.26747">
        <ele>870.7</ele>
        <time>2022-06-11T07:07:25Z</time>
      </trkpt>
      <trkpt lat="44.05305" lon="7.26742">
        <ele>870.9</ele>
        <time>2022-06-11T07:07:26Z</time>
      </trkpt>
      <trkpt lat="44.05306" lon="7.26737">
        <ele>871.1</ele>
        <time>2022-06-11T07:07:27Z</time>
      </trkpt>
      <trkpt lat="44.05307" lon="7.26731">
        <ele>871.2</ele>
        <time>2022-06-11T07:07:28Z</time>
      </trkpt>
      <trkpt lat="44.05307" lon="7.26726">
        <ele>871.3</ele>
        <time>2022-06-11T07:07:29Z</time>
      </trkpt>
      <trkpt lat="44.05308" lon="7.26721">
        <ele>871.4</ele>
        <time>2022-06-11T07:07:30Z</time>
      </trkpt>
      <trkpt lat="44.05309" lon="7.26716">
        <ele>871.5</ele>
        <time>2022-06-11T07:07:31Z</time>
      </trkpt>
      <trkpt lat="44.0531" lon="7.26711">
        <ele>871.5</ele>
        <time>2022-06-11T07:07:32Z</time>
      </trkpt>
      <trkpt lat="44.05311" lon="7.26707">
        <ele>871.5</ele>
        <time>2022-06-11T07:07:33Z</time>
      </trkpt>
      <trkpt lat="44.05312" lon="7.26702">
        <ele>871.5</ele>
        <time>2022-06-11T07:07:34Z</time>
      </trkpt>
      <trkpt lat="44.05313" lon="7.26697">
        <ele>871.6</ele>
        <time>2022-06-11T07:07:35Z</time>
      </trkpt>
      <trkpt lat="44.05314" lon="7.26693">
        <ele>871.8</ele>
        <time>2022-06-11T07:07:36Z</time>
      </trkpt>
      <trkpt lat="44.05316" lon="7.26689">
        <ele>871.9</ele>
        <time>2022-06-11T07:07:37Z</time>
      </trkpt>
      <trkpt lat="44.05317" lon="7.26684">
        <ele>872.2</ele>
        <time>2022-06-11T07:07:38Z</time>
      </trkpt>
      <trkpt lat="44.05319" lon="7.2668">
        <ele>872.4</ele>
        <time>2022-06-11T07:07:39Z</time>
      </trkpt>
      <trkpt lat="44.05321" lon="7.26676">
        <ele>872.7</ele>
        <time>2022-06-11T07:07:40Z</time>
      </trkpt>
      <trkpt lat="44.05323" lon="7.26672">
        <ele>872.9</ele>
        <time>2022-06-11T07:07:41Z</time>
      </trkpt>
      <trkpt lat="44.05325" lon="7.26668">
        <ele>873.1</ele>
        <time>2022-06-11T07:07:42Z</time>
      </trkpt>
      <trkpt lat="44.05327" lon="7.26664">
        <ele>873.2</ele>
        <time>2022-06-11T07:07:43Z</time>
      </trkpt>
      <trkpt lat="44.05329" lon="7.2666">
        <ele>873.2</ele>
        <time>2022-06-11T07:07:44Z</time>
      </trkpt>
      <trkpt lat="44.05331" lon="7.26656">
        <ele>873.3</ele>
        <time>2022-06-11T07:07:45Z</time>
      </trkpt>
      <trkpt lat="44.05333" lon="7.26652">
        <ele>873.4</ele>
        <time>2022-06-11T07:07:46Z</time>
      </trkpt>
      <trkpt lat="44.05335" lon="7.26648">
        <ele>873.4</ele>
        <time>2022-06-11T07:07:47Z</time>
      </trkpt>
      <trkpt lat="44.05338" lon="7.26644">
        <ele>873.5</ele>
        <time>2022-06-11T07:07:48Z</time>
      </trkpt>
      <trkpt lat="44.0534" lon="7.26641">
        <ele>873.7</ele>
        <time>2022-06-11T07:07:49Z</time>
      </trkpt>
      <trkpt lat="44.05343" lon="7.26638">
        <ele>873.9</ele>
        <time>2022-06-11T07:07:50Z</time>
      </trkpt>
      <trkpt lat="44.05346" lon="7.26635">
        <ele>874</ele>
        <time>2022-06-11T07:07:51Z</time>
      </trkpt>
      <trkpt lat="44.05349" lon="7.26632">
        <ele>874.2</ele>
        <time>2022-06-11T07:07:52Z</time>
      </trkpt>
      <trkpt lat="44.05352" lon="7.26629">
        <ele>874.4</ele>
        <time>2022-06-11T07:07:53Z</time>
      </trkpt>
      <trkpt lat="44.05354" lon="7.26626">
        <ele>874.4</ele>
        <time>2022-06-11T07:07:54Z</time>
      </trkpt>
      <trkpt lat="44.05357" lon="7.26622">
        <ele>874.6</ele>
        <time>2022-06-11T07:07:55Z</time>
      </trkpt>
      <trkpt lat="44.0536" lon="7.2662">
        <ele>874.8</ele>
        <time>2022-06-11T07:07:56Z</time>
      </trkpt>
      <trkpt lat="44.05363" lon="7.26617">
        <ele>875.1</ele>
        <time>2022-06-11T07:07:57Z</time>
      </trkpt>
      <trkpt lat="44.05365" lon="7.26614">
        <ele>875.5</ele>
        <time>2022-06-11T07:07:58Z</time>
      </trkpt>
      <trkpt lat="44.05368" lon="7.26612">
        <ele>875.8</ele>
        <time>2022-06-11T07:07:59Z</time>
      </trkpt>
      <trkpt lat="44.05371" lon="7.26609">
        <ele>876.1</ele>
        <time>2022-06-11T07:08:00Z</time>
      </trkpt>
      <trkpt lat="44.05374" lon="7.26606">
        <ele>876.4</ele>
        <time>2022-06-11T07:08:01Z</time>
      </trkpt>
      <trkpt lat="44.05377" lon="7.26604">
        <ele>876.7</ele>
        <time>2022-06-11T07:08:02Z</time>
      </trkpt>
      <trkpt lat="44.0538" lon="7.26602">
        <ele>877.1</ele>
        <time>2022-06-11T07:08:03Z</time>
      </trkpt>
      <trkpt lat="44.05383" lon="7.266">
        <ele>877.7</ele>
        <time>2022-06-11T07:08:04Z</time>
      </trkpt>
      <trkpt lat="44.05386" lon="7.26597">
        <ele>878.1</ele>
        <time>2022-06-11T07:08:05Z</time>
      </trkpt>
      <trkpt lat="44.05389" lon="7.26595">
        <ele>878.6</ele>
        <time>2022-06-11T07:08:06Z</time>
      </trkpt>
      <trkpt lat="44.05392" lon="7.26593">
        <ele>879.1</ele>
        <time>2022-06-11T07:08:07Z</time>
      </trkpt>
      <trkpt lat="44.05395" lon="7.26591">
        <ele>879.7</ele>
        <time>2022-06-11T07:08:08Z</time>
      </trkpt>
      <trkpt lat="44.05398" lon="7.26589">
        <ele>880.2</ele>
        <time>2022-06-11T07:08:09Z</time>
      </trkpt>
      <trkpt lat="44.05401" lon="7.26587">
        <ele>880.6</ele>
        <time>2022-06-11T07:08:10Z</time>
      </trkpt>
      <trkpt lat="44.05404" lon="7.26583">
        <ele>880.7</ele>
        <time>2022-06-11T07:08:11Z</time>
      </trkpt>
      <trkpt lat="44.05407" lon="7.2658">
        <ele>880.6</ele>
        <time>2022-06-11T07:08:12Z</time>
      </trkpt>
      <trkpt lat="44.0541" lon="7.26576">
        <ele>880.6</ele>
        <time>2022-06-11T07:08:13Z</time>
      </trkpt>
      <trkpt lat="44.05413" lon="7.26573">
        <ele>880.8</ele>
        <time>2022-06-11T07:08:14Z</time>
      </trkpt>
      <trkpt lat="44.05416" lon="7.26571">
        <ele>881.1</ele>
        <time>2022-06-11T07:08:15Z</time>
      </trkpt>
      <trkpt lat="44.05419" lon="7.26569">
        <ele>881.4</ele>
        <time>2022-06-11T07:08:16Z</time>
      </trkpt>
      <trkpt lat="44.05422" lon="7.26568">
        <ele>881.9</ele>
        <time>2022-06-11T07:08:17Z</time>
      </trkpt>
      <trkpt lat="44.05425" lon="7.26566">
        <ele>882.2</ele>
        <time>2022-06-11T07:08:18Z</time>
      </trkpt>
      <trkpt lat="44.05428" lon="7.26564">
        <ele>882.7</ele>
        <time>2022-06-11T07:08:19Z</time>
      </trkpt>
      <trkpt lat="44.05431" lon="7.26563">
        <ele>883.2</ele>
        <time>2022-06-11T07:08:20Z</time>
      </trkpt>
      <trkpt lat="44.05434" lon="7.26561">
        <ele>883.7</ele>
        <time>2022-06-11T07:08:21Z</time>
      </trkpt>
      <trkpt lat="44.05437" lon="7.26559">
        <ele>884</ele>
        <time>2022-06-11T07:08:22Z</time>
      </trkpt>
      <trkpt lat="44.0544" lon="7.26557">
        <ele>884.3</ele>
        <time>2022-06-11T07:08:23Z</time>
      </trkpt>
      <trkpt lat="44.05443" lon="7.26556">
        <ele>884.7</ele>
        <time>2022-06-11T07:08:24Z</time>
      </trkpt>
      <trkpt lat="44.05446" lon="7.26554">
        <ele>885</ele>
        <time>2022-06-11T07:08:25Z</time>
      </trkpt>
      <trkpt lat="44.05449" lon="7.26553">
        <ele>885.3</ele>
        <time>2022-06-11T07:08:26Z</time>
      </trkpt>
      <trkpt lat="44.05452" lon="7.26552">
        <ele>885.6</ele>
        <time>2022-06-11T07:08:27Z</time>
      </trkpt>
      <trkpt lat="44.05455" lon="7.26551">
        <ele>886</ele>
        <time>2022-06-11T07:08:28Z</time>
      </trkpt>
      <trkpt lat="44.05458" lon="7.26549">
        <ele>886.1</ele>
        <time>2022-06-11T07:08:29Z</time>
      </trkpt>
      <trkpt lat="44.05461" lon="7.26548">
        <ele>886.3</ele>
        <time>2022-06-11T07:08:30Z</time>
      </trkpt>
      <trkpt lat="44.05464" lon="7.26546">
        <ele>886.4</ele>
        <time>2022-06-11T07:08:31Z</time>
      </trkpt>
      <trkpt lat="44.05468" lon="7.26544">
        <ele>886.7</ele>
        <time>2022-06-11T07:08:32Z</time>
      </trkpt>
      <trkpt lat="44.05471" lon="7.26542">
        <ele>886.8</ele>
        <time>2022-06-11T07:08:33Z</time>
      </trkpt>
      <trkpt lat="44.05474" lon="7.26541">
        <ele>886.9</ele>
        <time>2022-06-11T07:08:34Z</time>
      </trkpt>
      <trkpt lat="44.05477" lon="7.26539">
        <ele>886.9</ele>
        <time>2022-06-11T07:08:35Z</time>
      </trkpt>
      <trkpt lat="44.05479" lon="7.26537">
        <ele>886.9</ele>
        <time>2022-06-11T07:08:36Z</time>
      </trkpt>
      <trkpt lat="44.05482" lon="7.26535">
        <ele>886.8</ele>
        <time>2022-06-11T07:08:37Z</time>
      </trkpt>
      <trkpt lat="44.05485" lon="7.26533">
        <ele>886.7</ele>
        <time>2022-06-11T07:08:38Z</time>
      </trkpt>
      <trkpt lat="44.05488" lon="7.2653">
        <ele>886.5</ele>
        <time>2022-06-11T07:08:39Z</time>
      </trkpt>
      <trkpt lat="44.05491" lon="7.26528">
        <ele>886.4</ele>
        <time>2022-06-11T07:08:40Z</time>
      </trkpt>
      <trkpt lat="44.05494" lon="7.26526">
        <ele>886.4</ele>
        <time>2022-06-11T07:08:41Z</time>
      </trkpt>
      <trkpt lat="44.05496" lon="7.26524">
        <ele>886.4</ele>
        <time>2022-06-11T07:08:42Z</time>
      </trkpt>
      <trkpt lat="44.05499" lon="7.26523">
        <ele>886.5</ele>
        <time>2022-06-11T07:08:43Z</time>
      </trkpt>
      <trkpt lat="44.05502" lon="7.26521">
        <ele>886.5</ele>
        <time>2022-06-11T07:08:44Z</time>
      </trkpt>
      <trkpt lat="44.05505" lon="7.26519">
        <ele>886.4</ele>
        <time>2022-06-11T07:08:45Z</time>
      </trkpt>
      <trkpt lat="44.05508" lon="7.26517">
        <ele>886.1</ele>
        <time>2022-06-11T07:08:46Z</time>
      </trkpt>
      <trkpt lat="44.0551" lon="7.26515">
        <ele>886</ele>
        <time>2022-06-11T07:08:47Z</time>
      </trkpt>
      <trkpt lat="44.05513" lon="7.26513">
        <ele>885.9</ele>
        <time>2022-06-11T07:08:48Z</time>
      </trkpt>
      <trkpt lat="44.05516" lon="7.26511">
        <ele>885.7</ele>
        <time>2022-06-11T07:08:49Z</time>
      </trkpt>
      <trkpt lat="44.05519" lon="7.26508">
        <ele>885.6</ele>
        <time>2022-06-11T07:08:50Z</time>
      </trkpt>
      <trkpt lat="44.05521" lon="7.26506">
        <ele>885.5</ele>
        <time>2022-06-11T07:08:51Z</time>
      </trkpt>
      <trkpt lat="44.05524" lon="7.26504">
        <ele>885.4</ele>
        <time>2022-06-11T07:08:52Z</time>
      </trkpt>
      <trkpt lat="44.05527" lon="7.26502">
        <ele>885.3</ele>
        <time>2022-06-11T07:08:53Z</time>
      </trkpt>
      <trkpt lat="44.05529" lon="7.265">
        <ele>885.2</ele>
        <time>2022-06-11T07:08:54Z</time>
      </trkpt>
      <trkpt lat="44.05532" lon="7.26498">
        <ele>885.4</ele>
        <time>2022-06-11T07:08:55Z</time>
      </trkpt>
      <trkpt lat="44.05535" lon="7.26496">
        <ele>885.7</ele>
        <time>2022-06-11T07:08:56Z</time>
      </trkpt>
      <trkpt lat="44.05538" lon="7.26493">
        <ele>885.9</ele>
        <time>2022-06-11T07:08:57Z</time>
      </trkpt>
      <trkpt lat="44.05541" lon="7.26491">
        <ele>886.1</ele>
        <time>2022-06-11T07:08:58Z</time>
      </trkpt>
      <trkpt lat="44.05543" lon="7.26488">
        <ele>886.3</ele>
        <time>2022-06-11T07:08:59Z</time>
      </trkpt>
      <trkpt lat="44.05546" lon="7.26484">
        <ele>886.5</ele>
        <time>2022-06-11T07:09:00Z</time>
      </trkpt>
      <trkpt lat="44.05548" lon="7.26481">
        <ele>886.7</ele>
        <time>2022-06-11T07:09:01Z</time>
      </trkpt>
      <trkpt lat="44.05551" lon="7.26477">
        <ele>887.1</ele>
        <time>2022-06-11T07:09:02Z</time>
      </trkpt>
      <trkpt lat="44.05554" lon="7.26474">
        <ele>887.6</ele>
        <time>2022-06-11T07:09:03Z</time>
      </trkpt>
      <trkpt lat="44.05556" lon="7.26472">
        <ele>888.1</ele>
        <time>2022-06-11T07:09:04Z</time>
      </trkpt>
      <trkpt lat="44.05559" lon="7.26469">
        <ele>888.6</ele>
        <time>2022-06-11T07:09:05Z</time>
      </trkpt>
      <trkpt lat="44.05561" lon="7.26466">
        <ele>889</ele>
        <time>2022-06-11T07:09:06Z</time>
      </trkpt>
      <trkpt lat="44.05564" lon="7.26463">
        <ele>889.5</ele>
        <time>2022-06-11T07:09:07Z</time>
      </trkpt>
      <trkpt lat="44.05566" lon="7.2646">
        <ele>889.8</ele>
        <time>2022-06-11T07:09:08Z</time>
      </trkpt>
      <trkpt lat="44.05569" lon="7.26456">
        <ele>890</ele>
        <time>2022-06-11T07:09:09Z</time>
      </trkpt>
      <trkpt lat="44.05571" lon="7.26453">
        <ele>890.2</ele>
        <time>2022-06-11T07:09:10Z</time>
      </trkpt>
      <trkpt lat="44.05573" lon="7.26449">
        <ele>890.3</ele>
        <time>2022-06-11T07:09:11Z</time>
      </trkpt>
      <trkpt lat="44.05576" lon="7.26446">
        <ele>890.5</ele>
        <time>2022-06-11T07:09:12Z</time>
      </trkpt>
      <trkpt lat="44.05578" lon="7.26442">
        <ele>890.7</ele>
        <time>2022-06-11T07:09:13Z</time>
      </trkpt>
      <trkpt lat="44.05581" lon="7.26439">
        <ele>891.1</ele>
        <time>2022-06-11T07:09:14Z</time>
      </trkpt>
      <trkpt lat="44.05583" lon="7.26436">
        <ele>891.4</ele>
        <time>2022-06-11T07:09:15Z</time>
      </trkpt>
      <trkpt lat="44.05586" lon="7.26433">
        <ele>891.5</ele>
        <time>2022-06-11T07:09:16Z</time>
      </trkpt>
      <trkpt lat="44.05588" lon="7.26429">
        <ele>891.5</ele>
        <time>2022-06-11T07:09:17Z</time>
      </trkpt>
      <trkpt lat="44.05591" lon="7.26425">
        <ele>891.5</ele>
        <time>2022-06-11T07:09:18Z</time>
      </trkpt>
      <trkpt lat="44.05593" lon="7.26422">
        <ele>891.5</ele>
        <time>2022-06-11T07:09:19Z</time>
      </trkpt>
      <trkpt lat="44.05595" lon="7.26418">
        <ele>891.5</ele>
        <time>2022-06-11T07:09:20Z</time>
      </trkpt>
      <trkpt lat="44.05598" lon="7.26415">
        <ele>891.5</ele>
        <time>2022-06-11T07:09:21Z</time>
      </trkpt>
      <trkpt lat="44.05601" lon="7.26412">
        <ele>891.5</ele>
        <time>2022-06-11T07:09:22Z</time>
      </trkpt>
      <trkpt lat="44.05603" lon="7.26409">
        <ele>891.6</ele>
        <time>2022-06-11T07:09:23Z</time>
      </trkpt>
      <trkpt lat="44.05606" lon="7.26406">
        <ele>891.7</ele>
        <time>2022-06-11T07:09:24Z</time>
      </trkpt>
      <trkpt lat="44.05609" lon="7.26403">
        <ele>891.8</ele>
        <time>2022-06-11T07:09:25Z</time>
      </trkpt>
      <trkpt lat="44.05611" lon="7.264">
        <ele>891.8</ele>
        <time>2022-06-11T07:09:26Z</time>
      </trkpt>
      <trkpt lat="44.05614" lon="7.26397">
        <ele>892.1</ele>
        <time>2022-06-11T07:09:27Z</time>
      </trkpt>
      <trkpt lat="44.05616" lon="7.26394">
        <ele>892.4</ele>
        <time>2022-06-11T07:09:28Z</time>
      </trkpt>
      <trkpt lat="44.05619" lon="7.26391">
        <ele>892.6</ele>
        <time>2022-06-11T07:09:29Z</time>
      </trkpt>
      <trkpt lat="44.05622" lon="7.26388">
        <ele>892.8</ele>
        <time>2022-06-11T07:09:30Z</time>
      </trkpt>
      <trkpt lat="44.05624" lon="7.26385">
        <ele>893</ele>
        <time>2022-06-11T07:09:31Z</time>
      </trkpt>
      <trkpt lat="44.05627" lon="7.26382">
        <ele>893.1</ele>
        <time>2022-06-11T07:09:32Z</time>
      </trkpt>
      <trkpt lat="44.05629" lon="7.26379">
        <ele>893.2</ele>
        <time>2022-06-11T07:09:33Z</time>
      </trkpt>
      <trkpt lat="44.05632" lon="7.26376">
        <ele>893.3</ele>
        <time>2022-06-11T07:09:34Z</time>
      </trkpt>
      <trkpt lat="44.05634" lon="7.26373">
        <ele>893.5</ele>
        <time>2022-06-11T07:09:35Z</time>
      </trkpt>
      <trkpt lat="44.05637" lon="7.2637">
        <ele>893.6</ele>
        <time>2022-06-11T07:09:36Z</time>
      </trkpt>
      <trkpt lat="44.05639" lon="7.26367">
        <ele>893.7</ele>
        <time>2022-06-11T07:09:37Z</time>
      </trkpt>
      <trkpt lat="44.05642" lon="7.26364">
        <ele>894</ele>
        <time>2022-06-11T07:09:38Z</time>
      </trkpt>
      <trkpt lat="44.05644" lon="7.26361">
        <ele>894.2</ele>
        <time>2022-06-11T07:09:39Z</time>
      </trkpt>
      <trkpt lat="44.05647" lon="7.26358">
        <ele>894.3</ele>
        <time>2022-06-11T07:09:40Z</time>
      </trkpt>
      <trkpt lat="44.0565" lon="7.26355">
        <ele>894.4</ele>
        <time>2022-06-11T07:09:41Z</time>
      </trkpt>
      <trkpt lat="44.05652" lon="7.26352">
        <ele>894.5</ele>
        <time>2022-06-11T07:09:42Z</time>
      </trkpt>
      <trkpt lat="44.05654" lon="7.26349">
        <ele>894.5</ele>
        <time>2022-06-11T07:09:43Z</time>
      </trkpt>
      <trkpt lat="44.05657" lon="7.26346">
        <ele>894.7</ele>
        <time>2022-06-11T07:09:44Z</time>
      </trkpt>
      <trkpt lat="44.05659" lon="7.26343">
        <ele>894.8</ele>
        <time>2022-06-11T07:09:45Z</time>
      </trkpt>
      <trkpt lat="44.05662" lon="7.2634">
        <ele>894.9</ele>
        <time>2022-06-11T07:09:46Z</time>
      </trkpt>
      <trkpt lat="44.05665" lon="7.26337">
        <ele>895.1</ele>
        <time>2022-06-11T07:09:47Z</time>
      </trkpt>
      <trkpt lat="44.05667" lon="7.26334">
        <ele>895.1</ele>
        <time>2022-06-11T07:09:48Z</time>
      </trkpt>
      <trkpt lat="44.0567" lon="7.26331">
        <ele>895</ele>
        <time>2022-06-11T07:09:49Z</time>
      </trkpt>
      <trkpt lat="44.05672" lon="7.26328">
        <ele>895</ele>
        <time>2022-06-11T07:09:50Z</time>
      </trkpt>
      <trkpt lat="44.05675" lon="7.26324">
        <ele>894.9</ele>
        <time>2022-06-11T07:09:51Z</time>
      </trkpt>
      <trkpt lat="44.05678" lon="7.26321">
        <ele>895</ele>
        <time>2022-06-11T07:09:52Z</time>
      </trkpt>
      <trkpt lat="44.05681" lon="7.26319">
        <ele>895.3</ele>
        <time>2022-06-11T07:09:53Z</time>
      </trkpt>
      <trkpt lat="44.05684" lon="7.26316">
        <ele>895.5</ele>
        <time>2022-06-11T07:09:54Z</time>
      </trkpt>
      <trkpt lat="44.05688" lon="7.26313">
        <ele>895.7</ele>
        <time>2022-06-11T07:09:55Z</time>
      </trkpt>
      <trkpt lat="44.05691" lon="7.26311">
        <ele>896.1</ele>
        <time>2022-06-11T07:09:56Z</time>
      </trkpt>
      <trkpt lat="44.05694" lon="7.26309">
        <ele>896.4</ele>
        <time>2022-06-11T07:09:57Z</time>
      </trkpt>
      <trkpt lat="44.05697" lon="7.26306">
        <ele>896.6</ele>
        <time>2022-06-11T07:09:58Z</time>
      </trkpt>
      <trkpt lat="44.057" lon="7.26304">
        <ele>896.6</ele>
        <time>2022-06-11T07:09:59Z</time>
      </trkpt>
      <trkpt lat="44.05703" lon="7.26302">
        <ele>896.8</ele>
        <time>2022-06-11T07:10:00Z</time>
      </trkpt>
      <trkpt lat="44.05707" lon="7.263">
        <ele>897</ele>
        <time>2022-06-11T07:10:01Z</time>
      </trkpt>
      <trkpt lat="44.0571" lon="7.26297">
        <ele>897.1</ele>
        <time>2022-06-11T07:10:02Z</time>
      </trkpt>
      <trkpt lat="44.05713" lon="7.26295">
        <ele>897.3</ele>
        <time>2022-06-11T07:10:03Z</time>
      </trkpt>
      <trkpt lat="44.05716" lon="7.26293">
        <ele>897.5</ele>
        <time>2022-06-11T07:10:04Z</time>
      </trkpt>
      <trkpt lat="44.05719" lon="7.26291">
        <ele>897.6</ele>
        <time>2022-06-11T07:10:05Z</time>
      </trkpt>
      <trkpt lat="44.05721" lon="7.26288">
        <ele>897.7</ele>
        <time>2022-06-11T07:10:06Z</time>
      </trkpt>
      <trkpt lat="44.05724" lon="7.26287">
        <ele>897.9</ele>
        <time>2022-06-11T07:10:07Z</time>
      </trkpt>
      <trkpt lat="44.05727" lon="7.26285">
        <ele>898.3</ele>
        <time>2022-06-11T07:10:08Z</time>
      </trkpt>
      <trkpt lat="44.0573" lon="7.26284">
        <ele>898.6</ele>
        <time>2022-06-11T07:10:09Z</time>
      </trkpt>
      <trkpt lat="44.05733" lon="7.26283">
        <ele>898.8</ele>
        <time>2022-06-11T07:10:10Z</time>
      </trkpt>
      <trkpt lat="44.05735" lon="7.26282">
        <ele>899.1</ele>
        <time>2022-06-11T07:10:11Z</time>
      </trkpt>
      <trkpt lat="44.05738" lon="7.26281">
        <ele>899.4</ele>
        <time>2022-06-11T07:10:12Z</time>
      </trkpt>
      <trkpt lat="44.0574" lon="7.2628">
        <ele>899.6</ele>
        <time>2022-06-11T07:10:13Z</time>
      </trkpt>
      <trkpt lat="44.05743" lon="7.26279">
        <ele>900</ele>
        <time>2022-06-11T07:10:14Z</time>
      </trkpt>
      <trkpt lat="44.05746" lon="7.26278">
        <ele>900.2</ele>
        <time>2022-06-11T07:10:15Z</time>
      </trkpt>
      <trkpt lat="44.05749" lon="7.26277">
        <ele>900.6</ele>
        <time>2022-06-11T07:10:16Z</time>
      </trkpt>
      <trkpt lat="44.05751" lon="7.26276">
        <ele>900.9</ele>
        <time>2022-06-11T07:10:17Z</time>
      </trkpt>
      <trkpt lat="44.05754" lon="7.26276">
        <ele>901.3</ele>
        <time>2022-06-11T07:10:18Z</time>
      </trkpt>
      <trkpt lat="44.05757" lon="7.26275">
        <ele>901.6</ele>
        <time>2022-06-11T07:10:19Z</time>
      </trkpt>
      <trkpt lat="44.0576" lon="7.26274">
        <ele>902.1</ele>
        <time>2022-06-11T07:10:20Z</time>
      </trkpt>
      <trkpt lat="44.05763" lon="7.26274">
        <ele>902.5</ele>
        <time>2022-06-11T07:10:21Z</time>
      </trkpt>
      <trkpt lat="44.05766" lon="7.26273">
        <ele>902.8</ele>
        <time>2022-06-11T07:10:22Z</time>
      </trkpt>
      <trkpt lat="44.05769" lon="7.26271">
        <ele>903</ele>
        <time>2022-06-11T07:10:23Z</time>
      </trkpt>
      <trkpt lat="44.05772" lon="7.2627">
        <ele>903.3</ele>
        <time>2022-06-11T07:10:24Z</time>
      </trkpt>
      <trkpt lat="44.05775" lon="7.26269">
        <ele>903.7</ele>
        <time>2022-06-11T07:10:25Z</time>
      </trkpt>
      <trkpt lat="44.05778" lon="7.26268">
        <ele>903.8</ele>
        <time>2022-06-11T07:10:26Z</time>
      </trkpt>
      <trkpt lat="44.05782" lon="7.26267">
        <ele>904.3</ele>
        <time>2022-06-11T07:10:27Z</time>
      </trkpt>
      <trkpt lat="44.05785" lon="7.26266">
        <ele>904.9</ele>
        <time>2022-06-11T07:10:28Z</time>
      </trkpt>
      <trkpt lat="44.05789" lon="7.26264">
        <ele>905.3</ele>
        <time>2022-06-11T07:10:29Z</time>
      </trkpt>
      <trkpt lat="44.05792" lon="7.26262">
        <ele>905.4</ele>
        <time>2022-06-11T07:10:30Z</time>
      </trkpt>
      <trkpt lat="44.05794" lon="7.2626">
        <ele>905.2</ele>
        <time>2022-06-11T07:10:31Z</time>
      </trkpt>
      <trkpt lat="44.05797" lon="7.26258">
        <ele>905.2</ele>
        <time>2022-06-11T07:10:32Z</time>
      </trkpt>
      <trkpt lat="44.05801" lon="7.26257">
        <ele>905.5</ele>
        <time>2022-06-11T07:10:33Z</time>
      </trkpt>
      <trkpt lat="44.05804" lon="7.26254">
        <ele>905.1</ele>
        <time>2022-06-11T07:10:34Z</time>
      </trkpt>
      <trkpt lat="44.05807" lon="7.26251">
        <ele>904.7</ele>
        <time>2022-06-11T07:10:35Z</time>
      </trkpt>
      <trkpt lat="44.05811" lon="7.26249">
        <ele>905.1</ele>
        <time>2022-06-11T07:10:36Z</time>
      </trkpt>
      <trkpt lat="44.05815" lon="7.26248">
        <ele>905.7</ele>
        <time>2022-06-11T07:10:37Z</time>
      </trkpt>
      <trkpt lat="44.05818" lon="7.26246">
        <ele>905.7</ele>
        <time>2022-06-11T07:10:38Z</time>
      </trkpt>
      <trkpt lat="44.05821" lon="7.26245">
        <ele>906</ele>
        <time>2022-06-11T07:10:39Z</time>
      </trkpt>
      <trkpt lat="44.05826" lon="7.26243">
        <ele>906.3</ele>
        <time>2022-06-11T07:10:40Z</time>
      </trkpt>
      <trkpt lat="44.05829" lon="7.26239">
        <ele>905.7</ele>
        <time>2022-06-11T07:10:41Z</time>
      </trkpt>
      <trkpt lat="44.05831" lon="7.26236">
        <ele>904.8</ele>
        <time>2022-06-11T07:10:42Z</time>
      </trkpt>
      <trkpt lat="44.05833" lon="7.2623">
        <ele>903.1</ele>
        <time>2022-06-11T07:10:43Z</time>
      </trkpt>
      <trkpt lat="44.05836" lon="7.26227">
        <ele>902.6</ele>
        <time>2022-06-11T07:10:44Z</time>
      </trkpt>
      <trkpt lat="44.05838" lon="7.26223">
        <ele>901.9</ele>
        <time>2022-06-11T07:10:45Z</time>
      </trkpt>
      <trkpt lat="44.05841" lon="7.2622">
        <ele>901.9</ele>
        <time>2022-06-11T07:10:46Z</time>
      </trkpt>
      <trkpt lat="44.05843" lon="7.26216">
        <ele>901.9</ele>
        <time>2022-06-11T07:10:47Z</time>
      </trkpt>
      <trkpt lat="44.05846" lon="7.26213">
        <ele>902</ele>
        <time>2022-06-11T07:10:48Z</time>
      </trkpt>
      <trkpt lat="44.05848" lon="7.2621">
        <ele>902</ele>
        <time>2022-06-11T07:10:49Z</time>
      </trkpt>
      <trkpt lat="44.0585" lon="7.26206">
        <ele>901.9</ele>
        <time>2022-06-11T07:10:50Z</time>
      </trkpt>
      <trkpt lat="44.05853" lon="7.26203">
        <ele>901.9</ele>
        <time>2022-06-11T07:10:51Z</time>
      </trkpt>
      <trkpt lat="44.05855" lon="7.262">
        <ele>901.8</ele>
        <time>2022-06-11T07:10:52Z</time>
      </trkpt>
      <trkpt lat="44.05858" lon="7.26197">
        <ele>901.6</ele>
        <time>2022-06-11T07:10:53Z</time>
      </trkpt>
      <trkpt lat="44.0586" lon="7.26193">
        <ele>901.6</ele>
        <time>2022-06-11T07:10:54Z</time>
      </trkpt>
      <trkpt lat="44.05862" lon="7.2619">
        <ele>901.6</ele>
        <time>2022-06-11T07:10:55Z</time>
      </trkpt>
      <trkpt lat="44.05864" lon="7.26187">
        <ele>901.8</ele>
        <time>2022-06-11T07:10:56Z</time>
      </trkpt>
      <trkpt lat="44.05867" lon="7.26184">
        <ele>902.2</ele>
        <time>2022-06-11T07:10:57Z</time>
      </trkpt>
      <trkpt lat="44.05869" lon="7.26181">
        <ele>902.6</ele>
        <time>2022-06-11T07:10:58Z</time>
      </trkpt>
      <trkpt lat="44.05872" lon="7.26178">
        <ele>902.8</ele>
        <time>2022-06-11T07:10:59Z</time>
      </trkpt>
      <trkpt lat="44.05874" lon="7.26176">
        <ele>903.2</ele>
        <time>2022-06-11T07:11:00Z</time>
      </trkpt>
      <trkpt lat="44.05877" lon="7.26174">
        <ele>903.7</ele>
        <time>2022-06-11T07:11:01Z</time>
      </trkpt>
      <trkpt lat="44.0588" lon="7.26171">
        <ele>904</ele>
        <time>2022-06-11T07:11:02Z</time>
      </trkpt>
      <trkpt lat="44.05882" lon="7.26169">
        <ele>904.4</ele>
        <time>2022-06-11T07:11:03Z</time>
      </trkpt>
      <trkpt lat="44.05885" lon="7.26166">
        <ele>904.8</ele>
        <time>2022-06-11T07:11:04Z</time>
      </trkpt>
      <trkpt lat="44.05888" lon="7.26164">
        <ele>905.1</ele>
        <time>2022-06-11T07:11:05Z</time>
      </trkpt>
      <trkpt lat="44.05891" lon="7.26162">
        <ele>905.7</ele>
        <time>2022-06-11T07:11:06Z</time>
      </trkpt>
      <trkpt lat="44.05894" lon="7.2616">
        <ele>906</ele>
        <time>2022-06-11T07:11:07Z</time>
      </trkpt>
      <trkpt lat="44.05896" lon="7.26157">
        <ele>906.3</ele>
        <time>2022-06-11T07:11:08Z</time>
      </trkpt>
      <trkpt lat="44.05899" lon="7.26154">
        <ele>906.7</ele>
        <time>2022-06-11T07:11:09Z</time>
      </trkpt>
      <trkpt lat="44.05902" lon="7.2615">
        <ele>906.8</ele>
        <time>2022-06-11T07:11:10Z</time>
      </trkpt>
      <trkpt lat="44.05905" lon="7.26146">
        <ele>906.9</ele>
        <time>2022-06-11T07:11:11Z</time>
      </trkpt>
      <trkpt lat="44.05907" lon="7.26143">
        <ele>907</ele>
        <time>2022-06-11T07:11:12Z</time>
      </trkpt>
      <trkpt lat="44.0591" lon="7.2614">
        <ele>907.2</ele>
        <time>2022-06-11T07:11:13Z</time>
      </trkpt>
      <trkpt lat="44.05913" lon="7.26136">
        <ele>907.4</ele>
        <time>2022-06-11T07:11:14Z</time>
      </trkpt>
      <trkpt lat="44.05915" lon="7.26133">
        <ele>907.7</ele>
        <time>2022-06-11T07:11:15Z</time>
      </trkpt>
      <trkpt lat="44.05918" lon="7.2613">
        <ele>908</ele>
        <time>2022-06-11T07:11:16Z</time>
      </trkpt>
      <trkpt lat="44.0592" lon="7.26126">
        <ele>908</ele>
        <time>2022-06-11T07:11:17Z</time>
      </trkpt>
      <trkpt lat="44.05922" lon="7.26123">
        <ele>908.1</ele>
        <time>2022-06-11T07:11:18Z</time>
      </trkpt>
      <trkpt lat="44.05925" lon="7.2612">
        <ele>908.2</ele>
        <time>2022-06-11T07:11:19Z</time>
      </trkpt>
      <trkpt lat="44.05927" lon="7.26116">
        <ele>908.3</ele>
        <time>2022-06-11T07:11:20Z</time>
      </trkpt>
      <trkpt lat="44.05929" lon="7.26112">
        <ele>908.2</ele>
        <time>2022-06-11T07:11:21Z</time>
      </trkpt>
      <trkpt lat="44.05931" lon="7.26108">
        <ele>908.2</ele>
        <time>2022-06-11T07:11:22Z</time>
      </trkpt>
      <trkpt lat="44.05934" lon="7.26105">
        <ele>908.4</ele>
        <time>2022-06-11T07:11:23Z</time>
      </trkpt>
      <trkpt lat="44.05936" lon="7.26102">
        <ele>908.6</ele>
        <time>2022-06-11T07:11:24Z</time>
      </trkpt>
      <trkpt lat="44.05939" lon="7.26098">
        <ele>908.8</ele>
        <time>2022-06-11T07:11:25Z</time>
      </trkpt>
      <trkpt lat="44.05941" lon="7.26095">
        <ele>908.9</ele>
        <time>2022-06-11T07:11:26Z</time>
      </trkpt>
      <trkpt lat="44.05943" lon="7.26092">
        <ele>908.9</ele>
        <time>2022-06-11T07:11:27Z</time>
      </trkpt>
      <trkpt lat="44.05945" lon="7.26088">
        <ele>908.9</ele>
        <time>2022-06-11T07:11:28Z</time>
      </trkpt>
      <trkpt lat="44.05947" lon="7.26084">
        <ele>908.8</ele>
        <time>2022-06-11T07:11:29Z</time>
      </trkpt>
      <trkpt lat="44.05949" lon="7.2608">
        <ele>909.1</ele>
        <time>2022-06-11T07:11:30Z</time>
      </trkpt>
      <trkpt lat="44.05952" lon="7.26077">
        <ele>909.5</ele>
        <time>2022-06-11T07:11:31Z</time>
      </trkpt>
      <trkpt lat="44.05954" lon="7.26074">
        <ele>909.8</ele>
        <time>2022-06-11T07:11:32Z</time>
      </trkpt>
      <trkpt lat="44.05956" lon="7.26071">
        <ele>910</ele>
        <time>2022-06-11T07:11:33Z</time>
      </trkpt>
      <trkpt lat="44.05958" lon="7.26067">
        <ele>910.2</ele>
        <time>2022-06-11T07:11:34Z</time>
      </trkpt>
      <trkpt lat="44.05961" lon="7.26063">
        <ele>910.3</ele>
        <time>2022-06-11T07:11:35Z</time>
      </trkpt>
      <trkpt lat="44.05963" lon="7.2606">
        <ele>910.4</ele>
        <time>2022-06-11T07:11:36Z</time>
      </trkpt>
      <trkpt lat="44.05965" lon="7.26056">
        <ele>910.4</ele>
        <time>2022-06-11T07:11:37Z</time>
      </trkpt>
      <trkpt lat="44.05966" lon="7.26052">
        <ele>910.3</ele>
        <time>2022-06-11T07:11:38Z</time>
      </trkpt>
      <trkpt lat="44.05968" lon="7.26048">
        <ele>910.4</ele>
        <time>2022-06-11T07:11:39Z</time>
      </trkpt>
      <trkpt lat="44.0597" lon="7.26044">
        <ele>910.3</ele>
        <time>2022-06-11T07:11:40Z</time>
      </trkpt>
      <trkpt lat="44.05972" lon="7.2604">
        <ele>910.3</ele>
        <time>2022-06-11T07:11:41Z</time>
      </trkpt>
      <trkpt lat="44.05974" lon="7.26036">
        <ele>910.3</ele>
        <time>2022-06-11T07:11:42Z</time>
      </trkpt>
      <trkpt lat="44.05976" lon="7.26032">
        <ele>910.3</ele>
        <time>2022-06-11T07:11:43Z</time>
      </trkpt>
      <trkpt lat="44.05978" lon="7.26028">
        <ele>910.3</ele>
        <time>2022-06-11T07:11:44Z</time>
      </trkpt>
      <trkpt lat="44.0598" lon="7.26025">
        <ele>910.4</ele>
        <time>2022-06-11T07:11:45Z</time>
      </trkpt>
      <trkpt lat="44.05982" lon="7.2602">
        <ele>910.4</ele>
        <time>2022-06-11T07:11:46Z</time>
      </trkpt>
      <trkpt lat="44.05984" lon="7.26017">
        <ele>910.4</ele>
        <time>2022-06-11T07:11:47Z</time>
      </trkpt>
      <trkpt lat="44.05987" lon="7.26014">
        <ele>910.5</ele>
        <time>2022-06-11T07:11:48Z</time>
      </trkpt>
      <trkpt lat="44.05989" lon="7.2601">
        <ele>910.5</ele>
        <time>2022-06-11T07:11:49Z</time>
      </trkpt>
      <trkpt lat="44.05991" lon="7.26006">
        <ele>910.4</ele>
        <time>2022-06-11T07:11:50Z</time>
      </trkpt>
      <trkpt lat="44.05993" lon="7.26003">
        <ele>910.4</ele>
        <time>2022-06-11T07:11:51Z</time>
      </trkpt>
      <trkpt lat="44.05995" lon="7.26">
        <ele>910.3</ele>
        <time>2022-06-11T07:11:52Z</time>
      </trkpt>
      <trkpt lat="44.05997" lon="7.25997">
        <ele>910.4</ele>
        <time>2022-06-11T07:11:53Z</time>
      </trkpt>
      <trkpt lat="44.06" lon="7.25994">
        <ele>910.5</ele>
        <time>2022-06-11T07:11:54Z</time>
      </trkpt>
      <trkpt lat="44.06002" lon="7.2599">
        <ele>910.4</ele>
        <time>2022-06-11T07:11:55Z</time>
      </trkpt>
      <trkpt lat="44.06004" lon="7.25987">
        <ele>910.3</ele>
        <time>2022-06-11T07:11:56Z</time>
      </trkpt>
      <trkpt lat="44.06006" lon="7.25984">
        <ele>910.2</ele>
        <time>2022-06-11T07:11:57Z</time>
      </trkpt>
      <trkpt lat="44.06009" lon="7.25981">
        <ele>910</ele>
        <time>2022-06-11T07:11:58Z</time>
      </trkpt>
      <trkpt lat="44.06011" lon="7.25978">
        <ele>909.9</ele>
        <time>2022-06-11T07:11:59Z</time>
      </trkpt>
      <trkpt lat="44.06014" lon="7.25975">
        <ele>909.8</ele>
        <time>2022-06-11T07:12:00Z</time>
      </trkpt>
      <trkpt lat="44.06017" lon="7.25973">
        <ele>909.6</ele>
        <time>2022-06-11T07:12:01Z</time>
      </trkpt>
      <trkpt lat="44.06019" lon="7.2597">
        <ele>909.5</ele>
        <time>2022-06-11T07:12:02Z</time>
      </trkpt>
      <trkpt lat="44.06022" lon="7.25968">
        <ele>909.4</ele>
        <time>2022-06-11T07:12:03Z</time>
      </trkpt>
      <trkpt lat="44.06025" lon="7.25966">
        <ele>909.4</ele>
        <time>2022-06-11T07:12:04Z</time>
      </trkpt>
      <trkpt lat="44.06028" lon="7.25964">
        <ele>909.4</ele>
        <time>2022-06-11T07:12:05Z</time>
      </trkpt>
      <trkpt lat="44.06031" lon="7.25961">
        <ele>909.4</ele>
        <time>2022-06-11T07:12:06Z</time>
      </trkpt>
      <trkpt lat="44.06034" lon="7.25959">
        <ele>909.4</ele>
        <time>2022-06-11T07:12:07Z</time>
      </trkpt>
      <trkpt lat="44.06037" lon="7.25957">
        <ele>909.4</ele>
        <time>2022-06-11T07:12:08Z</time>
      </trkpt>
      <trkpt lat="44.0604" lon="7.25955">
        <ele>909.6</ele>
        <time>2022-06-11T07:12:09Z</time>
      </trkpt>
      <trkpt lat="44.06043" lon="7.25953">
        <ele>909.7</ele>
        <time>2022-06-11T07:12:10Z</time>
      </trkpt>
      <trkpt lat="44.06046" lon="7.25951">
        <ele>909.9</ele>
        <time>2022-06-11T07:12:11Z</time>
      </trkpt>
      <trkpt lat="44.06048" lon="7.25949">
        <ele>910.2</ele>
        <time>2022-06-11T07:12:12Z</time>
      </trkpt>
      <trkpt lat="44.06051" lon="7.25947">
        <ele>910.5</ele>
        <time>2022-06-11T07:12:13Z</time>
      </trkpt>
      <trkpt lat="44.06054" lon="7.25945">
        <ele>910.8</ele>
        <time>2022-06-11T07:12:14Z</time>
      </trkpt>
      <trkpt lat="44.06057" lon="7.25943">
        <ele>911.1</ele>
        <time>2022-06-11T07:12:15Z</time>
      </trkpt>
      <trkpt lat="44.0606" lon="7.25942">
        <ele>911.3</ele>
        <time>2022-06-11T07:12:16Z</time>
      </trkpt>
      <trkpt lat="44.06063" lon="7.2594">
        <ele>911.6</ele>
        <time>2022-06-11T07:12:17Z</time>
      </trkpt>
      <trkpt lat="44.06066" lon="7.25938">
        <ele>911.8</ele>
        <time>2022-06-11T07:12:18Z</time>
      </trkpt>
      <trkpt lat="44.06069" lon="7.25936">
        <ele>912.2</ele>
        <time>2022-06-11T07:12:19Z</time>
      </trkpt>
      <trkpt lat="44.06073" lon="7.25934">
        <ele>912.5</ele>
        <time>2022-06-11T07:12:20Z</time>
      </trkpt>
      <trkpt lat="44.06076" lon="7.25932">
        <ele>912.9</ele>
        <time>2022-06-11T07:12:21Z</time>
      </trkpt>
      <trkpt lat="44.06079" lon="7.2593">
        <ele>913.3</ele>
        <time>2022-06-11T07:12:22Z</time>
      </trkpt>
      <trkpt lat="44.06082" lon="7.25928">
        <ele>913.8</ele>
        <time>2022-06-11T07:12:23Z</time>
      </trkpt>
      <trkpt lat="44.06085" lon="7.25926">
        <ele>914.5</ele>
        <time>2022-06-11T07:12:24Z</time>
      </trkpt>
      <trkpt lat="44.06088" lon="7.25924">
        <ele>915.5</ele>
        <time>2022-06-11T07:12:25Z</time>
      </trkpt>
      <trkpt lat="44.06092" lon="7.25921">
        <ele>916.5</ele>
        <time>2022-06-11T07:12:26Z</time>
      </trkpt>
      <trkpt lat="44.06095" lon="7.25919">
        <ele>917.5</ele>
        <time>2022-06-11T07:12:27Z</time>
      </trkpt>
      <trkpt lat="44.06099" lon="7.25916">
        <ele>918.4</ele>
        <time>2022-06-11T07:12:28Z</time>
      </trkpt>
      <trkpt lat="44.06102" lon="7.25914">
        <ele>918.9</ele>
        <time>2022-06-11T07:12:29Z</time>
      </trkpt>
      <trkpt lat="44.06105" lon="7.25911">
        <ele>919.3</ele>
        <time>2022-06-11T07:12:30Z</time>
      </trkpt>
      <trkpt lat="44.06108" lon="7.25907">
        <ele>919.5</ele>
        <time>2022-06-11T07:12:31Z</time>
      </trkpt>
      <trkpt lat="44.06112" lon="7.25903">
        <ele>919.7</ele>
        <time>2022-06-11T07:12:32Z</time>
      </trkpt>
      <trkpt lat="44.06115" lon="7.25899">
        <ele>920</ele>
        <time>2022-06-11T07:12:33Z</time>
      </trkpt>
      <trkpt lat="44.06118" lon="7.25895">
        <ele>920.3</ele>
        <time>2022-06-11T07:12:34Z</time>
      </trkpt>
      <trkpt lat="44.06122" lon="7.25891">
        <ele>920.4</ele>
        <time>2022-06-11T07:12:35Z</time>
      </trkpt>
      <trkpt lat="44.06125" lon="7.25887">
        <ele>920.6</ele>
        <time>2022-06-11T07:12:36Z</time>
      </trkpt>
      <trkpt lat="44.06128" lon="7.25883">
        <ele>920.9</ele>
        <time>2022-06-11T07:12:37Z</time>
      </trkpt>
      <trkpt lat="44.06132" lon="7.2588">
        <ele>921.1</ele>
        <time>2022-06-11T07:12:38Z</time>
      </trkpt>
      <trkpt lat="44.06136" lon="7.25876">
        <ele>921.4</ele>
        <time>2022-06-11T07:12:39Z</time>
      </trkpt>
      <trkpt lat="44.06139" lon="7.25873">
        <ele>921.6</ele>
        <time>2022-06-11T07:12:40Z</time>
      </trkpt>
      <trkpt lat="44.06143" lon="7.2587">
        <ele>921.6</ele>
        <time>2022-06-11T07:12:41Z</time>
      </trkpt>
      <trkpt lat="44.06147" lon="7.25867">
        <ele>921.6</ele>
        <time>2022-06-11T07:12:42Z</time>
      </trkpt>
      <trkpt lat="44.06151" lon="7.25864">
        <ele>921.5</ele>
        <time>2022-06-11T07:12:43Z</time>
      </trkpt>
      <trkpt lat="44.06155" lon="7.25862">
        <ele>921.4</ele>
        <time>2022-06-11T07:12:44Z</time>
      </trkpt>
      <trkpt lat="44.06159" lon="7.25859">
        <ele>921.4</ele>
        <time>2022-06-11T07:12:45Z</time>
      </trkpt>
      <trkpt lat="44.06163" lon="7.25856">
        <ele>921.1</ele>
        <time>2022-06-11T07:12:46Z</time>
      </trkpt>
      <trkpt lat="44.06167" lon="7.25853">
        <ele>920.9</ele>
        <time>2022-06-11T07:12:47Z</time>
      </trkpt>
      <trkpt lat="44.06171" lon="7.25851">
        <ele>921.1</ele>
        <time>2022-06-11T07:12:48Z</time>
      </trkpt>
      <trkpt lat="44.06175" lon="7.25847">
        <ele>920.8</ele>
        <time>2022-06-11T07:12:49Z</time>
      </trkpt>
      <trkpt lat="44.06179" lon="7.25844">
        <ele>920.5</ele>
        <time>2022-06-11T07:12:50Z</time>
      </trkpt>
      <trkpt lat="44.06182" lon="7.25841">
        <ele>920.3</ele>
        <time>2022-06-11T07:12:51Z</time>
      </trkpt>
      <trkpt lat="44.06186" lon="7.25838">
        <ele>920.2</ele>
        <time>2022-06-11T07:12:52Z</time>
      </trkpt>
      <trkpt lat="44.06189" lon="7.25833">
        <ele>919.1</ele>
        <time>2022-06-11T07:12:53Z</time>
      </trkpt>
      <trkpt lat="44.06192" lon="7.2583">
        <ele>918.9</ele>
        <time>2022-06-11T07:12:54Z</time>
      </trkpt>
      <trkpt lat="44.06196" lon="7.25825">
        <ele>918.4</ele>
        <time>2022-06-11T07:12:55Z</time>
      </trkpt>
      <trkpt lat="44.06198" lon="7.25821">
        <ele>917.8</ele>
        <time>2022-06-11T07:12:56Z</time>
      </trkpt>
      <trkpt lat="44.06201" lon="7.25816">
        <ele>917.3</ele>
        <time>2022-06-11T07:12:57Z</time>
      </trkpt>
      <trkpt lat="44.06203" lon="7.25811">
        <ele>916.5</ele>
        <time>2022-06-11T07:12:58Z</time>
      </trkpt>
      <trkpt lat="44.06206" lon="7.25807">
        <ele>916.1</ele>
        <time>2022-06-11T07:12:59Z</time>
      </trkpt>
      <trkpt lat="44.06208" lon="7.25802">
        <ele>915</ele>
        <time>2022-06-11T07:13:00Z</time>
      </trkpt>
      <trkpt lat="44.06211" lon="7.25797">
        <ele>914.1</ele>
        <time>2022-06-11T07:13:01Z</time>
      </trkpt>
      <trkpt lat="44.06214" lon="7.25794">
        <ele>913.8</ele>
        <time>2022-06-11T07:13:02Z</time>
      </trkpt>
      <trkpt lat="44.06217" lon="7.25791">
        <ele>913.5</ele>
        <time>2022-06-11T07:13:03Z</time>
      </trkpt>
      <trkpt lat="44.0622" lon="7.25789">
        <ele>913.3</ele>
        <time>2022-06-11T07:13:04Z</time>
      </trkpt>
      <trkpt lat="44.06223" lon="7.25787">
        <ele>913.3</ele>
        <time>2022-06-11T07:13:05Z</time>
      </trkpt>
      <trkpt lat="44.06227" lon="7.25785">
        <ele>913.2</ele>
        <time>2022-06-11T07:13:06Z</time>
      </trkpt>
      <trkpt lat="44.06231" lon="7.25783">
        <ele>913.3</ele>
        <time>2022-06-11T07:13:07Z</time>
      </trkpt>
      <trkpt lat="44.06234" lon="7.25782">
        <ele>913.3</ele>
        <time>2022-06-11T07:13:08Z</time>
      </trkpt>
      <trkpt lat="44.06238" lon="7.25781">
        <ele>913.4</ele>
        <time>2022-06-11T07:13:09Z</time>
      </trkpt>
      <trkpt lat="44.06241" lon="7.25779">
        <ele>913.5</ele>
        <time>2022-06-11T07:13:10Z</time>
      </trkpt>
      <trkpt lat="44.06245" lon="7.25778">
        <ele>913.6</ele>
        <time>2022-06-11T07:13:11Z</time>
      </trkpt>
      <trkpt lat="44.06249" lon="7.25778">
        <ele>913.9</ele>
        <time>2022-06-11T07:13:12Z</time>
      </trkpt>
      <trkpt lat="44.06252" lon="7.25778">
        <ele>914.2</ele>
        <time>2022-06-11T07:13:13Z</time>
      </trkpt>
      <trkpt lat="44.06256" lon="7.25778">
        <ele>914.4</ele>
        <time>2022-06-11T07:13:14Z</time>
      </trkpt>
      <trkpt lat="44.06258" lon="7.25777">
        <ele>914.3</ele>
        <time>2022-06-11T07:13:15Z</time>
      </trkpt>
      <trkpt lat="44.0626" lon="7.25776">
        <ele>914.1</ele>
        <time>2022-06-11T07:13:16Z</time>
      </trkpt>
      <trkpt lat="44.06264" lon="7.25775">
        <ele>914.1</ele>
        <time>2022-06-11T07:13:17Z</time>
      </trkpt>
      <trkpt lat="44.06267" lon="7.25775">
        <ele>914.3</ele>
        <time>2022-06-11T07:13:18Z</time>
      </trkpt>
      <trkpt lat="44.06271" lon="7.25774">
        <ele>914.3</ele>
        <time>2022-06-11T07:13:19Z</time>
      </trkpt>
      <trkpt lat="44.06274" lon="7.25774">
        <ele>914.4</ele>
        <time>2022-06-11T07:13:20Z</time>
      </trkpt>
      <trkpt lat="44.06278" lon="7.25774">
        <ele>914.6</ele>
        <time>2022-06-11T07:13:21Z</time>
      </trkpt>
      <trkpt lat="44.06282" lon="7.25773">
        <ele>914.8</ele>
        <time>2022-06-11T07:13:22Z</time>
      </trkpt>
      <trkpt lat="44.06286" lon="7.25774">
        <ele>915.2</ele>
        <time>2022-06-11T07:13:23Z</time>
      </trkpt>
      <trkpt lat="44.0629" lon="7.25774">
        <ele>915.4</ele>
        <time>2022-06-11T07:13:24Z</time>
      </trkpt>
      <trkpt lat="44.06293" lon="7.25774">
        <ele>915.7</ele>
        <time>2022-06-11T07:13:25Z</time>
      </trkpt>
      <trkpt lat="44.06296" lon="7.25774">
        <ele>916</ele>
        <time>2022-06-11T07:13:26Z</time>
      </trkpt>
      <trkpt lat="44.06299" lon="7.25774">
        <ele>916.3</ele>
        <time>2022-06-11T07:13:27Z</time>
      </trkpt>
      <trkpt lat="44.06303" lon="7.25775">
        <ele>916.6</ele>
        <time>2022-06-11T07:13:28Z</time>
      </trkpt>
      <trkpt lat="44.06307" lon="7.25775">
        <ele>917</ele>
        <time>2022-06-11T07:13:29Z</time>
      </trkpt>
      <trkpt lat="44.0631" lon="7.25775">
        <ele>917.2</ele>
        <time>2022-06-11T07:13:30Z</time>
      </trkpt>
      <trkpt lat="44.06314" lon="7.25775">
        <ele>917.2</ele>
        <time>2022-06-11T07:13:31Z</time>
      </trkpt>
      <trkpt lat="44.06317" lon="7.25774">
        <ele>917.1</ele>
        <time>2022-06-11T07:13:32Z</time>
      </trkpt>
      <trkpt lat="44.06322" lon="7.25773">
        <ele>917.1</ele>
        <time>2022-06-11T07:13:33Z</time>
      </trkpt>
      <trkpt lat="44.06325" lon="7.25773">
        <ele>917</ele>
        <time>2022-06-11T07:13:34Z</time>
      </trkpt>
      <trkpt lat="44.06329" lon="7.25773">
        <ele>917.2</ele>
        <time>2022-06-11T07:13:35Z</time>
      </trkpt>
      <trkpt lat="44.06332" lon="7.25772">
        <ele>916.9</ele>
        <time>2022-06-11T07:13:36Z</time>
      </trkpt>
      <trkpt lat="44.06336" lon="7.25772">
        <ele>917.1</ele>
        <time>2022-06-11T07:13:37Z</time>
      </trkpt>
      <trkpt lat="44.06339" lon="7.25772">
        <ele>917.4</ele>
        <time>2022-06-11T07:13:38Z</time>
      </trkpt>
      <trkpt lat="44.06342" lon="7.25773">
        <ele>917.7</ele>
        <time>2022-06-11T07:13:39Z</time>
      </trkpt>
      <trkpt lat="44.06346" lon="7.25773">
        <ele>917.9</ele>
        <time>2022-06-11T07:13:40Z</time>
      </trkpt>
      <trkpt lat="44.06349" lon="7.25772">
        <ele>917.9</ele>
        <time>2022-06-11T07:13:41Z</time>
      </trkpt>
      <trkpt lat="44.06353" lon="7.25772">
        <ele>918.1</ele>
        <time>2022-06-11T07:13:42Z</time>
      </trkpt>
      <trkpt lat="44.06357" lon="7.25772">
        <ele>918.2</ele>
        <time>2022-06-11T07:13:43Z</time>
      </trkpt>
      <trkpt lat="44.06361" lon="7.25771">
        <ele>918.1</ele>
        <time>2022-06-11T07:13:44Z</time>
      </trkpt>
      <trkpt lat="44.06364" lon="7.25771">
        <ele>918.1</ele>
        <time>2022-06-11T07:13:45Z</time>
      </trkpt>
      <trkpt lat="44.06368" lon="7.25771">
        <ele>918.5</ele>
        <time>2022-06-11T07:13:46Z</time>
      </trkpt>
      <trkpt lat="44.06373" lon="7.25771">
        <ele>918.7</ele>
        <time>2022-06-11T07:13:47Z</time>
      </trkpt>
      <trkpt lat="44.06378" lon="7.25771">
        <ele>919.2</ele>
        <time>2022-06-11T07:13:48Z</time>
      </trkpt>
      <trkpt lat="44.06384" lon="7.25772">
        <ele>919.8</ele>
        <time>2022-06-11T07:13:49Z</time>
      </trkpt>
      <trkpt lat="44.06389" lon="7.25771">
        <ele>920.2</ele>
        <time>2022-06-11T07:13:50Z</time>
      </trkpt>
      <trkpt lat="44.06394" lon="7.2577">
        <ele>920.3</ele>
        <time>2022-06-11T07:13:51Z</time>
      </trkpt>
      <trkpt lat="44.06398" lon="7.25769">
        <ele>920.5</ele>
        <time>2022-06-11T07:13:52Z</time>
      </trkpt>
      <trkpt lat="44.06403" lon="7.25766">
        <ele>920.4</ele>
        <time>2022-06-11T07:13:53Z</time>
      </trkpt>
      <trkpt lat="44.06408" lon="7.25764">
        <ele>920.3</ele>
        <time>2022-06-11T07:13:54Z</time>
      </trkpt>
      <trkpt lat="44.06413" lon="7.25761">
        <ele>920.3</ele>
        <time>2022-06-11T07:13:55Z</time>
      </trkpt>
      <trkpt lat="44.06417" lon="7.25759">
        <ele>920.3</ele>
        <time>2022-06-11T07:13:56Z</time>
      </trkpt>
      <trkpt lat="44.06421" lon="7.25757">
        <ele>920.3</ele>
        <time>2022-06-11T07:13:57Z</time>
      </trkpt>
      <trkpt lat="44.06425" lon="7.25755">
        <ele>920.3</ele>
        <time>2022-06-11T07:13:58Z</time>
      </trkpt>
      <trkpt lat="44.06428" lon="7.25753">
        <ele>920.4</ele>
        <time>2022-06-11T07:13:59Z</time>
      </trkpt>
      <trkpt lat="44.06431" lon="7.25752">
        <ele>920.5</ele>
        <time>2022-06-11T07:14:00Z</time>
      </trkpt>
      <trkpt lat="44.06434" lon="7.25751">
        <ele>920.6</ele>
        <time>2022-06-11T07:14:01Z</time>
      </trkpt>
      <trkpt lat="44.06437" lon="7.2575">
        <ele>920.8</ele>
        <time>2022-06-11T07:14:02Z</time>
      </trkpt>
      <trkpt lat="44.06439" lon="7.25748">
        <ele>920.8</ele>
        <time>2022-06-11T07:14:03Z</time>
      </trkpt>
      <trkpt lat="44.06442" lon="7.25747">
        <ele>920.9</ele>
        <time>2022-06-11T07:14:04Z</time>
      </trkpt>
      <trkpt lat="44.06445" lon="7.25746">
        <ele>921.1</ele>
        <time>2022-06-11T07:14:05Z</time>
      </trkpt>
      <trkpt lat="44.06448" lon="7.25745">
        <ele>921.3</ele>
        <time>2022-06-11T07:14:06Z</time>
      </trkpt>
      <trkpt lat="44.06451" lon="7.25744">
        <ele>921.7</ele>
        <time>2022-06-11T07:14:07Z</time>
      </trkpt>
      <trkpt lat="44.06454" lon="7.25744">
        <ele>922</ele>
        <time>2022-06-11T07:14:08Z</time>
      </trkpt>
      <trkpt lat="44.06458" lon="7.25742">
        <ele>922.2</ele>
        <time>2022-06-11T07:14:09Z</time>
      </trkpt>
      <trkpt lat="44.06461" lon="7.25741">
        <ele>922.5</ele>
        <time>2022-06-11T07:14:10Z</time>
      </trkpt>
      <trkpt lat="44.06465" lon="7.2574">
        <ele>922.7</ele>
        <time>2022-06-11T07:14:11Z</time>
      </trkpt>
      <trkpt lat="44.06469" lon="7.25739">
        <ele>923</ele>
        <time>2022-06-11T07:14:12Z</time>
      </trkpt>
      <trkpt lat="44.06472" lon="7.25737">
        <ele>923.2</ele>
        <time>2022-06-11T07:14:13Z</time>
      </trkpt>
      <trkpt lat="44.06475" lon="7.25735">
        <ele>923.1</ele>
        <time>2022-06-11T07:14:14Z</time>
      </trkpt>
      <trkpt lat="44.06478" lon="7.25732">
        <ele>923</ele>
        <time>2022-06-11T07:14:15Z</time>
      </trkpt>
      <trkpt lat="44.06481" lon="7.2573">
        <ele>922.9</ele>
        <time>2022-06-11T07:14:16Z</time>
      </trkpt>
      <trkpt lat="44.06484" lon="7.25729">
        <ele>923.1</ele>
        <time>2022-06-11T07:14:17Z</time>
      </trkpt>
      <trkpt lat="44.06487" lon="7.25728">
        <ele>923.5</ele>
        <time>2022-06-11T07:14:18Z</time>
      </trkpt>
      <trkpt lat="44.06491" lon="7.25728">
        <ele>924</ele>
        <time>2022-06-11T07:14:19Z</time>
      </trkpt>
      <trkpt lat="44.06494" lon="7.25727">
        <ele>924.4</ele>
        <time>2022-06-11T07:14:20Z</time>
      </trkpt>
      <trkpt lat="44.06498" lon="7.25726">
        <ele>924.7</ele>
        <time>2022-06-11T07:14:21Z</time>
      </trkpt>
      <trkpt lat="44.06502" lon="7.25726">
        <ele>925.2</ele>
        <time>2022-06-11T07:14:22Z</time>
      </trkpt>
      <trkpt lat="44.06506" lon="7.25725">
        <ele>925.6</ele>
        <time>2022-06-11T07:14:23Z</time>
      </trkpt>
      <trkpt lat="44.06511" lon="7.25725">
        <ele>926.1</ele>
        <time>2022-06-11T07:14:24Z</time>
      </trkpt>
      <trkpt lat="44.06515" lon="7.25723">
        <ele>926.5</ele>
        <time>2022-06-11T07:14:25Z</time>
      </trkpt>
      <trkpt lat="44.0652" lon="7.25723">
        <ele>927</ele>
        <time>2022-06-11T07:14:26Z</time>
      </trkpt>
      <trkpt lat="44.06525" lon="7.25722">
        <ele>927.6</ele>
        <time>2022-06-11T07:14:27Z</time>
      </trkpt>
      <trkpt lat="44.0653" lon="7.25722">
        <ele>928</ele>
        <time>2022-06-11T07:14:28Z</time>
      </trkpt>
      <trkpt lat="44.06535" lon="7.25722">
        <ele>928.2</ele>
        <time>2022-06-11T07:14:29Z</time>
      </trkpt>
      <trkpt lat="44.06539" lon="7.25723">
        <ele>928.5</ele>
        <time>2022-06-11T07:14:30Z</time>
      </trkpt>
      <trkpt lat="44.06544" lon="7.25723">
        <ele>928.7</ele>
        <time>2022-06-11T07:14:31Z</time>
      </trkpt>
      <trkpt lat="44.06549" lon="7.25723">
        <ele>928.8</ele>
        <time>2022-06-11T07:14:32Z</time>
      </trkpt>
      <trkpt lat="44.06553" lon="7.25723">
        <ele>929</ele>
        <time>2022-06-11T07:14:33Z</time>
      </trkpt>
      <trkpt lat="44.06557" lon="7.25723">
        <ele>929.2</ele>
        <time>2022-06-11T07:14:34Z</time>
      </trkpt>
      <trkpt lat="44.06562" lon="7.25723">
        <ele>929.2</ele>
        <time>2022-06-11T07:14:35Z</time>
      </trkpt>
      <trkpt lat="44.06567" lon="7.25723">
        <ele>929.2</ele>
        <time>2022-06-11T07:14:36Z</time>
      </trkpt>
      <trkpt lat="44.06571" lon="7.25724">
        <ele>929.4</ele>
        <time>2022-06-11T07:14:37Z</time>
      </trkpt>
      <trkpt lat="44.06576" lon="7.25724">
        <ele>929.4</ele>
        <time>2022-06-11T07:14:38Z</time>
      </trkpt>
      <trkpt lat="44.06581" lon="7.25725">
        <ele>929.5</ele>
        <time>2022-06-11T07:14:39Z</time>
      </trkpt>
      <trkpt lat="44.06587" lon="7.25725">
        <ele>929.4</ele>
        <time>2022-06-11T07:14:40Z</time>
      </trkpt>
      <trkpt lat="44.06592" lon="7.25726">
        <ele>929.1</ele>
        <time>2022-06-11T07:14:41Z</time>
      </trkpt>
      <trkpt lat="44.06597" lon="7.25726">
        <ele>928.9</ele>
        <time>2022-06-11T07:14:42Z</time>
      </trkpt>
      <trkpt lat="44.06602" lon="7.25726">
        <ele>928.6</ele>
        <time>2022-06-11T07:14:43Z</time>
      </trkpt>
      <trkpt lat="44.06607" lon="7.25727">
        <ele>928.3</ele>
        <time>2022-06-11T07:14:44Z</time>
      </trkpt>
      <trkpt lat="44.06612" lon="7.25727">
        <ele>928.1</ele>
        <time>2022-06-11T07:14:45Z</time>
      </trkpt>
      <trkpt lat="44.06617" lon="7.25728">
        <ele>927.7</ele>
        <time>2022-06-11T07:14:46Z</time>
      </trkpt>
      <trkpt lat="44.06622" lon="7.25729">
        <ele>927.4</ele>
        <time>2022-06-11T07:14:47Z</time>
      </trkpt>
      <trkpt lat="44.06627" lon="7.2573">
        <ele>927.2</ele>
        <time>2022-06-11T07:14:48Z</time>
      </trkpt>
      <trkpt lat="44.06632" lon="7.25732">
        <ele>927.2</ele>
        <time>2022-06-11T07:14:49Z</time>
      </trkpt>
      <trkpt lat="44.06636" lon="7.25734">
        <ele>927.3</ele>
        <time>2022-06-11T07:14:50Z</time>
      </trkpt>
      <trkpt lat="44.0664" lon="7.25735">
        <ele>927.2</ele>
        <time>2022-06-11T07:14:51Z</time>
      </trkpt>
      <trkpt lat="44.06643" lon="7.25736">
        <ele>927</ele>
        <time>2022-06-11T07:14:52Z</time>
      </trkpt>
      <trkpt lat="44.06649" lon="7.25738">
        <ele>926.6</ele>
        <time>2022-06-11T07:14:53Z</time>
      </trkpt>
      <trkpt lat="44.06655" lon="7.2574">
        <ele>926.4</ele>
        <time>2022-06-11T07:14:54Z</time>
      </trkpt>
      <trkpt lat="44.06661" lon="7.25741">
        <ele>926.1</ele>
        <time>2022-06-11T07:14:55Z</time>
      </trkpt>
      <trkpt lat="44.06666" lon="7.25742">
        <ele>925.7</ele>
        <time>2022-06-11T07:14:56Z</time>
      </trkpt>
      <trkpt lat="44.06672" lon="7.25742">
        <ele>925.1</ele>
        <time>2022-06-11T07:14:57Z</time>
      </trkpt>
      <trkpt lat="44.06677" lon="7.25741">
        <ele>924.1</ele>
        <time>2022-06-11T07:14:58Z</time>
      </trkpt>
      <trkpt lat="44.06682" lon="7.25738">
        <ele>922.7</ele>
        <time>2022-06-11T07:14:59Z</time>
      </trkpt>
      <trkpt lat="44.06686" lon="7.25733">
        <ele>920.7</ele>
        <time>2022-06-11T07:15:00Z</time>
      </trkpt>
      <trkpt lat="44.0669" lon="7.25727">
        <ele>918.8</ele>
        <time>2022-06-11T07:15:01Z</time>
      </trkpt>
      <trkpt lat="44.06693" lon="7.25721">
        <ele>917</ele>
        <time>2022-06-11T07:15:02Z</time>
      </trkpt>
      <trkpt lat="44.06697" lon="7.25715">
        <ele>915.9</ele>
        <time>2022-06-11T07:15:03Z</time>
      </trkpt>
      <trkpt lat="44.067" lon="7.25709">
        <ele>915.1</ele>
        <time>2022-06-11T07:15:04Z</time>
      </trkpt>
      <trkpt lat="44.06702" lon="7.25702">
        <ele>914.4</ele>
        <time>2022-06-11T07:15:05Z</time>
      </trkpt>
      <trkpt lat="44.06705" lon="7.25697">
        <ele>914</ele>
        <time>2022-06-11T07:15:06Z</time>
      </trkpt>
      <trkpt lat="44.06708" lon="7.25692">
        <ele>914.2</ele>
        <time>2022-06-11T07:15:07Z</time>
      </trkpt>
      <trkpt lat="44.0671" lon="7.25686">
        <ele>915</ele>
        <time>2022-06-11T07:15:08Z</time>
      </trkpt>
      <trkpt lat="44.06713" lon="7.2568">
        <ele>916</ele>
        <time>2022-06-11T07:15:09Z</time>
      </trkpt>
      <trkpt lat="44.06716" lon="7.25675">
        <ele>917.1</ele>
        <time>2022-06-11T07:15:10Z</time>
      </trkpt>
      <trkpt lat="44.06718" lon="7.2567">
        <ele>918.5</ele>
        <time>2022-06-11T07:15:11Z</time>
      </trkpt>
      <trkpt lat="44.0672" lon="7.25664">
        <ele>919.9</ele>
        <time>2022-06-11T07:15:12Z</time>
      </trkpt>
      <trkpt lat="44.06721" lon="7.25657">
        <ele>921.3</ele>
        <time>2022-06-11T07:15:13Z</time>
      </trkpt>
      <trkpt lat="44.06721" lon="7.2565">
        <ele>922.6</ele>
        <time>2022-06-11T07:15:14Z</time>
      </trkpt>
      <trkpt lat="44.06721" lon="7.25644">
        <ele>923.5</ele>
        <time>2022-06-11T07:15:15Z</time>
      </trkpt>
      <trkpt lat="44.06719" lon="7.25639">
        <ele>924</ele>
        <time>2022-06-11T07:15:16Z</time>
      </trkpt>
      <trkpt lat="44.06718" lon="7.25633">
        <ele>923.8</ele>
        <time>2022-06-11T07:15:17Z</time>
      </trkpt>
      <trkpt lat="44.06716" lon="7.25627">
        <ele>923.6</ele>
        <time>2022-06-11T07:15:18Z</time>
      </trkpt>
      <trkpt lat="44.06715" lon="7.25621">
        <ele>923.5</ele>
        <time>2022-06-11T07:15:19Z</time>
      </trkpt>
      <trkpt lat="44.06714" lon="7.25615">
        <ele>923.6</ele>
        <time>2022-06-11T07:15:20Z</time>
      </trkpt>
      <trkpt lat="44.06713" lon="7.25609">
        <ele>923.6</ele>
        <time>2022-06-11T07:15:21Z</time>
      </trkpt>
      <trkpt lat="44.06713" lon="7.25604">
        <ele>923.4</ele>
        <time>2022-06-11T07:15:22Z</time>
      </trkpt>
      <trkpt lat="44.06713" lon="7.25598">
        <ele>923.2</ele>
        <time>2022-06-11T07:15:23Z</time>
      </trkpt>
      <trkpt lat="44.06713" lon="7.25593">
        <ele>923.1</ele>
        <time>2022-06-11T07:15:24Z</time>
      </trkpt>
      <trkpt lat="44.06714" lon="7.25588">
        <ele>923</ele>
        <time>2022-06-11T07:15:25Z</time>
      </trkpt>
      <trkpt lat="44.06715" lon="7.25583">
        <ele>923.1</ele>
        <time>2022-06-11T07:15:26Z</time>
      </trkpt>
      <trkpt lat="44.06716" lon="7.25578">
        <ele>923.1</ele>
        <time>2022-06-11T07:15:27Z</time>
      </trkpt>
      <trkpt lat="44.06718" lon="7.25574">
        <ele>923.1</ele>
        <time>2022-06-11T07:15:28Z</time>
      </trkpt>
      <trkpt lat="44.0672" lon="7.2557">
        <ele>923.4</ele>
        <time>2022-06-11T07:15:29Z</time>
      </trkpt>
      <trkpt lat="44.06723" lon="7.25567">
        <ele>923.8</ele>
        <time>2022-06-11T07:15:30Z</time>
      </trkpt>
      <trkpt lat="44.06726" lon="7.25564">
        <ele>924.2</ele>
        <time>2022-06-11T07:15:31Z</time>
      </trkpt>
      <trkpt lat="44.06729" lon="7.25561">
        <ele>924.8</ele>
        <time>2022-06-11T07:15:32Z</time>
      </trkpt>
      <trkpt lat="44.06732" lon="7.25559">
        <ele>925.4</ele>
        <time>2022-06-11T07:15:33Z</time>
      </trkpt>
      <trkpt lat="44.06735" lon="7.25557">
        <ele>926</ele>
        <time>2022-06-11T07:15:34Z</time>
      </trkpt>
      <trkpt lat="44.06739" lon="7.25555">
        <ele>926.4</ele>
        <time>2022-06-11T07:15:35Z</time>
      </trkpt>
      <trkpt lat="44.06742" lon="7.25553">
        <ele>926.8</ele>
        <time>2022-06-11T07:15:36Z</time>
      </trkpt>
      <trkpt lat="44.06745" lon="7.25551">
        <ele>927.4</ele>
        <time>2022-06-11T07:15:37Z</time>
      </trkpt>
      <trkpt lat="44.06748" lon="7.2555">
        <ele>927.9</ele>
        <time>2022-06-11T07:15:38Z</time>
      </trkpt>
      <trkpt lat="44.06752" lon="7.25549">
        <ele>928.5</ele>
        <time>2022-06-11T07:15:39Z</time>
      </trkpt>
      <trkpt lat="44.06755" lon="7.25548">
        <ele>929.1</ele>
        <time>2022-06-11T07:15:40Z</time>
      </trkpt>
      <trkpt lat="44.06758" lon="7.25547">
        <ele>929.6</ele>
        <time>2022-06-11T07:15:41Z</time>
      </trkpt>
      <trkpt lat="44.06761" lon="7.25547">
        <ele>930.5</ele>
        <time>2022-06-11T07:15:42Z</time>
      </trkpt>
      <trkpt lat="44.06764" lon="7.25547">
        <ele>931.3</ele>
        <time>2022-06-11T07:15:43Z</time>
      </trkpt>
      <trkpt lat="44.06767" lon="7.25547">
        <ele>932</ele>
        <time>2022-06-11T07:15:44Z</time>
      </trkpt>
      <trkpt lat="44.0677" lon="7.25547">
        <ele>932.8</ele>
        <time>2022-06-11T07:15:45Z</time>
      </trkpt>
      <trkpt lat="44.06772" lon="7.25547">
        <ele>933.5</ele>
        <time>2022-06-11T07:15:46Z</time>
      </trkpt>
      <trkpt lat="44.06775" lon="7.25547">
        <ele>934.2</ele>
        <time>2022-06-11T07:15:47Z</time>
      </trkpt>
      <trkpt lat="44.06778" lon="7.25547">
        <ele>935</ele>
        <time>2022-06-11T07:15:48Z</time>
      </trkpt>
      <trkpt lat="44.06781" lon="7.25546">
        <ele>935.4</ele>
        <time>2022-06-11T07:15:49Z</time>
      </trkpt>
      <trkpt lat="44.06784" lon="7.25545">
        <ele>935.7</ele>
        <time>2022-06-11T07:15:50Z</time>
      </trkpt>
      <trkpt lat="44.06787" lon="7.25544">
        <ele>935.8</ele>
        <time>2022-06-11T07:15:51Z</time>
      </trkpt>
      <trkpt lat="44.0679" lon="7.25543">
        <ele>936</ele>
        <time>2022-06-11T07:15:52Z</time>
      </trkpt>
      <trkpt lat="44.06793" lon="7.25542">
        <ele>936.2</ele>
        <time>2022-06-11T07:15:53Z</time>
      </trkpt>
      <trkpt lat="44.06795" lon="7.25541">
        <ele>936.5</ele>
        <time>2022-06-11T07:15:54Z</time>
      </trkpt>
      <trkpt lat="44.06798" lon="7.2554">
        <ele>936.5</ele>
        <time>2022-06-11T07:15:55Z</time>
      </trkpt>
      <trkpt lat="44.06801" lon="7.25538">
        <ele>936.7</ele>
        <time>2022-06-11T07:15:56Z</time>
      </trkpt>
      <trkpt lat="44.06803" lon="7.25536">
        <ele>936.5</ele>
        <time>2022-06-11T07:15:57Z</time>
      </trkpt>
      <trkpt lat="44.06806" lon="7.25535">
        <ele>936.8</ele>
        <time>2022-06-11T07:15:58Z</time>
      </trkpt>
      <trkpt lat="44.06809" lon="7.25534">
        <ele>936.5</ele>
        <time>2022-06-11T07:15:59Z</time>
      </trkpt>
      <trkpt lat="44.06811" lon="7.25532">
        <ele>936.2</ele>
        <time>2022-06-11T07:16:00Z</time>
      </trkpt>
      <trkpt lat="44.06814" lon="7.25531">
        <ele>936.2</ele>
        <time>2022-06-11T07:16:01Z</time>
      </trkpt>
      <trkpt lat="44.06817" lon="7.2553">
        <ele>936.2</ele>
        <time>2022-06-11T07:16:02Z</time>
      </trkpt>
      <trkpt lat="44.06819" lon="7.25529">
        <ele>936.3</ele>
        <time>2022-06-11T07:16:03Z</time>
      </trkpt>
      <trkpt lat="44.06822" lon="7.25528">
        <ele>936.4</ele>
        <time>2022-06-11T07:16:04Z</time>
      </trkpt>
      <trkpt lat="44.06825" lon="7.25527">
        <ele>936.6</ele>
        <time>2022-06-11T07:16:05Z</time>
      </trkpt>
      <trkpt lat="44.06827" lon="7.25527">
        <ele>936.9</ele>
        <time>2022-06-11T07:16:06Z</time>
      </trkpt>
      <trkpt lat="44.0683" lon="7.25527">
        <ele>937.4</ele>
        <time>2022-06-11T07:16:07Z</time>
      </trkpt>
      <trkpt lat="44.06833" lon="7.25528">
        <ele>938</ele>
        <time>2022-06-11T07:16:08Z</time>
      </trkpt>
      <trkpt lat="44.06836" lon="7.25529">
        <ele>938.5</ele>
        <time>2022-06-11T07:16:09Z</time>
      </trkpt>
      <trkpt lat="44.06838" lon="7.2553">
        <ele>939.1</ele>
        <time>2022-06-11T07:16:10Z</time>
      </trkpt>
      <trkpt lat="44.0684" lon="7.2553">
        <ele>939.4</ele>
        <time>2022-06-11T07:16:11Z</time>
      </trkpt>
      <trkpt lat="44.06841" lon="7.25531">
        <ele>939.6</ele>
        <time>2022-06-11T07:16:12Z</time>
      </trkpt>
      <trkpt lat="44.06842" lon="7.2553">
        <ele>939.7</ele>
        <time>2022-06-11T07:16:13Z</time>
      </trkpt>
      <trkpt lat="44.06843" lon="7.2553">
        <ele>939.7</ele>
        <time>2022-06-11T07:16:14Z</time>
      </trkpt>
      <trkpt lat="44.06845" lon="7.2553">
        <ele>939.9</ele>
        <time>2022-06-11T07:16:15Z</time>
      </trkpt>
      <trkpt lat="44.06848" lon="7.2553">
        <ele>940.1</ele>
        <time>2022-06-11T07:16:16Z</time>
      </trkpt>
      <trkpt lat="44.06849" lon="7.25528">
        <ele>939.8</ele>
        <time>2022-06-11T07:16:17Z</time>
      </trkpt>
      <trkpt lat="44.0685" lon="7.25526">
        <ele>939.5</ele>
        <time>2022-06-11T07:16:18Z</time>
      </trkpt>
      <trkpt lat="44.06851" lon="7.25523">
        <ele>939</ele>
        <time>2022-06-11T07:16:19Z</time>
      </trkpt>
      <trkpt lat="44.06852" lon="7.2552">
        <ele>938.6</ele>
        <time>2022-06-11T07:16:20Z</time>
      </trkpt>
      <trkpt lat="44.06855" lon="7.25516">
        <ele>938.3</ele>
        <time>2022-06-11T07:16:21Z</time>
      </trkpt>
      <trkpt lat="44.06858" lon="7.25511">
        <ele>938</ele>
        <time>2022-06-11T07:16:22Z</time>
      </trkpt>
      <trkpt lat="44.06861" lon="7.25506">
        <ele>937.8</ele>
        <time>2022-06-11T07:16:23Z</time>
      </trkpt>
      <trkpt lat="44.06864" lon="7.255">
        <ele>937.4</ele>
        <time>2022-06-11T07:16:24Z</time>
      </trkpt>
      <trkpt lat="44.06868" lon="7.25494">
        <ele>936.9</ele>
        <time>2022-06-11T07:16:25Z</time>
      </trkpt>
      <trkpt lat="44.06871" lon="7.25488">
        <ele>936.4</ele>
        <time>2022-06-11T07:16:26Z</time>
      </trkpt>
      <trkpt lat="44.06874" lon="7.25482">
        <ele>936.2</ele>
        <time>2022-06-11T07:16:27Z</time>
      </trkpt>
      <trkpt lat="44.06878" lon="7.25477">
        <ele>936.2</ele>
        <time>2022-06-11T07:16:28Z</time>
      </trkpt>
      <trkpt lat="44.06881" lon="7.25472">
        <ele>936.3</ele>
        <time>2022-06-11T07:16:29Z</time>
      </trkpt>
      <trkpt lat="44.06885" lon="7.25468">
        <ele>936.5</ele>
        <time>2022-06-11T07:16:30Z</time>
      </trkpt>
      <trkpt lat="44.06888" lon="7.25465">
        <ele>936.7</ele>
        <time>2022-06-11T07:16:31Z</time>
      </trkpt>
      <trkpt lat="44.06891" lon="7.25461">
        <ele>936.7</ele>
        <time>2022-06-11T07:16:32Z</time>
      </trkpt>
      <trkpt lat="44.06893" lon="7.25459">
        <ele>936.7</ele>
        <time>2022-06-11T07:16:33Z</time>
      </trkpt>
      <trkpt lat="44.06895" lon="7.25456">
        <ele>936.7</ele>
        <time>2022-06-11T07:16:34Z</time>
      </trkpt>
      <trkpt lat="44.06897" lon="7.25453">
        <ele>936.5</ele>
        <time>2022-06-11T07:16:35Z</time>
      </trkpt>
      <trkpt lat="44.06898" lon="7.25449">
        <ele>936.2</ele>
        <time>2022-06-11T07:16:36Z</time>
      </trkpt>
      <trkpt lat="44.069" lon="7.25444">
        <ele>935.9</ele>
        <time>2022-06-11T07:16:37Z</time>
      </trkpt>
      <trkpt lat="44.06901" lon="7.25439">
        <ele>935.3</ele>
        <time>2022-06-11T07:16:38Z</time>
      </trkpt>
      <trkpt lat="44.06902" lon="7.25432">
        <ele>934.5</ele>
        <time>2022-06-11T07:16:39Z</time>
      </trkpt>
      <trkpt lat="44.06904" lon="7.25425">
        <ele>934</ele>
        <time>2022-06-11T07:16:40Z</time>
      </trkpt>
      <trkpt lat="44.06908" lon="7.25419">
        <ele>933.7</ele>
        <time>2022-06-11T07:16:41Z</time>
      </trkpt>
      <trkpt lat="44.06913" lon="7.25413">
        <ele>933.6</ele>
        <time>2022-06-11T07:16:42Z</time>
      </trkpt>
      <trkpt lat="44.06918" lon="7.25407">
        <ele>933.4</ele>
        <time>2022-06-11T07:16:43Z</time>
      </trkpt>
      <trkpt lat="44.06923" lon="7.25402">
        <ele>933.2</ele>
        <time>2022-06-11T07:16:44Z</time>
      </trkpt>
      <trkpt lat="44.06928" lon="7.25398">
        <ele>933.2</ele>
        <time>2022-06-11T07:16:45Z</time>
      </trkpt>
      <trkpt lat="44.06934" lon="7.25394">
        <ele>933.3</ele>
        <time>2022-06-11T07:16:46Z</time>
      </trkpt>
      <trkpt lat="44.0694" lon="7.25391">
        <ele>933.6</ele>
        <time>2022-06-11T07:16:47Z</time>
      </trkpt>
      <trkpt lat="44.06945" lon="7.25388">
        <ele>934</ele>
        <time>2022-06-11T07:16:48Z</time>
      </trkpt>
      <trkpt lat="44.06949" lon="7.25386">
        <ele>934.2</ele>
        <time>2022-06-11T07:16:49Z</time>
      </trkpt>
      <trkpt lat="44.06953" lon="7.25385">
        <ele>934.5</ele>
        <time>2022-06-11T07:16:50Z</time>
      </trkpt>
      <trkpt lat="44.06957" lon="7.25383">
        <ele>934.7</ele>
        <time>2022-06-11T07:16:51Z</time>
      </trkpt>
      <trkpt lat="44.0696" lon="7.25383">
        <ele>934.9</ele>
        <time>2022-06-11T07:16:52Z</time>
      </trkpt>
      <trkpt lat="44.06963" lon="7.25381">
        <ele>935.1</ele>
        <time>2022-06-11T07:16:53Z</time>
      </trkpt>
      <trkpt lat="44.06966" lon="7.25381">
        <ele>935.4</ele>
        <time>2022-06-11T07:16:54Z</time>
      </trkpt>
      <trkpt lat="44.06969" lon="7.25381">
        <ele>935.8</ele>
        <time>2022-06-11T07:16:55Z</time>
      </trkpt>
      <trkpt lat="44.06972" lon="7.25381">
        <ele>936.2</ele>
        <time>2022-06-11T07:16:56Z</time>
      </trkpt>
      <trkpt lat="44.06975" lon="7.25382">
        <ele>936.5</ele>
        <time>2022-06-11T07:16:57Z</time>
      </trkpt>
      <trkpt lat="44.06977" lon="7.25382">
        <ele>936.8</ele>
        <time>2022-06-11T07:16:58Z</time>
      </trkpt>
      <trkpt lat="44.0698" lon="7.25381">
        <ele>937</ele>
        <time>2022-06-11T07:16:59Z</time>
      </trkpt>
      <trkpt lat="44.06983" lon="7.25381">
        <ele>937.3</ele>
        <time>2022-06-11T07:17:00Z</time>
      </trkpt>
      <trkpt lat="44.06985" lon="7.2538">
        <ele>937.5</ele>
        <time>2022-06-11T07:17:01Z</time>
      </trkpt>
      <trkpt lat="44.06987" lon="7.2538">
        <ele>937.6</ele>
        <time>2022-06-11T07:17:02Z</time>
      </trkpt>
      <trkpt lat="44.0699" lon="7.25378">
        <ele>937.8</ele>
        <time>2022-06-11T07:17:03Z</time>
      </trkpt>
      <trkpt lat="44.06992" lon="7.25377">
        <ele>937.8</ele>
        <time>2022-06-11T07:17:04Z</time>
      </trkpt>
      <trkpt lat="44.06994" lon="7.25375">
        <ele>937.8</ele>
        <time>2022-06-11T07:17:05Z</time>
      </trkpt>
      <trkpt lat="44.06996" lon="7.25373">
        <ele>937.8</ele>
        <time>2022-06-11T07:17:06Z</time>
      </trkpt>
      <trkpt lat="44.06998" lon="7.25371">
        <ele>937.8</ele>
        <time>2022-06-11T07:17:07Z</time>
      </trkpt>
      <trkpt lat="44.07001" lon="7.2537">
        <ele>938</ele>
        <time>2022-06-11T07:17:08Z</time>
      </trkpt>
      <trkpt lat="44.07003" lon="7.25367">
        <ele>938.1</ele>
        <time>2022-06-11T07:17:09Z</time>
      </trkpt>
      <trkpt lat="44.07005" lon="7.25365">
        <ele>938.2</ele>
        <time>2022-06-11T07:17:10Z</time>
      </trkpt>
      <trkpt lat="44.07007" lon="7.25363">
        <ele>938.2</ele>
        <time>2022-06-11T07:17:11Z</time>
      </trkpt>
      <trkpt lat="44.0701" lon="7.25361">
        <ele>938.3</ele>
        <time>2022-06-11T07:17:12Z</time>
      </trkpt>
      <trkpt lat="44.07012" lon="7.25358">
        <ele>938.5</ele>
        <time>2022-06-11T07:17:13Z</time>
      </trkpt>
      <trkpt lat="44.07015" lon="7.25356">
        <ele>938.7</ele>
        <time>2022-06-11T07:17:14Z</time>
      </trkpt>
      <trkpt lat="44.07017" lon="7.25353">
        <ele>938.9</ele>
        <time>2022-06-11T07:17:15Z</time>
      </trkpt>
      <trkpt lat="44.0702" lon="7.25351">
        <ele>939.1</ele>
        <time>2022-06-11T07:17:16Z</time>
      </trkpt>
      <trkpt lat="44.07022" lon="7.25349">
        <ele>939.3</ele>
        <time>2022-06-11T07:17:17Z</time>
      </trkpt>
      <trkpt lat="44.07025" lon="7.25347">
        <ele>939.5</ele>
        <time>2022-06-11T07:17:18Z</time>
      </trkpt>
      <trkpt lat="44.07027" lon="7.25345">
        <ele>939.7</ele>
        <time>2022-06-11T07:17:19Z</time>
      </trkpt>
      <trkpt lat="44.0703" lon="7.25343">
        <ele>940.1</ele>
        <time>2022-06-11T07:17:20Z</time>
      </trkpt>
      <trkpt lat="44.07033" lon="7.25342">
        <ele>940.5</ele>
        <time>2022-06-11T07:17:21Z</time>
      </trkpt>
      <trkpt lat="44.07035" lon="7.2534">
        <ele>940.8</ele>
        <time>2022-06-11T07:17:22Z</time>
      </trkpt>
      <trkpt lat="44.07037" lon="7.25339">
        <ele>941.1</ele>
        <time>2022-06-11T07:17:23Z</time>
      </trkpt>
      <trkpt lat="44.07039" lon="7.25338">
        <ele>941.4</ele>
        <time>2022-06-11T07:17:24Z</time>
      </trkpt>
      <trkpt lat="44.07042" lon="7.25337">
        <ele>941.8</ele>
        <time>2022-06-11T07:17:25Z</time>
      </trkpt>
      <trkpt lat="44.07044" lon="7.25336">
        <ele>942.1</ele>
        <time>2022-06-11T07:17:26Z</time>
      </trkpt>
      <trkpt lat="44.07046" lon="7.25335">
        <ele>942.5</ele>
        <time>2022-06-11T07:17:27Z</time>
      </trkpt>
      <trkpt lat="44.07049" lon="7.25334">
        <ele>942.8</ele>
        <time>2022-06-11T07:17:28Z</time>
      </trkpt>
      <trkpt lat="44.07051" lon="7.25334">
        <ele>943.1</ele>
        <time>2022-06-11T07:17:29Z</time>
      </trkpt>
      <trkpt lat="44.07052" lon="7.25333">
        <ele>943.4</ele>
        <time>2022-06-11T07:17:30Z</time>
      </trkpt>
      <trkpt lat="44.07054" lon="7.25332">
        <ele>943.5</ele>
        <time>2022-06-11T07:17:31Z</time>
      </trkpt>
      <trkpt lat="44.07055" lon="7.25331">
        <ele>943.7</ele>
        <time>2022-06-11T07:17:32Z</time>
      </trkpt>
      <trkpt lat="44.07057" lon="7.2533">
        <ele>944</ele>
        <time>2022-06-11T07:17:33Z</time>
      </trkpt>
      <trkpt lat="44.07059" lon="7.2533">
        <ele>944.3</ele>
        <time>2022-06-11T07:17:34Z</time>
      </trkpt>
      <trkpt lat="44.0706" lon="7.25329">
        <ele>944.7</ele>
        <time>2022-06-11T07:17:35Z</time>
      </trkpt>
      <trkpt lat="44.07062" lon="7.25329">
        <ele>945</ele>
        <time>2022-06-11T07:17:36Z</time>
      </trkpt>
      <trkpt lat="44.07064" lon="7.25328">
        <ele>945.2</ele>
        <time>2022-06-11T07:17:37Z</time>
      </trkpt>
      <trkpt lat="44.07065" lon="7.25329">
        <ele>945.5</ele>
        <time>2022-06-11T07:17:38Z</time>
      </trkpt>
      <trkpt lat="44.07067" lon="7.25329">
        <ele>945.9</ele>
        <time>2022-06-11T07:17:39Z</time>
      </trkpt>
      <trkpt lat="44.07068" lon="7.25328">
        <ele>946.1</ele>
        <time>2022-06-11T07:17:40Z</time>
      </trkpt>
      <trkpt lat="44.07068" lon="7.25326">
        <ele>945.9</ele>
        <time>2022-06-11T07:17:41Z</time>
      </trkpt>
      <trkpt lat="44.07066" lon="7.25327">
        <ele>945.7</ele>
        <time>2022-06-11T07:17:42Z</time>
      </trkpt>
      <trkpt lat="44.07065" lon="7.25325">
        <ele>945.2</ele>
        <time>2022-06-11T07:17:43Z</time>
      </trkpt>
      <trkpt lat="44.07063" lon="7.25326">
        <ele>945</ele>
        <time>2022-06-11T07:17:44Z</time>
      </trkpt>
      <trkpt lat="44.07062" lon="7.25326">
        <ele>944.8</ele>
        <time>2022-06-11T07:17:45Z</time>
      </trkpt>
      <trkpt lat="44.07061" lon="7.25328">
        <ele>944.7</ele>
        <time>2022-06-11T07:17:46Z</time>
      </trkpt>
      <trkpt lat="44.07061" lon="7.25329">
        <ele>944.8</ele>
        <time>2022-06-11T07:17:47Z</time>
      </trkpt>
      <trkpt lat="44.07059" lon="7.2533">
        <ele>944.4</ele>
        <time>2022-06-11T07:17:48Z</time>
      </trkpt>
      <trkpt lat="44.07057" lon="7.25331">
        <ele>944.2</ele>
        <time>2022-06-11T07:17:49Z</time>
      </trkpt>
      <trkpt lat="44.07055" lon="7.25334">
        <ele>944</ele>
        <time>2022-06-11T07:17:50Z</time>
      </trkpt>
      <trkpt lat="44.07053" lon="7.25336">
        <ele>943.7</ele>
        <time>2022-06-11T07:17:51Z</time>
      </trkpt>
      <trkpt lat="44.07049" lon="7.25338">
        <ele>943.2</ele>
        <time>2022-06-11T07:17:52Z</time>
      </trkpt>
      <trkpt lat="44.07045" lon="7.25339">
        <ele>942.6</ele>
        <time>2022-06-11T07:17:53Z</time>
      </trkpt>
      <trkpt lat="44.07041" lon="7.2534">
        <ele>941.9</ele>
        <time>2022-06-11T07:17:54Z</time>
      </trkpt>
      <trkpt lat="44.07037" lon="7.25341">
        <ele>941.2</ele>
        <time>2022-06-11T07:17:55Z</time>
      </trkpt>
      <trkpt lat="44.07033" lon="7.25343">
        <ele>940.6</ele>
        <time>2022-06-11T07:17:56Z</time>
      </trkpt>
      <trkpt lat="44.07028" lon="7.25346">
        <ele>939.9</ele>
        <time>2022-06-11T07:17:57Z</time>
      </trkpt>
      <trkpt lat="44.07024" lon="7.25348">
        <ele>939.5</ele>
        <time>2022-06-11T07:17:58Z</time>
      </trkpt>
      <trkpt lat="44.0702" lon="7.25351">
        <ele>939.1</ele>
        <time>2022-06-11T07:17:59Z</time>
      </trkpt>
      <trkpt lat="44.07016" lon="7.25356">
        <ele>938.9</ele>
        <time>2022-06-11T07:18:00Z</time>
      </trkpt>
      <trkpt lat="44.07012" lon="7.2536">
        <ele>938.6</ele>
        <time>2022-06-11T07:18:01Z</time>
      </trkpt>
      <trkpt lat="44.07007" lon="7.25364">
        <ele>938.4</ele>
        <time>2022-06-11T07:18:02Z</time>
      </trkpt>
      <trkpt lat="44.07004" lon="7.25369">
        <ele>938.3</ele>
        <time>2022-06-11T07:18:03Z</time>
      </trkpt>
      <trkpt lat="44.07" lon="7.25373">
        <ele>938.2</ele>
        <time>2022-06-11T07:18:04Z</time>
      </trkpt>
      <trkpt lat="44.06996" lon="7.25376">
        <ele>938.2</ele>
        <time>2022-06-11T07:18:05Z</time>
      </trkpt>
      <trkpt lat="44.06992" lon="7.25379">
        <ele>938.1</ele>
        <time>2022-06-11T07:18:06Z</time>
      </trkpt>
      <trkpt lat="44.06987" lon="7.25381">
        <ele>937.8</ele>
        <time>2022-06-11T07:18:07Z</time>
      </trkpt>
      <trkpt lat="44.06982" lon="7.25381">
        <ele>937.2</ele>
        <time>2022-06-11T07:18:08Z</time>
      </trkpt>
      <trkpt lat="44.06976" lon="7.2538">
        <ele>936.5</ele>
        <time>2022-06-11T07:18:09Z</time>
      </trkpt>
      <trkpt lat="44.0697" lon="7.25379">
        <ele>935.6</ele>
        <time>2022-06-11T07:18:10Z</time>
      </trkpt>
      <trkpt lat="44.06964" lon="7.25377">
        <ele>934.8</ele>
        <time>2022-06-11T07:18:11Z</time>
      </trkpt>
      <trkpt lat="44.06958" lon="7.25378">
        <ele>934.3</ele>
        <time>2022-06-11T07:18:12Z</time>
      </trkpt>
      <trkpt lat="44.06951" lon="7.25381">
        <ele>933.8</ele>
        <time>2022-06-11T07:18:13Z</time>
      </trkpt>
      <trkpt lat="44.06943" lon="7.25384">
        <ele>933.3</ele>
        <time>2022-06-11T07:18:14Z</time>
      </trkpt>
      <trkpt lat="44.06935" lon="7.25388">
        <ele>932.5</ele>
        <time>2022-06-11T07:18:15Z</time>
      </trkpt>
      <trkpt lat="44.06927" lon="7.25392">
        <ele>932</ele>
        <time>2022-06-11T07:18:16Z</time>
      </trkpt>
      <trkpt lat="44.0692" lon="7.25396">
        <ele>931.7</ele>
        <time>2022-06-11T07:18:17Z</time>
      </trkpt>
      <trkpt lat="44.06913" lon="7.25402">
        <ele>931.7</ele>
        <time>2022-06-11T07:18:18Z</time>
      </trkpt>
      <trkpt lat="44.06907" lon="7.2541">
        <ele>932.1</ele>
        <time>2022-06-11T07:18:19Z</time>
      </trkpt>
      <trkpt lat="44.06904" lon="7.2542">
        <ele>933.1</ele>
        <time>2022-06-11T07:18:20Z</time>
      </trkpt>
      <trkpt lat="44.06901" lon="7.25428">
        <ele>933.8</ele>
        <time>2022-06-11T07:18:21Z</time>
      </trkpt>
      <trkpt lat="44.06899" lon="7.25436">
        <ele>934.5</ele>
        <time>2022-06-11T07:18:22Z</time>
      </trkpt>
      <trkpt lat="44.06897" lon="7.25442">
        <ele>935.2</ele>
        <time>2022-06-11T07:18:23Z</time>
      </trkpt>
      <trkpt lat="44.06895" lon="7.25447">
        <ele>935.5</ele>
        <time>2022-06-11T07:18:24Z</time>
      </trkpt>
      <trkpt lat="44.06892" lon="7.25452">
        <ele>935.6</ele>
        <time>2022-06-11T07:18:25Z</time>
      </trkpt>
      <trkpt lat="44.06889" lon="7.25457">
        <ele>935.8</ele>
        <time>2022-06-11T07:18:26Z</time>
      </trkpt>
      <trkpt lat="44.06887" lon="7.25461">
        <ele>935.8</ele>
        <time>2022-06-11T07:18:27Z</time>
      </trkpt>
      <trkpt lat="44.06884" lon="7.25466">
        <ele>935.8</ele>
        <time>2022-06-11T07:18:28Z</time>
      </trkpt>
      <trkpt lat="44.06881" lon="7.2547">
        <ele>936</ele>
        <time>2022-06-11T07:18:29Z</time>
      </trkpt>
      <trkpt lat="44.06878" lon="7.25475">
        <ele>935.9</ele>
        <time>2022-06-11T07:18:30Z</time>
      </trkpt>
      <trkpt lat="44.06875" lon="7.25479">
        <ele>935.9</ele>
        <time>2022-06-11T07:18:31Z</time>
      </trkpt>
      <trkpt lat="44.06872" lon="7.25484">
        <ele>936.1</ele>
        <time>2022-06-11T07:18:32Z</time>
      </trkpt>
      <trkpt lat="44.06869" lon="7.25489">
        <ele>936.4</ele>
        <time>2022-06-11T07:18:33Z</time>
      </trkpt>
      <trkpt lat="44.06867" lon="7.25494">
        <ele>936.8</ele>
        <time>2022-06-11T07:18:34Z</time>
      </trkpt>
      <trkpt lat="44.06864" lon="7.25499">
        <ele>937.3</ele>
        <time>2022-06-11T07:18:35Z</time>
      </trkpt>
      <trkpt lat="44.06862" lon="7.25504">
        <ele>937.6</ele>
        <time>2022-06-11T07:18:36Z</time>
      </trkpt>
      <trkpt lat="44.0686" lon="7.25507">
        <ele>937.7</ele>
        <time>2022-06-11T07:18:37Z</time>
      </trkpt>
      <trkpt lat="44.06858" lon="7.25511">
        <ele>937.9</ele>
        <time>2022-06-11T07:18:38Z</time>
      </trkpt>
      <trkpt lat="44.06856" lon="7.25514">
        <ele>938.1</ele>
        <time>2022-06-11T07:18:39Z</time>
      </trkpt>
      <trkpt lat="44.06854" lon="7.25517">
        <ele>938.4</ele>
        <time>2022-06-11T07:18:40Z</time>
      </trkpt>
      <trkpt lat="44.06852" lon="7.25521">
        <ele>938.8</ele>
        <time>2022-06-11T07:18:41Z</time>
      </trkpt>
      <trkpt lat="44.06852" lon="7.25524">
        <ele>939.3</ele>
        <time>2022-06-11T07:18:42Z</time>
      </trkpt>
      <trkpt lat="44.06852" lon="7.25527">
        <ele>939.8</ele>
        <time>2022-06-11T07:18:43Z</time>
      </trkpt>
      <trkpt lat="44.06854" lon="7.25528">
        <ele>940.3</ele>
        <time>2022-06-11T07:18:44Z</time>
      </trkpt>
      <trkpt lat="44.06856" lon="7.25529">
        <ele>940.6</ele>
        <time>2022-06-11T07:18:45Z</time>
      </trkpt>
      <trkpt lat="44.06859" lon="7.25528">
        <ele>940.9</ele>
        <time>2022-06-11T07:18:46Z</time>
      </trkpt>
      <trkpt lat="44.06862" lon="7.25528">
        <ele>941.1</ele>
        <time>2022-06-11T07:18:47Z</time>
      </trkpt>
      <trkpt lat="44.06865" lon="7.25527">
        <ele>941.3</ele>
        <time>2022-06-11T07:18:48Z</time>
      </trkpt>
      <trkpt lat="44.06868" lon="7.25527">
        <ele>941.5</ele>
        <time>2022-06-11T07:18:49Z</time>
      </trkpt>
      <trkpt lat="44.0687" lon="7.25526">
        <ele>941.7</ele>
        <time>2022-06-11T07:18:50Z</time>
      </trkpt>
      <trkpt lat="44.06873" lon="7.25525">
        <ele>941.9</ele>
        <time>2022-06-11T07:18:51Z</time>
      </trkpt>
      <trkpt lat="44.06875" lon="7.25524">
        <ele>942.1</ele>
        <time>2022-06-11T07:18:52Z</time>
      </trkpt>
      <trkpt lat="44.06877" lon="7.25524">
        <ele>942.2</ele>
        <time>2022-06-11T07:18:53Z</time>
      </trkpt>
      <trkpt lat="44.0688" lon="7.25523">
        <ele>942.4</ele>
        <time>2022-06-11T07:18:54Z</time>
      </trkpt>
      <trkpt lat="44.06883" lon="7.25523">
        <ele>942.8</ele>
        <time>2022-06-11T07:18:55Z</time>
      </trkpt>
      <trkpt lat="44.06886" lon="7.25523">
        <ele>943.1</ele>
        <time>2022-06-11T07:18:56Z</time>
      </trkpt>
      <trkpt lat="44.06889" lon="7.25522">
        <ele>943.4</ele>
        <time>2022-06-11T07:18:57Z</time>
      </trkpt>
      <trkpt lat="44.06892" lon="7.25522">
        <ele>943.7</ele>
        <time>2022-06-11T07:18:58Z</time>
      </trkpt>
      <trkpt lat="44.06895" lon="7.25522">
        <ele>944</ele>
        <time>2022-06-11T07:18:59Z</time>
      </trkpt>
      <trkpt lat="44.06898" lon="7.25522">
        <ele>944.3</ele>
        <time>2022-06-11T07:19:00Z</time>
      </trkpt>
      <trkpt lat="44.06901" lon="7.25521">
        <ele>944.6</ele>
        <time>2022-06-11T07:19:01Z</time>
      </trkpt>
      <trkpt lat="44.06904" lon="7.25521">
        <ele>944.8</ele>
        <time>2022-06-11T07:19:02Z</time>
      </trkpt>
      <trkpt lat="44.06906" lon="7.2552">
        <ele>945.1</ele>
        <time>2022-06-11T07:19:03Z</time>
      </trkpt>
      <trkpt lat="44.06909" lon="7.25519">
        <ele>945.2</ele>
        <time>2022-06-11T07:19:04Z</time>
      </trkpt>
      <trkpt lat="44.06912" lon="7.25518">
        <ele>945.4</ele>
        <time>2022-06-11T07:19:05Z</time>
      </trkpt>
      <trkpt lat="44.06914" lon="7.25517">
        <ele>945.6</ele>
        <time>2022-06-11T07:19:06Z</time>
      </trkpt>
      <trkpt lat="44.06917" lon="7.25517">
        <ele>945.8</ele>
        <time>2022-06-11T07:19:07Z</time>
      </trkpt>
      <trkpt lat="44.0692" lon="7.25516">
        <ele>946</ele>
        <time>2022-06-11T07:19:08Z</time>
      </trkpt>
      <trkpt lat="44.06922" lon="7.25515">
        <ele>946.2</ele>
        <time>2022-06-11T07:19:09Z</time>
      </trkpt>
      <trkpt lat="44.06925" lon="7.25514">
        <ele>946.4</ele>
        <time>2022-06-11T07:19:10Z</time>
      </trkpt>
      <trkpt lat="44.06928" lon="7.25514">
        <ele>946.7</ele>
        <time>2022-06-11T07:19:11Z</time>
      </trkpt>
      <trkpt lat="44.0693" lon="7.25513">
        <ele>946.9</ele>
        <time>2022-06-11T07:19:12Z</time>
      </trkpt>
      <trkpt lat="44.06933" lon="7.25513">
        <ele>947.1</ele>
        <time>2022-06-11T07:19:13Z</time>
      </trkpt>
      <trkpt lat="44.06935" lon="7.25513">
        <ele>947.3</ele>
        <time>2022-06-11T07:19:14Z</time>
      </trkpt>
      <trkpt lat="44.06938" lon="7.25512">
        <ele>947.5</ele>
        <time>2022-06-11T07:19:15Z</time>
      </trkpt>
      <trkpt lat="44.0694" lon="7.25511">
        <ele>947.7</ele>
        <time>2022-06-11T07:19:16Z</time>
      </trkpt>
      <trkpt lat="44.06943" lon="7.25511">
        <ele>948</ele>
        <time>2022-06-11T07:19:17Z</time>
      </trkpt>
      <trkpt lat="44.06946" lon="7.25511">
        <ele>948.3</ele>
        <time>2022-06-11T07:19:18Z</time>
      </trkpt>
      <trkpt lat="44.06949" lon="7.2551">
        <ele>948.5</ele>
        <time>2022-06-11T07:19:19Z</time>
      </trkpt>
      <trkpt lat="44.06951" lon="7.2551">
        <ele>948.7</ele>
        <time>2022-06-11T07:19:20Z</time>
      </trkpt>
      <trkpt lat="44.06954" lon="7.25509">
        <ele>948.9</ele>
        <time>2022-06-11T07:19:21Z</time>
      </trkpt>
      <trkpt lat="44.06956" lon="7.25509">
        <ele>949</ele>
        <time>2022-06-11T07:19:22Z</time>
      </trkpt>
      <trkpt lat="44.06958" lon="7.25508">
        <ele>949.2</ele>
        <time>2022-06-11T07:19:23Z</time>
      </trkpt>
      <trkpt lat="44.06961" lon="7.25508">
        <ele>949.4</ele>
        <time>2022-06-11T07:19:24Z</time>
      </trkpt>
      <trkpt lat="44.06964" lon="7.25507">
        <ele>949.7</ele>
        <time>2022-06-11T07:19:25Z</time>
      </trkpt>
      <trkpt lat="44.06967" lon="7.25507">
        <ele>949.9</ele>
        <time>2022-06-11T07:19:26Z</time>
      </trkpt>
      <trkpt lat="44.06969" lon="7.25506">
        <ele>950.1</ele>
        <time>2022-06-11T07:19:27Z</time>
      </trkpt>
      <trkpt lat="44.06972" lon="7.25506">
        <ele>950.4</ele>
        <time>2022-06-11T07:19:28Z</time>
      </trkpt>
      <trkpt lat="44.06975" lon="7.25505">
        <ele>950.5</ele>
        <time>2022-06-11T07:19:29Z</time>
      </trkpt>
      <trkpt lat="44.06978" lon="7.25504">
        <ele>950.7</ele>
        <time>2022-06-11T07:19:30Z</time>
      </trkpt>
      <trkpt lat="44.06981" lon="7.25503">
        <ele>950.8</ele>
        <time>2022-06-11T07:19:31Z</time>
      </trkpt>
      <trkpt lat="44.06983" lon="7.25503">
        <ele>951</ele>
        <time>2022-06-11T07:19:32Z</time>
      </trkpt>
      <trkpt lat="44.06986" lon="7.25502">
        <ele>951.1</ele>
        <time>2022-06-11T07:19:33Z</time>
      </trkpt>
      <trkpt lat="44.06989" lon="7.255">
        <ele>951.2</ele>
        <time>2022-06-11T07:19:34Z</time>
      </trkpt>
      <trkpt lat="44.06991" lon="7.25499">
        <ele>951.3</ele>
        <time>2022-06-11T07:19:35Z</time>
      </trkpt>
      <trkpt lat="44.06993" lon="7.25497">
        <ele>951.4</ele>
        <time>2022-06-11T07:19:36Z</time>
      </trkpt>
      <trkpt lat="44.06995" lon="7.25495">
        <ele>951.5</ele>
        <time>2022-06-11T07:19:37Z</time>
      </trkpt>
      <trkpt lat="44.06998" lon="7.25493">
        <ele>951.6</ele>
        <time>2022-06-11T07:19:38Z</time>
      </trkpt>
      <trkpt lat="44.07" lon="7.25492">
        <ele>951.7</ele>
        <time>2022-06-11T07:19:39Z</time>
      </trkpt>
      <trkpt lat="44.07002" lon="7.2549">
        <ele>951.8</ele>
        <time>2022-06-11T07:19:40Z</time>
      </trkpt>
      <trkpt lat="44.07004" lon="7.25488">
        <ele>951.9</ele>
        <time>2022-06-11T07:19:41Z</time>
      </trkpt>
      <trkpt lat="44.07007" lon="7.25486">
        <ele>952.1</ele>
        <time>2022-06-11T07:19:42Z</time>
      </trkpt>
      <trkpt lat="44.07009" lon="7.25484">
        <ele>952.2</ele>
        <time>2022-06-11T07:19:43Z</time>
      </trkpt>
      <trkpt lat="44.07011" lon="7.25483">
        <ele>952.3</ele>
        <time>2022-06-11T07:19:44Z</time>
      </trkpt>
      <trkpt lat="44.07014" lon="7.25481">
        <ele>952.4</ele>
        <time>2022-06-11T07:19:45Z</time>
      </trkpt>
      <trkpt lat="44.07016" lon="7.25479">
        <ele>952.6</ele>
        <time>2022-06-11T07:19:46Z</time>
      </trkpt>
      <trkpt lat="44.07018" lon="7.25477">
        <ele>952.6</ele>
        <time>2022-06-11T07:19:47Z</time>
      </trkpt>
      <trkpt lat="44.07019" lon="7.25475">
        <ele>952.6</ele>
        <time>2022-06-11T07:19:48Z</time>
      </trkpt>
      <trkpt lat="44.07022" lon="7.25474">
        <ele>952.6</ele>
        <time>2022-06-11T07:19:49Z</time>
      </trkpt>
      <trkpt lat="44.07024" lon="7.25472">
        <ele>952.7</ele>
        <time>2022-06-11T07:19:50Z</time>
      </trkpt>
      <trkpt lat="44.07027" lon="7.2547">
        <ele>952.8</ele>
        <time>2022-06-11T07:19:51Z</time>
      </trkpt>
      <trkpt lat="44.07029" lon="7.25468">
        <ele>952.9</ele>
        <time>2022-06-11T07:19:52Z</time>
      </trkpt>
      <trkpt lat="44.0703" lon="7.25466">
        <ele>953</ele>
        <time>2022-06-11T07:19:53Z</time>
      </trkpt>
      <trkpt lat="44.07033" lon="7.25464">
        <ele>953.2</ele>
        <time>2022-06-11T07:19:54Z</time>
      </trkpt>
      <trkpt lat="44.07036" lon="7.25462">
        <ele>953.4</ele>
        <time>2022-06-11T07:19:55Z</time>
      </trkpt>
      <trkpt lat="44.07038" lon="7.25461">
        <ele>953.6</ele>
        <time>2022-06-11T07:19:56Z</time>
      </trkpt>
      <trkpt lat="44.07041" lon="7.25459">
        <ele>953.7</ele>
        <time>2022-06-11T07:19:57Z</time>
      </trkpt>
      <trkpt lat="44.07043" lon="7.25459">
        <ele>953.9</ele>
        <time>2022-06-11T07:19:58Z</time>
      </trkpt>
      <trkpt lat="44.07045" lon="7.25459">
        <ele>954.1</ele>
        <time>2022-06-11T07:19:59Z</time>
      </trkpt>
      <trkpt lat="44.07047" lon="7.25459">
        <ele>954.2</ele>
        <time>2022-06-11T07:20:00Z</time>
      </trkpt>
      <trkpt lat="44.07049" lon="7.25459">
        <ele>954.4</ele>
        <time>2022-06-11T07:20:01Z</time>
      </trkpt>
      <trkpt lat="44.0705" lon="7.2546">
        <ele>954.6</ele>
        <time>2022-06-11T07:20:02Z</time>
      </trkpt>
      <trkpt lat="44.07052" lon="7.25461">
        <ele>954.9</ele>
        <time>2022-06-11T07:20:03Z</time>
      </trkpt>
      <trkpt lat="44.07054" lon="7.25462">
        <ele>955.2</ele>
        <time>2022-06-11T07:20:04Z</time>
      </trkpt>
      <trkpt lat="44.07056" lon="7.25465">
        <ele>955.5</ele>
        <time>2022-06-11T07:20:05Z</time>
      </trkpt>
      <trkpt lat="44.07058" lon="7.25467">
        <ele>955.9</ele>
        <time>2022-06-11T07:20:06Z</time>
      </trkpt>
      <trkpt lat="44.0706" lon="7.2547">
        <ele>956.2</ele>
        <time>2022-06-11T07:20:07Z</time>
      </trkpt>
      <trkpt lat="44.0706" lon="7.25472">
        <ele>956.5</ele>
        <time>2022-06-11T07:20:08Z</time>
      </trkpt>
      <trkpt lat="44.0706" lon="7.25475">
        <ele>956.6</ele>
        <time>2022-06-11T07:20:09Z</time>
      </trkpt>
      <trkpt lat="44.07061" lon="7.25478">
        <ele>956.8</ele>
        <time>2022-06-11T07:20:10Z</time>
      </trkpt>
      <trkpt lat="44.07061" lon="7.25481">
        <ele>956.9</ele>
        <time>2022-06-11T07:20:11Z</time>
      </trkpt>
      <trkpt lat="44.07062" lon="7.25484">
        <ele>957.1</ele>
        <time>2022-06-11T07:20:12Z</time>
      </trkpt>
      <trkpt lat="44.07062" lon="7.25487">
        <ele>957.2</ele>
        <time>2022-06-11T07:20:13Z</time>
      </trkpt>
      <trkpt lat="44.07063" lon="7.25489">
        <ele>957.4</ele>
        <time>2022-06-11T07:20:14Z</time>
      </trkpt>
      <trkpt lat="44.07062" lon="7.25493">
        <ele>957.4</ele>
        <time>2022-06-11T07:20:15Z</time>
      </trkpt>
      <trkpt lat="44.07062" lon="7.25496">
        <ele>957.5</ele>
        <time>2022-06-11T07:20:16Z</time>
      </trkpt>
      <trkpt lat="44.07062" lon="7.255">
        <ele>957.6</ele>
        <time>2022-06-11T07:20:17Z</time>
      </trkpt>
      <trkpt lat="44.0706" lon="7.25504">
        <ele>957.7</ele>
        <time>2022-06-11T07:20:18Z</time>
      </trkpt>
      <trkpt lat="44.07059" lon="7.25507">
        <ele>957.8</ele>
        <time>2022-06-11T07:20:19Z</time>
      </trkpt>
      <trkpt lat="44.07057" lon="7.2551">
        <ele>957.9</ele>
        <time>2022-06-11T07:20:20Z</time>
      </trkpt>
      <trkpt lat="44.07055" lon="7.25514">
        <ele>958</ele>
        <time>2022-06-11T07:20:21Z</time>
      </trkpt>
      <trkpt lat="44.07054" lon="7.25517">
        <ele>958</ele>
        <time>2022-06-11T07:20:22Z</time>
      </trkpt>
      <trkpt lat="44.07052" lon="7.2552">
        <ele>958.1</ele>
        <time>2022-06-11T07:20:23Z</time>
      </trkpt>
      <trkpt lat="44.0705" lon="7.25523">
        <ele>958.2</ele>
        <time>2022-06-11T07:20:24Z</time>
      </trkpt>
      <trkpt lat="44.07048" lon="7.25526">
        <ele>958.3</ele>
        <time>2022-06-11T07:20:25Z</time>
      </trkpt>
      <trkpt lat="44.07046" lon="7.25529">
        <ele>958.4</ele>
        <time>2022-06-11T07:20:26Z</time>
      </trkpt>
      <trkpt lat="44.07044" lon="7.25532">
        <ele>958.5</ele>
        <time>2022-06-11T07:20:27Z</time>
      </trkpt>
      <trkpt lat="44.07043" lon="7.25535">
        <ele>958.6</ele>
        <time>2022-06-11T07:20:28Z</time>
      </trkpt>
      <trkpt lat="44.07041" lon="7.25538">
        <ele>958.7</ele>
        <time>2022-06-11T07:20:29Z</time>
      </trkpt>
      <trkpt lat="44.07039" lon="7.25541">
        <ele>958.8</ele>
        <time>2022-06-11T07:20:30Z</time>
      </trkpt>
      <trkpt lat="44.07037" lon="7.25544">
        <ele>958.8</ele>
        <time>2022-06-11T07:20:31Z</time>
      </trkpt>
      <trkpt lat="44.07036" lon="7.25547">
        <ele>958.9</ele>
        <time>2022-06-11T07:20:32Z</time>
      </trkpt>
      <trkpt lat="44.07034" lon="7.2555">
        <ele>959</ele>
        <time>2022-06-11T07:20:33Z</time>
      </trkpt>
      <trkpt lat="44.07032" lon="7.25553">
        <ele>959.1</ele>
        <time>2022-06-11T07:20:34Z</time>
      </trkpt>
      <trkpt lat="44.0703" lon="7.25556">
        <ele>959.2</ele>
        <time>2022-06-11T07:20:35Z</time>
      </trkpt>
      <trkpt lat="44.07028" lon="7.25559">
        <ele>959.2</ele>
        <time>2022-06-11T07:20:36Z</time>
      </trkpt>
      <trkpt lat="44.07027" lon="7.25562">
        <ele>959.2</ele>
        <time>2022-06-11T07:20:37Z</time>
      </trkpt>
      <trkpt lat="44.07026" lon="7.25566">
        <ele>959.2</ele>
        <time>2022-06-11T07:20:38Z</time>
      </trkpt>
      <trkpt lat="44.07025" lon="7.25569">
        <ele>959.2</ele>
        <time>2022-06-11T07:20:39Z</time>
      </trkpt>
      <trkpt lat="44.07024" lon="7.25572">
        <ele>959.2</ele>
        <time>2022-06-11T07:20:40Z</time>
      </trkpt>
      <trkpt lat="44.07022" lon="7.25575">
        <ele>959.2</ele>
        <time>2022-06-11T07:20:41Z</time>
      </trkpt>
      <trkpt lat="44.07021" lon="7.25577">
        <ele>959.2</ele>
        <time>2022-06-11T07:20:42Z</time>
      </trkpt>
      <trkpt lat="44.07019" lon="7.2558">
        <ele>959.2</ele>
        <time>2022-06-11T07:20:43Z</time>
      </trkpt>
      <trkpt lat="44.07018" lon="7.25584">
        <ele>959.4</ele>
        <time>2022-06-11T07:20:44Z</time>
      </trkpt>
      <trkpt lat="44.07017" lon="7.25587">
        <ele>959.5</ele>
        <time>2022-06-11T07:20:45Z</time>
      </trkpt>
      <trkpt lat="44.07015" lon="7.2559">
        <ele>959.5</ele>
        <time>2022-06-11T07:20:46Z</time>
      </trkpt>
      <trkpt lat="44.07013" lon="7.25592">
        <ele>959.6</ele>
        <time>2022-06-11T07:20:47Z</time>
      </trkpt>
      <trkpt lat="44.07012" lon="7.25595">
        <ele>959.6</ele>
        <time>2022-06-11T07:20:48Z</time>
      </trkpt>
      <trkpt lat="44.0701" lon="7.25598">
        <ele>959.6</ele>
        <time>2022-06-11T07:20:49Z</time>
      </trkpt>
      <trkpt lat="44.07008" lon="7.25601">
        <ele>959.6</ele>
        <time>2022-06-11T07:20:50Z</time>
      </trkpt>
      <trkpt lat="44.07007" lon="7.25605">
        <ele>959.6</ele>
        <time>2022-06-11T07:20:51Z</time>
      </trkpt>
      <trkpt lat="44.07005" lon="7.25609">
        <ele>959.6</ele>
        <time>2022-06-11T07:20:52Z</time>
      </trkpt>
      <trkpt lat="44.07005" lon="7.25612">
        <ele>959.8</ele>
        <time>2022-06-11T07:20:53Z</time>
      </trkpt>
      <trkpt lat="44.07004" lon="7.25616">
        <ele>960.2</ele>
        <time>2022-06-11T07:20:54Z</time>
      </trkpt>
      <trkpt lat="44.07004" lon="7.25619">
        <ele>960.6</ele>
        <time>2022-06-11T07:20:55Z</time>
      </trkpt>
      <trkpt lat="44.07003" lon="7.25623">
        <ele>961</ele>
        <time>2022-06-11T07:20:56Z</time>
      </trkpt>
      <trkpt lat="44.07003" lon="7.25626">
        <ele>961.5</ele>
        <time>2022-06-11T07:20:57Z</time>
      </trkpt>
      <trkpt lat="44.07002" lon="7.2563">
        <ele>961.9</ele>
        <time>2022-06-11T07:20:58Z</time>
      </trkpt>
      <trkpt lat="44.07001" lon="7.25632">
        <ele>962.2</ele>
        <time>2022-06-11T07:20:59Z</time>
      </trkpt>
      <trkpt lat="44.07" lon="7.25635">
        <ele>962.4</ele>
        <time>2022-06-11T07:21:00Z</time>
      </trkpt>
      <trkpt lat="44.06999" lon="7.25637">
        <ele>962.7</ele>
        <time>2022-06-11T07:21:01Z</time>
      </trkpt>
      <trkpt lat="44.06999" lon="7.25637">
        <ele>962.8</ele>
        <time>2022-06-11T07:21:02Z</time>
      </trkpt>
      <trkpt lat="44.06999" lon="7.25638">
        <ele>962.9</ele>
        <time>2022-06-11T07:21:03Z</time>
      </trkpt>
      <trkpt lat="44.06999" lon="7.2564">
        <ele>963.1</ele>
        <time>2022-06-11T07:21:04Z</time>
      </trkpt>
      <trkpt lat="44.06999" lon="7.25641">
        <ele>963.4</ele>
        <time>2022-06-11T07:21:05Z</time>
      </trkpt>
      <trkpt lat="44.07" lon="7.25644">
        <ele>963.8</ele>
        <time>2022-06-11T07:21:06Z</time>
      </trkpt>
      <trkpt lat="44.07001" lon="7.25646">
        <ele>964.3</ele>
        <time>2022-06-11T07:21:07Z</time>
      </trkpt>
      <trkpt lat="44.07002" lon="7.25647">
        <ele>964.8</ele>
        <time>2022-06-11T07:21:08Z</time>
      </trkpt>
      <trkpt lat="44.07004" lon="7.2565">
        <ele>965.3</ele>
        <time>2022-06-11T07:21:09Z</time>
      </trkpt>
      <trkpt lat="44.07005" lon="7.25652">
        <ele>965.8</ele>
        <time>2022-06-11T07:21:10Z</time>
      </trkpt>
      <trkpt lat="44.07005" lon="7.25654">
        <ele>966.2</ele>
        <time>2022-06-11T07:21:11Z</time>
      </trkpt>
      <trkpt lat="44.07004" lon="7.25656">
        <ele>966.5</ele>
        <time>2022-06-11T07:21:12Z</time>
      </trkpt>
      <trkpt lat="44.07003" lon="7.25658">
        <ele>966.7</ele>
        <time>2022-06-11T07:21:13Z</time>
      </trkpt>
      <trkpt lat="44.07002" lon="7.25659">
        <ele>966.9</ele>
        <time>2022-06-11T07:21:14Z</time>
      </trkpt>
      <trkpt lat="44.07001" lon="7.25661">
        <ele>967</ele>
        <time>2022-06-11T07:21:15Z</time>
      </trkpt>
      <trkpt lat="44.07" lon="7.25662">
        <ele>967.2</ele>
        <time>2022-06-11T07:21:16Z</time>
      </trkpt>
      <trkpt lat="44.06999" lon="7.25663">
        <ele>967.3</ele>
        <time>2022-06-11T07:21:17Z</time>
      </trkpt>
      <trkpt lat="44.06998" lon="7.25665">
        <ele>967.5</ele>
        <time>2022-06-11T07:21:18Z</time>
      </trkpt>
      <trkpt lat="44.06997" lon="7.25665">
        <ele>967.6</ele>
        <time>2022-06-11T07:21:19Z</time>
      </trkpt>
      <trkpt lat="44.06997" lon="7.25665">
        <ele>967.6</ele>
        <time>2022-06-11T07:21:20Z</time>
      </trkpt>
      <trkpt lat="44.07001" lon="7.25663">
        <ele>967.4</ele>
        <time>2022-06-11T08:05:29Z</time>
      </trkpt>
      <trkpt lat="44.07002" lon="7.25662">
        <ele>967.3</ele>
        <time>2022-06-11T08:05:30Z</time>
      </trkpt>
      <trkpt lat="44.07004" lon="7.2566">
        <ele>967.2</ele>
        <time>2022-06-11T08:05:31Z</time>
      </trkpt>
      <trkpt lat="44.07005" lon="7.25659">
        <ele>967.1</ele>
        <time>2022-06-11T08:05:32Z</time>
      </trkpt>
      <trkpt lat="44.07006" lon="7.25659">
        <ele>967.1</ele>
        <time>2022-06-11T08:05:33Z</time>
      </trkpt>
      <trkpt lat="44.07006" lon="7.25657">
        <ele>966.9</ele>
        <time>2022-06-11T08:05:34Z</time>
      </trkpt>
      <trkpt lat="44.07008" lon="7.25656">
        <ele>966.9</ele>
        <time>2022-06-11T08:05:35Z</time>
      </trkpt>
      <trkpt lat="44.07009" lon="7.25654">
        <ele>966.6</ele>
        <time>2022-06-11T08:05:36Z</time>
      </trkpt>
      <trkpt lat="44.0701" lon="7.25653">
        <ele>966.6</ele>
        <time>2022-06-11T08:05:37Z</time>
      </trkpt>
      <trkpt lat="44.07011" lon="7.25652">
        <ele>966.6</ele>
        <time>2022-06-11T08:05:38Z</time>
      </trkpt>
      <trkpt lat="44.07012" lon="7.25651">
        <ele>966.5</ele>
        <time>2022-06-11T08:05:39Z</time>
      </trkpt>
      <trkpt lat="44.07013" lon="7.2565">
        <ele>966.4</ele>
        <time>2022-06-11T08:05:40Z</time>
      </trkpt>
      <trkpt lat="44.07014" lon="7.25649">
        <ele>966.4</ele>
        <time>2022-06-11T08:05:41Z</time>
      </trkpt>
      <trkpt lat="44.07015" lon="7.25649">
        <ele>966.3</ele>
        <time>2022-06-11T08:05:42Z</time>
      </trkpt>
      <trkpt lat="44.07016" lon="7.25647">
        <ele>966.2</ele>
        <time>2022-06-11T08:05:43Z</time>
      </trkpt>
      <trkpt lat="44.07017" lon="7.25646">
        <ele>966</ele>
        <time>2022-06-11T08:05:44Z</time>
      </trkpt>
      <trkpt lat="44.07017" lon="7.25644">
        <ele>965.7</ele>
        <time>2022-06-11T08:05:45Z</time>
      </trkpt>
      <trkpt lat="44.07018" lon="7.25641">
        <ele>965.3</ele>
        <time>2022-06-11T08:05:46Z</time>
      </trkpt>
      <trkpt lat="44.07019" lon="7.25639">
        <ele>965.1</ele>
        <time>2022-06-11T08:05:47Z</time>
      </trkpt>
      <trkpt lat="44.07022" lon="7.25638">
        <ele>965.2</ele>
        <time>2022-06-11T08:05:48Z</time>
      </trkpt>
      <trkpt lat="44.07025" lon="7.25637">
        <ele>965.5</ele>
        <time>2022-06-11T08:05:49Z</time>
      </trkpt>
      <trkpt lat="44.07028" lon="7.25637">
        <ele>965.8</ele>
        <time>2022-06-11T08:05:50Z</time>
      </trkpt>
      <trkpt lat="44.0703" lon="7.25637">
        <ele>966.1</ele>
        <time>2022-06-11T08:05:51Z</time>
      </trkpt>
      <trkpt lat="44.07033" lon="7.25635">
        <ele>966.3</ele>
        <time>2022-06-11T08:05:52Z</time>
      </trkpt>
      <trkpt lat="44.07035" lon="7.25634">
        <ele>966.5</ele>
        <time>2022-06-11T08:05:53Z</time>
      </trkpt>
      <trkpt lat="44.07037" lon="7.25631">
        <ele>966.5</ele>
        <time>2022-06-11T08:05:54Z</time>
      </trkpt>
      <trkpt lat="44.07039" lon="7.25629">
        <ele>966.5</ele>
        <time>2022-06-11T08:05:55Z</time>
      </trkpt>
      <trkpt lat="44.07041" lon="7.25625">
        <ele>966.5</ele>
        <time>2022-06-11T08:05:56Z</time>
      </trkpt>
      <trkpt lat="44.07044" lon="7.25622">
        <ele>966.5</ele>
        <time>2022-06-11T08:05:57Z</time>
      </trkpt>
      <trkpt lat="44.07046" lon="7.25618">
        <ele>966.3</ele>
        <time>2022-06-11T08:05:58Z</time>
      </trkpt>
      <trkpt lat="44.07049" lon="7.25615">
        <ele>966.4</ele>
        <time>2022-06-11T08:05:59Z</time>
      </trkpt>
      <trkpt lat="44.07051" lon="7.25611">
        <ele>966.3</ele>
        <time>2022-06-11T08:06:00Z</time>
      </trkpt>
      <trkpt lat="44.07053" lon="7.25608">
        <ele>966.3</ele>
        <time>2022-06-11T08:06:01Z</time>
      </trkpt>
      <trkpt lat="44.07055" lon="7.25604">
        <ele>966.2</ele>
        <time>2022-06-11T08:06:02Z</time>
      </trkpt>
      <trkpt lat="44.07058" lon="7.25601">
        <ele>966.2</ele>
        <time>2022-06-11T08:06:03Z</time>
      </trkpt>
      <trkpt lat="44.07061" lon="7.25597">
        <ele>966</ele>
        <time>2022-06-11T08:06:04Z</time>
      </trkpt>
      <trkpt lat="44.07063" lon="7.25594">
        <ele>965.9</ele>
        <time>2022-06-11T08:06:05Z</time>
      </trkpt>
      <trkpt lat="44.07065" lon="7.2559">
        <ele>965.8</ele>
        <time>2022-06-11T08:06:06Z</time>
      </trkpt>
      <trkpt lat="44.07069" lon="7.25587">
        <ele>965.8</ele>
        <time>2022-06-11T08:06:07Z</time>
      </trkpt>
      <trkpt lat="44.07071" lon="7.25583">
        <ele>965.7</ele>
        <time>2022-06-11T08:06:08Z</time>
      </trkpt>
      <trkpt lat="44.07073" lon="7.25579">
        <ele>965.6</ele>
        <time>2022-06-11T08:06:09Z</time>
      </trkpt>
      <trkpt lat="44.07076" lon="7.25576">
        <ele>965.6</ele>
        <time>2022-06-11T08:06:10Z</time>
      </trkpt>
      <trkpt lat="44.07078" lon="7.25572">
        <ele>965.5</ele>
        <time>2022-06-11T08:06:11Z</time>
      </trkpt>
      <trkpt lat="44.0708" lon="7.25567">
        <ele>965.4</ele>
        <time>2022-06-11T08:06:12Z</time>
      </trkpt>
      <trkpt lat="44.07083" lon="7.25564">
        <ele>965.5</ele>
        <time>2022-06-11T08:06:13Z</time>
      </trkpt>
      <trkpt lat="44.07086" lon="7.25561">
        <ele>965.6</ele>
        <time>2022-06-11T08:06:14Z</time>
      </trkpt>
      <trkpt lat="44.07088" lon="7.25558">
        <ele>965.7</ele>
        <time>2022-06-11T08:06:15Z</time>
      </trkpt>
      <trkpt lat="44.07091" lon="7.25554">
        <ele>965.6</ele>
        <time>2022-06-11T08:06:16Z</time>
      </trkpt>
      <trkpt lat="44.07093" lon="7.25549">
        <ele>965.3</ele>
        <time>2022-06-11T08:06:17Z</time>
      </trkpt>
      <trkpt lat="44.07095" lon="7.25544">
        <ele>965.2</ele>
        <time>2022-06-11T08:06:18Z</time>
      </trkpt>
      <trkpt lat="44.07097" lon="7.25541">
        <ele>965.2</ele>
        <time>2022-06-11T08:06:19Z</time>
      </trkpt>
      <trkpt lat="44.071" lon="7.25537">
        <ele>965.2</ele>
        <time>2022-06-11T08:06:20Z</time>
      </trkpt>
      <trkpt lat="44.07102" lon="7.25533">
        <ele>965.2</ele>
        <time>2022-06-11T08:06:21Z</time>
      </trkpt>
      <trkpt lat="44.07105" lon="7.25529">
        <ele>965.2</ele>
        <time>2022-06-11T08:06:22Z</time>
      </trkpt>
      <trkpt lat="44.07107" lon="7.25525">
        <ele>965.2</ele>
        <time>2022-06-11T08:06:23Z</time>
      </trkpt>
      <trkpt lat="44.07109" lon="7.25521">
        <ele>965.2</ele>
        <time>2022-06-11T08:06:24Z</time>
      </trkpt>
      <trkpt lat="44.07111" lon="7.25517">
        <ele>965.2</ele>
        <time>2022-06-11T08:06:25Z</time>
      </trkpt>
      <trkpt lat="44.07113" lon="7.25513">
        <ele>965.3</ele>
        <time>2022-06-11T08:06:26Z</time>
      </trkpt>
      <trkpt lat="44.07115" lon="7.2551">
        <ele>965.3</ele>
        <time>2022-06-11T08:06:27Z</time>
      </trkpt>
      <trkpt lat="44.07117" lon="7.25505">
        <ele>965.3</ele>
        <time>2022-06-11T08:06:28Z</time>
      </trkpt>
      <trkpt lat="44.07119" lon="7.25501">
        <ele>965.5</ele>
        <time>2022-06-11T08:06:29Z</time>
      </trkpt>
      <trkpt lat="44.07121" lon="7.25497">
        <ele>965.7</ele>
        <time>2022-06-11T08:06:30Z</time>
      </trkpt>
      <trkpt lat="44.07124" lon="7.25493">
        <ele>966</ele>
        <time>2022-06-11T08:06:31Z</time>
      </trkpt>
      <trkpt lat="44.07126" lon="7.2549">
        <ele>966.4</ele>
        <time>2022-06-11T08:06:32Z</time>
      </trkpt>
      <trkpt lat="44.07128" lon="7.25486">
        <ele>966.6</ele>
        <time>2022-06-11T08:06:33Z</time>
      </trkpt>
      <trkpt lat="44.0713" lon="7.25482">
        <ele>966.7</ele>
        <time>2022-06-11T08:06:34Z</time>
      </trkpt>
      <trkpt lat="44.07132" lon="7.25477">
        <ele>966.8</ele>
        <time>2022-06-11T08:06:35Z</time>
      </trkpt>
      <trkpt lat="44.07133" lon="7.25473">
        <ele>967</ele>
        <time>2022-06-11T08:06:36Z</time>
      </trkpt>
      <trkpt lat="44.07135" lon="7.25468">
        <ele>967.2</ele>
        <time>2022-06-11T08:06:37Z</time>
      </trkpt>
      <trkpt lat="44.07137" lon="7.25464">
        <ele>967.6</ele>
        <time>2022-06-11T08:06:38Z</time>
      </trkpt>
      <trkpt lat="44.07138" lon="7.2546">
        <ele>967.9</ele>
        <time>2022-06-11T08:06:39Z</time>
      </trkpt>
      <trkpt lat="44.0714" lon="7.25455">
        <ele>968.1</ele>
        <time>2022-06-11T08:06:40Z</time>
      </trkpt>
      <trkpt lat="44.07141" lon="7.25451">
        <ele>968.4</ele>
        <time>2022-06-11T08:06:41Z</time>
      </trkpt>
      <trkpt lat="44.07143" lon="7.25447">
        <ele>968.7</ele>
        <time>2022-06-11T08:06:42Z</time>
      </trkpt>
      <trkpt lat="44.07145" lon="7.25443">
        <ele>969</ele>
        <time>2022-06-11T08:06:43Z</time>
      </trkpt>
      <trkpt lat="44.07147" lon="7.2544">
        <ele>969.2</ele>
        <time>2022-06-11T08:06:44Z</time>
      </trkpt>
      <trkpt lat="44.07148" lon="7.25436">
        <ele>969.4</ele>
        <time>2022-06-11T08:06:45Z</time>
      </trkpt>
      <trkpt lat="44.0715" lon="7.25432">
        <ele>969.6</ele>
        <time>2022-06-11T08:06:46Z</time>
      </trkpt>
      <trkpt lat="44.07152" lon="7.25429">
        <ele>969.8</ele>
        <time>2022-06-11T08:06:47Z</time>
      </trkpt>
      <trkpt lat="44.07154" lon="7.25425">
        <ele>970</ele>
        <time>2022-06-11T08:06:48Z</time>
      </trkpt>
      <trkpt lat="44.07156" lon="7.25422">
        <ele>970.2</ele>
        <time>2022-06-11T08:06:49Z</time>
      </trkpt>
      <trkpt lat="44.07158" lon="7.25417">
        <ele>970.4</ele>
        <time>2022-06-11T08:06:50Z</time>
      </trkpt>
      <trkpt lat="44.0716" lon="7.25413">
        <ele>970.5</ele>
        <time>2022-06-11T08:06:51Z</time>
      </trkpt>
      <trkpt lat="44.07163" lon="7.25409">
        <ele>970.7</ele>
        <time>2022-06-11T08:06:52Z</time>
      </trkpt>
      <trkpt lat="44.07165" lon="7.25406">
        <ele>970.9</ele>
        <time>2022-06-11T08:06:53Z</time>
      </trkpt>
      <trkpt lat="44.07167" lon="7.25402">
        <ele>971</ele>
        <time>2022-06-11T08:06:54Z</time>
      </trkpt>
      <trkpt lat="44.07169" lon="7.25397">
        <ele>971.1</ele>
        <time>2022-06-11T08:06:55Z</time>
      </trkpt>
      <trkpt lat="44.07172" lon="7.25393">
        <ele>971.4</ele>
        <time>2022-06-11T08:06:56Z</time>
      </trkpt>
      <trkpt lat="44.07174" lon="7.25389">
        <ele>971.6</ele>
        <time>2022-06-11T08:06:57Z</time>
      </trkpt>
      <trkpt lat="44.07177" lon="7.25385">
        <ele>971.9</ele>
        <time>2022-06-11T08:06:58Z</time>
      </trkpt>
      <trkpt lat="44.07179" lon="7.25381">
        <ele>972</ele>
        <time>2022-06-11T08:06:59Z</time>
      </trkpt>
      <trkpt lat="44.07182" lon="7.25377">
        <ele>972.4</ele>
        <time>2022-06-11T08:07:00Z</time>
      </trkpt>
      <trkpt lat="44.07184" lon="7.25374">
        <ele>972.6</ele>
        <time>2022-06-11T08:07:01Z</time>
      </trkpt>
      <trkpt lat="44.07187" lon="7.2537">
        <ele>972.9</ele>
        <time>2022-06-11T08:07:02Z</time>
      </trkpt>
      <trkpt lat="44.07189" lon="7.25366">
        <ele>973.1</ele>
        <time>2022-06-11T08:07:03Z</time>
      </trkpt>
      <trkpt lat="44.07192" lon="7.25362">
        <ele>973.4</ele>
        <time>2022-06-11T08:07:04Z</time>
      </trkpt>
      <trkpt lat="44.07194" lon="7.25358">
        <ele>973.5</ele>
        <time>2022-06-11T08:07:05Z</time>
      </trkpt>
      <trkpt lat="44.07196" lon="7.25354">
        <ele>973.4</ele>
        <time>2022-06-11T08:07:06Z</time>
      </trkpt>
      <trkpt lat="44.07198" lon="7.25351">
        <ele>973.7</ele>
        <time>2022-06-11T08:07:07Z</time>
      </trkpt>
      <trkpt lat="44.07201" lon="7.25347">
        <ele>973.9</ele>
        <time>2022-06-11T08:07:08Z</time>
      </trkpt>
      <trkpt lat="44.07204" lon="7.25344">
        <ele>974.2</ele>
        <time>2022-06-11T08:07:09Z</time>
      </trkpt>
      <trkpt lat="44.07207" lon="7.2534">
        <ele>974.4</ele>
        <time>2022-06-11T08:07:10Z</time>
      </trkpt>
      <trkpt lat="44.0721" lon="7.25336">
        <ele>974.5</ele>
        <time>2022-06-11T08:07:11Z</time>
      </trkpt>
      <trkpt lat="44.07212" lon="7.25333">
        <ele>974.8</ele>
        <time>2022-06-11T08:07:12Z</time>
      </trkpt>
      <trkpt lat="44.07216" lon="7.2533">
        <ele>975</ele>
        <time>2022-06-11T08:07:13Z</time>
      </trkpt>
      <trkpt lat="44.07219" lon="7.25327">
        <ele>975.2</ele>
        <time>2022-06-11T08:07:14Z</time>
      </trkpt>
      <trkpt lat="44.07222" lon="7.25324">
        <ele>975.6</ele>
        <time>2022-06-11T08:07:15Z</time>
      </trkpt>
      <trkpt lat="44.07225" lon="7.25321">
        <ele>975.8</ele>
        <time>2022-06-11T08:07:16Z</time>
      </trkpt>
      <trkpt lat="44.07228" lon="7.25318">
        <ele>976</ele>
        <time>2022-06-11T08:07:17Z</time>
      </trkpt>
      <trkpt lat="44.07231" lon="7.25316">
        <ele>976.3</ele>
        <time>2022-06-11T08:07:18Z</time>
      </trkpt>
      <trkpt lat="44.07234" lon="7.25312">
        <ele>976.5</ele>
        <time>2022-06-11T08:07:19Z</time>
      </trkpt>
      <trkpt lat="44.07238" lon="7.25307">
        <ele>976.6</ele>
        <time>2022-06-11T08:07:20Z</time>
      </trkpt>
      <trkpt lat="44.07241" lon="7.25304">
        <ele>976.8</ele>
        <time>2022-06-11T08:07:21Z</time>
      </trkpt>
      <trkpt lat="44.07245" lon="7.253">
        <ele>976.7</ele>
        <time>2022-06-11T08:07:22Z</time>
      </trkpt>
      <trkpt lat="44.07247" lon="7.25295">
        <ele>976.4</ele>
        <time>2022-06-11T08:07:23Z</time>
      </trkpt>
      <trkpt lat="44.07251" lon="7.2529">
        <ele>976.3</ele>
        <time>2022-06-11T08:07:24Z</time>
      </trkpt>
      <trkpt lat="44.07254" lon="7.25286">
        <ele>976.4</ele>
        <time>2022-06-11T08:07:25Z</time>
      </trkpt>
      <trkpt lat="44.07258" lon="7.25282">
        <ele>976.4</ele>
        <time>2022-06-11T08:07:26Z</time>
      </trkpt>
      <trkpt lat="44.07261" lon="7.25278">
        <ele>976.3</ele>
        <time>2022-06-11T08:07:27Z</time>
      </trkpt>
      <trkpt lat="44.07265" lon="7.25273">
        <ele>976.1</ele>
        <time>2022-06-11T08:07:28Z</time>
      </trkpt>
      <trkpt lat="44.07269" lon="7.25269">
        <ele>976.1</ele>
        <time>2022-06-11T08:07:29Z</time>
      </trkpt>
      <trkpt lat="44.07272" lon="7.25264">
        <ele>975.8</ele>
        <time>2022-06-11T08:07:30Z</time>
      </trkpt>
      <trkpt lat="44.07276" lon="7.2526">
        <ele>975.7</ele>
        <time>2022-06-11T08:07:31Z</time>
      </trkpt>
      <trkpt lat="44.0728" lon="7.25257">
        <ele>975.7</ele>
        <time>2022-06-11T08:07:32Z</time>
      </trkpt>
      <trkpt lat="44.07284" lon="7.25252">
        <ele>975.6</ele>
        <time>2022-06-11T08:07:33Z</time>
      </trkpt>
      <trkpt lat="44.07289" lon="7.25249">
        <ele>975.7</ele>
        <time>2022-06-11T08:07:34Z</time>
      </trkpt>
      <trkpt lat="44.07293" lon="7.25246">
        <ele>975.8</ele>
        <time>2022-06-11T08:07:35Z</time>
      </trkpt>
      <trkpt lat="44.07298" lon="7.25244">
        <ele>976.2</ele>
        <time>2022-06-11T08:07:36Z</time>
      </trkpt>
      <trkpt lat="44.07302" lon="7.25241">
        <ele>976.4</ele>
        <time>2022-06-11T08:07:37Z</time>
      </trkpt>
      <trkpt lat="44.07306" lon="7.25238">
        <ele>976.4</ele>
        <time>2022-06-11T08:07:38Z</time>
      </trkpt>
      <trkpt lat="44.0731" lon="7.25235">
        <ele>976.6</ele>
        <time>2022-06-11T08:07:39Z</time>
      </trkpt>
      <trkpt lat="44.07315" lon="7.25232">
        <ele>977</ele>
        <time>2022-06-11T08:07:40Z</time>
      </trkpt>
      <trkpt lat="44.07319" lon="7.25229">
        <ele>977.1</ele>
        <time>2022-06-11T08:07:41Z</time>
      </trkpt>
      <trkpt lat="44.07324" lon="7.25227">
        <ele>977.3</ele>
        <time>2022-06-11T08:07:42Z</time>
      </trkpt>
      <trkpt lat="44.07328" lon="7.25224">
        <ele>977.5</ele>
        <time>2022-06-11T08:07:43Z</time>
      </trkpt>
      <trkpt lat="44.07332" lon="7.25222">
        <ele>977.7</ele>
        <time>2022-06-11T08:07:44Z</time>
      </trkpt>
      <trkpt lat="44.07336" lon="7.25219">
        <ele>977.5</ele>
        <time>2022-06-11T08:07:45Z</time>
      </trkpt>
      <trkpt lat="44.07339" lon="7.25216">
        <ele>977.1</ele>
        <time>2022-06-11T08:07:46Z</time>
      </trkpt>
      <trkpt lat="44.07342" lon="7.25211">
        <ele>976.4</ele>
        <time>2022-06-11T08:07:47Z</time>
      </trkpt>
      <trkpt lat="44.07345" lon="7.25207">
        <ele>975.7</ele>
        <time>2022-06-11T08:07:48Z</time>
      </trkpt>
      <trkpt lat="44.07347" lon="7.25203">
        <ele>974.8</ele>
        <time>2022-06-11T08:07:49Z</time>
      </trkpt>
      <trkpt lat="44.07349" lon="7.25198">
        <ele>973.9</ele>
        <time>2022-06-11T08:07:50Z</time>
      </trkpt>
      <trkpt lat="44.07351" lon="7.25193">
        <ele>972.9</ele>
        <time>2022-06-11T08:07:51Z</time>
      </trkpt>
      <trkpt lat="44.07352" lon="7.25189">
        <ele>972.2</ele>
        <time>2022-06-11T08:07:52Z</time>
      </trkpt>
      <trkpt lat="44.07355" lon="7.25184">
        <ele>971.7</ele>
        <time>2022-06-11T08:07:53Z</time>
      </trkpt>
      <trkpt lat="44.07358" lon="7.25179">
        <ele>971.2</ele>
        <time>2022-06-11T08:07:54Z</time>
      </trkpt>
      <trkpt lat="44.07363" lon="7.25176">
        <ele>971.5</ele>
        <time>2022-06-11T08:07:55Z</time>
      </trkpt>
      <trkpt lat="44.07368" lon="7.25173">
        <ele>972</ele>
        <time>2022-06-11T08:07:56Z</time>
      </trkpt>
      <trkpt lat="44.07373" lon="7.25168">
        <ele>972.3</ele>
        <time>2022-06-11T08:07:57Z</time>
      </trkpt>
      <trkpt lat="44.07378" lon="7.25165">
        <ele>972.8</ele>
        <time>2022-06-11T08:07:58Z</time>
      </trkpt>
      <trkpt lat="44.07382" lon="7.25161">
        <ele>973.4</ele>
        <time>2022-06-11T08:07:59Z</time>
      </trkpt>
      <trkpt lat="44.07387" lon="7.25158">
        <ele>973.9</ele>
        <time>2022-06-11T08:08:00Z</time>
      </trkpt>
      <trkpt lat="44.07391" lon="7.25154">
        <ele>974.1</ele>
        <time>2022-06-11T08:08:01Z</time>
      </trkpt>
      <trkpt lat="44.07395" lon="7.2515">
        <ele>974.3</ele>
        <time>2022-06-11T08:08:02Z</time>
      </trkpt>
      <trkpt lat="44.07398" lon="7.25147">
        <ele>974.5</ele>
        <time>2022-06-11T08:08:03Z</time>
      </trkpt>
      <trkpt lat="44.07401" lon="7.25144">
        <ele>974.7</ele>
        <time>2022-06-11T08:08:04Z</time>
      </trkpt>
      <trkpt lat="44.07404" lon="7.25142">
        <ele>974.7</ele>
        <time>2022-06-11T08:08:05Z</time>
      </trkpt>
      <trkpt lat="44.07406" lon="7.25139">
        <ele>974.8</ele>
        <time>2022-06-11T08:08:06Z</time>
      </trkpt>
      <trkpt lat="44.07409" lon="7.25137">
        <ele>975.1</ele>
        <time>2022-06-11T08:08:07Z</time>
      </trkpt>
      <trkpt lat="44.07411" lon="7.25135">
        <ele>975.4</ele>
        <time>2022-06-11T08:08:08Z</time>
      </trkpt>
      <trkpt lat="44.07413" lon="7.25133">
        <ele>975.6</ele>
        <time>2022-06-11T08:08:09Z</time>
      </trkpt>
      <trkpt lat="44.07415" lon="7.2513">
        <ele>975.7</ele>
        <time>2022-06-11T08:08:10Z</time>
      </trkpt>
      <trkpt lat="44.07417" lon="7.25128">
        <ele>975.8</ele>
        <time>2022-06-11T08:08:11Z</time>
      </trkpt>
      <trkpt lat="44.07418" lon="7.25125">
        <ele>975.7</ele>
        <time>2022-06-11T08:08:12Z</time>
      </trkpt>
      <trkpt lat="44.07419" lon="7.25122">
        <ele>975.6</ele>
        <time>2022-06-11T08:08:13Z</time>
      </trkpt>
      <trkpt lat="44.0742" lon="7.25119">
        <ele>975.4</ele>
        <time>2022-06-11T08:08:14Z</time>
      </trkpt>
      <trkpt lat="44.07421" lon="7.25116">
        <ele>975.3</ele>
        <time>2022-06-11T08:08:15Z</time>
      </trkpt>
      <trkpt lat="44.07421" lon="7.25114">
        <ele>975</ele>
        <time>2022-06-11T08:08:16Z</time>
      </trkpt>
      <trkpt lat="44.07421" lon="7.25114">
        <ele>975</ele>
        <time>2022-06-11T08:08:17Z</time>
      </trkpt>
      <trkpt lat="44.07415" lon="7.25101">
        <ele>973.4</ele>
        <time>2022-06-11T08:10:57Z</time>
      </trkpt>
      <trkpt lat="44.07413" lon="7.25097">
        <ele>973.1</ele>
        <time>2022-06-11T08:10:58Z</time>
      </trkpt>
      <trkpt lat="44.07412" lon="7.25092">
        <ele>972.9</ele>
        <time>2022-06-11T08:10:59Z</time>
      </trkpt>
      <trkpt lat="44.07411" lon="7.25087">
        <ele>972.7</ele>
        <time>2022-06-11T08:11:00Z</time>
      </trkpt>
      <trkpt lat="44.07411" lon="7.25082">
        <ele>972.6</ele>
        <time>2022-06-11T08:11:01Z</time>
      </trkpt>
      <trkpt lat="44.0741" lon="7.25077">
        <ele>973</ele>
        <time>2022-06-11T08:11:02Z</time>
      </trkpt>
      <trkpt lat="44.07409" lon="7.25072">
        <ele>973.4</ele>
        <time>2022-06-11T08:11:03Z</time>
      </trkpt>
      <trkpt lat="44.07408" lon="7.25067">
        <ele>973.8</ele>
        <time>2022-06-11T08:11:04Z</time>
      </trkpt>
      <trkpt lat="44.07407" lon="7.25062">
        <ele>974.1</ele>
        <time>2022-06-11T08:11:05Z</time>
      </trkpt>
      <trkpt lat="44.07406" lon="7.25056">
        <ele>974.6</ele>
        <time>2022-06-11T08:11:06Z</time>
      </trkpt>
      <trkpt lat="44.07406" lon="7.25051">
        <ele>975.4</ele>
        <time>2022-06-11T08:11:07Z</time>
      </trkpt>
      <trkpt lat="44.07406" lon="7.25046">
        <ele>976.3</ele>
        <time>2022-06-11T08:11:08Z</time>
      </trkpt>
      <trkpt lat="44.07406" lon="7.2504">
        <ele>977.3</ele>
        <time>2022-06-11T08:11:09Z</time>
      </trkpt>
      <trkpt lat="44.07406" lon="7.25034">
        <ele>978.4</ele>
        <time>2022-06-11T08:11:10Z</time>
      </trkpt>
      <trkpt lat="44.07408" lon="7.25028">
        <ele>979.2</ele>
        <time>2022-06-11T08:11:11Z</time>
      </trkpt>
      <trkpt lat="44.0741" lon="7.25024">
        <ele>980.2</ele>
        <time>2022-06-11T08:11:12Z</time>
      </trkpt>
      <trkpt lat="44.07413" lon="7.2502">
        <ele>980.8</ele>
        <time>2022-06-11T08:11:13Z</time>
      </trkpt>
      <trkpt lat="44.07416" lon="7.25017">
        <ele>981.3</ele>
        <time>2022-06-11T08:11:14Z</time>
      </trkpt>
      <trkpt lat="44.07419" lon="7.25015">
        <ele>981.7</ele>
        <time>2022-06-11T08:11:15Z</time>
      </trkpt>
      <trkpt lat="44.07423" lon="7.25013">
        <ele>982</ele>
        <time>2022-06-11T08:11:16Z</time>
      </trkpt>
      <trkpt lat="44.07426" lon="7.25011">
        <ele>982.2</ele>
        <time>2022-06-11T08:11:17Z</time>
      </trkpt>
      <trkpt lat="44.07429" lon="7.25009">
        <ele>982.4</ele>
        <time>2022-06-11T08:11:18Z</time>
      </trkpt>
      <trkpt lat="44.07433" lon="7.25008">
        <ele>982.5</ele>
        <time>2022-06-11T08:11:19Z</time>
      </trkpt>
      <trkpt lat="44.07436" lon="7.25006">
        <ele>982.7</ele>
        <time>2022-06-11T08:11:20Z</time>
      </trkpt>
      <trkpt lat="44.0744" lon="7.25004">
        <ele>982.7</ele>
        <time>2022-06-11T08:11:21Z</time>
      </trkpt>
      <trkpt lat="44.07443" lon="7.25002">
        <ele>982.8</ele>
        <time>2022-06-11T08:11:22Z</time>
      </trkpt>
      <trkpt lat="44.07446" lon="7.25001">
        <ele>982.9</ele>
        <time>2022-06-11T08:11:23Z</time>
      </trkpt>
      <trkpt lat="44.07449" lon="7.24999">
        <ele>983.1</ele>
        <time>2022-06-11T08:11:24Z</time>
      </trkpt>
      <trkpt lat="44.07452" lon="7.24997">
        <ele>983.4</ele>
        <time>2022-06-11T08:11:25Z</time>
      </trkpt>
      <trkpt lat="44.07455" lon="7.24996">
        <ele>983.6</ele>
        <time>2022-06-11T08:11:26Z</time>
      </trkpt>
      <trkpt lat="44.07458" lon="7.24994">
        <ele>983.8</ele>
        <time>2022-06-11T08:11:27Z</time>
      </trkpt>
      <trkpt lat="44.07461" lon="7.24992">
        <ele>984</ele>
        <time>2022-06-11T08:11:28Z</time>
      </trkpt>
      <trkpt lat="44.07464" lon="7.2499">
        <ele>984.2</ele>
        <time>2022-06-11T08:11:29Z</time>
      </trkpt>
      <trkpt lat="44.07467" lon="7.24989">
        <ele>984.3</ele>
        <time>2022-06-11T08:11:30Z</time>
      </trkpt>
      <trkpt lat="44.0747" lon="7.24987">
        <ele>984.5</ele>
        <time>2022-06-11T08:11:31Z</time>
      </trkpt>
      <trkpt lat="44.07473" lon="7.24985">
        <ele>984.6</ele>
        <time>2022-06-11T08:11:32Z</time>
      </trkpt>
      <trkpt lat="44.07475" lon="7.24984">
        <ele>984.7</ele>
        <time>2022-06-11T08:11:33Z</time>
      </trkpt>
      <trkpt lat="44.07478" lon="7.24983">
        <ele>984.8</ele>
        <time>2022-06-11T08:11:34Z</time>
      </trkpt>
      <trkpt lat="44.07481" lon="7.24982">
        <ele>984.9</ele>
        <time>2022-06-11T08:11:35Z</time>
      </trkpt>
      <trkpt lat="44.07483" lon="7.24981">
        <ele>985</ele>
        <time>2022-06-11T08:11:36Z</time>
      </trkpt>
      <trkpt lat="44.07486" lon="7.2498">
        <ele>985.1</ele>
        <time>2022-06-11T08:11:37Z</time>
      </trkpt>
      <trkpt lat="44.07488" lon="7.24979">
        <ele>985.3</ele>
        <time>2022-06-11T08:11:38Z</time>
      </trkpt>
      <trkpt lat="44.07491" lon="7.24979">
        <ele>985.3</ele>
        <time>2022-06-11T08:11:39Z</time>
      </trkpt>
      <trkpt lat="44.07493" lon="7.24978">
        <ele>985.4</ele>
        <time>2022-06-11T08:11:40Z</time>
      </trkpt>
      <trkpt lat="44.07495" lon="7.24977">
        <ele>985.5</ele>
        <time>2022-06-11T08:11:41Z</time>
      </trkpt>
      <trkpt lat="44.07497" lon="7.24976">
        <ele>985.6</ele>
        <time>2022-06-11T08:11:42Z</time>
      </trkpt>
      <trkpt lat="44.075" lon="7.24975">
        <ele>985.7</ele>
        <time>2022-06-11T08:11:43Z</time>
      </trkpt>
      <trkpt lat="44.07502" lon="7.24974">
        <ele>986</ele>
        <time>2022-06-11T08:11:44Z</time>
      </trkpt>
      <trkpt lat="44.07504" lon="7.24974">
        <ele>986.3</ele>
        <time>2022-06-11T08:11:45Z</time>
      </trkpt>
      <trkpt lat="44.07506" lon="7.24973">
        <ele>986.6</ele>
        <time>2022-06-11T08:11:46Z</time>
      </trkpt>
      <trkpt lat="44.07509" lon="7.24973">
        <ele>986.9</ele>
        <time>2022-06-11T08:11:47Z</time>
      </trkpt>
      <trkpt lat="44.07511" lon="7.24972">
        <ele>987.2</ele>
        <time>2022-06-11T08:11:48Z</time>
      </trkpt>
      <trkpt lat="44.07513" lon="7.24972">
        <ele>987.5</ele>
        <time>2022-06-11T08:11:49Z</time>
      </trkpt>
      <trkpt lat="44.07515" lon="7.24972">
        <ele>987.8</ele>
        <time>2022-06-11T08:11:50Z</time>
      </trkpt>
      <trkpt lat="44.07517" lon="7.24971">
        <ele>988.1</ele>
        <time>2022-06-11T08:11:51Z</time>
      </trkpt>
      <trkpt lat="44.07519" lon="7.24971">
        <ele>988.4</ele>
        <time>2022-06-11T08:11:52Z</time>
      </trkpt>
      <trkpt lat="44.07522" lon="7.24971">
        <ele>988.7</ele>
        <time>2022-06-11T08:11:53Z</time>
      </trkpt>
      <trkpt lat="44.07524" lon="7.24971">
        <ele>988.9</ele>
        <time>2022-06-11T08:11:54Z</time>
      </trkpt>
      <trkpt lat="44.07525" lon="7.24971">
        <ele>989.2</ele>
        <time>2022-06-11T08:11:55Z</time>
      </trkpt>
      <trkpt lat="44.07527" lon="7.2497">
        <ele>989.4</ele>
        <time>2022-06-11T08:11:56Z</time>
      </trkpt>
      <trkpt lat="44.07529" lon="7.2497">
        <ele>989.7</ele>
        <time>2022-06-11T08:11:57Z</time>
      </trkpt>
      <trkpt lat="44.07531" lon="7.2497">
        <ele>990</ele>
        <time>2022-06-11T08:11:58Z</time>
      </trkpt>
      <trkpt lat="44.07534" lon="7.2497">
        <ele>990.2</ele>
        <time>2022-06-11T08:11:59Z</time>
      </trkpt>
      <trkpt lat="44.07536" lon="7.2497">
        <ele>990.3</ele>
        <time>2022-06-11T08:12:00Z</time>
      </trkpt>
      <trkpt lat="44.07538" lon="7.24971">
        <ele>990.4</ele>
        <time>2022-06-11T08:12:01Z</time>
      </trkpt>
      <trkpt lat="44.07539" lon="7.24971">
        <ele>990.5</ele>
        <time>2022-06-11T08:12:02Z</time>
      </trkpt>
      <trkpt lat="44.07541" lon="7.24971">
        <ele>990.7</ele>
        <time>2022-06-11T08:12:03Z</time>
      </trkpt>
      <trkpt lat="44.07543" lon="7.24971">
        <ele>990.9</ele>
        <time>2022-06-11T08:12:04Z</time>
      </trkpt>
      <trkpt lat="44.07546" lon="7.24972">
        <ele>991.1</ele>
        <time>2022-06-11T08:12:05Z</time>
      </trkpt>
      <trkpt lat="44.07548" lon="7.24972">
        <ele>991.3</ele>
        <time>2022-06-11T08:12:06Z</time>
      </trkpt>
      <trkpt lat="44.0755" lon="7.24972">
        <ele>991.6</ele>
        <time>2022-06-11T08:12:07Z</time>
      </trkpt>
      <trkpt lat="44.07552" lon="7.24972">
        <ele>991.8</ele>
        <time>2022-06-11T08:12:08Z</time>
      </trkpt>
      <trkpt lat="44.07554" lon="7.24972">
        <ele>991.8</ele>
        <time>2022-06-11T08:12:09Z</time>
      </trkpt>
      <trkpt lat="44.07556" lon="7.24972">
        <ele>992</ele>
        <time>2022-06-11T08:12:10Z</time>
      </trkpt>
      <trkpt lat="44.07558" lon="7.24973">
        <ele>992.2</ele>
        <time>2022-06-11T08:12:11Z</time>
      </trkpt>
      <trkpt lat="44.0756" lon="7.24973">
        <ele>992.4</ele>
        <time>2022-06-11T08:12:12Z</time>
      </trkpt>
      <trkpt lat="44.07562" lon="7.24972">
        <ele>992.6</ele>
        <time>2022-06-11T08:12:13Z</time>
      </trkpt>
      <trkpt lat="44.07564" lon="7.24973">
        <ele>992.8</ele>
        <time>2022-06-11T08:12:14Z</time>
      </trkpt>
      <trkpt lat="44.07566" lon="7.24973">
        <ele>992.9</ele>
        <time>2022-06-11T08:12:15Z</time>
      </trkpt>
      <trkpt lat="44.07568" lon="7.24974">
        <ele>993.1</ele>
        <time>2022-06-11T08:12:16Z</time>
      </trkpt>
      <trkpt lat="44.0757" lon="7.24974">
        <ele>993.3</ele>
        <time>2022-06-11T08:12:17Z</time>
      </trkpt>
      <trkpt lat="44.07572" lon="7.24974">
        <ele>993.5</ele>
        <time>2022-06-11T08:12:18Z</time>
      </trkpt>
      <trkpt lat="44.07574" lon="7.24974">
        <ele>993.7</ele>
        <time>2022-06-11T08:12:19Z</time>
      </trkpt>
      <trkpt lat="44.07575" lon="7.24975">
        <ele>993.8</ele>
        <time>2022-06-11T08:12:20Z</time>
      </trkpt>
      <trkpt lat="44.07577" lon="7.24975">
        <ele>993.9</ele>
        <time>2022-06-11T08:12:21Z</time>
      </trkpt>
      <trkpt lat="44.07579" lon="7.24976">
        <ele>994.1</ele>
        <time>2022-06-11T08:12:22Z</time>
      </trkpt>
      <trkpt lat="44.07581" lon="7.24977">
        <ele>994.3</ele>
        <time>2022-06-11T08:12:23Z</time>
      </trkpt>
      <trkpt lat="44.07583" lon="7.24977">
        <ele>994.5</ele>
        <time>2022-06-11T08:12:24Z</time>
      </trkpt>
      <trkpt lat="44.07585" lon="7.24977">
        <ele>994.8</ele>
        <time>2022-06-11T08:12:25Z</time>
      </trkpt>
      <trkpt lat="44.07587" lon="7.24977">
        <ele>995</ele>
        <time>2022-06-11T08:12:26Z</time>
      </trkpt>
      <trkpt lat="44.07589" lon="7.24977">
        <ele>995.3</ele>
        <time>2022-06-11T08:12:27Z</time>
      </trkpt>
      <trkpt lat="44.07591" lon="7.24976">
        <ele>995.7</ele>
        <time>2022-06-11T08:12:28Z</time>
      </trkpt>
      <trkpt lat="44.07593" lon="7.24976">
        <ele>995.9</ele>
        <time>2022-06-11T08:12:29Z</time>
      </trkpt>
      <trkpt lat="44.07595" lon="7.24978">
        <ele>996</ele>
        <time>2022-06-11T08:12:30Z</time>
      </trkpt>
      <trkpt lat="44.07596" lon="7.24979">
        <ele>996</ele>
        <time>2022-06-11T08:12:31Z</time>
      </trkpt>
      <trkpt lat="44.07598" lon="7.2498">
        <ele>996.2</ele>
        <time>2022-06-11T08:12:32Z</time>
      </trkpt>
      <trkpt lat="44.07601" lon="7.2498">
        <ele>996.5</ele>
        <time>2022-06-11T08:12:33Z</time>
      </trkpt>
      <trkpt lat="44.07603" lon="7.2498">
        <ele>996.7</ele>
        <time>2022-06-11T08:12:34Z</time>
      </trkpt>
      <trkpt lat="44.07605" lon="7.24981">
        <ele>997</ele>
        <time>2022-06-11T08:12:35Z</time>
      </trkpt>
      <trkpt lat="44.07607" lon="7.24981">
        <ele>997.3</ele>
        <time>2022-06-11T08:12:36Z</time>
      </trkpt>
      <trkpt lat="44.0761" lon="7.24981">
        <ele>997.5</ele>
        <time>2022-06-11T08:12:37Z</time>
      </trkpt>
      <trkpt lat="44.07612" lon="7.24982">
        <ele>997.6</ele>
        <time>2022-06-11T08:12:38Z</time>
      </trkpt>
      <trkpt lat="44.07614" lon="7.24983">
        <ele>997.7</ele>
        <time>2022-06-11T08:12:39Z</time>
      </trkpt>
      <trkpt lat="44.07615" lon="7.24983">
        <ele>997.8</ele>
        <time>2022-06-11T08:12:40Z</time>
      </trkpt>
      <trkpt lat="44.07617" lon="7.24984">
        <ele>997.9</ele>
        <time>2022-06-11T08:12:41Z</time>
      </trkpt>
      <trkpt lat="44.07619" lon="7.24984">
        <ele>998</ele>
        <time>2022-06-11T08:12:42Z</time>
      </trkpt>
      <trkpt lat="44.07621" lon="7.24984">
        <ele>998.2</ele>
        <time>2022-06-11T08:12:43Z</time>
      </trkpt>
      <trkpt lat="44.07623" lon="7.24985">
        <ele>998.2</ele>
        <time>2022-06-11T08:12:44Z</time>
      </trkpt>
      <trkpt lat="44.07625" lon="7.24985">
        <ele>998.4</ele>
        <time>2022-06-11T08:12:45Z</time>
      </trkpt>
      <trkpt lat="44.07627" lon="7.24986">
        <ele>998.5</ele>
        <time>2022-06-11T08:12:46Z</time>
      </trkpt>
      <trkpt lat="44.07629" lon="7.24986">
        <ele>998.6</ele>
        <time>2022-06-11T08:12:47Z</time>
      </trkpt>
      <trkpt lat="44.07631" lon="7.24986">
        <ele>998.8</ele>
        <time>2022-06-11T08:12:48Z</time>
      </trkpt>
      <trkpt lat="44.07633" lon="7.24986">
        <ele>998.9</ele>
        <time>2022-06-11T08:12:49Z</time>
      </trkpt>
      <trkpt lat="44.07635" lon="7.24987">
        <ele>999.1</ele>
        <time>2022-06-11T08:12:50Z</time>
      </trkpt>
      <trkpt lat="44.07637" lon="7.24987">
        <ele>999.2</ele>
        <time>2022-06-11T08:12:51Z</time>
      </trkpt>
      <trkpt lat="44.07639" lon="7.24987">
        <ele>999.4</ele>
        <time>2022-06-11T08:12:52Z</time>
      </trkpt>
      <trkpt lat="44.07642" lon="7.24988">
        <ele>999.6</ele>
        <time>2022-06-11T08:12:53Z</time>
      </trkpt>
      <trkpt lat="44.07643" lon="7.24988">
        <ele>999.7</ele>
        <time>2022-06-11T08:12:54Z</time>
      </trkpt>
      <trkpt lat="44.07646" lon="7.24989">
        <ele>999.9</ele>
        <time>2022-06-11T08:12:55Z</time>
      </trkpt>
      <trkpt lat="44.07648" lon="7.2499">
        <ele>1000.1</ele>
        <time>2022-06-11T08:12:56Z</time>
      </trkpt>
      <trkpt lat="44.07649" lon="7.2499">
        <ele>1000.2</ele>
        <time>2022-06-11T08:12:57Z</time>
      </trkpt>
      <trkpt lat="44.07651" lon="7.2499">
        <ele>1000.4</ele>
        <time>2022-06-11T08:12:58Z</time>
      </trkpt>
      <trkpt lat="44.07653" lon="7.2499">
        <ele>1000.6</ele>
        <time>2022-06-11T08:12:59Z</time>
      </trkpt>
      <trkpt lat="44.07655" lon="7.2499">
        <ele>1000.8</ele>
        <time>2022-06-11T08:13:00Z</time>
      </trkpt>
      <trkpt lat="44.07658" lon="7.24991">
        <ele>1001</ele>
        <time>2022-06-11T08:13:01Z</time>
      </trkpt>
      <trkpt lat="44.07659" lon="7.24991">
        <ele>1001.2</ele>
        <time>2022-06-11T08:13:02Z</time>
      </trkpt>
      <trkpt lat="44.07661" lon="7.24991">
        <ele>1001.3</ele>
        <time>2022-06-11T08:13:03Z</time>
      </trkpt>
      <trkpt lat="44.07663" lon="7.24992">
        <ele>1001.5</ele>
        <time>2022-06-11T08:13:04Z</time>
      </trkpt>
      <trkpt lat="44.07665" lon="7.24993">
        <ele>1001.6</ele>
        <time>2022-06-11T08:13:05Z</time>
      </trkpt>
      <trkpt lat="44.07668" lon="7.24993">
        <ele>1001.9</ele>
        <time>2022-06-11T08:13:06Z</time>
      </trkpt>
      <trkpt lat="44.0767" lon="7.24992">
        <ele>1002</ele>
        <time>2022-06-11T08:13:07Z</time>
      </trkpt>
      <trkpt lat="44.07672" lon="7.24992">
        <ele>1002.2</ele>
        <time>2022-06-11T08:13:08Z</time>
      </trkpt>
      <trkpt lat="44.07674" lon="7.24992">
        <ele>1002.4</ele>
        <time>2022-06-11T08:13:09Z</time>
      </trkpt>
      <trkpt lat="44.07676" lon="7.24992">
        <ele>1002.6</ele>
        <time>2022-06-11T08:13:10Z</time>
      </trkpt>
      <trkpt lat="44.07678" lon="7.24991">
        <ele>1002.8</ele>
        <time>2022-06-11T08:13:11Z</time>
      </trkpt>
      <trkpt lat="44.0768" lon="7.24991">
        <ele>1002.9</ele>
        <time>2022-06-11T08:13:12Z</time>
      </trkpt>
      <trkpt lat="44.07682" lon="7.24991">
        <ele>1003.1</ele>
        <time>2022-06-11T08:13:13Z</time>
      </trkpt>
      <trkpt lat="44.07684" lon="7.24992">
        <ele>1003.2</ele>
        <time>2022-06-11T08:13:14Z</time>
      </trkpt>
      <trkpt lat="44.07686" lon="7.24992">
        <ele>1003.3</ele>
        <time>2022-06-11T08:13:15Z</time>
      </trkpt>
      <trkpt lat="44.07688" lon="7.24992">
        <ele>1003.4</ele>
        <time>2022-06-11T08:13:16Z</time>
      </trkpt>
      <trkpt lat="44.0769" lon="7.24992">
        <ele>1003.6</ele>
        <time>2022-06-11T08:13:17Z</time>
      </trkpt>
      <trkpt lat="44.07692" lon="7.24991">
        <ele>1003.7</ele>
        <time>2022-06-11T08:13:18Z</time>
      </trkpt>
      <trkpt lat="44.07694" lon="7.24991">
        <ele>1003.9</ele>
        <time>2022-06-11T08:13:19Z</time>
      </trkpt>
      <trkpt lat="44.07696" lon="7.24992">
        <ele>1004.1</ele>
        <time>2022-06-11T08:13:20Z</time>
      </trkpt>
      <trkpt lat="44.07698" lon="7.24992">
        <ele>1004.2</ele>
        <time>2022-06-11T08:13:21Z</time>
      </trkpt>
      <trkpt lat="44.077" lon="7.24991">
        <ele>1004.4</ele>
        <time>2022-06-11T08:13:22Z</time>
      </trkpt>
      <trkpt lat="44.07702" lon="7.24991">
        <ele>1004.7</ele>
        <time>2022-06-11T08:13:23Z</time>
      </trkpt>
      <trkpt lat="44.07705" lon="7.24991">
        <ele>1004.9</ele>
        <time>2022-06-11T08:13:24Z</time>
      </trkpt>
      <trkpt lat="44.07707" lon="7.2499">
        <ele>1005.1</ele>
        <time>2022-06-11T08:13:25Z</time>
      </trkpt>
      <trkpt lat="44.07709" lon="7.2499">
        <ele>1005.3</ele>
        <time>2022-06-11T08:13:26Z</time>
      </trkpt>
      <trkpt lat="44.07712" lon="7.2499">
        <ele>1005.6</ele>
        <time>2022-06-11T08:13:27Z</time>
      </trkpt>
      <trkpt lat="44.07714" lon="7.2499">
        <ele>1005.8</ele>
        <time>2022-06-11T08:13:28Z</time>
      </trkpt>
      <trkpt lat="44.07716" lon="7.2499">
        <ele>1005.9</ele>
        <time>2022-06-11T08:13:29Z</time>
      </trkpt>
      <trkpt lat="44.07718" lon="7.2499">
        <ele>1006.1</ele>
        <time>2022-06-11T08:13:30Z</time>
      </trkpt>
      <trkpt lat="44.0772" lon="7.2499">
        <ele>1006.3</ele>
        <time>2022-06-11T08:13:31Z</time>
      </trkpt>
      <trkpt lat="44.07722" lon="7.2499">
        <ele>1006.4</ele>
        <time>2022-06-11T08:13:32Z</time>
      </trkpt>
      <trkpt lat="44.07724" lon="7.2499">
        <ele>1006.6</ele>
        <time>2022-06-11T08:13:33Z</time>
      </trkpt>
      <trkpt lat="44.07726" lon="7.2499">
        <ele>1006.6</ele>
        <time>2022-06-11T08:13:34Z</time>
      </trkpt>
      <trkpt lat="44.07728" lon="7.2499">
        <ele>1006.7</ele>
        <time>2022-06-11T08:13:35Z</time>
      </trkpt>
      <trkpt lat="44.07731" lon="7.2499">
        <ele>1006.8</ele>
        <time>2022-06-11T08:13:36Z</time>
      </trkpt>
      <trkpt lat="44.07733" lon="7.2499">
        <ele>1006.9</ele>
        <time>2022-06-11T08:13:37Z</time>
      </trkpt>
      <trkpt lat="44.07735" lon="7.24989">
        <ele>1007</ele>
        <time>2022-06-11T08:13:38Z</time>
      </trkpt>
      <trkpt lat="44.07737" lon="7.24989">
        <ele>1007.1</ele>
        <time>2022-06-11T08:13:39Z</time>
      </trkpt>
      <trkpt lat="44.07739" lon="7.24989">
        <ele>1007.2</ele>
        <time>2022-06-11T08:13:40Z</time>
      </trkpt>
      <trkpt lat="44.07741" lon="7.24989">
        <ele>1007.3</ele>
        <time>2022-06-11T08:13:41Z</time>
      </trkpt>
      <trkpt lat="44.07744" lon="7.24989">
        <ele>1007.4</ele>
        <time>2022-06-11T08:13:42Z</time>
      </trkpt>
      <trkpt lat="44.07746" lon="7.24989">
        <ele>1007.4</ele>
        <time>2022-06-11T08:13:43Z</time>
      </trkpt>
      <trkpt lat="44.07748" lon="7.24989">
        <ele>1007.5</ele>
        <time>2022-06-11T08:13:44Z</time>
      </trkpt>
      <trkpt lat="44.0775" lon="7.24989">
        <ele>1007.5</ele>
        <time>2022-06-11T08:13:45Z</time>
      </trkpt>
      <trkpt lat="44.07753" lon="7.24989">
        <ele>1007.7</ele>
        <time>2022-06-11T08:13:46Z</time>
      </trkpt>
      <trkpt lat="44.07755" lon="7.24989">
        <ele>1007.8</ele>
        <time>2022-06-11T08:13:47Z</time>
      </trkpt>
      <trkpt lat="44.07758" lon="7.24989">
        <ele>1008</ele>
        <time>2022-06-11T08:13:48Z</time>
      </trkpt>
      <trkpt lat="44.0776" lon="7.24989">
        <ele>1008.1</ele>
        <time>2022-06-11T08:13:49Z</time>
      </trkpt>
      <trkpt lat="44.07762" lon="7.24988">
        <ele>1008.3</ele>
        <time>2022-06-11T08:13:50Z</time>
      </trkpt>
      <trkpt lat="44.07764" lon="7.24988">
        <ele>1008.4</ele>
        <time>2022-06-11T08:13:51Z</time>
      </trkpt>
      <trkpt lat="44.07767" lon="7.24988">
        <ele>1008.5</ele>
        <time>2022-06-11T08:13:52Z</time>
      </trkpt>
      <trkpt lat="44.07769" lon="7.24988">
        <ele>1008.6</ele>
        <time>2022-06-11T08:13:53Z</time>
      </trkpt>
      <trkpt lat="44.07771" lon="7.24988">
        <ele>1008.8</ele>
        <time>2022-06-11T08:13:54Z</time>
      </trkpt>
      <trkpt lat="44.07773" lon="7.24988">
        <ele>1008.8</ele>
        <time>2022-06-11T08:13:55Z</time>
      </trkpt>
      <trkpt lat="44.07775" lon="7.24989">
        <ele>1008.9</ele>
        <time>2022-06-11T08:13:56Z</time>
      </trkpt>
      <trkpt lat="44.07776" lon="7.24989">
        <ele>1008.9</ele>
        <time>2022-06-11T08:13:57Z</time>
      </trkpt>
      <trkpt lat="44.07778" lon="7.24989">
        <ele>1009</ele>
        <time>2022-06-11T08:13:58Z</time>
      </trkpt>
      <trkpt lat="44.07781" lon="7.24989">
        <ele>1009.1</ele>
        <time>2022-06-11T08:13:59Z</time>
      </trkpt>
      <trkpt lat="44.07782" lon="7.24989">
        <ele>1009.3</ele>
        <time>2022-06-11T08:14:00Z</time>
      </trkpt>
      <trkpt lat="44.07784" lon="7.24989">
        <ele>1009.3</ele>
        <time>2022-06-11T08:14:01Z</time>
      </trkpt>
      <trkpt lat="44.07787" lon="7.2499">
        <ele>1009.3</ele>
        <time>2022-06-11T08:14:02Z</time>
      </trkpt>
      <trkpt lat="44.07789" lon="7.2499">
        <ele>1009.4</ele>
        <time>2022-06-11T08:14:03Z</time>
      </trkpt>
      <trkpt lat="44.07791" lon="7.2499">
        <ele>1009.6</ele>
        <time>2022-06-11T08:14:04Z</time>
      </trkpt>
      <trkpt lat="44.07793" lon="7.2499">
        <ele>1009.7</ele>
        <time>2022-06-11T08:14:05Z</time>
      </trkpt>
      <trkpt lat="44.07795" lon="7.24989">
        <ele>1009.9</ele>
        <time>2022-06-11T08:14:06Z</time>
      </trkpt>
      <trkpt lat="44.07797" lon="7.24988">
        <ele>1010.2</ele>
        <time>2022-06-11T08:14:07Z</time>
      </trkpt>
      <trkpt lat="44.078" lon="7.24988">
        <ele>1010.5</ele>
        <time>2022-06-11T08:14:08Z</time>
      </trkpt>
      <trkpt lat="44.07802" lon="7.24987">
        <ele>1010.6</ele>
        <time>2022-06-11T08:14:09Z</time>
      </trkpt>
      <trkpt lat="44.07804" lon="7.24987">
        <ele>1010.8</ele>
        <time>2022-06-11T08:14:10Z</time>
      </trkpt>
      <trkpt lat="44.07806" lon="7.24987">
        <ele>1010.9</ele>
        <time>2022-06-11T08:14:11Z</time>
      </trkpt>
      <trkpt lat="44.07809" lon="7.24987">
        <ele>1011</ele>
        <time>2022-06-11T08:14:12Z</time>
      </trkpt>
      <trkpt lat="44.07811" lon="7.24988">
        <ele>1011.2</ele>
        <time>2022-06-11T08:14:13Z</time>
      </trkpt>
      <trkpt lat="44.07814" lon="7.24988">
        <ele>1011.4</ele>
        <time>2022-06-11T08:14:14Z</time>
      </trkpt>
      <trkpt lat="44.07816" lon="7.24987">
        <ele>1011.6</ele>
        <time>2022-06-11T08:14:15Z</time>
      </trkpt>
      <trkpt lat="44.07818" lon="7.24987">
        <ele>1011.8</ele>
        <time>2022-06-11T08:14:16Z</time>
      </trkpt>
      <trkpt lat="44.07821" lon="7.24987">
        <ele>1011.9</ele>
        <time>2022-06-11T08:14:17Z</time>
      </trkpt>
      <trkpt lat="44.07823" lon="7.24987">
        <ele>1012.1</ele>
        <time>2022-06-11T08:14:18Z</time>
      </trkpt>
      <trkpt lat="44.07825" lon="7.24987">
        <ele>1012.3</ele>
        <time>2022-06-11T08:14:19Z</time>
      </trkpt>
      <trkpt lat="44.07828" lon="7.24987">
        <ele>1012.5</ele>
        <time>2022-06-11T08:14:20Z</time>
      </trkpt>
      <trkpt lat="44.07831" lon="7.24986">
        <ele>1012.8</ele>
        <time>2022-06-11T08:14:21Z</time>
      </trkpt>
      <trkpt lat="44.07833" lon="7.24986">
        <ele>1013</ele>
        <time>2022-06-11T08:14:22Z</time>
      </trkpt>
      <trkpt lat="44.07835" lon="7.24986">
        <ele>1013.3</ele>
        <time>2022-06-11T08:14:23Z</time>
      </trkpt>
      <trkpt lat="44.07838" lon="7.24986">
        <ele>1013.5</ele>
        <time>2022-06-11T08:14:24Z</time>
      </trkpt>
      <trkpt lat="44.0784" lon="7.24986">
        <ele>1013.7</ele>
        <time>2022-06-11T08:14:25Z</time>
      </trkpt>
      <trkpt lat="44.07842" lon="7.24986">
        <ele>1014</ele>
        <time>2022-06-11T08:14:26Z</time>
      </trkpt>
      <trkpt lat="44.07844" lon="7.24986">
        <ele>1014.3</ele>
        <time>2022-06-11T08:14:27Z</time>
      </trkpt>
      <trkpt lat="44.07847" lon="7.24986">
        <ele>1014.5</ele>
        <time>2022-06-11T08:14:28Z</time>
      </trkpt>
      <trkpt lat="44.07849" lon="7.24985">
        <ele>1014.8</ele>
        <time>2022-06-11T08:14:29Z</time>
      </trkpt>
      <trkpt lat="44.07851" lon="7.24985">
        <ele>1015</ele>
        <time>2022-06-11T08:14:30Z</time>
      </trkpt>
      <trkpt lat="44.07854" lon="7.24985">
        <ele>1015.3</ele>
        <time>2022-06-11T08:14:31Z</time>
      </trkpt>
      <trkpt lat="44.07857" lon="7.24985">
        <ele>1015.6</ele>
        <time>2022-06-11T08:14:32Z</time>
      </trkpt>
      <trkpt lat="44.0786" lon="7.24986">
        <ele>1015.9</ele>
        <time>2022-06-11T08:14:33Z</time>
      </trkpt>
      <trkpt lat="44.07863" lon="7.24987">
        <ele>1016.1</ele>
        <time>2022-06-11T08:14:34Z</time>
      </trkpt>
      <trkpt lat="44.07867" lon="7.24988">
        <ele>1016.3</ele>
        <time>2022-06-11T08:14:35Z</time>
      </trkpt>
      <trkpt lat="44.07871" lon="7.2499">
        <ele>1016.3</ele>
        <time>2022-06-11T08:14:36Z</time>
      </trkpt>
      <trkpt lat="44.07874" lon="7.24993">
        <ele>1016.4</ele>
        <time>2022-06-11T08:14:37Z</time>
      </trkpt>
      <trkpt lat="44.07878" lon="7.24995">
        <ele>1016.4</ele>
        <time>2022-06-11T08:14:38Z</time>
      </trkpt>
      <trkpt lat="44.07882" lon="7.24997">
        <ele>1016.5</ele>
        <time>2022-06-11T08:14:39Z</time>
      </trkpt>
      <trkpt lat="44.07885" lon="7.25">
        <ele>1016.7</ele>
        <time>2022-06-11T08:14:40Z</time>
      </trkpt>
      <trkpt lat="44.07889" lon="7.25002">
        <ele>1016.8</ele>
        <time>2022-06-11T08:14:41Z</time>
      </trkpt>
      <trkpt lat="44.07892" lon="7.25003">
        <ele>1016.8</ele>
        <time>2022-06-11T08:14:42Z</time>
      </trkpt>
      <trkpt lat="44.07895" lon="7.25005">
        <ele>1016.8</ele>
        <time>2022-06-11T08:14:43Z</time>
      </trkpt>
      <trkpt lat="44.07899" lon="7.25006">
        <ele>1016.8</ele>
        <time>2022-06-11T08:14:44Z</time>
      </trkpt>
      <trkpt lat="44.07902" lon="7.25007">
        <ele>1016.8</ele>
        <time>2022-06-11T08:14:45Z</time>
      </trkpt>
      <trkpt lat="44.07905" lon="7.25008">
        <ele>1016.9</ele>
        <time>2022-06-11T08:14:46Z</time>
      </trkpt>
      <trkpt lat="44.07908" lon="7.25008">
        <ele>1017</ele>
        <time>2022-06-11T08:14:47Z</time>
      </trkpt>
      <trkpt lat="44.07911" lon="7.25009">
        <ele>1017.1</ele>
        <time>2022-06-11T08:14:48Z</time>
      </trkpt>
      <trkpt lat="44.07914" lon="7.25009">
        <ele>1017.3</ele>
        <time>2022-06-11T08:14:49Z</time>
      </trkpt>
      <trkpt lat="44.07918" lon="7.25008">
        <ele>1017.5</ele>
        <time>2022-06-11T08:14:50Z</time>
      </trkpt>
      <trkpt lat="44.07921" lon="7.25008">
        <ele>1017.6</ele>
        <time>2022-06-11T08:14:51Z</time>
      </trkpt>
      <trkpt lat="44.07924" lon="7.25008">
        <ele>1017.7</ele>
        <time>2022-06-11T08:14:52Z</time>
      </trkpt>
      <trkpt lat="44.07927" lon="7.25007">
        <ele>1017.9</ele>
        <time>2022-06-11T08:14:53Z</time>
      </trkpt>
      <trkpt lat="44.0793" lon="7.25007">
        <ele>1018</ele>
        <time>2022-06-11T08:14:54Z</time>
      </trkpt>
      <trkpt lat="44.07934" lon="7.25006">
        <ele>1018.2</ele>
        <time>2022-06-11T08:14:55Z</time>
      </trkpt>
      <trkpt lat="44.07937" lon="7.25006">
        <ele>1018.3</ele>
        <time>2022-06-11T08:14:56Z</time>
      </trkpt>
      <trkpt lat="44.0794" lon="7.25005">
        <ele>1018.5</ele>
        <time>2022-06-11T08:14:57Z</time>
      </trkpt>
      <trkpt lat="44.07944" lon="7.25004">
        <ele>1018.7</ele>
        <time>2022-06-11T08:14:58Z</time>
      </trkpt>
      <trkpt lat="44.07947" lon="7.25003">
        <ele>1018.8</ele>
        <time>2022-06-11T08:14:59Z</time>
      </trkpt>
      <trkpt lat="44.0795" lon="7.25002">
        <ele>1019.1</ele>
        <time>2022-06-11T08:15:00Z</time>
      </trkpt>
      <trkpt lat="44.07953" lon="7.25001">
        <ele>1019.3</ele>
        <time>2022-06-11T08:15:01Z</time>
      </trkpt>
      <trkpt lat="44.07956" lon="7.24999">
        <ele>1019.6</ele>
        <time>2022-06-11T08:15:02Z</time>
      </trkpt>
      <trkpt lat="44.0796" lon="7.24997">
        <ele>1019.8</ele>
        <time>2022-06-11T08:15:03Z</time>
      </trkpt>
      <trkpt lat="44.07963" lon="7.24995">
        <ele>1020.1</ele>
        <time>2022-06-11T08:15:04Z</time>
      </trkpt>
      <trkpt lat="44.07966" lon="7.24994">
        <ele>1020.3</ele>
        <time>2022-06-11T08:15:05Z</time>
      </trkpt>
      <trkpt lat="44.07969" lon="7.24992">
        <ele>1020.5</ele>
        <time>2022-06-11T08:15:06Z</time>
      </trkpt>
      <trkpt lat="44.07972" lon="7.24991">
        <ele>1020.7</ele>
        <time>2022-06-11T08:15:07Z</time>
      </trkpt>
      <trkpt lat="44.07975" lon="7.24989">
        <ele>1020.9</ele>
        <time>2022-06-11T08:15:08Z</time>
      </trkpt>
      <trkpt lat="44.07978" lon="7.24988">
        <ele>1021.1</ele>
        <time>2022-06-11T08:15:09Z</time>
      </trkpt>
      <trkpt lat="44.0798" lon="7.24987">
        <ele>1021.3</ele>
        <time>2022-06-11T08:15:10Z</time>
      </trkpt>
      <trkpt lat="44.07983" lon="7.24986">
        <ele>1021.4</ele>
        <time>2022-06-11T08:15:11Z</time>
      </trkpt>
      <trkpt lat="44.07986" lon="7.24984">
        <ele>1021.6</ele>
        <time>2022-06-11T08:15:12Z</time>
      </trkpt>
      <trkpt lat="44.07989" lon="7.24983">
        <ele>1021.8</ele>
        <time>2022-06-11T08:15:13Z</time>
      </trkpt>
      <trkpt lat="44.07991" lon="7.24982">
        <ele>1022</ele>
        <time>2022-06-11T08:15:14Z</time>
      </trkpt>
      <trkpt lat="44.07994" lon="7.24982">
        <ele>1022.1</ele>
        <time>2022-06-11T08:15:15Z</time>
      </trkpt>
      <trkpt lat="44.07997" lon="7.24981">
        <ele>1022.3</ele>
        <time>2022-06-11T08:15:16Z</time>
      </trkpt>
      <trkpt lat="44.08" lon="7.2498">
        <ele>1022.4</ele>
        <time>2022-06-11T08:15:17Z</time>
      </trkpt>
      <trkpt lat="44.08003" lon="7.2498">
        <ele>1022.7</ele>
        <time>2022-06-11T08:15:18Z</time>
      </trkpt>
      <trkpt lat="44.08005" lon="7.2498">
        <ele>1023</ele>
        <time>2022-06-11T08:15:19Z</time>
      </trkpt>
      <trkpt lat="44.08008" lon="7.2498">
        <ele>1023.3</ele>
        <time>2022-06-11T08:15:20Z</time>
      </trkpt>
      <trkpt lat="44.08011" lon="7.2498">
        <ele>1023.6</ele>
        <time>2022-06-11T08:15:21Z</time>
      </trkpt>
      <trkpt lat="44.08014" lon="7.2498">
        <ele>1023.8</ele>
        <time>2022-06-11T08:15:22Z</time>
      </trkpt>
      <trkpt lat="44.08016" lon="7.24979">
        <ele>1024.1</ele>
        <time>2022-06-11T08:15:23Z</time>
      </trkpt>
      <trkpt lat="44.08019" lon="7.24979">
        <ele>1024.4</ele>
        <time>2022-06-11T08:15:24Z</time>
      </trkpt>
      <trkpt lat="44.08022" lon="7.24978">
        <ele>1024.8</ele>
        <time>2022-06-11T08:15:25Z</time>
      </trkpt>
      <trkpt lat="44.08025" lon="7.24977">
        <ele>1025.1</ele>
        <time>2022-06-11T08:15:26Z</time>
      </trkpt>
      <trkpt lat="44.08027" lon="7.24977">
        <ele>1025.5</ele>
        <time>2022-06-11T08:15:27Z</time>
      </trkpt>
      <trkpt lat="44.0803" lon="7.24976">
        <ele>1025.8</ele>
        <time>2022-06-11T08:15:28Z</time>
      </trkpt>
      <trkpt lat="44.08033" lon="7.24975">
        <ele>1026.2</ele>
        <time>2022-06-11T08:15:29Z</time>
      </trkpt>
      <trkpt lat="44.08035" lon="7.24975">
        <ele>1026.5</ele>
        <time>2022-06-11T08:15:30Z</time>
      </trkpt>
      <trkpt lat="44.08038" lon="7.24974">
        <ele>1026.9</ele>
        <time>2022-06-11T08:15:31Z</time>
      </trkpt>
      <trkpt lat="44.08041" lon="7.24974">
        <ele>1027.2</ele>
        <time>2022-06-11T08:15:32Z</time>
      </trkpt>
      <trkpt lat="44.08043" lon="7.24973">
        <ele>1027.6</ele>
        <time>2022-06-11T08:15:33Z</time>
      </trkpt>
      <trkpt lat="44.08046" lon="7.24973">
        <ele>1027.9</ele>
        <time>2022-06-11T08:15:34Z</time>
      </trkpt>
      <trkpt lat="44.08049" lon="7.24973">
        <ele>1028.2</ele>
        <time>2022-06-11T08:15:35Z</time>
      </trkpt>
      <trkpt lat="44.08052" lon="7.24972">
        <ele>1028.6</ele>
        <time>2022-06-11T08:15:36Z</time>
      </trkpt>
      <trkpt lat="44.08054" lon="7.24972">
        <ele>1028.9</ele>
        <time>2022-06-11T08:15:37Z</time>
      </trkpt>
      <trkpt lat="44.08057" lon="7.24972">
        <ele>1029.3</ele>
        <time>2022-06-11T08:15:38Z</time>
      </trkpt>
      <trkpt lat="44.08059" lon="7.24972">
        <ele>1029.7</ele>
        <time>2022-06-11T08:15:39Z</time>
      </trkpt>
      <trkpt lat="44.08062" lon="7.24972">
        <ele>1030.1</ele>
        <time>2022-06-11T08:15:40Z</time>
      </trkpt>
      <trkpt lat="44.08064" lon="7.24973">
        <ele>1030.5</ele>
        <time>2022-06-11T08:15:41Z</time>
      </trkpt>
      <trkpt lat="44.08067" lon="7.24973">
        <ele>1030.9</ele>
        <time>2022-06-11T08:15:42Z</time>
      </trkpt>
      <trkpt lat="44.08069" lon="7.24974">
        <ele>1031.3</ele>
        <time>2022-06-11T08:15:43Z</time>
      </trkpt>
      <trkpt lat="44.08071" lon="7.24975">
        <ele>1031.6</ele>
        <time>2022-06-11T08:15:44Z</time>
      </trkpt>
      <trkpt lat="44.08074" lon="7.24975">
        <ele>1032</ele>
        <time>2022-06-11T08:15:45Z</time>
      </trkpt>
      <trkpt lat="44.08076" lon="7.24976">
        <ele>1032.4</ele>
        <time>2022-06-11T08:15:46Z</time>
      </trkpt>
      <trkpt lat="44.08079" lon="7.24977">
        <ele>1032.6</ele>
        <time>2022-06-11T08:15:47Z</time>
      </trkpt>
      <trkpt lat="44.08081" lon="7.24979">
        <ele>1032.9</ele>
        <time>2022-06-11T08:15:48Z</time>
      </trkpt>
      <trkpt lat="44.08083" lon="7.2498">
        <ele>1033.1</ele>
        <time>2022-06-11T08:15:49Z</time>
      </trkpt>
      <trkpt lat="44.08085" lon="7.24981">
        <ele>1033.3</ele>
        <time>2022-06-11T08:15:50Z</time>
      </trkpt>
      <trkpt lat="44.08088" lon="7.24983">
        <ele>1033.4</ele>
        <time>2022-06-11T08:15:51Z</time>
      </trkpt>
      <trkpt lat="44.0809" lon="7.24984">
        <ele>1033.5</ele>
        <time>2022-06-11T08:15:52Z</time>
      </trkpt>
      <trkpt lat="44.08092" lon="7.24985">
        <ele>1033.7</ele>
        <time>2022-06-11T08:15:53Z</time>
      </trkpt>
      <trkpt lat="44.08094" lon="7.24987">
        <ele>1033.8</ele>
        <time>2022-06-11T08:15:54Z</time>
      </trkpt>
      <trkpt lat="44.08096" lon="7.24988">
        <ele>1033.9</ele>
        <time>2022-06-11T08:15:55Z</time>
      </trkpt>
      <trkpt lat="44.08099" lon="7.2499">
        <ele>1033.9</ele>
        <time>2022-06-11T08:15:56Z</time>
      </trkpt>
      <trkpt lat="44.08101" lon="7.24991">
        <ele>1034</ele>
        <time>2022-06-11T08:15:57Z</time>
      </trkpt>
      <trkpt lat="44.08103" lon="7.24993">
        <ele>1034.1</ele>
        <time>2022-06-11T08:15:58Z</time>
      </trkpt>
      <trkpt lat="44.08105" lon="7.24995">
        <ele>1034.1</ele>
        <time>2022-06-11T08:15:59Z</time>
      </trkpt>
      <trkpt lat="44.08107" lon="7.24996">
        <ele>1034.1</ele>
        <time>2022-06-11T08:16:00Z</time>
      </trkpt>
      <trkpt lat="44.08109" lon="7.24998">
        <ele>1034.1</ele>
        <time>2022-06-11T08:16:01Z</time>
      </trkpt>
      <trkpt lat="44.08111" lon="7.25">
        <ele>1034</ele>
        <time>2022-06-11T08:16:02Z</time>
      </trkpt>
      <trkpt lat="44.08113" lon="7.25002">
        <ele>1034.2</ele>
        <time>2022-06-11T08:16:03Z</time>
      </trkpt>
      <trkpt lat="44.08115" lon="7.25004">
        <ele>1034.4</ele>
        <time>2022-06-11T08:16:04Z</time>
      </trkpt>
      <trkpt lat="44.08117" lon="7.25006">
        <ele>1034.5</ele>
        <time>2022-06-11T08:16:05Z</time>
      </trkpt>
      <trkpt lat="44.08119" lon="7.25008">
        <ele>1034.6</ele>
        <time>2022-06-11T08:16:06Z</time>
      </trkpt>
      <trkpt lat="44.08121" lon="7.2501">
        <ele>1034.7</ele>
        <time>2022-06-11T08:16:07Z</time>
      </trkpt>
      <trkpt lat="44.08123" lon="7.25013">
        <ele>1034.8</ele>
        <time>2022-06-11T08:16:08Z</time>
      </trkpt>
      <trkpt lat="44.08125" lon="7.25015">
        <ele>1034.9</ele>
        <time>2022-06-11T08:16:09Z</time>
      </trkpt>
      <trkpt lat="44.08127" lon="7.25017">
        <ele>1035</ele>
        <time>2022-06-11T08:16:10Z</time>
      </trkpt>
      <trkpt lat="44.08128" lon="7.25019">
        <ele>1035.1</ele>
        <time>2022-06-11T08:16:11Z</time>
      </trkpt>
      <trkpt lat="44.0813" lon="7.25021">
        <ele>1035.2</ele>
        <time>2022-06-11T08:16:12Z</time>
      </trkpt>
      <trkpt lat="44.08131" lon="7.25023">
        <ele>1035.3</ele>
        <time>2022-06-11T08:16:13Z</time>
      </trkpt>
      <trkpt lat="44.08133" lon="7.25025">
        <ele>1035.4</ele>
        <time>2022-06-11T08:16:14Z</time>
      </trkpt>
      <trkpt lat="44.08135" lon="7.25027">
        <ele>1035.4</ele>
        <time>2022-06-11T08:16:15Z</time>
      </trkpt>
      <trkpt lat="44.08136" lon="7.25029">
        <ele>1035.6</ele>
        <time>2022-06-11T08:16:16Z</time>
      </trkpt>
      <trkpt lat="44.08138" lon="7.25032">
        <ele>1035.7</ele>
        <time>2022-06-11T08:16:17Z</time>
      </trkpt>
      <trkpt lat="44.08139" lon="7.25034">
        <ele>1035.8</ele>
        <time>2022-06-11T08:16:18Z</time>
      </trkpt>
      <trkpt lat="44.08141" lon="7.25037">
        <ele>1035.8</ele>
        <time>2022-06-11T08:16:19Z</time>
      </trkpt>
      <trkpt lat="44.08142" lon="7.25039">
        <ele>1035.9</ele>
        <time>2022-06-11T08:16:20Z</time>
      </trkpt>
      <trkpt lat="44.08144" lon="7.25042">
        <ele>1035.9</ele>
        <time>2022-06-11T08:16:21Z</time>
      </trkpt>
      <trkpt lat="44.08146" lon="7.25044">
        <ele>1036</ele>
        <time>2022-06-11T08:16:22Z</time>
      </trkpt>
      <trkpt lat="44.08147" lon="7.25046">
        <ele>1036</ele>
        <time>2022-06-11T08:16:23Z</time>
      </trkpt>
      <trkpt lat="44.08149" lon="7.25049">
        <ele>1036</ele>
        <time>2022-06-11T08:16:24Z</time>
      </trkpt>
      <trkpt lat="44.0815" lon="7.25051">
        <ele>1036.1</ele>
        <time>2022-06-11T08:16:25Z</time>
      </trkpt>
      <trkpt lat="44.08152" lon="7.25053">
        <ele>1036.1</ele>
        <time>2022-06-11T08:16:26Z</time>
      </trkpt>
      <trkpt lat="44.08154" lon="7.25055">
        <ele>1036.1</ele>
        <time>2022-06-11T08:16:27Z</time>
      </trkpt>
      <trkpt lat="44.08155" lon="7.25058">
        <ele>1036.2</ele>
        <time>2022-06-11T08:16:28Z</time>
      </trkpt>
      <trkpt lat="44.08157" lon="7.2506">
        <ele>1036.3</ele>
        <time>2022-06-11T08:16:29Z</time>
      </trkpt>
      <trkpt lat="44.08158" lon="7.25062">
        <ele>1036.4</ele>
        <time>2022-06-11T08:16:30Z</time>
      </trkpt>
      <trkpt lat="44.0816" lon="7.25065">
        <ele>1036.5</ele>
        <time>2022-06-11T08:16:31Z</time>
      </trkpt>
      <trkpt lat="44.08161" lon="7.25068">
        <ele>1036.6</ele>
        <time>2022-06-11T08:16:32Z</time>
      </trkpt>
      <trkpt lat="44.08163" lon="7.2507">
        <ele>1036.7</ele>
        <time>2022-06-11T08:16:33Z</time>
      </trkpt>
      <trkpt lat="44.08165" lon="7.25072">
        <ele>1036.8</ele>
        <time>2022-06-11T08:16:34Z</time>
      </trkpt>
      <trkpt lat="44.08166" lon="7.25074">
        <ele>1037</ele>
        <time>2022-06-11T08:16:35Z</time>
      </trkpt>
      <trkpt lat="44.08168" lon="7.25076">
        <ele>1037.2</ele>
        <time>2022-06-11T08:16:36Z</time>
      </trkpt>
      <trkpt lat="44.0817" lon="7.25078">
        <ele>1037.4</ele>
        <time>2022-06-11T08:16:37Z</time>
      </trkpt>
      <trkpt lat="44.08171" lon="7.2508">
        <ele>1037.5</ele>
        <time>2022-06-11T08:16:38Z</time>
      </trkpt>
      <trkpt lat="44.08173" lon="7.25083">
        <ele>1037.7</ele>
        <time>2022-06-11T08:16:39Z</time>
      </trkpt>
      <trkpt lat="44.08175" lon="7.25085">
        <ele>1037.9</ele>
        <time>2022-06-11T08:16:40Z</time>
      </trkpt>
      <trkpt lat="44.08176" lon="7.25087">
        <ele>1038.1</ele>
        <time>2022-06-11T08:16:41Z</time>
      </trkpt>
      <trkpt lat="44.08178" lon="7.25089">
        <ele>1038.3</ele>
        <time>2022-06-11T08:16:42Z</time>
      </trkpt>
      <trkpt lat="44.0818" lon="7.25091">
        <ele>1038.6</ele>
        <time>2022-06-11T08:16:43Z</time>
      </trkpt>
      <trkpt lat="44.08182" lon="7.25092">
        <ele>1038.8</ele>
        <time>2022-06-11T08:16:44Z</time>
      </trkpt>
      <trkpt lat="44.08185" lon="7.25094">
        <ele>1039.1</ele>
        <time>2022-06-11T08:16:45Z</time>
      </trkpt>
      <trkpt lat="44.08187" lon="7.25095">
        <ele>1039.3</ele>
        <time>2022-06-11T08:16:46Z</time>
      </trkpt>
      <trkpt lat="44.0819" lon="7.25096">
        <ele>1039.6</ele>
        <time>2022-06-11T08:16:47Z</time>
      </trkpt>
      <trkpt lat="44.08192" lon="7.25097">
        <ele>1039.8</ele>
        <time>2022-06-11T08:16:48Z</time>
      </trkpt>
      <trkpt lat="44.08195" lon="7.25098">
        <ele>1040</ele>
        <time>2022-06-11T08:16:49Z</time>
      </trkpt>
      <trkpt lat="44.08197" lon="7.25098">
        <ele>1040.2</ele>
        <time>2022-06-11T08:16:50Z</time>
      </trkpt>
      <trkpt lat="44.08199" lon="7.25099">
        <ele>1040.4</ele>
        <time>2022-06-11T08:16:51Z</time>
      </trkpt>
      <trkpt lat="44.08201" lon="7.25098">
        <ele>1040.6</ele>
        <time>2022-06-11T08:16:52Z</time>
      </trkpt>
      <trkpt lat="44.08204" lon="7.25098">
        <ele>1040.8</ele>
        <time>2022-06-11T08:16:53Z</time>
      </trkpt>
      <trkpt lat="44.08206" lon="7.25098">
        <ele>1041</ele>
        <time>2022-06-11T08:16:54Z</time>
      </trkpt>
      <trkpt lat="44.08208" lon="7.25097">
        <ele>1041.2</ele>
        <time>2022-06-11T08:16:55Z</time>
      </trkpt>
      <trkpt lat="44.08211" lon="7.25097">
        <ele>1041.4</ele>
        <time>2022-06-11T08:16:56Z</time>
      </trkpt>
      <trkpt lat="44.08213" lon="7.25096">
        <ele>1041.7</ele>
        <time>2022-06-11T08:16:57Z</time>
      </trkpt>
      <trkpt lat="44.08215" lon="7.25096">
        <ele>1041.9</ele>
        <time>2022-06-11T08:16:58Z</time>
      </trkpt>
      <trkpt lat="44.08218" lon="7.25095">
        <ele>1042.2</ele>
        <time>2022-06-11T08:16:59Z</time>
      </trkpt>
      <trkpt lat="44.08219" lon="7.25093">
        <ele>1042.4</ele>
        <time>2022-06-11T08:17:00Z</time>
      </trkpt>
      <trkpt lat="44.08221" lon="7.25092">
        <ele>1042.6</ele>
        <time>2022-06-11T08:17:01Z</time>
      </trkpt>
      <trkpt lat="44.08224" lon="7.25091">
        <ele>1042.8</ele>
        <time>2022-06-11T08:17:02Z</time>
      </trkpt>
      <trkpt lat="44.08226" lon="7.2509">
        <ele>1043.1</ele>
        <time>2022-06-11T08:17:03Z</time>
      </trkpt>
      <trkpt lat="44.08228" lon="7.25088">
        <ele>1043.4</ele>
        <time>2022-06-11T08:17:04Z</time>
      </trkpt>
      <trkpt lat="44.0823" lon="7.25087">
        <ele>1043.7</ele>
        <time>2022-06-11T08:17:05Z</time>
      </trkpt>
      <trkpt lat="44.08232" lon="7.25086">
        <ele>1043.9</ele>
        <time>2022-06-11T08:17:06Z</time>
      </trkpt>
      <trkpt lat="44.08234" lon="7.25085">
        <ele>1044.2</ele>
        <time>2022-06-11T08:17:07Z</time>
      </trkpt>
      <trkpt lat="44.08237" lon="7.25084">
        <ele>1044.5</ele>
        <time>2022-06-11T08:17:08Z</time>
      </trkpt>
      <trkpt lat="44.08239" lon="7.25083">
        <ele>1044.9</ele>
        <time>2022-06-11T08:17:09Z</time>
      </trkpt>
      <trkpt lat="44.08241" lon="7.25082">
        <ele>1045.3</ele>
        <time>2022-06-11T08:17:10Z</time>
      </trkpt>
      <trkpt lat="44.08244" lon="7.25081">
        <ele>1045.7</ele>
        <time>2022-06-11T08:17:11Z</time>
      </trkpt>
      <trkpt lat="44.08246" lon="7.25079">
        <ele>1046.1</ele>
        <time>2022-06-11T08:17:12Z</time>
      </trkpt>
      <trkpt lat="44.08248" lon="7.25079">
        <ele>1046.5</ele>
        <time>2022-06-11T08:17:13Z</time>
      </trkpt>
      <trkpt lat="44.08251" lon="7.25078">
        <ele>1046.9</ele>
        <time>2022-06-11T08:17:14Z</time>
      </trkpt>
      <trkpt lat="44.08253" lon="7.25077">
        <ele>1047.3</ele>
        <time>2022-06-11T08:17:15Z</time>
      </trkpt>
      <trkpt lat="44.08256" lon="7.25076">
        <ele>1047.7</ele>
        <time>2022-06-11T08:17:16Z</time>
      </trkpt>
      <trkpt lat="44.08258" lon="7.25075">
        <ele>1048.1</ele>
        <time>2022-06-11T08:17:17Z</time>
      </trkpt>
      <trkpt lat="44.0826" lon="7.25075">
        <ele>1048.5</ele>
        <time>2022-06-11T08:17:18Z</time>
      </trkpt>
      <trkpt lat="44.08263" lon="7.25074">
        <ele>1048.8</ele>
        <time>2022-06-11T08:17:19Z</time>
      </trkpt>
      <trkpt lat="44.08265" lon="7.25073">
        <ele>1049.3</ele>
        <time>2022-06-11T08:17:20Z</time>
      </trkpt>
      <trkpt lat="44.08267" lon="7.25073">
        <ele>1049.7</ele>
        <time>2022-06-11T08:17:21Z</time>
      </trkpt>
      <trkpt lat="44.0827" lon="7.25072">
        <ele>1050.1</ele>
        <time>2022-06-11T08:17:22Z</time>
      </trkpt>
      <trkpt lat="44.08272" lon="7.25071">
        <ele>1050.5</ele>
        <time>2022-06-11T08:17:23Z</time>
      </trkpt>
      <trkpt lat="44.08275" lon="7.25071">
        <ele>1050.9</ele>
        <time>2022-06-11T08:17:24Z</time>
      </trkpt>
      <trkpt lat="44.08277" lon="7.2507">
        <ele>1051.4</ele>
        <time>2022-06-11T08:17:25Z</time>
      </trkpt>
      <trkpt lat="44.0828" lon="7.25069">
        <ele>1051.7</ele>
        <time>2022-06-11T08:17:26Z</time>
      </trkpt>
      <trkpt lat="44.08282" lon="7.25068">
        <ele>1052.1</ele>
        <time>2022-06-11T08:17:27Z</time>
      </trkpt>
      <trkpt lat="44.08285" lon="7.25067">
        <ele>1052.5</ele>
        <time>2022-06-11T08:17:28Z</time>
      </trkpt>
      <trkpt lat="44.08287" lon="7.25067">
        <ele>1052.8</ele>
        <time>2022-06-11T08:17:29Z</time>
      </trkpt>
      <trkpt lat="44.08289" lon="7.25066">
        <ele>1053.1</ele>
        <time>2022-06-11T08:17:30Z</time>
      </trkpt>
      <trkpt lat="44.08292" lon="7.25065">
        <ele>1053.5</ele>
        <time>2022-06-11T08:17:31Z</time>
      </trkpt>
      <trkpt lat="44.08294" lon="7.25064">
        <ele>1053.8</ele>
        <time>2022-06-11T08:17:32Z</time>
      </trkpt>
      <trkpt lat="44.08296" lon="7.25063">
        <ele>1054.1</ele>
        <time>2022-06-11T08:17:33Z</time>
      </trkpt>
      <trkpt lat="44.08298" lon="7.25062">
        <ele>1054.4</ele>
        <time>2022-06-11T08:17:34Z</time>
      </trkpt>
      <trkpt lat="44.083" lon="7.25061">
        <ele>1054.7</ele>
        <time>2022-06-11T08:17:35Z</time>
      </trkpt>
      <trkpt lat="44.08302" lon="7.25061">
        <ele>1055</ele>
        <time>2022-06-11T08:17:36Z</time>
      </trkpt>
      <trkpt lat="44.08305" lon="7.25059">
        <ele>1055.4</ele>
        <time>2022-06-11T08:17:37Z</time>
      </trkpt>
      <trkpt lat="44.08307" lon="7.25058">
        <ele>1055.7</ele>
        <time>2022-06-11T08:17:38Z</time>
      </trkpt>
      <trkpt lat="44.08309" lon="7.25057">
        <ele>1056</ele>
        <time>2022-06-11T08:17:39Z</time>
      </trkpt>
      <trkpt lat="44.08311" lon="7.25056">
        <ele>1056.3</ele>
        <time>2022-06-11T08:17:40Z</time>
      </trkpt>
      <trkpt lat="44.08313" lon="7.25055">
        <ele>1056.7</ele>
        <time>2022-06-11T08:17:41Z</time>
      </trkpt>
      <trkpt lat="44.08315" lon="7.25053">
        <ele>1057.1</ele>
        <time>2022-06-11T08:17:42Z</time>
      </trkpt>
      <trkpt lat="44.08317" lon="7.25052">
        <ele>1057.5</ele>
        <time>2022-06-11T08:17:43Z</time>
      </trkpt>
      <trkpt lat="44.0832" lon="7.25051">
        <ele>1057.9</ele>
        <time>2022-06-11T08:17:44Z</time>
      </trkpt>
      <trkpt lat="44.08322" lon="7.25049">
        <ele>1058.3</ele>
        <time>2022-06-11T08:17:45Z</time>
      </trkpt>
      <trkpt lat="44.08324" lon="7.25048">
        <ele>1058.7</ele>
        <time>2022-06-11T08:17:46Z</time>
      </trkpt>
      <trkpt lat="44.08326" lon="7.25046">
        <ele>1059.1</ele>
        <time>2022-06-11T08:17:47Z</time>
      </trkpt>
      <trkpt lat="44.08328" lon="7.25045">
        <ele>1059.6</ele>
        <time>2022-06-11T08:17:48Z</time>
      </trkpt>
      <trkpt lat="44.0833" lon="7.25043">
        <ele>1060</ele>
        <time>2022-06-11T08:17:49Z</time>
      </trkpt>
      <trkpt lat="44.08332" lon="7.25041">
        <ele>1060.4</ele>
        <time>2022-06-11T08:17:50Z</time>
      </trkpt>
      <trkpt lat="44.08334" lon="7.2504">
        <ele>1060.8</ele>
        <time>2022-06-11T08:17:51Z</time>
      </trkpt>
      <trkpt lat="44.08336" lon="7.25038">
        <ele>1061.2</ele>
        <time>2022-06-11T08:17:52Z</time>
      </trkpt>
      <trkpt lat="44.08338" lon="7.25036">
        <ele>1061.6</ele>
        <time>2022-06-11T08:17:53Z</time>
      </trkpt>
      <trkpt lat="44.0834" lon="7.25035">
        <ele>1062</ele>
        <time>2022-06-11T08:17:54Z</time>
      </trkpt>
      <trkpt lat="44.08342" lon="7.25033">
        <ele>1062.4</ele>
        <time>2022-06-11T08:17:55Z</time>
      </trkpt>
      <trkpt lat="44.08344" lon="7.25031">
        <ele>1062.8</ele>
        <time>2022-06-11T08:17:56Z</time>
      </trkpt>
      <trkpt lat="44.08346" lon="7.25029">
        <ele>1063.2</ele>
        <time>2022-06-11T08:17:57Z</time>
      </trkpt>
      <trkpt lat="44.08348" lon="7.25028">
        <ele>1063.6</ele>
        <time>2022-06-11T08:17:58Z</time>
      </trkpt>
      <trkpt lat="44.0835" lon="7.25026">
        <ele>1063.9</ele>
        <time>2022-06-11T08:17:59Z</time>
      </trkpt>
      <trkpt lat="44.08351" lon="7.25024">
        <ele>1064.2</ele>
        <time>2022-06-11T08:18:00Z</time>
      </trkpt>
      <trkpt lat="44.08353" lon="7.25022">
        <ele>1064.6</ele>
        <time>2022-06-11T08:18:01Z</time>
      </trkpt>
      <trkpt lat="44.08355" lon="7.25021">
        <ele>1064.9</ele>
        <time>2022-06-11T08:18:02Z</time>
      </trkpt>
      <trkpt lat="44.08357" lon="7.25019">
        <ele>1065.2</ele>
        <time>2022-06-11T08:18:03Z</time>
      </trkpt>
      <trkpt lat="44.08359" lon="7.25018">
        <ele>1065.4</ele>
        <time>2022-06-11T08:18:04Z</time>
      </trkpt>
      <trkpt lat="44.08361" lon="7.25016">
        <ele>1065.7</ele>
        <time>2022-06-11T08:18:05Z</time>
      </trkpt>
      <trkpt lat="44.08363" lon="7.25015">
        <ele>1065.9</ele>
        <time>2022-06-11T08:18:06Z</time>
      </trkpt>
      <trkpt lat="44.08366" lon="7.25013">
        <ele>1066.2</ele>
        <time>2022-06-11T08:18:07Z</time>
      </trkpt>
      <trkpt lat="44.08368" lon="7.25012">
        <ele>1066.4</ele>
        <time>2022-06-11T08:18:08Z</time>
      </trkpt>
      <trkpt lat="44.0837" lon="7.2501">
        <ele>1066.7</ele>
        <time>2022-06-11T08:18:09Z</time>
      </trkpt>
      <trkpt lat="44.08372" lon="7.25009">
        <ele>1067</ele>
        <time>2022-06-11T08:18:10Z</time>
      </trkpt>
      <trkpt lat="44.08374" lon="7.25008">
        <ele>1067.2</ele>
        <time>2022-06-11T08:18:11Z</time>
      </trkpt>
      <trkpt lat="44.08376" lon="7.25006">
        <ele>1067.5</ele>
        <time>2022-06-11T08:18:12Z</time>
      </trkpt>
      <trkpt lat="44.08378" lon="7.25005">
        <ele>1067.8</ele>
        <time>2022-06-11T08:18:13Z</time>
      </trkpt>
      <trkpt lat="44.0838" lon="7.25004">
        <ele>1068.1</ele>
        <time>2022-06-11T08:18:14Z</time>
      </trkpt>
      <trkpt lat="44.08383" lon="7.25003">
        <ele>1068.3</ele>
        <time>2022-06-11T08:18:15Z</time>
      </trkpt>
      <trkpt lat="44.08385" lon="7.25002">
        <ele>1068.6</ele>
        <time>2022-06-11T08:18:16Z</time>
      </trkpt>
      <trkpt lat="44.08387" lon="7.25">
        <ele>1068.9</ele>
        <time>2022-06-11T08:18:17Z</time>
      </trkpt>
      <trkpt lat="44.08389" lon="7.24999">
        <ele>1069.1</ele>
        <time>2022-06-11T08:18:18Z</time>
      </trkpt>
      <trkpt lat="44.08392" lon="7.24998">
        <ele>1069.2</ele>
        <time>2022-06-11T08:18:19Z</time>
      </trkpt>
      <trkpt lat="44.08394" lon="7.24997">
        <ele>1069.3</ele>
        <time>2022-06-11T08:18:20Z</time>
      </trkpt>
      <trkpt lat="44.08396" lon="7.24996">
        <ele>1069.3</ele>
        <time>2022-06-11T08:18:21Z</time>
      </trkpt>
      <trkpt lat="44.08398" lon="7.24995">
        <ele>1069.4</ele>
        <time>2022-06-11T08:18:22Z</time>
      </trkpt>
      <trkpt lat="44.084" lon="7.24994">
        <ele>1069.5</ele>
        <time>2022-06-11T08:18:23Z</time>
      </trkpt>
      <trkpt lat="44.08403" lon="7.24993">
        <ele>1069.6</ele>
        <time>2022-06-11T08:18:24Z</time>
      </trkpt>
      <trkpt lat="44.08405" lon="7.24992">
        <ele>1069.7</ele>
        <time>2022-06-11T08:18:25Z</time>
      </trkpt>
      <trkpt lat="44.08407" lon="7.24992">
        <ele>1069.8</ele>
        <time>2022-06-11T08:18:26Z</time>
      </trkpt>
      <trkpt lat="44.08409" lon="7.24991">
        <ele>1069.8</ele>
        <time>2022-06-11T08:18:27Z</time>
      </trkpt>
      <trkpt lat="44.08412" lon="7.24991">
        <ele>1069.8</ele>
        <time>2022-06-11T08:18:28Z</time>
      </trkpt>
      <trkpt lat="44.08414" lon="7.2499">
        <ele>1069.8</ele>
        <time>2022-06-11T08:18:29Z</time>
      </trkpt>
      <trkpt lat="44.08416" lon="7.2499">
        <ele>1069.9</ele>
        <time>2022-06-11T08:18:30Z</time>
      </trkpt>
      <trkpt lat="44.08418" lon="7.24989">
        <ele>1069.9</ele>
        <time>2022-06-11T08:18:31Z</time>
      </trkpt>
      <trkpt lat="44.08421" lon="7.24989">
        <ele>1069.9</ele>
        <time>2022-06-11T08:18:32Z</time>
      </trkpt>
      <trkpt lat="44.08423" lon="7.24988">
        <ele>1069.9</ele>
        <time>2022-06-11T08:18:33Z</time>
      </trkpt>
      <trkpt lat="44.08425" lon="7.24988">
        <ele>1069.9</ele>
        <time>2022-06-11T08:18:34Z</time>
      </trkpt>
      <trkpt lat="44.08427" lon="7.24987">
        <ele>1070</ele>
        <time>2022-06-11T08:18:35Z</time>
      </trkpt>
      <trkpt lat="44.08429" lon="7.24987">
        <ele>1070</ele>
        <time>2022-06-11T08:18:36Z</time>
      </trkpt>
      <trkpt lat="44.08431" lon="7.24986">
        <ele>1070</ele>
        <time>2022-06-11T08:18:37Z</time>
      </trkpt>
      <trkpt lat="44.08434" lon="7.24986">
        <ele>1069.9</ele>
        <time>2022-06-11T08:18:38Z</time>
      </trkpt>
      <trkpt lat="44.08436" lon="7.24985">
        <ele>1070</ele>
        <time>2022-06-11T08:18:39Z</time>
      </trkpt>
      <trkpt lat="44.08438" lon="7.24985">
        <ele>1070</ele>
        <time>2022-06-11T08:18:40Z</time>
      </trkpt>
      <trkpt lat="44.0844" lon="7.24984">
        <ele>1070</ele>
        <time>2022-06-11T08:18:41Z</time>
      </trkpt>
      <trkpt lat="44.08443" lon="7.24984">
        <ele>1070</ele>
        <time>2022-06-11T08:18:42Z</time>
      </trkpt>
      <trkpt lat="44.08445" lon="7.24983">
        <ele>1070.1</ele>
        <time>2022-06-11T08:18:43Z</time>
      </trkpt>
      <trkpt lat="44.08447" lon="7.24982">
        <ele>1070.3</ele>
        <time>2022-06-11T08:18:44Z</time>
      </trkpt>
      <trkpt lat="44.08449" lon="7.24981">
        <ele>1070.4</ele>
        <time>2022-06-11T08:18:45Z</time>
      </trkpt>
      <trkpt lat="44.08451" lon="7.24981">
        <ele>1070.5</ele>
        <time>2022-06-11T08:18:46Z</time>
      </trkpt>
      <trkpt lat="44.08454" lon="7.2498">
        <ele>1070.6</ele>
        <time>2022-06-11T08:18:47Z</time>
      </trkpt>
      <trkpt lat="44.08456" lon="7.24979">
        <ele>1070.7</ele>
        <time>2022-06-11T08:18:48Z</time>
      </trkpt>
      <trkpt lat="44.08458" lon="7.24979">
        <ele>1070.9</ele>
        <time>2022-06-11T08:18:49Z</time>
      </trkpt>
      <trkpt lat="44.08461" lon="7.24978">
        <ele>1071</ele>
        <time>2022-06-11T08:18:50Z</time>
      </trkpt>
      <trkpt lat="44.08463" lon="7.24978">
        <ele>1071</ele>
        <time>2022-06-11T08:18:51Z</time>
      </trkpt>
      <trkpt lat="44.08465" lon="7.24977">
        <ele>1071.1</ele>
        <time>2022-06-11T08:18:52Z</time>
      </trkpt>
      <trkpt lat="44.08468" lon="7.24977">
        <ele>1071.2</ele>
        <time>2022-06-11T08:18:53Z</time>
      </trkpt>
      <trkpt lat="44.0847" lon="7.24976">
        <ele>1071.3</ele>
        <time>2022-06-11T08:18:54Z</time>
      </trkpt>
      <trkpt lat="44.08472" lon="7.24976">
        <ele>1071.4</ele>
        <time>2022-06-11T08:18:55Z</time>
      </trkpt>
      <trkpt lat="44.08475" lon="7.24975">
        <ele>1071.4</ele>
        <time>2022-06-11T08:18:56Z</time>
      </trkpt>
      <trkpt lat="44.08477" lon="7.24975">
        <ele>1071.4</ele>
        <time>2022-06-11T08:18:57Z</time>
      </trkpt>
      <trkpt lat="44.08479" lon="7.24975">
        <ele>1071.3</ele>
        <time>2022-06-11T08:18:58Z</time>
      </trkpt>
      <trkpt lat="44.08481" lon="7.24974">
        <ele>1071.4</ele>
        <time>2022-06-11T08:18:59Z</time>
      </trkpt>
      <trkpt lat="44.08484" lon="7.24974">
        <ele>1071.4</ele>
        <time>2022-06-11T08:19:00Z</time>
      </trkpt>
      <trkpt lat="44.08486" lon="7.24973">
        <ele>1071.4</ele>
        <time>2022-06-11T08:19:01Z</time>
      </trkpt>
      <trkpt lat="44.08488" lon="7.24973">
        <ele>1071.3</ele>
        <time>2022-06-11T08:19:02Z</time>
      </trkpt>
      <trkpt lat="44.0849" lon="7.24973">
        <ele>1071.2</ele>
        <time>2022-06-11T08:19:03Z</time>
      </trkpt>
      <trkpt lat="44.08493" lon="7.24973">
        <ele>1071.2</ele>
        <time>2022-06-11T08:19:04Z</time>
      </trkpt>
      <trkpt lat="44.08495" lon="7.24973">
        <ele>1071.1</ele>
        <time>2022-06-11T08:19:05Z</time>
      </trkpt>
      <trkpt lat="44.08498" lon="7.24973">
        <ele>1071</ele>
        <time>2022-06-11T08:19:06Z</time>
      </trkpt>
      <trkpt lat="44.085" lon="7.24973">
        <ele>1070.9</ele>
        <time>2022-06-11T08:19:07Z</time>
      </trkpt>
      <trkpt lat="44.08503" lon="7.24973">
        <ele>1070.8</ele>
        <time>2022-06-11T08:19:08Z</time>
      </trkpt>
      <trkpt lat="44.08506" lon="7.24973">
        <ele>1070.7</ele>
        <time>2022-06-11T08:19:09Z</time>
      </trkpt>
      <trkpt lat="44.08508" lon="7.24973">
        <ele>1070.7</ele>
        <time>2022-06-11T08:19:10Z</time>
      </trkpt>
      <trkpt lat="44.08511" lon="7.24972">
        <ele>1070.6</ele>
        <time>2022-06-11T08:19:11Z</time>
      </trkpt>
      <trkpt lat="44.08513" lon="7.24972">
        <ele>1070.6</ele>
        <time>2022-06-11T08:19:12Z</time>
      </trkpt>
      <trkpt lat="44.08516" lon="7.24972">
        <ele>1070.6</ele>
        <time>2022-06-11T08:19:13Z</time>
      </trkpt>
      <trkpt lat="44.08518" lon="7.24971">
        <ele>1070.5</ele>
        <time>2022-06-11T08:19:14Z</time>
      </trkpt>
      <trkpt lat="44.08521" lon="7.24971">
        <ele>1070.5</ele>
        <time>2022-06-11T08:19:15Z</time>
      </trkpt>
      <trkpt lat="44.08523" lon="7.24971">
        <ele>1070.4</ele>
        <time>2022-06-11T08:19:16Z</time>
      </trkpt>
      <trkpt lat="44.08526" lon="7.24971">
        <ele>1070.4</ele>
        <time>2022-06-11T08:19:17Z</time>
      </trkpt>
      <trkpt lat="44.08528" lon="7.24971">
        <ele>1070.4</ele>
        <time>2022-06-11T08:19:18Z</time>
      </trkpt>
      <trkpt lat="44.08531" lon="7.2497">
        <ele>1070.4</ele>
        <time>2022-06-11T08:19:19Z</time>
      </trkpt>
      <trkpt lat="44.08533" lon="7.2497">
        <ele>1070.5</ele>
        <time>2022-06-11T08:19:20Z</time>
      </trkpt>
      <trkpt lat="44.08536" lon="7.2497">
        <ele>1070.5</ele>
        <time>2022-06-11T08:19:21Z</time>
      </trkpt>
      <trkpt lat="44.08539" lon="7.2497">
        <ele>1070.6</ele>
        <time>2022-06-11T08:19:22Z</time>
      </trkpt>
      <trkpt lat="44.08541" lon="7.24969">
        <ele>1070.7</ele>
        <time>2022-06-11T08:19:23Z</time>
      </trkpt>
      <trkpt lat="44.08543" lon="7.24969">
        <ele>1070.8</ele>
        <time>2022-06-11T08:19:24Z</time>
      </trkpt>
      <trkpt lat="44.08546" lon="7.24969">
        <ele>1070.9</ele>
        <time>2022-06-11T08:19:25Z</time>
      </trkpt>
      <trkpt lat="44.08548" lon="7.24969">
        <ele>1070.9</ele>
        <time>2022-06-11T08:19:26Z</time>
      </trkpt>
      <trkpt lat="44.08551" lon="7.24969">
        <ele>1070.9</ele>
        <time>2022-06-11T08:19:27Z</time>
      </trkpt>
      <trkpt lat="44.08553" lon="7.24969">
        <ele>1070.9</ele>
        <time>2022-06-11T08:19:28Z</time>
      </trkpt>
      <trkpt lat="44.08556" lon="7.24968">
        <ele>1071.1</ele>
        <time>2022-06-11T08:19:29Z</time>
      </trkpt>
      <trkpt lat="44.08559" lon="7.24968">
        <ele>1071.5</ele>
        <time>2022-06-11T08:19:30Z</time>
      </trkpt>
      <trkpt lat="44.08561" lon="7.24968">
        <ele>1071.9</ele>
        <time>2022-06-11T08:19:31Z</time>
      </trkpt>
      <trkpt lat="44.08564" lon="7.24968">
        <ele>1072.3</ele>
        <time>2022-06-11T08:19:32Z</time>
      </trkpt>
      <trkpt lat="44.08566" lon="7.24967">
        <ele>1072.7</ele>
        <time>2022-06-11T08:19:33Z</time>
      </trkpt>
      <trkpt lat="44.08569" lon="7.24967">
        <ele>1073.1</ele>
        <time>2022-06-11T08:19:34Z</time>
      </trkpt>
      <trkpt lat="44.08571" lon="7.24967">
        <ele>1073.4</ele>
        <time>2022-06-11T08:19:35Z</time>
      </trkpt>
      <trkpt lat="44.08574" lon="7.24967">
        <ele>1073.8</ele>
        <time>2022-06-11T08:19:36Z</time>
      </trkpt>
      <trkpt lat="44.08577" lon="7.24967">
        <ele>1074.2</ele>
        <time>2022-06-11T08:19:37Z</time>
      </trkpt>
      <trkpt lat="44.08579" lon="7.24967">
        <ele>1074.4</ele>
        <time>2022-06-11T08:19:38Z</time>
      </trkpt>
      <trkpt lat="44.08581" lon="7.24968">
        <ele>1074.7</ele>
        <time>2022-06-11T08:19:39Z</time>
      </trkpt>
      <trkpt lat="44.08584" lon="7.24968">
        <ele>1074.9</ele>
        <time>2022-06-11T08:19:40Z</time>
      </trkpt>
      <trkpt lat="44.08586" lon="7.24969">
        <ele>1075.3</ele>
        <time>2022-06-11T08:19:41Z</time>
      </trkpt>
      <trkpt lat="44.08589" lon="7.24969">
        <ele>1075.7</ele>
        <time>2022-06-11T08:19:42Z</time>
      </trkpt>
      <trkpt lat="44.08591" lon="7.24969">
        <ele>1076.1</ele>
        <time>2022-06-11T08:19:43Z</time>
      </trkpt>
      <trkpt lat="44.08594" lon="7.2497">
        <ele>1076.5</ele>
        <time>2022-06-11T08:19:44Z</time>
      </trkpt>
      <trkpt lat="44.08597" lon="7.2497">
        <ele>1076.9</ele>
        <time>2022-06-11T08:19:45Z</time>
      </trkpt>
      <trkpt lat="44.08599" lon="7.24971">
        <ele>1077.2</ele>
        <time>2022-06-11T08:19:46Z</time>
      </trkpt>
      <trkpt lat="44.08601" lon="7.24971">
        <ele>1077.5</ele>
        <time>2022-06-11T08:19:47Z</time>
      </trkpt>
      <trkpt lat="44.08604" lon="7.24972">
        <ele>1077.8</ele>
        <time>2022-06-11T08:19:48Z</time>
      </trkpt>
      <trkpt lat="44.08606" lon="7.24972">
        <ele>1078.1</ele>
        <time>2022-06-11T08:19:49Z</time>
      </trkpt>
      <trkpt lat="44.08609" lon="7.24973">
        <ele>1078.5</ele>
        <time>2022-06-11T08:19:50Z</time>
      </trkpt>
      <trkpt lat="44.08611" lon="7.24973">
        <ele>1078.9</ele>
        <time>2022-06-11T08:19:51Z</time>
      </trkpt>
      <trkpt lat="44.08614" lon="7.24973">
        <ele>1079.3</ele>
        <time>2022-06-11T08:19:52Z</time>
      </trkpt>
      <trkpt lat="44.08616" lon="7.24973">
        <ele>1079.8</ele>
        <time>2022-06-11T08:19:53Z</time>
      </trkpt>
      <trkpt lat="44.08619" lon="7.24974">
        <ele>1080.1</ele>
        <time>2022-06-11T08:19:54Z</time>
      </trkpt>
      <trkpt lat="44.08621" lon="7.24974">
        <ele>1080.5</ele>
        <time>2022-06-11T08:19:55Z</time>
      </trkpt>
      <trkpt lat="44.08623" lon="7.24975">
        <ele>1080.9</ele>
        <time>2022-06-11T08:19:56Z</time>
      </trkpt>
      <trkpt lat="44.08626" lon="7.24975">
        <ele>1081.3</ele>
        <time>2022-06-11T08:19:57Z</time>
      </trkpt>
      <trkpt lat="44.08628" lon="7.24975">
        <ele>1081.6</ele>
        <time>2022-06-11T08:19:58Z</time>
      </trkpt>
      <trkpt lat="44.0863" lon="7.24976">
        <ele>1081.9</ele>
        <time>2022-06-11T08:19:59Z</time>
      </trkpt>
      <trkpt lat="44.08632" lon="7.24976">
        <ele>1082.2</ele>
        <time>2022-06-11T08:20:00Z</time>
      </trkpt>
      <trkpt lat="44.08635" lon="7.24977">
        <ele>1082.6</ele>
        <time>2022-06-11T08:20:01Z</time>
      </trkpt>
      <trkpt lat="44.08637" lon="7.24978">
        <ele>1082.9</ele>
        <time>2022-06-11T08:20:02Z</time>
      </trkpt>
      <trkpt lat="44.08639" lon="7.24978">
        <ele>1083.2</ele>
        <time>2022-06-11T08:20:03Z</time>
      </trkpt>
      <trkpt lat="44.08642" lon="7.24979">
        <ele>1083.5</ele>
        <time>2022-06-11T08:20:04Z</time>
      </trkpt>
      <trkpt lat="44.08644" lon="7.24979">
        <ele>1083.8</ele>
        <time>2022-06-11T08:20:05Z</time>
      </trkpt>
      <trkpt lat="44.08647" lon="7.24979">
        <ele>1084.1</ele>
        <time>2022-06-11T08:20:06Z</time>
      </trkpt>
      <trkpt lat="44.08649" lon="7.2498">
        <ele>1084.4</ele>
        <time>2022-06-11T08:20:07Z</time>
      </trkpt>
      <trkpt lat="44.08651" lon="7.2498">
        <ele>1084.7</ele>
        <time>2022-06-11T08:20:08Z</time>
      </trkpt>
      <trkpt lat="44.08653" lon="7.2498">
        <ele>1084.9</ele>
        <time>2022-06-11T08:20:09Z</time>
      </trkpt>
      <trkpt lat="44.08656" lon="7.24981">
        <ele>1085.2</ele>
        <time>2022-06-11T08:20:10Z</time>
      </trkpt>
      <trkpt lat="44.08658" lon="7.24981">
        <ele>1085.4</ele>
        <time>2022-06-11T08:20:11Z</time>
      </trkpt>
      <trkpt lat="44.0866" lon="7.24982">
        <ele>1085.6</ele>
        <time>2022-06-11T08:20:12Z</time>
      </trkpt>
      <trkpt lat="44.08662" lon="7.24982">
        <ele>1085.8</ele>
        <time>2022-06-11T08:20:13Z</time>
      </trkpt>
      <trkpt lat="44.08663" lon="7.24983">
        <ele>1086</ele>
        <time>2022-06-11T08:20:14Z</time>
      </trkpt>
      <trkpt lat="44.08665" lon="7.24983">
        <ele>1086.2</ele>
        <time>2022-06-11T08:20:15Z</time>
      </trkpt>
      <trkpt lat="44.08667" lon="7.24983">
        <ele>1086.4</ele>
        <time>2022-06-11T08:20:16Z</time>
      </trkpt>
      <trkpt lat="44.08668" lon="7.24984">
        <ele>1086.5</ele>
        <time>2022-06-11T08:20:17Z</time>
      </trkpt>
      <trkpt lat="44.08668" lon="7.24984">
        <ele>1086.5</ele>
        <time>2022-06-11T08:20:18Z</time>
      </trkpt>
      <trkpt lat="44.08668" lon="7.24984">
        <ele>1086.5</ele>
        <time>2022-06-11T08:20:19Z</time>
      </trkpt>
      <trkpt lat="44.08672" lon="7.24984">
        <ele>1086.8</ele>
        <time>2022-06-11T08:21:09Z</time>
      </trkpt>
      <trkpt lat="44.08674" lon="7.24984">
        <ele>1086.9</ele>
        <time>2022-06-11T08:21:10Z</time>
      </trkpt>
      <trkpt lat="44.08676" lon="7.24985">
        <ele>1087</ele>
        <time>2022-06-11T08:21:11Z</time>
      </trkpt>
      <trkpt lat="44.08678" lon="7.24986">
        <ele>1087.1</ele>
        <time>2022-06-11T08:21:12Z</time>
      </trkpt>
      <trkpt lat="44.08681" lon="7.24986">
        <ele>1087.3</ele>
        <time>2022-06-11T08:21:13Z</time>
      </trkpt>
      <trkpt lat="44.08683" lon="7.24986">
        <ele>1087.4</ele>
        <time>2022-06-11T08:21:14Z</time>
      </trkpt>
      <trkpt lat="44.08685" lon="7.24987">
        <ele>1087.5</ele>
        <time>2022-06-11T08:21:15Z</time>
      </trkpt>
      <trkpt lat="44.08687" lon="7.24987">
        <ele>1087.6</ele>
        <time>2022-06-11T08:21:16Z</time>
      </trkpt>
      <trkpt lat="44.08689" lon="7.24988">
        <ele>1087.6</ele>
        <time>2022-06-11T08:21:17Z</time>
      </trkpt>
      <trkpt lat="44.08691" lon="7.24989">
        <ele>1087.7</ele>
        <time>2022-06-11T08:21:18Z</time>
      </trkpt>
      <trkpt lat="44.08693" lon="7.24991">
        <ele>1087.6</ele>
        <time>2022-06-11T08:21:19Z</time>
      </trkpt>
      <trkpt lat="44.08696" lon="7.24992">
        <ele>1087.6</ele>
        <time>2022-06-11T08:21:20Z</time>
      </trkpt>
      <trkpt lat="44.08698" lon="7.24994">
        <ele>1087.5</ele>
        <time>2022-06-11T08:21:21Z</time>
      </trkpt>
      <trkpt lat="44.08701" lon="7.24995">
        <ele>1087.6</ele>
        <time>2022-06-11T08:21:22Z</time>
      </trkpt>
      <trkpt lat="44.08703" lon="7.24996">
        <ele>1087.7</ele>
        <time>2022-06-11T08:21:23Z</time>
      </trkpt>
      <trkpt lat="44.08705" lon="7.24996">
        <ele>1087.8</ele>
        <time>2022-06-11T08:21:24Z</time>
      </trkpt>
      <trkpt lat="44.08708" lon="7.24997">
        <ele>1087.9</ele>
        <time>2022-06-11T08:21:25Z</time>
      </trkpt>
      <trkpt lat="44.0871" lon="7.24998">
        <ele>1088</ele>
        <time>2022-06-11T08:21:26Z</time>
      </trkpt>
      <trkpt lat="44.08713" lon="7.24999">
        <ele>1088.1</ele>
        <time>2022-06-11T08:21:27Z</time>
      </trkpt>
      <trkpt lat="44.08715" lon="7.25">
        <ele>1088.2</ele>
        <time>2022-06-11T08:21:28Z</time>
      </trkpt>
      <trkpt lat="44.08718" lon="7.25001">
        <ele>1088.3</ele>
        <time>2022-06-11T08:21:29Z</time>
      </trkpt>
      <trkpt lat="44.0872" lon="7.25002">
        <ele>1088.5</ele>
        <time>2022-06-11T08:21:30Z</time>
      </trkpt>
      <trkpt lat="44.08723" lon="7.25003">
        <ele>1088.5</ele>
        <time>2022-06-11T08:21:31Z</time>
      </trkpt>
      <trkpt lat="44.08725" lon="7.25004">
        <ele>1088.5</ele>
        <time>2022-06-11T08:21:32Z</time>
      </trkpt>
      <trkpt lat="44.08727" lon="7.25005">
        <ele>1088.5</ele>
        <time>2022-06-11T08:21:33Z</time>
      </trkpt>
      <trkpt lat="44.0873" lon="7.25006">
        <ele>1088.5</ele>
        <time>2022-06-11T08:21:34Z</time>
      </trkpt>
      <trkpt lat="44.08732" lon="7.25007">
        <ele>1088.5</ele>
        <time>2022-06-11T08:21:35Z</time>
      </trkpt>
      <trkpt lat="44.08734" lon="7.25007">
        <ele>1088.6</ele>
        <time>2022-06-11T08:21:36Z</time>
      </trkpt>
      <trkpt lat="44.08737" lon="7.25008">
        <ele>1088.6</ele>
        <time>2022-06-11T08:21:37Z</time>
      </trkpt>
      <trkpt lat="44.08739" lon="7.25009">
        <ele>1088.6</ele>
        <time>2022-06-11T08:21:38Z</time>
      </trkpt>
      <trkpt lat="44.08741" lon="7.2501">
        <ele>1088.6</ele>
        <time>2022-06-11T08:21:39Z</time>
      </trkpt>
      <trkpt lat="44.08744" lon="7.25011">
        <ele>1088.6</ele>
        <time>2022-06-11T08:21:40Z</time>
      </trkpt>
      <trkpt lat="44.08746" lon="7.25012">
        <ele>1088.6</ele>
        <time>2022-06-11T08:21:41Z</time>
      </trkpt>
      <trkpt lat="44.08748" lon="7.25012">
        <ele>1088.7</ele>
        <time>2022-06-11T08:21:42Z</time>
      </trkpt>
      <trkpt lat="44.08751" lon="7.25013">
        <ele>1088.8</ele>
        <time>2022-06-11T08:21:43Z</time>
      </trkpt>
      <trkpt lat="44.08753" lon="7.25014">
        <ele>1088.8</ele>
        <time>2022-06-11T08:21:44Z</time>
      </trkpt>
      <trkpt lat="44.08755" lon="7.25015">
        <ele>1088.8</ele>
        <time>2022-06-11T08:21:45Z</time>
      </trkpt>
      <trkpt lat="44.08757" lon="7.25015">
        <ele>1088.9</ele>
        <time>2022-06-11T08:21:46Z</time>
      </trkpt>
      <trkpt lat="44.0876" lon="7.25016">
        <ele>1088.9</ele>
        <time>2022-06-11T08:21:47Z</time>
      </trkpt>
      <trkpt lat="44.08762" lon="7.25017">
        <ele>1089</ele>
        <time>2022-06-11T08:21:48Z</time>
      </trkpt>
      <trkpt lat="44.08764" lon="7.25018">
        <ele>1089</ele>
        <time>2022-06-11T08:21:49Z</time>
      </trkpt>
      <trkpt lat="44.08767" lon="7.25019">
        <ele>1089.1</ele>
        <time>2022-06-11T08:21:50Z</time>
      </trkpt>
      <trkpt lat="44.08769" lon="7.2502">
        <ele>1089.1</ele>
        <time>2022-06-11T08:21:51Z</time>
      </trkpt>
      <trkpt lat="44.08772" lon="7.2502">
        <ele>1089.1</ele>
        <time>2022-06-11T08:21:52Z</time>
      </trkpt>
      <trkpt lat="44.08775" lon="7.25021">
        <ele>1089.2</ele>
        <time>2022-06-11T08:21:53Z</time>
      </trkpt>
      <trkpt lat="44.08777" lon="7.25022">
        <ele>1089.3</ele>
        <time>2022-06-11T08:21:54Z</time>
      </trkpt>
      <trkpt lat="44.0878" lon="7.25023">
        <ele>1089.4</ele>
        <time>2022-06-11T08:21:55Z</time>
      </trkpt>
      <trkpt lat="44.08783" lon="7.25023">
        <ele>1089.5</ele>
        <time>2022-06-11T08:21:56Z</time>
      </trkpt>
      <trkpt lat="44.08785" lon="7.25024">
        <ele>1089.6</ele>
        <time>2022-06-11T08:21:57Z</time>
      </trkpt>
      <trkpt lat="44.08788" lon="7.25025">
        <ele>1089.8</ele>
        <time>2022-06-11T08:21:58Z</time>
      </trkpt>
      <trkpt lat="44.0879" lon="7.25025">
        <ele>1089.8</ele>
        <time>2022-06-11T08:21:59Z</time>
      </trkpt>
      <trkpt lat="44.08792" lon="7.25027">
        <ele>1089.8</ele>
        <time>2022-06-11T08:22:00Z</time>
      </trkpt>
      <trkpt lat="44.08795" lon="7.25027">
        <ele>1089.9</ele>
        <time>2022-06-11T08:22:01Z</time>
      </trkpt>
      <trkpt lat="44.08797" lon="7.25028">
        <ele>1090.1</ele>
        <time>2022-06-11T08:22:02Z</time>
      </trkpt>
      <trkpt lat="44.088" lon="7.25028">
        <ele>1090.3</ele>
        <time>2022-06-11T08:22:03Z</time>
      </trkpt>
      <trkpt lat="44.08802" lon="7.25029">
        <ele>1090.5</ele>
        <time>2022-06-11T08:22:04Z</time>
      </trkpt>
      <trkpt lat="44.08805" lon="7.25029">
        <ele>1090.6</ele>
        <time>2022-06-11T08:22:05Z</time>
      </trkpt>
      <trkpt lat="44.08807" lon="7.2503">
        <ele>1090.7</ele>
        <time>2022-06-11T08:22:06Z</time>
      </trkpt>
      <trkpt lat="44.0881" lon="7.25031">
        <ele>1090.8</ele>
        <time>2022-06-11T08:22:07Z</time>
      </trkpt>
      <trkpt lat="44.08812" lon="7.25031">
        <ele>1091</ele>
        <time>2022-06-11T08:22:08Z</time>
      </trkpt>
      <trkpt lat="44.08815" lon="7.25032">
        <ele>1091.1</ele>
        <time>2022-06-11T08:22:09Z</time>
      </trkpt>
      <trkpt lat="44.08817" lon="7.25033">
        <ele>1091.2</ele>
        <time>2022-06-11T08:22:10Z</time>
      </trkpt>
      <trkpt lat="44.08819" lon="7.25033">
        <ele>1091.4</ele>
        <time>2022-06-11T08:22:11Z</time>
      </trkpt>
      <trkpt lat="44.08822" lon="7.25034">
        <ele>1091.6</ele>
        <time>2022-06-11T08:22:12Z</time>
      </trkpt>
      <trkpt lat="44.08824" lon="7.25034">
        <ele>1091.7</ele>
        <time>2022-06-11T08:22:13Z</time>
      </trkpt>
      <trkpt lat="44.08827" lon="7.25035">
        <ele>1092</ele>
        <time>2022-06-11T08:22:14Z</time>
      </trkpt>
      <trkpt lat="44.08829" lon="7.25035">
        <ele>1092.2</ele>
        <time>2022-06-11T08:22:15Z</time>
      </trkpt>
      <trkpt lat="44.08831" lon="7.25035">
        <ele>1092.5</ele>
        <time>2022-06-11T08:22:16Z</time>
      </trkpt>
      <trkpt lat="44.08833" lon="7.25035">
        <ele>1092.6</ele>
        <time>2022-06-11T08:22:17Z</time>
      </trkpt>
      <trkpt lat="44.08836" lon="7.25036">
        <ele>1092.8</ele>
        <time>2022-06-11T08:22:18Z</time>
      </trkpt>
      <trkpt lat="44.08838" lon="7.25037">
        <ele>1093.1</ele>
        <time>2022-06-11T08:22:19Z</time>
      </trkpt>
      <trkpt lat="44.0884" lon="7.25038">
        <ele>1093.3</ele>
        <time>2022-06-11T08:22:20Z</time>
      </trkpt>
      <trkpt lat="44.08843" lon="7.25038">
        <ele>1093.5</ele>
        <time>2022-06-11T08:22:21Z</time>
      </trkpt>
      <trkpt lat="44.08845" lon="7.25039">
        <ele>1093.7</ele>
        <time>2022-06-11T08:22:22Z</time>
      </trkpt>
      <trkpt lat="44.08847" lon="7.25039">
        <ele>1093.9</ele>
        <time>2022-06-11T08:22:23Z</time>
      </trkpt>
      <trkpt lat="44.08849" lon="7.2504">
        <ele>1094.1</ele>
        <time>2022-06-11T08:22:24Z</time>
      </trkpt>
      <trkpt lat="44.08852" lon="7.2504">
        <ele>1094.4</ele>
        <time>2022-06-11T08:22:25Z</time>
      </trkpt>
      <trkpt lat="44.08854" lon="7.25041">
        <ele>1094.7</ele>
        <time>2022-06-11T08:22:26Z</time>
      </trkpt>
      <trkpt lat="44.08857" lon="7.25041">
        <ele>1095</ele>
        <time>2022-06-11T08:22:27Z</time>
      </trkpt>
      <trkpt lat="44.08859" lon="7.25042">
        <ele>1095.1</ele>
        <time>2022-06-11T08:22:28Z</time>
      </trkpt>
      <trkpt lat="44.08861" lon="7.25042">
        <ele>1095.3</ele>
        <time>2022-06-11T08:22:29Z</time>
      </trkpt>
      <trkpt lat="44.08863" lon="7.25043">
        <ele>1095.5</ele>
        <time>2022-06-11T08:22:30Z</time>
      </trkpt>
      <trkpt lat="44.08865" lon="7.25044">
        <ele>1095.7</ele>
        <time>2022-06-11T08:22:31Z</time>
      </trkpt>
      <trkpt lat="44.08867" lon="7.25045">
        <ele>1096</ele>
        <time>2022-06-11T08:22:32Z</time>
      </trkpt>
      <trkpt lat="44.0887" lon="7.25045">
        <ele>1096.2</ele>
        <time>2022-06-11T08:22:33Z</time>
      </trkpt>
      <trkpt lat="44.08872" lon="7.25047">
        <ele>1096.4</ele>
        <time>2022-06-11T08:22:34Z</time>
      </trkpt>
      <trkpt lat="44.08874" lon="7.25047">
        <ele>1096.7</ele>
        <time>2022-06-11T08:22:35Z</time>
      </trkpt>
      <trkpt lat="44.08876" lon="7.25048">
        <ele>1096.9</ele>
        <time>2022-06-11T08:22:36Z</time>
      </trkpt>
      <trkpt lat="44.08879" lon="7.2505">
        <ele>1097</ele>
        <time>2022-06-11T08:22:37Z</time>
      </trkpt>
      <trkpt lat="44.08881" lon="7.25052">
        <ele>1097.2</ele>
        <time>2022-06-11T08:22:38Z</time>
      </trkpt>
      <trkpt lat="44.08883" lon="7.25053">
        <ele>1097.3</ele>
        <time>2022-06-11T08:22:39Z</time>
      </trkpt>
      <trkpt lat="44.08885" lon="7.25055">
        <ele>1097.4</ele>
        <time>2022-06-11T08:22:40Z</time>
      </trkpt>
      <trkpt lat="44.08887" lon="7.25057">
        <ele>1097.6</ele>
        <time>2022-06-11T08:22:41Z</time>
      </trkpt>
      <trkpt lat="44.08889" lon="7.25059">
        <ele>1097.9</ele>
        <time>2022-06-11T08:22:42Z</time>
      </trkpt>
      <trkpt lat="44.08891" lon="7.25061">
        <ele>1098.2</ele>
        <time>2022-06-11T08:22:43Z</time>
      </trkpt>
      <trkpt lat="44.08893" lon="7.25064">
        <ele>1098.4</ele>
        <time>2022-06-11T08:22:44Z</time>
      </trkpt>
      <trkpt lat="44.08895" lon="7.25066">
        <ele>1098.6</ele>
        <time>2022-06-11T08:22:45Z</time>
      </trkpt>
      <trkpt lat="44.08896" lon="7.25069">
        <ele>1098.7</ele>
        <time>2022-06-11T08:22:46Z</time>
      </trkpt>
      <trkpt lat="44.08898" lon="7.25072">
        <ele>1098.8</ele>
        <time>2022-06-11T08:22:47Z</time>
      </trkpt>
      <trkpt lat="44.08899" lon="7.25074">
        <ele>1098.9</ele>
        <time>2022-06-11T08:22:48Z</time>
      </trkpt>
      <trkpt lat="44.089" lon="7.25077">
        <ele>1098.9</ele>
        <time>2022-06-11T08:22:49Z</time>
      </trkpt>
      <trkpt lat="44.08901" lon="7.2508">
        <ele>1098.9</ele>
        <time>2022-06-11T08:22:50Z</time>
      </trkpt>
      <trkpt lat="44.08902" lon="7.25083">
        <ele>1098.9</ele>
        <time>2022-06-11T08:22:51Z</time>
      </trkpt>
      <trkpt lat="44.08904" lon="7.25086">
        <ele>1099.1</ele>
        <time>2022-06-11T08:22:52Z</time>
      </trkpt>
      <trkpt lat="44.08905" lon="7.25089">
        <ele>1099.1</ele>
        <time>2022-06-11T08:22:53Z</time>
      </trkpt>
      <trkpt lat="44.08906" lon="7.25092">
        <ele>1099.3</ele>
        <time>2022-06-11T08:22:54Z</time>
      </trkpt>
      <trkpt lat="44.08907" lon="7.25096">
        <ele>1099.3</ele>
        <time>2022-06-11T08:22:55Z</time>
      </trkpt>
      <trkpt lat="44.08908" lon="7.25099">
        <ele>1099.4</ele>
        <time>2022-06-11T08:22:56Z</time>
      </trkpt>
      <trkpt lat="44.08909" lon="7.25102">
        <ele>1099.4</ele>
        <time>2022-06-11T08:22:57Z</time>
      </trkpt>
      <trkpt lat="44.0891" lon="7.25105">
        <ele>1099.5</ele>
        <time>2022-06-11T08:22:58Z</time>
      </trkpt>
      <trkpt lat="44.08911" lon="7.25108">
        <ele>1099.5</ele>
        <time>2022-06-11T08:22:59Z</time>
      </trkpt>
      <trkpt lat="44.08913" lon="7.25111">
        <ele>1099.6</ele>
        <time>2022-06-11T08:23:00Z</time>
      </trkpt>
      <trkpt lat="44.08914" lon="7.25114">
        <ele>1099.8</ele>
        <time>2022-06-11T08:23:01Z</time>
      </trkpt>
      <trkpt lat="44.08916" lon="7.25116">
        <ele>1100.1</ele>
        <time>2022-06-11T08:23:02Z</time>
      </trkpt>
      <trkpt lat="44.08917" lon="7.25118">
        <ele>1100.3</ele>
        <time>2022-06-11T08:23:03Z</time>
      </trkpt>
      <trkpt lat="44.08919" lon="7.2512">
        <ele>1100.6</ele>
        <time>2022-06-11T08:23:04Z</time>
      </trkpt>
      <trkpt lat="44.08921" lon="7.25123">
        <ele>1100.9</ele>
        <time>2022-06-11T08:23:05Z</time>
      </trkpt>
      <trkpt lat="44.08923" lon="7.25124">
        <ele>1101.1</ele>
        <time>2022-06-11T08:23:06Z</time>
      </trkpt>
      <trkpt lat="44.08925" lon="7.25126">
        <ele>1101.4</ele>
        <time>2022-06-11T08:23:07Z</time>
      </trkpt>
      <trkpt lat="44.08927" lon="7.25128">
        <ele>1101.6</ele>
        <time>2022-06-11T08:23:08Z</time>
      </trkpt>
      <trkpt lat="44.08929" lon="7.2513">
        <ele>1101.8</ele>
        <time>2022-06-11T08:23:09Z</time>
      </trkpt>
      <trkpt lat="44.08931" lon="7.25132">
        <ele>1102</ele>
        <time>2022-06-11T08:23:10Z</time>
      </trkpt>
      <trkpt lat="44.08932" lon="7.25133">
        <ele>1102.2</ele>
        <time>2022-06-11T08:23:11Z</time>
      </trkpt>
      <trkpt lat="44.08934" lon="7.25135">
        <ele>1102.3</ele>
        <time>2022-06-11T08:23:12Z</time>
      </trkpt>
      <trkpt lat="44.08937" lon="7.25136">
        <ele>1102.5</ele>
        <time>2022-06-11T08:23:13Z</time>
      </trkpt>
      <trkpt lat="44.08939" lon="7.25138">
        <ele>1102.6</ele>
        <time>2022-06-11T08:23:14Z</time>
      </trkpt>
      <trkpt lat="44.08941" lon="7.25139">
        <ele>1102.7</ele>
        <time>2022-06-11T08:23:15Z</time>
      </trkpt>
      <trkpt lat="44.08943" lon="7.25141">
        <ele>1102.9</ele>
        <time>2022-06-11T08:23:16Z</time>
      </trkpt>
      <trkpt lat="44.08945" lon="7.25142">
        <ele>1103</ele>
        <time>2022-06-11T08:23:17Z</time>
      </trkpt>
      <trkpt lat="44.08947" lon="7.25143">
        <ele>1103.2</ele>
        <time>2022-06-11T08:23:18Z</time>
      </trkpt>
      <trkpt lat="44.08949" lon="7.25144">
        <ele>1103.4</ele>
        <time>2022-06-11T08:23:19Z</time>
      </trkpt>
      <trkpt lat="44.0895" lon="7.25145">
        <ele>1103.6</ele>
        <time>2022-06-11T08:23:20Z</time>
      </trkpt>
      <trkpt lat="44.08952" lon="7.25147">
        <ele>1103.8</ele>
        <time>2022-06-11T08:23:21Z</time>
      </trkpt>
      <trkpt lat="44.08954" lon="7.25148">
        <ele>1103.9</ele>
        <time>2022-06-11T08:23:22Z</time>
      </trkpt>
      <trkpt lat="44.08956" lon="7.25149">
        <ele>1104.1</ele>
        <time>2022-06-11T08:23:23Z</time>
      </trkpt>
      <trkpt lat="44.08958" lon="7.25151">
        <ele>1104.2</ele>
        <time>2022-06-11T08:23:24Z</time>
      </trkpt>
      <trkpt lat="44.0896" lon="7.25152">
        <ele>1104.4</ele>
        <time>2022-06-11T08:23:25Z</time>
      </trkpt>
      <trkpt lat="44.08962" lon="7.25153">
        <ele>1104.5</ele>
        <time>2022-06-11T08:23:26Z</time>
      </trkpt>
      <trkpt lat="44.08964" lon="7.25155">
        <ele>1104.7</ele>
        <time>2022-06-11T08:23:27Z</time>
      </trkpt>
      <trkpt lat="44.08966" lon="7.25156">
        <ele>1104.8</ele>
        <time>2022-06-11T08:23:28Z</time>
      </trkpt>
      <trkpt lat="44.08968" lon="7.25158">
        <ele>1104.9</ele>
        <time>2022-06-11T08:23:29Z</time>
      </trkpt>
      <trkpt lat="44.0897" lon="7.25159">
        <ele>1105.1</ele>
        <time>2022-06-11T08:23:30Z</time>
      </trkpt>
      <trkpt lat="44.08972" lon="7.2516">
        <ele>1105.2</ele>
        <time>2022-06-11T08:23:31Z</time>
      </trkpt>
      <trkpt lat="44.08974" lon="7.25161">
        <ele>1105.4</ele>
        <time>2022-06-11T08:23:32Z</time>
      </trkpt>
      <trkpt lat="44.08976" lon="7.25162">
        <ele>1105.6</ele>
        <time>2022-06-11T08:23:33Z</time>
      </trkpt>
      <trkpt lat="44.08978" lon="7.25164">
        <ele>1105.7</ele>
        <time>2022-06-11T08:23:34Z</time>
      </trkpt>
      <trkpt lat="44.0898" lon="7.25165">
        <ele>1105.9</ele>
        <time>2022-06-11T08:23:35Z</time>
      </trkpt>
      <trkpt lat="44.08982" lon="7.25167">
        <ele>1106</ele>
        <time>2022-06-11T08:23:36Z</time>
      </trkpt>
      <trkpt lat="44.08984" lon="7.25168">
        <ele>1106.2</ele>
        <time>2022-06-11T08:23:37Z</time>
      </trkpt>
      <trkpt lat="44.08985" lon="7.25169">
        <ele>1106.5</ele>
        <time>2022-06-11T08:23:38Z</time>
      </trkpt>
      <trkpt lat="44.08987" lon="7.25171">
        <ele>1106.7</ele>
        <time>2022-06-11T08:23:39Z</time>
      </trkpt>
      <trkpt lat="44.08989" lon="7.25172">
        <ele>1106.9</ele>
        <time>2022-06-11T08:23:40Z</time>
      </trkpt>
      <trkpt lat="44.08991" lon="7.25172">
        <ele>1107.1</ele>
        <time>2022-06-11T08:23:41Z</time>
      </trkpt>
      <trkpt lat="44.08993" lon="7.25173">
        <ele>1107.3</ele>
        <time>2022-06-11T08:23:42Z</time>
      </trkpt>
      <trkpt lat="44.08995" lon="7.25174">
        <ele>1107.5</ele>
        <time>2022-06-11T08:23:43Z</time>
      </trkpt>
      <trkpt lat="44.08997" lon="7.25175">
        <ele>1107.7</ele>
        <time>2022-06-11T08:23:44Z</time>
      </trkpt>
      <trkpt lat="44.08999" lon="7.25175">
        <ele>1107.9</ele>
        <time>2022-06-11T08:23:45Z</time>
      </trkpt>
      <trkpt lat="44.09001" lon="7.25176">
        <ele>1108.1</ele>
        <time>2022-06-11T08:23:46Z</time>
      </trkpt>
      <trkpt lat="44.09003" lon="7.25177">
        <ele>1108.3</ele>
        <time>2022-06-11T08:23:47Z</time>
      </trkpt>
      <trkpt lat="44.09005" lon="7.25177">
        <ele>1108.6</ele>
        <time>2022-06-11T08:23:48Z</time>
      </trkpt>
      <trkpt lat="44.09006" lon="7.25178">
        <ele>1108.8</ele>
        <time>2022-06-11T08:23:49Z</time>
      </trkpt>
      <trkpt lat="44.09008" lon="7.25178">
        <ele>1109.1</ele>
        <time>2022-06-11T08:23:50Z</time>
      </trkpt>
      <trkpt lat="44.0901" lon="7.25179">
        <ele>1109.3</ele>
        <time>2022-06-11T08:23:51Z</time>
      </trkpt>
      <trkpt lat="44.09012" lon="7.25179">
        <ele>1109.6</ele>
        <time>2022-06-11T08:23:52Z</time>
      </trkpt>
      <trkpt lat="44.09014" lon="7.25179">
        <ele>1109.8</ele>
        <time>2022-06-11T08:23:53Z</time>
      </trkpt>
      <trkpt lat="44.09016" lon="7.25179">
        <ele>1110.1</ele>
        <time>2022-06-11T08:23:54Z</time>
      </trkpt>
      <trkpt lat="44.09018" lon="7.25178">
        <ele>1110.3</ele>
        <time>2022-06-11T08:23:55Z</time>
      </trkpt>
      <trkpt lat="44.0902" lon="7.25178">
        <ele>1110.6</ele>
        <time>2022-06-11T08:23:56Z</time>
      </trkpt>
      <trkpt lat="44.09022" lon="7.25178">
        <ele>1110.8</ele>
        <time>2022-06-11T08:23:57Z</time>
      </trkpt>
      <trkpt lat="44.09024" lon="7.25177">
        <ele>1111.1</ele>
        <time>2022-06-11T08:23:58Z</time>
      </trkpt>
      <trkpt lat="44.09026" lon="7.25176">
        <ele>1111.4</ele>
        <time>2022-06-11T08:23:59Z</time>
      </trkpt>
      <trkpt lat="44.09028" lon="7.25175">
        <ele>1111.7</ele>
        <time>2022-06-11T08:24:00Z</time>
      </trkpt>
      <trkpt lat="44.09029" lon="7.25174">
        <ele>1111.9</ele>
        <time>2022-06-11T08:24:01Z</time>
      </trkpt>
      <trkpt lat="44.09031" lon="7.25173">
        <ele>1112.2</ele>
        <time>2022-06-11T08:24:02Z</time>
      </trkpt>
      <trkpt lat="44.09033" lon="7.25171">
        <ele>1112.5</ele>
        <time>2022-06-11T08:24:03Z</time>
      </trkpt>
      <trkpt lat="44.09034" lon="7.2517">
        <ele>1112.8</ele>
        <time>2022-06-11T08:24:04Z</time>
      </trkpt>
      <trkpt lat="44.09036" lon="7.25168">
        <ele>1113.1</ele>
        <time>2022-06-11T08:24:05Z</time>
      </trkpt>
      <trkpt lat="44.09038" lon="7.25166">
        <ele>1113.5</ele>
        <time>2022-06-11T08:24:06Z</time>
      </trkpt>
      <trkpt lat="44.09039" lon="7.25164">
        <ele>1114.1</ele>
        <time>2022-06-11T08:24:07Z</time>
      </trkpt>
      <trkpt lat="44.09041" lon="7.25161">
        <ele>1114.6</ele>
        <time>2022-06-11T08:24:08Z</time>
      </trkpt>
      <trkpt lat="44.09042" lon="7.25159">
        <ele>1115.2</ele>
        <time>2022-06-11T08:24:09Z</time>
      </trkpt>
      <trkpt lat="44.09043" lon="7.25156">
        <ele>1115.7</ele>
        <time>2022-06-11T08:24:10Z</time>
      </trkpt>
      <trkpt lat="44.09043" lon="7.25153">
        <ele>1116.2</ele>
        <time>2022-06-11T08:24:11Z</time>
      </trkpt>
      <trkpt lat="44.09044" lon="7.2515">
        <ele>1116.7</ele>
        <time>2022-06-11T08:24:12Z</time>
      </trkpt>
      <trkpt lat="44.09044" lon="7.25148">
        <ele>1117.1</ele>
        <time>2022-06-11T08:24:13Z</time>
      </trkpt>
      <trkpt lat="44.09044" lon="7.25144">
        <ele>1117.6</ele>
        <time>2022-06-11T08:24:14Z</time>
      </trkpt>
      <trkpt lat="44.09044" lon="7.25142">
        <ele>1118</ele>
        <time>2022-06-11T08:24:15Z</time>
      </trkpt>
      <trkpt lat="44.09044" lon="7.25139">
        <ele>1118.3</ele>
        <time>2022-06-11T08:24:16Z</time>
      </trkpt>
      <trkpt lat="44.09044" lon="7.25136">
        <ele>1118.7</ele>
        <time>2022-06-11T08:24:17Z</time>
      </trkpt>
      <trkpt lat="44.09043" lon="7.25134">
        <ele>1119</ele>
        <time>2022-06-11T08:24:18Z</time>
      </trkpt>
      <trkpt lat="44.09043" lon="7.25131">
        <ele>1119.3</ele>
        <time>2022-06-11T08:24:19Z</time>
      </trkpt>
      <trkpt lat="44.09043" lon="7.25128">
        <ele>1119.7</ele>
        <time>2022-06-11T08:24:20Z</time>
      </trkpt>
      <trkpt lat="44.09043" lon="7.25126">
        <ele>1120</ele>
        <time>2022-06-11T08:24:21Z</time>
      </trkpt>
      <trkpt lat="44.09042" lon="7.25123">
        <ele>1120.4</ele>
        <time>2022-06-11T08:24:22Z</time>
      </trkpt>
      <trkpt lat="44.09042" lon="7.25121">
        <ele>1120.7</ele>
        <time>2022-06-11T08:24:23Z</time>
      </trkpt>
      <trkpt lat="44.09042" lon="7.25118">
        <ele>1121</ele>
        <time>2022-06-11T08:24:24Z</time>
      </trkpt>
      <trkpt lat="44.09041" lon="7.25115">
        <ele>1121.4</ele>
        <time>2022-06-11T08:24:25Z</time>
      </trkpt>
      <trkpt lat="44.09041" lon="7.25112">
        <ele>1121.8</ele>
        <time>2022-06-11T08:24:26Z</time>
      </trkpt>
      <trkpt lat="44.09041" lon="7.25109">
        <ele>1122.2</ele>
        <time>2022-06-11T08:24:27Z</time>
      </trkpt>
      <trkpt lat="44.0904" lon="7.25107">
        <ele>1122.5</ele>
        <time>2022-06-11T08:24:28Z</time>
      </trkpt>
      <trkpt lat="44.0904" lon="7.25104">
        <ele>1122.9</ele>
        <time>2022-06-11T08:24:29Z</time>
      </trkpt>
      <trkpt lat="44.09039" lon="7.25101">
        <ele>1123.3</ele>
        <time>2022-06-11T08:24:30Z</time>
      </trkpt>
      <trkpt lat="44.09039" lon="7.25098">
        <ele>1123.6</ele>
        <time>2022-06-11T08:24:31Z</time>
      </trkpt>
      <trkpt lat="44.09038" lon="7.25095">
        <ele>1124</ele>
        <time>2022-06-11T08:24:32Z</time>
      </trkpt>
      <trkpt lat="44.09037" lon="7.25092">
        <ele>1124.3</ele>
        <time>2022-06-11T08:24:33Z</time>
      </trkpt>
      <trkpt lat="44.09037" lon="7.25089">
        <ele>1124.7</ele>
        <time>2022-06-11T08:24:34Z</time>
      </trkpt>
      <trkpt lat="44.09036" lon="7.25086">
        <ele>1125.1</ele>
        <time>2022-06-11T08:24:35Z</time>
      </trkpt>
      <trkpt lat="44.09036" lon="7.25083">
        <ele>1125.5</ele>
        <time>2022-06-11T08:24:36Z</time>
      </trkpt>
      <trkpt lat="44.09035" lon="7.2508">
        <ele>1125.7</ele>
        <time>2022-06-11T08:24:37Z</time>
      </trkpt>
      <trkpt lat="44.09034" lon="7.25077">
        <ele>1125.9</ele>
        <time>2022-06-11T08:24:38Z</time>
      </trkpt>
      <trkpt lat="44.09034" lon="7.25074">
        <ele>1126.2</ele>
        <time>2022-06-11T08:24:39Z</time>
      </trkpt>
      <trkpt lat="44.09034" lon="7.25071">
        <ele>1126.5</ele>
        <time>2022-06-11T08:24:40Z</time>
      </trkpt>
      <trkpt lat="44.09033" lon="7.25068">
        <ele>1126.8</ele>
        <time>2022-06-11T08:24:41Z</time>
      </trkpt>
      <trkpt lat="44.09032" lon="7.25066">
        <ele>1126.8</ele>
        <time>2022-06-11T08:24:42Z</time>
      </trkpt>
      <trkpt lat="44.09031" lon="7.25063">
        <ele>1126.9</ele>
        <time>2022-06-11T08:24:43Z</time>
      </trkpt>
      <trkpt lat="44.09031" lon="7.2506">
        <ele>1127.1</ele>
        <time>2022-06-11T08:24:44Z</time>
      </trkpt>
      <trkpt lat="44.0903" lon="7.25057">
        <ele>1127.3</ele>
        <time>2022-06-11T08:24:45Z</time>
      </trkpt>
      <trkpt lat="44.09029" lon="7.25054">
        <ele>1127.5</ele>
        <time>2022-06-11T08:24:46Z</time>
      </trkpt>
      <trkpt lat="44.09028" lon="7.2505">
        <ele>1127.8</ele>
        <time>2022-06-11T08:24:47Z</time>
      </trkpt>
      <trkpt lat="44.09027" lon="7.25047">
        <ele>1128.1</ele>
        <time>2022-06-11T08:24:48Z</time>
      </trkpt>
      <trkpt lat="44.09026" lon="7.25044">
        <ele>1128.3</ele>
        <time>2022-06-11T08:24:49Z</time>
      </trkpt>
      <trkpt lat="44.09026" lon="7.25041">
        <ele>1128.5</ele>
        <time>2022-06-11T08:24:50Z</time>
      </trkpt>
      <trkpt lat="44.09025" lon="7.25038">
        <ele>1128.7</ele>
        <time>2022-06-11T08:24:51Z</time>
      </trkpt>
      <trkpt lat="44.09024" lon="7.25035">
        <ele>1129</ele>
        <time>2022-06-11T08:24:52Z</time>
      </trkpt>
      <trkpt lat="44.09023" lon="7.25031">
        <ele>1129.3</ele>
        <time>2022-06-11T08:24:53Z</time>
      </trkpt>
      <trkpt lat="44.09023" lon="7.25028">
        <ele>1129.5</ele>
        <time>2022-06-11T08:24:54Z</time>
      </trkpt>
      <trkpt lat="44.09022" lon="7.25025">
        <ele>1129.8</ele>
        <time>2022-06-11T08:24:55Z</time>
      </trkpt>
      <trkpt lat="44.09021" lon="7.25022">
        <ele>1130</ele>
        <time>2022-06-11T08:24:56Z</time>
      </trkpt>
      <trkpt lat="44.09021" lon="7.25019">
        <ele>1130.2</ele>
        <time>2022-06-11T08:24:57Z</time>
      </trkpt>
      <trkpt lat="44.0902" lon="7.25016">
        <ele>1130.3</ele>
        <time>2022-06-11T08:24:58Z</time>
      </trkpt>
      <trkpt lat="44.09019" lon="7.25013">
        <ele>1130.4</ele>
        <time>2022-06-11T08:24:59Z</time>
      </trkpt>
      <trkpt lat="44.09017" lon="7.2501">
        <ele>1130.4</ele>
        <time>2022-06-11T08:25:00Z</time>
      </trkpt>
      <trkpt lat="44.09016" lon="7.25008">
        <ele>1130.4</ele>
        <time>2022-06-11T08:25:01Z</time>
      </trkpt>
      <trkpt lat="44.09014" lon="7.25005">
        <ele>1130.3</ele>
        <time>2022-06-11T08:25:02Z</time>
      </trkpt>
      <trkpt lat="44.09012" lon="7.25002">
        <ele>1130.2</ele>
        <time>2022-06-11T08:25:03Z</time>
      </trkpt>
      <trkpt lat="44.09011" lon="7.24999">
        <ele>1130.2</ele>
        <time>2022-06-11T08:25:04Z</time>
      </trkpt>
      <trkpt lat="44.09009" lon="7.24996">
        <ele>1130.1</ele>
        <time>2022-06-11T08:25:05Z</time>
      </trkpt>
      <trkpt lat="44.09007" lon="7.24994">
        <ele>1130</ele>
        <time>2022-06-11T08:25:06Z</time>
      </trkpt>
      <trkpt lat="44.09006" lon="7.24991">
        <ele>1129.9</ele>
        <time>2022-06-11T08:25:07Z</time>
      </trkpt>
      <trkpt lat="44.09004" lon="7.24989">
        <ele>1129.8</ele>
        <time>2022-06-11T08:25:08Z</time>
      </trkpt>
      <trkpt lat="44.09003" lon="7.24986">
        <ele>1129.7</ele>
        <time>2022-06-11T08:25:09Z</time>
      </trkpt>
      <trkpt lat="44.09001" lon="7.24984">
        <ele>1129.4</ele>
        <time>2022-06-11T08:25:10Z</time>
      </trkpt>
      <trkpt lat="44.08999" lon="7.24982">
        <ele>1129.5</ele>
        <time>2022-06-11T08:25:11Z</time>
      </trkpt>
      <trkpt lat="44.08997" lon="7.2498">
        <ele>1129.4</ele>
        <time>2022-06-11T08:25:12Z</time>
      </trkpt>
      <trkpt lat="44.08996" lon="7.24977">
        <ele>1129.3</ele>
        <time>2022-06-11T08:25:13Z</time>
      </trkpt>
      <trkpt lat="44.08994" lon="7.24975">
        <ele>1129.2</ele>
        <time>2022-06-11T08:25:14Z</time>
      </trkpt>
      <trkpt lat="44.08992" lon="7.24973">
        <ele>1129.2</ele>
        <time>2022-06-11T08:25:15Z</time>
      </trkpt>
      <trkpt lat="44.0899" lon="7.24971">
        <ele>1129.2</ele>
        <time>2022-06-11T08:25:16Z</time>
      </trkpt>
      <trkpt lat="44.08988" lon="7.24969">
        <ele>1129.3</ele>
        <time>2022-06-11T08:25:17Z</time>
      </trkpt>
      <trkpt lat="44.08987" lon="7.24966">
        <ele>1129.7</ele>
        <time>2022-06-11T08:25:18Z</time>
      </trkpt>
      <trkpt lat="44.08985" lon="7.24964">
        <ele>1130</ele>
        <time>2022-06-11T08:25:19Z</time>
      </trkpt>
      <trkpt lat="44.08983" lon="7.24962">
        <ele>1130.1</ele>
        <time>2022-06-11T08:25:20Z</time>
      </trkpt>
      <trkpt lat="44.08981" lon="7.2496">
        <ele>1130.2</ele>
        <time>2022-06-11T08:25:21Z</time>
      </trkpt>
      <trkpt lat="44.08979" lon="7.24959">
        <ele>1130.3</ele>
        <time>2022-06-11T08:25:22Z</time>
      </trkpt>
      <trkpt lat="44.08977" lon="7.24957">
        <ele>1130.5</ele>
        <time>2022-06-11T08:25:23Z</time>
      </trkpt>
      <trkpt lat="44.08975" lon="7.24954">
        <ele>1130.8</ele>
        <time>2022-06-11T08:25:24Z</time>
      </trkpt>
      <trkpt lat="44.08973" lon="7.24952">
        <ele>1130.9</ele>
        <time>2022-06-11T08:25:25Z</time>
      </trkpt>
      <trkpt lat="44.08972" lon="7.2495">
        <ele>1131.2</ele>
        <time>2022-06-11T08:25:26Z</time>
      </trkpt>
      <trkpt lat="44.0897" lon="7.24948">
        <ele>1131.5</ele>
        <time>2022-06-11T08:25:27Z</time>
      </trkpt>
      <trkpt lat="44.08969" lon="7.24946">
        <ele>1131.8</ele>
        <time>2022-06-11T08:25:28Z</time>
      </trkpt>
      <trkpt lat="44.08967" lon="7.24944">
        <ele>1132.1</ele>
        <time>2022-06-11T08:25:29Z</time>
      </trkpt>
      <trkpt lat="44.08965" lon="7.24942">
        <ele>1132.5</ele>
        <time>2022-06-11T08:25:30Z</time>
      </trkpt>
      <trkpt lat="44.08964" lon="7.2494">
        <ele>1132.9</ele>
        <time>2022-06-11T08:25:31Z</time>
      </trkpt>
      <trkpt lat="44.08962" lon="7.24937">
        <ele>1133.5</ele>
        <time>2022-06-11T08:25:32Z</time>
      </trkpt>
      <trkpt lat="44.08961" lon="7.24935">
        <ele>1134.1</ele>
        <time>2022-06-11T08:25:33Z</time>
      </trkpt>
      <trkpt lat="44.08959" lon="7.24932">
        <ele>1134.6</ele>
        <time>2022-06-11T08:25:34Z</time>
      </trkpt>
      <trkpt lat="44.08958" lon="7.24931">
        <ele>1134.9</ele>
        <time>2022-06-11T08:25:35Z</time>
      </trkpt>
      <trkpt lat="44.08956" lon="7.2493">
        <ele>1134.9</ele>
        <time>2022-06-11T08:25:36Z</time>
      </trkpt>
      <trkpt lat="44.08954" lon="7.24929">
        <ele>1134.9</ele>
        <time>2022-06-11T08:25:37Z</time>
      </trkpt>
      <trkpt lat="44.08953" lon="7.24928">
        <ele>1134.9</ele>
        <time>2022-06-11T08:25:38Z</time>
      </trkpt>
      <trkpt lat="44.08951" lon="7.24927">
        <ele>1134.9</ele>
        <time>2022-06-11T08:25:39Z</time>
      </trkpt>
      <trkpt lat="44.0895" lon="7.24926">
        <ele>1135</ele>
        <time>2022-06-11T08:25:40Z</time>
      </trkpt>
      <trkpt lat="44.08949" lon="7.24925">
        <ele>1135.2</ele>
        <time>2022-06-11T08:25:41Z</time>
      </trkpt>
      <trkpt lat="44.08949" lon="7.24923">
        <ele>1135.7</ele>
        <time>2022-06-11T08:25:42Z</time>
      </trkpt>
      <trkpt lat="44.08948" lon="7.24922">
        <ele>1136</ele>
        <time>2022-06-11T08:25:43Z</time>
      </trkpt>
      <trkpt lat="44.08947" lon="7.24921">
        <ele>1136.3</ele>
        <time>2022-06-11T08:25:44Z</time>
      </trkpt>
      <trkpt lat="44.08947" lon="7.24919">
        <ele>1136.6</ele>
        <time>2022-06-11T08:25:45Z</time>
      </trkpt>
      <trkpt lat="44.08946" lon="7.24918">
        <ele>1136.9</ele>
        <time>2022-06-11T08:25:46Z</time>
      </trkpt>
      <trkpt lat="44.08944" lon="7.24916">
        <ele>1137.1</ele>
        <time>2022-06-11T08:25:47Z</time>
      </trkpt>
      <trkpt lat="44.08943" lon="7.24915">
        <ele>1137.5</ele>
        <time>2022-06-11T08:25:48Z</time>
      </trkpt>
      <trkpt lat="44.08942" lon="7.24913">
        <ele>1137.8</ele>
        <time>2022-06-11T08:25:49Z</time>
      </trkpt>
      <trkpt lat="44.08941" lon="7.24911">
        <ele>1138.2</ele>
        <time>2022-06-11T08:25:50Z</time>
      </trkpt>
      <trkpt lat="44.08939" lon="7.2491">
        <ele>1138.5</ele>
        <time>2022-06-11T08:25:51Z</time>
      </trkpt>
      <trkpt lat="44.08938" lon="7.24908">
        <ele>1138.8</ele>
        <time>2022-06-11T08:25:52Z</time>
      </trkpt>
      <trkpt lat="44.08937" lon="7.24907">
        <ele>1138.8</ele>
        <time>2022-06-11T08:25:53Z</time>
      </trkpt>
      <trkpt lat="44.08935" lon="7.24906">
        <ele>1139.1</ele>
        <time>2022-06-11T08:25:54Z</time>
      </trkpt>
      <trkpt lat="44.08934" lon="7.24904">
        <ele>1139.4</ele>
        <time>2022-06-11T08:25:55Z</time>
      </trkpt>
      <trkpt lat="44.08932" lon="7.24903">
        <ele>1139.4</ele>
        <time>2022-06-11T08:25:56Z</time>
      </trkpt>
      <trkpt lat="44.0893" lon="7.24901">
        <ele>1139.8</ele>
        <time>2022-06-11T08:25:57Z</time>
      </trkpt>
      <trkpt lat="44.08928" lon="7.24899">
        <ele>1140.1</ele>
        <time>2022-06-11T08:25:58Z</time>
      </trkpt>
      <trkpt lat="44.08926" lon="7.24897">
        <ele>1140.4</ele>
        <time>2022-06-11T08:25:59Z</time>
      </trkpt>
      <trkpt lat="44.08924" lon="7.24895">
        <ele>1140.7</ele>
        <time>2022-06-11T08:26:00Z</time>
      </trkpt>
      <trkpt lat="44.08923" lon="7.24892">
        <ele>1141.1</ele>
        <time>2022-06-11T08:26:01Z</time>
      </trkpt>
      <trkpt lat="44.08921" lon="7.2489">
        <ele>1141.4</ele>
        <time>2022-06-11T08:26:02Z</time>
      </trkpt>
      <trkpt lat="44.08919" lon="7.24888">
        <ele>1141.8</ele>
        <time>2022-06-11T08:26:03Z</time>
      </trkpt>
      <trkpt lat="44.08918" lon="7.24886">
        <ele>1142.3</ele>
        <time>2022-06-11T08:26:04Z</time>
      </trkpt>
      <trkpt lat="44.08916" lon="7.24885">
        <ele>1142.5</ele>
        <time>2022-06-11T08:26:05Z</time>
      </trkpt>
      <trkpt lat="44.08915" lon="7.24883">
        <ele>1142.7</ele>
        <time>2022-06-11T08:26:06Z</time>
      </trkpt>
      <trkpt lat="44.08913" lon="7.24881">
        <ele>1143</ele>
        <time>2022-06-11T08:26:07Z</time>
      </trkpt>
      <trkpt lat="44.08911" lon="7.24879">
        <ele>1143.2</ele>
        <time>2022-06-11T08:26:08Z</time>
      </trkpt>
      <trkpt lat="44.0891" lon="7.24877">
        <ele>1143.5</ele>
        <time>2022-06-11T08:26:09Z</time>
      </trkpt>
      <trkpt lat="44.08908" lon="7.24876">
        <ele>1143.6</ele>
        <time>2022-06-11T08:26:10Z</time>
      </trkpt>
      <trkpt lat="44.08906" lon="7.24874">
        <ele>1143.9</ele>
        <time>2022-06-11T08:26:11Z</time>
      </trkpt>
      <trkpt lat="44.08904" lon="7.24873">
        <ele>1143.8</ele>
        <time>2022-06-11T08:26:12Z</time>
      </trkpt>
      <trkpt lat="44.08902" lon="7.24872">
        <ele>1143.7</ele>
        <time>2022-06-11T08:26:13Z</time>
      </trkpt>
      <trkpt lat="44.08901" lon="7.2487">
        <ele>1143.9</ele>
        <time>2022-06-11T08:26:14Z</time>
      </trkpt>
      <trkpt lat="44.08899" lon="7.24868">
        <ele>1144</ele>
        <time>2022-06-11T08:26:15Z</time>
      </trkpt>
      <trkpt lat="44.08897" lon="7.24867">
        <ele>1144.1</ele>
        <time>2022-06-11T08:26:16Z</time>
      </trkpt>
      <trkpt lat="44.08895" lon="7.24866">
        <ele>1144.1</ele>
        <time>2022-06-11T08:26:17Z</time>
      </trkpt>
      <trkpt lat="44.08893" lon="7.24864">
        <ele>1144.1</ele>
        <time>2022-06-11T08:26:18Z</time>
      </trkpt>
      <trkpt lat="44.08891" lon="7.24863">
        <ele>1144</ele>
        <time>2022-06-11T08:26:19Z</time>
      </trkpt>
      <trkpt lat="44.08889" lon="7.24861">
        <ele>1144</ele>
        <time>2022-06-11T08:26:20Z</time>
      </trkpt>
      <trkpt lat="44.08887" lon="7.24859">
        <ele>1144.4</ele>
        <time>2022-06-11T08:26:21Z</time>
      </trkpt>
      <trkpt lat="44.08885" lon="7.24858">
        <ele>1144.7</ele>
        <time>2022-06-11T08:26:22Z</time>
      </trkpt>
      <trkpt lat="44.08883" lon="7.24856">
        <ele>1145</ele>
        <time>2022-06-11T08:26:23Z</time>
      </trkpt>
      <trkpt lat="44.08881" lon="7.24855">
        <ele>1145.1</ele>
        <time>2022-06-11T08:26:24Z</time>
      </trkpt>
      <trkpt lat="44.08879" lon="7.24854">
        <ele>1145.2</ele>
        <time>2022-06-11T08:26:25Z</time>
      </trkpt>
      <trkpt lat="44.08877" lon="7.24852">
        <ele>1145.5</ele>
        <time>2022-06-11T08:26:26Z</time>
      </trkpt>
      <trkpt lat="44.08875" lon="7.24851">
        <ele>1145.7</ele>
        <time>2022-06-11T08:26:27Z</time>
      </trkpt>
      <trkpt lat="44.08873" lon="7.24849">
        <ele>1145.9</ele>
        <time>2022-06-11T08:26:28Z</time>
      </trkpt>
      <trkpt lat="44.08871" lon="7.24848">
        <ele>1146.1</ele>
        <time>2022-06-11T08:26:29Z</time>
      </trkpt>
      <trkpt lat="44.08869" lon="7.24847">
        <ele>1146.2</ele>
        <time>2022-06-11T08:26:30Z</time>
      </trkpt>
      <trkpt lat="44.08867" lon="7.24846">
        <ele>1146.1</ele>
        <time>2022-06-11T08:26:31Z</time>
      </trkpt>
      <trkpt lat="44.08865" lon="7.24845">
        <ele>1146.2</ele>
        <time>2022-06-11T08:26:32Z</time>
      </trkpt>
      <trkpt lat="44.08863" lon="7.24844">
        <ele>1146.3</ele>
        <time>2022-06-11T08:26:33Z</time>
      </trkpt>
      <trkpt lat="44.08861" lon="7.24842">
        <ele>1146.6</ele>
        <time>2022-06-11T08:26:34Z</time>
      </trkpt>
      <trkpt lat="44.08859" lon="7.24841">
        <ele>1146.7</ele>
        <time>2022-06-11T08:26:35Z</time>
      </trkpt>
      <trkpt lat="44.08857" lon="7.2484">
        <ele>1146.6</ele>
        <time>2022-06-11T08:26:36Z</time>
      </trkpt>
      <trkpt lat="44.08855" lon="7.24838">
        <ele>1146.7</ele>
        <time>2022-06-11T08:26:37Z</time>
      </trkpt>
      <trkpt lat="44.08853" lon="7.24837">
        <ele>1146.7</ele>
        <time>2022-06-11T08:26:38Z</time>
      </trkpt>
      <trkpt lat="44.0885" lon="7.24836">
        <ele>1146.8</ele>
        <time>2022-06-11T08:26:39Z</time>
      </trkpt>
      <trkpt lat="44.08848" lon="7.24834">
        <ele>1147</ele>
        <time>2022-06-11T08:26:40Z</time>
      </trkpt>
      <trkpt lat="44.08847" lon="7.24833">
        <ele>1147.1</ele>
        <time>2022-06-11T08:26:41Z</time>
      </trkpt>
      <trkpt lat="44.08845" lon="7.24832">
        <ele>1147.1</ele>
        <time>2022-06-11T08:26:42Z</time>
      </trkpt>
      <trkpt lat="44.08843" lon="7.24831">
        <ele>1147.2</ele>
        <time>2022-06-11T08:26:43Z</time>
      </trkpt>
      <trkpt lat="44.08841" lon="7.24829">
        <ele>1147.4</ele>
        <time>2022-06-11T08:26:44Z</time>
      </trkpt>
      <trkpt lat="44.08838" lon="7.24828">
        <ele>1147.4</ele>
        <time>2022-06-11T08:26:45Z</time>
      </trkpt>
      <trkpt lat="44.08836" lon="7.24828">
        <ele>1147.3</ele>
        <time>2022-06-11T08:26:46Z</time>
      </trkpt>
      <trkpt lat="44.08834" lon="7.24826">
        <ele>1147.5</ele>
        <time>2022-06-11T08:26:47Z</time>
      </trkpt>
      <trkpt lat="44.08832" lon="7.24825">
        <ele>1147.5</ele>
        <time>2022-06-11T08:26:48Z</time>
      </trkpt>
      <trkpt lat="44.0883" lon="7.24825">
        <ele>1147.5</ele>
        <time>2022-06-11T08:26:49Z</time>
      </trkpt>
      <trkpt lat="44.08828" lon="7.24824">
        <ele>1147.4</ele>
        <time>2022-06-11T08:26:50Z</time>
      </trkpt>
      <trkpt lat="44.08826" lon="7.24823">
        <ele>1147.4</ele>
        <time>2022-06-11T08:26:51Z</time>
      </trkpt>
      <trkpt lat="44.08824" lon="7.24822">
        <ele>1147.5</ele>
        <time>2022-06-11T08:26:52Z</time>
      </trkpt>
      <trkpt lat="44.08822" lon="7.24821">
        <ele>1147.7</ele>
        <time>2022-06-11T08:26:53Z</time>
      </trkpt>
      <trkpt lat="44.08819" lon="7.2482">
        <ele>1147.9</ele>
        <time>2022-06-11T08:26:54Z</time>
      </trkpt>
      <trkpt lat="44.08817" lon="7.24818">
        <ele>1148.3</ele>
        <time>2022-06-11T08:26:55Z</time>
      </trkpt>
      <trkpt lat="44.08815" lon="7.24817">
        <ele>1148.6</ele>
        <time>2022-06-11T08:26:56Z</time>
      </trkpt>
      <trkpt lat="44.08813" lon="7.24815">
        <ele>1148.7</ele>
        <time>2022-06-11T08:26:57Z</time>
      </trkpt>
      <trkpt lat="44.08811" lon="7.24814">
        <ele>1148.9</ele>
        <time>2022-06-11T08:26:58Z</time>
      </trkpt>
      <trkpt lat="44.08809" lon="7.24813">
        <ele>1148.9</ele>
        <time>2022-06-11T08:26:59Z</time>
      </trkpt>
      <trkpt lat="44.08806" lon="7.24812">
        <ele>1148.9</ele>
        <time>2022-06-11T08:27:00Z</time>
      </trkpt>
      <trkpt lat="44.08804" lon="7.24811">
        <ele>1149</ele>
        <time>2022-06-11T08:27:01Z</time>
      </trkpt>
      <trkpt lat="44.08802" lon="7.2481">
        <ele>1149.2</ele>
        <time>2022-06-11T08:27:02Z</time>
      </trkpt>
      <trkpt lat="44.08799" lon="7.24809">
        <ele>1149.2</ele>
        <time>2022-06-11T08:27:03Z</time>
      </trkpt>
      <trkpt lat="44.08797" lon="7.24808">
        <ele>1149.3</ele>
        <time>2022-06-11T08:27:04Z</time>
      </trkpt>
      <trkpt lat="44.08795" lon="7.24807">
        <ele>1149.4</ele>
        <time>2022-06-11T08:27:05Z</time>
      </trkpt>
      <trkpt lat="44.08793" lon="7.24806">
        <ele>1149.5</ele>
        <time>2022-06-11T08:27:06Z</time>
      </trkpt>
      <trkpt lat="44.08791" lon="7.24805">
        <ele>1149.5</ele>
        <time>2022-06-11T08:27:07Z</time>
      </trkpt>
      <trkpt lat="44.08789" lon="7.24805">
        <ele>1149.5</ele>
        <time>2022-06-11T08:27:08Z</time>
      </trkpt>
      <trkpt lat="44.08787" lon="7.24803">
        <ele>1149.8</ele>
        <time>2022-06-11T08:27:09Z</time>
      </trkpt>
      <trkpt lat="44.08785" lon="7.24802">
        <ele>1150.1</ele>
        <time>2022-06-11T08:27:10Z</time>
      </trkpt>
      <trkpt lat="44.08783" lon="7.24801">
        <ele>1150</ele>
        <time>2022-06-11T08:27:11Z</time>
      </trkpt>
      <trkpt lat="44.08781" lon="7.248">
        <ele>1150.1</ele>
        <time>2022-06-11T08:27:12Z</time>
      </trkpt>
      <trkpt lat="44.08779" lon="7.24799">
        <ele>1150</ele>
        <time>2022-06-11T08:27:13Z</time>
      </trkpt>
      <trkpt lat="44.08777" lon="7.24798">
        <ele>1150.1</ele>
        <time>2022-06-11T08:27:14Z</time>
      </trkpt>
      <trkpt lat="44.08775" lon="7.24797">
        <ele>1150.3</ele>
        <time>2022-06-11T08:27:15Z</time>
      </trkpt>
      <trkpt lat="44.08773" lon="7.24796">
        <ele>1150.5</ele>
        <time>2022-06-11T08:27:16Z</time>
      </trkpt>
      <trkpt lat="44.0877" lon="7.24795">
        <ele>1150.7</ele>
        <time>2022-06-11T08:27:17Z</time>
      </trkpt>
      <trkpt lat="44.08768" lon="7.24794">
        <ele>1150.7</ele>
        <time>2022-06-11T08:27:18Z</time>
      </trkpt>
      <trkpt lat="44.08766" lon="7.24794">
        <ele>1150.5</ele>
        <time>2022-06-11T08:27:19Z</time>
      </trkpt>
      <trkpt lat="44.08764" lon="7.24793">
        <ele>1150.4</ele>
        <time>2022-06-11T08:27:20Z</time>
      </trkpt>
      <trkpt lat="44.08762" lon="7.24792">
        <ele>1150.4</ele>
        <time>2022-06-11T08:27:21Z</time>
      </trkpt>
      <trkpt lat="44.0876" lon="7.24791">
        <ele>1150.6</ele>
        <time>2022-06-11T08:27:22Z</time>
      </trkpt>
      <trkpt lat="44.08758" lon="7.2479">
        <ele>1150.8</ele>
        <time>2022-06-11T08:27:23Z</time>
      </trkpt>
      <trkpt lat="44.08755" lon="7.2479">
        <ele>1150.6</ele>
        <time>2022-06-11T08:27:24Z</time>
      </trkpt>
      <trkpt lat="44.08753" lon="7.24789">
        <ele>1150.7</ele>
        <time>2022-06-11T08:27:25Z</time>
      </trkpt>
      <trkpt lat="44.08751" lon="7.24789">
        <ele>1150.5</ele>
        <time>2022-06-11T08:27:26Z</time>
      </trkpt>
      <trkpt lat="44.08749" lon="7.24788">
        <ele>1150.5</ele>
        <time>2022-06-11T08:27:27Z</time>
      </trkpt>
      <trkpt lat="44.08746" lon="7.24787">
        <ele>1150.7</ele>
        <time>2022-06-11T08:27:28Z</time>
      </trkpt>
      <trkpt lat="44.08744" lon="7.24786">
        <ele>1150.7</ele>
        <time>2022-06-11T08:27:29Z</time>
      </trkpt>
      <trkpt lat="44.08742" lon="7.24785">
        <ele>1150.9</ele>
        <time>2022-06-11T08:27:30Z</time>
      </trkpt>
      <trkpt lat="44.0874" lon="7.24784">
        <ele>1151.1</ele>
        <time>2022-06-11T08:27:31Z</time>
      </trkpt>
      <trkpt lat="44.08738" lon="7.24782">
        <ele>1151.3</ele>
        <time>2022-06-11T08:27:32Z</time>
      </trkpt>
      <trkpt lat="44.08735" lon="7.24781">
        <ele>1151.5</ele>
        <time>2022-06-11T08:27:33Z</time>
      </trkpt>
      <trkpt lat="44.08734" lon="7.2478">
        <ele>1151.7</ele>
        <time>2022-06-11T08:27:34Z</time>
      </trkpt>
      <trkpt lat="44.08732" lon="7.24778">
        <ele>1152.1</ele>
        <time>2022-06-11T08:27:35Z</time>
      </trkpt>
      <trkpt lat="44.08729" lon="7.24777">
        <ele>1152.3</ele>
        <time>2022-06-11T08:27:36Z</time>
      </trkpt>
      <trkpt lat="44.08727" lon="7.24776">
        <ele>1152.8</ele>
        <time>2022-06-11T08:27:37Z</time>
      </trkpt>
      <trkpt lat="44.08725" lon="7.24774">
        <ele>1153.2</ele>
        <time>2022-06-11T08:27:38Z</time>
      </trkpt>
      <trkpt lat="44.08723" lon="7.24772">
        <ele>1153.8</ele>
        <time>2022-06-11T08:27:39Z</time>
      </trkpt>
      <trkpt lat="44.08722" lon="7.24771">
        <ele>1154.1</ele>
        <time>2022-06-11T08:27:40Z</time>
      </trkpt>
      <trkpt lat="44.0872" lon="7.2477">
        <ele>1154.6</ele>
        <time>2022-06-11T08:27:41Z</time>
      </trkpt>
      <trkpt lat="44.08718" lon="7.24768">
        <ele>1155.3</ele>
        <time>2022-06-11T08:27:42Z</time>
      </trkpt>
      <trkpt lat="44.08716" lon="7.24766">
        <ele>1155.8</ele>
        <time>2022-06-11T08:27:43Z</time>
      </trkpt>
      <trkpt lat="44.08714" lon="7.24765">
        <ele>1156.2</ele>
        <time>2022-06-11T08:27:44Z</time>
      </trkpt>
      <trkpt lat="44.08713" lon="7.24762">
        <ele>1157.1</ele>
        <time>2022-06-11T08:27:45Z</time>
      </trkpt>
      <trkpt lat="44.08711" lon="7.24761">
        <ele>1157.3</ele>
        <time>2022-06-11T08:27:46Z</time>
      </trkpt>
      <trkpt lat="44.08709" lon="7.2476">
        <ele>1157.8</ele>
        <time>2022-06-11T08:27:47Z</time>
      </trkpt>
      <trkpt lat="44.08707" lon="7.24758">
        <ele>1158.4</ele>
        <time>2022-06-11T08:27:48Z</time>
      </trkpt>
      <trkpt lat="44.08705" lon="7.24756">
        <ele>1159</ele>
        <time>2022-06-11T08:27:49Z</time>
      </trkpt>
      <trkpt lat="44.08703" lon="7.24754">
        <ele>1159.3</ele>
        <time>2022-06-11T08:27:50Z</time>
      </trkpt>
      <trkpt lat="44.08701" lon="7.24753">
        <ele>1159.8</ele>
        <time>2022-06-11T08:27:51Z</time>
      </trkpt>
      <trkpt lat="44.08699" lon="7.24751">
        <ele>1160.1</ele>
        <time>2022-06-11T08:27:52Z</time>
      </trkpt>
      <trkpt lat="44.08697" lon="7.24749">
        <ele>1160.6</ele>
        <time>2022-06-11T08:27:53Z</time>
      </trkpt>
      <trkpt lat="44.08695" lon="7.24748">
        <ele>1161</ele>
        <time>2022-06-11T08:27:54Z</time>
      </trkpt>
      <trkpt lat="44.08692" lon="7.24746">
        <ele>1161.5</ele>
        <time>2022-06-11T08:27:55Z</time>
      </trkpt>
      <trkpt lat="44.0869" lon="7.24745">
        <ele>1162.1</ele>
        <time>2022-06-11T08:27:56Z</time>
      </trkpt>
      <trkpt lat="44.08688" lon="7.24743">
        <ele>1162.7</ele>
        <time>2022-06-11T08:27:57Z</time>
      </trkpt>
      <trkpt lat="44.08686" lon="7.24741">
        <ele>1163.2</ele>
        <time>2022-06-11T08:27:58Z</time>
      </trkpt>
      <trkpt lat="44.08684" lon="7.24739">
        <ele>1163.9</ele>
        <time>2022-06-11T08:27:59Z</time>
      </trkpt>
      <trkpt lat="44.08681" lon="7.24738">
        <ele>1164.2</ele>
        <time>2022-06-11T08:28:00Z</time>
      </trkpt>
      <trkpt lat="44.08679" lon="7.24737">
        <ele>1164.4</ele>
        <time>2022-06-11T08:28:01Z</time>
      </trkpt>
      <trkpt lat="44.08677" lon="7.24736">
        <ele>1164.7</ele>
        <time>2022-06-11T08:28:02Z</time>
      </trkpt>
      <trkpt lat="44.08675" lon="7.24735">
        <ele>1164.9</ele>
        <time>2022-06-11T08:28:03Z</time>
      </trkpt>
      <trkpt lat="44.08672" lon="7.24735">
        <ele>1165.1</ele>
        <time>2022-06-11T08:28:04Z</time>
      </trkpt>
      <trkpt lat="44.0867" lon="7.24734">
        <ele>1165.2</ele>
        <time>2022-06-11T08:28:05Z</time>
      </trkpt>
      <trkpt lat="44.08668" lon="7.24733">
        <ele>1165.4</ele>
        <time>2022-06-11T08:28:06Z</time>
      </trkpt>
      <trkpt lat="44.08666" lon="7.24733">
        <ele>1165.3</ele>
        <time>2022-06-11T08:28:07Z</time>
      </trkpt>
      <trkpt lat="44.08663" lon="7.24733">
        <ele>1165.5</ele>
        <time>2022-06-11T08:28:08Z</time>
      </trkpt>
      <trkpt lat="44.08661" lon="7.24732">
        <ele>1165.7</ele>
        <time>2022-06-11T08:28:09Z</time>
      </trkpt>
      <trkpt lat="44.08659" lon="7.24733">
        <ele>1165.5</ele>
        <time>2022-06-11T08:28:10Z</time>
      </trkpt>
      <trkpt lat="44.08657" lon="7.24732">
        <ele>1165.6</ele>
        <time>2022-06-11T08:28:11Z</time>
      </trkpt>
      <trkpt lat="44.08655" lon="7.24732">
        <ele>1165.8</ele>
        <time>2022-06-11T08:28:12Z</time>
      </trkpt>
      <trkpt lat="44.08652" lon="7.24731">
        <ele>1165.9</ele>
        <time>2022-06-11T08:28:13Z</time>
      </trkpt>
      <trkpt lat="44.0865" lon="7.24731">
        <ele>1165.9</ele>
        <time>2022-06-11T08:28:14Z</time>
      </trkpt>
      <trkpt lat="44.08648" lon="7.24732">
        <ele>1165.8</ele>
        <time>2022-06-11T08:28:15Z</time>
      </trkpt>
      <trkpt lat="44.08646" lon="7.24732">
        <ele>1165.7</ele>
        <time>2022-06-11T08:28:16Z</time>
      </trkpt>
      <trkpt lat="44.08644" lon="7.24732">
        <ele>1165.5</ele>
        <time>2022-06-11T08:28:17Z</time>
      </trkpt>
      <trkpt lat="44.08641" lon="7.24732">
        <ele>1165.3</ele>
        <time>2022-06-11T08:28:18Z</time>
      </trkpt>
      <trkpt lat="44.08639" lon="7.24733">
        <ele>1165.2</ele>
        <time>2022-06-11T08:28:19Z</time>
      </trkpt>
      <trkpt lat="44.08637" lon="7.24733">
        <ele>1164.9</ele>
        <time>2022-06-11T08:28:20Z</time>
      </trkpt>
      <trkpt lat="44.08634" lon="7.24734">
        <ele>1164.4</ele>
        <time>2022-06-11T08:28:21Z</time>
      </trkpt>
      <trkpt lat="44.08632" lon="7.24734">
        <ele>1164.1</ele>
        <time>2022-06-11T08:28:22Z</time>
      </trkpt>
      <trkpt lat="44.0863" lon="7.24734">
        <ele>1163.9</ele>
        <time>2022-06-11T08:28:23Z</time>
      </trkpt>
      <trkpt lat="44.08628" lon="7.24735">
        <ele>1163.6</ele>
        <time>2022-06-11T08:28:24Z</time>
      </trkpt>
      <trkpt lat="44.08625" lon="7.24734">
        <ele>1163.6</ele>
        <time>2022-06-11T08:28:25Z</time>
      </trkpt>
      <trkpt lat="44.08623" lon="7.24734">
        <ele>1163.7</ele>
        <time>2022-06-11T08:28:26Z</time>
      </trkpt>
      <trkpt lat="44.08621" lon="7.24733">
        <ele>1163.9</ele>
        <time>2022-06-11T08:28:27Z</time>
      </trkpt>
      <trkpt lat="44.08619" lon="7.24732">
        <ele>1164.4</ele>
        <time>2022-06-11T08:28:28Z</time>
      </trkpt>
      <trkpt lat="44.08617" lon="7.24731">
        <ele>1164.8</ele>
        <time>2022-06-11T08:28:29Z</time>
      </trkpt>
      <trkpt lat="44.08615" lon="7.2473">
        <ele>1165.2</ele>
        <time>2022-06-11T08:28:30Z</time>
      </trkpt>
      <trkpt lat="44.08613" lon="7.24729">
        <ele>1165.7</ele>
        <time>2022-06-11T08:28:31Z</time>
      </trkpt>
      <trkpt lat="44.0861" lon="7.24727">
        <ele>1166.4</ele>
        <time>2022-06-11T08:28:32Z</time>
      </trkpt>
      <trkpt lat="44.08608" lon="7.24726">
        <ele>1166.9</ele>
        <time>2022-06-11T08:28:33Z</time>
      </trkpt>
      <trkpt lat="44.08607" lon="7.24725">
        <ele>1167.3</ele>
        <time>2022-06-11T08:28:34Z</time>
      </trkpt>
      <trkpt lat="44.08605" lon="7.24724">
        <ele>1167.6</ele>
        <time>2022-06-11T08:28:35Z</time>
      </trkpt>
      <trkpt lat="44.08602" lon="7.24723">
        <ele>1167.9</ele>
        <time>2022-06-11T08:28:36Z</time>
      </trkpt>
      <trkpt lat="44.086" lon="7.24721">
        <ele>1168.4</ele>
        <time>2022-06-11T08:28:37Z</time>
      </trkpt>
      <trkpt lat="44.08598" lon="7.2472">
        <ele>1168.8</ele>
        <time>2022-06-11T08:28:38Z</time>
      </trkpt>
      <trkpt lat="44.08597" lon="7.24719">
        <ele>1169.2</ele>
        <time>2022-06-11T08:28:39Z</time>
      </trkpt>
      <trkpt lat="44.08595" lon="7.24718">
        <ele>1169.2</ele>
        <time>2022-06-11T08:28:40Z</time>
      </trkpt>
      <trkpt lat="44.08592" lon="7.24718">
        <ele>1169.3</ele>
        <time>2022-06-11T08:28:41Z</time>
      </trkpt>
      <trkpt lat="44.0859" lon="7.24717">
        <ele>1169.4</ele>
        <time>2022-06-11T08:28:42Z</time>
      </trkpt>
      <trkpt lat="44.08588" lon="7.24716">
        <ele>1169.9</ele>
        <time>2022-06-11T08:28:43Z</time>
      </trkpt>
      <trkpt lat="44.08587" lon="7.24714">
        <ele>1170.5</ele>
        <time>2022-06-11T08:28:44Z</time>
      </trkpt>
      <trkpt lat="44.08585" lon="7.24713">
        <ele>1170.9</ele>
        <time>2022-06-11T08:28:45Z</time>
      </trkpt>
      <trkpt lat="44.08583" lon="7.24712">
        <ele>1171.3</ele>
        <time>2022-06-11T08:28:46Z</time>
      </trkpt>
      <trkpt lat="44.08581" lon="7.24711">
        <ele>1171.5</ele>
        <time>2022-06-11T08:28:47Z</time>
      </trkpt>
      <trkpt lat="44.08578" lon="7.24709">
        <ele>1171.9</ele>
        <time>2022-06-11T08:28:48Z</time>
      </trkpt>
      <trkpt lat="44.08576" lon="7.24708">
        <ele>1172.3</ele>
        <time>2022-06-11T08:28:49Z</time>
      </trkpt>
      <trkpt lat="44.08575" lon="7.24707">
        <ele>1172.8</ele>
        <time>2022-06-11T08:28:50Z</time>
      </trkpt>
      <trkpt lat="44.08572" lon="7.24706">
        <ele>1173</ele>
        <time>2022-06-11T08:28:51Z</time>
      </trkpt>
      <trkpt lat="44.0857" lon="7.24705">
        <ele>1173.4</ele>
        <time>2022-06-11T08:28:52Z</time>
      </trkpt>
      <trkpt lat="44.08568" lon="7.24703">
        <ele>1173.8</ele>
        <time>2022-06-11T08:28:53Z</time>
      </trkpt>
      <trkpt lat="44.08566" lon="7.24702">
        <ele>1174.2</ele>
        <time>2022-06-11T08:28:54Z</time>
      </trkpt>
      <trkpt lat="44.08564" lon="7.24701">
        <ele>1174.5</ele>
        <time>2022-06-11T08:28:55Z</time>
      </trkpt>
      <trkpt lat="44.08562" lon="7.247">
        <ele>1174.6</ele>
        <time>2022-06-11T08:28:56Z</time>
      </trkpt>
      <trkpt lat="44.0856" lon="7.247">
        <ele>1174.5</ele>
        <time>2022-06-11T08:28:57Z</time>
      </trkpt>
      <trkpt lat="44.08558" lon="7.24699">
        <ele>1174.6</ele>
        <time>2022-06-11T08:28:58Z</time>
      </trkpt>
      <trkpt lat="44.08555" lon="7.24698">
        <ele>1174.9</ele>
        <time>2022-06-11T08:28:59Z</time>
      </trkpt>
      <trkpt lat="44.08553" lon="7.24698">
        <ele>1175.1</ele>
        <time>2022-06-11T08:29:00Z</time>
      </trkpt>
      <trkpt lat="44.08551" lon="7.24696">
        <ele>1175.5</ele>
        <time>2022-06-11T08:29:01Z</time>
      </trkpt>
      <trkpt lat="44.08549" lon="7.24696">
        <ele>1175.7</ele>
        <time>2022-06-11T08:29:02Z</time>
      </trkpt>
      <trkpt lat="44.08547" lon="7.24695">
        <ele>1175.9</ele>
        <time>2022-06-11T08:29:03Z</time>
      </trkpt>
      <trkpt lat="44.08545" lon="7.24695">
        <ele>1175.7</ele>
        <time>2022-06-11T08:29:04Z</time>
      </trkpt>
      <trkpt lat="44.08542" lon="7.24694">
        <ele>1175.8</ele>
        <time>2022-06-11T08:29:05Z</time>
      </trkpt>
      <trkpt lat="44.0854" lon="7.24693">
        <ele>1176</ele>
        <time>2022-06-11T08:29:06Z</time>
      </trkpt>
      <trkpt lat="44.08538" lon="7.24692">
        <ele>1176.2</ele>
        <time>2022-06-11T08:29:07Z</time>
      </trkpt>
      <trkpt lat="44.08535" lon="7.24691">
        <ele>1176.5</ele>
        <time>2022-06-11T08:29:08Z</time>
      </trkpt>
      <trkpt lat="44.08533" lon="7.24691">
        <ele>1176.7</ele>
        <time>2022-06-11T08:29:09Z</time>
      </trkpt>
      <trkpt lat="44.08531" lon="7.2469">
        <ele>1176.9</ele>
        <time>2022-06-11T08:29:10Z</time>
      </trkpt>
      <trkpt lat="44.08529" lon="7.24689">
        <ele>1177.2</ele>
        <time>2022-06-11T08:29:11Z</time>
      </trkpt>
      <trkpt lat="44.08527" lon="7.24688">
        <ele>1177.6</ele>
        <time>2022-06-11T08:29:12Z</time>
      </trkpt>
      <trkpt lat="44.08525" lon="7.24687">
        <ele>1177.9</ele>
        <time>2022-06-11T08:29:13Z</time>
      </trkpt>
      <trkpt lat="44.08522" lon="7.24686">
        <ele>1177.9</ele>
        <time>2022-06-11T08:29:14Z</time>
      </trkpt>
      <trkpt lat="44.0852" lon="7.24685">
        <ele>1178.1</ele>
        <time>2022-06-11T08:29:15Z</time>
      </trkpt>
      <trkpt lat="44.08518" lon="7.24684">
        <ele>1178.3</ele>
        <time>2022-06-11T08:29:16Z</time>
      </trkpt>
      <trkpt lat="44.08516" lon="7.24684">
        <ele>1178.4</ele>
        <time>2022-06-11T08:29:17Z</time>
      </trkpt>
      <trkpt lat="44.08514" lon="7.24683">
        <ele>1178.5</ele>
        <time>2022-06-11T08:29:18Z</time>
      </trkpt>
      <trkpt lat="44.08512" lon="7.24683">
        <ele>1178.3</ele>
        <time>2022-06-11T08:29:19Z</time>
      </trkpt>
      <trkpt lat="44.08509" lon="7.24682">
        <ele>1178.4</ele>
        <time>2022-06-11T08:29:20Z</time>
      </trkpt>
      <trkpt lat="44.08507" lon="7.24681">
        <ele>1178.3</ele>
        <time>2022-06-11T08:29:21Z</time>
      </trkpt>
      <trkpt lat="44.08505" lon="7.24681">
        <ele>1178.2</ele>
        <time>2022-06-11T08:29:22Z</time>
      </trkpt>
      <trkpt lat="44.08503" lon="7.2468">
        <ele>1178.2</ele>
        <time>2022-06-11T08:29:23Z</time>
      </trkpt>
      <trkpt lat="44.08501" lon="7.24679">
        <ele>1178.3</ele>
        <time>2022-06-11T08:29:24Z</time>
      </trkpt>
      <trkpt lat="44.08498" lon="7.24678">
        <ele>1178.1</ele>
        <time>2022-06-11T08:29:25Z</time>
      </trkpt>
      <trkpt lat="44.08496" lon="7.24677">
        <ele>1177.7</ele>
        <time>2022-06-11T08:29:26Z</time>
      </trkpt>
      <trkpt lat="44.08494" lon="7.24676">
        <ele>1177.3</ele>
        <time>2022-06-11T08:29:27Z</time>
      </trkpt>
      <trkpt lat="44.08492" lon="7.24674">
        <ele>1177.2</ele>
        <time>2022-06-11T08:29:28Z</time>
      </trkpt>
      <trkpt lat="44.0849" lon="7.24672">
        <ele>1177.2</ele>
        <time>2022-06-11T08:29:29Z</time>
      </trkpt>
      <trkpt lat="44.08488" lon="7.2467">
        <ele>1177.2</ele>
        <time>2022-06-11T08:29:30Z</time>
      </trkpt>
      <trkpt lat="44.08487" lon="7.24668">
        <ele>1177.5</ele>
        <time>2022-06-11T08:29:31Z</time>
      </trkpt>
      <trkpt lat="44.08485" lon="7.24665">
        <ele>1177.6</ele>
        <time>2022-06-11T08:29:32Z</time>
      </trkpt>
      <trkpt lat="44.08484" lon="7.24662">
        <ele>1177.6</ele>
        <time>2022-06-11T08:29:33Z</time>
      </trkpt>
      <trkpt lat="44.08483" lon="7.24659">
        <ele>1177.7</ele>
        <time>2022-06-11T08:29:34Z</time>
      </trkpt>
      <trkpt lat="44.08481" lon="7.24656">
        <ele>1177.7</ele>
        <time>2022-06-11T08:29:35Z</time>
      </trkpt>
      <trkpt lat="44.08481" lon="7.24653">
        <ele>1177.9</ele>
        <time>2022-06-11T08:29:36Z</time>
      </trkpt>
      <trkpt lat="44.0848" lon="7.2465">
        <ele>1178.3</ele>
        <time>2022-06-11T08:29:37Z</time>
      </trkpt>
      <trkpt lat="44.0848" lon="7.24647">
        <ele>1178.8</ele>
        <time>2022-06-11T08:29:38Z</time>
      </trkpt>
      <trkpt lat="44.0848" lon="7.24644">
        <ele>1179.3</ele>
        <time>2022-06-11T08:29:39Z</time>
      </trkpt>
      <trkpt lat="44.0848" lon="7.24641">
        <ele>1180</ele>
        <time>2022-06-11T08:29:40Z</time>
      </trkpt>
      <trkpt lat="44.08481" lon="7.24637">
        <ele>1180.4</ele>
        <time>2022-06-11T08:29:41Z</time>
      </trkpt>
      <trkpt lat="44.08481" lon="7.24634">
        <ele>1180.3</ele>
        <time>2022-06-11T08:29:42Z</time>
      </trkpt>
      <trkpt lat="44.08482" lon="7.24631">
        <ele>1180.4</ele>
        <time>2022-06-11T08:29:43Z</time>
      </trkpt>
      <trkpt lat="44.08482" lon="7.24628">
        <ele>1180.6</ele>
        <time>2022-06-11T08:29:44Z</time>
      </trkpt>
      <trkpt lat="44.08484" lon="7.24626">
        <ele>1181.2</ele>
        <time>2022-06-11T08:29:45Z</time>
      </trkpt>
      <trkpt lat="44.08485" lon="7.24624">
        <ele>1181.8</ele>
        <time>2022-06-11T08:29:46Z</time>
      </trkpt>
      <trkpt lat="44.08486" lon="7.24621">
        <ele>1182.4</ele>
        <time>2022-06-11T08:29:47Z</time>
      </trkpt>
      <trkpt lat="44.08487" lon="7.24618">
        <ele>1183.1</ele>
        <time>2022-06-11T08:29:48Z</time>
      </trkpt>
      <trkpt lat="44.08489" lon="7.24616">
        <ele>1184</ele>
        <time>2022-06-11T08:29:49Z</time>
      </trkpt>
      <trkpt lat="44.0849" lon="7.24614">
        <ele>1184.7</ele>
        <time>2022-06-11T08:29:50Z</time>
      </trkpt>
      <trkpt lat="44.08491" lon="7.24612">
        <ele>1185.5</ele>
        <time>2022-06-11T08:29:51Z</time>
      </trkpt>
      <trkpt lat="44.08492" lon="7.24609">
        <ele>1185.9</ele>
        <time>2022-06-11T08:29:52Z</time>
      </trkpt>
      <trkpt lat="44.08493" lon="7.24607">
        <ele>1186.2</ele>
        <time>2022-06-11T08:29:53Z</time>
      </trkpt>
      <trkpt lat="44.08495" lon="7.24604">
        <ele>1186.5</ele>
        <time>2022-06-11T08:29:54Z</time>
      </trkpt>
      <trkpt lat="44.08496" lon="7.24601">
        <ele>1186.7</ele>
        <time>2022-06-11T08:29:55Z</time>
      </trkpt>
      <trkpt lat="44.08497" lon="7.24599">
        <ele>1187</ele>
        <time>2022-06-11T08:29:56Z</time>
      </trkpt>
      <trkpt lat="44.08498" lon="7.24596">
        <ele>1187.3</ele>
        <time>2022-06-11T08:29:57Z</time>
      </trkpt>
      <trkpt lat="44.085" lon="7.24594">
        <ele>1188</ele>
        <time>2022-06-11T08:29:58Z</time>
      </trkpt>
      <trkpt lat="44.08501" lon="7.24592">
        <ele>1188.4</ele>
        <time>2022-06-11T08:29:59Z</time>
      </trkpt>
      <trkpt lat="44.08503" lon="7.2459">
        <ele>1189.1</ele>
        <time>2022-06-11T08:30:00Z</time>
      </trkpt>
      <trkpt lat="44.08504" lon="7.24587">
        <ele>1189.5</ele>
        <time>2022-06-11T08:30:01Z</time>
      </trkpt>
      <trkpt lat="44.08505" lon="7.24585">
        <ele>1189.9</ele>
        <time>2022-06-11T08:30:02Z</time>
      </trkpt>
      <trkpt lat="44.08506" lon="7.24582">
        <ele>1190.2</ele>
        <time>2022-06-11T08:30:03Z</time>
      </trkpt>
      <trkpt lat="44.08507" lon="7.24579">
        <ele>1190.8</ele>
        <time>2022-06-11T08:30:04Z</time>
      </trkpt>
      <trkpt lat="44.08507" lon="7.24576">
        <ele>1191</ele>
        <time>2022-06-11T08:30:05Z</time>
      </trkpt>
      <trkpt lat="44.08508" lon="7.24573">
        <ele>1191.4</ele>
        <time>2022-06-11T08:30:06Z</time>
      </trkpt>
      <trkpt lat="44.08508" lon="7.2457">
        <ele>1191.8</ele>
        <time>2022-06-11T08:30:07Z</time>
      </trkpt>
      <trkpt lat="44.08508" lon="7.24567">
        <ele>1191.8</ele>
        <time>2022-06-11T08:30:08Z</time>
      </trkpt>
      <trkpt lat="44.08508" lon="7.24564">
        <ele>1191.8</ele>
        <time>2022-06-11T08:30:09Z</time>
      </trkpt>
      <trkpt lat="44.08508" lon="7.24561">
        <ele>1191.8</ele>
        <time>2022-06-11T08:30:10Z</time>
      </trkpt>
      <trkpt lat="44.08508" lon="7.24558">
        <ele>1192</ele>
        <time>2022-06-11T08:30:11Z</time>
      </trkpt>
      <trkpt lat="44.08508" lon="7.24556">
        <ele>1191.6</ele>
        <time>2022-06-11T08:30:12Z</time>
      </trkpt>
      <trkpt lat="44.08507" lon="7.24553">
        <ele>1192</ele>
        <time>2022-06-11T08:30:13Z</time>
      </trkpt>
      <trkpt lat="44.08506" lon="7.2455">
        <ele>1192.3</ele>
        <time>2022-06-11T08:30:14Z</time>
      </trkpt>
      <trkpt lat="44.08505" lon="7.24548">
        <ele>1192.4</ele>
        <time>2022-06-11T08:30:15Z</time>
      </trkpt>
      <trkpt lat="44.08504" lon="7.24545">
        <ele>1192.7</ele>
        <time>2022-06-11T08:30:16Z</time>
      </trkpt>
      <trkpt lat="44.08503" lon="7.24542">
        <ele>1193.1</ele>
        <time>2022-06-11T08:30:17Z</time>
      </trkpt>
      <trkpt lat="44.08502" lon="7.24539">
        <ele>1193.2</ele>
        <time>2022-06-11T08:30:18Z</time>
      </trkpt>
      <trkpt lat="44.08501" lon="7.24536">
        <ele>1193.3</ele>
        <time>2022-06-11T08:30:19Z</time>
      </trkpt>
      <trkpt lat="44.08499" lon="7.24534">
        <ele>1193.1</ele>
        <time>2022-06-11T08:30:20Z</time>
      </trkpt>
      <trkpt lat="44.08497" lon="7.24532">
        <ele>1193</ele>
        <time>2022-06-11T08:30:21Z</time>
      </trkpt>
      <trkpt lat="44.08496" lon="7.24531">
        <ele>1192.7</ele>
        <time>2022-06-11T08:30:22Z</time>
      </trkpt>
      <trkpt lat="44.08494" lon="7.24529">
        <ele>1192.3</ele>
        <time>2022-06-11T08:30:23Z</time>
      </trkpt>
      <trkpt lat="44.08492" lon="7.24527">
        <ele>1192.1</ele>
        <time>2022-06-11T08:30:24Z</time>
      </trkpt>
      <trkpt lat="44.0849" lon="7.24526">
        <ele>1192.1</ele>
        <time>2022-06-11T08:30:25Z</time>
      </trkpt>
      <trkpt lat="44.08488" lon="7.24525">
        <ele>1191.7</ele>
        <time>2022-06-11T08:30:26Z</time>
      </trkpt>
      <trkpt lat="44.08485" lon="7.24524">
        <ele>1191.1</ele>
        <time>2022-06-11T08:30:27Z</time>
      </trkpt>
      <trkpt lat="44.08483" lon="7.24524">
        <ele>1190.2</ele>
        <time>2022-06-11T08:30:28Z</time>
      </trkpt>
      <trkpt lat="44.08481" lon="7.24524">
        <ele>1189.1</ele>
        <time>2022-06-11T08:30:29Z</time>
      </trkpt>
      <trkpt lat="44.08479" lon="7.24523">
        <ele>1188.1</ele>
        <time>2022-06-11T08:30:30Z</time>
      </trkpt>
      <trkpt lat="44.08476" lon="7.24524">
        <ele>1186.8</ele>
        <time>2022-06-11T08:30:31Z</time>
      </trkpt>
      <trkpt lat="44.08474" lon="7.24524">
        <ele>1185.5</ele>
        <time>2022-06-11T08:30:32Z</time>
      </trkpt>
      <trkpt lat="44.08471" lon="7.24524">
        <ele>1185.1</ele>
        <time>2022-06-11T08:30:33Z</time>
      </trkpt>
      <trkpt lat="44.08469" lon="7.24524">
        <ele>1184.9</ele>
        <time>2022-06-11T08:30:34Z</time>
      </trkpt>
      <trkpt lat="44.08467" lon="7.24525">
        <ele>1184.5</ele>
        <time>2022-06-11T08:30:35Z</time>
      </trkpt>
      <trkpt lat="44.08464" lon="7.24526">
        <ele>1184.1</ele>
        <time>2022-06-11T08:30:36Z</time>
      </trkpt>
      <trkpt lat="44.08462" lon="7.24527">
        <ele>1183.8</ele>
        <time>2022-06-11T08:30:37Z</time>
      </trkpt>
      <trkpt lat="44.0846" lon="7.24527">
        <ele>1183.6</ele>
        <time>2022-06-11T08:30:38Z</time>
      </trkpt>
      <trkpt lat="44.08458" lon="7.24528">
        <ele>1183.7</ele>
        <time>2022-06-11T08:30:39Z</time>
      </trkpt>
      <trkpt lat="44.08456" lon="7.24528">
        <ele>1183.7</ele>
        <time>2022-06-11T08:30:40Z</time>
      </trkpt>
      <trkpt lat="44.08454" lon="7.24529">
        <ele>1183.6</ele>
        <time>2022-06-11T08:30:41Z</time>
      </trkpt>
      <trkpt lat="44.08452" lon="7.24529">
        <ele>1183.6</ele>
        <time>2022-06-11T08:30:42Z</time>
      </trkpt>
      <trkpt lat="44.0845" lon="7.2453">
        <ele>1183.4</ele>
        <time>2022-06-11T08:30:43Z</time>
      </trkpt>
      <trkpt lat="44.08447" lon="7.2453">
        <ele>1183.3</ele>
        <time>2022-06-11T08:30:44Z</time>
      </trkpt>
      <trkpt lat="44.08445" lon="7.24532">
        <ele>1182.8</ele>
        <time>2022-06-11T08:30:45Z</time>
      </trkpt>
      <trkpt lat="44.08443" lon="7.24532">
        <ele>1183.1</ele>
        <time>2022-06-11T08:30:46Z</time>
      </trkpt>
      <trkpt lat="44.08441" lon="7.24533">
        <ele>1183.4</ele>
        <time>2022-06-11T08:30:47Z</time>
      </trkpt>
      <trkpt lat="44.08439" lon="7.24534">
        <ele>1184</ele>
        <time>2022-06-11T08:30:48Z</time>
      </trkpt>
      <trkpt lat="44.08437" lon="7.24535">
        <ele>1184.2</ele>
        <time>2022-06-11T08:30:49Z</time>
      </trkpt>
      <trkpt lat="44.08435" lon="7.24536">
        <ele>1184.4</ele>
        <time>2022-06-11T08:30:50Z</time>
      </trkpt>
      <trkpt lat="44.08433" lon="7.24537">
        <ele>1184.6</ele>
        <time>2022-06-11T08:30:51Z</time>
      </trkpt>
      <trkpt lat="44.08431" lon="7.24537">
        <ele>1185.1</ele>
        <time>2022-06-11T08:30:52Z</time>
      </trkpt>
      <trkpt lat="44.08429" lon="7.24538">
        <ele>1185.6</ele>
        <time>2022-06-11T08:30:53Z</time>
      </trkpt>
      <trkpt lat="44.08427" lon="7.24538">
        <ele>1186.1</ele>
        <time>2022-06-11T08:30:54Z</time>
      </trkpt>
      <trkpt lat="44.08425" lon="7.24538">
        <ele>1186.7</ele>
        <time>2022-06-11T08:30:55Z</time>
      </trkpt>
      <trkpt lat="44.08423" lon="7.24539">
        <ele>1187.1</ele>
        <time>2022-06-11T08:30:56Z</time>
      </trkpt>
      <trkpt lat="44.08421" lon="7.2454">
        <ele>1187.3</ele>
        <time>2022-06-11T08:30:57Z</time>
      </trkpt>
      <trkpt lat="44.08419" lon="7.24542">
        <ele>1187</ele>
        <time>2022-06-11T08:30:58Z</time>
      </trkpt>
      <trkpt lat="44.08417" lon="7.24543">
        <ele>1187.2</ele>
        <time>2022-06-11T08:30:59Z</time>
      </trkpt>
      <trkpt lat="44.08415" lon="7.24544">
        <ele>1187</ele>
        <time>2022-06-11T08:31:00Z</time>
      </trkpt>
      <trkpt lat="44.08413" lon="7.24545">
        <ele>1187.3</ele>
        <time>2022-06-11T08:31:01Z</time>
      </trkpt>
      <trkpt lat="44.08411" lon="7.24546">
        <ele>1187.2</ele>
        <time>2022-06-11T08:31:02Z</time>
      </trkpt>
      <trkpt lat="44.08408" lon="7.24548">
        <ele>1187</ele>
        <time>2022-06-11T08:31:03Z</time>
      </trkpt>
      <trkpt lat="44.08406" lon="7.2455">
        <ele>1186.8</ele>
        <time>2022-06-11T08:31:04Z</time>
      </trkpt>
      <trkpt lat="44.08405" lon="7.24551">
        <ele>1186.8</ele>
        <time>2022-06-11T08:31:05Z</time>
      </trkpt>
      <trkpt lat="44.08403" lon="7.24551">
        <ele>1187.3</ele>
        <time>2022-06-11T08:31:06Z</time>
      </trkpt>
      <trkpt lat="44.084" lon="7.24553">
        <ele>1187.3</ele>
        <time>2022-06-11T08:31:07Z</time>
      </trkpt>
      <trkpt lat="44.08398" lon="7.24554">
        <ele>1187.4</ele>
        <time>2022-06-11T08:31:08Z</time>
      </trkpt>
      <trkpt lat="44.08396" lon="7.24555">
        <ele>1187.7</ele>
        <time>2022-06-11T08:31:09Z</time>
      </trkpt>
      <trkpt lat="44.08394" lon="7.24556">
        <ele>1187.8</ele>
        <time>2022-06-11T08:31:10Z</time>
      </trkpt>
      <trkpt lat="44.08393" lon="7.24557">
        <ele>1188</ele>
        <time>2022-06-11T08:31:11Z</time>
      </trkpt>
      <trkpt lat="44.0839" lon="7.24558">
        <ele>1188.3</ele>
        <time>2022-06-11T08:31:12Z</time>
      </trkpt>
      <trkpt lat="44.08388" lon="7.24559">
        <ele>1188.2</ele>
        <time>2022-06-11T08:31:13Z</time>
      </trkpt>
      <trkpt lat="44.08387" lon="7.2456">
        <ele>1187.6</ele>
        <time>2022-06-11T08:31:14Z</time>
      </trkpt>
      <trkpt lat="44.08385" lon="7.24561">
        <ele>1187.4</ele>
        <time>2022-06-11T08:31:15Z</time>
      </trkpt>
      <trkpt lat="44.08382" lon="7.24562">
        <ele>1187</ele>
        <time>2022-06-11T08:31:16Z</time>
      </trkpt>
      <trkpt lat="44.0838" lon="7.24564">
        <ele>1186.6</ele>
        <time>2022-06-11T08:31:17Z</time>
      </trkpt>
      <trkpt lat="44.08378" lon="7.24565">
        <ele>1186.3</ele>
        <time>2022-06-11T08:31:18Z</time>
      </trkpt>
      <trkpt lat="44.08376" lon="7.24566">
        <ele>1185.8</ele>
        <time>2022-06-11T08:31:19Z</time>
      </trkpt>
      <trkpt lat="44.08374" lon="7.24568">
        <ele>1185.1</ele>
        <time>2022-06-11T08:31:20Z</time>
      </trkpt>
      <trkpt lat="44.08373" lon="7.24569">
        <ele>1184.9</ele>
        <time>2022-06-11T08:31:21Z</time>
      </trkpt>
      <trkpt lat="44.08371" lon="7.2457">
        <ele>1184.8</ele>
        <time>2022-06-11T08:31:22Z</time>
      </trkpt>
      <trkpt lat="44.08368" lon="7.24571">
        <ele>1184.8</ele>
        <time>2022-06-11T08:31:23Z</time>
      </trkpt>
      <trkpt lat="44.08366" lon="7.24571">
        <ele>1184.9</ele>
        <time>2022-06-11T08:31:24Z</time>
      </trkpt>
      <trkpt lat="44.08364" lon="7.24571">
        <ele>1185.2</ele>
        <time>2022-06-11T08:31:25Z</time>
      </trkpt>
      <trkpt lat="44.08361" lon="7.24572">
        <ele>1185.5</ele>
        <time>2022-06-11T08:31:26Z</time>
      </trkpt>
      <trkpt lat="44.08359" lon="7.24572">
        <ele>1185.1</ele>
        <time>2022-06-11T08:31:27Z</time>
      </trkpt>
      <trkpt lat="44.08357" lon="7.24571">
        <ele>1185</ele>
        <time>2022-06-11T08:31:28Z</time>
      </trkpt>
      <trkpt lat="44.08356" lon="7.2457">
        <ele>1185</ele>
        <time>2022-06-11T08:31:29Z</time>
      </trkpt>
      <trkpt lat="44.08354" lon="7.24569">
        <ele>1185.1</ele>
        <time>2022-06-11T08:31:30Z</time>
      </trkpt>
      <trkpt lat="44.08352" lon="7.24567">
        <ele>1185.3</ele>
        <time>2022-06-11T08:31:31Z</time>
      </trkpt>
      <trkpt lat="44.0835" lon="7.24565">
        <ele>1185.7</ele>
        <time>2022-06-11T08:31:32Z</time>
      </trkpt>
      <trkpt lat="44.08349" lon="7.24564">
        <ele>1186</ele>
        <time>2022-06-11T08:31:33Z</time>
      </trkpt>
      <trkpt lat="44.08347" lon="7.24561">
        <ele>1186.6</ele>
        <time>2022-06-11T08:31:34Z</time>
      </trkpt>
      <trkpt lat="44.08346" lon="7.24559">
        <ele>1187.4</ele>
        <time>2022-06-11T08:31:35Z</time>
      </trkpt>
      <trkpt lat="44.08345" lon="7.24556">
        <ele>1188.1</ele>
        <time>2022-06-11T08:31:36Z</time>
      </trkpt>
      <trkpt lat="44.08344" lon="7.24553">
        <ele>1189</ele>
        <time>2022-06-11T08:31:37Z</time>
      </trkpt>
      <trkpt lat="44.08343" lon="7.2455">
        <ele>1189.9</ele>
        <time>2022-06-11T08:31:38Z</time>
      </trkpt>
      <trkpt lat="44.08343" lon="7.24547">
        <ele>1191</ele>
        <time>2022-06-11T08:31:39Z</time>
      </trkpt>
      <trkpt lat="44.08343" lon="7.24544">
        <ele>1191.9</ele>
        <time>2022-06-11T08:31:40Z</time>
      </trkpt>
      <trkpt lat="44.08342" lon="7.24541">
        <ele>1192.9</ele>
        <time>2022-06-11T08:31:41Z</time>
      </trkpt>
      <trkpt lat="44.08342" lon="7.24538">
        <ele>1193.9</ele>
        <time>2022-06-11T08:31:42Z</time>
      </trkpt>
      <trkpt lat="44.08341" lon="7.24535">
        <ele>1194.9</ele>
        <time>2022-06-11T08:31:43Z</time>
      </trkpt>
      <trkpt lat="44.08341" lon="7.24532">
        <ele>1196</ele>
        <time>2022-06-11T08:31:44Z</time>
      </trkpt>
      <trkpt lat="44.08341" lon="7.24529">
        <ele>1197</ele>
        <time>2022-06-11T08:31:45Z</time>
      </trkpt>
      <trkpt lat="44.08341" lon="7.24526">
        <ele>1198</ele>
        <time>2022-06-11T08:31:46Z</time>
      </trkpt>
      <trkpt lat="44.0834" lon="7.24523">
        <ele>1198.7</ele>
        <time>2022-06-11T08:31:47Z</time>
      </trkpt>
      <trkpt lat="44.0834" lon="7.2452">
        <ele>1199.5</ele>
        <time>2022-06-11T08:31:48Z</time>
      </trkpt>
      <trkpt lat="44.0834" lon="7.24517">
        <ele>1200.3</ele>
        <time>2022-06-11T08:31:49Z</time>
      </trkpt>
      <trkpt lat="44.0834" lon="7.24514">
        <ele>1201.1</ele>
        <time>2022-06-11T08:31:50Z</time>
      </trkpt>
      <trkpt lat="44.08339" lon="7.24512">
        <ele>1201.8</ele>
        <time>2022-06-11T08:31:51Z</time>
      </trkpt>
      <trkpt lat="44.08339" lon="7.24509">
        <ele>1202.6</ele>
        <time>2022-06-11T08:31:52Z</time>
      </trkpt>
      <trkpt lat="44.08339" lon="7.24506">
        <ele>1203.4</ele>
        <time>2022-06-11T08:31:53Z</time>
      </trkpt>
      <trkpt lat="44.08339" lon="7.24503">
        <ele>1204.2</ele>
        <time>2022-06-11T08:31:54Z</time>
      </trkpt>
      <trkpt lat="44.08339" lon="7.245">
        <ele>1205</ele>
        <time>2022-06-11T08:31:55Z</time>
      </trkpt>
      <trkpt lat="44.08338" lon="7.24498">
        <ele>1205.8</ele>
        <time>2022-06-11T08:31:56Z</time>
      </trkpt>
      <trkpt lat="44.08338" lon="7.24495">
        <ele>1206.6</ele>
        <time>2022-06-11T08:31:57Z</time>
      </trkpt>
      <trkpt lat="44.08338" lon="7.24492">
        <ele>1207.3</ele>
        <time>2022-06-11T08:31:58Z</time>
      </trkpt>
      <trkpt lat="44.08337" lon="7.24489">
        <ele>1208.3</ele>
        <time>2022-06-11T08:31:59Z</time>
      </trkpt>
      <trkpt lat="44.08337" lon="7.24486">
        <ele>1209</ele>
        <time>2022-06-11T08:32:00Z</time>
      </trkpt>
      <trkpt lat="44.08336" lon="7.24484">
        <ele>1209.5</ele>
        <time>2022-06-11T08:32:01Z</time>
      </trkpt>
      <trkpt lat="44.08335" lon="7.24481">
        <ele>1209.9</ele>
        <time>2022-06-11T08:32:02Z</time>
      </trkpt>
      <trkpt lat="44.08334" lon="7.24478">
        <ele>1210.1</ele>
        <time>2022-06-11T08:32:03Z</time>
      </trkpt>
      <trkpt lat="44.08332" lon="7.24476">
        <ele>1210.6</ele>
        <time>2022-06-11T08:32:04Z</time>
      </trkpt>
      <trkpt lat="44.08331" lon="7.24474">
        <ele>1211.1</ele>
        <time>2022-06-11T08:32:05Z</time>
      </trkpt>
      <trkpt lat="44.08329" lon="7.24471">
        <ele>1211.6</ele>
        <time>2022-06-11T08:32:06Z</time>
      </trkpt>
      <trkpt lat="44.08327" lon="7.24469">
        <ele>1212.1</ele>
        <time>2022-06-11T08:32:07Z</time>
      </trkpt>
      <trkpt lat="44.08326" lon="7.24468">
        <ele>1212.5</ele>
        <time>2022-06-11T08:32:08Z</time>
      </trkpt>
      <trkpt lat="44.08324" lon="7.24466">
        <ele>1212.9</ele>
        <time>2022-06-11T08:32:09Z</time>
      </trkpt>
      <trkpt lat="44.08322" lon="7.24465">
        <ele>1213.2</ele>
        <time>2022-06-11T08:32:10Z</time>
      </trkpt>
      <trkpt lat="44.0832" lon="7.24464">
        <ele>1213.2</ele>
        <time>2022-06-11T08:32:11Z</time>
      </trkpt>
      <trkpt lat="44.08318" lon="7.24463">
        <ele>1213.5</ele>
        <time>2022-06-11T08:32:12Z</time>
      </trkpt>
      <trkpt lat="44.08316" lon="7.24462">
        <ele>1213.5</ele>
        <time>2022-06-11T08:32:13Z</time>
      </trkpt>
      <trkpt lat="44.08313" lon="7.24462">
        <ele>1213.2</ele>
        <time>2022-06-11T08:32:14Z</time>
      </trkpt>
      <trkpt lat="44.08311" lon="7.24462">
        <ele>1212.8</ele>
        <time>2022-06-11T08:32:15Z</time>
      </trkpt>
      <trkpt lat="44.08309" lon="7.24462">
        <ele>1212.4</ele>
        <time>2022-06-11T08:32:16Z</time>
      </trkpt>
      <trkpt lat="44.08307" lon="7.24462">
        <ele>1211.9</ele>
        <time>2022-06-11T08:32:17Z</time>
      </trkpt>
      <trkpt lat="44.08304" lon="7.24463">
        <ele>1211.8</ele>
        <time>2022-06-11T08:32:18Z</time>
      </trkpt>
      <trkpt lat="44.08302" lon="7.24463">
        <ele>1211.9</ele>
        <time>2022-06-11T08:32:19Z</time>
      </trkpt>
      <trkpt lat="44.083" lon="7.24464">
        <ele>1211.9</ele>
        <time>2022-06-11T08:32:20Z</time>
      </trkpt>
      <trkpt lat="44.08298" lon="7.24465">
        <ele>1211.7</ele>
        <time>2022-06-11T08:32:21Z</time>
      </trkpt>
      <trkpt lat="44.08296" lon="7.24467">
        <ele>1211.2</ele>
        <time>2022-06-11T08:32:22Z</time>
      </trkpt>
      <trkpt lat="44.08294" lon="7.24469">
        <ele>1210.9</ele>
        <time>2022-06-11T08:32:23Z</time>
      </trkpt>
      <trkpt lat="44.08292" lon="7.2447">
        <ele>1210.8</ele>
        <time>2022-06-11T08:32:24Z</time>
      </trkpt>
      <trkpt lat="44.0829" lon="7.24471">
        <ele>1210.6</ele>
        <time>2022-06-11T08:32:25Z</time>
      </trkpt>
      <trkpt lat="44.08288" lon="7.24472">
        <ele>1210.3</ele>
        <time>2022-06-11T08:32:26Z</time>
      </trkpt>
      <trkpt lat="44.08286" lon="7.24474">
        <ele>1210</ele>
        <time>2022-06-11T08:32:27Z</time>
      </trkpt>
      <trkpt lat="44.08284" lon="7.24475">
        <ele>1209.8</ele>
        <time>2022-06-11T08:32:28Z</time>
      </trkpt>
      <trkpt lat="44.08282" lon="7.24477">
        <ele>1209.2</ele>
        <time>2022-06-11T08:32:29Z</time>
      </trkpt>
      <trkpt lat="44.0828" lon="7.24479">
        <ele>1208.4</ele>
        <time>2022-06-11T08:32:30Z</time>
      </trkpt>
      <trkpt lat="44.08278" lon="7.2448">
        <ele>1208.3</ele>
        <time>2022-06-11T08:32:31Z</time>
      </trkpt>
      <trkpt lat="44.08276" lon="7.24482">
        <ele>1208</ele>
        <time>2022-06-11T08:32:32Z</time>
      </trkpt>
      <trkpt lat="44.08274" lon="7.24483">
        <ele>1208</ele>
        <time>2022-06-11T08:32:33Z</time>
      </trkpt>
      <trkpt lat="44.08272" lon="7.24484">
        <ele>1207.6</ele>
        <time>2022-06-11T08:32:34Z</time>
      </trkpt>
      <trkpt lat="44.08271" lon="7.24485">
        <ele>1207.8</ele>
        <time>2022-06-11T08:32:35Z</time>
      </trkpt>
      <trkpt lat="44.08269" lon="7.24486">
        <ele>1207.8</ele>
        <time>2022-06-11T08:32:36Z</time>
      </trkpt>
      <trkpt lat="44.08267" lon="7.24486">
        <ele>1208</ele>
        <time>2022-06-11T08:32:37Z</time>
      </trkpt>
      <trkpt lat="44.08264" lon="7.24487">
        <ele>1208.2</ele>
        <time>2022-06-11T08:32:38Z</time>
      </trkpt>
      <trkpt lat="44.08262" lon="7.24488">
        <ele>1208</ele>
        <time>2022-06-11T08:32:39Z</time>
      </trkpt>
      <trkpt lat="44.0826" lon="7.24489">
        <ele>1208.2</ele>
        <time>2022-06-11T08:32:40Z</time>
      </trkpt>
      <trkpt lat="44.08258" lon="7.2449">
        <ele>1208</ele>
        <time>2022-06-11T08:32:41Z</time>
      </trkpt>
      <trkpt lat="44.08256" lon="7.2449">
        <ele>1208.3</ele>
        <time>2022-06-11T08:32:42Z</time>
      </trkpt>
      <trkpt lat="44.08254" lon="7.2449">
        <ele>1208.8</ele>
        <time>2022-06-11T08:32:43Z</time>
      </trkpt>
      <trkpt lat="44.08252" lon="7.24489">
        <ele>1209.4</ele>
        <time>2022-06-11T08:32:44Z</time>
      </trkpt>
      <trkpt lat="44.0825" lon="7.24489">
        <ele>1209.9</ele>
        <time>2022-06-11T08:32:45Z</time>
      </trkpt>
      <trkpt lat="44.08247" lon="7.24489">
        <ele>1210.1</ele>
        <time>2022-06-11T08:32:46Z</time>
      </trkpt>
      <trkpt lat="44.08246" lon="7.24489">
        <ele>1210.4</ele>
        <time>2022-06-11T08:32:47Z</time>
      </trkpt>
      <trkpt lat="44.08243" lon="7.24489">
        <ele>1210.6</ele>
        <time>2022-06-11T08:32:48Z</time>
      </trkpt>
      <trkpt lat="44.08241" lon="7.24488">
        <ele>1211</ele>
        <time>2022-06-11T08:32:49Z</time>
      </trkpt>
      <trkpt lat="44.08239" lon="7.24487">
        <ele>1211.8</ele>
        <time>2022-06-11T08:32:50Z</time>
      </trkpt>
      <trkpt lat="44.08237" lon="7.24487">
        <ele>1211.8</ele>
        <time>2022-06-11T08:32:51Z</time>
      </trkpt>
      <trkpt lat="44.08235" lon="7.24488">
        <ele>1211.8</ele>
        <time>2022-06-11T08:32:52Z</time>
      </trkpt>
      <trkpt lat="44.08234" lon="7.24488">
        <ele>1211.7</ele>
        <time>2022-06-11T08:32:53Z</time>
      </trkpt>
      <trkpt lat="44.08232" lon="7.24488">
        <ele>1211.8</ele>
        <time>2022-06-11T08:32:54Z</time>
      </trkpt>
      <trkpt lat="44.08229" lon="7.24488">
        <ele>1212.1</ele>
        <time>2022-06-11T08:32:55Z</time>
      </trkpt>
      <trkpt lat="44.08227" lon="7.24488">
        <ele>1212.4</ele>
        <time>2022-06-11T08:32:56Z</time>
      </trkpt>
      <trkpt lat="44.08225" lon="7.24488">
        <ele>1212.4</ele>
        <time>2022-06-11T08:32:57Z</time>
      </trkpt>
      <trkpt lat="44.08223" lon="7.24488">
        <ele>1212.7</ele>
        <time>2022-06-11T08:32:58Z</time>
      </trkpt>
      <trkpt lat="44.08221" lon="7.24487">
        <ele>1212.7</ele>
        <time>2022-06-11T08:32:59Z</time>
      </trkpt>
      <trkpt lat="44.08218" lon="7.24487">
        <ele>1212.6</ele>
        <time>2022-06-11T08:33:00Z</time>
      </trkpt>
      <trkpt lat="44.08216" lon="7.24487">
        <ele>1212.7</ele>
        <time>2022-06-11T08:33:01Z</time>
      </trkpt>
      <trkpt lat="44.08214" lon="7.24486">
        <ele>1212.6</ele>
        <time>2022-06-11T08:33:02Z</time>
      </trkpt>
      <trkpt lat="44.08212" lon="7.24486">
        <ele>1212.8</ele>
        <time>2022-06-11T08:33:03Z</time>
      </trkpt>
      <trkpt lat="44.0821" lon="7.24485">
        <ele>1213.1</ele>
        <time>2022-06-11T08:33:04Z</time>
      </trkpt>
      <trkpt lat="44.08207" lon="7.24484">
        <ele>1213.2</ele>
        <time>2022-06-11T08:33:05Z</time>
      </trkpt>
      <trkpt lat="44.08205" lon="7.24483">
        <ele>1213.5</ele>
        <time>2022-06-11T08:33:06Z</time>
      </trkpt>
      <trkpt lat="44.08203" lon="7.24483">
        <ele>1213.6</ele>
        <time>2022-06-11T08:33:07Z</time>
      </trkpt>
      <trkpt lat="44.08201" lon="7.24482">
        <ele>1213.7</ele>
        <time>2022-06-11T08:33:08Z</time>
      </trkpt>
      <trkpt lat="44.08199" lon="7.24481">
        <ele>1213.9</ele>
        <time>2022-06-11T08:33:09Z</time>
      </trkpt>
      <trkpt lat="44.08197" lon="7.2448">
        <ele>1214.3</ele>
        <time>2022-06-11T08:33:10Z</time>
      </trkpt>
      <trkpt lat="44.08195" lon="7.24479">
        <ele>1214.8</ele>
        <time>2022-06-11T08:33:11Z</time>
      </trkpt>
      <trkpt lat="44.08193" lon="7.24477">
        <ele>1215.5</ele>
        <time>2022-06-11T08:33:12Z</time>
      </trkpt>
      <trkpt lat="44.08191" lon="7.24476">
        <ele>1215.6</ele>
        <time>2022-06-11T08:33:13Z</time>
      </trkpt>
      <trkpt lat="44.08189" lon="7.24475">
        <ele>1215.8</ele>
        <time>2022-06-11T08:33:14Z</time>
      </trkpt>
      <trkpt lat="44.08186" lon="7.24474">
        <ele>1215.8</ele>
        <time>2022-06-11T08:33:15Z</time>
      </trkpt>
      <trkpt lat="44.08184" lon="7.24472">
        <ele>1216.1</ele>
        <time>2022-06-11T08:33:16Z</time>
      </trkpt>
      <trkpt lat="44.08182" lon="7.24471">
        <ele>1216.2</ele>
        <time>2022-06-11T08:33:17Z</time>
      </trkpt>
      <trkpt lat="44.0818" lon="7.2447">
        <ele>1216.4</ele>
        <time>2022-06-11T08:33:18Z</time>
      </trkpt>
      <trkpt lat="44.08178" lon="7.24469">
        <ele>1216.8</ele>
        <time>2022-06-11T08:33:19Z</time>
      </trkpt>
      <trkpt lat="44.08178" lon="7.24469">
        <ele>1216.8</ele>
        <time>2022-06-11T08:33:20Z</time>
      </trkpt>
      <trkpt lat="44.08174" lon="7.24466">
        <ele>1217.2</ele>
        <time>2022-06-11T08:33:21Z</time>
      </trkpt>
      <trkpt lat="44.08172" lon="7.24464">
        <ele>1217.6</ele>
        <time>2022-06-11T08:33:22Z</time>
      </trkpt>
      <trkpt lat="44.0817" lon="7.24463">
        <ele>1217.8</ele>
        <time>2022-06-11T08:33:23Z</time>
      </trkpt>
      <trkpt lat="44.08168" lon="7.24462">
        <ele>1218.2</ele>
        <time>2022-06-11T08:33:24Z</time>
      </trkpt>
      <trkpt lat="44.08166" lon="7.2446">
        <ele>1218.4</ele>
        <time>2022-06-11T08:33:25Z</time>
      </trkpt>
      <trkpt lat="44.08164" lon="7.2446">
        <ele>1218.4</ele>
        <time>2022-06-11T08:33:26Z</time>
      </trkpt>
      <trkpt lat="44.08161" lon="7.24459">
        <ele>1218.3</ele>
        <time>2022-06-11T08:33:27Z</time>
      </trkpt>
      <trkpt lat="44.08159" lon="7.24458">
        <ele>1218.3</ele>
        <time>2022-06-11T08:33:28Z</time>
      </trkpt>
      <trkpt lat="44.08158" lon="7.24457">
        <ele>1218.7</ele>
        <time>2022-06-11T08:33:29Z</time>
      </trkpt>
      <trkpt lat="44.08156" lon="7.24455">
        <ele>1219.2</ele>
        <time>2022-06-11T08:33:30Z</time>
      </trkpt>
      <trkpt lat="44.08154" lon="7.24453">
        <ele>1219.7</ele>
        <time>2022-06-11T08:33:31Z</time>
      </trkpt>
      <trkpt lat="44.08152" lon="7.24452">
        <ele>1220</ele>
        <time>2022-06-11T08:33:32Z</time>
      </trkpt>
      <trkpt lat="44.0815" lon="7.2445">
        <ele>1220.3</ele>
        <time>2022-06-11T08:33:33Z</time>
      </trkpt>
      <trkpt lat="44.08148" lon="7.24449">
        <ele>1220.4</ele>
        <time>2022-06-11T08:33:34Z</time>
      </trkpt>
      <trkpt lat="44.08146" lon="7.24448">
        <ele>1220.7</ele>
        <time>2022-06-11T08:33:35Z</time>
      </trkpt>
      <trkpt lat="44.08144" lon="7.24447">
        <ele>1220.9</ele>
        <time>2022-06-11T08:33:36Z</time>
      </trkpt>
      <trkpt lat="44.08143" lon="7.24446">
        <ele>1221.1</ele>
        <time>2022-06-11T08:33:37Z</time>
      </trkpt>
      <trkpt lat="44.08141" lon="7.24445">
        <ele>1221.3</ele>
        <time>2022-06-11T08:33:38Z</time>
      </trkpt>
      <trkpt lat="44.08139" lon="7.24444">
        <ele>1221.2</ele>
        <time>2022-06-11T08:33:39Z</time>
      </trkpt>
      <trkpt lat="44.08137" lon="7.24443">
        <ele>1221.4</ele>
        <time>2022-06-11T08:33:40Z</time>
      </trkpt>
      <trkpt lat="44.08135" lon="7.24442">
        <ele>1221.2</ele>
        <time>2022-06-11T08:33:41Z</time>
      </trkpt>
      <trkpt lat="44.08133" lon="7.24441">
        <ele>1221.3</ele>
        <time>2022-06-11T08:33:42Z</time>
      </trkpt>
      <trkpt lat="44.08131" lon="7.2444">
        <ele>1221.8</ele>
        <time>2022-06-11T08:33:43Z</time>
      </trkpt>
      <trkpt lat="44.08129" lon="7.24438">
        <ele>1222.2</ele>
        <time>2022-06-11T08:33:44Z</time>
      </trkpt>
      <trkpt lat="44.08127" lon="7.24437">
        <ele>1222.3</ele>
        <time>2022-06-11T08:33:45Z</time>
      </trkpt>
      <trkpt lat="44.08125" lon="7.24436">
        <ele>1222.5</ele>
        <time>2022-06-11T08:33:46Z</time>
      </trkpt>
      <trkpt lat="44.08122" lon="7.24435">
        <ele>1222.4</ele>
        <time>2022-06-11T08:33:47Z</time>
      </trkpt>
      <trkpt lat="44.08121" lon="7.24434">
        <ele>1222.5</ele>
        <time>2022-06-11T08:33:48Z</time>
      </trkpt>
      <trkpt lat="44.08119" lon="7.24433">
        <ele>1222.7</ele>
        <time>2022-06-11T08:33:49Z</time>
      </trkpt>
      <trkpt lat="44.08116" lon="7.24432">
        <ele>1222.9</ele>
        <time>2022-06-11T08:33:50Z</time>
      </trkpt>
      <trkpt lat="44.08114" lon="7.2443">
        <ele>1223.3</ele>
        <time>2022-06-11T08:33:51Z</time>
      </trkpt>
      <trkpt lat="44.08112" lon="7.24429">
        <ele>1223.4</ele>
        <time>2022-06-11T08:33:52Z</time>
      </trkpt>
      <trkpt lat="44.0811" lon="7.24428">
        <ele>1223.5</ele>
        <time>2022-06-11T08:33:53Z</time>
      </trkpt>
      <trkpt lat="44.08108" lon="7.24427">
        <ele>1223.6</ele>
        <time>2022-06-11T08:33:54Z</time>
      </trkpt>
      <trkpt lat="44.08106" lon="7.24426">
        <ele>1223.7</ele>
        <time>2022-06-11T08:33:55Z</time>
      </trkpt>
      <trkpt lat="44.08104" lon="7.24425">
        <ele>1223.9</ele>
        <time>2022-06-11T08:33:56Z</time>
      </trkpt>
      <trkpt lat="44.08102" lon="7.24423">
        <ele>1224.5</ele>
        <time>2022-06-11T08:33:57Z</time>
      </trkpt>
      <trkpt lat="44.081" lon="7.24422">
        <ele>1224.8</ele>
        <time>2022-06-11T08:33:58Z</time>
      </trkpt>
      <trkpt lat="44.08098" lon="7.2442">
        <ele>1225</ele>
        <time>2022-06-11T08:33:59Z</time>
      </trkpt>
      <trkpt lat="44.08097" lon="7.24419">
        <ele>1225.2</ele>
        <time>2022-06-11T08:34:00Z</time>
      </trkpt>
      <trkpt lat="44.08095" lon="7.24418">
        <ele>1225.5</ele>
        <time>2022-06-11T08:34:01Z</time>
      </trkpt>
      <trkpt lat="44.08093" lon="7.24417">
        <ele>1225.4</ele>
        <time>2022-06-11T08:34:02Z</time>
      </trkpt>
      <trkpt lat="44.08093" lon="7.24417">
        <ele>1225.4</ele>
        <time>2022-06-11T08:34:03Z</time>
      </trkpt>
      <trkpt lat="44.08089" lon="7.24416">
        <ele>1225.5</ele>
        <time>2022-06-11T08:34:04Z</time>
      </trkpt>
      <trkpt lat="44.08087" lon="7.24415">
        <ele>1225.6</ele>
        <time>2022-06-11T08:34:05Z</time>
      </trkpt>
      <trkpt lat="44.08085" lon="7.24414">
        <ele>1225.6</ele>
        <time>2022-06-11T08:34:06Z</time>
      </trkpt>
      <trkpt lat="44.08083" lon="7.24414">
        <ele>1225.6</ele>
        <time>2022-06-11T08:34:07Z</time>
      </trkpt>
      <trkpt lat="44.08082" lon="7.24413">
        <ele>1225.8</ele>
        <time>2022-06-11T08:34:08Z</time>
      </trkpt>
      <trkpt lat="44.0808" lon="7.24412">
        <ele>1225.9</ele>
        <time>2022-06-11T08:34:09Z</time>
      </trkpt>
      <trkpt lat="44.08077" lon="7.24411">
        <ele>1225.9</ele>
        <time>2022-06-11T08:34:10Z</time>
      </trkpt>
      <trkpt lat="44.08075" lon="7.2441">
        <ele>1225.8</ele>
        <time>2022-06-11T08:34:11Z</time>
      </trkpt>
      <trkpt lat="44.08073" lon="7.24409">
        <ele>1225.9</ele>
        <time>2022-06-11T08:34:12Z</time>
      </trkpt>
      <trkpt lat="44.08071" lon="7.24408">
        <ele>1226</ele>
        <time>2022-06-11T08:34:13Z</time>
      </trkpt>
      <trkpt lat="44.08069" lon="7.24407">
        <ele>1226.3</ele>
        <time>2022-06-11T08:34:14Z</time>
      </trkpt>
      <trkpt lat="44.08067" lon="7.24405">
        <ele>1226.6</ele>
        <time>2022-06-11T08:34:15Z</time>
      </trkpt>
      <trkpt lat="44.08065" lon="7.24404">
        <ele>1226.8</ele>
        <time>2022-06-11T08:34:16Z</time>
      </trkpt>
      <trkpt lat="44.08063" lon="7.24403">
        <ele>1227.1</ele>
        <time>2022-06-11T08:34:17Z</time>
      </trkpt>
      <trkpt lat="44.08061" lon="7.24401">
        <ele>1227.3</ele>
        <time>2022-06-11T08:34:18Z</time>
      </trkpt>
      <trkpt lat="44.08059" lon="7.24401">
        <ele>1227.2</ele>
        <time>2022-06-11T08:34:19Z</time>
      </trkpt>
      <trkpt lat="44.08057" lon="7.244">
        <ele>1227</ele>
        <time>2022-06-11T08:34:20Z</time>
      </trkpt>
      <trkpt lat="44.08055" lon="7.24399">
        <ele>1227.1</ele>
        <time>2022-06-11T08:34:21Z</time>
      </trkpt>
      <trkpt lat="44.08053" lon="7.24398">
        <ele>1227.4</ele>
        <time>2022-06-11T08:34:22Z</time>
      </trkpt>
      <trkpt lat="44.08051" lon="7.24397">
        <ele>1227.4</ele>
        <time>2022-06-11T08:34:23Z</time>
      </trkpt>
      <trkpt lat="44.08048" lon="7.24396">
        <ele>1227.6</ele>
        <time>2022-06-11T08:34:24Z</time>
      </trkpt>
      <trkpt lat="44.08046" lon="7.24395">
        <ele>1227.9</ele>
        <time>2022-06-11T08:34:25Z</time>
      </trkpt>
      <trkpt lat="44.08044" lon="7.24394">
        <ele>1228</ele>
        <time>2022-06-11T08:34:26Z</time>
      </trkpt>
      <trkpt lat="44.08042" lon="7.24392">
        <ele>1228.4</ele>
        <time>2022-06-11T08:34:27Z</time>
      </trkpt>
      <trkpt lat="44.08039" lon="7.24392">
        <ele>1228.4</ele>
        <time>2022-06-11T08:34:28Z</time>
      </trkpt>
      <trkpt lat="44.08037" lon="7.2439">
        <ele>1228.6</ele>
        <time>2022-06-11T08:34:29Z</time>
      </trkpt>
      <trkpt lat="44.08035" lon="7.24389">
        <ele>1228.9</ele>
        <time>2022-06-11T08:34:30Z</time>
      </trkpt>
      <trkpt lat="44.08033" lon="7.24388">
        <ele>1229.2</ele>
        <time>2022-06-11T08:34:31Z</time>
      </trkpt>
      <trkpt lat="44.08031" lon="7.24387">
        <ele>1229.6</ele>
        <time>2022-06-11T08:34:32Z</time>
      </trkpt>
      <trkpt lat="44.08029" lon="7.24385">
        <ele>1230.5</ele>
        <time>2022-06-11T08:34:33Z</time>
      </trkpt>
      <trkpt lat="44.08027" lon="7.24384">
        <ele>1230.8</ele>
        <time>2022-06-11T08:34:34Z</time>
      </trkpt>
      <trkpt lat="44.08025" lon="7.24382">
        <ele>1231.6</ele>
        <time>2022-06-11T08:34:35Z</time>
      </trkpt>
      <trkpt lat="44.08023" lon="7.2438">
        <ele>1232.3</ele>
        <time>2022-06-11T08:34:36Z</time>
      </trkpt>
      <trkpt lat="44.08021" lon="7.24379">
        <ele>1232.6</ele>
        <time>2022-06-11T08:34:37Z</time>
      </trkpt>
      <trkpt lat="44.08019" lon="7.24378">
        <ele>1232.7</ele>
        <time>2022-06-11T08:34:38Z</time>
      </trkpt>
      <trkpt lat="44.08017" lon="7.24377">
        <ele>1232.8</ele>
        <time>2022-06-11T08:34:39Z</time>
      </trkpt>
      <trkpt lat="44.08014" lon="7.24376">
        <ele>1233.1</ele>
        <time>2022-06-11T08:34:40Z</time>
      </trkpt>
      <trkpt lat="44.08012" lon="7.24375">
        <ele>1233.5</ele>
        <time>2022-06-11T08:34:41Z</time>
      </trkpt>
      <trkpt lat="44.08011" lon="7.24373">
        <ele>1234.3</ele>
        <time>2022-06-11T08:34:42Z</time>
      </trkpt>
      <trkpt lat="44.08009" lon="7.24372">
        <ele>1234.7</ele>
        <time>2022-06-11T08:34:43Z</time>
      </trkpt>
      <trkpt lat="44.08007" lon="7.2437">
        <ele>1235</ele>
        <time>2022-06-11T08:34:44Z</time>
      </trkpt>
      <trkpt lat="44.08005" lon="7.24369">
        <ele>1235.4</ele>
        <time>2022-06-11T08:34:45Z</time>
      </trkpt>
      <trkpt lat="44.08003" lon="7.24368">
        <ele>1235.9</ele>
        <time>2022-06-11T08:34:46Z</time>
      </trkpt>
      <trkpt lat="44.08001" lon="7.24366">
        <ele>1236.5</ele>
        <time>2022-06-11T08:34:47Z</time>
      </trkpt>
      <trkpt lat="44.07999" lon="7.24366">
        <ele>1236.1</ele>
        <time>2022-06-11T08:34:48Z</time>
      </trkpt>
      <trkpt lat="44.07997" lon="7.24366">
        <ele>1236</ele>
        <time>2022-06-11T08:34:49Z</time>
      </trkpt>
      <trkpt lat="44.07995" lon="7.24365">
        <ele>1236.2</ele>
        <time>2022-06-11T08:34:50Z</time>
      </trkpt>
      <trkpt lat="44.07992" lon="7.24364">
        <ele>1236.1</ele>
        <time>2022-06-11T08:34:51Z</time>
      </trkpt>
      <trkpt lat="44.0799" lon="7.24363">
        <ele>1236.3</ele>
        <time>2022-06-11T08:34:52Z</time>
      </trkpt>
      <trkpt lat="44.07987" lon="7.24363">
        <ele>1236.3</ele>
        <time>2022-06-11T08:34:53Z</time>
      </trkpt>
      <trkpt lat="44.07985" lon="7.24362">
        <ele>1236.6</ele>
        <time>2022-06-11T08:34:54Z</time>
      </trkpt>
      <trkpt lat="44.07983" lon="7.2436">
        <ele>1237</ele>
        <time>2022-06-11T08:34:55Z</time>
      </trkpt>
      <trkpt lat="44.07981" lon="7.2436">
        <ele>1237.2</ele>
        <time>2022-06-11T08:34:56Z</time>
      </trkpt>
      <trkpt lat="44.07979" lon="7.24359">
        <ele>1237.1</ele>
        <time>2022-06-11T08:34:57Z</time>
      </trkpt>
      <trkpt lat="44.07977" lon="7.24359">
        <ele>1236.9</ele>
        <time>2022-06-11T08:34:58Z</time>
      </trkpt>
      <trkpt lat="44.07975" lon="7.24359">
        <ele>1236.7</ele>
        <time>2022-06-11T08:34:59Z</time>
      </trkpt>
      <trkpt lat="44.07973" lon="7.24358">
        <ele>1236.9</ele>
        <time>2022-06-11T08:35:00Z</time>
      </trkpt>
      <trkpt lat="44.07971" lon="7.24358">
        <ele>1236.6</ele>
        <time>2022-06-11T08:35:01Z</time>
      </trkpt>
      <trkpt lat="44.07965" lon="7.24355">
        <ele>1236.8</ele>
        <time>2022-06-11T08:35:04Z</time>
      </trkpt>
      <trkpt lat="44.07963" lon="7.24353">
        <ele>1237.2</ele>
        <time>2022-06-11T08:35:05Z</time>
      </trkpt>
      <trkpt lat="44.07932" lon="7.24332">
        <ele>1240.4</ele>
        <time>2022-06-11T08:35:20Z</time>
      </trkpt>
      <trkpt lat="44.0793" lon="7.2433">
        <ele>1241</ele>
        <time>2022-06-11T08:35:21Z</time>
      </trkpt>
      <trkpt lat="44.07928" lon="7.24328">
        <ele>1241.4</ele>
        <time>2022-06-11T08:35:22Z</time>
      </trkpt>
      <trkpt lat="44.07926" lon="7.24327">
        <ele>1241.7</ele>
        <time>2022-06-11T08:35:23Z</time>
      </trkpt>
      <trkpt lat="44.07924" lon="7.24325">
        <ele>1241.8</ele>
        <time>2022-06-11T08:35:24Z</time>
      </trkpt>
      <trkpt lat="44.07922" lon="7.24324">
        <ele>1241.9</ele>
        <time>2022-06-11T08:35:25Z</time>
      </trkpt>
      <trkpt lat="44.0792" lon="7.24323">
        <ele>1241.6</ele>
        <time>2022-06-11T08:35:26Z</time>
      </trkpt>
      <trkpt lat="44.07917" lon="7.24322">
        <ele>1241.5</ele>
        <time>2022-06-11T08:35:27Z</time>
      </trkpt>
      <trkpt lat="44.07915" lon="7.24321">
        <ele>1241.4</ele>
        <time>2022-06-11T08:35:28Z</time>
      </trkpt>
      <trkpt lat="44.07913" lon="7.24319">
        <ele>1241.6</ele>
        <time>2022-06-11T08:35:29Z</time>
      </trkpt>
      <trkpt lat="44.07911" lon="7.24318">
        <ele>1241.3</ele>
        <time>2022-06-11T08:35:30Z</time>
      </trkpt>
      <trkpt lat="44.07909" lon="7.24317">
        <ele>1241</ele>
        <time>2022-06-11T08:35:31Z</time>
      </trkpt>
      <trkpt lat="44.07907" lon="7.24315">
        <ele>1241.2</ele>
        <time>2022-06-11T08:35:32Z</time>
      </trkpt>
      <trkpt lat="44.07905" lon="7.24315">
        <ele>1240.7</ele>
        <time>2022-06-11T08:35:33Z</time>
      </trkpt>
      <trkpt lat="44.07902" lon="7.24314">
        <ele>1240.3</ele>
        <time>2022-06-11T08:35:34Z</time>
      </trkpt>
      <trkpt lat="44.07901" lon="7.24312">
        <ele>1240.3</ele>
        <time>2022-06-11T08:35:35Z</time>
      </trkpt>
      <trkpt lat="44.07899" lon="7.24311">
        <ele>1240.4</ele>
        <time>2022-06-11T08:35:36Z</time>
      </trkpt>
      <trkpt lat="44.07899" lon="7.24311">
        <ele>1240.4</ele>
        <time>2022-06-11T08:35:37Z</time>
      </trkpt>
      <trkpt lat="44.07895" lon="7.24308">
        <ele>1240.1</ele>
        <time>2022-06-11T08:35:38Z</time>
      </trkpt>
      <trkpt lat="44.07893" lon="7.24307">
        <ele>1240</ele>
        <time>2022-06-11T08:35:39Z</time>
      </trkpt>
      <trkpt lat="44.07891" lon="7.24305">
        <ele>1240.4</ele>
        <time>2022-06-11T08:35:40Z</time>
      </trkpt>
      <trkpt lat="44.0789" lon="7.24303">
        <ele>1240.7</ele>
        <time>2022-06-11T08:35:41Z</time>
      </trkpt>
      <trkpt lat="44.07888" lon="7.243">
        <ele>1241.2</ele>
        <time>2022-06-11T08:35:42Z</time>
      </trkpt>
      <trkpt lat="44.07887" lon="7.24298">
        <ele>1241.9</ele>
        <time>2022-06-11T08:35:43Z</time>
      </trkpt>
      <trkpt lat="44.07886" lon="7.24295">
        <ele>1242.5</ele>
        <time>2022-06-11T08:35:44Z</time>
      </trkpt>
      <trkpt lat="44.07885" lon="7.24293">
        <ele>1243.4</ele>
        <time>2022-06-11T08:35:45Z</time>
      </trkpt>
      <trkpt lat="44.07883" lon="7.2429">
        <ele>1243.9</ele>
        <time>2022-06-11T08:35:46Z</time>
      </trkpt>
      <trkpt lat="44.07882" lon="7.24288">
        <ele>1244.6</ele>
        <time>2022-06-11T08:35:47Z</time>
      </trkpt>
      <trkpt lat="44.07881" lon="7.24286">
        <ele>1245</ele>
        <time>2022-06-11T08:35:48Z</time>
      </trkpt>
      <trkpt lat="44.0788" lon="7.24284">
        <ele>1245.4</ele>
        <time>2022-06-11T08:35:49Z</time>
      </trkpt>
      <trkpt lat="44.07878" lon="7.24282">
        <ele>1246.1</ele>
        <time>2022-06-11T08:35:50Z</time>
      </trkpt>
      <trkpt lat="44.07877" lon="7.2428">
        <ele>1246.5</ele>
        <time>2022-06-11T08:35:51Z</time>
      </trkpt>
      <trkpt lat="44.07875" lon="7.24277">
        <ele>1246.8</ele>
        <time>2022-06-11T08:35:52Z</time>
      </trkpt>
      <trkpt lat="44.07874" lon="7.24274">
        <ele>1247.6</ele>
        <time>2022-06-11T08:35:53Z</time>
      </trkpt>
      <trkpt lat="44.07873" lon="7.24272">
        <ele>1248.1</ele>
        <time>2022-06-11T08:35:54Z</time>
      </trkpt>
      <trkpt lat="44.07871" lon="7.24269">
        <ele>1248.7</ele>
        <time>2022-06-11T08:35:55Z</time>
      </trkpt>
      <trkpt lat="44.0787" lon="7.24267">
        <ele>1249.4</ele>
        <time>2022-06-11T08:35:56Z</time>
      </trkpt>
      <trkpt lat="44.07869" lon="7.24264">
        <ele>1250</ele>
        <time>2022-06-11T08:35:57Z</time>
      </trkpt>
      <trkpt lat="44.07868" lon="7.24262">
        <ele>1250.5</ele>
        <time>2022-06-11T08:35:58Z</time>
      </trkpt>
      <trkpt lat="44.07866" lon="7.2426">
        <ele>1250.7</ele>
        <time>2022-06-11T08:35:59Z</time>
      </trkpt>
      <trkpt lat="44.07864" lon="7.24257">
        <ele>1251</ele>
        <time>2022-06-11T08:36:00Z</time>
      </trkpt>
      <trkpt lat="44.07863" lon="7.24255">
        <ele>1251.4</ele>
        <time>2022-06-11T08:36:01Z</time>
      </trkpt>
      <trkpt lat="44.07861" lon="7.24253">
        <ele>1251.9</ele>
        <time>2022-06-11T08:36:02Z</time>
      </trkpt>
      <trkpt lat="44.0786" lon="7.24251">
        <ele>1252.3</ele>
        <time>2022-06-11T08:36:03Z</time>
      </trkpt>
      <trkpt lat="44.07859" lon="7.24248">
        <ele>1252.9</ele>
        <time>2022-06-11T08:36:04Z</time>
      </trkpt>
      <trkpt lat="44.07857" lon="7.24246">
        <ele>1253.1</ele>
        <time>2022-06-11T08:36:05Z</time>
      </trkpt>
      <trkpt lat="44.07857" lon="7.24246">
        <ele>1253.1</ele>
        <time>2022-06-11T08:36:06Z</time>
      </trkpt>
      <trkpt lat="44.07852" lon="7.24244">
        <ele>1252.5</ele>
        <time>2022-06-11T08:36:07Z</time>
      </trkpt>
      <trkpt lat="44.0785" lon="7.24242">
        <ele>1252.6</ele>
        <time>2022-06-11T08:36:08Z</time>
      </trkpt>
      <trkpt lat="44.07848" lon="7.2424">
        <ele>1252.6</ele>
        <time>2022-06-11T08:36:09Z</time>
      </trkpt>
      <trkpt lat="44.07846" lon="7.24239">
        <ele>1252.6</ele>
        <time>2022-06-11T08:36:10Z</time>
      </trkpt>
      <trkpt lat="44.07844" lon="7.24237">
        <ele>1252.8</ele>
        <time>2022-06-11T08:36:11Z</time>
      </trkpt>
      <trkpt lat="44.07842" lon="7.24235">
        <ele>1252.8</ele>
        <time>2022-06-11T08:36:12Z</time>
      </trkpt>
      <trkpt lat="44.0784" lon="7.24233">
        <ele>1252.9</ele>
        <time>2022-06-11T08:36:13Z</time>
      </trkpt>
      <trkpt lat="44.07839" lon="7.24232">
        <ele>1253.2</ele>
        <time>2022-06-11T08:36:14Z</time>
      </trkpt>
      <trkpt lat="44.07837" lon="7.2423">
        <ele>1253.3</ele>
        <time>2022-06-11T08:36:15Z</time>
      </trkpt>
      <trkpt lat="44.07836" lon="7.24228">
        <ele>1253.3</ele>
        <time>2022-06-11T08:36:16Z</time>
      </trkpt>
      <trkpt lat="44.07833" lon="7.24227">
        <ele>1253</ele>
        <time>2022-06-11T08:36:17Z</time>
      </trkpt>
      <trkpt lat="44.07831" lon="7.24225">
        <ele>1253.3</ele>
        <time>2022-06-11T08:36:18Z</time>
      </trkpt>
      <trkpt lat="44.0783" lon="7.24222">
        <ele>1253.7</ele>
        <time>2022-06-11T08:36:19Z</time>
      </trkpt>
      <trkpt lat="44.07828" lon="7.2422">
        <ele>1254</ele>
        <time>2022-06-11T08:36:20Z</time>
      </trkpt>
      <trkpt lat="44.07827" lon="7.24219">
        <ele>1254</ele>
        <time>2022-06-11T08:36:21Z</time>
      </trkpt>
      <trkpt lat="44.07825" lon="7.24218">
        <ele>1253.8</ele>
        <time>2022-06-11T08:36:22Z</time>
      </trkpt>
      <trkpt lat="44.07823" lon="7.24216">
        <ele>1253.8</ele>
        <time>2022-06-11T08:36:23Z</time>
      </trkpt>
      <trkpt lat="44.07821" lon="7.24215">
        <ele>1253.6</ele>
        <time>2022-06-11T08:36:24Z</time>
      </trkpt>
      <trkpt lat="44.07819" lon="7.24213">
        <ele>1253.6</ele>
        <time>2022-06-11T08:36:25Z</time>
      </trkpt>
      <trkpt lat="44.07817" lon="7.24211">
        <ele>1253.6</ele>
        <time>2022-06-11T08:36:26Z</time>
      </trkpt>
      <trkpt lat="44.07815" lon="7.24209">
        <ele>1253.3</ele>
        <time>2022-06-11T08:36:27Z</time>
      </trkpt>
      <trkpt lat="44.07813" lon="7.24208">
        <ele>1253.2</ele>
        <time>2022-06-11T08:36:28Z</time>
      </trkpt>
      <trkpt lat="44.07811" lon="7.24206">
        <ele>1253.2</ele>
        <time>2022-06-11T08:36:29Z</time>
      </trkpt>
      <trkpt lat="44.0781" lon="7.24203">
        <ele>1253.4</ele>
        <time>2022-06-11T08:36:30Z</time>
      </trkpt>
      <trkpt lat="44.07808" lon="7.24201">
        <ele>1253.3</ele>
        <time>2022-06-11T08:36:31Z</time>
      </trkpt>
      <trkpt lat="44.07806" lon="7.24199">
        <ele>1253.5</ele>
        <time>2022-06-11T08:36:32Z</time>
      </trkpt>
      <trkpt lat="44.07804" lon="7.24197">
        <ele>1253.5</ele>
        <time>2022-06-11T08:36:33Z</time>
      </trkpt>
      <trkpt lat="44.07803" lon="7.24195">
        <ele>1253.4</ele>
        <time>2022-06-11T08:36:34Z</time>
      </trkpt>
      <trkpt lat="44.07801" lon="7.24193">
        <ele>1253.5</ele>
        <time>2022-06-11T08:36:35Z</time>
      </trkpt>
      <trkpt lat="44.078" lon="7.24191">
        <ele>1253.4</ele>
        <time>2022-06-11T08:36:36Z</time>
      </trkpt>
      <trkpt lat="44.07798" lon="7.24189">
        <ele>1253.3</ele>
        <time>2022-06-11T08:36:37Z</time>
      </trkpt>
      <trkpt lat="44.07796" lon="7.24187">
        <ele>1253.3</ele>
        <time>2022-06-11T08:36:38Z</time>
      </trkpt>
      <trkpt lat="44.07794" lon="7.24184">
        <ele>1253.2</ele>
        <time>2022-06-11T08:36:39Z</time>
      </trkpt>
      <trkpt lat="44.07793" lon="7.24182">
        <ele>1253.4</ele>
        <time>2022-06-11T08:36:40Z</time>
      </trkpt>
      <trkpt lat="44.07792" lon="7.2418">
        <ele>1253.4</ele>
        <time>2022-06-11T08:36:41Z</time>
      </trkpt>
      <trkpt lat="44.07791" lon="7.24178">
        <ele>1253.5</ele>
        <time>2022-06-11T08:36:42Z</time>
      </trkpt>
      <trkpt lat="44.07789" lon="7.24177">
        <ele>1253.3</ele>
        <time>2022-06-11T08:36:43Z</time>
      </trkpt>
      <trkpt lat="44.07787" lon="7.24175">
        <ele>1253.2</ele>
        <time>2022-06-11T08:36:44Z</time>
      </trkpt>
      <trkpt lat="44.07786" lon="7.24172">
        <ele>1253.1</ele>
        <time>2022-06-11T08:36:45Z</time>
      </trkpt>
      <trkpt lat="44.07785" lon="7.2417">
        <ele>1253.3</ele>
        <time>2022-06-11T08:36:46Z</time>
      </trkpt>
      <trkpt lat="44.07783" lon="7.24167">
        <ele>1253.5</ele>
        <time>2022-06-11T08:36:47Z</time>
      </trkpt>
      <trkpt lat="44.07782" lon="7.24164">
        <ele>1253.8</ele>
        <time>2022-06-11T08:36:48Z</time>
      </trkpt>
      <trkpt lat="44.0778" lon="7.24162">
        <ele>1253.9</ele>
        <time>2022-06-11T08:36:49Z</time>
      </trkpt>
      <trkpt lat="44.07779" lon="7.2416">
        <ele>1254.1</ele>
        <time>2022-06-11T08:36:50Z</time>
      </trkpt>
      <trkpt lat="44.07777" lon="7.24158">
        <ele>1254.1</ele>
        <time>2022-06-11T08:36:51Z</time>
      </trkpt>
      <trkpt lat="44.07776" lon="7.24155">
        <ele>1254.5</ele>
        <time>2022-06-11T08:36:52Z</time>
      </trkpt>
      <trkpt lat="44.07775" lon="7.24153">
        <ele>1254.6</ele>
        <time>2022-06-11T08:36:53Z</time>
      </trkpt>
      <trkpt lat="44.07773" lon="7.24151">
        <ele>1254.7</ele>
        <time>2022-06-11T08:36:54Z</time>
      </trkpt>
      <trkpt lat="44.07772" lon="7.24149">
        <ele>1255.1</ele>
        <time>2022-06-11T08:36:55Z</time>
      </trkpt>
      <trkpt lat="44.0777" lon="7.24146">
        <ele>1255.4</ele>
        <time>2022-06-11T08:36:56Z</time>
      </trkpt>
      <trkpt lat="44.07769" lon="7.24144">
        <ele>1255.6</ele>
        <time>2022-06-11T08:36:57Z</time>
      </trkpt>
      <trkpt lat="44.07767" lon="7.24142">
        <ele>1255.9</ele>
        <time>2022-06-11T08:36:58Z</time>
      </trkpt>
      <trkpt lat="44.07766" lon="7.24139">
        <ele>1256.6</ele>
        <time>2022-06-11T08:36:59Z</time>
      </trkpt>
      <trkpt lat="44.07765" lon="7.24136">
        <ele>1256.9</ele>
        <time>2022-06-11T08:37:00Z</time>
      </trkpt>
      <trkpt lat="44.07763" lon="7.24134">
        <ele>1257.1</ele>
        <time>2022-06-11T08:37:01Z</time>
      </trkpt>
      <trkpt lat="44.07763" lon="7.24134">
        <ele>1257.1</ele>
        <time>2022-06-11T08:37:02Z</time>
      </trkpt>
      <trkpt lat="44.07761" lon="7.24128">
        <ele>1258.4</ele>
        <time>2022-06-11T08:37:03Z</time>
      </trkpt>
      <trkpt lat="44.0776" lon="7.24125">
        <ele>1259</ele>
        <time>2022-06-11T08:37:04Z</time>
      </trkpt>
      <trkpt lat="44.07759" lon="7.24122">
        <ele>1259.7</ele>
        <time>2022-06-11T08:37:05Z</time>
      </trkpt>
      <trkpt lat="44.07759" lon="7.24122">
        <ele>1259.7</ele>
        <time>2022-06-11T08:37:06Z</time>
      </trkpt>
      <trkpt lat="44.07757" lon="7.24117">
        <ele>1261</ele>
        <time>2022-06-11T08:37:07Z</time>
      </trkpt>
      <trkpt lat="44.07757" lon="7.24117">
        <ele>1261</ele>
        <time>2022-06-11T08:37:08Z</time>
      </trkpt>
      <trkpt lat="44.07756" lon="7.24111">
        <ele>1262.3</ele>
        <time>2022-06-11T08:37:09Z</time>
      </trkpt>
      <trkpt lat="44.07755" lon="7.24108">
        <ele>1263.2</ele>
        <time>2022-06-11T08:37:10Z</time>
      </trkpt>
      <trkpt lat="44.07754" lon="7.24106">
        <ele>1263.7</ele>
        <time>2022-06-11T08:37:11Z</time>
      </trkpt>
      <trkpt lat="44.07753" lon="7.24103">
        <ele>1264.1</ele>
        <time>2022-06-11T08:37:12Z</time>
      </trkpt>
      <trkpt lat="44.07753" lon="7.24103">
        <ele>1264.1</ele>
        <time>2022-06-11T08:37:13Z</time>
      </trkpt>
      <trkpt lat="44.0775" lon="7.24098">
        <ele>1264.9</ele>
        <time>2022-06-11T08:37:14Z</time>
      </trkpt>
      <trkpt lat="44.07749" lon="7.24095">
        <ele>1265.9</ele>
        <time>2022-06-11T08:37:15Z</time>
      </trkpt>
      <trkpt lat="44.07747" lon="7.24093">
        <ele>1266.6</ele>
        <time>2022-06-11T08:37:16Z</time>
      </trkpt>
      <trkpt lat="44.07745" lon="7.24092">
        <ele>1267.3</ele>
        <time>2022-06-11T08:37:17Z</time>
      </trkpt>
      <trkpt lat="44.07743" lon="7.24091">
        <ele>1267.8</ele>
        <time>2022-06-11T08:37:18Z</time>
      </trkpt>
      <trkpt lat="44.0774" lon="7.2409">
        <ele>1268</ele>
        <time>2022-06-11T08:37:19Z</time>
      </trkpt>
      <trkpt lat="44.07738" lon="7.2409">
        <ele>1268.1</ele>
        <time>2022-06-11T08:37:20Z</time>
      </trkpt>
      <trkpt lat="44.07736" lon="7.24091">
        <ele>1268.1</ele>
        <time>2022-06-11T08:37:21Z</time>
      </trkpt>
      <trkpt lat="44.07734" lon="7.24091">
        <ele>1268</ele>
        <time>2022-06-11T08:37:22Z</time>
      </trkpt>
      <trkpt lat="44.07731" lon="7.24092">
        <ele>1267.7</ele>
        <time>2022-06-11T08:37:23Z</time>
      </trkpt>
      <trkpt lat="44.0773" lon="7.24094">
        <ele>1267.3</ele>
        <time>2022-06-11T08:37:24Z</time>
      </trkpt>
      <trkpt lat="44.07728" lon="7.24095">
        <ele>1266.8</ele>
        <time>2022-06-11T08:37:25Z</time>
      </trkpt>
      <trkpt lat="44.07727" lon="7.24097">
        <ele>1266.3</ele>
        <time>2022-06-11T08:37:26Z</time>
      </trkpt>
      <trkpt lat="44.07725" lon="7.24099">
        <ele>1265.8</ele>
        <time>2022-06-11T08:37:27Z</time>
      </trkpt>
      <trkpt lat="44.07723" lon="7.24101">
        <ele>1265.2</ele>
        <time>2022-06-11T08:37:28Z</time>
      </trkpt>
      <trkpt lat="44.07722" lon="7.24104">
        <ele>1264.7</ele>
        <time>2022-06-11T08:37:29Z</time>
      </trkpt>
      <trkpt lat="44.0772" lon="7.24105">
        <ele>1264.9</ele>
        <time>2022-06-11T08:37:30Z</time>
      </trkpt>
      <trkpt lat="44.07719" lon="7.24107">
        <ele>1265.2</ele>
        <time>2022-06-11T08:37:31Z</time>
      </trkpt>
      <trkpt lat="44.07717" lon="7.2411">
        <ele>1265.2</ele>
        <time>2022-06-11T08:37:32Z</time>
      </trkpt>
      <trkpt lat="44.07715" lon="7.24112">
        <ele>1265.3</ele>
        <time>2022-06-11T08:37:33Z</time>
      </trkpt>
      <trkpt lat="44.07714" lon="7.24114">
        <ele>1265.2</ele>
        <time>2022-06-11T08:37:34Z</time>
      </trkpt>
      <trkpt lat="44.07713" lon="7.24117">
        <ele>1264.8</ele>
        <time>2022-06-11T08:37:35Z</time>
      </trkpt>
      <trkpt lat="44.07712" lon="7.24119">
        <ele>1264.4</ele>
        <time>2022-06-11T08:37:36Z</time>
      </trkpt>
      <trkpt lat="44.0771" lon="7.24122">
        <ele>1264.1</ele>
        <time>2022-06-11T08:37:37Z</time>
      </trkpt>
      <trkpt lat="44.07708" lon="7.24125">
        <ele>1264.1</ele>
        <time>2022-06-11T08:37:38Z</time>
      </trkpt>
      <trkpt lat="44.07707" lon="7.24127">
        <ele>1264.2</ele>
        <time>2022-06-11T08:37:39Z</time>
      </trkpt>
      <trkpt lat="44.07705" lon="7.24129">
        <ele>1264.2</ele>
        <time>2022-06-11T08:37:40Z</time>
      </trkpt>
      <trkpt lat="44.07704" lon="7.24132">
        <ele>1264</ele>
        <time>2022-06-11T08:37:41Z</time>
      </trkpt>
      <trkpt lat="44.07703" lon="7.24134">
        <ele>1263.8</ele>
        <time>2022-06-11T08:37:42Z</time>
      </trkpt>
      <trkpt lat="44.07701" lon="7.24136">
        <ele>1263.6</ele>
        <time>2022-06-11T08:37:43Z</time>
      </trkpt>
      <trkpt lat="44.077" lon="7.24138">
        <ele>1263.7</ele>
        <time>2022-06-11T08:37:44Z</time>
      </trkpt>
      <trkpt lat="44.07698" lon="7.2414">
        <ele>1263.9</ele>
        <time>2022-06-11T08:37:45Z</time>
      </trkpt>
      <trkpt lat="44.07696" lon="7.24143">
        <ele>1263.9</ele>
        <time>2022-06-11T08:37:46Z</time>
      </trkpt>
      <trkpt lat="44.07694" lon="7.24145">
        <ele>1263.8</ele>
        <time>2022-06-11T08:37:47Z</time>
      </trkpt>
      <trkpt lat="44.07693" lon="7.24148">
        <ele>1264</ele>
        <time>2022-06-11T08:37:48Z</time>
      </trkpt>
      <trkpt lat="44.07691" lon="7.2415">
        <ele>1264.3</ele>
        <time>2022-06-11T08:37:49Z</time>
      </trkpt>
      <trkpt lat="44.07689" lon="7.24152">
        <ele>1264.8</ele>
        <time>2022-06-11T08:37:50Z</time>
      </trkpt>
      <trkpt lat="44.07687" lon="7.24154">
        <ele>1265</ele>
        <time>2022-06-11T08:37:51Z</time>
      </trkpt>
      <trkpt lat="44.07685" lon="7.24156">
        <ele>1265.2</ele>
        <time>2022-06-11T08:37:52Z</time>
      </trkpt>
      <trkpt lat="44.07683" lon="7.24158">
        <ele>1265.5</ele>
        <time>2022-06-11T08:37:53Z</time>
      </trkpt>
      <trkpt lat="44.07682" lon="7.2416">
        <ele>1265.7</ele>
        <time>2022-06-11T08:37:54Z</time>
      </trkpt>
      <trkpt lat="44.0768" lon="7.24163">
        <ele>1265.8</ele>
        <time>2022-06-11T08:37:55Z</time>
      </trkpt>
      <trkpt lat="44.0768" lon="7.24163">
        <ele>1265.8</ele>
        <time>2022-06-11T08:37:56Z</time>
      </trkpt>
      <trkpt lat="44.07676" lon="7.24168">
        <ele>1266.1</ele>
        <time>2022-06-11T08:37:57Z</time>
      </trkpt>
      <trkpt lat="44.07674" lon="7.2417">
        <ele>1266.7</ele>
        <time>2022-06-11T08:37:58Z</time>
      </trkpt>
      <trkpt lat="44.07674" lon="7.2417">
        <ele>1266.7</ele>
        <time>2022-06-11T08:37:59Z</time>
      </trkpt>
      <trkpt lat="44.07671" lon="7.24174">
        <ele>1267.3</ele>
        <time>2022-06-11T08:38:00Z</time>
      </trkpt>
      <trkpt lat="44.07669" lon="7.24176">
        <ele>1267.4</ele>
        <time>2022-06-11T08:38:01Z</time>
      </trkpt>
      <trkpt lat="44.07668" lon="7.24177">
        <ele>1267.9</ele>
        <time>2022-06-11T08:38:02Z</time>
      </trkpt>
      <trkpt lat="44.07666" lon="7.24178">
        <ele>1268.1</ele>
        <time>2022-06-11T08:38:03Z</time>
      </trkpt>
      <trkpt lat="44.07666" lon="7.24178">
        <ele>1268.1</ele>
        <time>2022-06-11T08:38:04Z</time>
      </trkpt>
      <trkpt lat="44.07663" lon="7.24181">
        <ele>1268.1</ele>
        <time>2022-06-11T08:38:05Z</time>
      </trkpt>
      <trkpt lat="44.07661" lon="7.24182">
        <ele>1268.2</ele>
        <time>2022-06-11T08:38:06Z</time>
      </trkpt>
      <trkpt lat="44.07661" lon="7.24182">
        <ele>1268.2</ele>
        <time>2022-06-11T08:38:07Z</time>
      </trkpt>
      <trkpt lat="44.07656" lon="7.24186">
        <ele>1268</ele>
        <time>2022-06-11T08:38:08Z</time>
      </trkpt>
      <trkpt lat="44.07654" lon="7.24188">
        <ele>1268</ele>
        <time>2022-06-11T08:38:09Z</time>
      </trkpt>
      <trkpt lat="44.07652" lon="7.24189">
        <ele>1268.1</ele>
        <time>2022-06-11T08:38:10Z</time>
      </trkpt>
      <trkpt lat="44.0765" lon="7.24192">
        <ele>1268</ele>
        <time>2022-06-11T08:38:11Z</time>
      </trkpt>
      <trkpt lat="44.07648" lon="7.24193">
        <ele>1268</ele>
        <time>2022-06-11T08:38:12Z</time>
      </trkpt>
      <trkpt lat="44.07645" lon="7.24195">
        <ele>1268.2</ele>
        <time>2022-06-11T08:38:13Z</time>
      </trkpt>
      <trkpt lat="44.07643" lon="7.24196">
        <ele>1268.4</ele>
        <time>2022-06-11T08:38:14Z</time>
      </trkpt>
      <trkpt lat="44.07641" lon="7.24196">
        <ele>1268.7</ele>
        <time>2022-06-11T08:38:15Z</time>
      </trkpt>
      <trkpt lat="44.07639" lon="7.24197">
        <ele>1268.8</ele>
        <time>2022-06-11T08:38:16Z</time>
      </trkpt>
      <trkpt lat="44.07636" lon="7.24198">
        <ele>1268.4</ele>
        <time>2022-06-11T08:38:17Z</time>
      </trkpt>
      <trkpt lat="44.07634" lon="7.24198">
        <ele>1268</ele>
        <time>2022-06-11T08:38:18Z</time>
      </trkpt>
      <trkpt lat="44.07631" lon="7.24198">
        <ele>1267.8</ele>
        <time>2022-06-11T08:38:19Z</time>
      </trkpt>
      <trkpt lat="44.07628" lon="7.24198">
        <ele>1267.6</ele>
        <time>2022-06-11T08:38:20Z</time>
      </trkpt>
      <trkpt lat="44.07626" lon="7.24198">
        <ele>1267.4</ele>
        <time>2022-06-11T08:38:21Z</time>
      </trkpt>
      <trkpt lat="44.07623" lon="7.24197">
        <ele>1267.4</ele>
        <time>2022-06-11T08:38:22Z</time>
      </trkpt>
      <trkpt lat="44.07621" lon="7.24196">
        <ele>1267.6</ele>
        <time>2022-06-11T08:38:23Z</time>
      </trkpt>
      <trkpt lat="44.07619" lon="7.24194">
        <ele>1267.9</ele>
        <time>2022-06-11T08:38:24Z</time>
      </trkpt>
      <trkpt lat="44.07617" lon="7.24193">
        <ele>1268.2</ele>
        <time>2022-06-11T08:38:25Z</time>
      </trkpt>
      <trkpt lat="44.07616" lon="7.24191">
        <ele>1268.8</ele>
        <time>2022-06-11T08:38:26Z</time>
      </trkpt>
      <trkpt lat="44.07615" lon="7.24188">
        <ele>1269.7</ele>
        <time>2022-06-11T08:38:27Z</time>
      </trkpt>
      <trkpt lat="44.07616" lon="7.24186">
        <ele>1270.6</ele>
        <time>2022-06-11T08:38:28Z</time>
      </trkpt>
      <trkpt lat="44.07618" lon="7.24184">
        <ele>1271.3</ele>
        <time>2022-06-11T08:38:29Z</time>
      </trkpt>
      <trkpt lat="44.07619" lon="7.24183">
        <ele>1272</ele>
        <time>2022-06-11T08:38:30Z</time>
      </trkpt>
      <trkpt lat="44.07621" lon="7.24183">
        <ele>1272.3</ele>
        <time>2022-06-11T08:38:31Z</time>
      </trkpt>
      <trkpt lat="44.07623" lon="7.24183">
        <ele>1272.4</ele>
        <time>2022-06-11T08:38:32Z</time>
      </trkpt>
      <trkpt lat="44.07625" lon="7.24183">
        <ele>1272.6</ele>
        <time>2022-06-11T08:38:33Z</time>
      </trkpt>
      <trkpt lat="44.07626" lon="7.24183">
        <ele>1272.9</ele>
        <time>2022-06-11T08:38:34Z</time>
      </trkpt>
      <trkpt lat="44.07627" lon="7.24182">
        <ele>1273.3</ele>
        <time>2022-06-11T08:38:35Z</time>
      </trkpt>
      <trkpt lat="44.07627" lon="7.24182">
        <ele>1273.4</ele>
        <time>2022-06-11T08:38:36Z</time>
      </trkpt>
      <trkpt lat="44.07626" lon="7.24181">
        <ele>1273.4</ele>
        <time>2022-06-11T08:38:37Z</time>
      </trkpt>
      <trkpt lat="44.07624" lon="7.24181">
        <ele>1273.1</ele>
        <time>2022-06-11T08:38:38Z</time>
      </trkpt>
      <trkpt lat="44.07621" lon="7.24181">
        <ele>1272.9</ele>
        <time>2022-06-11T08:38:39Z</time>
      </trkpt>
      <trkpt lat="44.07618" lon="7.24181">
        <ele>1272.5</ele>
        <time>2022-06-11T08:38:40Z</time>
      </trkpt>
      <trkpt lat="44.07615" lon="7.24183">
        <ele>1271.7</ele>
        <time>2022-06-11T08:38:41Z</time>
      </trkpt>
      <trkpt lat="44.07613" lon="7.24184">
        <ele>1270.9</ele>
        <time>2022-06-11T08:38:42Z</time>
      </trkpt>
      <trkpt lat="44.07611" lon="7.24186">
        <ele>1270</ele>
        <time>2022-06-11T08:38:43Z</time>
      </trkpt>
      <trkpt lat="44.0761" lon="7.24189">
        <ele>1268.8</ele>
        <time>2022-06-11T08:38:44Z</time>
      </trkpt>
      <trkpt lat="44.07609" lon="7.24191">
        <ele>1267.8</ele>
        <time>2022-06-11T08:38:45Z</time>
      </trkpt>
      <trkpt lat="44.07609" lon="7.24193">
        <ele>1267</ele>
        <time>2022-06-11T08:38:46Z</time>
      </trkpt>
      <trkpt lat="44.07609" lon="7.24194">
        <ele>1266.4</ele>
        <time>2022-06-11T08:38:47Z</time>
      </trkpt>
      <trkpt lat="44.07609" lon="7.24196">
        <ele>1266</ele>
        <time>2022-06-11T08:38:48Z</time>
      </trkpt>
      <trkpt lat="44.07609" lon="7.24196">
        <ele>1265.9</ele>
        <time>2022-06-11T08:38:49Z</time>
      </trkpt>
      <trkpt lat="44.07609" lon="7.24196">
        <ele>1265.9</ele>
        <time>2022-06-11T08:38:50Z</time>
      </trkpt>
      <trkpt lat="44.07614" lon="7.24192">
        <ele>1268.1</ele>
        <time>2022-06-11T08:40:34Z</time>
      </trkpt>
      <trkpt lat="44.07616" lon="7.24189">
        <ele>1269.5</ele>
        <time>2022-06-11T08:40:35Z</time>
      </trkpt>
      <trkpt lat="44.07619" lon="7.24187">
        <ele>1270.7</ele>
        <time>2022-06-11T08:40:36Z</time>
      </trkpt>
      <trkpt lat="44.07622" lon="7.24185">
        <ele>1271.5</ele>
        <time>2022-06-11T08:40:37Z</time>
      </trkpt>
      <trkpt lat="44.07625" lon="7.24184">
        <ele>1272.2</ele>
        <time>2022-06-11T08:40:38Z</time>
      </trkpt>
      <trkpt lat="44.07628" lon="7.24183">
        <ele>1273</ele>
        <time>2022-06-11T08:40:39Z</time>
      </trkpt>
      <trkpt lat="44.07631" lon="7.24182">
        <ele>1273.6</ele>
        <time>2022-06-11T08:40:40Z</time>
      </trkpt>
      <trkpt lat="44.07633" lon="7.24181">
        <ele>1274.4</ele>
        <time>2022-06-11T08:40:41Z</time>
      </trkpt>
      <trkpt lat="44.07636" lon="7.2418">
        <ele>1275</ele>
        <time>2022-06-11T08:40:42Z</time>
      </trkpt>
      <trkpt lat="44.07638" lon="7.24179">
        <ele>1275.7</ele>
        <time>2022-06-11T08:40:43Z</time>
      </trkpt>
      <trkpt lat="44.07641" lon="7.24178">
        <ele>1275.6</ele>
        <time>2022-06-11T08:40:44Z</time>
      </trkpt>
      <trkpt lat="44.07643" lon="7.24177">
        <ele>1275.2</ele>
        <time>2022-06-11T08:40:45Z</time>
      </trkpt>
      <trkpt lat="44.07645" lon="7.24176">
        <ele>1274.9</ele>
        <time>2022-06-11T08:40:46Z</time>
      </trkpt>
      <trkpt lat="44.07648" lon="7.24175">
        <ele>1274.5</ele>
        <time>2022-06-11T08:40:47Z</time>
      </trkpt>
      <trkpt lat="44.0765" lon="7.24174">
        <ele>1274.3</ele>
        <time>2022-06-11T08:40:48Z</time>
      </trkpt>
      <trkpt lat="44.07653" lon="7.24172">
        <ele>1274.2</ele>
        <time>2022-06-11T08:40:49Z</time>
      </trkpt>
      <trkpt lat="44.07655" lon="7.2417">
        <ele>1274.4</ele>
        <time>2022-06-11T08:40:50Z</time>
      </trkpt>
      <trkpt lat="44.07657" lon="7.24168">
        <ele>1274.4</ele>
        <time>2022-06-11T08:40:51Z</time>
      </trkpt>
      <trkpt lat="44.07659" lon="7.24166">
        <ele>1274.4</ele>
        <time>2022-06-11T08:40:52Z</time>
      </trkpt>
      <trkpt lat="44.07661" lon="7.24164">
        <ele>1274.5</ele>
        <time>2022-06-11T08:40:53Z</time>
      </trkpt>
      <trkpt lat="44.07663" lon="7.24162">
        <ele>1274.8</ele>
        <time>2022-06-11T08:40:54Z</time>
      </trkpt>
      <trkpt lat="44.07665" lon="7.2416">
        <ele>1275</ele>
        <time>2022-06-11T08:40:55Z</time>
      </trkpt>
      <trkpt lat="44.07665" lon="7.2416">
        <ele>1275</ele>
        <time>2022-06-11T08:40:56Z</time>
      </trkpt>
      <trkpt lat="44.07668" lon="7.24155">
        <ele>1275.6</ele>
        <time>2022-06-11T08:40:57Z</time>
      </trkpt>
      <trkpt lat="44.0767" lon="7.24153">
        <ele>1275.2</ele>
        <time>2022-06-11T08:40:58Z</time>
      </trkpt>
      <trkpt lat="44.07672" lon="7.24151">
        <ele>1274.8</ele>
        <time>2022-06-11T08:40:59Z</time>
      </trkpt>
      <trkpt lat="44.07673" lon="7.24149">
        <ele>1274.6</ele>
        <time>2022-06-11T08:41:00Z</time>
      </trkpt>
      <trkpt lat="44.07675" lon="7.24146">
        <ele>1274.4</ele>
        <time>2022-06-11T08:41:01Z</time>
      </trkpt>
      <trkpt lat="44.07677" lon="7.24144">
        <ele>1274.3</ele>
        <time>2022-06-11T08:41:02Z</time>
      </trkpt>
      <trkpt lat="44.07677" lon="7.24144">
        <ele>1274.3</ele>
        <time>2022-06-11T08:41:03Z</time>
      </trkpt>
      <trkpt lat="44.07681" lon="7.24139">
        <ele>1274.1</ele>
        <time>2022-06-11T08:41:04Z</time>
      </trkpt>
      <trkpt lat="44.07682" lon="7.24136">
        <ele>1274</ele>
        <time>2022-06-11T08:41:05Z</time>
      </trkpt>
      <trkpt lat="44.07684" lon="7.24134">
        <ele>1274</ele>
        <time>2022-06-11T08:41:06Z</time>
      </trkpt>
      <trkpt lat="44.07684" lon="7.24134">
        <ele>1274</ele>
        <time>2022-06-11T08:41:07Z</time>
      </trkpt>
      <trkpt lat="44.07687" lon="7.24129">
        <ele>1274</ele>
        <time>2022-06-11T08:41:08Z</time>
      </trkpt>
      <trkpt lat="44.07688" lon="7.24126">
        <ele>1274.1</ele>
        <time>2022-06-11T08:41:09Z</time>
      </trkpt>
      <trkpt lat="44.0769" lon="7.24124">
        <ele>1274.2</ele>
        <time>2022-06-11T08:41:10Z</time>
      </trkpt>
      <trkpt lat="44.07691" lon="7.24122">
        <ele>1274.3</ele>
        <time>2022-06-11T08:41:11Z</time>
      </trkpt>
      <trkpt lat="44.07692" lon="7.2412">
        <ele>1274.3</ele>
        <time>2022-06-11T08:41:12Z</time>
      </trkpt>
      <trkpt lat="44.07692" lon="7.2412">
        <ele>1274.3</ele>
        <time>2022-06-11T08:41:13Z</time>
      </trkpt>
      <trkpt lat="44.07694" lon="7.24114">
        <ele>1275.3</ele>
        <time>2022-06-11T08:41:14Z</time>
      </trkpt>
      <trkpt lat="44.07695" lon="7.24111">
        <ele>1275.7</ele>
        <time>2022-06-11T08:41:15Z</time>
      </trkpt>
      <trkpt lat="44.07696" lon="7.24109">
        <ele>1276.1</ele>
        <time>2022-06-11T08:41:16Z</time>
      </trkpt>
      <trkpt lat="44.07697" lon="7.24105">
        <ele>1277.1</ele>
        <time>2022-06-11T08:41:17Z</time>
      </trkpt>
      <trkpt lat="44.07698" lon="7.24102">
        <ele>1277.9</ele>
        <time>2022-06-11T08:41:18Z</time>
      </trkpt>
      <trkpt lat="44.07699" lon="7.24099">
        <ele>1278.5</ele>
        <time>2022-06-11T08:41:19Z</time>
      </trkpt>
      <trkpt lat="44.07699" lon="7.24096">
        <ele>1279.2</ele>
        <time>2022-06-11T08:41:20Z</time>
      </trkpt>
      <trkpt lat="44.077" lon="7.24093">
        <ele>1280.1</ele>
        <time>2022-06-11T08:41:21Z</time>
      </trkpt>
      <trkpt lat="44.07701" lon="7.2409">
        <ele>1280.8</ele>
        <time>2022-06-11T08:41:22Z</time>
      </trkpt>
      <trkpt lat="44.07702" lon="7.24087">
        <ele>1281.3</ele>
        <time>2022-06-11T08:41:23Z</time>
      </trkpt>
      <trkpt lat="44.07703" lon="7.24085">
        <ele>1281.8</ele>
        <time>2022-06-11T08:41:24Z</time>
      </trkpt>
      <trkpt lat="44.07704" lon="7.24081">
        <ele>1282.3</ele>
        <time>2022-06-11T08:41:25Z</time>
      </trkpt>
      <trkpt lat="44.07704" lon="7.24081">
        <ele>1282.3</ele>
        <time>2022-06-11T08:41:26Z</time>
      </trkpt>
      <trkpt lat="44.07706" lon="7.24076">
        <ele>1283.6</ele>
        <time>2022-06-11T08:41:27Z</time>
      </trkpt>
      <trkpt lat="44.07707" lon="7.24073">
        <ele>1284</ele>
        <time>2022-06-11T08:41:28Z</time>
      </trkpt>
      <trkpt lat="44.07709" lon="7.2407">
        <ele>1284.4</ele>
        <time>2022-06-11T08:41:29Z</time>
      </trkpt>
      <trkpt lat="44.0771" lon="7.24067">
        <ele>1285.2</ele>
        <time>2022-06-11T08:41:30Z</time>
      </trkpt>
      <trkpt lat="44.0771" lon="7.24067">
        <ele>1285.2</ele>
        <time>2022-06-11T08:41:31Z</time>
      </trkpt>
      <trkpt lat="44.07712" lon="7.24061">
        <ele>1286.3</ele>
        <time>2022-06-11T08:41:32Z</time>
      </trkpt>
      <trkpt lat="44.07713" lon="7.24059">
        <ele>1287</ele>
        <time>2022-06-11T08:41:33Z</time>
      </trkpt>
      <trkpt lat="44.07714" lon="7.24056">
        <ele>1287.7</ele>
        <time>2022-06-11T08:41:34Z</time>
      </trkpt>
      <trkpt lat="44.07715" lon="7.24053">
        <ele>1288.5</ele>
        <time>2022-06-11T08:41:35Z</time>
      </trkpt>
      <trkpt lat="44.07716" lon="7.2405">
        <ele>1288.9</ele>
        <time>2022-06-11T08:41:36Z</time>
      </trkpt>
      <trkpt lat="44.07717" lon="7.24047">
        <ele>1289.5</ele>
        <time>2022-06-11T08:41:37Z</time>
      </trkpt>
      <trkpt lat="44.07718" lon="7.24045">
        <ele>1290.2</ele>
        <time>2022-06-11T08:41:38Z</time>
      </trkpt>
      <trkpt lat="44.0772" lon="7.24042">
        <ele>1291</ele>
        <time>2022-06-11T08:41:39Z</time>
      </trkpt>
      <trkpt lat="44.0772" lon="7.24042">
        <ele>1291</ele>
        <time>2022-06-11T08:41:40Z</time>
      </trkpt>
      <trkpt lat="44.07723" lon="7.24037">
        <ele>1291.5</ele>
        <time>2022-06-11T08:41:41Z</time>
      </trkpt>
      <trkpt lat="44.07724" lon="7.24035">
        <ele>1292.6</ele>
        <time>2022-06-11T08:41:42Z</time>
      </trkpt>
      <trkpt lat="44.07726" lon="7.24033">
        <ele>1293.7</ele>
        <time>2022-06-11T08:41:43Z</time>
      </trkpt>
      <trkpt lat="44.07728" lon="7.24031">
        <ele>1294.5</ele>
        <time>2022-06-11T08:41:44Z</time>
      </trkpt>
      <trkpt lat="44.0773" lon="7.24029">
        <ele>1295.2</ele>
        <time>2022-06-11T08:41:45Z</time>
      </trkpt>
      <trkpt lat="44.07732" lon="7.24028">
        <ele>1295.7</ele>
        <time>2022-06-11T08:41:46Z</time>
      </trkpt>
      <trkpt lat="44.07735" lon="7.24027">
        <ele>1295.9</ele>
        <time>2022-06-11T08:41:47Z</time>
      </trkpt>
      <trkpt lat="44.07737" lon="7.24027">
        <ele>1295.9</ele>
        <time>2022-06-11T08:41:48Z</time>
      </trkpt>
      <trkpt lat="44.07739" lon="7.24028">
        <ele>1295.5</ele>
        <time>2022-06-11T08:41:49Z</time>
      </trkpt>
      <trkpt lat="44.07741" lon="7.24029">
        <ele>1294.7</ele>
        <time>2022-06-11T08:41:50Z</time>
      </trkpt>
      <trkpt lat="44.07744" lon="7.24031">
        <ele>1293.7</ele>
        <time>2022-06-11T08:41:51Z</time>
      </trkpt>
      <trkpt lat="44.07746" lon="7.24033">
        <ele>1292.6</ele>
        <time>2022-06-11T08:41:52Z</time>
      </trkpt>
      <trkpt lat="44.07748" lon="7.24036">
        <ele>1291.5</ele>
        <time>2022-06-11T08:41:53Z</time>
      </trkpt>
      <trkpt lat="44.0775" lon="7.24038">
        <ele>1290.3</ele>
        <time>2022-06-11T08:41:54Z</time>
      </trkpt>
      <trkpt lat="44.07751" lon="7.2404">
        <ele>1289.8</ele>
        <time>2022-06-11T08:41:55Z</time>
      </trkpt>
      <trkpt lat="44.07753" lon="7.24043">
        <ele>1289.3</ele>
        <time>2022-06-11T08:41:56Z</time>
      </trkpt>
      <trkpt lat="44.07755" lon="7.24045">
        <ele>1288.8</ele>
        <time>2022-06-11T08:41:57Z</time>
      </trkpt>
      <trkpt lat="44.07757" lon="7.24048">
        <ele>1288.5</ele>
        <time>2022-06-11T08:41:58Z</time>
      </trkpt>
      <trkpt lat="44.07757" lon="7.24048">
        <ele>1288.5</ele>
        <time>2022-06-11T08:41:59Z</time>
      </trkpt>
      <trkpt lat="44.0776" lon="7.24052">
        <ele>1288.1</ele>
        <time>2022-06-11T08:42:00Z</time>
      </trkpt>
      <trkpt lat="44.07762" lon="7.24054">
        <ele>1287.9</ele>
        <time>2022-06-11T08:42:01Z</time>
      </trkpt>
      <trkpt lat="44.07763" lon="7.24056">
        <ele>1287.2</ele>
        <time>2022-06-11T08:42:02Z</time>
      </trkpt>
      <trkpt lat="44.07763" lon="7.24056">
        <ele>1287.2</ele>
        <time>2022-06-11T08:42:03Z</time>
      </trkpt>
      <trkpt lat="44.07767" lon="7.2406">
        <ele>1287.2</ele>
        <time>2022-06-11T08:42:04Z</time>
      </trkpt>
      <trkpt lat="44.07768" lon="7.24062">
        <ele>1287</ele>
        <time>2022-06-11T08:42:05Z</time>
      </trkpt>
      <trkpt lat="44.0777" lon="7.24064">
        <ele>1286.9</ele>
        <time>2022-06-11T08:42:06Z</time>
      </trkpt>
      <trkpt lat="44.07772" lon="7.24066">
        <ele>1286.8</ele>
        <time>2022-06-11T08:42:07Z</time>
      </trkpt>
      <trkpt lat="44.07773" lon="7.24068">
        <ele>1286.6</ele>
        <time>2022-06-11T08:42:08Z</time>
      </trkpt>
      <trkpt lat="44.07775" lon="7.24071">
        <ele>1286.3</ele>
        <time>2022-06-11T08:42:09Z</time>
      </trkpt>
      <trkpt lat="44.07777" lon="7.24072">
        <ele>1286.3</ele>
        <time>2022-06-11T08:42:10Z</time>
      </trkpt>
      <trkpt lat="44.07779" lon="7.24074">
        <ele>1286.3</ele>
        <time>2022-06-11T08:42:11Z</time>
      </trkpt>
      <trkpt lat="44.07781" lon="7.24076">
        <ele>1286.7</ele>
        <time>2022-06-11T08:42:12Z</time>
      </trkpt>
      <trkpt lat="44.07782" lon="7.24078">
        <ele>1286.7</ele>
        <time>2022-06-11T08:42:13Z</time>
      </trkpt>
      <trkpt lat="44.07784" lon="7.2408">
        <ele>1286.9</ele>
        <time>2022-06-11T08:42:14Z</time>
      </trkpt>
      <trkpt lat="44.07786" lon="7.24081">
        <ele>1287.1</ele>
        <time>2022-06-11T08:42:15Z</time>
      </trkpt>
      <trkpt lat="44.07788" lon="7.24083">
        <ele>1287.5</ele>
        <time>2022-06-11T08:42:16Z</time>
      </trkpt>
      <trkpt lat="44.0779" lon="7.24085">
        <ele>1287.9</ele>
        <time>2022-06-11T08:42:17Z</time>
      </trkpt>
      <trkpt lat="44.07792" lon="7.24087">
        <ele>1288.3</ele>
        <time>2022-06-11T08:42:18Z</time>
      </trkpt>
      <trkpt lat="44.07794" lon="7.24088">
        <ele>1288.6</ele>
        <time>2022-06-11T08:42:19Z</time>
      </trkpt>
      <trkpt lat="44.07796" lon="7.2409">
        <ele>1288.9</ele>
        <time>2022-06-11T08:42:20Z</time>
      </trkpt>
      <trkpt lat="44.07798" lon="7.24092">
        <ele>1289</ele>
        <time>2022-06-11T08:42:21Z</time>
      </trkpt>
      <trkpt lat="44.078" lon="7.24094">
        <ele>1289.3</ele>
        <time>2022-06-11T08:42:22Z</time>
      </trkpt>
      <trkpt lat="44.07802" lon="7.24096">
        <ele>1289.7</ele>
        <time>2022-06-11T08:42:23Z</time>
      </trkpt>
      <trkpt lat="44.07804" lon="7.24097">
        <ele>1290.4</ele>
        <time>2022-06-11T08:42:24Z</time>
      </trkpt>
      <trkpt lat="44.07806" lon="7.24099">
        <ele>1290.7</ele>
        <time>2022-06-11T08:42:25Z</time>
      </trkpt>
      <trkpt lat="44.07808" lon="7.241">
        <ele>1291.1</ele>
        <time>2022-06-11T08:42:26Z</time>
      </trkpt>
      <trkpt lat="44.0781" lon="7.24101">
        <ele>1291.7</ele>
        <time>2022-06-11T08:42:27Z</time>
      </trkpt>
      <trkpt lat="44.07812" lon="7.24103">
        <ele>1292</ele>
        <time>2022-06-11T08:42:28Z</time>
      </trkpt>
      <trkpt lat="44.07814" lon="7.24104">
        <ele>1292.4</ele>
        <time>2022-06-11T08:42:29Z</time>
      </trkpt>
      <trkpt lat="44.07816" lon="7.24106">
        <ele>1292.8</ele>
        <time>2022-06-11T08:42:30Z</time>
      </trkpt>
      <trkpt lat="44.07819" lon="7.24107">
        <ele>1293.4</ele>
        <time>2022-06-11T08:42:31Z</time>
      </trkpt>
      <trkpt lat="44.07821" lon="7.24108">
        <ele>1294</ele>
        <time>2022-06-11T08:42:32Z</time>
      </trkpt>
      <trkpt lat="44.07823" lon="7.2411">
        <ele>1294.5</ele>
        <time>2022-06-11T08:42:33Z</time>
      </trkpt>
      <trkpt lat="44.07825" lon="7.24111">
        <ele>1294.9</ele>
        <time>2022-06-11T08:42:34Z</time>
      </trkpt>
      <trkpt lat="44.07828" lon="7.24113">
        <ele>1295.4</ele>
        <time>2022-06-11T08:42:35Z</time>
      </trkpt>
      <trkpt lat="44.0783" lon="7.24114">
        <ele>1295.9</ele>
        <time>2022-06-11T08:42:36Z</time>
      </trkpt>
      <trkpt lat="44.07832" lon="7.24115">
        <ele>1296.5</ele>
        <time>2022-06-11T08:42:37Z</time>
      </trkpt>
      <trkpt lat="44.07833" lon="7.24117">
        <ele>1296.5</ele>
        <time>2022-06-11T08:42:38Z</time>
      </trkpt>
      <trkpt lat="44.07835" lon="7.24119">
        <ele>1296.4</ele>
        <time>2022-06-11T08:42:39Z</time>
      </trkpt>
      <trkpt lat="44.07837" lon="7.24121">
        <ele>1296.7</ele>
        <time>2022-06-11T08:42:40Z</time>
      </trkpt>
      <trkpt lat="44.07839" lon="7.24123">
        <ele>1297</ele>
        <time>2022-06-11T08:42:41Z</time>
      </trkpt>
      <trkpt lat="44.07841" lon="7.24124">
        <ele>1297.5</ele>
        <time>2022-06-11T08:42:42Z</time>
      </trkpt>
      <trkpt lat="44.07843" lon="7.24126">
        <ele>1297.6</ele>
        <time>2022-06-11T08:42:43Z</time>
      </trkpt>
      <trkpt lat="44.07845" lon="7.24129">
        <ele>1297.6</ele>
        <time>2022-06-11T08:42:44Z</time>
      </trkpt>
      <trkpt lat="44.07847" lon="7.2413">
        <ele>1297.9</ele>
        <time>2022-06-11T08:42:45Z</time>
      </trkpt>
      <trkpt lat="44.07849" lon="7.24132">
        <ele>1298.2</ele>
        <time>2022-06-11T08:42:46Z</time>
      </trkpt>
      <trkpt lat="44.07852" lon="7.24134">
        <ele>1298.6</ele>
        <time>2022-06-11T08:42:47Z</time>
      </trkpt>
      <trkpt lat="44.07854" lon="7.24135">
        <ele>1298.9</ele>
        <time>2022-06-11T08:42:48Z</time>
      </trkpt>
      <trkpt lat="44.07855" lon="7.24138">
        <ele>1298.7</ele>
        <time>2022-06-11T08:42:49Z</time>
      </trkpt>
      <trkpt lat="44.07857" lon="7.24139">
        <ele>1299</ele>
        <time>2022-06-11T08:42:50Z</time>
      </trkpt>
      <trkpt lat="44.07859" lon="7.24141">
        <ele>1299.3</ele>
        <time>2022-06-11T08:42:51Z</time>
      </trkpt>
      <trkpt lat="44.07859" lon="7.24141">
        <ele>1299.3</ele>
        <time>2022-06-11T08:42:52Z</time>
      </trkpt>
      <trkpt lat="44.07863" lon="7.24144">
        <ele>1299.9</ele>
        <time>2022-06-11T08:42:53Z</time>
      </trkpt>
      <trkpt lat="44.07865" lon="7.24145">
        <ele>1300.2</ele>
        <time>2022-06-11T08:42:54Z</time>
      </trkpt>
      <trkpt lat="44.07867" lon="7.24147">
        <ele>1300.1</ele>
        <time>2022-06-11T08:42:55Z</time>
      </trkpt>
      <trkpt lat="44.07869" lon="7.24149">
        <ele>1300.4</ele>
        <time>2022-06-11T08:42:56Z</time>
      </trkpt>
      <trkpt lat="44.07871" lon="7.2415">
        <ele>1301</ele>
        <time>2022-06-11T08:42:57Z</time>
      </trkpt>
      <trkpt lat="44.07873" lon="7.2415">
        <ele>1301.6</ele>
        <time>2022-06-11T08:42:58Z</time>
      </trkpt>
      <trkpt lat="44.07875" lon="7.24152">
        <ele>1301.6</ele>
        <time>2022-06-11T08:42:59Z</time>
      </trkpt>
      <trkpt lat="44.07875" lon="7.24152">
        <ele>1301.6</ele>
        <time>2022-06-11T08:43:00Z</time>
      </trkpt>
      <trkpt lat="44.07875" lon="7.24152">
        <ele>1301.6</ele>
        <time>2022-06-11T08:43:01Z</time>
      </trkpt>
      <trkpt lat="44.07881" lon="7.24157">
        <ele>1302.3</ele>
        <time>2022-06-11T08:43:02Z</time>
      </trkpt>
      <trkpt lat="44.07883" lon="7.24158">
        <ele>1302.3</ele>
        <time>2022-06-11T08:43:03Z</time>
      </trkpt>
      <trkpt lat="44.07883" lon="7.24158">
        <ele>1302.3</ele>
        <time>2022-06-11T08:43:04Z</time>
      </trkpt>
      <trkpt lat="44.07883" lon="7.24158">
        <ele>1302.3</ele>
        <time>2022-06-11T08:43:05Z</time>
      </trkpt>
      <trkpt lat="44.0789" lon="7.24163">
        <ele>1303.1</ele>
        <time>2022-06-11T08:43:06Z</time>
      </trkpt>
      <trkpt lat="44.07892" lon="7.24165">
        <ele>1303.1</ele>
        <time>2022-06-11T08:43:07Z</time>
      </trkpt>
      <trkpt lat="44.07893" lon="7.24167">
        <ele>1302.9</ele>
        <time>2022-06-11T08:43:08Z</time>
      </trkpt>
      <trkpt lat="44.07893" lon="7.24167">
        <ele>1302.9</ele>
        <time>2022-06-11T08:43:09Z</time>
      </trkpt>
      <trkpt lat="44.07893" lon="7.24167">
        <ele>1302.9</ele>
        <time>2022-06-11T08:43:10Z</time>
      </trkpt>
      <trkpt lat="44.07899" lon="7.24172">
        <ele>1303</ele>
        <time>2022-06-11T08:43:11Z</time>
      </trkpt>
      <trkpt lat="44.07901" lon="7.24174">
        <ele>1303</ele>
        <time>2022-06-11T08:43:12Z</time>
      </trkpt>
      <trkpt lat="44.07902" lon="7.24176">
        <ele>1302.7</ele>
        <time>2022-06-11T08:43:13Z</time>
      </trkpt>
      <trkpt lat="44.07904" lon="7.24178">
        <ele>1302.5</ele>
        <time>2022-06-11T08:43:14Z</time>
      </trkpt>
      <trkpt lat="44.07906" lon="7.2418">
        <ele>1302.5</ele>
        <time>2022-06-11T08:43:15Z</time>
      </trkpt>
      <trkpt lat="44.07908" lon="7.24182">
        <ele>1302.4</ele>
        <time>2022-06-11T08:43:16Z</time>
      </trkpt>
      <trkpt lat="44.07911" lon="7.24184">
        <ele>1302.4</ele>
        <time>2022-06-11T08:43:17Z</time>
      </trkpt>
      <trkpt lat="44.07913" lon="7.24186">
        <ele>1302.4</ele>
        <time>2022-06-11T08:43:18Z</time>
      </trkpt>
      <trkpt lat="44.07915" lon="7.24188">
        <ele>1302.5</ele>
        <time>2022-06-11T08:43:19Z</time>
      </trkpt>
      <trkpt lat="44.07917" lon="7.24189">
        <ele>1302.5</ele>
        <time>2022-06-11T08:43:20Z</time>
      </trkpt>
      <trkpt lat="44.07919" lon="7.24191">
        <ele>1302.4</ele>
        <time>2022-06-11T08:43:21Z</time>
      </trkpt>
      <trkpt lat="44.07921" lon="7.24193">
        <ele>1302.5</ele>
        <time>2022-06-11T08:43:22Z</time>
      </trkpt>
      <trkpt lat="44.07921" lon="7.24193">
        <ele>1302.5</ele>
        <time>2022-06-11T08:43:23Z</time>
      </trkpt>
      <trkpt lat="44.07925" lon="7.24195">
        <ele>1303.1</ele>
        <time>2022-06-11T08:43:24Z</time>
      </trkpt>
      <trkpt lat="44.07927" lon="7.24197">
        <ele>1303.1</ele>
        <time>2022-06-11T08:43:25Z</time>
      </trkpt>
      <trkpt lat="44.07929" lon="7.24198">
        <ele>1303.2</ele>
        <time>2022-06-11T08:43:26Z</time>
      </trkpt>
      <trkpt lat="44.07931" lon="7.242">
        <ele>1303.4</ele>
        <time>2022-06-11T08:43:27Z</time>
      </trkpt>
      <trkpt lat="44.07933" lon="7.24202">
        <ele>1303.2</ele>
        <time>2022-06-11T08:43:28Z</time>
      </trkpt>
      <trkpt lat="44.07935" lon="7.24203">
        <ele>1303.6</ele>
        <time>2022-06-11T08:43:29Z</time>
      </trkpt>
      <trkpt lat="44.07937" lon="7.24204">
        <ele>1303.9</ele>
        <time>2022-06-11T08:43:30Z</time>
      </trkpt>
      <trkpt lat="44.0794" lon="7.24203">
        <ele>1305.1</ele>
        <time>2022-06-11T08:43:31Z</time>
      </trkpt>
      <trkpt lat="44.07942" lon="7.24204">
        <ele>1305.7</ele>
        <time>2022-06-11T08:43:32Z</time>
      </trkpt>
      <trkpt lat="44.07944" lon="7.24205">
        <ele>1306.2</ele>
        <time>2022-06-11T08:43:33Z</time>
      </trkpt>
      <trkpt lat="44.07947" lon="7.24206">
        <ele>1306.5</ele>
        <time>2022-06-11T08:43:34Z</time>
      </trkpt>
      <trkpt lat="44.07949" lon="7.24207">
        <ele>1306.8</ele>
        <time>2022-06-11T08:43:35Z</time>
      </trkpt>
      <trkpt lat="44.07951" lon="7.24208">
        <ele>1306.6</ele>
        <time>2022-06-11T08:43:36Z</time>
      </trkpt>
      <trkpt lat="44.07952" lon="7.2421">
        <ele>1306.6</ele>
        <time>2022-06-11T08:43:37Z</time>
      </trkpt>
      <trkpt lat="44.07954" lon="7.24211">
        <ele>1306.7</ele>
        <time>2022-06-11T08:43:38Z</time>
      </trkpt>
      <trkpt lat="44.07957" lon="7.24212">
        <ele>1307.1</ele>
        <time>2022-06-11T08:43:39Z</time>
      </trkpt>
      <trkpt lat="44.07959" lon="7.24213">
        <ele>1307.2</ele>
        <time>2022-06-11T08:43:40Z</time>
      </trkpt>
      <trkpt lat="44.07961" lon="7.24214">
        <ele>1307.5</ele>
        <time>2022-06-11T08:43:41Z</time>
      </trkpt>
      <trkpt lat="44.07963" lon="7.24215">
        <ele>1307.7</ele>
        <time>2022-06-11T08:43:42Z</time>
      </trkpt>
      <trkpt lat="44.07963" lon="7.24215">
        <ele>1307.7</ele>
        <time>2022-06-11T08:43:43Z</time>
      </trkpt>
      <trkpt lat="44.07968" lon="7.24217">
        <ele>1308.2</ele>
        <time>2022-06-11T08:43:44Z</time>
      </trkpt>
      <trkpt lat="44.0797" lon="7.24218">
        <ele>1308.4</ele>
        <time>2022-06-11T08:43:45Z</time>
      </trkpt>
      <trkpt lat="44.07972" lon="7.24219">
        <ele>1308.8</ele>
        <time>2022-06-11T08:43:46Z</time>
      </trkpt>
      <trkpt lat="44.07974" lon="7.2422">
        <ele>1308.8</ele>
        <time>2022-06-11T08:43:47Z</time>
      </trkpt>
      <trkpt lat="44.07976" lon="7.24221">
        <ele>1308.6</ele>
        <time>2022-06-11T08:43:48Z</time>
      </trkpt>
      <trkpt lat="44.07979" lon="7.24222">
        <ele>1308.7</ele>
        <time>2022-06-11T08:43:49Z</time>
      </trkpt>
      <trkpt lat="44.07981" lon="7.24223">
        <ele>1308.8</ele>
        <time>2022-06-11T08:43:50Z</time>
      </trkpt>
      <trkpt lat="44.07983" lon="7.24224">
        <ele>1308.6</ele>
        <time>2022-06-11T08:43:51Z</time>
      </trkpt>
      <trkpt lat="44.07984" lon="7.24225">
        <ele>1308.6</ele>
        <time>2022-06-11T08:43:52Z</time>
      </trkpt>
      <trkpt lat="44.07986" lon="7.24226">
        <ele>1308.9</ele>
        <time>2022-06-11T08:43:53Z</time>
      </trkpt>
      <trkpt lat="44.07988" lon="7.24226">
        <ele>1308.9</ele>
        <time>2022-06-11T08:43:54Z</time>
      </trkpt>
      <trkpt lat="44.07988" lon="7.24226">
        <ele>1308.9</ele>
        <time>2022-06-11T08:43:55Z</time>
      </trkpt>
      <trkpt lat="44.07992" lon="7.24227">
        <ele>1309.4</ele>
        <time>2022-06-11T08:43:56Z</time>
      </trkpt>
      <trkpt lat="44.07994" lon="7.24228">
        <ele>1309.4</ele>
        <time>2022-06-11T08:43:57Z</time>
      </trkpt>
      <trkpt lat="44.07996" lon="7.24229">
        <ele>1309.6</ele>
        <time>2022-06-11T08:43:58Z</time>
      </trkpt>
      <trkpt lat="44.07996" lon="7.24229">
        <ele>1309.6</ele>
        <time>2022-06-11T08:43:59Z</time>
      </trkpt>
      <trkpt lat="44.08" lon="7.2423">
        <ele>1310</ele>
        <time>2022-06-11T08:44:00Z</time>
      </trkpt>
      <trkpt lat="44.08002" lon="7.24231">
        <ele>1309.9</ele>
        <time>2022-06-11T08:44:01Z</time>
      </trkpt>
      <trkpt lat="44.08004" lon="7.24232">
        <ele>1310</ele>
        <time>2022-06-11T08:44:02Z</time>
      </trkpt>
      <trkpt lat="44.08006" lon="7.24232">
        <ele>1309.9</ele>
        <time>2022-06-11T08:44:03Z</time>
      </trkpt>
      <trkpt lat="44.08009" lon="7.24233">
        <ele>1310.1</ele>
        <time>2022-06-11T08:44:04Z</time>
      </trkpt>
      <trkpt lat="44.08011" lon="7.24233">
        <ele>1310.2</ele>
        <time>2022-06-11T08:44:05Z</time>
      </trkpt>
      <trkpt lat="44.08011" lon="7.24233">
        <ele>1310.2</ele>
        <time>2022-06-11T08:44:06Z</time>
      </trkpt>
      <trkpt lat="44.08011" lon="7.24233">
        <ele>1310.2</ele>
        <time>2022-06-11T08:44:07Z</time>
      </trkpt>
      <trkpt lat="44.08018" lon="7.24232">
        <ele>1312</ele>
        <time>2022-06-11T08:44:08Z</time>
      </trkpt>
      <trkpt lat="44.08018" lon="7.24232">
        <ele>1312</ele>
        <time>2022-06-11T08:44:09Z</time>
      </trkpt>
      <trkpt lat="44.08018" lon="7.24232">
        <ele>1312</ele>
        <time>2022-06-11T08:44:10Z</time>
      </trkpt>
      <trkpt lat="44.08026" lon="7.24231">
        <ele>1314</ele>
        <time>2022-06-11T08:44:11Z</time>
      </trkpt>
      <trkpt lat="44.08029" lon="7.24231">
        <ele>1314.6</ele>
        <time>2022-06-11T08:44:12Z</time>
      </trkpt>
      <trkpt lat="44.08031" lon="7.24231">
        <ele>1314.8</ele>
        <time>2022-06-11T08:44:13Z</time>
      </trkpt>
      <trkpt lat="44.08033" lon="7.24231">
        <ele>1315</ele>
        <time>2022-06-11T08:44:14Z</time>
      </trkpt>
      <trkpt lat="44.08033" lon="7.24231">
        <ele>1315</ele>
        <time>2022-06-11T08:44:15Z</time>
      </trkpt>
      <trkpt lat="44.08039" lon="7.24231">
        <ele>1315.6</ele>
        <time>2022-06-11T08:44:16Z</time>
      </trkpt>
      <trkpt lat="44.08041" lon="7.24232">
        <ele>1315.7</ele>
        <time>2022-06-11T08:44:17Z</time>
      </trkpt>
      <trkpt lat="44.08043" lon="7.24232">
        <ele>1316</ele>
        <time>2022-06-11T08:44:18Z</time>
      </trkpt>
      <trkpt lat="44.08045" lon="7.24232">
        <ele>1316</ele>
        <time>2022-06-11T08:44:19Z</time>
      </trkpt>
      <trkpt lat="44.08048" lon="7.24232">
        <ele>1316.3</ele>
        <time>2022-06-11T08:44:20Z</time>
      </trkpt>
      <trkpt lat="44.0805" lon="7.24232">
        <ele>1316.5</ele>
        <time>2022-06-11T08:44:21Z</time>
      </trkpt>
      <trkpt lat="44.08052" lon="7.24233">
        <ele>1316.5</ele>
        <time>2022-06-11T08:44:22Z</time>
      </trkpt>
      <trkpt lat="44.08055" lon="7.24233">
        <ele>1316.6</ele>
        <time>2022-06-11T08:44:23Z</time>
      </trkpt>
      <trkpt lat="44.08057" lon="7.24234">
        <ele>1316.7</ele>
        <time>2022-06-11T08:44:24Z</time>
      </trkpt>
      <trkpt lat="44.08059" lon="7.24235">
        <ele>1316.4</ele>
        <time>2022-06-11T08:44:25Z</time>
      </trkpt>
      <trkpt lat="44.08061" lon="7.24236">
        <ele>1316.3</ele>
        <time>2022-06-11T08:44:26Z</time>
      </trkpt>
      <trkpt lat="44.08064" lon="7.24236">
        <ele>1316.6</ele>
        <time>2022-06-11T08:44:27Z</time>
      </trkpt>
      <trkpt lat="44.08066" lon="7.24236">
        <ele>1316.7</ele>
        <time>2022-06-11T08:44:28Z</time>
      </trkpt>
      <trkpt lat="44.08066" lon="7.24236">
        <ele>1316.7</ele>
        <time>2022-06-11T08:44:29Z</time>
      </trkpt>
      <trkpt lat="44.08071" lon="7.24239">
        <ele>1316</ele>
        <time>2022-06-11T08:44:30Z</time>
      </trkpt>
      <trkpt lat="44.08073" lon="7.24239">
        <ele>1316.2</ele>
        <time>2022-06-11T08:44:31Z</time>
      </trkpt>
      <trkpt lat="44.08075" lon="7.24239">
        <ele>1316.4</ele>
        <time>2022-06-11T08:44:32Z</time>
      </trkpt>
      <trkpt lat="44.08077" lon="7.2424">
        <ele>1316.4</ele>
        <time>2022-06-11T08:44:33Z</time>
      </trkpt>
      <trkpt lat="44.0808" lon="7.24241">
        <ele>1316</ele>
        <time>2022-06-11T08:44:34Z</time>
      </trkpt>
      <trkpt lat="44.08082" lon="7.24243">
        <ele>1315.3</ele>
        <time>2022-06-11T08:44:35Z</time>
      </trkpt>
      <trkpt lat="44.08084" lon="7.24244">
        <ele>1314.6</ele>
        <time>2022-06-11T08:44:36Z</time>
      </trkpt>
      <trkpt lat="44.08086" lon="7.24246">
        <ele>1314.1</ele>
        <time>2022-06-11T08:44:37Z</time>
      </trkpt>
      <trkpt lat="44.08088" lon="7.24247">
        <ele>1313.9</ele>
        <time>2022-06-11T08:44:38Z</time>
      </trkpt>
      <trkpt lat="44.0809" lon="7.24248">
        <ele>1314</ele>
        <time>2022-06-11T08:44:39Z</time>
      </trkpt>
      <trkpt lat="44.08092" lon="7.24248">
        <ele>1314.2</ele>
        <time>2022-06-11T08:44:40Z</time>
      </trkpt>
      <trkpt lat="44.08094" lon="7.24249">
        <ele>1314.6</ele>
        <time>2022-06-11T08:44:41Z</time>
      </trkpt>
      <trkpt lat="44.08097" lon="7.24249">
        <ele>1314.9</ele>
        <time>2022-06-11T08:44:42Z</time>
      </trkpt>
      <trkpt lat="44.08099" lon="7.24249">
        <ele>1315.3</ele>
        <time>2022-06-11T08:44:43Z</time>
      </trkpt>
      <trkpt lat="44.08101" lon="7.24249">
        <ele>1315.8</ele>
        <time>2022-06-11T08:44:44Z</time>
      </trkpt>
      <trkpt lat="44.08103" lon="7.24249">
        <ele>1316.6</ele>
        <time>2022-06-11T08:44:45Z</time>
      </trkpt>
      <trkpt lat="44.08105" lon="7.24249">
        <ele>1317.5</ele>
        <time>2022-06-11T08:44:46Z</time>
      </trkpt>
      <trkpt lat="44.08108" lon="7.24248">
        <ele>1318.3</ele>
        <time>2022-06-11T08:44:47Z</time>
      </trkpt>
      <trkpt lat="44.0811" lon="7.24248">
        <ele>1319.1</ele>
        <time>2022-06-11T08:44:48Z</time>
      </trkpt>
      <trkpt lat="44.08112" lon="7.24247">
        <ele>1319.9</ele>
        <time>2022-06-11T08:44:49Z</time>
      </trkpt>
      <trkpt lat="44.08114" lon="7.24247">
        <ele>1320.3</ele>
        <time>2022-06-11T08:44:50Z</time>
      </trkpt>
      <trkpt lat="44.08116" lon="7.24247">
        <ele>1320.8</ele>
        <time>2022-06-11T08:44:51Z</time>
      </trkpt>
      <trkpt lat="44.08116" lon="7.24247">
        <ele>1320.8</ele>
        <time>2022-06-11T08:44:52Z</time>
      </trkpt>
      <trkpt lat="44.0812" lon="7.24247">
        <ele>1321.7</ele>
        <time>2022-06-11T08:44:53Z</time>
      </trkpt>
      <trkpt lat="44.08122" lon="7.24247">
        <ele>1322.1</ele>
        <time>2022-06-11T08:44:54Z</time>
      </trkpt>
      <trkpt lat="44.08124" lon="7.24247">
        <ele>1322.5</ele>
        <time>2022-06-11T08:44:55Z</time>
      </trkpt>
      <trkpt lat="44.08127" lon="7.24247">
        <ele>1323.1</ele>
        <time>2022-06-11T08:44:56Z</time>
      </trkpt>
      <trkpt lat="44.08129" lon="7.24248">
        <ele>1323.3</ele>
        <time>2022-06-11T08:44:57Z</time>
      </trkpt>
      <trkpt lat="44.08129" lon="7.24248">
        <ele>1323.3</ele>
        <time>2022-06-11T08:44:58Z</time>
      </trkpt>
      <trkpt lat="44.08134" lon="7.24248">
        <ele>1324.4</ele>
        <time>2022-06-11T08:44:59Z</time>
      </trkpt>
      <trkpt lat="44.08136" lon="7.24248">
        <ele>1324.8</ele>
        <time>2022-06-11T08:45:00Z</time>
      </trkpt>
      <trkpt lat="44.08136" lon="7.24248">
        <ele>1324.8</ele>
        <time>2022-06-11T08:45:01Z</time>
      </trkpt>
      <trkpt lat="44.08141" lon="7.24247">
        <ele>1326</ele>
        <time>2022-06-11T08:45:02Z</time>
      </trkpt>
      <trkpt lat="44.08143" lon="7.24247">
        <ele>1326.1</ele>
        <time>2022-06-11T08:45:03Z</time>
      </trkpt>
      <trkpt lat="44.08145" lon="7.24248">
        <ele>1326.1</ele>
        <time>2022-06-11T08:45:04Z</time>
      </trkpt>
      <trkpt lat="44.08147" lon="7.24248">
        <ele>1326.1</ele>
        <time>2022-06-11T08:45:05Z</time>
      </trkpt>
      <trkpt lat="44.08149" lon="7.24249">
        <ele>1326</ele>
        <time>2022-06-11T08:45:06Z</time>
      </trkpt>
      <trkpt lat="44.08151" lon="7.24249">
        <ele>1325.9</ele>
        <time>2022-06-11T08:45:07Z</time>
      </trkpt>
      <trkpt lat="44.08151" lon="7.24249">
        <ele>1325.9</ele>
        <time>2022-06-11T08:45:08Z</time>
      </trkpt>
      <trkpt lat="44.08156" lon="7.24249">
        <ele>1326.6</ele>
        <time>2022-06-11T08:45:09Z</time>
      </trkpt>
      <trkpt lat="44.08159" lon="7.24249">
        <ele>1326.7</ele>
        <time>2022-06-11T08:45:10Z</time>
      </trkpt>
      <trkpt lat="44.08161" lon="7.24249">
        <ele>1326.8</ele>
        <time>2022-06-11T08:45:11Z</time>
      </trkpt>
      <trkpt lat="44.08163" lon="7.24249">
        <ele>1327.2</ele>
        <time>2022-06-11T08:45:12Z</time>
      </trkpt>
      <trkpt lat="44.08163" lon="7.24249">
        <ele>1327.2</ele>
        <time>2022-06-11T08:45:13Z</time>
      </trkpt>
      <trkpt lat="44.08167" lon="7.24249">
        <ele>1327.9</ele>
        <time>2022-06-11T08:45:14Z</time>
      </trkpt>
      <trkpt lat="44.0817" lon="7.24249">
        <ele>1327.7</ele>
        <time>2022-06-11T08:45:15Z</time>
      </trkpt>
      <trkpt lat="44.08172" lon="7.24249">
        <ele>1327.6</ele>
        <time>2022-06-11T08:45:16Z</time>
      </trkpt>
      <trkpt lat="44.08174" lon="7.24249">
        <ele>1327.5</ele>
        <time>2022-06-11T08:45:17Z</time>
      </trkpt>
      <trkpt lat="44.08176" lon="7.2425">
        <ele>1327.2</ele>
        <time>2022-06-11T08:45:18Z</time>
      </trkpt>
      <trkpt lat="44.08178" lon="7.2425">
        <ele>1327</ele>
        <time>2022-06-11T08:45:19Z</time>
      </trkpt>
      <trkpt lat="44.08181" lon="7.2425">
        <ele>1327</ele>
        <time>2022-06-11T08:45:20Z</time>
      </trkpt>
      <trkpt lat="44.08183" lon="7.2425">
        <ele>1326.9</ele>
        <time>2022-06-11T08:45:21Z</time>
      </trkpt>
      <trkpt lat="44.08185" lon="7.2425">
        <ele>1326.9</ele>
        <time>2022-06-11T08:45:22Z</time>
      </trkpt>
      <trkpt lat="44.08187" lon="7.2425">
        <ele>1326.9</ele>
        <time>2022-06-11T08:45:23Z</time>
      </trkpt>
      <trkpt lat="44.08189" lon="7.2425">
        <ele>1327.1</ele>
        <time>2022-06-11T08:45:24Z</time>
      </trkpt>
      <trkpt lat="44.08191" lon="7.24249">
        <ele>1327.4</ele>
        <time>2022-06-11T08:45:25Z</time>
      </trkpt>
      <trkpt lat="44.08193" lon="7.24249">
        <ele>1327.5</ele>
        <time>2022-06-11T08:45:26Z</time>
      </trkpt>
      <trkpt lat="44.08196" lon="7.24249">
        <ele>1327.7</ele>
        <time>2022-06-11T08:45:27Z</time>
      </trkpt>
      <trkpt lat="44.08198" lon="7.24248">
        <ele>1328.1</ele>
        <time>2022-06-11T08:45:28Z</time>
      </trkpt>
      <trkpt lat="44.082" lon="7.24246">
        <ele>1328.5</ele>
        <time>2022-06-11T08:45:29Z</time>
      </trkpt>
      <trkpt lat="44.08203" lon="7.24246">
        <ele>1328.6</ele>
        <time>2022-06-11T08:45:30Z</time>
      </trkpt>
      <trkpt lat="44.08205" lon="7.24245">
        <ele>1328.5</ele>
        <time>2022-06-11T08:45:31Z</time>
      </trkpt>
      <trkpt lat="44.08207" lon="7.24245">
        <ele>1328.5</ele>
        <time>2022-06-11T08:45:32Z</time>
      </trkpt>
      <trkpt lat="44.0821" lon="7.24244">
        <ele>1329</ele>
        <time>2022-06-11T08:45:33Z</time>
      </trkpt>
      <trkpt lat="44.08212" lon="7.24242">
        <ele>1329.6</ele>
        <time>2022-06-11T08:45:34Z</time>
      </trkpt>
      <trkpt lat="44.08214" lon="7.24241">
        <ele>1330</ele>
        <time>2022-06-11T08:45:35Z</time>
      </trkpt>
      <trkpt lat="44.08216" lon="7.2424">
        <ele>1330.4</ele>
        <time>2022-06-11T08:45:36Z</time>
      </trkpt>
      <trkpt lat="44.08218" lon="7.24239">
        <ele>1330.8</ele>
        <time>2022-06-11T08:45:37Z</time>
      </trkpt>
      <trkpt lat="44.0822" lon="7.24238">
        <ele>1331</ele>
        <time>2022-06-11T08:45:38Z</time>
      </trkpt>
      <trkpt lat="44.08222" lon="7.24236">
        <ele>1331.8</ele>
        <time>2022-06-11T08:45:39Z</time>
      </trkpt>
      <trkpt lat="44.08224" lon="7.24235">
        <ele>1332</ele>
        <time>2022-06-11T08:45:40Z</time>
      </trkpt>
      <trkpt lat="44.08226" lon="7.24234">
        <ele>1331.9</ele>
        <time>2022-06-11T08:45:41Z</time>
      </trkpt>
      <trkpt lat="44.08228" lon="7.24232">
        <ele>1332.3</ele>
        <time>2022-06-11T08:45:42Z</time>
      </trkpt>
      <trkpt lat="44.0823" lon="7.24231">
        <ele>1332.5</ele>
        <time>2022-06-11T08:45:43Z</time>
      </trkpt>
      <trkpt lat="44.08232" lon="7.2423">
        <ele>1332.7</ele>
        <time>2022-06-11T08:45:44Z</time>
      </trkpt>
      <trkpt lat="44.08234" lon="7.24229">
        <ele>1332.7</ele>
        <time>2022-06-11T08:45:45Z</time>
      </trkpt>
      <trkpt lat="44.08234" lon="7.24229">
        <ele>1332.7</ele>
        <time>2022-06-11T08:45:46Z</time>
      </trkpt>
      <trkpt lat="44.08238" lon="7.24226">
        <ele>1333.1</ele>
        <time>2022-06-11T08:45:47Z</time>
      </trkpt>
      <trkpt lat="44.0824" lon="7.24224">
        <ele>1333.5</ele>
        <time>2022-06-11T08:45:48Z</time>
      </trkpt>
      <trkpt lat="44.08242" lon="7.24223">
        <ele>1334</ele>
        <time>2022-06-11T08:45:49Z</time>
      </trkpt>
      <trkpt lat="44.08244" lon="7.24221">
        <ele>1334.3</ele>
        <time>2022-06-11T08:45:50Z</time>
      </trkpt>
      <trkpt lat="44.08246" lon="7.2422">
        <ele>1334.4</ele>
        <time>2022-06-11T08:45:51Z</time>
      </trkpt>
      <trkpt lat="44.08248" lon="7.24218">
        <ele>1334.5</ele>
        <time>2022-06-11T08:45:52Z</time>
      </trkpt>
      <trkpt lat="44.08248" lon="7.24218">
        <ele>1334.5</ele>
        <time>2022-06-11T08:45:53Z</time>
      </trkpt>
      <trkpt lat="44.08248" lon="7.24218">
        <ele>1334.5</ele>
        <time>2022-06-11T08:45:54Z</time>
      </trkpt>
      <trkpt lat="44.08254" lon="7.24216">
        <ele>1333.8</ele>
        <time>2022-06-11T08:45:55Z</time>
      </trkpt>
      <trkpt lat="44.08256" lon="7.24214">
        <ele>1333.7</ele>
        <time>2022-06-11T08:45:56Z</time>
      </trkpt>
      <trkpt lat="44.08258" lon="7.24213">
        <ele>1333.8</ele>
        <time>2022-06-11T08:45:57Z</time>
      </trkpt>
      <trkpt lat="44.08261" lon="7.24212">
        <ele>1333.6</ele>
        <time>2022-06-11T08:45:58Z</time>
      </trkpt>
      <trkpt lat="44.08263" lon="7.2421">
        <ele>1333.5</ele>
        <time>2022-06-11T08:45:59Z</time>
      </trkpt>
      <trkpt lat="44.08265" lon="7.24209">
        <ele>1333.4</ele>
        <time>2022-06-11T08:46:00Z</time>
      </trkpt>
      <trkpt lat="44.08267" lon="7.24208">
        <ele>1333.3</ele>
        <time>2022-06-11T08:46:01Z</time>
      </trkpt>
      <trkpt lat="44.08267" lon="7.24208">
        <ele>1333.3</ele>
        <time>2022-06-11T08:46:02Z</time>
      </trkpt>
      <trkpt lat="44.08267" lon="7.24208">
        <ele>1333.3</ele>
        <time>2022-06-11T08:46:03Z</time>
      </trkpt>
      <trkpt lat="44.08274" lon="7.24204">
        <ele>1332.7</ele>
        <time>2022-06-11T08:46:04Z</time>
      </trkpt>
      <trkpt lat="44.08276" lon="7.24203">
        <ele>1332.6</ele>
        <time>2022-06-11T08:46:05Z</time>
      </trkpt>
      <trkpt lat="44.08278" lon="7.24202">
        <ele>1332.6</ele>
        <time>2022-06-11T08:46:06Z</time>
      </trkpt>
      <trkpt lat="44.0828" lon="7.242">
        <ele>1333</ele>
        <time>2022-06-11T08:46:07Z</time>
      </trkpt>
      <trkpt lat="44.08282" lon="7.24198">
        <ele>1333.5</ele>
        <time>2022-06-11T08:46:08Z</time>
      </trkpt>
      <trkpt lat="44.08283" lon="7.24195">
        <ele>1334.2</ele>
        <time>2022-06-11T08:46:09Z</time>
      </trkpt>
      <trkpt lat="44.08283" lon="7.24195">
        <ele>1334.2</ele>
        <time>2022-06-11T08:46:10Z</time>
      </trkpt>
      <trkpt lat="44.08285" lon="7.24189">
        <ele>1336.2</ele>
        <time>2022-06-11T08:46:11Z</time>
      </trkpt>
      <trkpt lat="44.08286" lon="7.24186">
        <ele>1337.5</ele>
        <time>2022-06-11T08:46:12Z</time>
      </trkpt>
      <trkpt lat="44.08286" lon="7.24182">
        <ele>1338.9</ele>
        <time>2022-06-11T08:46:13Z</time>
      </trkpt>
      <trkpt lat="44.08285" lon="7.24179">
        <ele>1340.3</ele>
        <time>2022-06-11T08:46:14Z</time>
      </trkpt>
      <trkpt lat="44.08283" lon="7.24177">
        <ele>1341.7</ele>
        <time>2022-06-11T08:46:15Z</time>
      </trkpt>
      <trkpt lat="44.08281" lon="7.24175">
        <ele>1343</ele>
        <time>2022-06-11T08:46:16Z</time>
      </trkpt>
      <trkpt lat="44.08279" lon="7.24173">
        <ele>1344.2</ele>
        <time>2022-06-11T08:46:17Z</time>
      </trkpt>
      <trkpt lat="44.08277" lon="7.24173">
        <ele>1345.1</ele>
        <time>2022-06-11T08:46:18Z</time>
      </trkpt>
      <trkpt lat="44.08274" lon="7.24173">
        <ele>1345.9</ele>
        <time>2022-06-11T08:46:19Z</time>
      </trkpt>
      <trkpt lat="44.08272" lon="7.24173">
        <ele>1346.7</ele>
        <time>2022-06-11T08:46:20Z</time>
      </trkpt>
      <trkpt lat="44.08269" lon="7.24174">
        <ele>1347.3</ele>
        <time>2022-06-11T08:46:21Z</time>
      </trkpt>
      <trkpt lat="44.08267" lon="7.24175">
        <ele>1347.3</ele>
        <time>2022-06-11T08:46:22Z</time>
      </trkpt>
      <trkpt lat="44.08266" lon="7.24178">
        <ele>1346.9</ele>
        <time>2022-06-11T08:46:23Z</time>
      </trkpt>
      <trkpt lat="44.08264" lon="7.2418">
        <ele>1346.6</ele>
        <time>2022-06-11T08:46:24Z</time>
      </trkpt>
      <trkpt lat="44.08262" lon="7.24182">
        <ele>1346.4</ele>
        <time>2022-06-11T08:46:25Z</time>
      </trkpt>
      <trkpt lat="44.0826" lon="7.24184">
        <ele>1346.3</ele>
        <time>2022-06-11T08:46:26Z</time>
      </trkpt>
      <trkpt lat="44.08258" lon="7.24185">
        <ele>1346.5</ele>
        <time>2022-06-11T08:46:27Z</time>
      </trkpt>
      <trkpt lat="44.08256" lon="7.24186">
        <ele>1346.7</ele>
        <time>2022-06-11T08:46:28Z</time>
      </trkpt>
      <trkpt lat="44.08254" lon="7.24188">
        <ele>1346.6</ele>
        <time>2022-06-11T08:46:29Z</time>
      </trkpt>
      <trkpt lat="44.08252" lon="7.24189">
        <ele>1346.5</ele>
        <time>2022-06-11T08:46:30Z</time>
      </trkpt>
      <trkpt lat="44.0825" lon="7.24191">
        <ele>1346.5</ele>
        <time>2022-06-11T08:46:31Z</time>
      </trkpt>
      <trkpt lat="44.08248" lon="7.24192">
        <ele>1346.5</ele>
        <time>2022-06-11T08:46:32Z</time>
      </trkpt>
      <trkpt lat="44.08246" lon="7.24194">
        <ele>1346.5</ele>
        <time>2022-06-11T08:46:33Z</time>
      </trkpt>
      <trkpt lat="44.08244" lon="7.24196">
        <ele>1346.3</ele>
        <time>2022-06-11T08:46:34Z</time>
      </trkpt>
      <trkpt lat="44.08242" lon="7.24198">
        <ele>1346.1</ele>
        <time>2022-06-11T08:46:35Z</time>
      </trkpt>
      <trkpt lat="44.0824" lon="7.24199">
        <ele>1346.2</ele>
        <time>2022-06-11T08:46:36Z</time>
      </trkpt>
      <trkpt lat="44.08238" lon="7.24201">
        <ele>1345.8</ele>
        <time>2022-06-11T08:46:37Z</time>
      </trkpt>
      <trkpt lat="44.08236" lon="7.24202">
        <ele>1345.6</ele>
        <time>2022-06-11T08:46:38Z</time>
      </trkpt>
      <trkpt lat="44.08234" lon="7.24204">
        <ele>1345.6</ele>
        <time>2022-06-11T08:46:39Z</time>
      </trkpt>
      <trkpt lat="44.08231" lon="7.24205">
        <ele>1345.6</ele>
        <time>2022-06-11T08:46:40Z</time>
      </trkpt>
      <trkpt lat="44.08229" lon="7.24207">
        <ele>1345.5</ele>
        <time>2022-06-11T08:46:41Z</time>
      </trkpt>
      <trkpt lat="44.08227" lon="7.24208">
        <ele>1345.7</ele>
        <time>2022-06-11T08:46:42Z</time>
      </trkpt>
      <trkpt lat="44.08224" lon="7.24209">
        <ele>1345.5</ele>
        <time>2022-06-11T08:46:43Z</time>
      </trkpt>
      <trkpt lat="44.08222" lon="7.2421">
        <ele>1345.7</ele>
        <time>2022-06-11T08:46:44Z</time>
      </trkpt>
      <trkpt lat="44.08219" lon="7.24211">
        <ele>1345.5</ele>
        <time>2022-06-11T08:46:45Z</time>
      </trkpt>
      <trkpt lat="44.08217" lon="7.24212">
        <ele>1345.5</ele>
        <time>2022-06-11T08:46:46Z</time>
      </trkpt>
      <trkpt lat="44.08214" lon="7.24212">
        <ele>1345.5</ele>
        <time>2022-06-11T08:46:47Z</time>
      </trkpt>
      <trkpt lat="44.08212" lon="7.24213">
        <ele>1345.4</ele>
        <time>2022-06-11T08:46:48Z</time>
      </trkpt>
      <trkpt lat="44.08212" lon="7.24213">
        <ele>1345.4</ele>
        <time>2022-06-11T08:46:49Z</time>
      </trkpt>
      <trkpt lat="44.08207" lon="7.24215">
        <ele>1345.3</ele>
        <time>2022-06-11T08:46:50Z</time>
      </trkpt>
      <trkpt lat="44.08205" lon="7.24216">
        <ele>1345</ele>
        <time>2022-06-11T08:46:51Z</time>
      </trkpt>
      <trkpt lat="44.08202" lon="7.24217">
        <ele>1344.7</ele>
        <time>2022-06-11T08:46:52Z</time>
      </trkpt>
      <trkpt lat="44.082" lon="7.24218">
        <ele>1344.7</ele>
        <time>2022-06-11T08:46:53Z</time>
      </trkpt>
      <trkpt lat="44.082" lon="7.24218">
        <ele>1344.7</ele>
        <time>2022-06-11T08:46:54Z</time>
      </trkpt>
      <trkpt lat="44.08195" lon="7.24219">
        <ele>1344.6</ele>
        <time>2022-06-11T08:46:55Z</time>
      </trkpt>
      <trkpt lat="44.08193" lon="7.2422">
        <ele>1344.5</ele>
        <time>2022-06-11T08:46:56Z</time>
      </trkpt>
      <trkpt lat="44.08191" lon="7.2422">
        <ele>1344.2</ele>
        <time>2022-06-11T08:46:57Z</time>
      </trkpt>
      <trkpt lat="44.08188" lon="7.24221">
        <ele>1343.9</ele>
        <time>2022-06-11T08:46:58Z</time>
      </trkpt>
      <trkpt lat="44.08188" lon="7.24221">
        <ele>1343.9</ele>
        <time>2022-06-11T08:46:59Z</time>
      </trkpt>
      <trkpt lat="44.08188" lon="7.24221">
        <ele>1343.9</ele>
        <time>2022-06-11T08:47:00Z</time>
      </trkpt>
      <trkpt lat="44.0818" lon="7.24219">
        <ele>1344.9</ele>
        <time>2022-06-11T08:47:01Z</time>
      </trkpt>
      <trkpt lat="44.08178" lon="7.24218">
        <ele>1345.4</ele>
        <time>2022-06-11T08:47:02Z</time>
      </trkpt>
      <trkpt lat="44.08178" lon="7.24218">
        <ele>1345.4</ele>
        <time>2022-06-11T08:47:03Z</time>
      </trkpt>
      <trkpt lat="44.08173" lon="7.24216">
        <ele>1346.5</ele>
        <time>2022-06-11T08:47:04Z</time>
      </trkpt>
      <trkpt lat="44.0817" lon="7.24215">
        <ele>1347.1</ele>
        <time>2022-06-11T08:47:05Z</time>
      </trkpt>
      <trkpt lat="44.08168" lon="7.24214">
        <ele>1347.7</ele>
        <time>2022-06-11T08:47:06Z</time>
      </trkpt>
      <trkpt lat="44.08165" lon="7.24213">
        <ele>1348.2</ele>
        <time>2022-06-11T08:47:07Z</time>
      </trkpt>
      <trkpt lat="44.08163" lon="7.24212">
        <ele>1348.5</ele>
        <time>2022-06-11T08:47:08Z</time>
      </trkpt>
      <trkpt lat="44.08161" lon="7.24211">
        <ele>1348.6</ele>
        <time>2022-06-11T08:47:09Z</time>
      </trkpt>
      <trkpt lat="44.08158" lon="7.2421">
        <ele>1349</ele>
        <time>2022-06-11T08:47:10Z</time>
      </trkpt>
      <trkpt lat="44.08156" lon="7.24209">
        <ele>1349.6</ele>
        <time>2022-06-11T08:47:11Z</time>
      </trkpt>
      <trkpt lat="44.08154" lon="7.24208">
        <ele>1350</ele>
        <time>2022-06-11T08:47:12Z</time>
      </trkpt>
      <trkpt lat="44.08152" lon="7.24207">
        <ele>1350.2</ele>
        <time>2022-06-11T08:47:13Z</time>
      </trkpt>
      <trkpt lat="44.08149" lon="7.24206">
        <ele>1350.3</ele>
        <time>2022-06-11T08:47:14Z</time>
      </trkpt>
      <trkpt lat="44.08147" lon="7.24206">
        <ele>1350.4</ele>
        <time>2022-06-11T08:47:15Z</time>
      </trkpt>
      <trkpt lat="44.08144" lon="7.24205">
        <ele>1350.5</ele>
        <time>2022-06-11T08:47:16Z</time>
      </trkpt>
      <trkpt lat="44.08142" lon="7.24205">
        <ele>1350.5</ele>
        <time>2022-06-11T08:47:17Z</time>
      </trkpt>
      <trkpt lat="44.0814" lon="7.24205">
        <ele>1350.3</ele>
        <time>2022-06-11T08:47:18Z</time>
      </trkpt>
      <trkpt lat="44.08137" lon="7.24204">
        <ele>1350.2</ele>
        <time>2022-06-11T08:47:19Z</time>
      </trkpt>
      <trkpt lat="44.08135" lon="7.24204">
        <ele>1349.9</ele>
        <time>2022-06-11T08:47:20Z</time>
      </trkpt>
      <trkpt lat="44.08132" lon="7.24204">
        <ele>1349.4</ele>
        <time>2022-06-11T08:47:21Z</time>
      </trkpt>
      <trkpt lat="44.0813" lon="7.24204">
        <ele>1348.9</ele>
        <time>2022-06-11T08:47:22Z</time>
      </trkpt>
      <trkpt lat="44.08128" lon="7.24204">
        <ele>1348.7</ele>
        <time>2022-06-11T08:47:23Z</time>
      </trkpt>
      <trkpt lat="44.08125" lon="7.24205">
        <ele>1347.9</ele>
        <time>2022-06-11T08:47:24Z</time>
      </trkpt>
      <trkpt lat="44.08122" lon="7.24205">
        <ele>1347.2</ele>
        <time>2022-06-11T08:47:25Z</time>
      </trkpt>
      <trkpt lat="44.0812" lon="7.24205">
        <ele>1346.9</ele>
        <time>2022-06-11T08:47:26Z</time>
      </trkpt>
      <trkpt lat="44.08118" lon="7.24205">
        <ele>1346.5</ele>
        <time>2022-06-11T08:47:27Z</time>
      </trkpt>
      <trkpt lat="44.08115" lon="7.24205">
        <ele>1346.1</ele>
        <time>2022-06-11T08:47:28Z</time>
      </trkpt>
      <trkpt lat="44.08112" lon="7.24205">
        <ele>1345.8</ele>
        <time>2022-06-11T08:47:29Z</time>
      </trkpt>
      <trkpt lat="44.0811" lon="7.24205">
        <ele>1345.3</ele>
        <time>2022-06-11T08:47:30Z</time>
      </trkpt>
      <trkpt lat="44.08107" lon="7.24204">
        <ele>1345.2</ele>
        <time>2022-06-11T08:47:31Z</time>
      </trkpt>
      <trkpt lat="44.08105" lon="7.24203">
        <ele>1345.5</ele>
        <time>2022-06-11T08:47:32Z</time>
      </trkpt>
      <trkpt lat="44.08102" lon="7.24202">
        <ele>1345.7</ele>
        <time>2022-06-11T08:47:33Z</time>
      </trkpt>
      <trkpt lat="44.081" lon="7.242">
        <ele>1346.2</ele>
        <time>2022-06-11T08:47:34Z</time>
      </trkpt>
      <trkpt lat="44.08098" lon="7.24199">
        <ele>1346.3</ele>
        <time>2022-06-11T08:47:35Z</time>
      </trkpt>
      <trkpt lat="44.08096" lon="7.24198">
        <ele>1346.6</ele>
        <time>2022-06-11T08:47:36Z</time>
      </trkpt>
      <trkpt lat="44.08093" lon="7.24196">
        <ele>1347</ele>
        <time>2022-06-11T08:47:37Z</time>
      </trkpt>
      <trkpt lat="44.08091" lon="7.24195">
        <ele>1347.5</ele>
        <time>2022-06-11T08:47:38Z</time>
      </trkpt>
      <trkpt lat="44.08089" lon="7.24193">
        <ele>1348</ele>
        <time>2022-06-11T08:47:39Z</time>
      </trkpt>
      <trkpt lat="44.08089" lon="7.24193">
        <ele>1348</ele>
        <time>2022-06-11T08:47:40Z</time>
      </trkpt>
      <trkpt lat="44.08085" lon="7.24191">
        <ele>1348.7</ele>
        <time>2022-06-11T08:47:41Z</time>
      </trkpt>
      <trkpt lat="44.08083" lon="7.2419">
        <ele>1349.2</ele>
        <time>2022-06-11T08:47:42Z</time>
      </trkpt>
      <trkpt lat="44.08081" lon="7.24188">
        <ele>1349.7</ele>
        <time>2022-06-11T08:47:43Z</time>
      </trkpt>
      <trkpt lat="44.08079" lon="7.24187">
        <ele>1350.1</ele>
        <time>2022-06-11T08:47:44Z</time>
      </trkpt>
      <trkpt lat="44.08076" lon="7.24186">
        <ele>1350.4</ele>
        <time>2022-06-11T08:47:45Z</time>
      </trkpt>
      <trkpt lat="44.08074" lon="7.24185">
        <ele>1350.4</ele>
        <time>2022-06-11T08:47:46Z</time>
      </trkpt>
      <trkpt lat="44.08072" lon="7.24184">
        <ele>1350.5</ele>
        <time>2022-06-11T08:47:47Z</time>
      </trkpt>
      <trkpt lat="44.08069" lon="7.24182">
        <ele>1351.3</ele>
        <time>2022-06-11T08:47:48Z</time>
      </trkpt>
      <trkpt lat="44.08067" lon="7.24181">
        <ele>1352</ele>
        <time>2022-06-11T08:47:49Z</time>
      </trkpt>
      <trkpt lat="44.08065" lon="7.2418">
        <ele>1352.2</ele>
        <time>2022-06-11T08:47:50Z</time>
      </trkpt>
      <trkpt lat="44.08063" lon="7.24179">
        <ele>1352.1</ele>
        <time>2022-06-11T08:47:51Z</time>
      </trkpt>
      <trkpt lat="44.08061" lon="7.24178">
        <ele>1352.4</ele>
        <time>2022-06-11T08:47:52Z</time>
      </trkpt>
      <trkpt lat="44.08059" lon="7.24177">
        <ele>1352.6</ele>
        <time>2022-06-11T08:47:53Z</time>
      </trkpt>
      <trkpt lat="44.08056" lon="7.24176">
        <ele>1352.7</ele>
        <time>2022-06-11T08:47:54Z</time>
      </trkpt>
      <trkpt lat="44.08054" lon="7.24176">
        <ele>1352.7</ele>
        <time>2022-06-11T08:47:55Z</time>
      </trkpt>
      <trkpt lat="44.08052" lon="7.24175">
        <ele>1353</ele>
        <time>2022-06-11T08:47:56Z</time>
      </trkpt>
      <trkpt lat="44.0805" lon="7.24174">
        <ele>1353.3</ele>
        <time>2022-06-11T08:47:57Z</time>
      </trkpt>
      <trkpt lat="44.08048" lon="7.24172">
        <ele>1353.9</ele>
        <time>2022-06-11T08:47:58Z</time>
      </trkpt>
      <trkpt lat="44.08046" lon="7.24171">
        <ele>1354.4</ele>
        <time>2022-06-11T08:47:59Z</time>
      </trkpt>
      <trkpt lat="44.08043" lon="7.24169">
        <ele>1355.2</ele>
        <time>2022-06-11T08:48:00Z</time>
      </trkpt>
      <trkpt lat="44.08043" lon="7.24169">
        <ele>1355.2</ele>
        <time>2022-06-11T08:48:01Z</time>
      </trkpt>
      <trkpt lat="44.08039" lon="7.24168">
        <ele>1355.2</ele>
        <time>2022-06-11T08:48:02Z</time>
      </trkpt>
      <trkpt lat="44.08037" lon="7.24167">
        <ele>1355.4</ele>
        <time>2022-06-11T08:48:03Z</time>
      </trkpt>
      <trkpt lat="44.08037" lon="7.24167">
        <ele>1355.4</ele>
        <time>2022-06-11T08:48:04Z</time>
      </trkpt>
      <trkpt lat="44.08032" lon="7.24164">
        <ele>1356.5</ele>
        <time>2022-06-11T08:48:05Z</time>
      </trkpt>
      <trkpt lat="44.0803" lon="7.24163">
        <ele>1356.6</ele>
        <time>2022-06-11T08:48:06Z</time>
      </trkpt>
      <trkpt lat="44.0803" lon="7.24163">
        <ele>1356.6</ele>
        <time>2022-06-11T08:48:07Z</time>
      </trkpt>
      <trkpt lat="44.08026" lon="7.2416">
        <ele>1358</ele>
        <time>2022-06-11T08:48:08Z</time>
      </trkpt>
      <trkpt lat="44.08024" lon="7.24159">
        <ele>1358.2</ele>
        <time>2022-06-11T08:48:09Z</time>
      </trkpt>
      <trkpt lat="44.08022" lon="7.24158">
        <ele>1358.3</ele>
        <time>2022-06-11T08:48:10Z</time>
      </trkpt>
      <trkpt lat="44.08019" lon="7.24157">
        <ele>1358.3</ele>
        <time>2022-06-11T08:48:11Z</time>
      </trkpt>
      <trkpt lat="44.08017" lon="7.24156">
        <ele>1358.3</ele>
        <time>2022-06-11T08:48:12Z</time>
      </trkpt>
      <trkpt lat="44.08015" lon="7.24155">
        <ele>1358.2</ele>
        <time>2022-06-11T08:48:13Z</time>
      </trkpt>
      <trkpt lat="44.08013" lon="7.24154">
        <ele>1358.5</ele>
        <time>2022-06-11T08:48:14Z</time>
      </trkpt>
      <trkpt lat="44.0801" lon="7.24154">
        <ele>1358.1</ele>
        <time>2022-06-11T08:48:15Z</time>
      </trkpt>
      <trkpt lat="44.08008" lon="7.24153">
        <ele>1357.6</ele>
        <time>2022-06-11T08:48:16Z</time>
      </trkpt>
      <trkpt lat="44.08006" lon="7.24153">
        <ele>1357.5</ele>
        <time>2022-06-11T08:48:17Z</time>
      </trkpt>
      <trkpt lat="44.08003" lon="7.24153">
        <ele>1356.9</ele>
        <time>2022-06-11T08:48:18Z</time>
      </trkpt>
      <trkpt lat="44.08001" lon="7.24152">
        <ele>1356.6</ele>
        <time>2022-06-11T08:48:19Z</time>
      </trkpt>
      <trkpt lat="44.07999" lon="7.24152">
        <ele>1356.2</ele>
        <time>2022-06-11T08:48:20Z</time>
      </trkpt>
      <trkpt lat="44.07997" lon="7.24152">
        <ele>1355.6</ele>
        <time>2022-06-11T08:48:21Z</time>
      </trkpt>
      <trkpt lat="44.07994" lon="7.24151">
        <ele>1355.4</ele>
        <time>2022-06-11T08:48:22Z</time>
      </trkpt>
      <trkpt lat="44.07992" lon="7.2415">
        <ele>1355.2</ele>
        <time>2022-06-11T08:48:23Z</time>
      </trkpt>
      <trkpt lat="44.0799" lon="7.24149">
        <ele>1355</ele>
        <time>2022-06-11T08:48:24Z</time>
      </trkpt>
      <trkpt lat="44.07988" lon="7.24148">
        <ele>1354.9</ele>
        <time>2022-06-11T08:48:25Z</time>
      </trkpt>
      <trkpt lat="44.07985" lon="7.24147">
        <ele>1354.7</ele>
        <time>2022-06-11T08:48:26Z</time>
      </trkpt>
      <trkpt lat="44.07983" lon="7.24145">
        <ele>1355.2</ele>
        <time>2022-06-11T08:48:27Z</time>
      </trkpt>
      <trkpt lat="44.07981" lon="7.24144">
        <ele>1355.1</ele>
        <time>2022-06-11T08:48:28Z</time>
      </trkpt>
      <trkpt lat="44.07979" lon="7.24142">
        <ele>1355.8</ele>
        <time>2022-06-11T08:48:29Z</time>
      </trkpt>
      <trkpt lat="44.07977" lon="7.2414">
        <ele>1355.8</ele>
        <time>2022-06-11T08:48:30Z</time>
      </trkpt>
      <trkpt lat="44.07975" lon="7.24138">
        <ele>1356.3</ele>
        <time>2022-06-11T08:48:31Z</time>
      </trkpt>
      <trkpt lat="44.07973" lon="7.24137">
        <ele>1356.6</ele>
        <time>2022-06-11T08:48:32Z</time>
      </trkpt>
      <trkpt lat="44.07971" lon="7.24134">
        <ele>1356.9</ele>
        <time>2022-06-11T08:48:33Z</time>
      </trkpt>
      <trkpt lat="44.07969" lon="7.24133">
        <ele>1356.8</ele>
        <time>2022-06-11T08:48:34Z</time>
      </trkpt>
      <trkpt lat="44.07967" lon="7.24131">
        <ele>1356.8</ele>
        <time>2022-06-11T08:48:35Z</time>
      </trkpt>
      <trkpt lat="44.07966" lon="7.24128">
        <ele>1357.5</ele>
        <time>2022-06-11T08:48:36Z</time>
      </trkpt>
      <trkpt lat="44.07964" lon="7.24125">
        <ele>1358.3</ele>
        <time>2022-06-11T08:48:37Z</time>
      </trkpt>
      <trkpt lat="44.07963" lon="7.24122">
        <ele>1359</ele>
        <time>2022-06-11T08:48:38Z</time>
      </trkpt>
      <trkpt lat="44.07961" lon="7.24119">
        <ele>1360.1</ele>
        <time>2022-06-11T08:48:39Z</time>
      </trkpt>
      <trkpt lat="44.0796" lon="7.24116">
        <ele>1360.6</ele>
        <time>2022-06-11T08:48:40Z</time>
      </trkpt>
      <trkpt lat="44.07958" lon="7.24114">
        <ele>1361.2</ele>
        <time>2022-06-11T08:48:41Z</time>
      </trkpt>
      <trkpt lat="44.07957" lon="7.24111">
        <ele>1361.7</ele>
        <time>2022-06-11T08:48:42Z</time>
      </trkpt>
      <trkpt lat="44.07956" lon="7.24109">
        <ele>1362.3</ele>
        <time>2022-06-11T08:48:43Z</time>
      </trkpt>
      <trkpt lat="44.07954" lon="7.24106">
        <ele>1362.8</ele>
        <time>2022-06-11T08:48:44Z</time>
      </trkpt>
      <trkpt lat="44.07953" lon="7.24103">
        <ele>1363.6</ele>
        <time>2022-06-11T08:48:45Z</time>
      </trkpt>
      <trkpt lat="44.07952" lon="7.24101">
        <ele>1364.2</ele>
        <time>2022-06-11T08:48:46Z</time>
      </trkpt>
      <trkpt lat="44.07952" lon="7.24101">
        <ele>1364.2</ele>
        <time>2022-06-11T08:48:47Z</time>
      </trkpt>
      <trkpt lat="44.07949" lon="7.24096">
        <ele>1365.4</ele>
        <time>2022-06-11T08:48:48Z</time>
      </trkpt>
      <trkpt lat="44.07948" lon="7.24093">
        <ele>1366</ele>
        <time>2022-06-11T08:48:49Z</time>
      </trkpt>
      <trkpt lat="44.07947" lon="7.2409">
        <ele>1366.7</ele>
        <time>2022-06-11T08:48:50Z</time>
      </trkpt>
      <trkpt lat="44.07945" lon="7.24088">
        <ele>1366.9</ele>
        <time>2022-06-11T08:48:51Z</time>
      </trkpt>
      <trkpt lat="44.07945" lon="7.24088">
        <ele>1366.9</ele>
        <time>2022-06-11T08:48:52Z</time>
      </trkpt>
      <trkpt lat="44.07945" lon="7.24088">
        <ele>1366.9</ele>
        <time>2022-06-11T08:48:53Z</time>
      </trkpt>
      <trkpt lat="44.07941" lon="7.24082">
        <ele>1367.4</ele>
        <time>2022-06-11T08:48:54Z</time>
      </trkpt>
      <trkpt lat="44.07939" lon="7.2408">
        <ele>1367.7</ele>
        <time>2022-06-11T08:48:55Z</time>
      </trkpt>
      <trkpt lat="44.07938" lon="7.24077">
        <ele>1368</ele>
        <time>2022-06-11T08:48:56Z</time>
      </trkpt>
      <trkpt lat="44.07937" lon="7.24075">
        <ele>1368.5</ele>
        <time>2022-06-11T08:48:57Z</time>
      </trkpt>
      <trkpt lat="44.07937" lon="7.24075">
        <ele>1368.5</ele>
        <time>2022-06-11T08:48:58Z</time>
      </trkpt>
      <trkpt lat="44.07934" lon="7.24069">
        <ele>1369.6</ele>
        <time>2022-06-11T08:48:59Z</time>
      </trkpt>
      <trkpt lat="44.07933" lon="7.24067">
        <ele>1369.8</ele>
        <time>2022-06-11T08:49:00Z</time>
      </trkpt>
      <trkpt lat="44.07931" lon="7.24065">
        <ele>1370.2</ele>
        <time>2022-06-11T08:49:01Z</time>
      </trkpt>
      <trkpt lat="44.0793" lon="7.24063">
        <ele>1370.4</ele>
        <time>2022-06-11T08:49:02Z</time>
      </trkpt>
      <trkpt lat="44.07929" lon="7.2406">
        <ele>1370.8</ele>
        <time>2022-06-11T08:49:03Z</time>
      </trkpt>
      <trkpt lat="44.07927" lon="7.24058">
        <ele>1371.1</ele>
        <time>2022-06-11T08:49:04Z</time>
      </trkpt>
      <trkpt lat="44.07926" lon="7.24055">
        <ele>1371.6</ele>
        <time>2022-06-11T08:49:05Z</time>
      </trkpt>
      <trkpt lat="44.07925" lon="7.24053">
        <ele>1371.8</ele>
        <time>2022-06-11T08:49:06Z</time>
      </trkpt>
      <trkpt lat="44.07923" lon="7.24051">
        <ele>1372</ele>
        <time>2022-06-11T08:49:07Z</time>
      </trkpt>
      <trkpt lat="44.07922" lon="7.24048">
        <ele>1372.5</ele>
        <time>2022-06-11T08:49:08Z</time>
      </trkpt>
      <trkpt lat="44.0792" lon="7.24045">
        <ele>1372.8</ele>
        <time>2022-06-11T08:49:09Z</time>
      </trkpt>
      <trkpt lat="44.07919" lon="7.24043">
        <ele>1373.1</ele>
        <time>2022-06-11T08:49:10Z</time>
      </trkpt>
      <trkpt lat="44.07917" lon="7.24041">
        <ele>1373.4</ele>
        <time>2022-06-11T08:49:11Z</time>
      </trkpt>
      <trkpt lat="44.07916" lon="7.24038">
        <ele>1373.6</ele>
        <time>2022-06-11T08:49:12Z</time>
      </trkpt>
      <trkpt lat="44.07914" lon="7.24036">
        <ele>1373.6</ele>
        <time>2022-06-11T08:49:13Z</time>
      </trkpt>
      <trkpt lat="44.07912" lon="7.24034">
        <ele>1373.4</ele>
        <time>2022-06-11T08:49:14Z</time>
      </trkpt>
      <trkpt lat="44.0791" lon="7.24033">
        <ele>1373.2</ele>
        <time>2022-06-11T08:49:15Z</time>
      </trkpt>
      <trkpt lat="44.07908" lon="7.2403">
        <ele>1373.3</ele>
        <time>2022-06-11T08:49:16Z</time>
      </trkpt>
      <trkpt lat="44.07906" lon="7.24028">
        <ele>1373.6</ele>
        <time>2022-06-11T08:49:17Z</time>
      </trkpt>
      <trkpt lat="44.07904" lon="7.24026">
        <ele>1373.8</ele>
        <time>2022-06-11T08:49:18Z</time>
      </trkpt>
      <trkpt lat="44.07902" lon="7.24023">
        <ele>1374</ele>
        <time>2022-06-11T08:49:19Z</time>
      </trkpt>
      <trkpt lat="44.07901" lon="7.24021">
        <ele>1374.2</ele>
        <time>2022-06-11T08:49:20Z</time>
      </trkpt>
      <trkpt lat="44.07899" lon="7.24019">
        <ele>1374.2</ele>
        <time>2022-06-11T08:49:21Z</time>
      </trkpt>
      <trkpt lat="44.07897" lon="7.24017">
        <ele>1374.2</ele>
        <time>2022-06-11T08:49:22Z</time>
      </trkpt>
      <trkpt lat="44.07895" lon="7.24015">
        <ele>1374.3</ele>
        <time>2022-06-11T08:49:23Z</time>
      </trkpt>
      <trkpt lat="44.07893" lon="7.24013">
        <ele>1374.3</ele>
        <time>2022-06-11T08:49:24Z</time>
      </trkpt>
      <trkpt lat="44.07891" lon="7.24011">
        <ele>1374.4</ele>
        <time>2022-06-11T08:49:25Z</time>
      </trkpt>
      <trkpt lat="44.07889" lon="7.24009">
        <ele>1374.5</ele>
        <time>2022-06-11T08:49:26Z</time>
      </trkpt>
      <trkpt lat="44.07887" lon="7.24007">
        <ele>1374.4</ele>
        <time>2022-06-11T08:49:27Z</time>
      </trkpt>
      <trkpt lat="44.07885" lon="7.24005">
        <ele>1374.3</ele>
        <time>2022-06-11T08:49:28Z</time>
      </trkpt>
      <trkpt lat="44.07883" lon="7.24003">
        <ele>1374.4</ele>
        <time>2022-06-11T08:49:29Z</time>
      </trkpt>
      <trkpt lat="44.07881" lon="7.24002">
        <ele>1374.4</ele>
        <time>2022-06-11T08:49:30Z</time>
      </trkpt>
      <trkpt lat="44.0788" lon="7.24">
        <ele>1374.3</ele>
        <time>2022-06-11T08:49:31Z</time>
      </trkpt>
      <trkpt lat="44.07878" lon="7.23998">
        <ele>1374.6</ele>
        <time>2022-06-11T08:49:32Z</time>
      </trkpt>
      <trkpt lat="44.07876" lon="7.23996">
        <ele>1374.7</ele>
        <time>2022-06-11T08:49:33Z</time>
      </trkpt>
      <trkpt lat="44.07874" lon="7.23994">
        <ele>1374.6</ele>
        <time>2022-06-11T08:49:34Z</time>
      </trkpt>
      <trkpt lat="44.07872" lon="7.23992">
        <ele>1374.5</ele>
        <time>2022-06-11T08:49:35Z</time>
      </trkpt>
      <trkpt lat="44.0787" lon="7.2399">
        <ele>1374.3</ele>
        <time>2022-06-11T08:49:36Z</time>
      </trkpt>
      <trkpt lat="44.07867" lon="7.23988">
        <ele>1374.4</ele>
        <time>2022-06-11T08:49:37Z</time>
      </trkpt>
      <trkpt lat="44.07866" lon="7.23986">
        <ele>1374.5</ele>
        <time>2022-06-11T08:49:38Z</time>
      </trkpt>
      <trkpt lat="44.07864" lon="7.23983">
        <ele>1374.6</ele>
        <time>2022-06-11T08:49:39Z</time>
      </trkpt>
      <trkpt lat="44.07862" lon="7.23981">
        <ele>1374.7</ele>
        <time>2022-06-11T08:49:40Z</time>
      </trkpt>
      <trkpt lat="44.0786" lon="7.23979">
        <ele>1374.8</ele>
        <time>2022-06-11T08:49:41Z</time>
      </trkpt>
      <trkpt lat="44.07858" lon="7.23978">
        <ele>1374.4</ele>
        <time>2022-06-11T08:49:42Z</time>
      </trkpt>
      <trkpt lat="44.07856" lon="7.23976">
        <ele>1374.4</ele>
        <time>2022-06-11T08:49:43Z</time>
      </trkpt>
      <trkpt lat="44.07854" lon="7.23974">
        <ele>1374.4</ele>
        <time>2022-06-11T08:49:44Z</time>
      </trkpt>
      <trkpt lat="44.07852" lon="7.23972">
        <ele>1374.4</ele>
        <time>2022-06-11T08:49:45Z</time>
      </trkpt>
      <trkpt lat="44.0785" lon="7.2397">
        <ele>1374.6</ele>
        <time>2022-06-11T08:49:46Z</time>
      </trkpt>
      <trkpt lat="44.07849" lon="7.23969">
        <ele>1374.4</ele>
        <time>2022-06-11T08:49:47Z</time>
      </trkpt>
      <trkpt lat="44.07849" lon="7.23969">
        <ele>1374.4</ele>
        <time>2022-06-11T08:49:48Z</time>
      </trkpt>
      <trkpt lat="44.07849" lon="7.23969">
        <ele>1374.4</ele>
        <time>2022-06-11T08:49:49Z</time>
      </trkpt>
      <trkpt lat="44.07849" lon="7.23969">
        <ele>1374.4</ele>
        <time>2022-06-11T08:49:50Z</time>
      </trkpt>
      <trkpt lat="44.07841" lon="7.23961">
        <ele>1374.6</ele>
        <time>2022-06-11T08:49:51Z</time>
      </trkpt>
      <trkpt lat="44.07839" lon="7.23958">
        <ele>1375</ele>
        <time>2022-06-11T08:49:52Z</time>
      </trkpt>
      <trkpt lat="44.07839" lon="7.23958">
        <ele>1375</ele>
        <time>2022-06-11T08:49:53Z</time>
      </trkpt>
      <trkpt lat="44.07839" lon="7.23958">
        <ele>1375</ele>
        <time>2022-06-11T08:49:54Z</time>
      </trkpt>
      <trkpt lat="44.07834" lon="7.23952">
        <ele>1375.9</ele>
        <time>2022-06-11T08:49:55Z</time>
      </trkpt>
      <trkpt lat="44.07834" lon="7.23952">
        <ele>1375.9</ele>
        <time>2022-06-11T08:49:56Z</time>
      </trkpt>
      <trkpt lat="44.07831" lon="7.23946">
        <ele>1377.1</ele>
        <time>2022-06-11T08:49:57Z</time>
      </trkpt>
      <trkpt lat="44.0783" lon="7.23943">
        <ele>1377.3</ele>
        <time>2022-06-11T08:49:58Z</time>
      </trkpt>
      <trkpt lat="44.07828" lon="7.23941">
        <ele>1377.1</ele>
        <time>2022-06-11T08:49:59Z</time>
      </trkpt>
      <trkpt lat="44.07826" lon="7.23938">
        <ele>1377.4</ele>
        <time>2022-06-11T08:50:00Z</time>
      </trkpt>
      <trkpt lat="44.07824" lon="7.23936">
        <ele>1377.5</ele>
        <time>2022-06-11T08:50:01Z</time>
      </trkpt>
      <trkpt lat="44.07822" lon="7.23933">
        <ele>1377.6</ele>
        <time>2022-06-11T08:50:02Z</time>
      </trkpt>
      <trkpt lat="44.07821" lon="7.23931">
        <ele>1377.9</ele>
        <time>2022-06-11T08:50:03Z</time>
      </trkpt>
      <trkpt lat="44.0782" lon="7.23928">
        <ele>1378.3</ele>
        <time>2022-06-11T08:50:04Z</time>
      </trkpt>
      <trkpt lat="44.07818" lon="7.23926">
        <ele>1378.2</ele>
        <time>2022-06-11T08:50:05Z</time>
      </trkpt>
      <trkpt lat="44.07816" lon="7.23923">
        <ele>1378.6</ele>
        <time>2022-06-11T08:50:06Z</time>
      </trkpt>
      <trkpt lat="44.07814" lon="7.2392">
        <ele>1378.7</ele>
        <time>2022-06-11T08:50:07Z</time>
      </trkpt>
      <trkpt lat="44.07813" lon="7.23917">
        <ele>1379</ele>
        <time>2022-06-11T08:50:08Z</time>
      </trkpt>
      <trkpt lat="44.07811" lon="7.23914">
        <ele>1379.2</ele>
        <time>2022-06-11T08:50:09Z</time>
      </trkpt>
      <trkpt lat="44.07809" lon="7.23912">
        <ele>1379.2</ele>
        <time>2022-06-11T08:50:10Z</time>
      </trkpt>
      <trkpt lat="44.07807" lon="7.23909">
        <ele>1379.1</ele>
        <time>2022-06-11T08:50:11Z</time>
      </trkpt>
      <trkpt lat="44.07807" lon="7.23909">
        <ele>1379.1</ele>
        <time>2022-06-11T08:50:12Z</time>
      </trkpt>
      <trkpt lat="44.07804" lon="7.23904">
        <ele>1378.8</ele>
        <time>2022-06-11T08:50:13Z</time>
      </trkpt>
      <trkpt lat="44.07802" lon="7.23902">
        <ele>1378.5</ele>
        <time>2022-06-11T08:50:14Z</time>
      </trkpt>
      <trkpt lat="44.078" lon="7.23899">
        <ele>1378.4</ele>
        <time>2022-06-11T08:50:15Z</time>
      </trkpt>
      <trkpt lat="44.07798" lon="7.23897">
        <ele>1378.2</ele>
        <time>2022-06-11T08:50:16Z</time>
      </trkpt>
      <trkpt lat="44.07796" lon="7.23894">
        <ele>1377.8</ele>
        <time>2022-06-11T08:50:17Z</time>
      </trkpt>
      <trkpt lat="44.07795" lon="7.23892">
        <ele>1377.5</ele>
        <time>2022-06-11T08:50:18Z</time>
      </trkpt>
      <trkpt lat="44.07793" lon="7.2389">
        <ele>1377.6</ele>
        <time>2022-06-11T08:50:19Z</time>
      </trkpt>
      <trkpt lat="44.07791" lon="7.23888">
        <ele>1377.3</ele>
        <time>2022-06-11T08:50:20Z</time>
      </trkpt>
      <trkpt lat="44.0779" lon="7.23886">
        <ele>1377.1</ele>
        <time>2022-06-11T08:50:21Z</time>
      </trkpt>
      <trkpt lat="44.07788" lon="7.23884">
        <ele>1376.8</ele>
        <time>2022-06-11T08:50:22Z</time>
      </trkpt>
      <trkpt lat="44.07786" lon="7.23882">
        <ele>1376.5</ele>
        <time>2022-06-11T08:50:23Z</time>
      </trkpt>
      <trkpt lat="44.07784" lon="7.23879">
        <ele>1376.5</ele>
        <time>2022-06-11T08:50:24Z</time>
      </trkpt>
      <trkpt lat="44.07783" lon="7.23877">
        <ele>1376.2</ele>
        <time>2022-06-11T08:50:25Z</time>
      </trkpt>
      <trkpt lat="44.07781" lon="7.23874">
        <ele>1376.3</ele>
        <time>2022-06-11T08:50:26Z</time>
      </trkpt>
      <trkpt lat="44.07779" lon="7.23872">
        <ele>1376.5</ele>
        <time>2022-06-11T08:50:27Z</time>
      </trkpt>
      <trkpt lat="44.07778" lon="7.23869">
        <ele>1376.4</ele>
        <time>2022-06-11T08:50:28Z</time>
      </trkpt>
      <trkpt lat="44.07776" lon="7.23867">
        <ele>1376.5</ele>
        <time>2022-06-11T08:50:29Z</time>
      </trkpt>
      <trkpt lat="44.07775" lon="7.23864">
        <ele>1376.8</ele>
        <time>2022-06-11T08:50:30Z</time>
      </trkpt>
      <trkpt lat="44.07773" lon="7.23862">
        <ele>1376.6</ele>
        <time>2022-06-11T08:50:31Z</time>
      </trkpt>
      <trkpt lat="44.07772" lon="7.2386">
        <ele>1376.9</ele>
        <time>2022-06-11T08:50:32Z</time>
      </trkpt>
      <trkpt lat="44.0777" lon="7.23857">
        <ele>1376.9</ele>
        <time>2022-06-11T08:50:33Z</time>
      </trkpt>
      <trkpt lat="44.07768" lon="7.23855">
        <ele>1376.9</ele>
        <time>2022-06-11T08:50:34Z</time>
      </trkpt>
      <trkpt lat="44.07766" lon="7.23853">
        <ele>1376.6</ele>
        <time>2022-06-11T08:50:35Z</time>
      </trkpt>
      <trkpt lat="44.07764" lon="7.23851">
        <ele>1376.4</ele>
        <time>2022-06-11T08:50:36Z</time>
      </trkpt>
      <trkpt lat="44.07762" lon="7.23848">
        <ele>1376.3</ele>
        <time>2022-06-11T08:50:37Z</time>
      </trkpt>
      <trkpt lat="44.07761" lon="7.23846">
        <ele>1376.2</ele>
        <time>2022-06-11T08:50:38Z</time>
      </trkpt>
      <trkpt lat="44.07759" lon="7.23844">
        <ele>1376.2</ele>
        <time>2022-06-11T08:50:39Z</time>
      </trkpt>
      <trkpt lat="44.07757" lon="7.23842">
        <ele>1376.3</ele>
        <time>2022-06-11T08:50:40Z</time>
      </trkpt>
      <trkpt lat="44.07756" lon="7.23839">
        <ele>1376.6</ele>
        <time>2022-06-11T08:50:41Z</time>
      </trkpt>
      <trkpt lat="44.07755" lon="7.23837">
        <ele>1377.1</ele>
        <time>2022-06-11T08:50:42Z</time>
      </trkpt>
      <trkpt lat="44.07753" lon="7.23834">
        <ele>1377.5</ele>
        <time>2022-06-11T08:50:43Z</time>
      </trkpt>
      <trkpt lat="44.07751" lon="7.2383">
        <ele>1378.1</ele>
        <time>2022-06-11T08:50:44Z</time>
      </trkpt>
      <trkpt lat="44.0775" lon="7.23828">
        <ele>1378.3</ele>
        <time>2022-06-11T08:50:45Z</time>
      </trkpt>
      <trkpt lat="44.07749" lon="7.23827">
        <ele>1378.9</ele>
        <time>2022-06-11T08:50:46Z</time>
      </trkpt>
      <trkpt lat="44.07749" lon="7.23827">
        <ele>1378.9</ele>
        <time>2022-06-11T08:50:47Z</time>
      </trkpt>
      <trkpt lat="44.07745" lon="7.23821">
        <ele>1381.1</ele>
        <time>2022-06-11T08:50:48Z</time>
      </trkpt>
      <trkpt lat="44.07744" lon="7.23819">
        <ele>1382.1</ele>
        <time>2022-06-11T08:50:49Z</time>
      </trkpt>
      <trkpt lat="44.07742" lon="7.23816">
        <ele>1383</ele>
        <time>2022-06-11T08:50:50Z</time>
      </trkpt>
      <trkpt lat="44.0774" lon="7.23814">
        <ele>1383.8</ele>
        <time>2022-06-11T08:50:51Z</time>
      </trkpt>
      <trkpt lat="44.0774" lon="7.23814">
        <ele>1383.8</ele>
        <time>2022-06-11T08:50:52Z</time>
      </trkpt>
      <trkpt lat="44.0774" lon="7.23814">
        <ele>1383.8</ele>
        <time>2022-06-11T08:50:53Z</time>
      </trkpt>
      <trkpt lat="44.07733" lon="7.23809">
        <ele>1384.9</ele>
        <time>2022-06-11T08:50:54Z</time>
      </trkpt>
      <trkpt lat="44.07731" lon="7.23809">
        <ele>1384.9</ele>
        <time>2022-06-11T08:50:55Z</time>
      </trkpt>
      <trkpt lat="44.07731" lon="7.23809">
        <ele>1384.9</ele>
        <time>2022-06-11T08:50:56Z</time>
      </trkpt>
      <trkpt lat="44.07725" lon="7.23809">
        <ele>1383.8</ele>
        <time>2022-06-11T08:50:57Z</time>
      </trkpt>
      <trkpt lat="44.07722" lon="7.2381">
        <ele>1383.4</ele>
        <time>2022-06-11T08:50:58Z</time>
      </trkpt>
      <trkpt lat="44.07719" lon="7.23812">
        <ele>1384.1</ele>
        <time>2022-06-11T08:50:59Z</time>
      </trkpt>
      <trkpt lat="44.07719" lon="7.23812">
        <ele>1384.1</ele>
        <time>2022-06-11T08:51:00Z</time>
      </trkpt>
      <trkpt lat="44.07714" lon="7.23816">
        <ele>1384.8</ele>
        <time>2022-06-11T08:51:01Z</time>
      </trkpt>
      <trkpt lat="44.07711" lon="7.23818">
        <ele>1385</ele>
        <time>2022-06-11T08:51:02Z</time>
      </trkpt>
      <trkpt lat="44.07709" lon="7.2382">
        <ele>1385</ele>
        <time>2022-06-11T08:51:03Z</time>
      </trkpt>
      <trkpt lat="44.07708" lon="7.23822">
        <ele>1385.1</ele>
        <time>2022-06-11T08:51:04Z</time>
      </trkpt>
      <trkpt lat="44.07706" lon="7.23825">
        <ele>1385</ele>
        <time>2022-06-11T08:51:05Z</time>
      </trkpt>
      <trkpt lat="44.07704" lon="7.23828">
        <ele>1385</ele>
        <time>2022-06-11T08:51:06Z</time>
      </trkpt>
      <trkpt lat="44.07702" lon="7.23831">
        <ele>1384.9</ele>
        <time>2022-06-11T08:51:07Z</time>
      </trkpt>
      <trkpt lat="44.077" lon="7.23833">
        <ele>1385.1</ele>
        <time>2022-06-11T08:51:08Z</time>
      </trkpt>
      <trkpt lat="44.07699" lon="7.23835">
        <ele>1385</ele>
        <time>2022-06-11T08:51:09Z</time>
      </trkpt>
      <trkpt lat="44.07697" lon="7.23838">
        <ele>1384.9</ele>
        <time>2022-06-11T08:51:10Z</time>
      </trkpt>
      <trkpt lat="44.07696" lon="7.23841">
        <ele>1384.5</ele>
        <time>2022-06-11T08:51:11Z</time>
      </trkpt>
      <trkpt lat="44.07695" lon="7.23844">
        <ele>1383.8</ele>
        <time>2022-06-11T08:51:12Z</time>
      </trkpt>
      <trkpt lat="44.07694" lon="7.23847">
        <ele>1383.2</ele>
        <time>2022-06-11T08:51:13Z</time>
      </trkpt>
      <trkpt lat="44.07692" lon="7.2385">
        <ele>1382.7</ele>
        <time>2022-06-11T08:51:14Z</time>
      </trkpt>
      <trkpt lat="44.07691" lon="7.23853">
        <ele>1382.5</ele>
        <time>2022-06-11T08:51:15Z</time>
      </trkpt>
      <trkpt lat="44.0769" lon="7.23856">
        <ele>1382</ele>
        <time>2022-06-11T08:51:16Z</time>
      </trkpt>
      <trkpt lat="44.07689" lon="7.23859">
        <ele>1381.7</ele>
        <time>2022-06-11T08:51:17Z</time>
      </trkpt>
      <trkpt lat="44.07688" lon="7.23862">
        <ele>1381.3</ele>
        <time>2022-06-11T08:51:18Z</time>
      </trkpt>
      <trkpt lat="44.07686" lon="7.23865">
        <ele>1381</ele>
        <time>2022-06-11T08:51:19Z</time>
      </trkpt>
      <trkpt lat="44.07684" lon="7.23868">
        <ele>1381.4</ele>
        <time>2022-06-11T08:51:20Z</time>
      </trkpt>
      <trkpt lat="44.07682" lon="7.2387">
        <ele>1381.8</ele>
        <time>2022-06-11T08:51:21Z</time>
      </trkpt>
      <trkpt lat="44.0768" lon="7.23872">
        <ele>1382.5</ele>
        <time>2022-06-11T08:51:22Z</time>
      </trkpt>
      <trkpt lat="44.07678" lon="7.23873">
        <ele>1383.4</ele>
        <time>2022-06-11T08:51:23Z</time>
      </trkpt>
      <trkpt lat="44.07675" lon="7.23874">
        <ele>1384.2</ele>
        <time>2022-06-11T08:51:24Z</time>
      </trkpt>
      <trkpt lat="44.07673" lon="7.23876">
        <ele>1385</ele>
        <time>2022-06-11T08:51:25Z</time>
      </trkpt>
      <trkpt lat="44.07671" lon="7.23877">
        <ele>1385.9</ele>
        <time>2022-06-11T08:51:26Z</time>
      </trkpt>
      <trkpt lat="44.07669" lon="7.23878">
        <ele>1386.6</ele>
        <time>2022-06-11T08:51:27Z</time>
      </trkpt>
      <trkpt lat="44.07667" lon="7.23878">
        <ele>1388.1</ele>
        <time>2022-06-11T08:51:28Z</time>
      </trkpt>
      <trkpt lat="44.07665" lon="7.23879">
        <ele>1388.4</ele>
        <time>2022-06-11T08:51:29Z</time>
      </trkpt>
      <trkpt lat="44.07663" lon="7.2388">
        <ele>1388.8</ele>
        <time>2022-06-11T08:51:30Z</time>
      </trkpt>
      <trkpt lat="44.07661" lon="7.23881">
        <ele>1388.9</ele>
        <time>2022-06-11T08:51:31Z</time>
      </trkpt>
      <trkpt lat="44.07659" lon="7.23883">
        <ele>1388.7</ele>
        <time>2022-06-11T08:51:32Z</time>
      </trkpt>
      <trkpt lat="44.07657" lon="7.23885">
        <ele>1388.4</ele>
        <time>2022-06-11T08:51:33Z</time>
      </trkpt>
      <trkpt lat="44.07655" lon="7.23887">
        <ele>1388.1</ele>
        <time>2022-06-11T08:51:34Z</time>
      </trkpt>
      <trkpt lat="44.07655" lon="7.23887">
        <ele>1388.1</ele>
        <time>2022-06-11T08:51:35Z</time>
      </trkpt>
      <trkpt lat="44.07651" lon="7.2389">
        <ele>1388.1</ele>
        <time>2022-06-11T08:51:36Z</time>
      </trkpt>
      <trkpt lat="44.07649" lon="7.23892">
        <ele>1388</ele>
        <time>2022-06-11T08:51:37Z</time>
      </trkpt>
      <trkpt lat="44.07647" lon="7.23894">
        <ele>1388</ele>
        <time>2022-06-11T08:51:38Z</time>
      </trkpt>
      <trkpt lat="44.07645" lon="7.23895">
        <ele>1388.3</ele>
        <time>2022-06-11T08:51:39Z</time>
      </trkpt>
      <trkpt lat="44.07642" lon="7.23897">
        <ele>1388.5</ele>
        <time>2022-06-11T08:51:40Z</time>
      </trkpt>
      <trkpt lat="44.0764" lon="7.23898">
        <ele>1388.7</ele>
        <time>2022-06-11T08:51:41Z</time>
      </trkpt>
      <trkpt lat="44.07638" lon="7.23899">
        <ele>1388.9</ele>
        <time>2022-06-11T08:51:42Z</time>
      </trkpt>
      <trkpt lat="44.07636" lon="7.239">
        <ele>1388.6</ele>
        <time>2022-06-11T08:51:43Z</time>
      </trkpt>
      <trkpt lat="44.07636" lon="7.239">
        <ele>1388.6</ele>
        <time>2022-06-11T08:51:44Z</time>
      </trkpt>
      <trkpt lat="44.07631" lon="7.23901">
        <ele>1388.7</ele>
        <time>2022-06-11T08:51:45Z</time>
      </trkpt>
      <trkpt lat="44.07629" lon="7.23902">
        <ele>1388.7</ele>
        <time>2022-06-11T08:51:46Z</time>
      </trkpt>
      <trkpt lat="44.07627" lon="7.23903">
        <ele>1388.7</ele>
        <time>2022-06-11T08:51:47Z</time>
      </trkpt>
      <trkpt lat="44.07627" lon="7.23903">
        <ele>1388.7</ele>
        <time>2022-06-11T08:51:48Z</time>
      </trkpt>
      <trkpt lat="44.07622" lon="7.23905">
        <ele>1387.9</ele>
        <time>2022-06-11T08:51:49Z</time>
      </trkpt>
      <trkpt lat="44.0762" lon="7.23906">
        <ele>1387.8</ele>
        <time>2022-06-11T08:51:50Z</time>
      </trkpt>
      <trkpt lat="44.07618" lon="7.23907">
        <ele>1387.9</ele>
        <time>2022-06-11T08:51:51Z</time>
      </trkpt>
      <trkpt lat="44.07618" lon="7.23907">
        <ele>1387.9</ele>
        <time>2022-06-11T08:51:52Z</time>
      </trkpt>
      <trkpt lat="44.07613" lon="7.23907">
        <ele>1388.1</ele>
        <time>2022-06-11T08:51:53Z</time>
      </trkpt>
      <trkpt lat="44.07611" lon="7.23907">
        <ele>1388.7</ele>
        <time>2022-06-11T08:51:54Z</time>
      </trkpt>
      <trkpt lat="44.07609" lon="7.23906">
        <ele>1388.7</ele>
        <time>2022-06-11T08:51:55Z</time>
      </trkpt>
      <trkpt lat="44.07606" lon="7.23906">
        <ele>1388.7</ele>
        <time>2022-06-11T08:51:56Z</time>
      </trkpt>
      <trkpt lat="44.07604" lon="7.23905">
        <ele>1388.9</ele>
        <time>2022-06-11T08:51:57Z</time>
      </trkpt>
      <trkpt lat="44.07604" lon="7.23905">
        <ele>1388.9</ele>
        <time>2022-06-11T08:51:58Z</time>
      </trkpt>
      <trkpt lat="44.07604" lon="7.23905">
        <ele>1388.9</ele>
        <time>2022-06-11T08:51:59Z</time>
      </trkpt>
      <trkpt lat="44.07596" lon="7.23902">
        <ele>1389.9</ele>
        <time>2022-06-11T08:52:00Z</time>
      </trkpt>
      <trkpt lat="44.07594" lon="7.23901">
        <ele>1390.2</ele>
        <time>2022-06-11T08:52:01Z</time>
      </trkpt>
      <trkpt lat="44.07592" lon="7.239">
        <ele>1390.7</ele>
        <time>2022-06-11T08:52:02Z</time>
      </trkpt>
      <trkpt lat="44.0759" lon="7.23898">
        <ele>1391.3</ele>
        <time>2022-06-11T08:52:03Z</time>
      </trkpt>
      <trkpt lat="44.07588" lon="7.23897">
        <ele>1391.7</ele>
        <time>2022-06-11T08:52:04Z</time>
      </trkpt>
      <trkpt lat="44.07586" lon="7.23896">
        <ele>1392.3</ele>
        <time>2022-06-11T08:52:05Z</time>
      </trkpt>
      <trkpt lat="44.07584" lon="7.23895">
        <ele>1392.9</ele>
        <time>2022-06-11T08:52:06Z</time>
      </trkpt>
      <trkpt lat="44.07582" lon="7.23893">
        <ele>1393.4</ele>
        <time>2022-06-11T08:52:07Z</time>
      </trkpt>
      <trkpt lat="44.0758" lon="7.23892">
        <ele>1393.9</ele>
        <time>2022-06-11T08:52:08Z</time>
      </trkpt>
      <trkpt lat="44.07578" lon="7.23891">
        <ele>1394.3</ele>
        <time>2022-06-11T08:52:09Z</time>
      </trkpt>
      <trkpt lat="44.07576" lon="7.23889">
        <ele>1395</ele>
        <time>2022-06-11T08:52:10Z</time>
      </trkpt>
      <trkpt lat="44.07574" lon="7.23888">
        <ele>1395.4</ele>
        <time>2022-06-11T08:52:11Z</time>
      </trkpt>
      <trkpt lat="44.07572" lon="7.23886">
        <ele>1395.8</ele>
        <time>2022-06-11T08:52:12Z</time>
      </trkpt>
      <trkpt lat="44.07569" lon="7.23885">
        <ele>1396.3</ele>
        <time>2022-06-11T08:52:13Z</time>
      </trkpt>
      <trkpt lat="44.07567" lon="7.23884">
        <ele>1396.5</ele>
        <time>2022-06-11T08:52:14Z</time>
      </trkpt>
      <trkpt lat="44.07565" lon="7.23883">
        <ele>1396.8</ele>
        <time>2022-06-11T08:52:15Z</time>
      </trkpt>
      <trkpt lat="44.07562" lon="7.23882">
        <ele>1397.1</ele>
        <time>2022-06-11T08:52:16Z</time>
      </trkpt>
      <trkpt lat="44.0756" lon="7.23882">
        <ele>1397.1</ele>
        <time>2022-06-11T08:52:17Z</time>
      </trkpt>
      <trkpt lat="44.07558" lon="7.23881">
        <ele>1397.3</ele>
        <time>2022-06-11T08:52:18Z</time>
      </trkpt>
      <trkpt lat="44.07555" lon="7.2388">
        <ele>1397.4</ele>
        <time>2022-06-11T08:52:19Z</time>
      </trkpt>
      <trkpt lat="44.07553" lon="7.23879">
        <ele>1397.9</ele>
        <time>2022-06-11T08:52:20Z</time>
      </trkpt>
      <trkpt lat="44.07551" lon="7.23878">
        <ele>1398.5</ele>
        <time>2022-06-11T08:52:21Z</time>
      </trkpt>
      <trkpt lat="44.07549" lon="7.23877">
        <ele>1399.3</ele>
        <time>2022-06-11T08:52:22Z</time>
      </trkpt>
      <trkpt lat="44.07547" lon="7.23876">
        <ele>1399.8</ele>
        <time>2022-06-11T08:52:23Z</time>
      </trkpt>
      <trkpt lat="44.07544" lon="7.23875">
        <ele>1400.3</ele>
        <time>2022-06-11T08:52:24Z</time>
      </trkpt>
      <trkpt lat="44.07542" lon="7.23875">
        <ele>1400.6</ele>
        <time>2022-06-11T08:52:25Z</time>
      </trkpt>
      <trkpt lat="44.0754" lon="7.23874">
        <ele>1400.9</ele>
        <time>2022-06-11T08:52:26Z</time>
      </trkpt>
      <trkpt lat="44.07538" lon="7.23873">
        <ele>1401.6</ele>
        <time>2022-06-11T08:52:27Z</time>
      </trkpt>
      <trkpt lat="44.07536" lon="7.23873">
        <ele>1401.7</ele>
        <time>2022-06-11T08:52:28Z</time>
      </trkpt>
      <trkpt lat="44.07535" lon="7.23874">
        <ele>1400.7</ele>
        <time>2022-06-11T08:52:29Z</time>
      </trkpt>
      <trkpt lat="44.07532" lon="7.23876">
        <ele>1399.6</ele>
        <time>2022-06-11T08:52:30Z</time>
      </trkpt>
      <trkpt lat="44.07531" lon="7.23875">
        <ele>1399.9</ele>
        <time>2022-06-11T08:52:31Z</time>
      </trkpt>
      <trkpt lat="44.07531" lon="7.23875">
        <ele>1400.2</ele>
        <time>2022-06-11T08:52:32Z</time>
      </trkpt>
      <trkpt lat="44.0753" lon="7.23874">
        <ele>1400.4</ele>
        <time>2022-06-11T08:52:33Z</time>
      </trkpt>
      <trkpt lat="44.07529" lon="7.23874">
        <ele>1400.7</ele>
        <time>2022-06-11T08:52:34Z</time>
      </trkpt>
      <trkpt lat="44.07527" lon="7.2387">
        <ele>1403.5</ele>
        <time>2022-06-11T08:52:35Z</time>
      </trkpt>
      <trkpt lat="44.07526" lon="7.23868">
        <ele>1404.8</ele>
        <time>2022-06-11T08:52:36Z</time>
      </trkpt>
      <trkpt lat="44.07526" lon="7.23865">
        <ele>1406.8</ele>
        <time>2022-06-11T08:52:37Z</time>
      </trkpt>
      <trkpt lat="44.07526" lon="7.23861">
        <ele>1409.1</ele>
        <time>2022-06-11T08:52:38Z</time>
      </trkpt>
      <trkpt lat="44.07526" lon="7.23861">
        <ele>1409.1</ele>
        <time>2022-06-11T08:52:39Z</time>
      </trkpt>
      <trkpt lat="44.07526" lon="7.23861">
        <ele>1409.1</ele>
        <time>2022-06-11T08:52:40Z</time>
      </trkpt>
      <trkpt lat="44.07526" lon="7.23861">
        <ele>1409.1</ele>
        <time>2022-06-11T08:52:41Z</time>
      </trkpt>
      <trkpt lat="44.07526" lon="7.23861">
        <ele>1409.1</ele>
        <time>2022-06-11T08:52:42Z</time>
      </trkpt>
      <trkpt lat="44.07526" lon="7.23861">
        <ele>1409.1</ele>
        <time>2022-06-11T08:52:43Z</time>
      </trkpt>
      <trkpt lat="44.07526" lon="7.23861">
        <ele>1409.1</ele>
        <time>2022-06-11T08:52:44Z</time>
      </trkpt>
      <trkpt lat="44.07526" lon="7.23861">
        <ele>1409.1</ele>
        <time>2022-06-11T08:52:45Z</time>
      </trkpt>
      <trkpt lat="44.07526" lon="7.23861">
        <ele>1409.1</ele>
        <time>2022-06-11T08:52:46Z</time>
      </trkpt>
      <trkpt lat="44.07526" lon="7.23861">
        <ele>1409.1</ele>
        <time>2022-06-11T08:52:47Z</time>
      </trkpt>
      <trkpt lat="44.07526" lon="7.23861">
        <ele>1409.1</ele>
        <time>2022-06-11T08:52:48Z</time>
      </trkpt>
      <trkpt lat="44.07526" lon="7.23861">
        <ele>1409.1</ele>
        <time>2022-06-11T08:52:49Z</time>
      </trkpt>
      <trkpt lat="44.07526" lon="7.23861">
        <ele>1409.1</ele>
        <time>2022-06-11T08:52:50Z</time>
      </trkpt>
      <trkpt lat="44.07526" lon="7.23861">
        <ele>1409.1</ele>
        <time>2022-06-11T08:52:51Z</time>
      </trkpt>
      <trkpt lat="44.07526" lon="7.23861">
        <ele>1409.1</ele>
        <time>2022-06-11T08:52:52Z</time>
      </trkpt>
      <trkpt lat="44.07526" lon="7.23861">
        <ele>1409.1</ele>
        <time>2022-06-11T08:52:53Z</time>
      </trkpt>
      <trkpt lat="44.07526" lon="7.23861">
        <ele>1409.1</ele>
        <time>2022-06-11T08:52:54Z</time>
      </trkpt>
      <trkpt lat="44.07526" lon="7.23861">
        <ele>1409.1</ele>
        <time>2022-06-11T08:52:55Z</time>
      </trkpt>
      <trkpt lat="44.07526" lon="7.23861">
        <ele>1409.1</ele>
        <time>2022-06-11T08:52:56Z</time>
      </trkpt>
      <trkpt lat="44.07439" lon="7.23811">
        <ele>1392</ele>
        <time>2022-06-11T08:53:01Z</time>
      </trkpt>
      <trkpt lat="44.07444" lon="7.23807">
        <ele>1395.9</ele>
        <time>2022-06-11T08:53:02Z</time>
      </trkpt>
      <trkpt lat="44.07447" lon="7.23807">
        <ele>1397.8</ele>
        <time>2022-06-11T08:53:03Z</time>
      </trkpt>
      <trkpt lat="44.07452" lon="7.23807">
        <ele>1402.2</ele>
        <time>2022-06-11T08:53:04Z</time>
      </trkpt>
      <trkpt lat="44.07454" lon="7.23805">
        <ele>1405.1</ele>
        <time>2022-06-11T08:53:05Z</time>
      </trkpt>
      <trkpt lat="44.07456" lon="7.23803">
        <ele>1408.3</ele>
        <time>2022-06-11T08:53:06Z</time>
      </trkpt>
      <trkpt lat="44.07456" lon="7.23802">
        <ele>1409.1</ele>
        <time>2022-06-11T08:53:07Z</time>
      </trkpt>
      <trkpt lat="44.07455" lon="7.238">
        <ele>1409.7</ele>
        <time>2022-06-11T08:53:08Z</time>
      </trkpt>
      <trkpt lat="44.07453" lon="7.23798">
        <ele>1410.3</ele>
        <time>2022-06-11T08:53:09Z</time>
      </trkpt>
      <trkpt lat="44.07451" lon="7.23796">
        <ele>1411.1</ele>
        <time>2022-06-11T08:53:10Z</time>
      </trkpt>
      <trkpt lat="44.0745" lon="7.23794">
        <ele>1411.8</ele>
        <time>2022-06-11T08:53:11Z</time>
      </trkpt>
      <trkpt lat="44.0745" lon="7.23793">
        <ele>1412.6</ele>
        <time>2022-06-11T08:53:12Z</time>
      </trkpt>
      <trkpt lat="44.07448" lon="7.23792">
        <ele>1413</ele>
        <time>2022-06-11T08:53:13Z</time>
      </trkpt>
      <trkpt lat="44.07447" lon="7.2379">
        <ele>1413.4</ele>
        <time>2022-06-11T08:53:14Z</time>
      </trkpt>
      <trkpt lat="44.07446" lon="7.23789">
        <ele>1413.9</ele>
        <time>2022-06-11T08:53:15Z</time>
      </trkpt>
      <trkpt lat="44.07444" lon="7.23787">
        <ele>1415.2</ele>
        <time>2022-06-11T08:53:16Z</time>
      </trkpt>
      <trkpt lat="44.07443" lon="7.23785">
        <ele>1416.9</ele>
        <time>2022-06-11T08:53:17Z</time>
      </trkpt>
      <trkpt lat="44.07442" lon="7.23783">
        <ele>1418.7</ele>
        <time>2022-06-11T08:53:18Z</time>
      </trkpt>
      <trkpt lat="44.07441" lon="7.23781">
        <ele>1420.7</ele>
        <time>2022-06-11T08:53:19Z</time>
      </trkpt>
      <trkpt lat="44.0744" lon="7.23776">
        <ele>1426</ele>
        <time>2022-06-11T08:53:20Z</time>
      </trkpt>
      <trkpt lat="44.0744" lon="7.23776">
        <ele>1426</ele>
        <time>2022-06-11T08:53:21Z</time>
      </trkpt>
      <trkpt lat="44.0744" lon="7.23776">
        <ele>1426</ele>
        <time>2022-06-11T08:53:22Z</time>
      </trkpt>
      <trkpt lat="44.0744" lon="7.23776">
        <ele>1426</ele>
        <time>2022-06-11T08:53:23Z</time>
      </trkpt>
      <trkpt lat="44.0744" lon="7.23776">
        <ele>1426</ele>
        <time>2022-06-11T08:53:24Z</time>
      </trkpt>
      <trkpt lat="44.0744" lon="7.23776">
        <ele>1426</ele>
        <time>2022-06-11T08:53:25Z</time>
      </trkpt>
      <trkpt lat="44.0744" lon="7.23776">
        <ele>1426</ele>
        <time>2022-06-11T08:53:26Z</time>
      </trkpt>
      <trkpt lat="44.0744" lon="7.23776">
        <ele>1426</ele>
        <time>2022-06-11T08:53:27Z</time>
      </trkpt>
      <trkpt lat="44.0744" lon="7.23776">
        <ele>1426</ele>
        <time>2022-06-11T08:53:28Z</time>
      </trkpt>
      <trkpt lat="44.0744" lon="7.23776">
        <ele>1426</ele>
        <time>2022-06-11T08:53:29Z</time>
      </trkpt>
      <trkpt lat="44.0744" lon="7.23776">
        <ele>1426</ele>
        <time>2022-06-11T08:53:30Z</time>
      </trkpt>
      <trkpt lat="44.0744" lon="7.23776">
        <ele>1426</ele>
        <time>2022-06-11T08:53:31Z</time>
      </trkpt>
      <trkpt lat="44.0744" lon="7.23776">
        <ele>1426</ele>
        <time>2022-06-11T08:53:32Z</time>
      </trkpt>
      <trkpt lat="44.0744" lon="7.23776">
        <ele>1426</ele>
        <time>2022-06-11T08:53:33Z</time>
      </trkpt>
      <trkpt lat="44.0744" lon="7.23776">
        <ele>1426</ele>
        <time>2022-06-11T08:53:34Z</time>
      </trkpt>
      <trkpt lat="44.0744" lon="7.23776">
        <ele>1426</ele>
        <time>2022-06-11T08:53:35Z</time>
      </trkpt>
      <trkpt lat="44.0744" lon="7.23776">
        <ele>1426</ele>
        <time>2022-06-11T08:53:36Z</time>
      </trkpt>
      <trkpt lat="44.0744" lon="7.23776">
        <ele>1426</ele>
        <time>2022-06-11T08:53:37Z</time>
      </trkpt>
      <trkpt lat="44.0744" lon="7.23776">
        <ele>1426</ele>
        <time>2022-06-11T08:53:38Z</time>
      </trkpt>
      <trkpt lat="44.0744" lon="7.23776">
        <ele>1426</ele>
        <time>2022-06-11T08:53:39Z</time>
      </trkpt>
      <trkpt lat="44.0744" lon="7.23776">
        <ele>1426</ele>
        <time>2022-06-11T08:53:40Z</time>
      </trkpt>
      <trkpt lat="44.0744" lon="7.23776">
        <ele>1426</ele>
        <time>2022-06-11T08:53:41Z</time>
      </trkpt>
      <trkpt lat="44.074" lon="7.2365">
        <ele>1425.1</ele>
        <time>2022-06-11T08:53:46Z</time>
      </trkpt>
      <trkpt lat="44.07399" lon="7.23645">
        <ele>1424.1</ele>
        <time>2022-06-11T08:53:47Z</time>
      </trkpt>
      <trkpt lat="44.07399" lon="7.23641">
        <ele>1423.3</ele>
        <time>2022-06-11T08:53:48Z</time>
      </trkpt>
      <trkpt lat="44.074" lon="7.23637">
        <ele>1423.7</ele>
        <time>2022-06-11T08:53:49Z</time>
      </trkpt>
      <trkpt lat="44.07401" lon="7.23633">
        <ele>1424.6</ele>
        <time>2022-06-11T08:53:50Z</time>
      </trkpt>
      <trkpt lat="44.07402" lon="7.23629">
        <ele>1425.2</ele>
        <time>2022-06-11T08:53:51Z</time>
      </trkpt>
      <trkpt lat="44.07402" lon="7.23629">
        <ele>1425.2</ele>
        <time>2022-06-11T08:53:52Z</time>
      </trkpt>
      <trkpt lat="44.07402" lon="7.23622">
        <ele>1425.6</ele>
        <time>2022-06-11T08:53:53Z</time>
      </trkpt>
      <trkpt lat="44.07402" lon="7.23618">
        <ele>1425.9</ele>
        <time>2022-06-11T08:53:54Z</time>
      </trkpt>
      <trkpt lat="44.07403" lon="7.23615">
        <ele>1426.2</ele>
        <time>2022-06-11T08:53:55Z</time>
      </trkpt>
      <trkpt lat="44.07403" lon="7.23611">
        <ele>1426.7</ele>
        <time>2022-06-11T08:53:56Z</time>
      </trkpt>
      <trkpt lat="44.07403" lon="7.23608">
        <ele>1427.1</ele>
        <time>2022-06-11T08:53:57Z</time>
      </trkpt>
      <trkpt lat="44.07403" lon="7.23605">
        <ele>1427.5</ele>
        <time>2022-06-11T08:53:58Z</time>
      </trkpt>
      <trkpt lat="44.07403" lon="7.23602">
        <ele>1427.9</ele>
        <time>2022-06-11T08:53:59Z</time>
      </trkpt>
      <trkpt lat="44.07403" lon="7.23598">
        <ele>1428.3</ele>
        <time>2022-06-11T08:54:00Z</time>
      </trkpt>
      <trkpt lat="44.07403" lon="7.23595">
        <ele>1428.3</ele>
        <time>2022-06-11T08:54:01Z</time>
      </trkpt>
      <trkpt lat="44.07402" lon="7.23591">
        <ele>1428.4</ele>
        <time>2022-06-11T08:54:02Z</time>
      </trkpt>
      <trkpt lat="44.07402" lon="7.23587">
        <ele>1428.6</ele>
        <time>2022-06-11T08:54:03Z</time>
      </trkpt>
      <trkpt lat="44.07402" lon="7.23584">
        <ele>1429.1</ele>
        <time>2022-06-11T08:54:04Z</time>
      </trkpt>
      <trkpt lat="44.07403" lon="7.23581">
        <ele>1429.7</ele>
        <time>2022-06-11T08:54:05Z</time>
      </trkpt>
      <trkpt lat="44.07402" lon="7.23577">
        <ele>1430</ele>
        <time>2022-06-11T08:54:06Z</time>
      </trkpt>
      <trkpt lat="44.07402" lon="7.23573">
        <ele>1430.3</ele>
        <time>2022-06-11T08:54:07Z</time>
      </trkpt>
      <trkpt lat="44.07401" lon="7.2357">
        <ele>1430.7</ele>
        <time>2022-06-11T08:54:08Z</time>
      </trkpt>
      <trkpt lat="44.07401" lon="7.23566">
        <ele>1431.2</ele>
        <time>2022-06-11T08:54:09Z</time>
      </trkpt>
      <trkpt lat="44.07401" lon="7.23562">
        <ele>1431.5</ele>
        <time>2022-06-11T08:54:10Z</time>
      </trkpt>
      <trkpt lat="44.074" lon="7.23558">
        <ele>1432</ele>
        <time>2022-06-11T08:54:11Z</time>
      </trkpt>
      <trkpt lat="44.074" lon="7.23555">
        <ele>1432.2</ele>
        <time>2022-06-11T08:54:12Z</time>
      </trkpt>
      <trkpt lat="44.07399" lon="7.23551">
        <ele>1432.4</ele>
        <time>2022-06-11T08:54:13Z</time>
      </trkpt>
      <trkpt lat="44.07399" lon="7.23547">
        <ele>1432.7</ele>
        <time>2022-06-11T08:54:14Z</time>
      </trkpt>
      <trkpt lat="44.07398" lon="7.23544">
        <ele>1432.8</ele>
        <time>2022-06-11T08:54:15Z</time>
      </trkpt>
      <trkpt lat="44.07397" lon="7.23541">
        <ele>1432.8</ele>
        <time>2022-06-11T08:54:16Z</time>
      </trkpt>
      <trkpt lat="44.07396" lon="7.23538">
        <ele>1432.7</ele>
        <time>2022-06-11T08:54:17Z</time>
      </trkpt>
      <trkpt lat="44.07395" lon="7.23535">
        <ele>1432.2</ele>
        <time>2022-06-11T08:54:18Z</time>
      </trkpt>
      <trkpt lat="44.07393" lon="7.23532">
        <ele>1431.7</ele>
        <time>2022-06-11T08:54:19Z</time>
      </trkpt>
      <trkpt lat="44.07392" lon="7.23529">
        <ele>1431.3</ele>
        <time>2022-06-11T08:54:20Z</time>
      </trkpt>
      <trkpt lat="44.0739" lon="7.23526">
        <ele>1431.1</ele>
        <time>2022-06-11T08:54:21Z</time>
      </trkpt>
      <trkpt lat="44.07389" lon="7.23523">
        <ele>1431.2</ele>
        <time>2022-06-11T08:54:22Z</time>
      </trkpt>
      <trkpt lat="44.07388" lon="7.2352">
        <ele>1431.3</ele>
        <time>2022-06-11T08:54:23Z</time>
      </trkpt>
      <trkpt lat="44.07386" lon="7.23517">
        <ele>1431.2</ele>
        <time>2022-06-11T08:54:24Z</time>
      </trkpt>
      <trkpt lat="44.07385" lon="7.23514">
        <ele>1431.4</ele>
        <time>2022-06-11T08:54:25Z</time>
      </trkpt>
      <trkpt lat="44.07384" lon="7.23511">
        <ele>1431.6</ele>
        <time>2022-06-11T08:54:26Z</time>
      </trkpt>
      <trkpt lat="44.07382" lon="7.23508">
        <ele>1431.7</ele>
        <time>2022-06-11T08:54:27Z</time>
      </trkpt>
      <trkpt lat="44.07381" lon="7.23505">
        <ele>1431.8</ele>
        <time>2022-06-11T08:54:28Z</time>
      </trkpt>
      <trkpt lat="44.0738" lon="7.23502">
        <ele>1431.9</ele>
        <time>2022-06-11T08:54:29Z</time>
      </trkpt>
      <trkpt lat="44.07378" lon="7.23499">
        <ele>1431.9</ele>
        <time>2022-06-11T08:54:30Z</time>
      </trkpt>
      <trkpt lat="44.07377" lon="7.23496">
        <ele>1432.1</ele>
        <time>2022-06-11T08:54:31Z</time>
      </trkpt>
      <trkpt lat="44.07375" lon="7.23493">
        <ele>1432.1</ele>
        <time>2022-06-11T08:54:32Z</time>
      </trkpt>
      <trkpt lat="44.07374" lon="7.2349">
        <ele>1432.2</ele>
        <time>2022-06-11T08:54:33Z</time>
      </trkpt>
      <trkpt lat="44.07373" lon="7.23487">
        <ele>1432.3</ele>
        <time>2022-06-11T08:54:34Z</time>
      </trkpt>
      <trkpt lat="44.07371" lon="7.23484">
        <ele>1432.5</ele>
        <time>2022-06-11T08:54:35Z</time>
      </trkpt>
      <trkpt lat="44.0737" lon="7.23482">
        <ele>1432.6</ele>
        <time>2022-06-11T08:54:36Z</time>
      </trkpt>
      <trkpt lat="44.07369" lon="7.23479">
        <ele>1432.8</ele>
        <time>2022-06-11T08:54:37Z</time>
      </trkpt>
      <trkpt lat="44.07368" lon="7.23476">
        <ele>1432.9</ele>
        <time>2022-06-11T08:54:38Z</time>
      </trkpt>
      <trkpt lat="44.07367" lon="7.23473">
        <ele>1433.3</ele>
        <time>2022-06-11T08:54:39Z</time>
      </trkpt>
      <trkpt lat="44.07367" lon="7.23473">
        <ele>1433.3</ele>
        <time>2022-06-11T08:54:40Z</time>
      </trkpt>
      <trkpt lat="44.07365" lon="7.23467">
        <ele>1434</ele>
        <time>2022-06-11T08:54:41Z</time>
      </trkpt>
      <trkpt lat="44.07363" lon="7.23465">
        <ele>1434.3</ele>
        <time>2022-06-11T08:54:42Z</time>
      </trkpt>
      <trkpt lat="44.07363" lon="7.23465">
        <ele>1434.3</ele>
        <time>2022-06-11T08:54:43Z</time>
      </trkpt>
      <trkpt lat="44.0736" lon="7.23459">
        <ele>1434.3</ele>
        <time>2022-06-11T08:54:44Z</time>
      </trkpt>
      <trkpt lat="44.07359" lon="7.23457">
        <ele>1434.3</ele>
        <time>2022-06-11T08:54:45Z</time>
      </trkpt>
      <trkpt lat="44.07358" lon="7.23454">
        <ele>1434.6</ele>
        <time>2022-06-11T08:54:46Z</time>
      </trkpt>
      <trkpt lat="44.07357" lon="7.23451">
        <ele>1434.9</ele>
        <time>2022-06-11T08:54:47Z</time>
      </trkpt>
      <trkpt lat="44.07356" lon="7.23448">
        <ele>1435.2</ele>
        <time>2022-06-11T08:54:48Z</time>
      </trkpt>
      <trkpt lat="44.07356" lon="7.23448">
        <ele>1435.2</ele>
        <time>2022-06-11T08:54:49Z</time>
      </trkpt>
      <trkpt lat="44.07354" lon="7.23442">
        <ele>1435.7</ele>
        <time>2022-06-11T08:54:50Z</time>
      </trkpt>
      <trkpt lat="44.07353" lon="7.23439">
        <ele>1435.9</ele>
        <time>2022-06-11T08:54:51Z</time>
      </trkpt>
      <trkpt lat="44.07352" lon="7.23436">
        <ele>1436</ele>
        <time>2022-06-11T08:54:52Z</time>
      </trkpt>
      <trkpt lat="44.07352" lon="7.23436">
        <ele>1436</ele>
        <time>2022-06-11T08:54:53Z</time>
      </trkpt>
      <trkpt lat="44.07349" lon="7.2343">
        <ele>1436.2</ele>
        <time>2022-06-11T08:54:54Z</time>
      </trkpt>
      <trkpt lat="44.07348" lon="7.23427">
        <ele>1436.4</ele>
        <time>2022-06-11T08:54:55Z</time>
      </trkpt>
      <trkpt lat="44.07347" lon="7.23424">
        <ele>1436.5</ele>
        <time>2022-06-11T08:54:56Z</time>
      </trkpt>
      <trkpt lat="44.07345" lon="7.23421">
        <ele>1436.6</ele>
        <time>2022-06-11T08:54:57Z</time>
      </trkpt>
      <trkpt lat="44.07345" lon="7.23421">
        <ele>1436.6</ele>
        <time>2022-06-11T08:54:58Z</time>
      </trkpt>
      <trkpt lat="44.07343" lon="7.23415">
        <ele>1437</ele>
        <time>2022-06-11T08:54:59Z</time>
      </trkpt>
      <trkpt lat="44.07342" lon="7.23412">
        <ele>1437</ele>
        <time>2022-06-11T08:55:00Z</time>
      </trkpt>
      <trkpt lat="44.07341" lon="7.23409">
        <ele>1437</ele>
        <time>2022-06-11T08:55:01Z</time>
      </trkpt>
      <trkpt lat="44.07341" lon="7.23409">
        <ele>1437</ele>
        <time>2022-06-11T08:55:02Z</time>
      </trkpt>
      <trkpt lat="44.07339" lon="7.23403">
        <ele>1437.3</ele>
        <time>2022-06-11T08:55:03Z</time>
      </trkpt>
      <trkpt lat="44.07337" lon="7.234">
        <ele>1437.3</ele>
        <time>2022-06-11T08:55:04Z</time>
      </trkpt>
      <trkpt lat="44.07336" lon="7.23397">
        <ele>1437.5</ele>
        <time>2022-06-11T08:55:05Z</time>
      </trkpt>
      <trkpt lat="44.07335" lon="7.23394">
        <ele>1437.3</ele>
        <time>2022-06-11T08:55:06Z</time>
      </trkpt>
      <trkpt lat="44.07333" lon="7.23391">
        <ele>1437.4</ele>
        <time>2022-06-11T08:55:07Z</time>
      </trkpt>
      <trkpt lat="44.07332" lon="7.23388">
        <ele>1437.3</ele>
        <time>2022-06-11T08:55:08Z</time>
      </trkpt>
      <trkpt lat="44.07331" lon="7.23385">
        <ele>1437.5</ele>
        <time>2022-06-11T08:55:09Z</time>
      </trkpt>
      <trkpt lat="44.07329" lon="7.23381">
        <ele>1437.5</ele>
        <time>2022-06-11T08:55:10Z</time>
      </trkpt>
      <trkpt lat="44.07328" lon="7.23378">
        <ele>1437.5</ele>
        <time>2022-06-11T08:55:11Z</time>
      </trkpt>
      <trkpt lat="44.07327" lon="7.23375">
        <ele>1437.5</ele>
        <time>2022-06-11T08:55:12Z</time>
      </trkpt>
      <trkpt lat="44.07325" lon="7.23372">
        <ele>1437.6</ele>
        <time>2022-06-11T08:55:13Z</time>
      </trkpt>
      <trkpt lat="44.07324" lon="7.23368">
        <ele>1437.9</ele>
        <time>2022-06-11T08:55:14Z</time>
      </trkpt>
      <trkpt lat="44.07323" lon="7.23365">
        <ele>1438</ele>
        <time>2022-06-11T08:55:15Z</time>
      </trkpt>
      <trkpt lat="44.07322" lon="7.23361">
        <ele>1438.4</ele>
        <time>2022-06-11T08:55:16Z</time>
      </trkpt>
      <trkpt lat="44.07322" lon="7.23358">
        <ele>1438.8</ele>
        <time>2022-06-11T08:55:17Z</time>
      </trkpt>
      <trkpt lat="44.07321" lon="7.23354">
        <ele>1439</ele>
        <time>2022-06-11T08:55:18Z</time>
      </trkpt>
      <trkpt lat="44.07321" lon="7.2335">
        <ele>1439.3</ele>
        <time>2022-06-11T08:55:19Z</time>
      </trkpt>
      <trkpt lat="44.07321" lon="7.23347">
        <ele>1439.9</ele>
        <time>2022-06-11T08:55:20Z</time>
      </trkpt>
      <trkpt lat="44.07321" lon="7.23343">
        <ele>1440.5</ele>
        <time>2022-06-11T08:55:21Z</time>
      </trkpt>
      <trkpt lat="44.07321" lon="7.2334">
        <ele>1441</ele>
        <time>2022-06-11T08:55:22Z</time>
      </trkpt>
      <trkpt lat="44.07321" lon="7.23337">
        <ele>1441.7</ele>
        <time>2022-06-11T08:55:23Z</time>
      </trkpt>
      <trkpt lat="44.07321" lon="7.23334">
        <ele>1442.2</ele>
        <time>2022-06-11T08:55:24Z</time>
      </trkpt>
      <trkpt lat="44.07321" lon="7.2333">
        <ele>1442.8</ele>
        <time>2022-06-11T08:55:25Z</time>
      </trkpt>
      <trkpt lat="44.07321" lon="7.23327">
        <ele>1443.2</ele>
        <time>2022-06-11T08:55:26Z</time>
      </trkpt>
      <trkpt lat="44.07321" lon="7.23323">
        <ele>1443.8</ele>
        <time>2022-06-11T08:55:27Z</time>
      </trkpt>
      <trkpt lat="44.07322" lon="7.2332">
        <ele>1444.4</ele>
        <time>2022-06-11T08:55:28Z</time>
      </trkpt>
      <trkpt lat="44.07322" lon="7.23317">
        <ele>1444.8</ele>
        <time>2022-06-11T08:55:29Z</time>
      </trkpt>
      <trkpt lat="44.07322" lon="7.23314">
        <ele>1445.4</ele>
        <time>2022-06-11T08:55:30Z</time>
      </trkpt>
      <trkpt lat="44.07322" lon="7.23311">
        <ele>1445.8</ele>
        <time>2022-06-11T08:55:31Z</time>
      </trkpt>
      <trkpt lat="44.07322" lon="7.23307">
        <ele>1446.2</ele>
        <time>2022-06-11T08:55:32Z</time>
      </trkpt>
      <trkpt lat="44.07322" lon="7.23304">
        <ele>1446.5</ele>
        <time>2022-06-11T08:55:33Z</time>
      </trkpt>
      <trkpt lat="44.07322" lon="7.23301">
        <ele>1446.9</ele>
        <time>2022-06-11T08:55:34Z</time>
      </trkpt>
      <trkpt lat="44.07322" lon="7.23297">
        <ele>1447.4</ele>
        <time>2022-06-11T08:55:35Z</time>
      </trkpt>
      <trkpt lat="44.07323" lon="7.23294">
        <ele>1448</ele>
        <time>2022-06-11T08:55:36Z</time>
      </trkpt>
      <trkpt lat="44.07323" lon="7.23291">
        <ele>1448.7</ele>
        <time>2022-06-11T08:55:37Z</time>
      </trkpt>
      <trkpt lat="44.07324" lon="7.23288">
        <ele>1449.3</ele>
        <time>2022-06-11T08:55:38Z</time>
      </trkpt>
      <trkpt lat="44.07324" lon="7.23288">
        <ele>1449.3</ele>
        <time>2022-06-11T08:55:39Z</time>
      </trkpt>
      <trkpt lat="44.07324" lon="7.2328">
        <ele>1450.2</ele>
        <time>2022-06-11T08:55:40Z</time>
      </trkpt>
      <trkpt lat="44.07324" lon="7.23277">
        <ele>1450.6</ele>
        <time>2022-06-11T08:55:41Z</time>
      </trkpt>
      <trkpt lat="44.07324" lon="7.23273">
        <ele>1451.1</ele>
        <time>2022-06-11T08:55:42Z</time>
      </trkpt>
      <trkpt lat="44.07323" lon="7.2327">
        <ele>1451.2</ele>
        <time>2022-06-11T08:55:43Z</time>
      </trkpt>
      <trkpt lat="44.07322" lon="7.23267">
        <ele>1451.3</ele>
        <time>2022-06-11T08:55:44Z</time>
      </trkpt>
      <trkpt lat="44.07321" lon="7.23264">
        <ele>1451.2</ele>
        <time>2022-06-11T08:55:45Z</time>
      </trkpt>
      <trkpt lat="44.07319" lon="7.23261">
        <ele>1450.8</ele>
        <time>2022-06-11T08:55:46Z</time>
      </trkpt>
      <trkpt lat="44.07318" lon="7.23258">
        <ele>1450.5</ele>
        <time>2022-06-11T08:55:47Z</time>
      </trkpt>
      <trkpt lat="44.07316" lon="7.23256">
        <ele>1450.1</ele>
        <time>2022-06-11T08:55:48Z</time>
      </trkpt>
      <trkpt lat="44.07314" lon="7.23253">
        <ele>1449.9</ele>
        <time>2022-06-11T08:55:49Z</time>
      </trkpt>
      <trkpt lat="44.07313" lon="7.2325">
        <ele>1449.6</ele>
        <time>2022-06-11T08:55:50Z</time>
      </trkpt>
      <trkpt lat="44.07313" lon="7.2325">
        <ele>1449.6</ele>
        <time>2022-06-11T08:55:51Z</time>
      </trkpt>
      <trkpt lat="44.0731" lon="7.23245">
        <ele>1449.4</ele>
        <time>2022-06-11T08:55:52Z</time>
      </trkpt>
      <trkpt lat="44.07309" lon="7.23242">
        <ele>1449.3</ele>
        <time>2022-06-11T08:55:53Z</time>
      </trkpt>
      <trkpt lat="44.07309" lon="7.23242">
        <ele>1449.3</ele>
        <time>2022-06-11T08:55:54Z</time>
      </trkpt>
      <trkpt lat="44.07309" lon="7.23242">
        <ele>1449.3</ele>
        <time>2022-06-11T08:55:55Z</time>
      </trkpt>
      <trkpt lat="44.07304" lon="7.23234">
        <ele>1448.9</ele>
        <time>2022-06-11T08:55:56Z</time>
      </trkpt>
      <trkpt lat="44.07303" lon="7.23232">
        <ele>1448.8</ele>
        <time>2022-06-11T08:55:57Z</time>
      </trkpt>
      <trkpt lat="44.07303" lon="7.23232">
        <ele>1448.8</ele>
        <time>2022-06-11T08:55:58Z</time>
      </trkpt>
      <trkpt lat="44.073" lon="7.23226">
        <ele>1448.9</ele>
        <time>2022-06-11T08:55:59Z</time>
      </trkpt>
      <trkpt lat="44.07298" lon="7.23224">
        <ele>1448.9</ele>
        <time>2022-06-11T08:56:00Z</time>
      </trkpt>
      <trkpt lat="44.07297" lon="7.23222">
        <ele>1449</ele>
        <time>2022-06-11T08:56:01Z</time>
      </trkpt>
      <trkpt lat="44.07295" lon="7.23219">
        <ele>1449.2</ele>
        <time>2022-06-11T08:56:02Z</time>
      </trkpt>
      <trkpt lat="44.07293" lon="7.23217">
        <ele>1449.3</ele>
        <time>2022-06-11T08:56:03Z</time>
      </trkpt>
      <trkpt lat="44.07292" lon="7.23214">
        <ele>1449.6</ele>
        <time>2022-06-11T08:56:04Z</time>
      </trkpt>
      <trkpt lat="44.07291" lon="7.23211">
        <ele>1449.9</ele>
        <time>2022-06-11T08:56:05Z</time>
      </trkpt>
      <trkpt lat="44.07289" lon="7.23209">
        <ele>1450.1</ele>
        <time>2022-06-11T08:56:06Z</time>
      </trkpt>
      <trkpt lat="44.07287" lon="7.23206">
        <ele>1450.3</ele>
        <time>2022-06-11T08:56:07Z</time>
      </trkpt>
      <trkpt lat="44.07286" lon="7.23203">
        <ele>1450.5</ele>
        <time>2022-06-11T08:56:08Z</time>
      </trkpt>
      <trkpt lat="44.07284" lon="7.23201">
        <ele>1450.7</ele>
        <time>2022-06-11T08:56:09Z</time>
      </trkpt>
      <trkpt lat="44.07282" lon="7.23198">
        <ele>1450.9</ele>
        <time>2022-06-11T08:56:10Z</time>
      </trkpt>
      <trkpt lat="44.07281" lon="7.23195">
        <ele>1451</ele>
        <time>2022-06-11T08:56:11Z</time>
      </trkpt>
      <trkpt lat="44.07279" lon="7.23193">
        <ele>1451.1</ele>
        <time>2022-06-11T08:56:12Z</time>
      </trkpt>
      <trkpt lat="44.07277" lon="7.2319">
        <ele>1451.2</ele>
        <time>2022-06-11T08:56:13Z</time>
      </trkpt>
      <trkpt lat="44.07275" lon="7.23187">
        <ele>1451.3</ele>
        <time>2022-06-11T08:56:14Z</time>
      </trkpt>
      <trkpt lat="44.07273" lon="7.23185">
        <ele>1451.4</ele>
        <time>2022-06-11T08:56:15Z</time>
      </trkpt>
      <trkpt lat="44.0727" lon="7.23182">
        <ele>1451.3</ele>
        <time>2022-06-11T08:56:16Z</time>
      </trkpt>
      <trkpt lat="44.07267" lon="7.23179">
        <ele>1451.3</ele>
        <time>2022-06-11T08:56:17Z</time>
      </trkpt>
      <trkpt lat="44.07265" lon="7.23176">
        <ele>1451.4</ele>
        <time>2022-06-11T08:56:18Z</time>
      </trkpt>
      <trkpt lat="44.07262" lon="7.23173">
        <ele>1451.5</ele>
        <time>2022-06-11T08:56:19Z</time>
      </trkpt>
      <trkpt lat="44.0726" lon="7.2317">
        <ele>1451.7</ele>
        <time>2022-06-11T08:56:20Z</time>
      </trkpt>
      <trkpt lat="44.07258" lon="7.23168">
        <ele>1451.5</ele>
        <time>2022-06-11T08:56:21Z</time>
      </trkpt>
      <trkpt lat="44.07256" lon="7.23165">
        <ele>1451.4</ele>
        <time>2022-06-11T08:56:22Z</time>
      </trkpt>
      <trkpt lat="44.07254" lon="7.23162">
        <ele>1451.5</ele>
        <time>2022-06-11T08:56:23Z</time>
      </trkpt>
      <trkpt lat="44.07252" lon="7.2316">
        <ele>1451.3</ele>
        <time>2022-06-11T08:56:24Z</time>
      </trkpt>
      <trkpt lat="44.0725" lon="7.23158">
        <ele>1451.3</ele>
        <time>2022-06-11T08:56:25Z</time>
      </trkpt>
      <trkpt lat="44.07248" lon="7.23156">
        <ele>1451</ele>
        <time>2022-06-11T08:56:26Z</time>
      </trkpt>
      <trkpt lat="44.07246" lon="7.23154">
        <ele>1450.9</ele>
        <time>2022-06-11T08:56:27Z</time>
      </trkpt>
      <trkpt lat="44.07244" lon="7.23152">
        <ele>1450.9</ele>
        <time>2022-06-11T08:56:28Z</time>
      </trkpt>
      <trkpt lat="44.07242" lon="7.23149">
        <ele>1450.9</ele>
        <time>2022-06-11T08:56:29Z</time>
      </trkpt>
      <trkpt lat="44.07241" lon="7.23147">
        <ele>1450.9</ele>
        <time>2022-06-11T08:56:30Z</time>
      </trkpt>
      <trkpt lat="44.07239" lon="7.23144">
        <ele>1451.1</ele>
        <time>2022-06-11T08:56:31Z</time>
      </trkpt>
      <trkpt lat="44.07237" lon="7.23142">
        <ele>1451.2</ele>
        <time>2022-06-11T08:56:32Z</time>
      </trkpt>
      <trkpt lat="44.07236" lon="7.23139">
        <ele>1451.4</ele>
        <time>2022-06-11T08:56:33Z</time>
      </trkpt>
      <trkpt lat="44.07235" lon="7.23136">
        <ele>1451.7</ele>
        <time>2022-06-11T08:56:34Z</time>
      </trkpt>
      <trkpt lat="44.07234" lon="7.23133">
        <ele>1452</ele>
        <time>2022-06-11T08:56:35Z</time>
      </trkpt>
      <trkpt lat="44.07233" lon="7.2313">
        <ele>1452.3</ele>
        <time>2022-06-11T08:56:36Z</time>
      </trkpt>
      <trkpt lat="44.07232" lon="7.23127">
        <ele>1452.8</ele>
        <time>2022-06-11T08:56:37Z</time>
      </trkpt>
      <trkpt lat="44.07231" lon="7.23124">
        <ele>1453.4</ele>
        <time>2022-06-11T08:56:38Z</time>
      </trkpt>
      <trkpt lat="44.07231" lon="7.2312">
        <ele>1454</ele>
        <time>2022-06-11T08:56:39Z</time>
      </trkpt>
      <trkpt lat="44.07231" lon="7.2312">
        <ele>1454</ele>
        <time>2022-06-11T08:56:40Z</time>
      </trkpt>
      <trkpt lat="44.0723" lon="7.23113">
        <ele>1455.3</ele>
        <time>2022-06-11T08:56:41Z</time>
      </trkpt>
      <trkpt lat="44.07229" lon="7.2311">
        <ele>1455.8</ele>
        <time>2022-06-11T08:56:42Z</time>
      </trkpt>
      <trkpt lat="44.07229" lon="7.2311">
        <ele>1455.8</ele>
        <time>2022-06-11T08:56:43Z</time>
      </trkpt>
      <trkpt lat="44.07229" lon="7.23103">
        <ele>1456.4</ele>
        <time>2022-06-11T08:56:44Z</time>
      </trkpt>
      <trkpt lat="44.07228" lon="7.231">
        <ele>1456.7</ele>
        <time>2022-06-11T08:56:45Z</time>
      </trkpt>
      <trkpt lat="44.07228" lon="7.23097">
        <ele>1457</ele>
        <time>2022-06-11T08:56:46Z</time>
      </trkpt>
      <trkpt lat="44.07227" lon="7.23094">
        <ele>1457.3</ele>
        <time>2022-06-11T08:56:47Z</time>
      </trkpt>
      <trkpt lat="44.07227" lon="7.23094">
        <ele>1457.3</ele>
        <time>2022-06-11T08:56:48Z</time>
      </trkpt>
      <trkpt lat="44.07227" lon="7.23094">
        <ele>1457.3</ele>
        <time>2022-06-11T08:56:49Z</time>
      </trkpt>
      <trkpt lat="44.07227" lon="7.23085">
        <ele>1458.4</ele>
        <time>2022-06-11T08:56:50Z</time>
      </trkpt>
      <trkpt lat="44.07226" lon="7.23081">
        <ele>1458.7</ele>
        <time>2022-06-11T08:56:51Z</time>
      </trkpt>
      <trkpt lat="44.07226" lon="7.23078">
        <ele>1458.9</ele>
        <time>2022-06-11T08:56:52Z</time>
      </trkpt>
      <trkpt lat="44.07226" lon="7.23075">
        <ele>1459.3</ele>
        <time>2022-06-11T08:56:53Z</time>
      </trkpt>
      <trkpt lat="44.07225" lon="7.23072">
        <ele>1459.7</ele>
        <time>2022-06-11T08:56:54Z</time>
      </trkpt>
      <trkpt lat="44.07225" lon="7.23068">
        <ele>1459.9</ele>
        <time>2022-06-11T08:56:55Z</time>
      </trkpt>
      <trkpt lat="44.07224" lon="7.23065">
        <ele>1460.2</ele>
        <time>2022-06-11T08:56:56Z</time>
      </trkpt>
      <trkpt lat="44.07224" lon="7.23065">
        <ele>1460.2</ele>
        <time>2022-06-11T08:56:57Z</time>
      </trkpt>
      <trkpt lat="44.07224" lon="7.23059">
        <ele>1461</ele>
        <time>2022-06-11T08:56:58Z</time>
      </trkpt>
      <trkpt lat="44.07223" lon="7.23056">
        <ele>1461.3</ele>
        <time>2022-06-11T08:56:59Z</time>
      </trkpt>
      <trkpt lat="44.07223" lon="7.23053">
        <ele>1461.5</ele>
        <time>2022-06-11T08:57:00Z</time>
      </trkpt>
      <trkpt lat="44.07224" lon="7.23049">
        <ele>1461.9</ele>
        <time>2022-06-11T08:57:01Z</time>
      </trkpt>
      <trkpt lat="44.07224" lon="7.23046">
        <ele>1462.3</ele>
        <time>2022-06-11T08:57:02Z</time>
      </trkpt>
      <trkpt lat="44.07224" lon="7.23043">
        <ele>1462.5</ele>
        <time>2022-06-11T08:57:03Z</time>
      </trkpt>
      <trkpt lat="44.07224" lon="7.2304">
        <ele>1462.6</ele>
        <time>2022-06-11T08:57:04Z</time>
      </trkpt>
      <trkpt lat="44.07223" lon="7.23037">
        <ele>1462.6</ele>
        <time>2022-06-11T08:57:05Z</time>
      </trkpt>
      <trkpt lat="44.07223" lon="7.23034">
        <ele>1462.7</ele>
        <time>2022-06-11T08:57:06Z</time>
      </trkpt>
      <trkpt lat="44.07222" lon="7.23031">
        <ele>1462.8</ele>
        <time>2022-06-11T08:57:07Z</time>
      </trkpt>
      <trkpt lat="44.07222" lon="7.23028">
        <ele>1462.9</ele>
        <time>2022-06-11T08:57:08Z</time>
      </trkpt>
      <trkpt lat="44.07222" lon="7.23025">
        <ele>1463.2</ele>
        <time>2022-06-11T08:57:09Z</time>
      </trkpt>
      <trkpt lat="44.07221" lon="7.23022">
        <ele>1463.3</ele>
        <time>2022-06-11T08:57:10Z</time>
      </trkpt>
      <trkpt lat="44.07221" lon="7.23019">
        <ele>1463.5</ele>
        <time>2022-06-11T08:57:11Z</time>
      </trkpt>
      <trkpt lat="44.07221" lon="7.23016">
        <ele>1463.8</ele>
        <time>2022-06-11T08:57:12Z</time>
      </trkpt>
      <trkpt lat="44.0722" lon="7.23012">
        <ele>1464</ele>
        <time>2022-06-11T08:57:13Z</time>
      </trkpt>
      <trkpt lat="44.0722" lon="7.2301">
        <ele>1464.1</ele>
        <time>2022-06-11T08:57:14Z</time>
      </trkpt>
      <trkpt lat="44.07219" lon="7.23007">
        <ele>1464.2</ele>
        <time>2022-06-11T08:57:15Z</time>
      </trkpt>
      <trkpt lat="44.07218" lon="7.23004">
        <ele>1463.9</ele>
        <time>2022-06-11T08:57:16Z</time>
      </trkpt>
      <trkpt lat="44.07217" lon="7.23001">
        <ele>1463.9</ele>
        <time>2022-06-11T08:57:17Z</time>
      </trkpt>
      <trkpt lat="44.07216" lon="7.22998">
        <ele>1464.1</ele>
        <time>2022-06-11T08:57:18Z</time>
      </trkpt>
      <trkpt lat="44.07216" lon="7.22995">
        <ele>1464.2</ele>
        <time>2022-06-11T08:57:19Z</time>
      </trkpt>
      <trkpt lat="44.07216" lon="7.22992">
        <ele>1464.6</ele>
        <time>2022-06-11T08:57:20Z</time>
      </trkpt>
      <trkpt lat="44.07216" lon="7.22989">
        <ele>1465</ele>
        <time>2022-06-11T08:57:21Z</time>
      </trkpt>
      <trkpt lat="44.07216" lon="7.22985">
        <ele>1465.2</ele>
        <time>2022-06-11T08:57:22Z</time>
      </trkpt>
      <trkpt lat="44.07216" lon="7.22983">
        <ele>1465.5</ele>
        <time>2022-06-11T08:57:23Z</time>
      </trkpt>
      <trkpt lat="44.07215" lon="7.22979">
        <ele>1465.7</ele>
        <time>2022-06-11T08:57:24Z</time>
      </trkpt>
      <trkpt lat="44.07214" lon="7.22975">
        <ele>1465.8</ele>
        <time>2022-06-11T08:57:25Z</time>
      </trkpt>
      <trkpt lat="44.07214" lon="7.22971">
        <ele>1466</ele>
        <time>2022-06-11T08:57:26Z</time>
      </trkpt>
      <trkpt lat="44.07213" lon="7.22968">
        <ele>1466.1</ele>
        <time>2022-06-11T08:57:27Z</time>
      </trkpt>
      <trkpt lat="44.07213" lon="7.22965">
        <ele>1466.2</ele>
        <time>2022-06-11T08:57:28Z</time>
      </trkpt>
      <trkpt lat="44.07212" lon="7.22962">
        <ele>1466.3</ele>
        <time>2022-06-11T08:57:29Z</time>
      </trkpt>
      <trkpt lat="44.07211" lon="7.22958">
        <ele>1466.3</ele>
        <time>2022-06-11T08:57:30Z</time>
      </trkpt>
      <trkpt lat="44.0721" lon="7.22953">
        <ele>1466.3</ele>
        <time>2022-06-11T08:57:31Z</time>
      </trkpt>
      <trkpt lat="44.0721" lon="7.2295">
        <ele>1466.6</ele>
        <time>2022-06-11T08:57:32Z</time>
      </trkpt>
      <trkpt lat="44.0721" lon="7.22947">
        <ele>1466.7</ele>
        <time>2022-06-11T08:57:33Z</time>
      </trkpt>
      <trkpt lat="44.07209" lon="7.22944">
        <ele>1466.9</ele>
        <time>2022-06-11T08:57:34Z</time>
      </trkpt>
      <trkpt lat="44.07209" lon="7.2294">
        <ele>1467</ele>
        <time>2022-06-11T08:57:35Z</time>
      </trkpt>
      <trkpt lat="44.07209" lon="7.22937">
        <ele>1467.1</ele>
        <time>2022-06-11T08:57:36Z</time>
      </trkpt>
      <trkpt lat="44.07208" lon="7.22934">
        <ele>1467.2</ele>
        <time>2022-06-11T08:57:37Z</time>
      </trkpt>
      <trkpt lat="44.07208" lon="7.22931">
        <ele>1467.3</ele>
        <time>2022-06-11T08:57:38Z</time>
      </trkpt>
      <trkpt lat="44.07208" lon="7.22931">
        <ele>1467.3</ele>
        <time>2022-06-11T08:57:39Z</time>
      </trkpt>
      <trkpt lat="44.07207" lon="7.22924">
        <ele>1467.6</ele>
        <time>2022-06-11T08:57:40Z</time>
      </trkpt>
      <trkpt lat="44.07207" lon="7.22924">
        <ele>1467.6</ele>
        <time>2022-06-11T08:57:41Z</time>
      </trkpt>
      <trkpt lat="44.07207" lon="7.22924">
        <ele>1467.6</ele>
        <time>2022-06-11T08:57:42Z</time>
      </trkpt>
      <trkpt lat="44.07206" lon="7.22914">
        <ele>1468</ele>
        <time>2022-06-11T08:57:43Z</time>
      </trkpt>
      <trkpt lat="44.07206" lon="7.22911">
        <ele>1468.2</ele>
        <time>2022-06-11T08:57:44Z</time>
      </trkpt>
      <trkpt lat="44.07206" lon="7.22908">
        <ele>1468.4</ele>
        <time>2022-06-11T08:57:45Z</time>
      </trkpt>
      <trkpt lat="44.07205" lon="7.22905">
        <ele>1468.5</ele>
        <time>2022-06-11T08:57:46Z</time>
      </trkpt>
      <trkpt lat="44.07204" lon="7.22902">
        <ele>1468.5</ele>
        <time>2022-06-11T08:57:47Z</time>
      </trkpt>
      <trkpt lat="44.07204" lon="7.22902">
        <ele>1468.5</ele>
        <time>2022-06-11T08:57:48Z</time>
      </trkpt>
      <trkpt lat="44.07202" lon="7.22896">
        <ele>1468.6</ele>
        <time>2022-06-11T08:57:49Z</time>
      </trkpt>
      <trkpt lat="44.07202" lon="7.22893">
        <ele>1468.8</ele>
        <time>2022-06-11T08:57:50Z</time>
      </trkpt>
      <trkpt lat="44.07202" lon="7.22893">
        <ele>1468.8</ele>
        <time>2022-06-11T08:57:51Z</time>
      </trkpt>
      <trkpt lat="44.07201" lon="7.22886">
        <ele>1469.1</ele>
        <time>2022-06-11T08:57:52Z</time>
      </trkpt>
      <trkpt lat="44.07201" lon="7.22883">
        <ele>1469.3</ele>
        <time>2022-06-11T08:57:53Z</time>
      </trkpt>
      <trkpt lat="44.07201" lon="7.2288">
        <ele>1469.4</ele>
        <time>2022-06-11T08:57:54Z</time>
      </trkpt>
      <trkpt lat="44.072" lon="7.22877">
        <ele>1469.5</ele>
        <time>2022-06-11T08:57:55Z</time>
      </trkpt>
      <trkpt lat="44.07199" lon="7.22873">
        <ele>1469.5</ele>
        <time>2022-06-11T08:57:56Z</time>
      </trkpt>
      <trkpt lat="44.07199" lon="7.2287">
        <ele>1469.7</ele>
        <time>2022-06-11T08:57:57Z</time>
      </trkpt>
      <trkpt lat="44.07199" lon="7.22867">
        <ele>1469.8</ele>
        <time>2022-06-11T08:57:58Z</time>
      </trkpt>
      <trkpt lat="44.07198" lon="7.22863">
        <ele>1469.9</ele>
        <time>2022-06-11T08:57:59Z</time>
      </trkpt>
      <trkpt lat="44.07198" lon="7.2286">
        <ele>1470</ele>
        <time>2022-06-11T08:58:00Z</time>
      </trkpt>
      <trkpt lat="44.07197" lon="7.22857">
        <ele>1470.1</ele>
        <time>2022-06-11T08:58:01Z</time>
      </trkpt>
      <trkpt lat="44.07197" lon="7.22854">
        <ele>1470.1</ele>
        <time>2022-06-11T08:58:02Z</time>
      </trkpt>
      <trkpt lat="44.07196" lon="7.22851">
        <ele>1470.2</ele>
        <time>2022-06-11T08:58:03Z</time>
      </trkpt>
      <trkpt lat="44.07194" lon="7.22847">
        <ele>1469.9</ele>
        <time>2022-06-11T08:58:04Z</time>
      </trkpt>
      <trkpt lat="44.07192" lon="7.22843">
        <ele>1469.8</ele>
        <time>2022-06-11T08:58:05Z</time>
      </trkpt>
      <trkpt lat="44.07191" lon="7.22839">
        <ele>1469.9</ele>
        <time>2022-06-11T08:58:06Z</time>
      </trkpt>
      <trkpt lat="44.07191" lon="7.22837">
        <ele>1469.9</ele>
        <time>2022-06-11T08:58:07Z</time>
      </trkpt>
      <trkpt lat="44.0719" lon="7.22833">
        <ele>1469.9</ele>
        <time>2022-06-11T08:58:08Z</time>
      </trkpt>
      <trkpt lat="44.07188" lon="7.22829">
        <ele>1470</ele>
        <time>2022-06-11T08:58:09Z</time>
      </trkpt>
      <trkpt lat="44.07187" lon="7.22826">
        <ele>1470.2</ele>
        <time>2022-06-11T08:58:10Z</time>
      </trkpt>
      <trkpt lat="44.07187" lon="7.22824">
        <ele>1470.4</ele>
        <time>2022-06-11T08:58:11Z</time>
      </trkpt>
      <trkpt lat="44.07186" lon="7.22821">
        <ele>1470.4</ele>
        <time>2022-06-11T08:58:12Z</time>
      </trkpt>
      <trkpt lat="44.07184" lon="7.22819">
        <ele>1470.4</ele>
        <time>2022-06-11T08:58:13Z</time>
      </trkpt>
      <trkpt lat="44.07183" lon="7.22816">
        <ele>1470.5</ele>
        <time>2022-06-11T08:58:14Z</time>
      </trkpt>
      <trkpt lat="44.07182" lon="7.22812">
        <ele>1470.6</ele>
        <time>2022-06-11T08:58:15Z</time>
      </trkpt>
      <trkpt lat="44.07181" lon="7.22809">
        <ele>1470.7</ele>
        <time>2022-06-11T08:58:16Z</time>
      </trkpt>
      <trkpt lat="44.0718" lon="7.22806">
        <ele>1470.8</ele>
        <time>2022-06-11T08:58:17Z</time>
      </trkpt>
      <trkpt lat="44.07179" lon="7.22803">
        <ele>1470.9</ele>
        <time>2022-06-11T08:58:18Z</time>
      </trkpt>
      <trkpt lat="44.07179" lon="7.228">
        <ele>1471.1</ele>
        <time>2022-06-11T08:58:19Z</time>
      </trkpt>
      <trkpt lat="44.07178" lon="7.22797">
        <ele>1471.2</ele>
        <time>2022-06-11T08:58:20Z</time>
      </trkpt>
      <trkpt lat="44.07177" lon="7.22795">
        <ele>1471.2</ele>
        <time>2022-06-11T08:58:21Z</time>
      </trkpt>
      <trkpt lat="44.07177" lon="7.22792">
        <ele>1471.3</ele>
        <time>2022-06-11T08:58:22Z</time>
      </trkpt>
      <trkpt lat="44.07176" lon="7.22789">
        <ele>1471.4</ele>
        <time>2022-06-11T08:58:23Z</time>
      </trkpt>
      <trkpt lat="44.07176" lon="7.22786">
        <ele>1471.6</ele>
        <time>2022-06-11T08:58:24Z</time>
      </trkpt>
      <trkpt lat="44.07175" lon="7.22783">
        <ele>1471.6</ele>
        <time>2022-06-11T08:58:25Z</time>
      </trkpt>
      <trkpt lat="44.07173" lon="7.2278">
        <ele>1471.5</ele>
        <time>2022-06-11T08:58:26Z</time>
      </trkpt>
      <trkpt lat="44.07172" lon="7.22777">
        <ele>1471.3</ele>
        <time>2022-06-11T08:58:27Z</time>
      </trkpt>
      <trkpt lat="44.0717" lon="7.22773">
        <ele>1471.3</ele>
        <time>2022-06-11T08:58:28Z</time>
      </trkpt>
      <trkpt lat="44.07169" lon="7.2277">
        <ele>1471.4</ele>
        <time>2022-06-11T08:58:29Z</time>
      </trkpt>
      <trkpt lat="44.07168" lon="7.22766">
        <ele>1471.5</ele>
        <time>2022-06-11T08:58:30Z</time>
      </trkpt>
      <trkpt lat="44.07167" lon="7.22762">
        <ele>1471.8</ele>
        <time>2022-06-11T08:58:31Z</time>
      </trkpt>
      <trkpt lat="44.07166" lon="7.22759">
        <ele>1472</ele>
        <time>2022-06-11T08:58:32Z</time>
      </trkpt>
      <trkpt lat="44.07165" lon="7.22755">
        <ele>1472.2</ele>
        <time>2022-06-11T08:58:33Z</time>
      </trkpt>
      <trkpt lat="44.07165" lon="7.22752">
        <ele>1472.5</ele>
        <time>2022-06-11T08:58:34Z</time>
      </trkpt>
      <trkpt lat="44.07165" lon="7.22752">
        <ele>1472.5</ele>
        <time>2022-06-11T08:58:35Z</time>
      </trkpt>
      <trkpt lat="44.07163" lon="7.22744">
        <ele>1473.2</ele>
        <time>2022-06-11T08:58:36Z</time>
      </trkpt>
      <trkpt lat="44.07162" lon="7.2274">
        <ele>1473.5</ele>
        <time>2022-06-11T08:58:37Z</time>
      </trkpt>
      <trkpt lat="44.07161" lon="7.22737">
        <ele>1473.8</ele>
        <time>2022-06-11T08:58:38Z</time>
      </trkpt>
      <trkpt lat="44.07161" lon="7.22737">
        <ele>1473.8</ele>
        <time>2022-06-11T08:58:39Z</time>
      </trkpt>
      <trkpt lat="44.07161" lon="7.22737">
        <ele>1473.8</ele>
        <time>2022-06-11T08:58:40Z</time>
      </trkpt>
      <trkpt lat="44.07158" lon="7.22727">
        <ele>1474.6</ele>
        <time>2022-06-11T08:58:41Z</time>
      </trkpt>
      <trkpt lat="44.07157" lon="7.22724">
        <ele>1474.8</ele>
        <time>2022-06-11T08:58:42Z</time>
      </trkpt>
      <trkpt lat="44.07157" lon="7.22724">
        <ele>1474.8</ele>
        <time>2022-06-11T08:58:43Z</time>
      </trkpt>
      <trkpt lat="44.07155" lon="7.22717">
        <ele>1475.2</ele>
        <time>2022-06-11T08:58:44Z</time>
      </trkpt>
      <trkpt lat="44.07154" lon="7.22713">
        <ele>1475.4</ele>
        <time>2022-06-11T08:58:45Z</time>
      </trkpt>
      <trkpt lat="44.07153" lon="7.2271">
        <ele>1475.6</ele>
        <time>2022-06-11T08:58:46Z</time>
      </trkpt>
      <trkpt lat="44.07153" lon="7.2271">
        <ele>1475.6</ele>
        <time>2022-06-11T08:58:47Z</time>
      </trkpt>
      <trkpt lat="44.07151" lon="7.22704">
        <ele>1476</ele>
        <time>2022-06-11T08:58:48Z</time>
      </trkpt>
      <trkpt lat="44.0715" lon="7.227">
        <ele>1476.2</ele>
        <time>2022-06-11T08:58:49Z</time>
      </trkpt>
      <trkpt lat="44.07149" lon="7.22697">
        <ele>1476.5</ele>
        <time>2022-06-11T08:58:50Z</time>
      </trkpt>
      <trkpt lat="44.07148" lon="7.22694">
        <ele>1476.8</ele>
        <time>2022-06-11T08:58:51Z</time>
      </trkpt>
      <trkpt lat="44.07147" lon="7.2269">
        <ele>1477</ele>
        <time>2022-06-11T08:58:52Z</time>
      </trkpt>
      <trkpt lat="44.07147" lon="7.2269">
        <ele>1477</ele>
        <time>2022-06-11T08:58:53Z</time>
      </trkpt>
      <trkpt lat="44.07146" lon="7.22684">
        <ele>1477.4</ele>
        <time>2022-06-11T08:58:54Z</time>
      </trkpt>
      <trkpt lat="44.07144" lon="7.22681">
        <ele>1477.6</ele>
        <time>2022-06-11T08:58:55Z</time>
      </trkpt>
      <trkpt lat="44.07143" lon="7.22677">
        <ele>1477.7</ele>
        <time>2022-06-11T08:58:56Z</time>
      </trkpt>
      <trkpt lat="44.07142" lon="7.22674">
        <ele>1477.9</ele>
        <time>2022-06-11T08:58:57Z</time>
      </trkpt>
      <trkpt lat="44.07141" lon="7.22671">
        <ele>1478</ele>
        <time>2022-06-11T08:58:58Z</time>
      </trkpt>
      <trkpt lat="44.0714" lon="7.22668">
        <ele>1478.2</ele>
        <time>2022-06-11T08:58:59Z</time>
      </trkpt>
      <trkpt lat="44.0714" lon="7.22664">
        <ele>1478.4</ele>
        <time>2022-06-11T08:59:00Z</time>
      </trkpt>
      <trkpt lat="44.07139" lon="7.22661">
        <ele>1478.5</ele>
        <time>2022-06-11T08:59:01Z</time>
      </trkpt>
      <trkpt lat="44.07138" lon="7.22658">
        <ele>1478.7</ele>
        <time>2022-06-11T08:59:02Z</time>
      </trkpt>
      <trkpt lat="44.07137" lon="7.22655">
        <ele>1478.9</ele>
        <time>2022-06-11T08:59:03Z</time>
      </trkpt>
      <trkpt lat="44.07136" lon="7.22652">
        <ele>1478.9</ele>
        <time>2022-06-11T08:59:04Z</time>
      </trkpt>
      <trkpt lat="44.07135" lon="7.22649">
        <ele>1479</ele>
        <time>2022-06-11T08:59:05Z</time>
      </trkpt>
      <trkpt lat="44.07134" lon="7.22646">
        <ele>1479.3</ele>
        <time>2022-06-11T08:59:06Z</time>
      </trkpt>
      <trkpt lat="44.07134" lon="7.22643">
        <ele>1479.6</ele>
        <time>2022-06-11T08:59:07Z</time>
      </trkpt>
      <trkpt lat="44.07133" lon="7.2264">
        <ele>1479.8</ele>
        <time>2022-06-11T08:59:08Z</time>
      </trkpt>
      <trkpt lat="44.07132" lon="7.22637">
        <ele>1480</ele>
        <time>2022-06-11T08:59:09Z</time>
      </trkpt>
      <trkpt lat="44.07131" lon="7.22634">
        <ele>1480.3</ele>
        <time>2022-06-11T08:59:10Z</time>
      </trkpt>
      <trkpt lat="44.0713" lon="7.22631">
        <ele>1480.5</ele>
        <time>2022-06-11T08:59:11Z</time>
      </trkpt>
      <trkpt lat="44.07129" lon="7.22628">
        <ele>1480.7</ele>
        <time>2022-06-11T08:59:12Z</time>
      </trkpt>
      <trkpt lat="44.07128" lon="7.22624">
        <ele>1480.9</ele>
        <time>2022-06-11T08:59:13Z</time>
      </trkpt>
      <trkpt lat="44.07127" lon="7.22621">
        <ele>1481.1</ele>
        <time>2022-06-11T08:59:14Z</time>
      </trkpt>
      <trkpt lat="44.07126" lon="7.22618">
        <ele>1481.3</ele>
        <time>2022-06-11T08:59:15Z</time>
      </trkpt>
      <trkpt lat="44.07125" lon="7.22615">
        <ele>1481.5</ele>
        <time>2022-06-11T08:59:16Z</time>
      </trkpt>
      <trkpt lat="44.07124" lon="7.22612">
        <ele>1481.7</ele>
        <time>2022-06-11T08:59:17Z</time>
      </trkpt>
      <trkpt lat="44.07123" lon="7.22609">
        <ele>1481.8</ele>
        <time>2022-06-11T08:59:18Z</time>
      </trkpt>
      <trkpt lat="44.07122" lon="7.22606">
        <ele>1481.9</ele>
        <time>2022-06-11T08:59:19Z</time>
      </trkpt>
      <trkpt lat="44.07121" lon="7.22603">
        <ele>1482.1</ele>
        <time>2022-06-11T08:59:20Z</time>
      </trkpt>
      <trkpt lat="44.0712" lon="7.22599">
        <ele>1482.2</ele>
        <time>2022-06-11T08:59:21Z</time>
      </trkpt>
      <trkpt lat="44.07119" lon="7.22596">
        <ele>1482.3</ele>
        <time>2022-06-11T08:59:22Z</time>
      </trkpt>
      <trkpt lat="44.07118" lon="7.22593">
        <ele>1482.5</ele>
        <time>2022-06-11T08:59:23Z</time>
      </trkpt>
      <trkpt lat="44.07117" lon="7.2259">
        <ele>1482.5</ele>
        <time>2022-06-11T08:59:24Z</time>
      </trkpt>
      <trkpt lat="44.07116" lon="7.22588">
        <ele>1482.6</ele>
        <time>2022-06-11T08:59:25Z</time>
      </trkpt>
      <trkpt lat="44.07116" lon="7.22588">
        <ele>1482.6</ele>
        <time>2022-06-11T08:59:26Z</time>
      </trkpt>
      <trkpt lat="44.07114" lon="7.22582">
        <ele>1482.9</ele>
        <time>2022-06-11T08:59:27Z</time>
      </trkpt>
      <trkpt lat="44.07113" lon="7.22579">
        <ele>1483.1</ele>
        <time>2022-06-11T08:59:28Z</time>
      </trkpt>
      <trkpt lat="44.07112" lon="7.22576">
        <ele>1483.3</ele>
        <time>2022-06-11T08:59:29Z</time>
      </trkpt>
      <trkpt lat="44.07111" lon="7.22573">
        <ele>1483.5</ele>
        <time>2022-06-11T08:59:30Z</time>
      </trkpt>
      <trkpt lat="44.07111" lon="7.2257">
        <ele>1483.9</ele>
        <time>2022-06-11T08:59:31Z</time>
      </trkpt>
      <trkpt lat="44.07109" lon="7.22567">
        <ele>1484</ele>
        <time>2022-06-11T08:59:32Z</time>
      </trkpt>
      <trkpt lat="44.07109" lon="7.22567">
        <ele>1484</ele>
        <time>2022-06-11T08:59:33Z</time>
      </trkpt>
      <trkpt lat="44.07107" lon="7.22562">
        <ele>1484.3</ele>
        <time>2022-06-11T08:59:34Z</time>
      </trkpt>
      <trkpt lat="44.07107" lon="7.22559">
        <ele>1484.6</ele>
        <time>2022-06-11T08:59:35Z</time>
      </trkpt>
      <trkpt lat="44.07106" lon="7.22556">
        <ele>1484.8</ele>
        <time>2022-06-11T08:59:36Z</time>
      </trkpt>
      <trkpt lat="44.07106" lon="7.22553">
        <ele>1485.1</ele>
        <time>2022-06-11T08:59:37Z</time>
      </trkpt>
      <trkpt lat="44.07104" lon="7.2255">
        <ele>1485.1</ele>
        <time>2022-06-11T08:59:38Z</time>
      </trkpt>
      <trkpt lat="44.07104" lon="7.22546">
        <ele>1485.3</ele>
        <time>2022-06-11T08:59:39Z</time>
      </trkpt>
      <trkpt lat="44.07103" lon="7.22543">
        <ele>1485.4</ele>
        <time>2022-06-11T08:59:40Z</time>
      </trkpt>
      <trkpt lat="44.07103" lon="7.22543">
        <ele>1485.4</ele>
        <time>2022-06-11T08:59:41Z</time>
      </trkpt>
      <trkpt lat="44.07102" lon="7.22536">
        <ele>1485.9</ele>
        <time>2022-06-11T08:59:42Z</time>
      </trkpt>
      <trkpt lat="44.07101" lon="7.22532">
        <ele>1486.1</ele>
        <time>2022-06-11T08:59:43Z</time>
      </trkpt>
      <trkpt lat="44.07101" lon="7.22529">
        <ele>1486.4</ele>
        <time>2022-06-11T08:59:44Z</time>
      </trkpt>
      <trkpt lat="44.07101" lon="7.22525">
        <ele>1486.6</ele>
        <time>2022-06-11T08:59:45Z</time>
      </trkpt>
      <trkpt lat="44.07101" lon="7.22525">
        <ele>1486.6</ele>
        <time>2022-06-11T08:59:46Z</time>
      </trkpt>
      <trkpt lat="44.071" lon="7.22519">
        <ele>1486.8</ele>
        <time>2022-06-11T08:59:47Z</time>
      </trkpt>
      <trkpt lat="44.07099" lon="7.22515">
        <ele>1486.9</ele>
        <time>2022-06-11T08:59:48Z</time>
      </trkpt>
      <trkpt lat="44.07099" lon="7.22512">
        <ele>1487.1</ele>
        <time>2022-06-11T08:59:49Z</time>
      </trkpt>
      <trkpt lat="44.07099" lon="7.22509">
        <ele>1487.2</ele>
        <time>2022-06-11T08:59:50Z</time>
      </trkpt>
      <trkpt lat="44.07098" lon="7.22505">
        <ele>1487.4</ele>
        <time>2022-06-11T08:59:51Z</time>
      </trkpt>
      <trkpt lat="44.07098" lon="7.22502">
        <ele>1487.6</ele>
        <time>2022-06-11T08:59:52Z</time>
      </trkpt>
      <trkpt lat="44.07098" lon="7.22498">
        <ele>1487.7</ele>
        <time>2022-06-11T08:59:53Z</time>
      </trkpt>
      <trkpt lat="44.07097" lon="7.22495">
        <ele>1487.9</ele>
        <time>2022-06-11T08:59:54Z</time>
      </trkpt>
      <trkpt lat="44.07097" lon="7.22492">
        <ele>1488.1</ele>
        <time>2022-06-11T08:59:55Z</time>
      </trkpt>
      <trkpt lat="44.07097" lon="7.22488">
        <ele>1488.3</ele>
        <time>2022-06-11T08:59:56Z</time>
      </trkpt>
      <trkpt lat="44.07097" lon="7.22485">
        <ele>1488.5</ele>
        <time>2022-06-11T08:59:57Z</time>
      </trkpt>
      <trkpt lat="44.07096" lon="7.22481">
        <ele>1488.6</ele>
        <time>2022-06-11T08:59:58Z</time>
      </trkpt>
      <trkpt lat="44.07096" lon="7.22478">
        <ele>1488.8</ele>
        <time>2022-06-11T08:59:59Z</time>
      </trkpt>
      <trkpt lat="44.07096" lon="7.22475">
        <ele>1489</ele>
        <time>2022-06-11T09:00:00Z</time>
      </trkpt>
      <trkpt lat="44.07096" lon="7.22472">
        <ele>1489.2</ele>
        <time>2022-06-11T09:00:01Z</time>
      </trkpt>
      <trkpt lat="44.07096" lon="7.22468">
        <ele>1489.5</ele>
        <time>2022-06-11T09:00:02Z</time>
      </trkpt>
      <trkpt lat="44.07096" lon="7.22466">
        <ele>1489.7</ele>
        <time>2022-06-11T09:00:03Z</time>
      </trkpt>
      <trkpt lat="44.07096" lon="7.22463">
        <ele>1489.9</ele>
        <time>2022-06-11T09:00:04Z</time>
      </trkpt>
      <trkpt lat="44.07096" lon="7.22462">
        <ele>1490</ele>
        <time>2022-06-11T09:00:05Z</time>
      </trkpt>
      <trkpt lat="44.07096" lon="7.22461">
        <ele>1489.9</ele>
        <time>2022-06-11T09:00:06Z</time>
      </trkpt>
      <trkpt lat="44.07096" lon="7.22455">
        <ele>1490.5</ele>
        <time>2022-06-11T09:02:29Z</time>
      </trkpt>
      <trkpt lat="44.07096" lon="7.22455">
        <ele>1490.5</ele>
        <time>2022-06-11T09:02:30Z</time>
      </trkpt>
      <trkpt lat="44.07096" lon="7.22454">
        <ele>1490.4</ele>
        <time>2022-06-11T09:02:31Z</time>
      </trkpt>
      <trkpt lat="44.07096" lon="7.22454">
        <ele>1490.4</ele>
        <time>2022-06-11T09:02:32Z</time>
      </trkpt>
      <trkpt lat="44.07096" lon="7.2245">
        <ele>1490.7</ele>
        <time>2022-06-11T09:02:37Z</time>
      </trkpt>
      <trkpt lat="44.07096" lon="7.22447">
        <ele>1491.1</ele>
        <time>2022-06-11T09:02:38Z</time>
      </trkpt>
      <trkpt lat="44.07097" lon="7.22443">
        <ele>1491.6</ele>
        <time>2022-06-11T09:02:39Z</time>
      </trkpt>
      <trkpt lat="44.07098" lon="7.2244">
        <ele>1491.8</ele>
        <time>2022-06-11T09:02:40Z</time>
      </trkpt>
      <trkpt lat="44.07098" lon="7.2244">
        <ele>1491.8</ele>
        <time>2022-06-11T09:02:41Z</time>
      </trkpt>
      <trkpt lat="44.07098" lon="7.22433">
        <ele>1492.2</ele>
        <time>2022-06-11T09:02:42Z</time>
      </trkpt>
      <trkpt lat="44.07097" lon="7.22429">
        <ele>1492.3</ele>
        <time>2022-06-11T09:02:43Z</time>
      </trkpt>
      <trkpt lat="44.07097" lon="7.22429">
        <ele>1492.3</ele>
        <time>2022-06-11T09:02:44Z</time>
      </trkpt>
      <trkpt lat="44.07096" lon="7.22422">
        <ele>1492.4</ele>
        <time>2022-06-11T09:02:45Z</time>
      </trkpt>
      <trkpt lat="44.07095" lon="7.22418">
        <ele>1492.5</ele>
        <time>2022-06-11T09:02:46Z</time>
      </trkpt>
      <trkpt lat="44.07095" lon="7.22414">
        <ele>1492.7</ele>
        <time>2022-06-11T09:02:47Z</time>
      </trkpt>
      <trkpt lat="44.07095" lon="7.22411">
        <ele>1492.9</ele>
        <time>2022-06-11T09:02:48Z</time>
      </trkpt>
      <trkpt lat="44.07095" lon="7.22407">
        <ele>1493.2</ele>
        <time>2022-06-11T09:02:49Z</time>
      </trkpt>
      <trkpt lat="44.07095" lon="7.22403">
        <ele>1493.5</ele>
        <time>2022-06-11T09:02:50Z</time>
      </trkpt>
      <trkpt lat="44.07095" lon="7.224">
        <ele>1493.8</ele>
        <time>2022-06-11T09:02:51Z</time>
      </trkpt>
      <trkpt lat="44.07095" lon="7.22396">
        <ele>1494.1</ele>
        <time>2022-06-11T09:02:52Z</time>
      </trkpt>
      <trkpt lat="44.07095" lon="7.22392">
        <ele>1494.4</ele>
        <time>2022-06-11T09:02:53Z</time>
      </trkpt>
      <trkpt lat="44.07095" lon="7.22389">
        <ele>1494.7</ele>
        <time>2022-06-11T09:02:54Z</time>
      </trkpt>
      <trkpt lat="44.07095" lon="7.22385">
        <ele>1494.9</ele>
        <time>2022-06-11T09:02:55Z</time>
      </trkpt>
      <trkpt lat="44.07096" lon="7.22382">
        <ele>1495.2</ele>
        <time>2022-06-11T09:02:56Z</time>
      </trkpt>
      <trkpt lat="44.07096" lon="7.22379">
        <ele>1495.4</ele>
        <time>2022-06-11T09:02:57Z</time>
      </trkpt>
      <trkpt lat="44.07097" lon="7.22376">
        <ele>1495.6</ele>
        <time>2022-06-11T09:02:58Z</time>
      </trkpt>
      <trkpt lat="44.07097" lon="7.22373">
        <ele>1495.9</ele>
        <time>2022-06-11T09:02:59Z</time>
      </trkpt>
      <trkpt lat="44.07098" lon="7.2237">
        <ele>1496.1</ele>
        <time>2022-06-11T09:03:00Z</time>
      </trkpt>
      <trkpt lat="44.07098" lon="7.22366">
        <ele>1496.3</ele>
        <time>2022-06-11T09:03:01Z</time>
      </trkpt>
      <trkpt lat="44.07098" lon="7.22363">
        <ele>1496.5</ele>
        <time>2022-06-11T09:03:02Z</time>
      </trkpt>
      <trkpt lat="44.07099" lon="7.2236">
        <ele>1496.7</ele>
        <time>2022-06-11T09:03:03Z</time>
      </trkpt>
      <trkpt lat="44.07099" lon="7.22357">
        <ele>1496.8</ele>
        <time>2022-06-11T09:03:04Z</time>
      </trkpt>
      <trkpt lat="44.07099" lon="7.22353">
        <ele>1496.9</ele>
        <time>2022-06-11T09:03:05Z</time>
      </trkpt>
      <trkpt lat="44.07099" lon="7.2235">
        <ele>1497.1</ele>
        <time>2022-06-11T09:03:06Z</time>
      </trkpt>
      <trkpt lat="44.07099" lon="7.22346">
        <ele>1497.2</ele>
        <time>2022-06-11T09:03:07Z</time>
      </trkpt>
      <trkpt lat="44.071" lon="7.22343">
        <ele>1497.3</ele>
        <time>2022-06-11T09:03:08Z</time>
      </trkpt>
      <trkpt lat="44.071" lon="7.22339">
        <ele>1497.4</ele>
        <time>2022-06-11T09:03:09Z</time>
      </trkpt>
      <trkpt lat="44.07101" lon="7.22336">
        <ele>1497.6</ele>
        <time>2022-06-11T09:03:10Z</time>
      </trkpt>
      <trkpt lat="44.07101" lon="7.22333">
        <ele>1497.7</ele>
        <time>2022-06-11T09:03:11Z</time>
      </trkpt>
      <trkpt lat="44.07102" lon="7.2233">
        <ele>1497.8</ele>
        <time>2022-06-11T09:03:12Z</time>
      </trkpt>
      <trkpt lat="44.07103" lon="7.22326">
        <ele>1497.9</ele>
        <time>2022-06-11T09:03:13Z</time>
      </trkpt>
      <trkpt lat="44.07103" lon="7.22323">
        <ele>1498.1</ele>
        <time>2022-06-11T09:03:14Z</time>
      </trkpt>
      <trkpt lat="44.07104" lon="7.2232">
        <ele>1498.2</ele>
        <time>2022-06-11T09:03:15Z</time>
      </trkpt>
      <trkpt lat="44.07104" lon="7.22316">
        <ele>1498.4</ele>
        <time>2022-06-11T09:03:16Z</time>
      </trkpt>
      <trkpt lat="44.07105" lon="7.22313">
        <ele>1498.5</ele>
        <time>2022-06-11T09:03:17Z</time>
      </trkpt>
      <trkpt lat="44.07105" lon="7.22309">
        <ele>1498.6</ele>
        <time>2022-06-11T09:03:18Z</time>
      </trkpt>
      <trkpt lat="44.07105" lon="7.22306">
        <ele>1498.8</ele>
        <time>2022-06-11T09:03:19Z</time>
      </trkpt>
      <trkpt lat="44.07106" lon="7.22303">
        <ele>1498.7</ele>
        <time>2022-06-11T09:03:20Z</time>
      </trkpt>
      <trkpt lat="44.07106" lon="7.223">
        <ele>1498.7</ele>
        <time>2022-06-11T09:03:21Z</time>
      </trkpt>
      <trkpt lat="44.07107" lon="7.22296">
        <ele>1498.6</ele>
        <time>2022-06-11T09:03:22Z</time>
      </trkpt>
      <trkpt lat="44.07108" lon="7.22293">
        <ele>1498.5</ele>
        <time>2022-06-11T09:03:23Z</time>
      </trkpt>
      <trkpt lat="44.07108" lon="7.2229">
        <ele>1498.5</ele>
        <time>2022-06-11T09:03:24Z</time>
      </trkpt>
      <trkpt lat="44.07109" lon="7.22287">
        <ele>1498.4</ele>
        <time>2022-06-11T09:03:25Z</time>
      </trkpt>
      <trkpt lat="44.0711" lon="7.22284">
        <ele>1498.2</ele>
        <time>2022-06-11T09:03:26Z</time>
      </trkpt>
      <trkpt lat="44.0711" lon="7.22281">
        <ele>1498.1</ele>
        <time>2022-06-11T09:03:27Z</time>
      </trkpt>
      <trkpt lat="44.07111" lon="7.22277">
        <ele>1498</ele>
        <time>2022-06-11T09:03:28Z</time>
      </trkpt>
      <trkpt lat="44.07112" lon="7.22274">
        <ele>1498.1</ele>
        <time>2022-06-11T09:03:29Z</time>
      </trkpt>
      <trkpt lat="44.07112" lon="7.22274">
        <ele>1498.1</ele>
        <time>2022-06-11T09:03:30Z</time>
      </trkpt>
      <trkpt lat="44.07113" lon="7.22267">
        <ele>1498.2</ele>
        <time>2022-06-11T09:03:31Z</time>
      </trkpt>
      <trkpt lat="44.07113" lon="7.22263">
        <ele>1498.3</ele>
        <time>2022-06-11T09:03:32Z</time>
      </trkpt>
      <trkpt lat="44.07113" lon="7.22259">
        <ele>1498.3</ele>
        <time>2022-06-11T09:03:33Z</time>
      </trkpt>
      <trkpt lat="44.07113" lon="7.22255">
        <ele>1498.2</ele>
        <time>2022-06-11T09:03:34Z</time>
      </trkpt>
      <trkpt lat="44.07112" lon="7.22251">
        <ele>1498.1</ele>
        <time>2022-06-11T09:03:35Z</time>
      </trkpt>
      <trkpt lat="44.07112" lon="7.22247">
        <ele>1497.9</ele>
        <time>2022-06-11T09:03:36Z</time>
      </trkpt>
      <trkpt lat="44.07111" lon="7.22243">
        <ele>1497.8</ele>
        <time>2022-06-11T09:03:37Z</time>
      </trkpt>
      <trkpt lat="44.0711" lon="7.22239">
        <ele>1497.8</ele>
        <time>2022-06-11T09:03:38Z</time>
      </trkpt>
      <trkpt lat="44.07109" lon="7.22236">
        <ele>1497.8</ele>
        <time>2022-06-11T09:03:39Z</time>
      </trkpt>
      <trkpt lat="44.07109" lon="7.22236">
        <ele>1497.8</ele>
        <time>2022-06-11T09:03:40Z</time>
      </trkpt>
      <trkpt lat="44.07109" lon="7.22236">
        <ele>1497.8</ele>
        <time>2022-06-11T09:03:41Z</time>
      </trkpt>
      <trkpt lat="44.07105" lon="7.22227">
        <ele>1498</ele>
        <time>2022-06-11T09:03:42Z</time>
      </trkpt>
      <trkpt lat="44.07104" lon="7.22224">
        <ele>1498.1</ele>
        <time>2022-06-11T09:03:43Z</time>
      </trkpt>
      <trkpt lat="44.07103" lon="7.22221">
        <ele>1498.3</ele>
        <time>2022-06-11T09:03:44Z</time>
      </trkpt>
      <trkpt lat="44.07102" lon="7.22219">
        <ele>1498.5</ele>
        <time>2022-06-11T09:03:45Z</time>
      </trkpt>
      <trkpt lat="44.07102" lon="7.22217">
        <ele>1498.7</ele>
        <time>2022-06-11T09:03:46Z</time>
      </trkpt>
      <trkpt lat="44.07101" lon="7.22214">
        <ele>1498.9</ele>
        <time>2022-06-11T09:03:47Z</time>
      </trkpt>
      <trkpt lat="44.07101" lon="7.22211">
        <ele>1499.1</ele>
        <time>2022-06-11T09:03:48Z</time>
      </trkpt>
      <trkpt lat="44.07102" lon="7.22209">
        <ele>1499.2</ele>
        <time>2022-06-11T09:03:49Z</time>
      </trkpt>
      <trkpt lat="44.07103" lon="7.22206">
        <ele>1499.2</ele>
        <time>2022-06-11T09:03:50Z</time>
      </trkpt>
      <trkpt lat="44.07105" lon="7.22205">
        <ele>1499.1</ele>
        <time>2022-06-11T09:03:51Z</time>
      </trkpt>
      <trkpt lat="44.07106" lon="7.22203">
        <ele>1499</ele>
        <time>2022-06-11T09:03:52Z</time>
      </trkpt>
      <trkpt lat="44.07107" lon="7.22202">
        <ele>1498.9</ele>
        <time>2022-06-11T09:03:53Z</time>
      </trkpt>
      <trkpt lat="44.07109" lon="7.22201">
        <ele>1498.8</ele>
        <time>2022-06-11T09:03:54Z</time>
      </trkpt>
      <trkpt lat="44.07109" lon="7.222">
        <ele>1498.9</ele>
        <time>2022-06-11T09:03:55Z</time>
      </trkpt>
      <trkpt lat="44.0711" lon="7.22198">
        <ele>1498.9</ele>
        <time>2022-06-11T09:03:56Z</time>
      </trkpt>
      <trkpt lat="44.07111" lon="7.22196">
        <ele>1498.9</ele>
        <time>2022-06-11T09:03:57Z</time>
      </trkpt>
      <trkpt lat="44.07112" lon="7.22194">
        <ele>1499.1</ele>
        <time>2022-06-11T09:03:58Z</time>
      </trkpt>
      <trkpt lat="44.07113" lon="7.22191">
        <ele>1499.3</ele>
        <time>2022-06-11T09:03:59Z</time>
      </trkpt>
      <trkpt lat="44.07114" lon="7.22188">
        <ele>1499.5</ele>
        <time>2022-06-11T09:04:00Z</time>
      </trkpt>
      <trkpt lat="44.07114" lon="7.22185">
        <ele>1499.6</ele>
        <time>2022-06-11T09:04:01Z</time>
      </trkpt>
      <trkpt lat="44.07115" lon="7.22182">
        <ele>1499.8</ele>
        <time>2022-06-11T09:04:02Z</time>
      </trkpt>
      <trkpt lat="44.07115" lon="7.22179">
        <ele>1499.9</ele>
        <time>2022-06-11T09:04:03Z</time>
      </trkpt>
      <trkpt lat="44.07116" lon="7.22176">
        <ele>1500</ele>
        <time>2022-06-11T09:04:04Z</time>
      </trkpt>
      <trkpt lat="44.07115" lon="7.22173">
        <ele>1500.1</ele>
        <time>2022-06-11T09:04:05Z</time>
      </trkpt>
      <trkpt lat="44.07115" lon="7.22169">
        <ele>1500.2</ele>
        <time>2022-06-11T09:04:06Z</time>
      </trkpt>
      <trkpt lat="44.07115" lon="7.22166">
        <ele>1500.3</ele>
        <time>2022-06-11T09:04:07Z</time>
      </trkpt>
      <trkpt lat="44.07115" lon="7.22163">
        <ele>1500.3</ele>
        <time>2022-06-11T09:04:08Z</time>
      </trkpt>
      <trkpt lat="44.07115" lon="7.2216">
        <ele>1500.3</ele>
        <time>2022-06-11T09:04:09Z</time>
      </trkpt>
      <trkpt lat="44.07115" lon="7.22156">
        <ele>1500.3</ele>
        <time>2022-06-11T09:04:10Z</time>
      </trkpt>
      <trkpt lat="44.07114" lon="7.22153">
        <ele>1500.2</ele>
        <time>2022-06-11T09:04:11Z</time>
      </trkpt>
      <trkpt lat="44.07114" lon="7.2215">
        <ele>1500.2</ele>
        <time>2022-06-11T09:04:12Z</time>
      </trkpt>
      <trkpt lat="44.07114" lon="7.22147">
        <ele>1500.2</ele>
        <time>2022-06-11T09:04:13Z</time>
      </trkpt>
      <trkpt lat="44.07114" lon="7.22143">
        <ele>1500.2</ele>
        <time>2022-06-11T09:04:14Z</time>
      </trkpt>
      <trkpt lat="44.07113" lon="7.2214">
        <ele>1500.2</ele>
        <time>2022-06-11T09:04:15Z</time>
      </trkpt>
      <trkpt lat="44.07113" lon="7.22138">
        <ele>1500.1</ele>
        <time>2022-06-11T09:04:16Z</time>
      </trkpt>
      <trkpt lat="44.07113" lon="7.22136">
        <ele>1500.1</ele>
        <time>2022-06-11T09:04:17Z</time>
      </trkpt>
      <trkpt lat="44.07112" lon="7.22134">
        <ele>1500.1</ele>
        <time>2022-06-11T09:04:18Z</time>
      </trkpt>
      <trkpt lat="44.07112" lon="7.22132">
        <ele>1500</ele>
        <time>2022-06-11T09:04:19Z</time>
      </trkpt>
      <trkpt lat="44.07111" lon="7.2213">
        <ele>1500</ele>
        <time>2022-06-11T09:04:20Z</time>
      </trkpt>
      <trkpt lat="44.07111" lon="7.22128">
        <ele>1500</ele>
        <time>2022-06-11T09:04:21Z</time>
      </trkpt>
      <trkpt lat="44.07111" lon="7.22126">
        <ele>1500</ele>
        <time>2022-06-11T09:04:22Z</time>
      </trkpt>
      <trkpt lat="44.07111" lon="7.22125">
        <ele>1500.1</ele>
        <time>2022-06-11T09:04:23Z</time>
      </trkpt>
      <trkpt lat="44.07111" lon="7.22125">
        <ele>1500.1</ele>
        <time>2022-06-11T09:04:24Z</time>
      </trkpt>
      <trkpt lat="44.07111" lon="7.22125">
        <ele>1500.1</ele>
        <time>2022-06-11T09:04:25Z</time>
      </trkpt>
      <trkpt lat="44.07111" lon="7.22118">
        <ele>1500</ele>
        <time>2022-06-11T09:05:03Z</time>
      </trkpt>
      <trkpt lat="44.07113" lon="7.22114">
        <ele>1500.1</ele>
        <time>2022-06-11T09:05:04Z</time>
      </trkpt>
      <trkpt lat="44.07114" lon="7.22111">
        <ele>1500.2</ele>
        <time>2022-06-11T09:05:05Z</time>
      </trkpt>
      <trkpt lat="44.07116" lon="7.22107">
        <ele>1500.2</ele>
        <time>2022-06-11T09:05:06Z</time>
      </trkpt>
      <trkpt lat="44.07118" lon="7.22103">
        <ele>1500.2</ele>
        <time>2022-06-11T09:05:07Z</time>
      </trkpt>
      <trkpt lat="44.0712" lon="7.22099">
        <ele>1500.1</ele>
        <time>2022-06-11T09:05:08Z</time>
      </trkpt>
      <trkpt lat="44.07121" lon="7.22096">
        <ele>1500</ele>
        <time>2022-06-11T09:05:09Z</time>
      </trkpt>
      <trkpt lat="44.07122" lon="7.22093">
        <ele>1499.8</ele>
        <time>2022-06-11T09:05:10Z</time>
      </trkpt>
      <trkpt lat="44.07122" lon="7.2209">
        <ele>1499.6</ele>
        <time>2022-06-11T09:05:11Z</time>
      </trkpt>
      <trkpt lat="44.07122" lon="7.22088">
        <ele>1499.5</ele>
        <time>2022-06-11T09:05:12Z</time>
      </trkpt>
      <trkpt lat="44.07123" lon="7.22086">
        <ele>1499.3</ele>
        <time>2022-06-11T09:05:13Z</time>
      </trkpt>
      <trkpt lat="44.07125" lon="7.22085">
        <ele>1499.1</ele>
        <time>2022-06-11T09:05:14Z</time>
      </trkpt>
      <trkpt lat="44.07127" lon="7.22084">
        <ele>1498.9</ele>
        <time>2022-06-11T09:05:15Z</time>
      </trkpt>
      <trkpt lat="44.0713" lon="7.22084">
        <ele>1498.7</ele>
        <time>2022-06-11T09:05:16Z</time>
      </trkpt>
      <trkpt lat="44.07133" lon="7.22084">
        <ele>1498.5</ele>
        <time>2022-06-11T09:05:17Z</time>
      </trkpt>
      <trkpt lat="44.07136" lon="7.22083">
        <ele>1498.2</ele>
        <time>2022-06-11T09:05:18Z</time>
      </trkpt>
      <trkpt lat="44.0714" lon="7.22083">
        <ele>1498</ele>
        <time>2022-06-11T09:05:19Z</time>
      </trkpt>
      <trkpt lat="44.07144" lon="7.22082">
        <ele>1498.3</ele>
        <time>2022-06-11T09:05:20Z</time>
      </trkpt>
      <trkpt lat="44.07149" lon="7.22082">
        <ele>1498.6</ele>
        <time>2022-06-11T09:05:21Z</time>
      </trkpt>
      <trkpt lat="44.07154" lon="7.22081">
        <ele>1498.7</ele>
        <time>2022-06-11T09:05:22Z</time>
      </trkpt>
      <trkpt lat="44.07159" lon="7.2208">
        <ele>1498.9</ele>
        <time>2022-06-11T09:05:23Z</time>
      </trkpt>
      <trkpt lat="44.07163" lon="7.22079">
        <ele>1499</ele>
        <time>2022-06-11T09:05:24Z</time>
      </trkpt>
      <trkpt lat="44.07163" lon="7.22079">
        <ele>1499</ele>
        <time>2022-06-11T09:05:25Z</time>
      </trkpt>
      <trkpt lat="44.07172" lon="7.22075">
        <ele>1498.9</ele>
        <time>2022-06-11T09:05:26Z</time>
      </trkpt>
      <trkpt lat="44.07177" lon="7.22072">
        <ele>1498.8</ele>
        <time>2022-06-11T09:05:27Z</time>
      </trkpt>
      <trkpt lat="44.07182" lon="7.22068">
        <ele>1498.5</ele>
        <time>2022-06-11T09:05:28Z</time>
      </trkpt>
      <trkpt lat="44.07188" lon="7.22063">
        <ele>1498</ele>
        <time>2022-06-11T09:05:29Z</time>
      </trkpt>
      <trkpt lat="44.07194" lon="7.22057">
        <ele>1497.3</ele>
        <time>2022-06-11T09:05:30Z</time>
      </trkpt>
      <trkpt lat="44.07203" lon="7.22046">
        <ele>1496.1</ele>
        <time>2022-06-11T09:05:31Z</time>
      </trkpt>
      <trkpt lat="44.07205" lon="7.22042">
        <ele>1495.6</ele>
        <time>2022-06-11T09:05:32Z</time>
      </trkpt>
      <trkpt lat="44.07208" lon="7.22037">
        <ele>1495.1</ele>
        <time>2022-06-11T09:05:33Z</time>
      </trkpt>
      <trkpt lat="44.07217" lon="7.22024">
        <ele>1493.7</ele>
        <time>2022-06-11T09:05:34Z</time>
      </trkpt>
      <trkpt lat="44.07222" lon="7.22014">
        <ele>1492</ele>
        <time>2022-06-11T09:05:35Z</time>
      </trkpt>
      <trkpt lat="44.07226" lon="7.22004">
        <ele>1490.7</ele>
        <time>2022-06-11T09:05:36Z</time>
      </trkpt>
      <trkpt lat="44.07233" lon="7.21986">
        <ele>1489.4</ele>
        <time>2022-06-11T09:05:37Z</time>
      </trkpt>
      <trkpt lat="44.07235" lon="7.2198">
        <ele>1489</ele>
        <time>2022-06-11T09:05:38Z</time>
      </trkpt>
      <trkpt lat="44.07239" lon="7.21968">
        <ele>1488.2</ele>
        <time>2022-06-11T09:05:39Z</time>
      </trkpt>
      <trkpt lat="44.07244" lon="7.21956">
        <ele>1487.1</ele>
        <time>2022-06-11T09:05:40Z</time>
      </trkpt>
      <trkpt lat="44.0725" lon="7.21945">
        <ele>1486.8</ele>
        <time>2022-06-11T09:05:41Z</time>
      </trkpt>
      <trkpt lat="44.07256" lon="7.21933">
        <ele>1486.4</ele>
        <time>2022-06-11T09:05:42Z</time>
      </trkpt>
      <trkpt lat="44.07262" lon="7.21921">
        <ele>1486.1</ele>
        <time>2022-06-11T09:05:43Z</time>
      </trkpt>
      <trkpt lat="44.07268" lon="7.21908">
        <ele>1485.5</ele>
        <time>2022-06-11T09:05:44Z</time>
      </trkpt>
      <trkpt lat="44.07275" lon="7.21896">
        <ele>1484.8</ele>
        <time>2022-06-11T09:05:45Z</time>
      </trkpt>
      <trkpt lat="44.07282" lon="7.21883">
        <ele>1484.2</ele>
        <time>2022-06-11T09:05:46Z</time>
      </trkpt>
      <trkpt lat="44.0729" lon="7.21871">
        <ele>1483.7</ele>
        <time>2022-06-11T09:05:47Z</time>
      </trkpt>
      <trkpt lat="44.07297" lon="7.21858">
        <ele>1482.6</ele>
        <time>2022-06-11T09:05:48Z</time>
      </trkpt>
      <trkpt lat="44.07303" lon="7.21843">
        <ele>1481.4</ele>
        <time>2022-06-11T09:05:49Z</time>
      </trkpt>
      <trkpt lat="44.07308" lon="7.21828">
        <ele>1479.8</ele>
        <time>2022-06-11T09:05:50Z</time>
      </trkpt>
      <trkpt lat="44.07313" lon="7.21812">
        <ele>1478.9</ele>
        <time>2022-06-11T09:05:51Z</time>
      </trkpt>
      <trkpt lat="44.07319" lon="7.21797">
        <ele>1478.2</ele>
        <time>2022-06-11T09:05:52Z</time>
      </trkpt>
      <trkpt lat="44.07324" lon="7.21782">
        <ele>1477.5</ele>
        <time>2022-06-11T09:05:53Z</time>
      </trkpt>
      <trkpt lat="44.0733" lon="7.21766">
        <ele>1476.9</ele>
        <time>2022-06-11T09:05:54Z</time>
      </trkpt>
      <trkpt lat="44.07336" lon="7.2175">
        <ele>1476.2</ele>
        <time>2022-06-11T09:05:55Z</time>
      </trkpt>
      <trkpt lat="44.07341" lon="7.21734">
        <ele>1475.2</ele>
        <time>2022-06-11T09:05:56Z</time>
      </trkpt>
      <trkpt lat="44.07347" lon="7.21719">
        <ele>1474.4</ele>
        <time>2022-06-11T09:05:57Z</time>
      </trkpt>
      <trkpt lat="44.07352" lon="7.21702">
        <ele>1473.4</ele>
        <time>2022-06-11T09:05:58Z</time>
      </trkpt>
      <trkpt lat="44.07357" lon="7.21686">
        <ele>1472.2</ele>
        <time>2022-06-11T09:05:59Z</time>
      </trkpt>
      <trkpt lat="44.07363" lon="7.21669">
        <ele>1471.2</ele>
        <time>2022-06-11T09:06:00Z</time>
      </trkpt>
      <trkpt lat="44.07368" lon="7.21653">
        <ele>1469.8</ele>
        <time>2022-06-11T09:06:01Z</time>
      </trkpt>
      <trkpt lat="44.07374" lon="7.21637">
        <ele>1468.6</ele>
        <time>2022-06-11T09:06:02Z</time>
      </trkpt>
      <trkpt lat="44.07381" lon="7.21621">
        <ele>1467.7</ele>
        <time>2022-06-11T09:06:03Z</time>
      </trkpt>
      <trkpt lat="44.07387" lon="7.21606">
        <ele>1467</ele>
        <time>2022-06-11T09:06:04Z</time>
      </trkpt>
      <trkpt lat="44.07393" lon="7.21592">
        <ele>1466.1</ele>
        <time>2022-06-11T09:06:05Z</time>
      </trkpt>
      <trkpt lat="44.07398" lon="7.21578">
        <ele>1465.3</ele>
        <time>2022-06-11T09:06:06Z</time>
      </trkpt>
      <trkpt lat="44.07402" lon="7.21562">
        <ele>1463.8</ele>
        <time>2022-06-11T09:06:07Z</time>
      </trkpt>
      <trkpt lat="44.07403" lon="7.21545">
        <ele>1462.1</ele>
        <time>2022-06-11T09:06:08Z</time>
      </trkpt>
      <trkpt lat="44.07402" lon="7.21528">
        <ele>1460.7</ele>
        <time>2022-06-11T09:06:09Z</time>
      </trkpt>
      <trkpt lat="44.074" lon="7.21511">
        <ele>1459.8</ele>
        <time>2022-06-11T09:06:10Z</time>
      </trkpt>
      <trkpt lat="44.07397" lon="7.21495">
        <ele>1458</ele>
        <time>2022-06-11T09:06:11Z</time>
      </trkpt>
      <trkpt lat="44.07392" lon="7.2148">
        <ele>1456.4</ele>
        <time>2022-06-11T09:06:12Z</time>
      </trkpt>
      <trkpt lat="44.07389" lon="7.21463">
        <ele>1455.2</ele>
        <time>2022-06-11T09:06:13Z</time>
      </trkpt>
      <trkpt lat="44.07387" lon="7.21446">
        <ele>1454.8</ele>
        <time>2022-06-11T09:06:14Z</time>
      </trkpt>
      <trkpt lat="44.07386" lon="7.21428">
        <ele>1453.9</ele>
        <time>2022-06-11T09:06:15Z</time>
      </trkpt>
      <trkpt lat="44.07386" lon="7.2141">
        <ele>1453.3</ele>
        <time>2022-06-11T09:06:16Z</time>
      </trkpt>
      <trkpt lat="44.07386" lon="7.21392">
        <ele>1452.8</ele>
        <time>2022-06-11T09:06:17Z</time>
      </trkpt>
      <trkpt lat="44.07387" lon="7.21374">
        <ele>1452.3</ele>
        <time>2022-06-11T09:06:18Z</time>
      </trkpt>
      <trkpt lat="44.07387" lon="7.21355">
        <ele>1451.8</ele>
        <time>2022-06-11T09:06:19Z</time>
      </trkpt>
      <trkpt lat="44.07388" lon="7.21337">
        <ele>1451.6</ele>
        <time>2022-06-11T09:06:20Z</time>
      </trkpt>
      <trkpt lat="44.07389" lon="7.21318">
        <ele>1450.7</ele>
        <time>2022-06-11T09:06:21Z</time>
      </trkpt>
      <trkpt lat="44.07389" lon="7.21299">
        <ele>1449.3</ele>
        <time>2022-06-11T09:06:22Z</time>
      </trkpt>
      <trkpt lat="44.07389" lon="7.21281">
        <ele>1447.3</ele>
        <time>2022-06-11T09:06:23Z</time>
      </trkpt>
      <trkpt lat="44.07389" lon="7.21262">
        <ele>1445.2</ele>
        <time>2022-06-11T09:06:24Z</time>
      </trkpt>
      <trkpt lat="44.07389" lon="7.21243">
        <ele>1443.3</ele>
        <time>2022-06-11T09:06:25Z</time>
      </trkpt>
      <trkpt lat="44.07388" lon="7.21224">
        <ele>1441.7</ele>
        <time>2022-06-11T09:06:26Z</time>
      </trkpt>
      <trkpt lat="44.07388" lon="7.21205">
        <ele>1440.2</ele>
        <time>2022-06-11T09:06:27Z</time>
      </trkpt>
      <trkpt lat="44.07387" lon="7.21185">
        <ele>1438.5</ele>
        <time>2022-06-11T09:06:28Z</time>
      </trkpt>
      <trkpt lat="44.07388" lon="7.21166">
        <ele>1437.3</ele>
        <time>2022-06-11T09:06:29Z</time>
      </trkpt>
      <trkpt lat="44.07388" lon="7.21147">
        <ele>1436.2</ele>
        <time>2022-06-11T09:06:30Z</time>
      </trkpt>
      <trkpt lat="44.0739" lon="7.21128">
        <ele>1435.2</ele>
        <time>2022-06-11T09:06:31Z</time>
      </trkpt>
      <trkpt lat="44.07392" lon="7.21109">
        <ele>1434.4</ele>
        <time>2022-06-11T09:06:32Z</time>
      </trkpt>
      <trkpt lat="44.07395" lon="7.2109">
        <ele>1434.2</ele>
        <time>2022-06-11T09:06:33Z</time>
      </trkpt>
      <trkpt lat="44.07397" lon="7.21071">
        <ele>1433.9</ele>
        <time>2022-06-11T09:06:34Z</time>
      </trkpt>
      <trkpt lat="44.07399" lon="7.21052">
        <ele>1433.4</ele>
        <time>2022-06-11T09:06:35Z</time>
      </trkpt>
      <trkpt lat="44.07401" lon="7.21035">
        <ele>1432.4</ele>
        <time>2022-06-11T09:06:36Z</time>
      </trkpt>
      <trkpt lat="44.07403" lon="7.21018">
        <ele>1431.6</ele>
        <time>2022-06-11T09:06:37Z</time>
      </trkpt>
      <trkpt lat="44.07404" lon="7.21002">
        <ele>1430.7</ele>
        <time>2022-06-11T09:06:38Z</time>
      </trkpt>
      <trkpt lat="44.07404" lon="7.20986">
        <ele>1430.6</ele>
        <time>2022-06-11T09:06:39Z</time>
      </trkpt>
      <trkpt lat="44.07403" lon="7.2097">
        <ele>1430.1</ele>
        <time>2022-06-11T09:06:40Z</time>
      </trkpt>
      <trkpt lat="44.07399" lon="7.20954">
        <ele>1429.4</ele>
        <time>2022-06-11T09:06:41Z</time>
      </trkpt>
      <trkpt lat="44.07394" lon="7.20938">
        <ele>1427.9</ele>
        <time>2022-06-11T09:06:42Z</time>
      </trkpt>
      <trkpt lat="44.07387" lon="7.20923">
        <ele>1426.2</ele>
        <time>2022-06-11T09:06:43Z</time>
      </trkpt>
      <trkpt lat="44.0738" lon="7.20908">
        <ele>1424.5</ele>
        <time>2022-06-11T09:06:44Z</time>
      </trkpt>
      <trkpt lat="44.07375" lon="7.20892">
        <ele>1423.4</ele>
        <time>2022-06-11T09:06:45Z</time>
      </trkpt>
      <trkpt lat="44.0737" lon="7.20876">
        <ele>1422.4</ele>
        <time>2022-06-11T09:06:46Z</time>
      </trkpt>
      <trkpt lat="44.07366" lon="7.20861">
        <ele>1421.6</ele>
        <time>2022-06-11T09:06:47Z</time>
      </trkpt>
      <trkpt lat="44.07364" lon="7.20845">
        <ele>1421.1</ele>
        <time>2022-06-11T09:06:48Z</time>
      </trkpt>
      <trkpt lat="44.07363" lon="7.20828">
        <ele>1420.7</ele>
        <time>2022-06-11T09:06:49Z</time>
      </trkpt>
      <trkpt lat="44.07363" lon="7.20812">
        <ele>1420.1</ele>
        <time>2022-06-11T09:06:50Z</time>
      </trkpt>
      <trkpt lat="44.07363" lon="7.20795">
        <ele>1419.2</ele>
        <time>2022-06-11T09:06:51Z</time>
      </trkpt>
      <trkpt lat="44.07363" lon="7.20778">
        <ele>1417.8</ele>
        <time>2022-06-11T09:06:52Z</time>
      </trkpt>
      <trkpt lat="44.07362" lon="7.2076">
        <ele>1415.7</ele>
        <time>2022-06-11T09:06:53Z</time>
      </trkpt>
      <trkpt lat="44.07362" lon="7.20742">
        <ele>1413.8</ele>
        <time>2022-06-11T09:06:54Z</time>
      </trkpt>
      <trkpt lat="44.07362" lon="7.20724">
        <ele>1411.7</ele>
        <time>2022-06-11T09:06:55Z</time>
      </trkpt>
      <trkpt lat="44.07362" lon="7.20706">
        <ele>1410.7</ele>
        <time>2022-06-11T09:06:56Z</time>
      </trkpt>
      <trkpt lat="44.07361" lon="7.20688">
        <ele>1409.7</ele>
        <time>2022-06-11T09:06:57Z</time>
      </trkpt>
      <trkpt lat="44.07359" lon="7.2067">
        <ele>1409</ele>
        <time>2022-06-11T09:06:58Z</time>
      </trkpt>
      <trkpt lat="44.07358" lon="7.20651">
        <ele>1408.2</ele>
        <time>2022-06-11T09:06:59Z</time>
      </trkpt>
      <trkpt lat="44.07357" lon="7.20633">
        <ele>1407.6</ele>
        <time>2022-06-11T09:07:00Z</time>
      </trkpt>
      <trkpt lat="44.07356" lon="7.20617">
        <ele>1407.2</ele>
        <time>2022-06-11T09:07:01Z</time>
      </trkpt>
      <trkpt lat="44.07355" lon="7.20602">
        <ele>1407.1</ele>
        <time>2022-06-11T09:07:02Z</time>
      </trkpt>
      <trkpt lat="44.07353" lon="7.2059">
        <ele>1406.9</ele>
        <time>2022-06-11T09:07:03Z</time>
      </trkpt>
      <trkpt lat="44.0735" lon="7.20578">
        <ele>1406.2</ele>
        <time>2022-06-11T09:07:04Z</time>
      </trkpt>
      <trkpt lat="44.07345" lon="7.20568">
        <ele>1404.7</ele>
        <time>2022-06-11T09:07:05Z</time>
      </trkpt>
      <trkpt lat="44.07337" lon="7.2056">
        <ele>1402.2</ele>
        <time>2022-06-11T09:07:06Z</time>
      </trkpt>
      <trkpt lat="44.07328" lon="7.20555">
        <ele>1398.8</ele>
        <time>2022-06-11T09:07:07Z</time>
      </trkpt>
      <trkpt lat="44.07317" lon="7.20551">
        <ele>1395.4</ele>
        <time>2022-06-11T09:07:08Z</time>
      </trkpt>
      <trkpt lat="44.07307" lon="7.20547">
        <ele>1392</ele>
        <time>2022-06-11T09:07:09Z</time>
      </trkpt>
      <trkpt lat="44.07297" lon="7.2054">
        <ele>1389.4</ele>
        <time>2022-06-11T09:07:10Z</time>
      </trkpt>
      <trkpt lat="44.07288" lon="7.20532">
        <ele>1387.4</ele>
        <time>2022-06-11T09:07:11Z</time>
      </trkpt>
      <trkpt lat="44.07281" lon="7.20522">
        <ele>1385.9</ele>
        <time>2022-06-11T09:07:12Z</time>
      </trkpt>
      <trkpt lat="44.07274" lon="7.20511">
        <ele>1385</ele>
        <time>2022-06-11T09:07:13Z</time>
      </trkpt>
      <trkpt lat="44.07268" lon="7.20499">
        <ele>1384.4</ele>
        <time>2022-06-11T09:07:14Z</time>
      </trkpt>
      <trkpt lat="44.07264" lon="7.20485">
        <ele>1384</ele>
        <time>2022-06-11T09:07:15Z</time>
      </trkpt>
      <trkpt lat="44.07261" lon="7.20471">
        <ele>1384.2</ele>
        <time>2022-06-11T09:07:16Z</time>
      </trkpt>
      <trkpt lat="44.07259" lon="7.20455">
        <ele>1384</ele>
        <time>2022-06-11T09:07:17Z</time>
      </trkpt>
      <trkpt lat="44.07258" lon="7.2044">
        <ele>1384.4</ele>
        <time>2022-06-11T09:07:18Z</time>
      </trkpt>
      <trkpt lat="44.07259" lon="7.20425">
        <ele>1385</ele>
        <time>2022-06-11T09:07:19Z</time>
      </trkpt>
      <trkpt lat="44.0726" lon="7.20409">
        <ele>1384.8</ele>
        <time>2022-06-11T09:07:20Z</time>
      </trkpt>
      <trkpt lat="44.0726" lon="7.20394">
        <ele>1383.7</ele>
        <time>2022-06-11T09:07:21Z</time>
      </trkpt>
      <trkpt lat="44.07261" lon="7.20378">
        <ele>1383.1</ele>
        <time>2022-06-11T09:07:22Z</time>
      </trkpt>
      <trkpt lat="44.07262" lon="7.20362">
        <ele>1382.6</ele>
        <time>2022-06-11T09:07:23Z</time>
      </trkpt>
      <trkpt lat="44.07263" lon="7.20346">
        <ele>1382.9</ele>
        <time>2022-06-11T09:07:24Z</time>
      </trkpt>
      <trkpt lat="44.07266" lon="7.20331">
        <ele>1383.2</ele>
        <time>2022-06-11T09:07:25Z</time>
      </trkpt>
      <trkpt lat="44.07268" lon="7.20317">
        <ele>1383.6</ele>
        <time>2022-06-11T09:07:26Z</time>
      </trkpt>
      <trkpt lat="44.0727" lon="7.20304">
        <ele>1383.9</ele>
        <time>2022-06-11T09:07:27Z</time>
      </trkpt>
      <trkpt lat="44.07271" lon="7.20294">
        <ele>1384</ele>
        <time>2022-06-11T09:07:28Z</time>
      </trkpt>
      <trkpt lat="44.0727" lon="7.20285">
        <ele>1383.9</ele>
        <time>2022-06-11T09:07:29Z</time>
      </trkpt>
      <trkpt lat="44.07267" lon="7.20277">
        <ele>1383.4</ele>
        <time>2022-06-11T09:07:30Z</time>
      </trkpt>
      <trkpt lat="44.07262" lon="7.20272">
        <ele>1382.4</ele>
        <time>2022-06-11T09:07:31Z</time>
      </trkpt>
      <trkpt lat="44.07255" lon="7.2027">
        <ele>1381.4</ele>
        <time>2022-06-11T09:07:32Z</time>
      </trkpt>
      <trkpt lat="44.07248" lon="7.20271">
        <ele>1380.4</ele>
        <time>2022-06-11T09:07:33Z</time>
      </trkpt>
      <trkpt lat="44.07242" lon="7.20276">
        <ele>1379.5</ele>
        <time>2022-06-11T09:07:34Z</time>
      </trkpt>
      <trkpt lat="44.07238" lon="7.20283">
        <ele>1378.8</ele>
        <time>2022-06-11T09:07:35Z</time>
      </trkpt>
      <trkpt lat="44.07235" lon="7.20293">
        <ele>1378.3</ele>
        <time>2022-06-11T09:07:36Z</time>
      </trkpt>
      <trkpt lat="44.07234" lon="7.20304">
        <ele>1378</ele>
        <time>2022-06-11T09:07:37Z</time>
      </trkpt>
      <trkpt lat="44.07232" lon="7.20315">
        <ele>1377.8</ele>
        <time>2022-06-11T09:07:38Z</time>
      </trkpt>
      <trkpt lat="44.07231" lon="7.20326">
        <ele>1377.5</ele>
        <time>2022-06-11T09:07:39Z</time>
      </trkpt>
      <trkpt lat="44.07229" lon="7.20338">
        <ele>1377</ele>
        <time>2022-06-11T09:07:40Z</time>
      </trkpt>
      <trkpt lat="44.07227" lon="7.20351">
        <ele>1376.2</ele>
        <time>2022-06-11T09:07:41Z</time>
      </trkpt>
      <trkpt lat="44.07226" lon="7.20364">
        <ele>1375.5</ele>
        <time>2022-06-11T09:07:42Z</time>
      </trkpt>
      <trkpt lat="44.07225" lon="7.20378">
        <ele>1374.9</ele>
        <time>2022-06-11T09:07:43Z</time>
      </trkpt>
      <trkpt lat="44.07223" lon="7.20391">
        <ele>1374.2</ele>
        <time>2022-06-11T09:07:44Z</time>
      </trkpt>
      <trkpt lat="44.07222" lon="7.20406">
        <ele>1373.4</ele>
        <time>2022-06-11T09:07:45Z</time>
      </trkpt>
      <trkpt lat="44.07221" lon="7.2042">
        <ele>1372.4</ele>
        <time>2022-06-11T09:07:46Z</time>
      </trkpt>
      <trkpt lat="44.07219" lon="7.20435">
        <ele>1370.9</ele>
        <time>2022-06-11T09:07:47Z</time>
      </trkpt>
      <trkpt lat="44.07218" lon="7.20451">
        <ele>1369.6</ele>
        <time>2022-06-11T09:07:48Z</time>
      </trkpt>
      <trkpt lat="44.07216" lon="7.20466">
        <ele>1368.1</ele>
        <time>2022-06-11T09:07:49Z</time>
      </trkpt>
      <trkpt lat="44.07215" lon="7.20483">
        <ele>1366.6</ele>
        <time>2022-06-11T09:07:50Z</time>
      </trkpt>
      <trkpt lat="44.07215" lon="7.20499">
        <ele>1365.2</ele>
        <time>2022-06-11T09:07:51Z</time>
      </trkpt>
      <trkpt lat="44.07216" lon="7.20516">
        <ele>1363.9</ele>
        <time>2022-06-11T09:07:52Z</time>
      </trkpt>
      <trkpt lat="44.07219" lon="7.20532">
        <ele>1362.8</ele>
        <time>2022-06-11T09:07:53Z</time>
      </trkpt>
      <trkpt lat="44.07222" lon="7.20547">
        <ele>1361.8</ele>
        <time>2022-06-11T09:07:54Z</time>
      </trkpt>
      <trkpt lat="44.07226" lon="7.20561">
        <ele>1361.4</ele>
        <time>2022-06-11T09:07:55Z</time>
      </trkpt>
      <trkpt lat="44.0723" lon="7.20573">
        <ele>1361.1</ele>
        <time>2022-06-11T09:07:56Z</time>
      </trkpt>
      <trkpt lat="44.07234" lon="7.20586">
        <ele>1360.7</ele>
        <time>2022-06-11T09:07:57Z</time>
      </trkpt>
      <trkpt lat="44.07237" lon="7.20599">
        <ele>1360.6</ele>
        <time>2022-06-11T09:07:58Z</time>
      </trkpt>
      <trkpt lat="44.07239" lon="7.20612">
        <ele>1360.3</ele>
        <time>2022-06-11T09:07:59Z</time>
      </trkpt>
      <trkpt lat="44.0724" lon="7.20626">
        <ele>1359.8</ele>
        <time>2022-06-11T09:08:00Z</time>
      </trkpt>
      <trkpt lat="44.0724" lon="7.2064">
        <ele>1359.2</ele>
        <time>2022-06-11T09:08:01Z</time>
      </trkpt>
      <trkpt lat="44.07239" lon="7.20655">
        <ele>1358.7</ele>
        <time>2022-06-11T09:08:02Z</time>
      </trkpt>
      <trkpt lat="44.07238" lon="7.2067">
        <ele>1358.1</ele>
        <time>2022-06-11T09:08:03Z</time>
      </trkpt>
      <trkpt lat="44.07237" lon="7.20685">
        <ele>1357.3</ele>
        <time>2022-06-11T09:08:04Z</time>
      </trkpt>
      <trkpt lat="44.07235" lon="7.207">
        <ele>1356.7</ele>
        <time>2022-06-11T09:08:05Z</time>
      </trkpt>
      <trkpt lat="44.07234" lon="7.20716">
        <ele>1356</ele>
        <time>2022-06-11T09:08:06Z</time>
      </trkpt>
      <trkpt lat="44.07234" lon="7.20732">
        <ele>1355.6</ele>
        <time>2022-06-11T09:08:07Z</time>
      </trkpt>
      <trkpt lat="44.07235" lon="7.20748">
        <ele>1355.5</ele>
        <time>2022-06-11T09:08:08Z</time>
      </trkpt>
      <trkpt lat="44.07235" lon="7.20765">
        <ele>1355.2</ele>
        <time>2022-06-11T09:08:09Z</time>
      </trkpt>
      <trkpt lat="44.07234" lon="7.2078">
        <ele>1354.6</ele>
        <time>2022-06-11T09:08:10Z</time>
      </trkpt>
      <trkpt lat="44.07231" lon="7.20795">
        <ele>1354</ele>
        <time>2022-06-11T09:08:11Z</time>
      </trkpt>
      <trkpt lat="44.07226" lon="7.20808">
        <ele>1352.7</ele>
        <time>2022-06-11T09:08:12Z</time>
      </trkpt>
      <trkpt lat="44.07221" lon="7.20821">
        <ele>1351.5</ele>
        <time>2022-06-11T09:08:13Z</time>
      </trkpt>
      <trkpt lat="44.07216" lon="7.20835">
        <ele>1350.9</ele>
        <time>2022-06-11T09:08:14Z</time>
      </trkpt>
      <trkpt lat="44.07214" lon="7.20848">
        <ele>1350.7</ele>
        <time>2022-06-11T09:08:15Z</time>
      </trkpt>
      <trkpt lat="44.07215" lon="7.20861">
        <ele>1351.3</ele>
        <time>2022-06-11T09:08:16Z</time>
      </trkpt>
      <trkpt lat="44.07217" lon="7.20871">
        <ele>1352</ele>
        <time>2022-06-11T09:08:17Z</time>
      </trkpt>
      <trkpt lat="44.07217" lon="7.20881">
        <ele>1352.1</ele>
        <time>2022-06-11T09:08:18Z</time>
      </trkpt>
      <trkpt lat="44.07215" lon="7.20889">
        <ele>1351.5</ele>
        <time>2022-06-11T09:08:19Z</time>
      </trkpt>
      <trkpt lat="44.07212" lon="7.20896">
        <ele>1350.1</ele>
        <time>2022-06-11T09:08:20Z</time>
      </trkpt>
      <trkpt lat="44.07207" lon="7.20898">
        <ele>1348.4</ele>
        <time>2022-06-11T09:08:21Z</time>
      </trkpt>
      <trkpt lat="44.07202" lon="7.20896">
        <ele>1346.6</ele>
        <time>2022-06-11T09:08:22Z</time>
      </trkpt>
      <trkpt lat="44.07198" lon="7.20889">
        <ele>1345.4</ele>
        <time>2022-06-11T09:08:23Z</time>
      </trkpt>
      <trkpt lat="44.07197" lon="7.2088">
        <ele>1345</ele>
        <time>2022-06-11T09:08:24Z</time>
      </trkpt>
      <trkpt lat="44.07197" lon="7.2087">
        <ele>1345</ele>
        <time>2022-06-11T09:08:25Z</time>
      </trkpt>
      <trkpt lat="44.07197" lon="7.2086">
        <ele>1344.9</ele>
        <time>2022-06-11T09:08:26Z</time>
      </trkpt>
      <trkpt lat="44.07198" lon="7.2085">
        <ele>1344.7</ele>
        <time>2022-06-11T09:08:27Z</time>
      </trkpt>
      <trkpt lat="44.07198" lon="7.20839">
        <ele>1344.5</ele>
        <time>2022-06-11T09:08:28Z</time>
      </trkpt>
      <trkpt lat="44.07199" lon="7.20828">
        <ele>1344.4</ele>
        <time>2022-06-11T09:08:29Z</time>
      </trkpt>
      <trkpt lat="44.072" lon="7.20817">
        <ele>1344.2</ele>
        <time>2022-06-11T09:08:30Z</time>
      </trkpt>
      <trkpt lat="44.07199" lon="7.20806">
        <ele>1343.5</ele>
        <time>2022-06-11T09:08:31Z</time>
      </trkpt>
      <trkpt lat="44.07196" lon="7.20795">
        <ele>1342.2</ele>
        <time>2022-06-11T09:08:32Z</time>
      </trkpt>
      <trkpt lat="44.07191" lon="7.20784">
        <ele>1340.4</ele>
        <time>2022-06-11T09:08:33Z</time>
      </trkpt>
      <trkpt lat="44.07186" lon="7.20774">
        <ele>1338.9</ele>
        <time>2022-06-11T09:08:34Z</time>
      </trkpt>
      <trkpt lat="44.07179" lon="7.20764">
        <ele>1337.6</ele>
        <time>2022-06-11T09:08:35Z</time>
      </trkpt>
      <trkpt lat="44.07173" lon="7.20754">
        <ele>1336.5</ele>
        <time>2022-06-11T09:08:36Z</time>
      </trkpt>
      <trkpt lat="44.07168" lon="7.20742">
        <ele>1335.6</ele>
        <time>2022-06-11T09:08:37Z</time>
      </trkpt>
      <trkpt lat="44.07164" lon="7.20729">
        <ele>1335.1</ele>
        <time>2022-06-11T09:08:38Z</time>
      </trkpt>
      <trkpt lat="44.07161" lon="7.20716">
        <ele>1334.8</ele>
        <time>2022-06-11T09:08:39Z</time>
      </trkpt>
      <trkpt lat="44.07156" lon="7.20703">
        <ele>1334.3</ele>
        <time>2022-06-11T09:08:40Z</time>
      </trkpt>
      <trkpt lat="44.0715" lon="7.20693">
        <ele>1333.6</ele>
        <time>2022-06-11T09:08:41Z</time>
      </trkpt>
      <trkpt lat="44.07143" lon="7.20684">
        <ele>1332.6</ele>
        <time>2022-06-11T09:08:42Z</time>
      </trkpt>
      <trkpt lat="44.07134" lon="7.20677">
        <ele>1331.3</ele>
        <time>2022-06-11T09:08:43Z</time>
      </trkpt>
      <trkpt lat="44.07124" lon="7.20672">
        <ele>1329.9</ele>
        <time>2022-06-11T09:08:44Z</time>
      </trkpt>
      <trkpt lat="44.07114" lon="7.20666">
        <ele>1328.6</ele>
        <time>2022-06-11T09:08:45Z</time>
      </trkpt>
      <trkpt lat="44.07105" lon="7.20658">
        <ele>1327.9</ele>
        <time>2022-06-11T09:08:46Z</time>
      </trkpt>
      <trkpt lat="44.07096" lon="7.20649">
        <ele>1327.4</ele>
        <time>2022-06-11T09:08:47Z</time>
      </trkpt>
      <trkpt lat="44.07088" lon="7.20639">
        <ele>1326.8</ele>
        <time>2022-06-11T09:08:48Z</time>
      </trkpt>
      <trkpt lat="44.07079" lon="7.2063">
        <ele>1326.4</ele>
        <time>2022-06-11T09:08:49Z</time>
      </trkpt>
      <trkpt lat="44.07069" lon="7.20623">
        <ele>1325.6</ele>
        <time>2022-06-11T09:08:50Z</time>
      </trkpt>
      <trkpt lat="44.07058" lon="7.20617">
        <ele>1324.2</ele>
        <time>2022-06-11T09:08:51Z</time>
      </trkpt>
      <trkpt lat="44.07047" lon="7.20612">
        <ele>1323</ele>
        <time>2022-06-11T09:08:52Z</time>
      </trkpt>
      <trkpt lat="44.07036" lon="7.20606">
        <ele>1322.2</ele>
        <time>2022-06-11T09:08:53Z</time>
      </trkpt>
      <trkpt lat="44.07025" lon="7.20599">
        <ele>1321.1</ele>
        <time>2022-06-11T09:08:54Z</time>
      </trkpt>
      <trkpt lat="44.07014" lon="7.20591">
        <ele>1320.1</ele>
        <time>2022-06-11T09:08:55Z</time>
      </trkpt>
      <trkpt lat="44.07004" lon="7.20582">
        <ele>1319.4</ele>
        <time>2022-06-11T09:08:56Z</time>
      </trkpt>
      <trkpt lat="44.06993" lon="7.20573">
        <ele>1318.4</ele>
        <time>2022-06-11T09:08:57Z</time>
      </trkpt>
      <trkpt lat="44.06982" lon="7.20563">
        <ele>1317.2</ele>
        <time>2022-06-11T09:08:58Z</time>
      </trkpt>
      <trkpt lat="44.06972" lon="7.20554">
        <ele>1316</ele>
        <time>2022-06-11T09:08:59Z</time>
      </trkpt>
      <trkpt lat="44.06962" lon="7.20545">
        <ele>1315.1</ele>
        <time>2022-06-11T09:09:00Z</time>
      </trkpt>
      <trkpt lat="44.06952" lon="7.20536">
        <ele>1314.1</ele>
        <time>2022-06-11T09:09:01Z</time>
      </trkpt>
      <trkpt lat="44.06942" lon="7.20527">
        <ele>1312.8</ele>
        <time>2022-06-11T09:09:02Z</time>
      </trkpt>
      <trkpt lat="44.06933" lon="7.20518">
        <ele>1311.9</ele>
        <time>2022-06-11T09:09:03Z</time>
      </trkpt>
      <trkpt lat="44.06923" lon="7.20509">
        <ele>1310.8</ele>
        <time>2022-06-11T09:09:04Z</time>
      </trkpt>
      <trkpt lat="44.06913" lon="7.20501">
        <ele>1309.7</ele>
        <time>2022-06-11T09:09:05Z</time>
      </trkpt>
      <trkpt lat="44.06902" lon="7.20493">
        <ele>1309.4</ele>
        <time>2022-06-11T09:09:06Z</time>
      </trkpt>
      <trkpt lat="44.06891" lon="7.20487">
        <ele>1309.1</ele>
        <time>2022-06-11T09:09:07Z</time>
      </trkpt>
      <trkpt lat="44.06879" lon="7.2048">
        <ele>1308.9</ele>
        <time>2022-06-11T09:09:08Z</time>
      </trkpt>
      <trkpt lat="44.06868" lon="7.20473">
        <ele>1308.5</ele>
        <time>2022-06-11T09:09:09Z</time>
      </trkpt>
      <trkpt lat="44.06857" lon="7.20466">
        <ele>1307.8</ele>
        <time>2022-06-11T09:09:10Z</time>
      </trkpt>
      <trkpt lat="44.06846" lon="7.2046">
        <ele>1306.8</ele>
        <time>2022-06-11T09:09:11Z</time>
      </trkpt>
      <trkpt lat="44.06835" lon="7.20453">
        <ele>1305.9</ele>
        <time>2022-06-11T09:09:12Z</time>
      </trkpt>
      <trkpt lat="44.06824" lon="7.20447">
        <ele>1304.9</ele>
        <time>2022-06-11T09:09:13Z</time>
      </trkpt>
      <trkpt lat="44.06814" lon="7.20441">
        <ele>1304</ele>
        <time>2022-06-11T09:09:14Z</time>
      </trkpt>
      <trkpt lat="44.06804" lon="7.20434">
        <ele>1303.1</ele>
        <time>2022-06-11T09:09:15Z</time>
      </trkpt>
      <trkpt lat="44.06794" lon="7.20428">
        <ele>1301.9</ele>
        <time>2022-06-11T09:09:16Z</time>
      </trkpt>
      <trkpt lat="44.06784" lon="7.20423">
        <ele>1300.7</ele>
        <time>2022-06-11T09:09:17Z</time>
      </trkpt>
      <trkpt lat="44.06775" lon="7.20418">
        <ele>1299.5</ele>
        <time>2022-06-11T09:09:18Z</time>
      </trkpt>
      <trkpt lat="44.06765" lon="7.20415">
        <ele>1298.3</ele>
        <time>2022-06-11T09:09:19Z</time>
      </trkpt>
      <trkpt lat="44.06757" lon="7.20414">
        <ele>1297.1</ele>
        <time>2022-06-11T09:09:20Z</time>
      </trkpt>
      <trkpt lat="44.06749" lon="7.20414">
        <ele>1296.1</ele>
        <time>2022-06-11T09:09:21Z</time>
      </trkpt>
      <trkpt lat="44.06743" lon="7.20415">
        <ele>1295.6</ele>
        <time>2022-06-11T09:09:22Z</time>
      </trkpt>
      <trkpt lat="44.06737" lon="7.20417">
        <ele>1295.1</ele>
        <time>2022-06-11T09:09:23Z</time>
      </trkpt>
      <trkpt lat="44.06731" lon="7.20418">
        <ele>1294.7</ele>
        <time>2022-06-11T09:09:24Z</time>
      </trkpt>
      <trkpt lat="44.06724" lon="7.20419">
        <ele>1294.1</ele>
        <time>2022-06-11T09:09:25Z</time>
      </trkpt>
      <trkpt lat="44.06717" lon="7.20421">
        <ele>1293.4</ele>
        <time>2022-06-11T09:09:26Z</time>
      </trkpt>
      <trkpt lat="44.06709" lon="7.20421">
        <ele>1292.5</ele>
        <time>2022-06-11T09:09:27Z</time>
      </trkpt>
      <trkpt lat="44.06701" lon="7.2042">
        <ele>1291.6</ele>
        <time>2022-06-11T09:09:28Z</time>
      </trkpt>
      <trkpt lat="44.06693" lon="7.20418">
        <ele>1290.8</ele>
        <time>2022-06-11T09:09:29Z</time>
      </trkpt>
      <trkpt lat="44.06686" lon="7.20414">
        <ele>1289.8</ele>
        <time>2022-06-11T09:09:30Z</time>
      </trkpt>
      <trkpt lat="44.06679" lon="7.20409">
        <ele>1289.1</ele>
        <time>2022-06-11T09:09:31Z</time>
      </trkpt>
      <trkpt lat="44.06672" lon="7.20402">
        <ele>1288.6</ele>
        <time>2022-06-11T09:09:32Z</time>
      </trkpt>
      <trkpt lat="44.06667" lon="7.20394">
        <ele>1288.6</ele>
        <time>2022-06-11T09:09:33Z</time>
      </trkpt>
      <trkpt lat="44.06663" lon="7.20385">
        <ele>1288.6</ele>
        <time>2022-06-11T09:09:34Z</time>
      </trkpt>
      <trkpt lat="44.06659" lon="7.20375">
        <ele>1288.1</ele>
        <time>2022-06-11T09:09:35Z</time>
      </trkpt>
      <trkpt lat="44.06656" lon="7.20363">
        <ele>1287.8</ele>
        <time>2022-06-11T09:09:36Z</time>
      </trkpt>
      <trkpt lat="44.06655" lon="7.20352">
        <ele>1287.7</ele>
        <time>2022-06-11T09:09:37Z</time>
      </trkpt>
      <trkpt lat="44.06655" lon="7.2034">
        <ele>1287.7</ele>
        <time>2022-06-11T09:09:38Z</time>
      </trkpt>
      <trkpt lat="44.06655" lon="7.20328">
        <ele>1287.5</ele>
        <time>2022-06-11T09:09:39Z</time>
      </trkpt>
      <trkpt lat="44.06655" lon="7.20316">
        <ele>1287.1</ele>
        <time>2022-06-11T09:09:40Z</time>
      </trkpt>
      <trkpt lat="44.06656" lon="7.20304">
        <ele>1286.8</ele>
        <time>2022-06-11T09:09:41Z</time>
      </trkpt>
      <trkpt lat="44.06656" lon="7.20292">
        <ele>1286.9</ele>
        <time>2022-06-11T09:09:42Z</time>
      </trkpt>
      <trkpt lat="44.06657" lon="7.2028">
        <ele>1286.9</ele>
        <time>2022-06-11T09:09:43Z</time>
      </trkpt>
      <trkpt lat="44.06656" lon="7.20269">
        <ele>1286.6</ele>
        <time>2022-06-11T09:09:44Z</time>
      </trkpt>
      <trkpt lat="44.06656" lon="7.20259">
        <ele>1286.1</ele>
        <time>2022-06-11T09:09:45Z</time>
      </trkpt>
      <trkpt lat="44.06655" lon="7.20252">
        <ele>1285.8</ele>
        <time>2022-06-11T09:09:46Z</time>
      </trkpt>
      <trkpt lat="44.06655" lon="7.20247">
        <ele>1285.6</ele>
        <time>2022-06-11T09:09:47Z</time>
      </trkpt>
      <trkpt lat="44.06654" lon="7.20242">
        <ele>1285.5</ele>
        <time>2022-06-11T09:09:48Z</time>
      </trkpt>
      <trkpt lat="44.06653" lon="7.20236">
        <ele>1285.3</ele>
        <time>2022-06-11T09:09:49Z</time>
      </trkpt>
      <trkpt lat="44.06653" lon="7.2023">
        <ele>1285.1</ele>
        <time>2022-06-11T09:09:50Z</time>
      </trkpt>
      <trkpt lat="44.06652" lon="7.20224">
        <ele>1285</ele>
        <time>2022-06-11T09:09:51Z</time>
      </trkpt>
      <trkpt lat="44.06651" lon="7.20216">
        <ele>1284.8</ele>
        <time>2022-06-11T09:09:52Z</time>
      </trkpt>
      <trkpt lat="44.06651" lon="7.20209">
        <ele>1284.6</ele>
        <time>2022-06-11T09:09:53Z</time>
      </trkpt>
      <trkpt lat="44.0665" lon="7.202">
        <ele>1284.5</ele>
        <time>2022-06-11T09:09:54Z</time>
      </trkpt>
      <trkpt lat="44.06649" lon="7.20191">
        <ele>1284.3</ele>
        <time>2022-06-11T09:09:55Z</time>
      </trkpt>
      <trkpt lat="44.06649" lon="7.20182">
        <ele>1284</ele>
        <time>2022-06-11T09:09:56Z</time>
      </trkpt>
      <trkpt lat="44.06649" lon="7.20172">
        <ele>1283.8</ele>
        <time>2022-06-11T09:09:57Z</time>
      </trkpt>
      <trkpt lat="44.06651" lon="7.20164">
        <ele>1283.4</ele>
        <time>2022-06-11T09:09:58Z</time>
      </trkpt>
      <trkpt lat="44.06654" lon="7.20156">
        <ele>1282.9</ele>
        <time>2022-06-11T09:09:59Z</time>
      </trkpt>
      <trkpt lat="44.06658" lon="7.20149">
        <ele>1282.3</ele>
        <time>2022-06-11T09:10:00Z</time>
      </trkpt>
      <trkpt lat="44.06662" lon="7.20143">
        <ele>1281.6</ele>
        <time>2022-06-11T09:10:01Z</time>
      </trkpt>
      <trkpt lat="44.06666" lon="7.20137">
        <ele>1280.9</ele>
        <time>2022-06-11T09:10:02Z</time>
      </trkpt>
      <trkpt lat="44.06669" lon="7.2013">
        <ele>1280.6</ele>
        <time>2022-06-11T09:10:03Z</time>
      </trkpt>
      <trkpt lat="44.06671" lon="7.20122">
        <ele>1280.1</ele>
        <time>2022-06-11T09:10:04Z</time>
      </trkpt>
      <trkpt lat="44.06672" lon="7.20114">
        <ele>1279.5</ele>
        <time>2022-06-11T09:10:05Z</time>
      </trkpt>
      <trkpt lat="44.06672" lon="7.20107">
        <ele>1278.4</ele>
        <time>2022-06-11T09:10:06Z</time>
      </trkpt>
      <trkpt lat="44.06671" lon="7.20101">
        <ele>1277.2</ele>
        <time>2022-06-11T09:10:07Z</time>
      </trkpt>
      <trkpt lat="44.06671" lon="7.20095">
        <ele>1275.9</ele>
        <time>2022-06-11T09:10:08Z</time>
      </trkpt>
      <trkpt lat="44.0667" lon="7.20088">
        <ele>1274.5</ele>
        <time>2022-06-11T09:10:09Z</time>
      </trkpt>
      <trkpt lat="44.0667" lon="7.20081">
        <ele>1273.4</ele>
        <time>2022-06-11T09:10:10Z</time>
      </trkpt>
      <trkpt lat="44.06669" lon="7.20076">
        <ele>1273.4</ele>
        <time>2022-06-11T09:10:11Z</time>
      </trkpt>
      <trkpt lat="44.0667" lon="7.20073">
        <ele>1273.5</ele>
        <time>2022-06-11T09:10:12Z</time>
      </trkpt>
      <trkpt lat="44.0667" lon="7.20072">
        <ele>1273.5</ele>
        <time>2022-06-11T09:10:13Z</time>
      </trkpt>
      <trkpt lat="44.0667" lon="7.20071">
        <ele>1273.5</ele>
        <time>2022-06-11T09:10:14Z</time>
      </trkpt>
      <trkpt lat="44.0667" lon="7.20071">
        <ele>1273.5</ele>
        <time>2022-06-11T09:10:15Z</time>
      </trkpt>
      <trkpt lat="44.06667" lon="7.20067">
        <ele>1273</ele>
        <time>2022-06-11T09:11:00Z</time>
      </trkpt>
      <trkpt lat="44.06666" lon="7.20064">
        <ele>1272.9</ele>
        <time>2022-06-11T09:11:01Z</time>
      </trkpt>
      <trkpt lat="44.06666" lon="7.2006">
        <ele>1272.8</ele>
        <time>2022-06-11T09:11:02Z</time>
      </trkpt>
      <trkpt lat="44.06665" lon="7.20055">
        <ele>1272.6</ele>
        <time>2022-06-11T09:11:03Z</time>
      </trkpt>
      <trkpt lat="44.06664" lon="7.20049">
        <ele>1272.7</ele>
        <time>2022-06-11T09:11:04Z</time>
      </trkpt>
      <trkpt lat="44.06664" lon="7.20043">
        <ele>1272.9</ele>
        <time>2022-06-11T09:11:05Z</time>
      </trkpt>
      <trkpt lat="44.06663" lon="7.20036">
        <ele>1272.9</ele>
        <time>2022-06-11T09:11:06Z</time>
      </trkpt>
      <trkpt lat="44.06662" lon="7.2003">
        <ele>1273</ele>
        <time>2022-06-11T09:11:07Z</time>
      </trkpt>
      <trkpt lat="44.06661" lon="7.20022">
        <ele>1273</ele>
        <time>2022-06-11T09:11:08Z</time>
      </trkpt>
      <trkpt lat="44.0666" lon="7.20015">
        <ele>1273</ele>
        <time>2022-06-11T09:11:09Z</time>
      </trkpt>
      <trkpt lat="44.06659" lon="7.20007">
        <ele>1273</ele>
        <time>2022-06-11T09:11:10Z</time>
      </trkpt>
      <trkpt lat="44.06657" lon="7.2">
        <ele>1272.9</ele>
        <time>2022-06-11T09:11:11Z</time>
      </trkpt>
      <trkpt lat="44.06656" lon="7.19992">
        <ele>1272.6</ele>
        <time>2022-06-11T09:11:12Z</time>
      </trkpt>
      <trkpt lat="44.06655" lon="7.19983">
        <ele>1272.4</ele>
        <time>2022-06-11T09:11:13Z</time>
      </trkpt>
      <trkpt lat="44.06654" lon="7.19974">
        <ele>1272.2</ele>
        <time>2022-06-11T09:11:14Z</time>
      </trkpt>
      <trkpt lat="44.06652" lon="7.19965">
        <ele>1271.7</ele>
        <time>2022-06-11T09:11:15Z</time>
      </trkpt>
      <trkpt lat="44.0665" lon="7.19955">
        <ele>1271.1</ele>
        <time>2022-06-11T09:11:16Z</time>
      </trkpt>
      <trkpt lat="44.06647" lon="7.19946">
        <ele>1270.5</ele>
        <time>2022-06-11T09:11:17Z</time>
      </trkpt>
      <trkpt lat="44.06645" lon="7.19938">
        <ele>1270.1</ele>
        <time>2022-06-11T09:11:18Z</time>
      </trkpt>
      <trkpt lat="44.06643" lon="7.19932">
        <ele>1269.7</ele>
        <time>2022-06-11T09:11:19Z</time>
      </trkpt>
      <trkpt lat="44.06641" lon="7.19926">
        <ele>1269.3</ele>
        <time>2022-06-11T09:11:20Z</time>
      </trkpt>
      <trkpt lat="44.06639" lon="7.1992">
        <ele>1269</ele>
        <time>2022-06-11T09:11:21Z</time>
      </trkpt>
      <trkpt lat="44.06637" lon="7.19913">
        <ele>1268.9</ele>
        <time>2022-06-11T09:11:22Z</time>
      </trkpt>
      <trkpt lat="44.06634" lon="7.19906">
        <ele>1269</ele>
        <time>2022-06-11T09:11:23Z</time>
      </trkpt>
      <trkpt lat="44.06631" lon="7.19899">
        <ele>1269</ele>
        <time>2022-06-11T09:11:24Z</time>
      </trkpt>
      <trkpt lat="44.06628" lon="7.19891">
        <ele>1269</ele>
        <time>2022-06-11T09:11:25Z</time>
      </trkpt>
      <trkpt lat="44.06625" lon="7.19882">
        <ele>1268.5</ele>
        <time>2022-06-11T09:11:26Z</time>
      </trkpt>
      <trkpt lat="44.06622" lon="7.19873">
        <ele>1267.9</ele>
        <time>2022-06-11T09:11:27Z</time>
      </trkpt>
      <trkpt lat="44.06618" lon="7.19863">
        <ele>1267.3</ele>
        <time>2022-06-11T09:11:28Z</time>
      </trkpt>
      <trkpt lat="44.06615" lon="7.19853">
        <ele>1266.6</ele>
        <time>2022-06-11T09:11:29Z</time>
      </trkpt>
      <trkpt lat="44.06611" lon="7.19842">
        <ele>1265.9</ele>
        <time>2022-06-11T09:11:30Z</time>
      </trkpt>
      <trkpt lat="44.06607" lon="7.19831">
        <ele>1265.2</ele>
        <time>2022-06-11T09:11:31Z</time>
      </trkpt>
      <trkpt lat="44.06603" lon="7.1982">
        <ele>1264.5</ele>
        <time>2022-06-11T09:11:32Z</time>
      </trkpt>
      <trkpt lat="44.06599" lon="7.19808">
        <ele>1263.7</ele>
        <time>2022-06-11T09:11:33Z</time>
      </trkpt>
      <trkpt lat="44.06594" lon="7.19796">
        <ele>1262.6</ele>
        <time>2022-06-11T09:11:34Z</time>
      </trkpt>
      <trkpt lat="44.0659" lon="7.19784">
        <ele>1261.4</ele>
        <time>2022-06-11T09:11:35Z</time>
      </trkpt>
      <trkpt lat="44.06586" lon="7.19771">
        <ele>1260.5</ele>
        <time>2022-06-11T09:11:36Z</time>
      </trkpt>
      <trkpt lat="44.06582" lon="7.19757">
        <ele>1259.8</ele>
        <time>2022-06-11T09:11:37Z</time>
      </trkpt>
      <trkpt lat="44.06578" lon="7.19744">
        <ele>1259</ele>
        <time>2022-06-11T09:11:38Z</time>
      </trkpt>
      <trkpt lat="44.06574" lon="7.19729">
        <ele>1258.3</ele>
        <time>2022-06-11T09:11:39Z</time>
      </trkpt>
      <trkpt lat="44.0657" lon="7.19715">
        <ele>1257.3</ele>
        <time>2022-06-11T09:11:40Z</time>
      </trkpt>
      <trkpt lat="44.06566" lon="7.197">
        <ele>1256</ele>
        <time>2022-06-11T09:11:41Z</time>
      </trkpt>
      <trkpt lat="44.06562" lon="7.19684">
        <ele>1254.7</ele>
        <time>2022-06-11T09:11:42Z</time>
      </trkpt>
      <trkpt lat="44.06559" lon="7.19669">
        <ele>1253.6</ele>
        <time>2022-06-11T09:11:43Z</time>
      </trkpt>
      <trkpt lat="44.06558" lon="7.19653">
        <ele>1252.4</ele>
        <time>2022-06-11T09:11:44Z</time>
      </trkpt>
      <trkpt lat="44.0656" lon="7.19638">
        <ele>1251.5</ele>
        <time>2022-06-11T09:11:45Z</time>
      </trkpt>
      <trkpt lat="44.06561" lon="7.19622">
        <ele>1251.2</ele>
        <time>2022-06-11T09:11:46Z</time>
      </trkpt>
      <trkpt lat="44.06562" lon="7.19605">
        <ele>1250.7</ele>
        <time>2022-06-11T09:11:47Z</time>
      </trkpt>
      <trkpt lat="44.06561" lon="7.19589">
        <ele>1250</ele>
        <time>2022-06-11T09:11:48Z</time>
      </trkpt>
      <trkpt lat="44.0656" lon="7.19572">
        <ele>1249.3</ele>
        <time>2022-06-11T09:11:49Z</time>
      </trkpt>
      <trkpt lat="44.06559" lon="7.19555">
        <ele>1248.4</ele>
        <time>2022-06-11T09:11:50Z</time>
      </trkpt>
      <trkpt lat="44.06556" lon="7.19538">
        <ele>1246.7</ele>
        <time>2022-06-11T09:11:51Z</time>
      </trkpt>
      <trkpt lat="44.06553" lon="7.19521">
        <ele>1245.5</ele>
        <time>2022-06-11T09:11:52Z</time>
      </trkpt>
      <trkpt lat="44.06551" lon="7.19503">
        <ele>1244.6</ele>
        <time>2022-06-11T09:11:53Z</time>
      </trkpt>
      <trkpt lat="44.06548" lon="7.19486">
        <ele>1243.5</ele>
        <time>2022-06-11T09:11:54Z</time>
      </trkpt>
      <trkpt lat="44.06545" lon="7.1947">
        <ele>1242.3</ele>
        <time>2022-06-11T09:11:55Z</time>
      </trkpt>
      <trkpt lat="44.06542" lon="7.19454">
        <ele>1240.8</ele>
        <time>2022-06-11T09:11:56Z</time>
      </trkpt>
      <trkpt lat="44.0654" lon="7.19439">
        <ele>1239.4</ele>
        <time>2022-06-11T09:11:57Z</time>
      </trkpt>
      <trkpt lat="44.06539" lon="7.19424">
        <ele>1238.4</ele>
        <time>2022-06-11T09:11:58Z</time>
      </trkpt>
      <trkpt lat="44.06541" lon="7.19408">
        <ele>1237.5</ele>
        <time>2022-06-11T09:11:59Z</time>
      </trkpt>
      <trkpt lat="44.06544" lon="7.19393">
        <ele>1236.7</ele>
        <time>2022-06-11T09:12:00Z</time>
      </trkpt>
      <trkpt lat="44.06547" lon="7.19378">
        <ele>1236</ele>
        <time>2022-06-11T09:12:01Z</time>
      </trkpt>
      <trkpt lat="44.0655" lon="7.19363">
        <ele>1235.3</ele>
        <time>2022-06-11T09:12:02Z</time>
      </trkpt>
      <trkpt lat="44.06553" lon="7.19348">
        <ele>1234.7</ele>
        <time>2022-06-11T09:12:03Z</time>
      </trkpt>
      <trkpt lat="44.06556" lon="7.19332">
        <ele>1234</ele>
        <time>2022-06-11T09:12:04Z</time>
      </trkpt>
      <trkpt lat="44.06559" lon="7.19316">
        <ele>1233.7</ele>
        <time>2022-06-11T09:12:05Z</time>
      </trkpt>
      <trkpt lat="44.06561" lon="7.19299">
        <ele>1233.2</ele>
        <time>2022-06-11T09:12:06Z</time>
      </trkpt>
      <trkpt lat="44.06564" lon="7.19283">
        <ele>1232.4</ele>
        <time>2022-06-11T09:12:07Z</time>
      </trkpt>
      <trkpt lat="44.06565" lon="7.19266">
        <ele>1231.5</ele>
        <time>2022-06-11T09:12:08Z</time>
      </trkpt>
      <trkpt lat="44.06567" lon="7.19249">
        <ele>1230.5</ele>
        <time>2022-06-11T09:12:09Z</time>
      </trkpt>
      <trkpt lat="44.06568" lon="7.19232">
        <ele>1229.5</ele>
        <time>2022-06-11T09:12:10Z</time>
      </trkpt>
      <trkpt lat="44.0657" lon="7.19215">
        <ele>1228.7</ele>
        <time>2022-06-11T09:12:11Z</time>
      </trkpt>
      <trkpt lat="44.06571" lon="7.19198">
        <ele>1228.3</ele>
        <time>2022-06-11T09:12:12Z</time>
      </trkpt>
      <trkpt lat="44.06572" lon="7.1918">
        <ele>1227.3</ele>
        <time>2022-06-11T09:12:13Z</time>
      </trkpt>
      <trkpt lat="44.06573" lon="7.19163">
        <ele>1226.2</ele>
        <time>2022-06-11T09:12:14Z</time>
      </trkpt>
      <trkpt lat="44.06574" lon="7.19146">
        <ele>1225.1</ele>
        <time>2022-06-11T09:12:15Z</time>
      </trkpt>
      <trkpt lat="44.06575" lon="7.19129">
        <ele>1224.1</ele>
        <time>2022-06-11T09:12:16Z</time>
      </trkpt>
      <trkpt lat="44.06578" lon="7.19113">
        <ele>1223.3</ele>
        <time>2022-06-11T09:12:17Z</time>
      </trkpt>
      <trkpt lat="44.06582" lon="7.19097">
        <ele>1222.3</ele>
        <time>2022-06-11T09:12:18Z</time>
      </trkpt>
      <trkpt lat="44.06588" lon="7.19082">
        <ele>1221.4</ele>
        <time>2022-06-11T09:12:19Z</time>
      </trkpt>
      <trkpt lat="44.06594" lon="7.19068">
        <ele>1220.8</ele>
        <time>2022-06-11T09:12:20Z</time>
      </trkpt>
      <trkpt lat="44.06599" lon="7.19053">
        <ele>1220</ele>
        <time>2022-06-11T09:12:21Z</time>
      </trkpt>
      <trkpt lat="44.06604" lon="7.19038">
        <ele>1219</ele>
        <time>2022-06-11T09:12:22Z</time>
      </trkpt>
      <trkpt lat="44.06607" lon="7.19022">
        <ele>1218</ele>
        <time>2022-06-11T09:12:23Z</time>
      </trkpt>
      <trkpt lat="44.06609" lon="7.19006">
        <ele>1217.1</ele>
        <time>2022-06-11T09:12:24Z</time>
      </trkpt>
      <trkpt lat="44.0661" lon="7.1899">
        <ele>1216.1</ele>
        <time>2022-06-11T09:12:25Z</time>
      </trkpt>
      <trkpt lat="44.06611" lon="7.18974">
        <ele>1215.1</ele>
        <time>2022-06-11T09:12:26Z</time>
      </trkpt>
      <trkpt lat="44.06612" lon="7.18957">
        <ele>1214.5</ele>
        <time>2022-06-11T09:12:27Z</time>
      </trkpt>
      <trkpt lat="44.06612" lon="7.1894">
        <ele>1214</ele>
        <time>2022-06-11T09:12:28Z</time>
      </trkpt>
      <trkpt lat="44.06613" lon="7.18924">
        <ele>1213.6</ele>
        <time>2022-06-11T09:12:29Z</time>
      </trkpt>
      <trkpt lat="44.06613" lon="7.18907">
        <ele>1213</ele>
        <time>2022-06-11T09:12:30Z</time>
      </trkpt>
      <trkpt lat="44.06613" lon="7.18891">
        <ele>1212.4</ele>
        <time>2022-06-11T09:12:31Z</time>
      </trkpt>
      <trkpt lat="44.06612" lon="7.18874">
        <ele>1211.6</ele>
        <time>2022-06-11T09:12:32Z</time>
      </trkpt>
      <trkpt lat="44.0661" lon="7.18858">
        <ele>1210.6</ele>
        <time>2022-06-11T09:12:33Z</time>
      </trkpt>
      <trkpt lat="44.06609" lon="7.18841">
        <ele>1209.8</ele>
        <time>2022-06-11T09:12:34Z</time>
      </trkpt>
      <trkpt lat="44.06609" lon="7.18824">
        <ele>1208.8</ele>
        <time>2022-06-11T09:12:35Z</time>
      </trkpt>
      <trkpt lat="44.0661" lon="7.18807">
        <ele>1207.7</ele>
        <time>2022-06-11T09:12:36Z</time>
      </trkpt>
      <trkpt lat="44.06611" lon="7.1879">
        <ele>1206.8</ele>
        <time>2022-06-11T09:12:37Z</time>
      </trkpt>
      <trkpt lat="44.06613" lon="7.18773">
        <ele>1205.9</ele>
        <time>2022-06-11T09:12:38Z</time>
      </trkpt>
      <trkpt lat="44.06615" lon="7.18756">
        <ele>1204.6</ele>
        <time>2022-06-11T09:12:39Z</time>
      </trkpt>
      <trkpt lat="44.06617" lon="7.18739">
        <ele>1203.2</ele>
        <time>2022-06-11T09:12:40Z</time>
      </trkpt>
      <trkpt lat="44.06621" lon="7.18723">
        <ele>1202.3</ele>
        <time>2022-06-11T09:12:41Z</time>
      </trkpt>
      <trkpt lat="44.06625" lon="7.18709">
        <ele>1201.4</ele>
        <time>2022-06-11T09:12:42Z</time>
      </trkpt>
      <trkpt lat="44.0663" lon="7.18696">
        <ele>1200.6</ele>
        <time>2022-06-11T09:12:43Z</time>
      </trkpt>
      <trkpt lat="44.06635" lon="7.18685">
        <ele>1200.1</ele>
        <time>2022-06-11T09:12:44Z</time>
      </trkpt>
      <trkpt lat="44.0664" lon="7.18676">
        <ele>1199.9</ele>
        <time>2022-06-11T09:12:45Z</time>
      </trkpt>
      <trkpt lat="44.06646" lon="7.1867">
        <ele>1199.9</ele>
        <time>2022-06-11T09:12:46Z</time>
      </trkpt>
      <trkpt lat="44.06653" lon="7.18666">
        <ele>1200.3</ele>
        <time>2022-06-11T09:12:47Z</time>
      </trkpt>
      <trkpt lat="44.06658" lon="7.18662">
        <ele>1200.4</ele>
        <time>2022-06-11T09:12:48Z</time>
      </trkpt>
      <trkpt lat="44.06661" lon="7.18655">
        <ele>1199.5</ele>
        <time>2022-06-11T09:12:49Z</time>
      </trkpt>
      <trkpt lat="44.06661" lon="7.18647">
        <ele>1197.7</ele>
        <time>2022-06-11T09:12:50Z</time>
      </trkpt>
      <trkpt lat="44.06657" lon="7.18641">
        <ele>1195.6</ele>
        <time>2022-06-11T09:12:51Z</time>
      </trkpt>
      <trkpt lat="44.06651" lon="7.18639">
        <ele>1194.2</ele>
        <time>2022-06-11T09:12:52Z</time>
      </trkpt>
      <trkpt lat="44.06645" lon="7.18641">
        <ele>1193.6</ele>
        <time>2022-06-11T09:12:53Z</time>
      </trkpt>
      <trkpt lat="44.0664" lon="7.18646">
        <ele>1193.6</ele>
        <time>2022-06-11T09:12:54Z</time>
      </trkpt>
      <trkpt lat="44.06634" lon="7.18651">
        <ele>1193.4</ele>
        <time>2022-06-11T09:12:55Z</time>
      </trkpt>
      <trkpt lat="44.06627" lon="7.18657">
        <ele>1193</ele>
        <time>2022-06-11T09:12:56Z</time>
      </trkpt>
      <trkpt lat="44.06621" lon="7.18663">
        <ele>1192.7</ele>
        <time>2022-06-11T09:12:57Z</time>
      </trkpt>
      <trkpt lat="44.06614" lon="7.18671">
        <ele>1192.3</ele>
        <time>2022-06-11T09:12:58Z</time>
      </trkpt>
      <trkpt lat="44.06607" lon="7.1868">
        <ele>1191.8</ele>
        <time>2022-06-11T09:12:59Z</time>
      </trkpt>
      <trkpt lat="44.06601" lon="7.18689">
        <ele>1191.3</ele>
        <time>2022-06-11T09:13:00Z</time>
      </trkpt>
      <trkpt lat="44.06594" lon="7.18699">
        <ele>1190.8</ele>
        <time>2022-06-11T09:13:01Z</time>
      </trkpt>
      <trkpt lat="44.06587" lon="7.1871">
        <ele>1190.4</ele>
        <time>2022-06-11T09:13:02Z</time>
      </trkpt>
      <trkpt lat="44.06581" lon="7.18722">
        <ele>1190.4</ele>
        <time>2022-06-11T09:13:03Z</time>
      </trkpt>
      <trkpt lat="44.06574" lon="7.18732">
        <ele>1190.9</ele>
        <time>2022-06-11T09:13:04Z</time>
      </trkpt>
      <trkpt lat="44.06566" lon="7.1874">
        <ele>1190.7</ele>
        <time>2022-06-11T09:13:05Z</time>
      </trkpt>
      <trkpt lat="44.06557" lon="7.18744">
        <ele>1189.5</ele>
        <time>2022-06-11T09:13:06Z</time>
      </trkpt>
      <trkpt lat="44.06547" lon="7.18745">
        <ele>1188.3</ele>
        <time>2022-06-11T09:13:07Z</time>
      </trkpt>
      <trkpt lat="44.06537" lon="7.18741">
        <ele>1186.6</ele>
        <time>2022-06-11T09:13:08Z</time>
      </trkpt>
      <trkpt lat="44.06527" lon="7.18736">
        <ele>1184.9</ele>
        <time>2022-06-11T09:13:09Z</time>
      </trkpt>
      <trkpt lat="44.06516" lon="7.18733">
        <ele>1183.7</ele>
        <time>2022-06-11T09:13:10Z</time>
      </trkpt>
      <trkpt lat="44.06505" lon="7.18731">
        <ele>1182.6</ele>
        <time>2022-06-11T09:13:11Z</time>
      </trkpt>
      <trkpt lat="44.06494" lon="7.1873">
        <ele>1181.8</ele>
        <time>2022-06-11T09:13:12Z</time>
      </trkpt>
      <trkpt lat="44.06483" lon="7.1873">
        <ele>1181.2</ele>
        <time>2022-06-11T09:13:13Z</time>
      </trkpt>
      <trkpt lat="44.06471" lon="7.1873">
        <ele>1180.5</ele>
        <time>2022-06-11T09:13:14Z</time>
      </trkpt>
      <trkpt lat="44.0646" lon="7.18733">
        <ele>1179.4</ele>
        <time>2022-06-11T09:13:15Z</time>
      </trkpt>
      <trkpt lat="44.06449" lon="7.18737">
        <ele>1178.6</ele>
        <time>2022-06-11T09:13:16Z</time>
      </trkpt>
      <trkpt lat="44.0644" lon="7.18744">
        <ele>1178.1</ele>
        <time>2022-06-11T09:13:17Z</time>
      </trkpt>
      <trkpt lat="44.06432" lon="7.1875">
        <ele>1177.7</ele>
        <time>2022-06-11T09:13:18Z</time>
      </trkpt>
      <trkpt lat="44.06425" lon="7.18756">
        <ele>1177.3</ele>
        <time>2022-06-11T09:13:19Z</time>
      </trkpt>
      <trkpt lat="44.06418" lon="7.18758">
        <ele>1176.7</ele>
        <time>2022-06-11T09:13:20Z</time>
      </trkpt>
      <trkpt lat="44.06411" lon="7.18757">
        <ele>1176.1</ele>
        <time>2022-06-11T09:13:21Z</time>
      </trkpt>
      <trkpt lat="44.06404" lon="7.18751">
        <ele>1175.2</ele>
        <time>2022-06-11T09:13:22Z</time>
      </trkpt>
      <trkpt lat="44.06399" lon="7.18742">
        <ele>1174.3</ele>
        <time>2022-06-11T09:13:23Z</time>
      </trkpt>
      <trkpt lat="44.06398" lon="7.1873">
        <ele>1173.5</ele>
        <time>2022-06-11T09:13:24Z</time>
      </trkpt>
      <trkpt lat="44.06399" lon="7.18719">
        <ele>1172.9</ele>
        <time>2022-06-11T09:13:25Z</time>
      </trkpt>
      <trkpt lat="44.06403" lon="7.18707">
        <ele>1172.4</ele>
        <time>2022-06-11T09:13:26Z</time>
      </trkpt>
      <trkpt lat="44.06406" lon="7.18696">
        <ele>1171.9</ele>
        <time>2022-06-11T09:13:27Z</time>
      </trkpt>
      <trkpt lat="44.0641" lon="7.18684">
        <ele>1171.6</ele>
        <time>2022-06-11T09:13:28Z</time>
      </trkpt>
      <trkpt lat="44.06414" lon="7.18672">
        <ele>1171.1</ele>
        <time>2022-06-11T09:13:29Z</time>
      </trkpt>
      <trkpt lat="44.06418" lon="7.1866">
        <ele>1170.5</ele>
        <time>2022-06-11T09:13:30Z</time>
      </trkpt>
      <trkpt lat="44.06422" lon="7.18647">
        <ele>1169.8</ele>
        <time>2022-06-11T09:13:31Z</time>
      </trkpt>
      <trkpt lat="44.06426" lon="7.18634">
        <ele>1168.8</ele>
        <time>2022-06-11T09:13:32Z</time>
      </trkpt>
      <trkpt lat="44.06431" lon="7.18622">
        <ele>1167.6</ele>
        <time>2022-06-11T09:13:33Z</time>
      </trkpt>
      <trkpt lat="44.06436" lon="7.18609">
        <ele>1166.6</ele>
        <time>2022-06-11T09:13:34Z</time>
      </trkpt>
      <trkpt lat="44.06442" lon="7.18597">
        <ele>1165.9</ele>
        <time>2022-06-11T09:13:35Z</time>
      </trkpt>
      <trkpt lat="44.06449" lon="7.18585">
        <ele>1165.2</ele>
        <time>2022-06-11T09:13:36Z</time>
      </trkpt>
      <trkpt lat="44.06455" lon="7.18572">
        <ele>1164.6</ele>
        <time>2022-06-11T09:13:37Z</time>
      </trkpt>
      <trkpt lat="44.06462" lon="7.1856">
        <ele>1164</ele>
        <time>2022-06-11T09:13:38Z</time>
      </trkpt>
      <trkpt lat="44.06469" lon="7.18549">
        <ele>1163.4</ele>
        <time>2022-06-11T09:13:39Z</time>
      </trkpt>
      <trkpt lat="44.06476" lon="7.18538">
        <ele>1162.7</ele>
        <time>2022-06-11T09:13:40Z</time>
      </trkpt>
      <trkpt lat="44.06483" lon="7.18526">
        <ele>1161.8</ele>
        <time>2022-06-11T09:13:41Z</time>
      </trkpt>
      <trkpt lat="44.0649" lon="7.18514">
        <ele>1161</ele>
        <time>2022-06-11T09:13:42Z</time>
      </trkpt>
      <trkpt lat="44.06499" lon="7.18503">
        <ele>1160.2</ele>
        <time>2022-06-11T09:13:43Z</time>
      </trkpt>
      <trkpt lat="44.06507" lon="7.18492">
        <ele>1159.4</ele>
        <time>2022-06-11T09:13:44Z</time>
      </trkpt>
      <trkpt lat="44.06516" lon="7.18482">
        <ele>1158.7</ele>
        <time>2022-06-11T09:13:45Z</time>
      </trkpt>
      <trkpt lat="44.06525" lon="7.18471">
        <ele>1157.9</ele>
        <time>2022-06-11T09:13:46Z</time>
      </trkpt>
      <trkpt lat="44.06533" lon="7.18461">
        <ele>1157.4</ele>
        <time>2022-06-11T09:13:47Z</time>
      </trkpt>
      <trkpt lat="44.06543" lon="7.18451">
        <ele>1157</ele>
        <time>2022-06-11T09:13:48Z</time>
      </trkpt>
      <trkpt lat="44.06551" lon="7.18441">
        <ele>1156.4</ele>
        <time>2022-06-11T09:13:49Z</time>
      </trkpt>
      <trkpt lat="44.0656" lon="7.1843">
        <ele>1155.7</ele>
        <time>2022-06-11T09:13:50Z</time>
      </trkpt>
      <trkpt lat="44.06569" lon="7.18419">
        <ele>1155.2</ele>
        <time>2022-06-11T09:13:51Z</time>
      </trkpt>
      <trkpt lat="44.06577" lon="7.18409">
        <ele>1154.5</ele>
        <time>2022-06-11T09:13:52Z</time>
      </trkpt>
      <trkpt lat="44.06586" lon="7.18398">
        <ele>1153.4</ele>
        <time>2022-06-11T09:13:53Z</time>
      </trkpt>
      <trkpt lat="44.06594" lon="7.18387">
        <ele>1152.5</ele>
        <time>2022-06-11T09:13:54Z</time>
      </trkpt>
      <trkpt lat="44.06603" lon="7.18376">
        <ele>1151.7</ele>
        <time>2022-06-11T09:13:55Z</time>
      </trkpt>
      <trkpt lat="44.06612" lon="7.18365">
        <ele>1150.6</ele>
        <time>2022-06-11T09:13:56Z</time>
      </trkpt>
      <trkpt lat="44.0662" lon="7.18354">
        <ele>1149.8</ele>
        <time>2022-06-11T09:13:57Z</time>
      </trkpt>
      <trkpt lat="44.06628" lon="7.18343">
        <ele>1148.9</ele>
        <time>2022-06-11T09:13:58Z</time>
      </trkpt>
      <trkpt lat="44.06637" lon="7.18332">
        <ele>1147.7</ele>
        <time>2022-06-11T09:13:59Z</time>
      </trkpt>
      <trkpt lat="44.06646" lon="7.18321">
        <ele>1147.1</ele>
        <time>2022-06-11T09:14:00Z</time>
      </trkpt>
      <trkpt lat="44.06654" lon="7.18309">
        <ele>1146.5</ele>
        <time>2022-06-11T09:14:01Z</time>
      </trkpt>
      <trkpt lat="44.06663" lon="7.18298">
        <ele>1145.7</ele>
        <time>2022-06-11T09:14:02Z</time>
      </trkpt>
      <trkpt lat="44.06672" lon="7.18287">
        <ele>1144.8</ele>
        <time>2022-06-11T09:14:03Z</time>
      </trkpt>
      <trkpt lat="44.06681" lon="7.18275">
        <ele>1144.2</ele>
        <time>2022-06-11T09:14:04Z</time>
      </trkpt>
      <trkpt lat="44.0669" lon="7.18264">
        <ele>1143.5</ele>
        <time>2022-06-11T09:14:05Z</time>
      </trkpt>
      <trkpt lat="44.06698" lon="7.18252">
        <ele>1142.7</ele>
        <time>2022-06-11T09:14:06Z</time>
      </trkpt>
      <trkpt lat="44.06706" lon="7.18239">
        <ele>1142.1</ele>
        <time>2022-06-11T09:14:07Z</time>
      </trkpt>
      <trkpt lat="44.06712" lon="7.18225">
        <ele>1141.5</ele>
        <time>2022-06-11T09:14:08Z</time>
      </trkpt>
      <trkpt lat="44.06717" lon="7.1821">
        <ele>1140.1</ele>
        <time>2022-06-11T09:14:09Z</time>
      </trkpt>
      <trkpt lat="44.06722" lon="7.18195">
        <ele>1138</ele>
        <time>2022-06-11T09:14:10Z</time>
      </trkpt>
      <trkpt lat="44.06727" lon="7.18179">
        <ele>1137.5</ele>
        <time>2022-06-11T09:14:11Z</time>
      </trkpt>
      <trkpt lat="44.06731" lon="7.18164">
        <ele>1136.9</ele>
        <time>2022-06-11T09:14:12Z</time>
      </trkpt>
      <trkpt lat="44.06736" lon="7.18148">
        <ele>1136.4</ele>
        <time>2022-06-11T09:14:13Z</time>
      </trkpt>
      <trkpt lat="44.06741" lon="7.18132">
        <ele>1135.6</ele>
        <time>2022-06-11T09:14:14Z</time>
      </trkpt>
      <trkpt lat="44.06746" lon="7.18117">
        <ele>1134.8</ele>
        <time>2022-06-11T09:14:15Z</time>
      </trkpt>
      <trkpt lat="44.0675" lon="7.18101">
        <ele>1133.5</ele>
        <time>2022-06-11T09:14:16Z</time>
      </trkpt>
      <trkpt lat="44.06754" lon="7.18085">
        <ele>1132.9</ele>
        <time>2022-06-11T09:14:17Z</time>
      </trkpt>
      <trkpt lat="44.06759" lon="7.1807">
        <ele>1132.8</ele>
        <time>2022-06-11T09:14:18Z</time>
      </trkpt>
      <trkpt lat="44.06763" lon="7.18054">
        <ele>1132.5</ele>
        <time>2022-06-11T09:14:19Z</time>
      </trkpt>
      <trkpt lat="44.06767" lon="7.18038">
        <ele>1131.3</ele>
        <time>2022-06-11T09:14:20Z</time>
      </trkpt>
      <trkpt lat="44.06771" lon="7.18022">
        <ele>1130</ele>
        <time>2022-06-11T09:14:21Z</time>
      </trkpt>
      <trkpt lat="44.06774" lon="7.18006">
        <ele>1128.8</ele>
        <time>2022-06-11T09:14:22Z</time>
      </trkpt>
      <trkpt lat="44.06777" lon="7.1799">
        <ele>1127.3</ele>
        <time>2022-06-11T09:14:23Z</time>
      </trkpt>
      <trkpt lat="44.0678" lon="7.17973">
        <ele>1126.1</ele>
        <time>2022-06-11T09:14:24Z</time>
      </trkpt>
      <trkpt lat="44.06783" lon="7.17957">
        <ele>1125.9</ele>
        <time>2022-06-11T09:14:25Z</time>
      </trkpt>
      <trkpt lat="44.06785" lon="7.1794">
        <ele>1125.3</ele>
        <time>2022-06-11T09:14:26Z</time>
      </trkpt>
      <trkpt lat="44.06786" lon="7.17923">
        <ele>1124</ele>
        <time>2022-06-11T09:14:27Z</time>
      </trkpt>
      <trkpt lat="44.06787" lon="7.17906">
        <ele>1122.8</ele>
        <time>2022-06-11T09:14:28Z</time>
      </trkpt>
      <trkpt lat="44.06787" lon="7.17889">
        <ele>1121.5</ele>
        <time>2022-06-11T09:14:29Z</time>
      </trkpt>
      <trkpt lat="44.06788" lon="7.17871">
        <ele>1120.4</ele>
        <time>2022-06-11T09:14:30Z</time>
      </trkpt>
      <trkpt lat="44.06789" lon="7.17854">
        <ele>1119.2</ele>
        <time>2022-06-11T09:14:31Z</time>
      </trkpt>
      <trkpt lat="44.0679" lon="7.17837">
        <ele>1118.2</ele>
        <time>2022-06-11T09:14:32Z</time>
      </trkpt>
      <trkpt lat="44.06792" lon="7.1782">
        <ele>1117.1</ele>
        <time>2022-06-11T09:14:33Z</time>
      </trkpt>
      <trkpt lat="44.06794" lon="7.17803">
        <ele>1115.9</ele>
        <time>2022-06-11T09:14:34Z</time>
      </trkpt>
      <trkpt lat="44.06797" lon="7.17786">
        <ele>1114.6</ele>
        <time>2022-06-11T09:14:35Z</time>
      </trkpt>
      <trkpt lat="44.06801" lon="7.1777">
        <ele>1113.8</ele>
        <time>2022-06-11T09:14:36Z</time>
      </trkpt>
      <trkpt lat="44.06805" lon="7.17756">
        <ele>1113.5</ele>
        <time>2022-06-11T09:14:37Z</time>
      </trkpt>
      <trkpt lat="44.0681" lon="7.17743">
        <ele>1113.1</ele>
        <time>2022-06-11T09:14:38Z</time>
      </trkpt>
      <trkpt lat="44.06815" lon="7.17732">
        <ele>1112.8</ele>
        <time>2022-06-11T09:14:39Z</time>
      </trkpt>
      <trkpt lat="44.06821" lon="7.17721">
        <ele>1112.6</ele>
        <time>2022-06-11T09:14:40Z</time>
      </trkpt>
      <trkpt lat="44.06827" lon="7.17712">
        <ele>1112.8</ele>
        <time>2022-06-11T09:14:41Z</time>
      </trkpt>
      <trkpt lat="44.06834" lon="7.17705">
        <ele>1113.2</ele>
        <time>2022-06-11T09:14:42Z</time>
      </trkpt>
      <trkpt lat="44.06842" lon="7.17698">
        <ele>1113</ele>
        <time>2022-06-11T09:14:43Z</time>
      </trkpt>
      <trkpt lat="44.06848" lon="7.17692">
        <ele>1112.9</ele>
        <time>2022-06-11T09:14:44Z</time>
      </trkpt>
      <trkpt lat="44.06854" lon="7.17688">
        <ele>1113</ele>
        <time>2022-06-11T09:14:45Z</time>
      </trkpt>
      <trkpt lat="44.06859" lon="7.17684">
        <ele>1113.1</ele>
        <time>2022-06-11T09:14:46Z</time>
      </trkpt>
      <trkpt lat="44.06863" lon="7.1768">
        <ele>1113</ele>
        <time>2022-06-11T09:14:47Z</time>
      </trkpt>
      <trkpt lat="44.06868" lon="7.17676">
        <ele>1112.8</ele>
        <time>2022-06-11T09:14:48Z</time>
      </trkpt>
      <trkpt lat="44.06873" lon="7.17672">
        <ele>1112.7</ele>
        <time>2022-06-11T09:14:49Z</time>
      </trkpt>
      <trkpt lat="44.06877" lon="7.17668">
        <ele>1112.6</ele>
        <time>2022-06-11T09:14:50Z</time>
      </trkpt>
      <trkpt lat="44.06882" lon="7.17663">
        <ele>1112.3</ele>
        <time>2022-06-11T09:14:51Z</time>
      </trkpt>
      <trkpt lat="44.06887" lon="7.17658">
        <ele>1112</ele>
        <time>2022-06-11T09:14:52Z</time>
      </trkpt>
      <trkpt lat="44.06891" lon="7.17653">
        <ele>1111.7</ele>
        <time>2022-06-11T09:14:53Z</time>
      </trkpt>
      <trkpt lat="44.06896" lon="7.17647">
        <ele>1111.7</ele>
        <time>2022-06-11T09:14:54Z</time>
      </trkpt>
      <trkpt lat="44.06902" lon="7.17642">
        <ele>1111.7</ele>
        <time>2022-06-11T09:14:55Z</time>
      </trkpt>
      <trkpt lat="44.06907" lon="7.17636">
        <ele>1111.4</ele>
        <time>2022-06-11T09:14:56Z</time>
      </trkpt>
      <trkpt lat="44.06913" lon="7.1763">
        <ele>1110.9</ele>
        <time>2022-06-11T09:14:57Z</time>
      </trkpt>
      <trkpt lat="44.06919" lon="7.17624">
        <ele>1110.6</ele>
        <time>2022-06-11T09:14:58Z</time>
      </trkpt>
      <trkpt lat="44.06926" lon="7.17619">
        <ele>1110.5</ele>
        <time>2022-06-11T09:14:59Z</time>
      </trkpt>
      <trkpt lat="44.06932" lon="7.17613">
        <ele>1110.6</ele>
        <time>2022-06-11T09:15:00Z</time>
      </trkpt>
      <trkpt lat="44.06939" lon="7.17608">
        <ele>1110.6</ele>
        <time>2022-06-11T09:15:01Z</time>
      </trkpt>
      <trkpt lat="44.06946" lon="7.17602">
        <ele>1110.4</ele>
        <time>2022-06-11T09:15:02Z</time>
      </trkpt>
      <trkpt lat="44.06952" lon="7.17596">
        <ele>1110.1</ele>
        <time>2022-06-11T09:15:03Z</time>
      </trkpt>
      <trkpt lat="44.06959" lon="7.17591">
        <ele>1109.9</ele>
        <time>2022-06-11T09:15:04Z</time>
      </trkpt>
      <trkpt lat="44.06964" lon="7.17585">
        <ele>1109.4</ele>
        <time>2022-06-11T09:15:05Z</time>
      </trkpt>
      <trkpt lat="44.06969" lon="7.17579">
        <ele>1108.9</ele>
        <time>2022-06-11T09:15:06Z</time>
      </trkpt>
      <trkpt lat="44.06974" lon="7.17574">
        <ele>1108.5</ele>
        <time>2022-06-11T09:15:07Z</time>
      </trkpt>
      <trkpt lat="44.06979" lon="7.17568">
        <ele>1108</ele>
        <time>2022-06-11T09:15:08Z</time>
      </trkpt>
      <trkpt lat="44.06984" lon="7.17562">
        <ele>1107.3</ele>
        <time>2022-06-11T09:15:09Z</time>
      </trkpt>
      <trkpt lat="44.0699" lon="7.17557">
        <ele>1106.5</ele>
        <time>2022-06-11T09:15:10Z</time>
      </trkpt>
      <trkpt lat="44.06996" lon="7.17551">
        <ele>1105.6</ele>
        <time>2022-06-11T09:15:11Z</time>
      </trkpt>
      <trkpt lat="44.07003" lon="7.17545">
        <ele>1105.1</ele>
        <time>2022-06-11T09:15:12Z</time>
      </trkpt>
      <trkpt lat="44.07009" lon="7.1754">
        <ele>1105</ele>
        <time>2022-06-11T09:15:13Z</time>
      </trkpt>
      <trkpt lat="44.07016" lon="7.17534">
        <ele>1104.8</ele>
        <time>2022-06-11T09:15:14Z</time>
      </trkpt>
      <trkpt lat="44.07022" lon="7.1753">
        <ele>1104.8</ele>
        <time>2022-06-11T09:15:15Z</time>
      </trkpt>
      <trkpt lat="44.07028" lon="7.17527">
        <ele>1104.7</ele>
        <time>2022-06-11T09:15:16Z</time>
      </trkpt>
      <trkpt lat="44.07033" lon="7.17523">
        <ele>1105.2</ele>
        <time>2022-06-11T09:15:17Z</time>
      </trkpt>
      <trkpt lat="44.07038" lon="7.17519">
        <ele>1105.7</ele>
        <time>2022-06-11T09:15:18Z</time>
      </trkpt>
      <trkpt lat="44.07043" lon="7.17514">
        <ele>1105.9</ele>
        <time>2022-06-11T09:15:19Z</time>
      </trkpt>
      <trkpt lat="44.07048" lon="7.17509">
        <ele>1105.9</ele>
        <time>2022-06-11T09:15:20Z</time>
      </trkpt>
      <trkpt lat="44.07053" lon="7.17503">
        <ele>1105.3</ele>
        <time>2022-06-11T09:15:21Z</time>
      </trkpt>
      <trkpt lat="44.07057" lon="7.17496">
        <ele>1104.9</ele>
        <time>2022-06-11T09:15:22Z</time>
      </trkpt>
      <trkpt lat="44.07061" lon="7.17488">
        <ele>1104.8</ele>
        <time>2022-06-11T09:15:23Z</time>
      </trkpt>
      <trkpt lat="44.07064" lon="7.17481">
        <ele>1104.2</ele>
        <time>2022-06-11T09:15:24Z</time>
      </trkpt>
      <trkpt lat="44.07066" lon="7.17474">
        <ele>1103.4</ele>
        <time>2022-06-11T09:15:25Z</time>
      </trkpt>
      <trkpt lat="44.07068" lon="7.17468">
        <ele>1102.8</ele>
        <time>2022-06-11T09:15:26Z</time>
      </trkpt>
      <trkpt lat="44.0707" lon="7.17462">
        <ele>1102</ele>
        <time>2022-06-11T09:15:27Z</time>
      </trkpt>
      <trkpt lat="44.07071" lon="7.17455">
        <ele>1101.1</ele>
        <time>2022-06-11T09:15:28Z</time>
      </trkpt>
      <trkpt lat="44.07073" lon="7.17448">
        <ele>1100.1</ele>
        <time>2022-06-11T09:15:29Z</time>
      </trkpt>
      <trkpt lat="44.07074" lon="7.17441">
        <ele>1099.1</ele>
        <time>2022-06-11T09:15:30Z</time>
      </trkpt>
      <trkpt lat="44.07075" lon="7.17435">
        <ele>1098.4</ele>
        <time>2022-06-11T09:15:31Z</time>
      </trkpt>
      <trkpt lat="44.07075" lon="7.17429">
        <ele>1097.7</ele>
        <time>2022-06-11T09:15:32Z</time>
      </trkpt>
      <trkpt lat="44.07075" lon="7.17424">
        <ele>1096.8</ele>
        <time>2022-06-11T09:15:33Z</time>
      </trkpt>
      <trkpt lat="44.07074" lon="7.17421">
        <ele>1096.1</ele>
        <time>2022-06-11T09:15:34Z</time>
      </trkpt>
      <trkpt lat="44.07073" lon="7.17418">
        <ele>1095.7</ele>
        <time>2022-06-11T09:15:35Z</time>
      </trkpt>
      <trkpt lat="44.07073" lon="7.17417">
        <ele>1095.5</ele>
        <time>2022-06-11T09:15:36Z</time>
      </trkpt>
      <trkpt lat="44.07073" lon="7.17416">
        <ele>1095.4</ele>
        <time>2022-06-11T09:15:37Z</time>
      </trkpt>
      <trkpt lat="44.07073" lon="7.17416">
        <ele>1095.4</ele>
        <time>2022-06-11T09:15:38Z</time>
      </trkpt>
      <trkpt lat="44.07075" lon="7.17414">
        <ele>1095.3</ele>
        <time>2022-06-11T09:17:36Z</time>
      </trkpt>
      <trkpt lat="44.07077" lon="7.17413">
        <ele>1095.7</ele>
        <time>2022-06-11T09:17:37Z</time>
      </trkpt>
      <trkpt lat="44.07079" lon="7.17412">
        <ele>1096.2</ele>
        <time>2022-06-11T09:17:38Z</time>
      </trkpt>
      <trkpt lat="44.07082" lon="7.17409">
        <ele>1096.7</ele>
        <time>2022-06-11T09:17:39Z</time>
      </trkpt>
      <trkpt lat="44.07083" lon="7.17407">
        <ele>1096.7</ele>
        <time>2022-06-11T09:17:40Z</time>
      </trkpt>
      <trkpt lat="44.07085" lon="7.17405">
        <ele>1096.6</ele>
        <time>2022-06-11T09:17:41Z</time>
      </trkpt>
      <trkpt lat="44.07086" lon="7.17403">
        <ele>1096.5</ele>
        <time>2022-06-11T09:17:42Z</time>
      </trkpt>
      <trkpt lat="44.07087" lon="7.17401">
        <ele>1096.4</ele>
        <time>2022-06-11T09:18:04Z</time>
      </trkpt>
      <trkpt lat="44.07088" lon="7.17399">
        <ele>1096.3</ele>
        <time>2022-06-11T09:18:05Z</time>
      </trkpt>
      <trkpt lat="44.07091" lon="7.17394">
        <ele>1096</ele>
        <time>2022-06-11T09:18:06Z</time>
      </trkpt>
      <trkpt lat="44.07094" lon="7.17388">
        <ele>1095.7</ele>
        <time>2022-06-11T09:18:07Z</time>
      </trkpt>
      <trkpt lat="44.07097" lon="7.17382">
        <ele>1095.3</ele>
        <time>2022-06-11T09:18:08Z</time>
      </trkpt>
      <trkpt lat="44.07101" lon="7.17375">
        <ele>1095</ele>
        <time>2022-06-11T09:18:09Z</time>
      </trkpt>
      <trkpt lat="44.07105" lon="7.17368">
        <ele>1094.7</ele>
        <time>2022-06-11T09:18:10Z</time>
      </trkpt>
      <trkpt lat="44.07108" lon="7.17362">
        <ele>1094.5</ele>
        <time>2022-06-11T09:18:11Z</time>
      </trkpt>
      <trkpt lat="44.07111" lon="7.17356">
        <ele>1094.1</ele>
        <time>2022-06-11T09:18:12Z</time>
      </trkpt>
      <trkpt lat="44.07114" lon="7.17351">
        <ele>1093.6</ele>
        <time>2022-06-11T09:18:13Z</time>
      </trkpt>
      <trkpt lat="44.07116" lon="7.17347">
        <ele>1093.3</ele>
        <time>2022-06-11T09:18:14Z</time>
      </trkpt>
      <trkpt lat="44.07118" lon="7.17343">
        <ele>1093</ele>
        <time>2022-06-11T09:18:15Z</time>
      </trkpt>
      <trkpt lat="44.07121" lon="7.17338">
        <ele>1092.5</ele>
        <time>2022-06-11T09:18:16Z</time>
      </trkpt>
      <trkpt lat="44.07123" lon="7.17331">
        <ele>1091.8</ele>
        <time>2022-06-11T09:18:17Z</time>
      </trkpt>
      <trkpt lat="44.07127" lon="7.17323">
        <ele>1091</ele>
        <time>2022-06-11T09:18:18Z</time>
      </trkpt>
      <trkpt lat="44.07131" lon="7.17314">
        <ele>1090.2</ele>
        <time>2022-06-11T09:18:19Z</time>
      </trkpt>
      <trkpt lat="44.07136" lon="7.17305">
        <ele>1089.4</ele>
        <time>2022-06-11T09:18:20Z</time>
      </trkpt>
      <trkpt lat="44.07141" lon="7.17295">
        <ele>1088.8</ele>
        <time>2022-06-11T09:18:21Z</time>
      </trkpt>
      <trkpt lat="44.07147" lon="7.17285">
        <ele>1088.5</ele>
        <time>2022-06-11T09:18:22Z</time>
      </trkpt>
      <trkpt lat="44.07152" lon="7.17275">
        <ele>1088.1</ele>
        <time>2022-06-11T09:18:23Z</time>
      </trkpt>
      <trkpt lat="44.07157" lon="7.17264">
        <ele>1087.6</ele>
        <time>2022-06-11T09:18:24Z</time>
      </trkpt>
      <trkpt lat="44.07163" lon="7.17253">
        <ele>1086.7</ele>
        <time>2022-06-11T09:18:25Z</time>
      </trkpt>
      <trkpt lat="44.07168" lon="7.17242">
        <ele>1085.8</ele>
        <time>2022-06-11T09:18:26Z</time>
      </trkpt>
      <trkpt lat="44.07174" lon="7.1723">
        <ele>1085.1</ele>
        <time>2022-06-11T09:18:27Z</time>
      </trkpt>
      <trkpt lat="44.0718" lon="7.17219">
        <ele>1084.1</ele>
        <time>2022-06-11T09:18:28Z</time>
      </trkpt>
      <trkpt lat="44.07188" lon="7.17209">
        <ele>1083.2</ele>
        <time>2022-06-11T09:18:29Z</time>
      </trkpt>
      <trkpt lat="44.07196" lon="7.17199">
        <ele>1082.2</ele>
        <time>2022-06-11T09:18:30Z</time>
      </trkpt>
      <trkpt lat="44.07204" lon="7.17189">
        <ele>1081.3</ele>
        <time>2022-06-11T09:18:31Z</time>
      </trkpt>
      <trkpt lat="44.07213" lon="7.17179">
        <ele>1080.4</ele>
        <time>2022-06-11T09:18:32Z</time>
      </trkpt>
      <trkpt lat="44.07221" lon="7.1717">
        <ele>1079.5</ele>
        <time>2022-06-11T09:18:33Z</time>
      </trkpt>
      <trkpt lat="44.07228" lon="7.17159">
        <ele>1079</ele>
        <time>2022-06-11T09:18:34Z</time>
      </trkpt>
      <trkpt lat="44.07235" lon="7.17147">
        <ele>1078.1</ele>
        <time>2022-06-11T09:18:35Z</time>
      </trkpt>
      <trkpt lat="44.0724" lon="7.17134">
        <ele>1077.2</ele>
        <time>2022-06-11T09:18:36Z</time>
      </trkpt>
      <trkpt lat="44.07245" lon="7.1712">
        <ele>1076.5</ele>
        <time>2022-06-11T09:18:37Z</time>
      </trkpt>
      <trkpt lat="44.0725" lon="7.17106">
        <ele>1076.1</ele>
        <time>2022-06-11T09:18:38Z</time>
      </trkpt>
      <trkpt lat="44.07254" lon="7.17091">
        <ele>1076.4</ele>
        <time>2022-06-11T09:18:39Z</time>
      </trkpt>
      <trkpt lat="44.07258" lon="7.17075">
        <ele>1076</ele>
        <time>2022-06-11T09:18:40Z</time>
      </trkpt>
      <trkpt lat="44.07263" lon="7.1706">
        <ele>1075.1</ele>
        <time>2022-06-11T09:18:41Z</time>
      </trkpt>
      <trkpt lat="44.07267" lon="7.17044">
        <ele>1074.3</ele>
        <time>2022-06-11T09:18:42Z</time>
      </trkpt>
      <trkpt lat="44.07272" lon="7.17029">
        <ele>1073.9</ele>
        <time>2022-06-11T09:18:43Z</time>
      </trkpt>
      <trkpt lat="44.07277" lon="7.17014">
        <ele>1072.4</ele>
        <time>2022-06-11T09:18:44Z</time>
      </trkpt>
      <trkpt lat="44.07282" lon="7.16999">
        <ele>1070.6</ele>
        <time>2022-06-11T09:18:45Z</time>
      </trkpt>
      <trkpt lat="44.07288" lon="7.16985">
        <ele>1068.9</ele>
        <time>2022-06-11T09:18:46Z</time>
      </trkpt>
      <trkpt lat="44.07294" lon="7.16972">
        <ele>1067.2</ele>
        <time>2022-06-11T09:18:47Z</time>
      </trkpt>
      <trkpt lat="44.073" lon="7.16961">
        <ele>1066.6</ele>
        <time>2022-06-11T09:18:48Z</time>
      </trkpt>
      <trkpt lat="44.07306" lon="7.16953">
        <ele>1066.8</ele>
        <time>2022-06-11T09:18:49Z</time>
      </trkpt>
      <trkpt lat="44.07314" lon="7.16947">
        <ele>1067.1</ele>
        <time>2022-06-11T09:18:50Z</time>
      </trkpt>
      <trkpt lat="44.0732" lon="7.16942">
        <ele>1067.3</ele>
        <time>2022-06-11T09:18:51Z</time>
      </trkpt>
      <trkpt lat="44.07327" lon="7.16938">
        <ele>1067.7</ele>
        <time>2022-06-11T09:18:52Z</time>
      </trkpt>
      <trkpt lat="44.07331" lon="7.16934">
        <ele>1067.1</ele>
        <time>2022-06-11T09:18:53Z</time>
      </trkpt>
      <trkpt lat="44.07334" lon="7.16928">
        <ele>1065.4</ele>
        <time>2022-06-11T09:18:54Z</time>
      </trkpt>
      <trkpt lat="44.07334" lon="7.1692">
        <ele>1062.5</ele>
        <time>2022-06-11T09:18:55Z</time>
      </trkpt>
      <trkpt lat="44.07332" lon="7.16913">
        <ele>1058.9</ele>
        <time>2022-06-11T09:18:56Z</time>
      </trkpt>
      <trkpt lat="44.07329" lon="7.16908">
        <ele>1056.2</ele>
        <time>2022-06-11T09:18:57Z</time>
      </trkpt>
      <trkpt lat="44.07326" lon="7.16905">
        <ele>1054.3</ele>
        <time>2022-06-11T09:18:58Z</time>
      </trkpt>
      <trkpt lat="44.07323" lon="7.16905">
        <ele>1053.5</ele>
        <time>2022-06-11T09:18:59Z</time>
      </trkpt>
      <trkpt lat="44.0732" lon="7.16905">
        <ele>1053.3</ele>
        <time>2022-06-11T09:19:00Z</time>
      </trkpt>
      <trkpt lat="44.07317" lon="7.16908">
        <ele>1053.6</ele>
        <time>2022-06-11T09:19:01Z</time>
      </trkpt>
      <trkpt lat="44.07315" lon="7.1691">
        <ele>1054</ele>
        <time>2022-06-11T09:19:02Z</time>
      </trkpt>
      <trkpt lat="44.07313" lon="7.16912">
        <ele>1054.3</ele>
        <time>2022-06-11T09:19:03Z</time>
      </trkpt>
      <trkpt lat="44.07311" lon="7.16914">
        <ele>1054.6</ele>
        <time>2022-06-11T09:19:17Z</time>
      </trkpt>
      <trkpt lat="44.07309" lon="7.16917">
        <ele>1054.8</ele>
        <time>2022-06-11T09:19:18Z</time>
      </trkpt>
      <trkpt lat="44.07306" lon="7.16921">
        <ele>1055.4</ele>
        <time>2022-06-11T09:19:19Z</time>
      </trkpt>
      <trkpt lat="44.07302" lon="7.16925">
        <ele>1055.7</ele>
        <time>2022-06-11T09:19:20Z</time>
      </trkpt>
      <trkpt lat="44.07298" lon="7.16929">
        <ele>1055.7</ele>
        <time>2022-06-11T09:19:21Z</time>
      </trkpt>
      <trkpt lat="44.07294" lon="7.16935">
        <ele>1055.8</ele>
        <time>2022-06-11T09:19:22Z</time>
      </trkpt>
      <trkpt lat="44.07289" lon="7.16941">
        <ele>1055.8</ele>
        <time>2022-06-11T09:19:23Z</time>
      </trkpt>
      <trkpt lat="44.07285" lon="7.16947">
        <ele>1055.6</ele>
        <time>2022-06-11T09:19:24Z</time>
      </trkpt>
      <trkpt lat="44.0728" lon="7.16954">
        <ele>1055.6</ele>
        <time>2022-06-11T09:19:25Z</time>
      </trkpt>
      <trkpt lat="44.07275" lon="7.16962">
        <ele>1055.5</ele>
        <time>2022-06-11T09:19:26Z</time>
      </trkpt>
      <trkpt lat="44.07269" lon="7.1697">
        <ele>1055.2</ele>
        <time>2022-06-11T09:19:27Z</time>
      </trkpt>
      <trkpt lat="44.07264" lon="7.16979">
        <ele>1055.3</ele>
        <time>2022-06-11T09:19:28Z</time>
      </trkpt>
      <trkpt lat="44.07259" lon="7.16988">
        <ele>1055.7</ele>
        <time>2022-06-11T09:19:29Z</time>
      </trkpt>
      <trkpt lat="44.07253" lon="7.16998">
        <ele>1056</ele>
        <time>2022-06-11T09:19:30Z</time>
      </trkpt>
      <trkpt lat="44.07248" lon="7.17009">
        <ele>1056.5</ele>
        <time>2022-06-11T09:19:31Z</time>
      </trkpt>
      <trkpt lat="44.07243" lon="7.1702">
        <ele>1056.9</ele>
        <time>2022-06-11T09:19:32Z</time>
      </trkpt>
      <trkpt lat="44.07237" lon="7.17031">
        <ele>1056.8</ele>
        <time>2022-06-11T09:19:33Z</time>
      </trkpt>
      <trkpt lat="44.0723" lon="7.17041">
        <ele>1055.5</ele>
        <time>2022-06-11T09:19:34Z</time>
      </trkpt>
      <trkpt lat="44.07222" lon="7.1705">
        <ele>1054</ele>
        <time>2022-06-11T09:19:35Z</time>
      </trkpt>
      <trkpt lat="44.07215" lon="7.17058">
        <ele>1053.8</ele>
        <time>2022-06-11T09:19:36Z</time>
      </trkpt>
      <trkpt lat="44.07207" lon="7.17065">
        <ele>1053.4</ele>
        <time>2022-06-11T09:19:37Z</time>
      </trkpt>
      <trkpt lat="44.07199" lon="7.1707">
        <ele>1052.5</ele>
        <time>2022-06-11T09:19:38Z</time>
      </trkpt>
      <trkpt lat="44.07189" lon="7.17074">
        <ele>1051.7</ele>
        <time>2022-06-11T09:19:39Z</time>
      </trkpt>
      <trkpt lat="44.0718" lon="7.17076">
        <ele>1051.1</ele>
        <time>2022-06-11T09:19:40Z</time>
      </trkpt>
      <trkpt lat="44.0717" lon="7.17078">
        <ele>1050.3</ele>
        <time>2022-06-11T09:19:41Z</time>
      </trkpt>
      <trkpt lat="44.0716" lon="7.17079">
        <ele>1050</ele>
        <time>2022-06-11T09:19:42Z</time>
      </trkpt>
      <trkpt lat="44.07149" lon="7.17081">
        <ele>1049.9</ele>
        <time>2022-06-11T09:19:43Z</time>
      </trkpt>
      <trkpt lat="44.07139" lon="7.17082">
        <ele>1049.7</ele>
        <time>2022-06-11T09:19:44Z</time>
      </trkpt>
      <trkpt lat="44.07129" lon="7.17084">
        <ele>1049.3</ele>
        <time>2022-06-11T09:19:45Z</time>
      </trkpt>
      <trkpt lat="44.07119" lon="7.17085">
        <ele>1048.8</ele>
        <time>2022-06-11T09:19:46Z</time>
      </trkpt>
      <trkpt lat="44.07108" lon="7.17086">
        <ele>1048.2</ele>
        <time>2022-06-11T09:19:47Z</time>
      </trkpt>
      <trkpt lat="44.07098" lon="7.17088">
        <ele>1047.5</ele>
        <time>2022-06-11T09:19:48Z</time>
      </trkpt>
      <trkpt lat="44.07087" lon="7.17089">
        <ele>1046.9</ele>
        <time>2022-06-11T09:19:49Z</time>
      </trkpt>
      <trkpt lat="44.07075" lon="7.17091">
        <ele>1045.7</ele>
        <time>2022-06-11T09:19:50Z</time>
      </trkpt>
      <trkpt lat="44.07064" lon="7.17091">
        <ele>1044.2</ele>
        <time>2022-06-11T09:19:51Z</time>
      </trkpt>
      <trkpt lat="44.07052" lon="7.1709">
        <ele>1042.7</ele>
        <time>2022-06-11T09:19:52Z</time>
      </trkpt>
      <trkpt lat="44.0704" lon="7.17088">
        <ele>1041.5</ele>
        <time>2022-06-11T09:19:53Z</time>
      </trkpt>
      <trkpt lat="44.07028" lon="7.17085">
        <ele>1040.3</ele>
        <time>2022-06-11T09:19:54Z</time>
      </trkpt>
      <trkpt lat="44.07016" lon="7.17083">
        <ele>1039.1</ele>
        <time>2022-06-11T09:19:55Z</time>
      </trkpt>
      <trkpt lat="44.07005" lon="7.17082">
        <ele>1038.2</ele>
        <time>2022-06-11T09:19:56Z</time>
      </trkpt>
      <trkpt lat="44.06994" lon="7.17081">
        <ele>1037.4</ele>
        <time>2022-06-11T09:19:57Z</time>
      </trkpt>
      <trkpt lat="44.06983" lon="7.17083">
        <ele>1036.8</ele>
        <time>2022-06-11T09:19:58Z</time>
      </trkpt>
      <trkpt lat="44.06973" lon="7.17087">
        <ele>1036.4</ele>
        <time>2022-06-11T09:19:59Z</time>
      </trkpt>
      <trkpt lat="44.06963" lon="7.17092">
        <ele>1035.9</ele>
        <time>2022-06-11T09:20:00Z</time>
      </trkpt>
      <trkpt lat="44.06953" lon="7.17097">
        <ele>1035.4</ele>
        <time>2022-06-11T09:20:01Z</time>
      </trkpt>
      <trkpt lat="44.06945" lon="7.17102">
        <ele>1035</ele>
        <time>2022-06-11T09:20:02Z</time>
      </trkpt>
      <trkpt lat="44.06937" lon="7.17105">
        <ele>1034.5</ele>
        <time>2022-06-11T09:20:03Z</time>
      </trkpt>
      <trkpt lat="44.0693" lon="7.17107">
        <ele>1034</ele>
        <time>2022-06-11T09:20:04Z</time>
      </trkpt>
      <trkpt lat="44.06923" lon="7.17106">
        <ele>1033.2</ele>
        <time>2022-06-11T09:20:05Z</time>
      </trkpt>
      <trkpt lat="44.06918" lon="7.17101">
        <ele>1032.1</ele>
        <time>2022-06-11T09:20:06Z</time>
      </trkpt>
      <trkpt lat="44.06916" lon="7.17094">
        <ele>1031</ele>
        <time>2022-06-11T09:20:07Z</time>
      </trkpt>
      <trkpt lat="44.06916" lon="7.17086">
        <ele>1030.1</ele>
        <time>2022-06-11T09:20:08Z</time>
      </trkpt>
      <trkpt lat="44.06917" lon="7.17079">
        <ele>1029.6</ele>
        <time>2022-06-11T09:20:09Z</time>
      </trkpt>
      <trkpt lat="44.06919" lon="7.17073">
        <ele>1029.2</ele>
        <time>2022-06-11T09:20:10Z</time>
      </trkpt>
      <trkpt lat="44.0692" lon="7.17069">
        <ele>1028.8</ele>
        <time>2022-06-11T09:20:11Z</time>
      </trkpt>
      <trkpt lat="44.0692" lon="7.17064">
        <ele>1028.4</ele>
        <time>2022-06-11T09:20:12Z</time>
      </trkpt>
      <trkpt lat="44.06919" lon="7.17058">
        <ele>1027.8</ele>
        <time>2022-06-11T09:20:13Z</time>
      </trkpt>
      <trkpt lat="44.06919" lon="7.17052">
        <ele>1027</ele>
        <time>2022-06-11T09:20:14Z</time>
      </trkpt>
      <trkpt lat="44.06918" lon="7.17045">
        <ele>1026.1</ele>
        <time>2022-06-11T09:20:15Z</time>
      </trkpt>
      <trkpt lat="44.06919" lon="7.17036">
        <ele>1025.3</ele>
        <time>2022-06-11T09:20:16Z</time>
      </trkpt>
      <trkpt lat="44.0692" lon="7.17027">
        <ele>1024.5</ele>
        <time>2022-06-11T09:20:17Z</time>
      </trkpt>
      <trkpt lat="44.06922" lon="7.17017">
        <ele>1023.7</ele>
        <time>2022-06-11T09:20:18Z</time>
      </trkpt>
      <trkpt lat="44.06923" lon="7.17005">
        <ele>1022.7</ele>
        <time>2022-06-11T09:20:19Z</time>
      </trkpt>
      <trkpt lat="44.06925" lon="7.16994">
        <ele>1021.5</ele>
        <time>2022-06-11T09:20:20Z</time>
      </trkpt>
      <trkpt lat="44.06927" lon="7.16981">
        <ele>1020</ele>
        <time>2022-06-11T09:20:21Z</time>
      </trkpt>
      <trkpt lat="44.06929" lon="7.16967">
        <ele>1018.6</ele>
        <time>2022-06-11T09:20:22Z</time>
      </trkpt>
      <trkpt lat="44.06931" lon="7.16953">
        <ele>1017.4</ele>
        <time>2022-06-11T09:20:23Z</time>
      </trkpt>
      <trkpt lat="44.06933" lon="7.16939">
        <ele>1016.4</ele>
        <time>2022-06-11T09:20:24Z</time>
      </trkpt>
      <trkpt lat="44.06936" lon="7.16924">
        <ele>1015.6</ele>
        <time>2022-06-11T09:20:25Z</time>
      </trkpt>
      <trkpt lat="44.06939" lon="7.16908">
        <ele>1014.9</ele>
        <time>2022-06-11T09:20:26Z</time>
      </trkpt>
      <trkpt lat="44.06943" lon="7.16894">
        <ele>1014.3</ele>
        <time>2022-06-11T09:20:27Z</time>
      </trkpt>
      <trkpt lat="44.06949" lon="7.16881">
        <ele>1013.7</ele>
        <time>2022-06-11T09:20:28Z</time>
      </trkpt>
      <trkpt lat="44.06956" lon="7.16869">
        <ele>1013.1</ele>
        <time>2022-06-11T09:20:29Z</time>
      </trkpt>
      <trkpt lat="44.06964" lon="7.16857">
        <ele>1012.4</ele>
        <time>2022-06-11T09:20:30Z</time>
      </trkpt>
      <trkpt lat="44.06972" lon="7.16844">
        <ele>1011.8</ele>
        <time>2022-06-11T09:20:31Z</time>
      </trkpt>
      <trkpt lat="44.0698" lon="7.16833">
        <ele>1011.2</ele>
        <time>2022-06-11T09:20:32Z</time>
      </trkpt>
      <trkpt lat="44.06987" lon="7.16822">
        <ele>1010.5</ele>
        <time>2022-06-11T09:20:33Z</time>
      </trkpt>
      <trkpt lat="44.06993" lon="7.16812">
        <ele>1009.6</ele>
        <time>2022-06-11T09:20:34Z</time>
      </trkpt>
      <trkpt lat="44.06999" lon="7.16803">
        <ele>1008.8</ele>
        <time>2022-06-11T09:20:35Z</time>
      </trkpt>
      <trkpt lat="44.07005" lon="7.16796">
        <ele>1008.4</ele>
        <time>2022-06-11T09:20:36Z</time>
      </trkpt>
      <trkpt lat="44.07011" lon="7.16792">
        <ele>1008.2</ele>
        <time>2022-06-11T09:20:37Z</time>
      </trkpt>
      <trkpt lat="44.07018" lon="7.1679">
        <ele>1008.1</ele>
        <time>2022-06-11T09:20:38Z</time>
      </trkpt>
      <trkpt lat="44.07022" lon="7.16786">
        <ele>1007.8</ele>
        <time>2022-06-11T09:20:39Z</time>
      </trkpt>
      <trkpt lat="44.07026" lon="7.16779">
        <ele>1007.1</ele>
        <time>2022-06-11T09:20:40Z</time>
      </trkpt>
      <trkpt lat="44.07027" lon="7.16772">
        <ele>1006.5</ele>
        <time>2022-06-11T09:20:41Z</time>
      </trkpt>
      <trkpt lat="44.07029" lon="7.16763">
        <ele>1005.9</ele>
        <time>2022-06-11T09:20:42Z</time>
      </trkpt>
      <trkpt lat="44.07033" lon="7.16754">
        <ele>1005.1</ele>
        <time>2022-06-11T09:20:43Z</time>
      </trkpt>
      <trkpt lat="44.07038" lon="7.16745">
        <ele>1004.2</ele>
        <time>2022-06-11T09:20:44Z</time>
      </trkpt>
      <trkpt lat="44.07043" lon="7.16737">
        <ele>1003.3</ele>
        <time>2022-06-11T09:20:45Z</time>
      </trkpt>
      <trkpt lat="44.07049" lon="7.16728">
        <ele>1002.5</ele>
        <time>2022-06-11T09:20:46Z</time>
      </trkpt>
      <trkpt lat="44.07056" lon="7.16719">
        <ele>1001.8</ele>
        <time>2022-06-11T09:20:47Z</time>
      </trkpt>
      <trkpt lat="44.07062" lon="7.16711">
        <ele>1001.1</ele>
        <time>2022-06-11T09:20:48Z</time>
      </trkpt>
      <trkpt lat="44.0707" lon="7.16703">
        <ele>1000.2</ele>
        <time>2022-06-11T09:20:49Z</time>
      </trkpt>
      <trkpt lat="44.07078" lon="7.16696">
        <ele>999.3</ele>
        <time>2022-06-11T09:20:50Z</time>
      </trkpt>
      <trkpt lat="44.07086" lon="7.16691">
        <ele>998.8</ele>
        <time>2022-06-11T09:20:51Z</time>
      </trkpt>
      <trkpt lat="44.07095" lon="7.16686">
        <ele>998.6</ele>
        <time>2022-06-11T09:20:52Z</time>
      </trkpt>
      <trkpt lat="44.07105" lon="7.16682">
        <ele>998.2</ele>
        <time>2022-06-11T09:20:53Z</time>
      </trkpt>
      <trkpt lat="44.07114" lon="7.16678">
        <ele>997.8</ele>
        <time>2022-06-11T09:20:54Z</time>
      </trkpt>
      <trkpt lat="44.07123" lon="7.16674">
        <ele>997.5</ele>
        <time>2022-06-11T09:20:55Z</time>
      </trkpt>
      <trkpt lat="44.0713" lon="7.1667">
        <ele>997.2</ele>
        <time>2022-06-11T09:20:56Z</time>
      </trkpt>
      <trkpt lat="44.07137" lon="7.16666">
        <ele>996.9</ele>
        <time>2022-06-11T09:20:57Z</time>
      </trkpt>
      <trkpt lat="44.07143" lon="7.16662">
        <ele>996.4</ele>
        <time>2022-06-11T09:20:58Z</time>
      </trkpt>
      <trkpt lat="44.0715" lon="7.16659">
        <ele>995.7</ele>
        <time>2022-06-11T09:20:59Z</time>
      </trkpt>
      <trkpt lat="44.07156" lon="7.16655">
        <ele>995.1</ele>
        <time>2022-06-11T09:21:00Z</time>
      </trkpt>
      <trkpt lat="44.07164" lon="7.16652">
        <ele>994.5</ele>
        <time>2022-06-11T09:21:01Z</time>
      </trkpt>
      <trkpt lat="44.07171" lon="7.16648">
        <ele>993.9</ele>
        <time>2022-06-11T09:21:02Z</time>
      </trkpt>
      <trkpt lat="44.07178" lon="7.16644">
        <ele>993.2</ele>
        <time>2022-06-11T09:21:03Z</time>
      </trkpt>
      <trkpt lat="44.07186" lon="7.16641">
        <ele>992.5</ele>
        <time>2022-06-11T09:21:04Z</time>
      </trkpt>
      <trkpt lat="44.07195" lon="7.16639">
        <ele>992</ele>
        <time>2022-06-11T09:21:05Z</time>
      </trkpt>
      <trkpt lat="44.07204" lon="7.16638">
        <ele>992.1</ele>
        <time>2022-06-11T09:21:06Z</time>
      </trkpt>
      <trkpt lat="44.07213" lon="7.16637">
        <ele>992.4</ele>
        <time>2022-06-11T09:21:07Z</time>
      </trkpt>
      <trkpt lat="44.07221" lon="7.16637">
        <ele>992.5</ele>
        <time>2022-06-11T09:21:08Z</time>
      </trkpt>
      <trkpt lat="44.07229" lon="7.16636">
        <ele>992.8</ele>
        <time>2022-06-11T09:21:09Z</time>
      </trkpt>
      <trkpt lat="44.07237" lon="7.16636">
        <ele>993</ele>
        <time>2022-06-11T09:21:10Z</time>
      </trkpt>
      <trkpt lat="44.07245" lon="7.16636">
        <ele>993.3</ele>
        <time>2022-06-11T09:21:11Z</time>
      </trkpt>
      <trkpt lat="44.07253" lon="7.16636">
        <ele>993.5</ele>
        <time>2022-06-11T09:21:12Z</time>
      </trkpt>
      <trkpt lat="44.0726" lon="7.16636">
        <ele>993.5</ele>
        <time>2022-06-11T09:21:13Z</time>
      </trkpt>
      <trkpt lat="44.07268" lon="7.16636">
        <ele>993.5</ele>
        <time>2022-06-11T09:21:14Z</time>
      </trkpt>
      <trkpt lat="44.07275" lon="7.16636">
        <ele>993.5</ele>
        <time>2022-06-11T09:21:15Z</time>
      </trkpt>
      <trkpt lat="44.07282" lon="7.16636">
        <ele>993.7</ele>
        <time>2022-06-11T09:21:16Z</time>
      </trkpt>
      <trkpt lat="44.0729" lon="7.16636">
        <ele>994</ele>
        <time>2022-06-11T09:21:17Z</time>
      </trkpt>
      <trkpt lat="44.07297" lon="7.16636">
        <ele>994.2</ele>
        <time>2022-06-11T09:21:18Z</time>
      </trkpt>
      <trkpt lat="44.07304" lon="7.16636">
        <ele>994.4</ele>
        <time>2022-06-11T09:21:19Z</time>
      </trkpt>
      <trkpt lat="44.0731" lon="7.16636">
        <ele>994.3</ele>
        <time>2022-06-11T09:21:20Z</time>
      </trkpt>
      <trkpt lat="44.07317" lon="7.16637">
        <ele>994.2</ele>
        <time>2022-06-11T09:21:21Z</time>
      </trkpt>
      <trkpt lat="44.07323" lon="7.16638">
        <ele>994.2</ele>
        <time>2022-06-11T09:21:22Z</time>
      </trkpt>
      <trkpt lat="44.0733" lon="7.1664">
        <ele>994.4</ele>
        <time>2022-06-11T09:21:23Z</time>
      </trkpt>
      <trkpt lat="44.07336" lon="7.16642">
        <ele>994.6</ele>
        <time>2022-06-11T09:21:24Z</time>
      </trkpt>
      <trkpt lat="44.07342" lon="7.16644">
        <ele>995.1</ele>
        <time>2022-06-11T09:21:25Z</time>
      </trkpt>
      <trkpt lat="44.07349" lon="7.16646">
        <ele>995.4</ele>
        <time>2022-06-11T09:21:26Z</time>
      </trkpt>
      <trkpt lat="44.07355" lon="7.16648">
        <ele>995.7</ele>
        <time>2022-06-11T09:21:27Z</time>
      </trkpt>
      <trkpt lat="44.07361" lon="7.1665">
        <ele>996</ele>
        <time>2022-06-11T09:21:28Z</time>
      </trkpt>
      <trkpt lat="44.07368" lon="7.16652">
        <ele>996.1</ele>
        <time>2022-06-11T09:21:29Z</time>
      </trkpt>
      <trkpt lat="44.07374" lon="7.16654">
        <ele>996.2</ele>
        <time>2022-06-11T09:21:30Z</time>
      </trkpt>
      <trkpt lat="44.0738" lon="7.16656">
        <ele>996.3</ele>
        <time>2022-06-11T09:21:31Z</time>
      </trkpt>
      <trkpt lat="44.07387" lon="7.16657">
        <ele>996.4</ele>
        <time>2022-06-11T09:21:32Z</time>
      </trkpt>
      <trkpt lat="44.07393" lon="7.16658">
        <ele>996.3</ele>
        <time>2022-06-11T09:21:33Z</time>
      </trkpt>
      <trkpt lat="44.07399" lon="7.16659">
        <ele>996.2</ele>
        <time>2022-06-11T09:21:34Z</time>
      </trkpt>
      <trkpt lat="44.07406" lon="7.1666">
        <ele>996.1</ele>
        <time>2022-06-11T09:21:35Z</time>
      </trkpt>
      <trkpt lat="44.07411" lon="7.1666">
        <ele>996</ele>
        <time>2022-06-11T09:21:36Z</time>
      </trkpt>
      <trkpt lat="44.07417" lon="7.1666">
        <ele>995.7</ele>
        <time>2022-06-11T09:21:37Z</time>
      </trkpt>
      <trkpt lat="44.07423" lon="7.1666">
        <ele>995.9</ele>
        <time>2022-06-11T09:21:38Z</time>
      </trkpt>
      <trkpt lat="44.07428" lon="7.1666">
        <ele>996.1</ele>
        <time>2022-06-11T09:21:39Z</time>
      </trkpt>
      <trkpt lat="44.07434" lon="7.1666">
        <ele>996.3</ele>
        <time>2022-06-11T09:21:40Z</time>
      </trkpt>
      <trkpt lat="44.0744" lon="7.1666">
        <ele>996.4</ele>
        <time>2022-06-11T09:21:41Z</time>
      </trkpt>
      <trkpt lat="44.07446" lon="7.1666">
        <ele>996.5</ele>
        <time>2022-06-11T09:21:42Z</time>
      </trkpt>
      <trkpt lat="44.07452" lon="7.16659">
        <ele>996.3</ele>
        <time>2022-06-11T09:21:43Z</time>
      </trkpt>
      <trkpt lat="44.07458" lon="7.16658">
        <ele>996</ele>
        <time>2022-06-11T09:21:44Z</time>
      </trkpt>
      <trkpt lat="44.07464" lon="7.16655">
        <ele>995.5</ele>
        <time>2022-06-11T09:21:45Z</time>
      </trkpt>
      <trkpt lat="44.0747" lon="7.16653">
        <ele>995.1</ele>
        <time>2022-06-11T09:21:46Z</time>
      </trkpt>
      <trkpt lat="44.07476" lon="7.16652">
        <ele>994.6</ele>
        <time>2022-06-11T09:21:47Z</time>
      </trkpt>
      <trkpt lat="44.0748" lon="7.16648">
        <ele>993.4</ele>
        <time>2022-06-11T09:21:48Z</time>
      </trkpt>
      <trkpt lat="44.07485" lon="7.16643">
        <ele>991.7</ele>
        <time>2022-06-11T09:21:49Z</time>
      </trkpt>
      <trkpt lat="44.07489" lon="7.16637">
        <ele>989.7</ele>
        <time>2022-06-11T09:21:50Z</time>
      </trkpt>
      <trkpt lat="44.07493" lon="7.16631">
        <ele>988.1</ele>
        <time>2022-06-11T09:21:51Z</time>
      </trkpt>
      <trkpt lat="44.07497" lon="7.16625">
        <ele>987</ele>
        <time>2022-06-11T09:21:52Z</time>
      </trkpt>
      <trkpt lat="44.07501" lon="7.16619">
        <ele>986.2</ele>
        <time>2022-06-11T09:21:53Z</time>
      </trkpt>
      <trkpt lat="44.07504" lon="7.16614">
        <ele>986.2</ele>
        <time>2022-06-11T09:21:54Z</time>
      </trkpt>
      <trkpt lat="44.07508" lon="7.16608">
        <ele>986.8</ele>
        <time>2022-06-11T09:21:55Z</time>
      </trkpt>
      <trkpt lat="44.07511" lon="7.16603">
        <ele>987.6</ele>
        <time>2022-06-11T09:21:56Z</time>
      </trkpt>
      <trkpt lat="44.07514" lon="7.16598">
        <ele>988.3</ele>
        <time>2022-06-11T09:21:57Z</time>
      </trkpt>
      <trkpt lat="44.07516" lon="7.16592">
        <ele>988.7</ele>
        <time>2022-06-11T09:21:58Z</time>
      </trkpt>
      <trkpt lat="44.07517" lon="7.16585">
        <ele>988.9</ele>
        <time>2022-06-11T09:21:59Z</time>
      </trkpt>
      <trkpt lat="44.07517" lon="7.16578">
        <ele>989.1</ele>
        <time>2022-06-11T09:22:00Z</time>
      </trkpt>
      <trkpt lat="44.07515" lon="7.1657">
        <ele>989</ele>
        <time>2022-06-11T09:22:01Z</time>
      </trkpt>
      <trkpt lat="44.07513" lon="7.16563">
        <ele>988.7</ele>
        <time>2022-06-11T09:22:02Z</time>
      </trkpt>
      <trkpt lat="44.07511" lon="7.16556">
        <ele>988.3</ele>
        <time>2022-06-11T09:22:03Z</time>
      </trkpt>
      <trkpt lat="44.07508" lon="7.16549">
        <ele>987.9</ele>
        <time>2022-06-11T09:22:04Z</time>
      </trkpt>
      <trkpt lat="44.07505" lon="7.16541">
        <ele>987.5</ele>
        <time>2022-06-11T09:22:05Z</time>
      </trkpt>
      <trkpt lat="44.07503" lon="7.16534">
        <ele>987.3</ele>
        <time>2022-06-11T09:22:06Z</time>
      </trkpt>
      <trkpt lat="44.075" lon="7.16527">
        <ele>987</ele>
        <time>2022-06-11T09:22:07Z</time>
      </trkpt>
      <trkpt lat="44.07497" lon="7.16519">
        <ele>986.8</ele>
        <time>2022-06-11T09:22:08Z</time>
      </trkpt>
      <trkpt lat="44.07494" lon="7.1651">
        <ele>986.3</ele>
        <time>2022-06-11T09:22:09Z</time>
      </trkpt>
      <trkpt lat="44.0749" lon="7.16502">
        <ele>985.7</ele>
        <time>2022-06-11T09:22:10Z</time>
      </trkpt>
      <trkpt lat="44.07485" lon="7.16494">
        <ele>984.9</ele>
        <time>2022-06-11T09:22:11Z</time>
      </trkpt>
      <trkpt lat="44.07479" lon="7.16486">
        <ele>983.9</ele>
        <time>2022-06-11T09:22:12Z</time>
      </trkpt>
      <trkpt lat="44.07471" lon="7.1648">
        <ele>982.5</ele>
        <time>2022-06-11T09:22:13Z</time>
      </trkpt>
      <trkpt lat="44.07464" lon="7.16474">
        <ele>981.1</ele>
        <time>2022-06-11T09:22:14Z</time>
      </trkpt>
      <trkpt lat="44.07456" lon="7.16468">
        <ele>979.8</ele>
        <time>2022-06-11T09:22:15Z</time>
      </trkpt>
      <trkpt lat="44.07449" lon="7.1646">
        <ele>978.7</ele>
        <time>2022-06-11T09:22:16Z</time>
      </trkpt>
      <trkpt lat="44.07443" lon="7.16451">
        <ele>978.2</ele>
        <time>2022-06-11T09:22:17Z</time>
      </trkpt>
      <trkpt lat="44.07439" lon="7.16439">
        <ele>977.9</ele>
        <time>2022-06-11T09:22:18Z</time>
      </trkpt>
      <trkpt lat="44.07435" lon="7.16427">
        <ele>977.6</ele>
        <time>2022-06-11T09:22:19Z</time>
      </trkpt>
      <trkpt lat="44.07432" lon="7.16414">
        <ele>977.5</ele>
        <time>2022-06-11T09:22:20Z</time>
      </trkpt>
      <trkpt lat="44.07431" lon="7.164">
        <ele>977.6</ele>
        <time>2022-06-11T09:22:21Z</time>
      </trkpt>
      <trkpt lat="44.07428" lon="7.16387">
        <ele>977.6</ele>
        <time>2022-06-11T09:22:22Z</time>
      </trkpt>
      <trkpt lat="44.07426" lon="7.16373">
        <ele>977.9</ele>
        <time>2022-06-11T09:22:23Z</time>
      </trkpt>
      <trkpt lat="44.07422" lon="7.16359">
        <ele>978.2</ele>
        <time>2022-06-11T09:22:24Z</time>
      </trkpt>
      <trkpt lat="44.07418" lon="7.16346">
        <ele>978.3</ele>
        <time>2022-06-11T09:22:25Z</time>
      </trkpt>
      <trkpt lat="44.07412" lon="7.16334">
        <ele>978.1</ele>
        <time>2022-06-11T09:22:26Z</time>
      </trkpt>
      <trkpt lat="44.07404" lon="7.16322">
        <ele>978.9</ele>
        <time>2022-06-11T09:22:27Z</time>
      </trkpt>
      <trkpt lat="44.07396" lon="7.1631">
        <ele>979.1</ele>
        <time>2022-06-11T09:22:28Z</time>
      </trkpt>
      <trkpt lat="44.07388" lon="7.163">
        <ele>979.3</ele>
        <time>2022-06-11T09:22:29Z</time>
      </trkpt>
      <trkpt lat="44.07378" lon="7.16291">
        <ele>978.8</ele>
        <time>2022-06-11T09:22:30Z</time>
      </trkpt>
      <trkpt lat="44.07367" lon="7.16284">
        <ele>977.4</ele>
        <time>2022-06-11T09:22:31Z</time>
      </trkpt>
      <trkpt lat="44.07356" lon="7.16279">
        <ele>974.7</ele>
        <time>2022-06-11T09:22:32Z</time>
      </trkpt>
      <trkpt lat="44.07345" lon="7.16274">
        <ele>972.3</ele>
        <time>2022-06-11T09:22:33Z</time>
      </trkpt>
      <trkpt lat="44.07335" lon="7.16267">
        <ele>970.9</ele>
        <time>2022-06-11T09:22:34Z</time>
      </trkpt>
      <trkpt lat="44.07326" lon="7.16258">
        <ele>970.3</ele>
        <time>2022-06-11T09:22:35Z</time>
      </trkpt>
      <trkpt lat="44.07318" lon="7.16247">
        <ele>970.5</ele>
        <time>2022-06-11T09:22:36Z</time>
      </trkpt>
      <trkpt lat="44.07311" lon="7.16234">
        <ele>971.1</ele>
        <time>2022-06-11T09:22:37Z</time>
      </trkpt>
      <trkpt lat="44.07304" lon="7.16221">
        <ele>971</ele>
        <time>2022-06-11T09:22:38Z</time>
      </trkpt>
      <trkpt lat="44.07298" lon="7.16207">
        <ele>971.5</ele>
        <time>2022-06-11T09:22:39Z</time>
      </trkpt>
      <trkpt lat="44.07291" lon="7.16194">
        <ele>971.2</ele>
        <time>2022-06-11T09:22:40Z</time>
      </trkpt>
      <trkpt lat="44.07285" lon="7.1618">
        <ele>970.8</ele>
        <time>2022-06-11T09:22:41Z</time>
      </trkpt>
      <trkpt lat="44.07279" lon="7.16165">
        <ele>970.4</ele>
        <time>2022-06-11T09:22:42Z</time>
      </trkpt>
      <trkpt lat="44.07274" lon="7.16149">
        <ele>970.4</ele>
        <time>2022-06-11T09:22:43Z</time>
      </trkpt>
      <trkpt lat="44.07269" lon="7.16134">
        <ele>970.2</ele>
        <time>2022-06-11T09:22:44Z</time>
      </trkpt>
      <trkpt lat="44.07263" lon="7.16119">
        <ele>969.3</ele>
        <time>2022-06-11T09:22:45Z</time>
      </trkpt>
      <trkpt lat="44.07258" lon="7.16103">
        <ele>967.9</ele>
        <time>2022-06-11T09:22:46Z</time>
      </trkpt>
      <trkpt lat="44.07253" lon="7.16087">
        <ele>966.4</ele>
        <time>2022-06-11T09:22:47Z</time>
      </trkpt>
      <trkpt lat="44.07248" lon="7.16071">
        <ele>965.9</ele>
        <time>2022-06-11T09:22:48Z</time>
      </trkpt>
      <trkpt lat="44.07243" lon="7.16056">
        <ele>965.6</ele>
        <time>2022-06-11T09:22:49Z</time>
      </trkpt>
      <trkpt lat="44.07239" lon="7.1604">
        <ele>964.9</ele>
        <time>2022-06-11T09:22:50Z</time>
      </trkpt>
      <trkpt lat="44.07235" lon="7.16024">
        <ele>964.5</ele>
        <time>2022-06-11T09:22:51Z</time>
      </trkpt>
      <trkpt lat="44.0723" lon="7.16008">
        <ele>963.6</ele>
        <time>2022-06-11T09:22:52Z</time>
      </trkpt>
      <trkpt lat="44.07225" lon="7.15992">
        <ele>962.8</ele>
        <time>2022-06-11T09:22:53Z</time>
      </trkpt>
      <trkpt lat="44.07221" lon="7.15975">
        <ele>962.4</ele>
        <time>2022-06-11T09:22:54Z</time>
      </trkpt>
      <trkpt lat="44.07216" lon="7.1596">
        <ele>962.3</ele>
        <time>2022-06-11T09:22:55Z</time>
      </trkpt>
      <trkpt lat="44.07212" lon="7.15944">
        <ele>962</ele>
        <time>2022-06-11T09:22:56Z</time>
      </trkpt>
      <trkpt lat="44.07208" lon="7.15927">
        <ele>961.5</ele>
        <time>2022-06-11T09:22:57Z</time>
      </trkpt>
      <trkpt lat="44.07205" lon="7.15911">
        <ele>960.7</ele>
        <time>2022-06-11T09:22:58Z</time>
      </trkpt>
      <trkpt lat="44.07201" lon="7.15894">
        <ele>959</ele>
        <time>2022-06-11T09:22:59Z</time>
      </trkpt>
      <trkpt lat="44.07197" lon="7.15878">
        <ele>957.7</ele>
        <time>2022-06-11T09:23:00Z</time>
      </trkpt>
      <trkpt lat="44.07193" lon="7.15861">
        <ele>957.1</ele>
        <time>2022-06-11T09:23:01Z</time>
      </trkpt>
      <trkpt lat="44.0719" lon="7.15845">
        <ele>955.7</ele>
        <time>2022-06-11T09:23:02Z</time>
      </trkpt>
      <trkpt lat="44.07187" lon="7.15828">
        <ele>954.5</ele>
        <time>2022-06-11T09:23:03Z</time>
      </trkpt>
      <trkpt lat="44.07186" lon="7.15812">
        <ele>954.5</ele>
        <time>2022-06-11T09:23:04Z</time>
      </trkpt>
      <trkpt lat="44.07184" lon="7.15795">
        <ele>953.8</ele>
        <time>2022-06-11T09:23:05Z</time>
      </trkpt>
      <trkpt lat="44.07183" lon="7.15778">
        <ele>952.7</ele>
        <time>2022-06-11T09:23:06Z</time>
      </trkpt>
      <trkpt lat="44.0718" lon="7.15762">
        <ele>952.4</ele>
        <time>2022-06-11T09:23:07Z</time>
      </trkpt>
      <trkpt lat="44.07176" lon="7.15746">
        <ele>951.7</ele>
        <time>2022-06-11T09:23:08Z</time>
      </trkpt>
      <trkpt lat="44.0717" lon="7.1573">
        <ele>951.1</ele>
        <time>2022-06-11T09:23:09Z</time>
      </trkpt>
      <trkpt lat="44.07163" lon="7.15717">
        <ele>949.7</ele>
        <time>2022-06-11T09:23:10Z</time>
      </trkpt>
      <trkpt lat="44.07154" lon="7.15703">
        <ele>947.1</ele>
        <time>2022-06-11T09:23:11Z</time>
      </trkpt>
      <trkpt lat="44.07146" lon="7.1569">
        <ele>944.7</ele>
        <time>2022-06-11T09:23:12Z</time>
      </trkpt>
      <trkpt lat="44.07139" lon="7.15677">
        <ele>942.8</ele>
        <time>2022-06-11T09:23:13Z</time>
      </trkpt>
      <trkpt lat="44.07135" lon="7.15662">
        <ele>940.9</ele>
        <time>2022-06-11T09:23:14Z</time>
      </trkpt>
      <trkpt lat="44.07134" lon="7.15648">
        <ele>939.2</ele>
        <time>2022-06-11T09:23:15Z</time>
      </trkpt>
      <trkpt lat="44.07135" lon="7.15633">
        <ele>938.6</ele>
        <time>2022-06-11T09:23:16Z</time>
      </trkpt>
      <trkpt lat="44.07139" lon="7.1562">
        <ele>938.7</ele>
        <time>2022-06-11T09:23:17Z</time>
      </trkpt>
      <trkpt lat="44.07144" lon="7.15609">
        <ele>940</ele>
        <time>2022-06-11T09:23:18Z</time>
      </trkpt>
      <trkpt lat="44.0715" lon="7.15597">
        <ele>940.7</ele>
        <time>2022-06-11T09:23:19Z</time>
      </trkpt>
      <trkpt lat="44.07156" lon="7.15585">
        <ele>940.9</ele>
        <time>2022-06-11T09:23:20Z</time>
      </trkpt>
      <trkpt lat="44.07161" lon="7.15573">
        <ele>940.6</ele>
        <time>2022-06-11T09:23:21Z</time>
      </trkpt>
      <trkpt lat="44.07166" lon="7.15561">
        <ele>940.4</ele>
        <time>2022-06-11T09:23:22Z</time>
      </trkpt>
      <trkpt lat="44.07172" lon="7.15548">
        <ele>939.5</ele>
        <time>2022-06-11T09:23:23Z</time>
      </trkpt>
      <trkpt lat="44.07177" lon="7.15535">
        <ele>939.5</ele>
        <time>2022-06-11T09:23:24Z</time>
      </trkpt>
      <trkpt lat="44.07183" lon="7.15522">
        <ele>939.4</ele>
        <time>2022-06-11T09:23:25Z</time>
      </trkpt>
      <trkpt lat="44.07188" lon="7.15509">
        <ele>939.3</ele>
        <time>2022-06-11T09:23:26Z</time>
      </trkpt>
      <trkpt lat="44.07193" lon="7.15496">
        <ele>939.3</ele>
        <time>2022-06-11T09:23:27Z</time>
      </trkpt>
      <trkpt lat="44.07198" lon="7.15483">
        <ele>939.3</ele>
        <time>2022-06-11T09:23:28Z</time>
      </trkpt>
      <trkpt lat="44.07204" lon="7.1547">
        <ele>939.6</ele>
        <time>2022-06-11T09:23:29Z</time>
      </trkpt>
      <trkpt lat="44.07209" lon="7.15456">
        <ele>938.7</ele>
        <time>2022-06-11T09:23:30Z</time>
      </trkpt>
      <trkpt lat="44.07214" lon="7.15442">
        <ele>937.4</ele>
        <time>2022-06-11T09:23:31Z</time>
      </trkpt>
      <trkpt lat="44.07216" lon="7.15427">
        <ele>934.5</ele>
        <time>2022-06-11T09:23:32Z</time>
      </trkpt>
      <trkpt lat="44.07216" lon="7.15412">
        <ele>930.7</ele>
        <time>2022-06-11T09:23:33Z</time>
      </trkpt>
      <trkpt lat="44.07213" lon="7.15397">
        <ele>929</ele>
        <time>2022-06-11T09:23:34Z</time>
      </trkpt>
      <trkpt lat="44.07207" lon="7.15384">
        <ele>927.8</ele>
        <time>2022-06-11T09:23:35Z</time>
      </trkpt>
      <trkpt lat="44.07201" lon="7.1537">
        <ele>928.1</ele>
        <time>2022-06-11T09:23:36Z</time>
      </trkpt>
      <trkpt lat="44.07197" lon="7.15355">
        <ele>928.6</ele>
        <time>2022-06-11T09:23:37Z</time>
      </trkpt>
      <trkpt lat="44.07195" lon="7.15339">
        <ele>928.7</ele>
        <time>2022-06-11T09:23:38Z</time>
      </trkpt>
      <trkpt lat="44.07194" lon="7.15323">
        <ele>927</ele>
        <time>2022-06-11T09:23:39Z</time>
      </trkpt>
      <trkpt lat="44.07192" lon="7.15308">
        <ele>923.1</ele>
        <time>2022-06-11T09:23:40Z</time>
      </trkpt>
      <trkpt lat="44.07187" lon="7.15294">
        <ele>921.5</ele>
        <time>2022-06-11T09:23:41Z</time>
      </trkpt>
      <trkpt lat="44.0718" lon="7.15282">
        <ele>920.2</ele>
        <time>2022-06-11T09:23:42Z</time>
      </trkpt>
      <trkpt lat="44.07172" lon="7.15271">
        <ele>918.7</ele>
        <time>2022-06-11T09:23:43Z</time>
      </trkpt>
      <trkpt lat="44.07162" lon="7.15262">
        <ele>915.9</ele>
        <time>2022-06-11T09:23:44Z</time>
      </trkpt>
      <trkpt lat="44.07154" lon="7.15253">
        <ele>913.4</ele>
        <time>2022-06-11T09:23:45Z</time>
      </trkpt>
      <trkpt lat="44.07147" lon="7.15243">
        <ele>913.4</ele>
        <time>2022-06-11T09:23:46Z</time>
      </trkpt>
      <trkpt lat="44.07142" lon="7.1523">
        <ele>915.5</ele>
        <time>2022-06-11T09:23:47Z</time>
      </trkpt>
      <trkpt lat="44.07138" lon="7.15217">
        <ele>917.3</ele>
        <time>2022-06-11T09:23:48Z</time>
      </trkpt>
      <trkpt lat="44.07133" lon="7.15205">
        <ele>916.7</ele>
        <time>2022-06-11T09:23:49Z</time>
      </trkpt>
      <trkpt lat="44.07128" lon="7.15193">
        <ele>915.3</ele>
        <time>2022-06-11T09:23:50Z</time>
      </trkpt>
      <trkpt lat="44.07123" lon="7.15181">
        <ele>915.4</ele>
        <time>2022-06-11T09:23:51Z</time>
      </trkpt>
      <trkpt lat="44.07118" lon="7.15168">
        <ele>916.5</ele>
        <time>2022-06-11T09:23:52Z</time>
      </trkpt>
      <trkpt lat="44.07114" lon="7.15155">
        <ele>914.9</ele>
        <time>2022-06-11T09:23:53Z</time>
      </trkpt>
      <trkpt lat="44.07109" lon="7.15142">
        <ele>913.6</ele>
        <time>2022-06-11T09:23:54Z</time>
      </trkpt>
      <trkpt lat="44.07104" lon="7.1513">
        <ele>913</ele>
        <time>2022-06-11T09:23:55Z</time>
      </trkpt>
      <trkpt lat="44.07099" lon="7.15117">
        <ele>912.8</ele>
        <time>2022-06-11T09:23:56Z</time>
      </trkpt>
      <trkpt lat="44.07093" lon="7.15105">
        <ele>913.2</ele>
        <time>2022-06-11T09:23:57Z</time>
      </trkpt>
      <trkpt lat="44.07087" lon="7.15093">
        <ele>913.3</ele>
        <time>2022-06-11T09:23:58Z</time>
      </trkpt>
      <trkpt lat="44.07082" lon="7.1508">
        <ele>912.7</ele>
        <time>2022-06-11T09:23:59Z</time>
      </trkpt>
      <trkpt lat="44.07077" lon="7.15067">
        <ele>911.3</ele>
        <time>2022-06-11T09:24:00Z</time>
      </trkpt>
      <trkpt lat="44.0707" lon="7.15054">
        <ele>909.4</ele>
        <time>2022-06-11T09:24:01Z</time>
      </trkpt>
      <trkpt lat="44.07063" lon="7.15043">
        <ele>908.9</ele>
        <time>2022-06-11T09:24:02Z</time>
      </trkpt>
      <trkpt lat="44.07055" lon="7.15031">
        <ele>908.6</ele>
        <time>2022-06-11T09:24:03Z</time>
      </trkpt>
      <trkpt lat="44.07049" lon="7.15017">
        <ele>908.7</ele>
        <time>2022-06-11T09:24:04Z</time>
      </trkpt>
      <trkpt lat="44.07043" lon="7.15004">
        <ele>908.7</ele>
        <time>2022-06-11T09:24:05Z</time>
      </trkpt>
      <trkpt lat="44.07038" lon="7.1499">
        <ele>907.6</ele>
        <time>2022-06-11T09:24:06Z</time>
      </trkpt>
      <trkpt lat="44.07033" lon="7.14976">
        <ele>907</ele>
        <time>2022-06-11T09:24:07Z</time>
      </trkpt>
      <trkpt lat="44.07031" lon="7.14961">
        <ele>906</ele>
        <time>2022-06-11T09:24:08Z</time>
      </trkpt>
      <trkpt lat="44.07031" lon="7.14946">
        <ele>906</ele>
        <time>2022-06-11T09:24:09Z</time>
      </trkpt>
      <trkpt lat="44.07033" lon="7.14932">
        <ele>906.5</ele>
        <time>2022-06-11T09:24:10Z</time>
      </trkpt>
      <trkpt lat="44.07035" lon="7.14917">
        <ele>906.7</ele>
        <time>2022-06-11T09:24:11Z</time>
      </trkpt>
      <trkpt lat="44.07037" lon="7.14901">
        <ele>906.1</ele>
        <time>2022-06-11T09:24:12Z</time>
      </trkpt>
      <trkpt lat="44.07038" lon="7.14886">
        <ele>905</ele>
        <time>2022-06-11T09:24:13Z</time>
      </trkpt>
      <trkpt lat="44.07039" lon="7.14871">
        <ele>903.2</ele>
        <time>2022-06-11T09:24:14Z</time>
      </trkpt>
      <trkpt lat="44.07039" lon="7.14857">
        <ele>901.8</ele>
        <time>2022-06-11T09:24:15Z</time>
      </trkpt>
      <trkpt lat="44.07039" lon="7.14845">
        <ele>901.3</ele>
        <time>2022-06-11T09:24:16Z</time>
      </trkpt>
      <trkpt lat="44.07037" lon="7.14833">
        <ele>899.9</ele>
        <time>2022-06-11T09:24:17Z</time>
      </trkpt>
      <trkpt lat="44.07032" lon="7.14822">
        <ele>899.6</ele>
        <time>2022-06-11T09:24:18Z</time>
      </trkpt>
      <trkpt lat="44.07025" lon="7.14814">
        <ele>898.4</ele>
        <time>2022-06-11T09:24:19Z</time>
      </trkpt>
      <trkpt lat="44.07016" lon="7.14808">
        <ele>897.3</ele>
        <time>2022-06-11T09:24:20Z</time>
      </trkpt>
      <trkpt lat="44.07007" lon="7.14803">
        <ele>896.6</ele>
        <time>2022-06-11T09:24:21Z</time>
      </trkpt>
      <trkpt lat="44.06998" lon="7.14797">
        <ele>895.5</ele>
        <time>2022-06-11T09:24:22Z</time>
      </trkpt>
      <trkpt lat="44.06989" lon="7.14792">
        <ele>894.7</ele>
        <time>2022-06-11T09:24:23Z</time>
      </trkpt>
      <trkpt lat="44.0698" lon="7.14785">
        <ele>894.3</ele>
        <time>2022-06-11T09:24:24Z</time>
      </trkpt>
      <trkpt lat="44.06972" lon="7.14777">
        <ele>893.9</ele>
        <time>2022-06-11T09:24:25Z</time>
      </trkpt>
      <trkpt lat="44.06963" lon="7.14768">
        <ele>892.5</ele>
        <time>2022-06-11T09:24:26Z</time>
      </trkpt>
      <trkpt lat="44.06955" lon="7.14758">
        <ele>891.3</ele>
        <time>2022-06-11T09:24:27Z</time>
      </trkpt>
      <trkpt lat="44.06948" lon="7.14748">
        <ele>890.2</ele>
        <time>2022-06-11T09:24:28Z</time>
      </trkpt>
      <trkpt lat="44.0694" lon="7.14738">
        <ele>888.9</ele>
        <time>2022-06-11T09:24:29Z</time>
      </trkpt>
      <trkpt lat="44.06932" lon="7.14728">
        <ele>887.4</ele>
        <time>2022-06-11T09:24:30Z</time>
      </trkpt>
      <trkpt lat="44.06924" lon="7.14719">
        <ele>886</ele>
        <time>2022-06-11T09:24:31Z</time>
      </trkpt>
      <trkpt lat="44.06918" lon="7.14709">
        <ele>885.2</ele>
        <time>2022-06-11T09:24:32Z</time>
      </trkpt>
      <trkpt lat="44.06914" lon="7.14699">
        <ele>885</ele>
        <time>2022-06-11T09:24:33Z</time>
      </trkpt>
      <trkpt lat="44.06909" lon="7.14688">
        <ele>885.2</ele>
        <time>2022-06-11T09:24:34Z</time>
      </trkpt>
      <trkpt lat="44.06905" lon="7.14677">
        <ele>885.4</ele>
        <time>2022-06-11T09:24:35Z</time>
      </trkpt>
      <trkpt lat="44.06901" lon="7.14665">
        <ele>885.9</ele>
        <time>2022-06-11T09:24:36Z</time>
      </trkpt>
      <trkpt lat="44.06898" lon="7.14653">
        <ele>885.9</ele>
        <time>2022-06-11T09:24:37Z</time>
      </trkpt>
      <trkpt lat="44.06896" lon="7.14641">
        <ele>886.8</ele>
        <time>2022-06-11T09:24:38Z</time>
      </trkpt>
      <trkpt lat="44.06895" lon="7.14629">
        <ele>887.6</ele>
        <time>2022-06-11T09:24:39Z</time>
      </trkpt>
      <trkpt lat="44.06896" lon="7.14619">
        <ele>888.6</ele>
        <time>2022-06-11T09:24:40Z</time>
      </trkpt>
      <trkpt lat="44.06895" lon="7.14609">
        <ele>888.2</ele>
        <time>2022-06-11T09:24:41Z</time>
      </trkpt>
      <trkpt lat="44.06892" lon="7.14602">
        <ele>885.7</ele>
        <time>2022-06-11T09:24:42Z</time>
      </trkpt>
      <trkpt lat="44.06887" lon="7.14599">
        <ele>882.5</ele>
        <time>2022-06-11T09:24:43Z</time>
      </trkpt>
      <trkpt lat="44.06882" lon="7.14601">
        <ele>879.6</ele>
        <time>2022-06-11T09:24:44Z</time>
      </trkpt>
      <trkpt lat="44.06879" lon="7.14608">
        <ele>878.3</ele>
        <time>2022-06-11T09:24:45Z</time>
      </trkpt>
      <trkpt lat="44.06879" lon="7.14616">
        <ele>878.4</ele>
        <time>2022-06-11T09:24:46Z</time>
      </trkpt>
      <trkpt lat="44.06881" lon="7.14624">
        <ele>878.8</ele>
        <time>2022-06-11T09:24:47Z</time>
      </trkpt>
      <trkpt lat="44.06883" lon="7.14633">
        <ele>879.5</ele>
        <time>2022-06-11T09:24:48Z</time>
      </trkpt>
      <trkpt lat="44.06884" lon="7.14642">
        <ele>879.7</ele>
        <time>2022-06-11T09:24:49Z</time>
      </trkpt>
      <trkpt lat="44.06886" lon="7.14652">
        <ele>879.1</ele>
        <time>2022-06-11T09:24:50Z</time>
      </trkpt>
      <trkpt lat="44.06889" lon="7.14662">
        <ele>878.6</ele>
        <time>2022-06-11T09:24:51Z</time>
      </trkpt>
      <trkpt lat="44.06891" lon="7.14672">
        <ele>877.6</ele>
        <time>2022-06-11T09:24:52Z</time>
      </trkpt>
      <trkpt lat="44.06893" lon="7.14683">
        <ele>876.4</ele>
        <time>2022-06-11T09:24:53Z</time>
      </trkpt>
      <trkpt lat="44.06896" lon="7.14695">
        <ele>875.3</ele>
        <time>2022-06-11T09:24:54Z</time>
      </trkpt>
      <trkpt lat="44.069" lon="7.14706">
        <ele>874.9</ele>
        <time>2022-06-11T09:24:55Z</time>
      </trkpt>
      <trkpt lat="44.06904" lon="7.14717">
        <ele>874.8</ele>
        <time>2022-06-11T09:24:56Z</time>
      </trkpt>
      <trkpt lat="44.06909" lon="7.14729">
        <ele>874.8</ele>
        <time>2022-06-11T09:24:57Z</time>
      </trkpt>
      <trkpt lat="44.06914" lon="7.1474">
        <ele>874.5</ele>
        <time>2022-06-11T09:24:58Z</time>
      </trkpt>
      <trkpt lat="44.06919" lon="7.14752">
        <ele>873.9</ele>
        <time>2022-06-11T09:24:59Z</time>
      </trkpt>
      <trkpt lat="44.06924" lon="7.14763">
        <ele>873.8</ele>
        <time>2022-06-11T09:25:00Z</time>
      </trkpt>
      <trkpt lat="44.0693" lon="7.14776">
        <ele>873.6</ele>
        <time>2022-06-11T09:25:01Z</time>
      </trkpt>
      <trkpt lat="44.06936" lon="7.14788">
        <ele>873.1</ele>
        <time>2022-06-11T09:25:02Z</time>
      </trkpt>
      <trkpt lat="44.06942" lon="7.148">
        <ele>872.7</ele>
        <time>2022-06-11T09:25:03Z</time>
      </trkpt>
      <trkpt lat="44.06949" lon="7.14812">
        <ele>872.1</ele>
        <time>2022-06-11T09:25:04Z</time>
      </trkpt>
      <trkpt lat="44.06957" lon="7.14822">
        <ele>871.7</ele>
        <time>2022-06-11T09:25:05Z</time>
      </trkpt>
      <trkpt lat="44.06963" lon="7.14831">
        <ele>870.9</ele>
        <time>2022-06-11T09:25:06Z</time>
      </trkpt>
      <trkpt lat="44.0697" lon="7.1484">
        <ele>870.2</ele>
        <time>2022-06-11T09:25:07Z</time>
      </trkpt>
      <trkpt lat="44.06975" lon="7.1485">
        <ele>869.2</ele>
        <time>2022-06-11T09:25:08Z</time>
      </trkpt>
      <trkpt lat="44.06978" lon="7.14862">
        <ele>867.5</ele>
        <time>2022-06-11T09:25:09Z</time>
      </trkpt>
      <trkpt lat="44.06978" lon="7.14875">
        <ele>867.8</ele>
        <time>2022-06-11T09:25:10Z</time>
      </trkpt>
      <trkpt lat="44.06975" lon="7.14887">
        <ele>866.5</ele>
        <time>2022-06-11T09:25:11Z</time>
      </trkpt>
      <trkpt lat="44.06972" lon="7.149">
        <ele>865.1</ele>
        <time>2022-06-11T09:25:12Z</time>
      </trkpt>
      <trkpt lat="44.0697" lon="7.14913">
        <ele>864.7</ele>
        <time>2022-06-11T09:25:13Z</time>
      </trkpt>
      <trkpt lat="44.06971" lon="7.14928">
        <ele>864.1</ele>
        <time>2022-06-11T09:25:14Z</time>
      </trkpt>
      <trkpt lat="44.06972" lon="7.14942">
        <ele>863.2</ele>
        <time>2022-06-11T09:25:15Z</time>
      </trkpt>
      <trkpt lat="44.06973" lon="7.14957">
        <ele>862.8</ele>
        <time>2022-06-11T09:25:16Z</time>
      </trkpt>
      <trkpt lat="44.06974" lon="7.14972">
        <ele>862.6</ele>
        <time>2022-06-11T09:25:17Z</time>
      </trkpt>
      <trkpt lat="44.06976" lon="7.14987">
        <ele>861.8</ele>
        <time>2022-06-11T09:25:18Z</time>
      </trkpt>
      <trkpt lat="44.06979" lon="7.15001">
        <ele>861.5</ele>
        <time>2022-06-11T09:25:19Z</time>
      </trkpt>
      <trkpt lat="44.06982" lon="7.15014">
        <ele>861.4</ele>
        <time>2022-06-11T09:25:20Z</time>
      </trkpt>
      <trkpt lat="44.06986" lon="7.15025">
        <ele>862</ele>
        <time>2022-06-11T09:25:21Z</time>
      </trkpt>
      <trkpt lat="44.0699" lon="7.15034">
        <ele>863.6</ele>
        <time>2022-06-11T09:25:22Z</time>
      </trkpt>
      <trkpt lat="44.06995" lon="7.15042">
        <ele>864.9</ele>
        <time>2022-06-11T09:25:23Z</time>
      </trkpt>
      <trkpt lat="44.06997" lon="7.15049">
        <ele>865.1</ele>
        <time>2022-06-11T09:25:24Z</time>
      </trkpt>
      <trkpt lat="44.06998" lon="7.15055">
        <ele>863.9</ele>
        <time>2022-06-11T09:25:25Z</time>
      </trkpt>
      <trkpt lat="44.06995" lon="7.15059">
        <ele>861.7</ele>
        <time>2022-06-11T09:25:26Z</time>
      </trkpt>
      <trkpt lat="44.06991" lon="7.15059">
        <ele>859.7</ele>
        <time>2022-06-11T09:25:27Z</time>
      </trkpt>
      <trkpt lat="44.06987" lon="7.15055">
        <ele>858.7</ele>
        <time>2022-06-11T09:25:28Z</time>
      </trkpt>
      <trkpt lat="44.06985" lon="7.15048">
        <ele>858.5</ele>
        <time>2022-06-11T09:25:29Z</time>
      </trkpt>
      <trkpt lat="44.06983" lon="7.1504">
        <ele>858.6</ele>
        <time>2022-06-11T09:25:30Z</time>
      </trkpt>
      <trkpt lat="44.06981" lon="7.15032">
        <ele>858</ele>
        <time>2022-06-11T09:25:31Z</time>
      </trkpt>
      <trkpt lat="44.06978" lon="7.15024">
        <ele>857.3</ele>
        <time>2022-06-11T09:25:32Z</time>
      </trkpt>
      <trkpt lat="44.06975" lon="7.15016">
        <ele>856.7</ele>
        <time>2022-06-11T09:25:33Z</time>
      </trkpt>
      <trkpt lat="44.06972" lon="7.15007">
        <ele>855.9</ele>
        <time>2022-06-11T09:25:34Z</time>
      </trkpt>
      <trkpt lat="44.06969" lon="7.14998">
        <ele>855.4</ele>
        <time>2022-06-11T09:25:35Z</time>
      </trkpt>
      <trkpt lat="44.06966" lon="7.14988">
        <ele>854.9</ele>
        <time>2022-06-11T09:25:36Z</time>
      </trkpt>
      <trkpt lat="44.06963" lon="7.14978">
        <ele>854.8</ele>
        <time>2022-06-11T09:25:37Z</time>
      </trkpt>
      <trkpt lat="44.06961" lon="7.14967">
        <ele>854.5</ele>
        <time>2022-06-11T09:25:38Z</time>
      </trkpt>
      <trkpt lat="44.06959" lon="7.14957">
        <ele>854.3</ele>
        <time>2022-06-11T09:25:39Z</time>
      </trkpt>
      <trkpt lat="44.06956" lon="7.14946">
        <ele>853.9</ele>
        <time>2022-06-11T09:25:40Z</time>
      </trkpt>
      <trkpt lat="44.06953" lon="7.14935">
        <ele>853.2</ele>
        <time>2022-06-11T09:25:41Z</time>
      </trkpt>
      <trkpt lat="44.0695" lon="7.14923">
        <ele>852.6</ele>
        <time>2022-06-11T09:25:42Z</time>
      </trkpt>
      <trkpt lat="44.06947" lon="7.14911">
        <ele>851.6</ele>
        <time>2022-06-11T09:25:43Z</time>
      </trkpt>
      <trkpt lat="44.06944" lon="7.14898">
        <ele>849.9</ele>
        <time>2022-06-11T09:25:44Z</time>
      </trkpt>
      <trkpt lat="44.0694" lon="7.14886">
        <ele>848.2</ele>
        <time>2022-06-11T09:25:45Z</time>
      </trkpt>
      <trkpt lat="44.06934" lon="7.14875">
        <ele>848</ele>
        <time>2022-06-11T09:25:46Z</time>
      </trkpt>
      <trkpt lat="44.06927" lon="7.14864">
        <ele>847.9</ele>
        <time>2022-06-11T09:25:47Z</time>
      </trkpt>
      <trkpt lat="44.0692" lon="7.14853">
        <ele>848.2</ele>
        <time>2022-06-11T09:25:48Z</time>
      </trkpt>
      <trkpt lat="44.06913" lon="7.14842">
        <ele>848.4</ele>
        <time>2022-06-11T09:25:49Z</time>
      </trkpt>
      <trkpt lat="44.06907" lon="7.1483">
        <ele>848.1</ele>
        <time>2022-06-11T09:25:50Z</time>
      </trkpt>
      <trkpt lat="44.069" lon="7.14817">
        <ele>847.4</ele>
        <time>2022-06-11T09:25:51Z</time>
      </trkpt>
      <trkpt lat="44.06894" lon="7.14805">
        <ele>846.4</ele>
        <time>2022-06-11T09:25:52Z</time>
      </trkpt>
      <trkpt lat="44.06887" lon="7.14793">
        <ele>845.6</ele>
        <time>2022-06-11T09:25:53Z</time>
      </trkpt>
      <trkpt lat="44.06881" lon="7.1478">
        <ele>844.9</ele>
        <time>2022-06-11T09:25:54Z</time>
      </trkpt>
      <trkpt lat="44.06875" lon="7.14767">
        <ele>844.8</ele>
        <time>2022-06-11T09:25:55Z</time>
      </trkpt>
      <trkpt lat="44.06869" lon="7.14753">
        <ele>844.2</ele>
        <time>2022-06-11T09:25:56Z</time>
      </trkpt>
      <trkpt lat="44.06863" lon="7.1474">
        <ele>843.2</ele>
        <time>2022-06-11T09:25:57Z</time>
      </trkpt>
      <trkpt lat="44.06857" lon="7.14727">
        <ele>842.9</ele>
        <time>2022-06-11T09:25:58Z</time>
      </trkpt>
      <trkpt lat="44.0685" lon="7.14713">
        <ele>842.8</ele>
        <time>2022-06-11T09:25:59Z</time>
      </trkpt>
      <trkpt lat="44.06844" lon="7.147">
        <ele>842.3</ele>
        <time>2022-06-11T09:26:00Z</time>
      </trkpt>
      <trkpt lat="44.06837" lon="7.14687">
        <ele>841.7</ele>
        <time>2022-06-11T09:26:01Z</time>
      </trkpt>
      <trkpt lat="44.06831" lon="7.14674">
        <ele>841.5</ele>
        <time>2022-06-11T09:26:02Z</time>
      </trkpt>
      <trkpt lat="44.06825" lon="7.14661">
        <ele>841.2</ele>
        <time>2022-06-11T09:26:03Z</time>
      </trkpt>
      <trkpt lat="44.0682" lon="7.14649">
        <ele>840.3</ele>
        <time>2022-06-11T09:26:04Z</time>
      </trkpt>
      <trkpt lat="44.06815" lon="7.14636">
        <ele>839.2</ele>
        <time>2022-06-11T09:26:05Z</time>
      </trkpt>
      <trkpt lat="44.06813" lon="7.14624">
        <ele>838.2</ele>
        <time>2022-06-11T09:26:06Z</time>
      </trkpt>
      <trkpt lat="44.06813" lon="7.14613">
        <ele>837.8</ele>
        <time>2022-06-11T09:26:07Z</time>
      </trkpt>
      <trkpt lat="44.06813" lon="7.14602">
        <ele>837.6</ele>
        <time>2022-06-11T09:26:08Z</time>
      </trkpt>
      <trkpt lat="44.06814" lon="7.14593">
        <ele>837.2</ele>
        <time>2022-06-11T09:26:09Z</time>
      </trkpt>
      <trkpt lat="44.06812" lon="7.14586">
        <ele>835.6</ele>
        <time>2022-06-11T09:26:10Z</time>
      </trkpt>
      <trkpt lat="44.06808" lon="7.14582">
        <ele>833</ele>
        <time>2022-06-11T09:26:11Z</time>
      </trkpt>
      <trkpt lat="44.06802" lon="7.14584">
        <ele>830.5</ele>
        <time>2022-06-11T09:26:12Z</time>
      </trkpt>
      <trkpt lat="44.06797" lon="7.1459">
        <ele>828.9</ele>
        <time>2022-06-11T09:26:13Z</time>
      </trkpt>
      <trkpt lat="44.06794" lon="7.14598">
        <ele>828.2</ele>
        <time>2022-06-11T09:26:14Z</time>
      </trkpt>
      <trkpt lat="44.06793" lon="7.14607">
        <ele>828.4</ele>
        <time>2022-06-11T09:26:15Z</time>
      </trkpt>
      <trkpt lat="44.06794" lon="7.14617">
        <ele>829</ele>
        <time>2022-06-11T09:26:16Z</time>
      </trkpt>
      <trkpt lat="44.06794" lon="7.14627">
        <ele>829.6</ele>
        <time>2022-06-11T09:26:17Z</time>
      </trkpt>
      <trkpt lat="44.06796" lon="7.14638">
        <ele>830.4</ele>
        <time>2022-06-11T09:26:18Z</time>
      </trkpt>
      <trkpt lat="44.06797" lon="7.14649">
        <ele>830.3</ele>
        <time>2022-06-11T09:26:19Z</time>
      </trkpt>
      <trkpt lat="44.06798" lon="7.1466">
        <ele>830</ele>
        <time>2022-06-11T09:26:20Z</time>
      </trkpt>
      <trkpt lat="44.06798" lon="7.14672">
        <ele>829.1</ele>
        <time>2022-06-11T09:26:21Z</time>
      </trkpt>
      <trkpt lat="44.06797" lon="7.14682">
        <ele>828</ele>
        <time>2022-06-11T09:26:22Z</time>
      </trkpt>
      <trkpt lat="44.06797" lon="7.14689">
        <ele>827.2</ele>
        <time>2022-06-11T09:26:23Z</time>
      </trkpt>
      <trkpt lat="44.06796" lon="7.14696">
        <ele>826.5</ele>
        <time>2022-06-11T09:26:24Z</time>
      </trkpt>
      <trkpt lat="44.06797" lon="7.14699">
        <ele>826.3</ele>
        <time>2022-06-11T09:26:25Z</time>
      </trkpt>
      <trkpt lat="44.06798" lon="7.14702">
        <ele>826</ele>
        <time>2022-06-11T09:26:26Z</time>
      </trkpt>
      <trkpt lat="44.06798" lon="7.14704">
        <ele>825.8</ele>
        <time>2022-06-11T09:26:27Z</time>
      </trkpt>
      <trkpt lat="44.06799" lon="7.14707">
        <ele>825.5</ele>
        <time>2022-06-11T09:27:16Z</time>
      </trkpt>
      <trkpt lat="44.06799" lon="7.1471">
        <ele>825.3</ele>
        <time>2022-06-11T09:27:17Z</time>
      </trkpt>
      <trkpt lat="44.06801" lon="7.14715">
        <ele>825</ele>
        <time>2022-06-11T09:27:18Z</time>
      </trkpt>
      <trkpt lat="44.06803" lon="7.1472">
        <ele>824.7</ele>
        <time>2022-06-11T09:27:19Z</time>
      </trkpt>
      <trkpt lat="44.06806" lon="7.14727">
        <ele>824.4</ele>
        <time>2022-06-11T09:27:20Z</time>
      </trkpt>
      <trkpt lat="44.06809" lon="7.14733">
        <ele>824.4</ele>
        <time>2022-06-11T09:27:21Z</time>
      </trkpt>
      <trkpt lat="44.06813" lon="7.1474">
        <ele>824.4</ele>
        <time>2022-06-11T09:27:22Z</time>
      </trkpt>
      <trkpt lat="44.06816" lon="7.14747">
        <ele>824.2</ele>
        <time>2022-06-11T09:27:23Z</time>
      </trkpt>
      <trkpt lat="44.06821" lon="7.14754">
        <ele>824.3</ele>
        <time>2022-06-11T09:27:24Z</time>
      </trkpt>
      <trkpt lat="44.06826" lon="7.14761">
        <ele>824.4</ele>
        <time>2022-06-11T09:27:25Z</time>
      </trkpt>
      <trkpt lat="44.0683" lon="7.14769">
        <ele>824.1</ele>
        <time>2022-06-11T09:27:26Z</time>
      </trkpt>
      <trkpt lat="44.06834" lon="7.14776">
        <ele>823.7</ele>
        <time>2022-06-11T09:27:27Z</time>
      </trkpt>
      <trkpt lat="44.06837" lon="7.14782">
        <ele>824.3</ele>
        <time>2022-06-11T09:27:28Z</time>
      </trkpt>
      <trkpt lat="44.06838" lon="7.14788">
        <ele>824</ele>
        <time>2022-06-11T09:27:29Z</time>
      </trkpt>
      <trkpt lat="44.06835" lon="7.14792">
        <ele>822.6</ele>
        <time>2022-06-11T09:27:30Z</time>
      </trkpt>
      <trkpt lat="44.06831" lon="7.14793">
        <ele>821.4</ele>
        <time>2022-06-11T09:27:31Z</time>
      </trkpt>
      <trkpt lat="44.06827" lon="7.14789">
        <ele>821.1</ele>
        <time>2022-06-11T09:27:32Z</time>
      </trkpt>
      <trkpt lat="44.06823" lon="7.14784">
        <ele>821</ele>
        <time>2022-06-11T09:27:33Z</time>
      </trkpt>
      <trkpt lat="44.0682" lon="7.14777">
        <ele>821.2</ele>
        <time>2022-06-11T09:27:34Z</time>
      </trkpt>
      <trkpt lat="44.06816" lon="7.14769">
        <ele>821.5</ele>
        <time>2022-06-11T09:27:35Z</time>
      </trkpt>
      <trkpt lat="44.06812" lon="7.14761">
        <ele>821.6</ele>
        <time>2022-06-11T09:27:36Z</time>
      </trkpt>
      <trkpt lat="44.06808" lon="7.14753">
        <ele>821.4</ele>
        <time>2022-06-11T09:27:37Z</time>
      </trkpt>
      <trkpt lat="44.06804" lon="7.14745">
        <ele>821.4</ele>
        <time>2022-06-11T09:27:38Z</time>
      </trkpt>
      <trkpt lat="44.06799" lon="7.14738">
        <ele>821.4</ele>
        <time>2022-06-11T09:27:39Z</time>
      </trkpt>
      <trkpt lat="44.06793" lon="7.14733">
        <ele>820.9</ele>
        <time>2022-06-11T09:27:40Z</time>
      </trkpt>
      <trkpt lat="44.06786" lon="7.14728">
        <ele>820.1</ele>
        <time>2022-06-11T09:27:41Z</time>
      </trkpt>
      <trkpt lat="44.06779" lon="7.14722">
        <ele>819.3</ele>
        <time>2022-06-11T09:27:42Z</time>
      </trkpt>
      <trkpt lat="44.06772" lon="7.14717">
        <ele>818.7</ele>
        <time>2022-06-11T09:27:43Z</time>
      </trkpt>
      <trkpt lat="44.06765" lon="7.14711">
        <ele>818</ele>
        <time>2022-06-11T09:27:44Z</time>
      </trkpt>
      <trkpt lat="44.06757" lon="7.14705">
        <ele>817</ele>
        <time>2022-06-11T09:27:45Z</time>
      </trkpt>
      <trkpt lat="44.0675" lon="7.14698">
        <ele>815.9</ele>
        <time>2022-06-11T09:27:46Z</time>
      </trkpt>
      <trkpt lat="44.06745" lon="7.1469">
        <ele>814.1</ele>
        <time>2022-06-11T09:27:47Z</time>
      </trkpt>
      <trkpt lat="44.06744" lon="7.14681">
        <ele>812.7</ele>
        <time>2022-06-11T09:27:48Z</time>
      </trkpt>
      <trkpt lat="44.06745" lon="7.1467">
        <ele>812.5</ele>
        <time>2022-06-11T09:27:49Z</time>
      </trkpt>
      <trkpt lat="44.06748" lon="7.14661">
        <ele>813.3</ele>
        <time>2022-06-11T09:27:50Z</time>
      </trkpt>
      <trkpt lat="44.06752" lon="7.14651">
        <ele>813.4</ele>
        <time>2022-06-11T09:27:51Z</time>
      </trkpt>
      <trkpt lat="44.06755" lon="7.1464">
        <ele>813.2</ele>
        <time>2022-06-11T09:27:52Z</time>
      </trkpt>
      <trkpt lat="44.06755" lon="7.14629">
        <ele>812.5</ele>
        <time>2022-06-11T09:27:53Z</time>
      </trkpt>
      <trkpt lat="44.06753" lon="7.14619">
        <ele>810.2</ele>
        <time>2022-06-11T09:27:54Z</time>
      </trkpt>
      <trkpt lat="44.06748" lon="7.1461">
        <ele>807.7</ele>
        <time>2022-06-11T09:27:55Z</time>
      </trkpt>
      <trkpt lat="44.0674" lon="7.14604">
        <ele>807.5</ele>
        <time>2022-06-11T09:27:56Z</time>
      </trkpt>
      <trkpt lat="44.06732" lon="7.14603">
        <ele>807.6</ele>
        <time>2022-06-11T09:27:57Z</time>
      </trkpt>
      <trkpt lat="44.06724" lon="7.14606">
        <ele>806.3</ele>
        <time>2022-06-11T09:27:58Z</time>
      </trkpt>
      <trkpt lat="44.06717" lon="7.14612">
        <ele>805</ele>
        <time>2022-06-11T09:27:59Z</time>
      </trkpt>
      <trkpt lat="44.06711" lon="7.14619">
        <ele>804.1</ele>
        <time>2022-06-11T09:28:00Z</time>
      </trkpt>
      <trkpt lat="44.06704" lon="7.14623">
        <ele>803.8</ele>
        <time>2022-06-11T09:28:01Z</time>
      </trkpt>
      <trkpt lat="44.06696" lon="7.14621">
        <ele>805.4</ele>
        <time>2022-06-11T09:28:02Z</time>
      </trkpt>
      <trkpt lat="44.06689" lon="7.14621">
        <ele>805.5</ele>
        <time>2022-06-11T09:28:03Z</time>
      </trkpt>
      <trkpt lat="44.0668" lon="7.14621">
        <ele>804.7</ele>
        <time>2022-06-11T09:28:04Z</time>
      </trkpt>
      <trkpt lat="44.06671" lon="7.14623">
        <ele>803.5</ele>
        <time>2022-06-11T09:28:05Z</time>
      </trkpt>
      <trkpt lat="44.06662" lon="7.14624">
        <ele>802.2</ele>
        <time>2022-06-11T09:28:06Z</time>
      </trkpt>
      <trkpt lat="44.06652" lon="7.14623">
        <ele>801.5</ele>
        <time>2022-06-11T09:28:07Z</time>
      </trkpt>
      <trkpt lat="44.06642" lon="7.1462">
        <ele>801.3</ele>
        <time>2022-06-11T09:28:08Z</time>
      </trkpt>
      <trkpt lat="44.06633" lon="7.14615">
        <ele>801.1</ele>
        <time>2022-06-11T09:28:09Z</time>
      </trkpt>
      <trkpt lat="44.06624" lon="7.1461">
        <ele>800.5</ele>
        <time>2022-06-11T09:28:10Z</time>
      </trkpt>
      <trkpt lat="44.06614" lon="7.14605">
        <ele>799.7</ele>
        <time>2022-06-11T09:28:11Z</time>
      </trkpt>
      <trkpt lat="44.06604" lon="7.14601">
        <ele>799.4</ele>
        <time>2022-06-11T09:28:12Z</time>
      </trkpt>
      <trkpt lat="44.06593" lon="7.14598">
        <ele>799.2</ele>
        <time>2022-06-11T09:28:13Z</time>
      </trkpt>
      <trkpt lat="44.06582" lon="7.14596">
        <ele>798.7</ele>
        <time>2022-06-11T09:28:14Z</time>
      </trkpt>
      <trkpt lat="44.06572" lon="7.14594">
        <ele>797.4</ele>
        <time>2022-06-11T09:28:15Z</time>
      </trkpt>
      <trkpt lat="44.06562" lon="7.14593">
        <ele>796.2</ele>
        <time>2022-06-11T09:28:16Z</time>
      </trkpt>
      <trkpt lat="44.06553" lon="7.14589">
        <ele>795.5</ele>
        <time>2022-06-11T09:28:17Z</time>
      </trkpt>
      <trkpt lat="44.06545" lon="7.14581">
        <ele>794.8</ele>
        <time>2022-06-11T09:28:18Z</time>
      </trkpt>
      <trkpt lat="44.06539" lon="7.14571">
        <ele>794.2</ele>
        <time>2022-06-11T09:28:19Z</time>
      </trkpt>
      <trkpt lat="44.06535" lon="7.14561">
        <ele>794.3</ele>
        <time>2022-06-11T09:28:20Z</time>
      </trkpt>
      <trkpt lat="44.06533" lon="7.14549">
        <ele>794.2</ele>
        <time>2022-06-11T09:28:21Z</time>
      </trkpt>
      <trkpt lat="44.06533" lon="7.14536">
        <ele>794.2</ele>
        <time>2022-06-11T09:28:22Z</time>
      </trkpt>
      <trkpt lat="44.06535" lon="7.14524">
        <ele>794.5</ele>
        <time>2022-06-11T09:28:23Z</time>
      </trkpt>
      <trkpt lat="44.06536" lon="7.14511">
        <ele>794.3</ele>
        <time>2022-06-11T09:28:24Z</time>
      </trkpt>
      <trkpt lat="44.06537" lon="7.14498">
        <ele>793.8</ele>
        <time>2022-06-11T09:28:25Z</time>
      </trkpt>
      <trkpt lat="44.06536" lon="7.14485">
        <ele>791.9</ele>
        <time>2022-06-11T09:28:26Z</time>
      </trkpt>
      <trkpt lat="44.06531" lon="7.14474">
        <ele>788.5</ele>
        <time>2022-06-11T09:28:27Z</time>
      </trkpt>
      <trkpt lat="44.06523" lon="7.14465">
        <ele>787.8</ele>
        <time>2022-06-11T09:28:28Z</time>
      </trkpt>
      <trkpt lat="44.06514" lon="7.14457">
        <ele>788</ele>
        <time>2022-06-11T09:28:29Z</time>
      </trkpt>
      <trkpt lat="44.06507" lon="7.14449">
        <ele>788.2</ele>
        <time>2022-06-11T09:28:30Z</time>
      </trkpt>
      <trkpt lat="44.065" lon="7.14442">
        <ele>788.7</ele>
        <time>2022-06-11T09:28:31Z</time>
      </trkpt>
      <trkpt lat="44.06495" lon="7.14437">
        <ele>788.1</ele>
        <time>2022-06-11T09:28:32Z</time>
      </trkpt>
      <trkpt lat="44.06489" lon="7.14435">
        <ele>786.1</ele>
        <time>2022-06-11T09:28:33Z</time>
      </trkpt>
      <trkpt lat="44.06484" lon="7.14439">
        <ele>783.1</ele>
        <time>2022-06-11T09:28:34Z</time>
      </trkpt>
      <trkpt lat="44.06482" lon="7.14448">
        <ele>781.1</ele>
        <time>2022-06-11T09:28:35Z</time>
      </trkpt>
      <trkpt lat="44.06483" lon="7.14456">
        <ele>780.5</ele>
        <time>2022-06-11T09:28:36Z</time>
      </trkpt>
      <trkpt lat="44.06487" lon="7.14464">
        <ele>780.9</ele>
        <time>2022-06-11T09:28:37Z</time>
      </trkpt>
      <trkpt lat="44.06493" lon="7.14471">
        <ele>781.7</ele>
        <time>2022-06-11T09:28:38Z</time>
      </trkpt>
      <trkpt lat="44.06499" lon="7.14477">
        <ele>782.6</ele>
        <time>2022-06-11T09:28:39Z</time>
      </trkpt>
      <trkpt lat="44.06504" lon="7.14486">
        <ele>782.4</ele>
        <time>2022-06-11T09:28:40Z</time>
      </trkpt>
      <trkpt lat="44.06507" lon="7.14496">
        <ele>781.9</ele>
        <time>2022-06-11T09:28:41Z</time>
      </trkpt>
      <trkpt lat="44.06507" lon="7.14508">
        <ele>781.3</ele>
        <time>2022-06-11T09:28:42Z</time>
      </trkpt>
      <trkpt lat="44.06505" lon="7.14521">
        <ele>780</ele>
        <time>2022-06-11T09:28:43Z</time>
      </trkpt>
      <trkpt lat="44.06504" lon="7.14534">
        <ele>778.8</ele>
        <time>2022-06-11T09:28:44Z</time>
      </trkpt>
      <trkpt lat="44.06502" lon="7.14548">
        <ele>778.2</ele>
        <time>2022-06-11T09:28:45Z</time>
      </trkpt>
      <trkpt lat="44.06502" lon="7.14562">
        <ele>777.4</ele>
        <time>2022-06-11T09:28:46Z</time>
      </trkpt>
      <trkpt lat="44.06502" lon="7.14576">
        <ele>776.3</ele>
        <time>2022-06-11T09:28:47Z</time>
      </trkpt>
      <trkpt lat="44.06502" lon="7.14591">
        <ele>775.7</ele>
        <time>2022-06-11T09:28:48Z</time>
      </trkpt>
      <trkpt lat="44.06503" lon="7.14606">
        <ele>775.4</ele>
        <time>2022-06-11T09:28:49Z</time>
      </trkpt>
      <trkpt lat="44.06504" lon="7.14621">
        <ele>774.9</ele>
        <time>2022-06-11T09:28:50Z</time>
      </trkpt>
      <trkpt lat="44.06505" lon="7.14636">
        <ele>774.3</ele>
        <time>2022-06-11T09:28:51Z</time>
      </trkpt>
      <trkpt lat="44.06503" lon="7.14652">
        <ele>773.3</ele>
        <time>2022-06-11T09:28:52Z</time>
      </trkpt>
      <trkpt lat="44.065" lon="7.14667">
        <ele>772</ele>
        <time>2022-06-11T09:28:53Z</time>
      </trkpt>
      <trkpt lat="44.06497" lon="7.14682">
        <ele>770.8</ele>
        <time>2022-06-11T09:28:54Z</time>
      </trkpt>
      <trkpt lat="44.06494" lon="7.14696">
        <ele>769.8</ele>
        <time>2022-06-11T09:28:55Z</time>
      </trkpt>
      <trkpt lat="44.06491" lon="7.14709">
        <ele>768.8</ele>
        <time>2022-06-11T09:28:56Z</time>
      </trkpt>
      <trkpt lat="44.0649" lon="7.14722">
        <ele>768.2</ele>
        <time>2022-06-11T09:28:57Z</time>
      </trkpt>
      <trkpt lat="44.06491" lon="7.14734">
        <ele>767</ele>
        <time>2022-06-11T09:28:58Z</time>
      </trkpt>
      <trkpt lat="44.06495" lon="7.14745">
        <ele>766.6</ele>
        <time>2022-06-11T09:28:59Z</time>
      </trkpt>
      <trkpt lat="44.065" lon="7.14753">
        <ele>766.6</ele>
        <time>2022-06-11T09:29:00Z</time>
      </trkpt>
      <trkpt lat="44.06505" lon="7.1476">
        <ele>766</ele>
        <time>2022-06-11T09:29:01Z</time>
      </trkpt>
      <trkpt lat="44.06508" lon="7.14768">
        <ele>764.6</ele>
        <time>2022-06-11T09:29:02Z</time>
      </trkpt>
      <trkpt lat="44.06508" lon="7.14776">
        <ele>763</ele>
        <time>2022-06-11T09:29:03Z</time>
      </trkpt>
      <trkpt lat="44.06504" lon="7.14781">
        <ele>761.8</ele>
        <time>2022-06-11T09:29:04Z</time>
      </trkpt>
      <trkpt lat="44.06499" lon="7.14782">
        <ele>761.7</ele>
        <time>2022-06-11T09:29:05Z</time>
      </trkpt>
      <trkpt lat="44.06493" lon="7.14778">
        <ele>761.6</ele>
        <time>2022-06-11T09:29:06Z</time>
      </trkpt>
      <trkpt lat="44.06488" lon="7.14772">
        <ele>761.4</ele>
        <time>2022-06-11T09:29:07Z</time>
      </trkpt>
      <trkpt lat="44.06482" lon="7.14765">
        <ele>761.3</ele>
        <time>2022-06-11T09:29:08Z</time>
      </trkpt>
      <trkpt lat="44.06476" lon="7.14758">
        <ele>761.3</ele>
        <time>2022-06-11T09:29:09Z</time>
      </trkpt>
      <trkpt lat="44.0647" lon="7.14752">
        <ele>760.8</ele>
        <time>2022-06-11T09:29:10Z</time>
      </trkpt>
      <trkpt lat="44.06464" lon="7.14744">
        <ele>759.4</ele>
        <time>2022-06-11T09:29:11Z</time>
      </trkpt>
      <trkpt lat="44.06458" lon="7.14736">
        <ele>758.3</ele>
        <time>2022-06-11T09:29:12Z</time>
      </trkpt>
      <trkpt lat="44.06452" lon="7.14727">
        <ele>757.7</ele>
        <time>2022-06-11T09:29:13Z</time>
      </trkpt>
      <trkpt lat="44.06448" lon="7.14716">
        <ele>757.6</ele>
        <time>2022-06-11T09:29:14Z</time>
      </trkpt>
      <trkpt lat="44.06444" lon="7.14704">
        <ele>757.8</ele>
        <time>2022-06-11T09:29:15Z</time>
      </trkpt>
      <trkpt lat="44.06442" lon="7.14692">
        <ele>757.4</ele>
        <time>2022-06-11T09:29:16Z</time>
      </trkpt>
      <trkpt lat="44.06439" lon="7.1468">
        <ele>756.2</ele>
        <time>2022-06-11T09:29:17Z</time>
      </trkpt>
      <trkpt lat="44.06436" lon="7.14667">
        <ele>755</ele>
        <time>2022-06-11T09:29:18Z</time>
      </trkpt>
      <trkpt lat="44.06433" lon="7.14654">
        <ele>753.9</ele>
        <time>2022-06-11T09:29:19Z</time>
      </trkpt>
      <trkpt lat="44.0643" lon="7.14641">
        <ele>753.1</ele>
        <time>2022-06-11T09:29:20Z</time>
      </trkpt>
      <trkpt lat="44.06427" lon="7.14629">
        <ele>752.7</ele>
        <time>2022-06-11T09:29:21Z</time>
      </trkpt>
      <trkpt lat="44.06424" lon="7.14615">
        <ele>752.4</ele>
        <time>2022-06-11T09:29:22Z</time>
      </trkpt>
      <trkpt lat="44.06422" lon="7.14601">
        <ele>752.2</ele>
        <time>2022-06-11T09:29:23Z</time>
      </trkpt>
      <trkpt lat="44.0642" lon="7.14587">
        <ele>752.1</ele>
        <time>2022-06-11T09:29:24Z</time>
      </trkpt>
      <trkpt lat="44.06419" lon="7.14572">
        <ele>751.8</ele>
        <time>2022-06-11T09:29:25Z</time>
      </trkpt>
      <trkpt lat="44.06418" lon="7.14558">
        <ele>751.4</ele>
        <time>2022-06-11T09:29:26Z</time>
      </trkpt>
      <trkpt lat="44.06417" lon="7.14543">
        <ele>751.6</ele>
        <time>2022-06-11T09:29:27Z</time>
      </trkpt>
      <trkpt lat="44.06417" lon="7.14528">
        <ele>752</ele>
        <time>2022-06-11T09:29:28Z</time>
      </trkpt>
      <trkpt lat="44.06417" lon="7.14513">
        <ele>751.9</ele>
        <time>2022-06-11T09:29:29Z</time>
      </trkpt>
      <trkpt lat="44.06416" lon="7.14498">
        <ele>751.5</ele>
        <time>2022-06-11T09:29:30Z</time>
      </trkpt>
      <trkpt lat="44.06415" lon="7.14482">
        <ele>750.2</ele>
        <time>2022-06-11T09:29:31Z</time>
      </trkpt>
      <trkpt lat="44.06415" lon="7.14467">
        <ele>749.3</ele>
        <time>2022-06-11T09:29:32Z</time>
      </trkpt>
      <trkpt lat="44.06414" lon="7.14452">
        <ele>749</ele>
        <time>2022-06-11T09:29:33Z</time>
      </trkpt>
      <trkpt lat="44.06412" lon="7.14437">
        <ele>748.7</ele>
        <time>2022-06-11T09:29:34Z</time>
      </trkpt>
      <trkpt lat="44.0641" lon="7.14421">
        <ele>748.5</ele>
        <time>2022-06-11T09:29:35Z</time>
      </trkpt>
      <trkpt lat="44.06409" lon="7.14406">
        <ele>748</ele>
        <time>2022-06-11T09:29:36Z</time>
      </trkpt>
      <trkpt lat="44.06408" lon="7.1439">
        <ele>747.4</ele>
        <time>2022-06-11T09:29:37Z</time>
      </trkpt>
      <trkpt lat="44.06407" lon="7.14375">
        <ele>747.1</ele>
        <time>2022-06-11T09:29:38Z</time>
      </trkpt>
      <trkpt lat="44.06406" lon="7.14359">
        <ele>746.9</ele>
        <time>2022-06-11T09:29:39Z</time>
      </trkpt>
      <trkpt lat="44.06406" lon="7.14343">
        <ele>746.6</ele>
        <time>2022-06-11T09:29:40Z</time>
      </trkpt>
      <trkpt lat="44.06406" lon="7.14327">
        <ele>746</ele>
        <time>2022-06-11T09:29:41Z</time>
      </trkpt>
      <trkpt lat="44.06406" lon="7.14311">
        <ele>745.3</ele>
        <time>2022-06-11T09:29:42Z</time>
      </trkpt>
      <trkpt lat="44.06405" lon="7.14295">
        <ele>744.9</ele>
        <time>2022-06-11T09:29:43Z</time>
      </trkpt>
      <trkpt lat="44.06405" lon="7.14279">
        <ele>745</ele>
        <time>2022-06-11T09:29:44Z</time>
      </trkpt>
      <trkpt lat="44.06404" lon="7.14263">
        <ele>744.2</ele>
        <time>2022-06-11T09:29:45Z</time>
      </trkpt>
      <trkpt lat="44.06403" lon="7.14248">
        <ele>743.3</ele>
        <time>2022-06-11T09:29:46Z</time>
      </trkpt>
      <trkpt lat="44.06402" lon="7.14232">
        <ele>742.2</ele>
        <time>2022-06-11T09:29:47Z</time>
      </trkpt>
      <trkpt lat="44.064" lon="7.14216">
        <ele>741.3</ele>
        <time>2022-06-11T09:29:48Z</time>
      </trkpt>
      <trkpt lat="44.06398" lon="7.142">
        <ele>740.9</ele>
        <time>2022-06-11T09:29:49Z</time>
      </trkpt>
      <trkpt lat="44.06397" lon="7.14184">
        <ele>740</ele>
        <time>2022-06-11T09:29:50Z</time>
      </trkpt>
      <trkpt lat="44.06397" lon="7.14169">
        <ele>739.3</ele>
        <time>2022-06-11T09:29:51Z</time>
      </trkpt>
      <trkpt lat="44.06398" lon="7.14154">
        <ele>738.9</ele>
        <time>2022-06-11T09:29:52Z</time>
      </trkpt>
      <trkpt lat="44.064" lon="7.1414">
        <ele>739.3</ele>
        <time>2022-06-11T09:29:53Z</time>
      </trkpt>
      <trkpt lat="44.06404" lon="7.14128">
        <ele>739.9</ele>
        <time>2022-06-11T09:29:54Z</time>
      </trkpt>
      <trkpt lat="44.06409" lon="7.14117">
        <ele>740.7</ele>
        <time>2022-06-11T09:29:55Z</time>
      </trkpt>
      <trkpt lat="44.06412" lon="7.14106">
        <ele>740.8</ele>
        <time>2022-06-11T09:29:56Z</time>
      </trkpt>
      <trkpt lat="44.06413" lon="7.14095">
        <ele>739.9</ele>
        <time>2022-06-11T09:29:57Z</time>
      </trkpt>
      <trkpt lat="44.06411" lon="7.14085">
        <ele>738</ele>
        <time>2022-06-11T09:29:58Z</time>
      </trkpt>
      <trkpt lat="44.06406" lon="7.14076">
        <ele>738.3</ele>
        <time>2022-06-11T09:29:59Z</time>
      </trkpt>
      <trkpt lat="44.06399" lon="7.1407">
        <ele>738.2</ele>
        <time>2022-06-11T09:30:00Z</time>
      </trkpt>
      <trkpt lat="44.06391" lon="7.14065">
        <ele>737.1</ele>
        <time>2022-06-11T09:30:01Z</time>
      </trkpt>
      <trkpt lat="44.06382" lon="7.14062">
        <ele>735.2</ele>
        <time>2022-06-11T09:30:02Z</time>
      </trkpt>
      <trkpt lat="44.06372" lon="7.1406">
        <ele>733</ele>
        <time>2022-06-11T09:30:03Z</time>
      </trkpt>
      <trkpt lat="44.06363" lon="7.14058">
        <ele>730.7</ele>
        <time>2022-06-11T09:30:04Z</time>
      </trkpt>
      <trkpt lat="44.06355" lon="7.14054">
        <ele>729.3</ele>
        <time>2022-06-11T09:30:05Z</time>
      </trkpt>
      <trkpt lat="44.06348" lon="7.14046">
        <ele>729.5</ele>
        <time>2022-06-11T09:30:06Z</time>
      </trkpt>
      <trkpt lat="44.06343" lon="7.14036">
        <ele>730.5</ele>
        <time>2022-06-11T09:30:07Z</time>
      </trkpt>
      <trkpt lat="44.06338" lon="7.14026">
        <ele>731</ele>
        <time>2022-06-11T09:30:08Z</time>
      </trkpt>
      <trkpt lat="44.06334" lon="7.14015">
        <ele>730.3</ele>
        <time>2022-06-11T09:30:09Z</time>
      </trkpt>
      <trkpt lat="44.06329" lon="7.14004">
        <ele>729.9</ele>
        <time>2022-06-11T09:30:10Z</time>
      </trkpt>
      <trkpt lat="44.06325" lon="7.13993">
        <ele>729.8</ele>
        <time>2022-06-11T09:30:11Z</time>
      </trkpt>
      <trkpt lat="44.06321" lon="7.13981">
        <ele>729.8</ele>
        <time>2022-06-11T09:30:12Z</time>
      </trkpt>
      <trkpt lat="44.06316" lon="7.1397">
        <ele>729.6</ele>
        <time>2022-06-11T09:30:13Z</time>
      </trkpt>
      <trkpt lat="44.06311" lon="7.13959">
        <ele>728.5</ele>
        <time>2022-06-11T09:30:14Z</time>
      </trkpt>
      <trkpt lat="44.06305" lon="7.13949">
        <ele>726.9</ele>
        <time>2022-06-11T09:30:15Z</time>
      </trkpt>
      <trkpt lat="44.06298" lon="7.1394">
        <ele>726.3</ele>
        <time>2022-06-11T09:30:16Z</time>
      </trkpt>
      <trkpt lat="44.0629" lon="7.13932">
        <ele>725.7</ele>
        <time>2022-06-11T09:30:17Z</time>
      </trkpt>
      <trkpt lat="44.06282" lon="7.13923">
        <ele>725.1</ele>
        <time>2022-06-11T09:30:18Z</time>
      </trkpt>
      <trkpt lat="44.06274" lon="7.13914">
        <ele>724.1</ele>
        <time>2022-06-11T09:30:19Z</time>
      </trkpt>
      <trkpt lat="44.06266" lon="7.13905">
        <ele>723.1</ele>
        <time>2022-06-11T09:30:20Z</time>
      </trkpt>
      <trkpt lat="44.06258" lon="7.13896">
        <ele>722</ele>
        <time>2022-06-11T09:30:21Z</time>
      </trkpt>
      <trkpt lat="44.0625" lon="7.13887">
        <ele>721</ele>
        <time>2022-06-11T09:30:22Z</time>
      </trkpt>
      <trkpt lat="44.06242" lon="7.13878">
        <ele>720.8</ele>
        <time>2022-06-11T09:30:23Z</time>
      </trkpt>
      <trkpt lat="44.06232" lon="7.1387">
        <ele>720.3</ele>
        <time>2022-06-11T09:30:24Z</time>
      </trkpt>
      <trkpt lat="44.06223" lon="7.13863">
        <ele>719.4</ele>
        <time>2022-06-11T09:30:25Z</time>
      </trkpt>
      <trkpt lat="44.06212" lon="7.13857">
        <ele>719</ele>
        <time>2022-06-11T09:30:26Z</time>
      </trkpt>
      <trkpt lat="44.06202" lon="7.13852">
        <ele>717.7</ele>
        <time>2022-06-11T09:30:27Z</time>
      </trkpt>
      <trkpt lat="44.0619" lon="7.1385">
        <ele>715.5</ele>
        <time>2022-06-11T09:30:28Z</time>
      </trkpt>
      <trkpt lat="44.06179" lon="7.13848">
        <ele>713.9</ele>
        <time>2022-06-11T09:30:29Z</time>
      </trkpt>
      <trkpt lat="44.06169" lon="7.13842">
        <ele>713.7</ele>
        <time>2022-06-11T09:30:30Z</time>
      </trkpt>
      <trkpt lat="44.0616" lon="7.13833">
        <ele>713.7</ele>
        <time>2022-06-11T09:30:31Z</time>
      </trkpt>
      <trkpt lat="44.06154" lon="7.13821">
        <ele>713.3</ele>
        <time>2022-06-11T09:30:32Z</time>
      </trkpt>
      <trkpt lat="44.06147" lon="7.13809">
        <ele>713.5</ele>
        <time>2022-06-11T09:30:33Z</time>
      </trkpt>
      <trkpt lat="44.06139" lon="7.13799">
        <ele>712.3</ele>
        <time>2022-06-11T09:30:34Z</time>
      </trkpt>
      <trkpt lat="44.06131" lon="7.13789">
        <ele>711.3</ele>
        <time>2022-06-11T09:30:35Z</time>
      </trkpt>
      <trkpt lat="44.06124" lon="7.13777">
        <ele>710.6</ele>
        <time>2022-06-11T09:30:36Z</time>
      </trkpt>
      <trkpt lat="44.0612" lon="7.13764">
        <ele>709.1</ele>
        <time>2022-06-11T09:30:37Z</time>
      </trkpt>
      <trkpt lat="44.06119" lon="7.13751">
        <ele>708.6</ele>
        <time>2022-06-11T09:30:38Z</time>
      </trkpt>
      <trkpt lat="44.06119" lon="7.13739">
        <ele>709</ele>
        <time>2022-06-11T09:30:39Z</time>
      </trkpt>
      <trkpt lat="44.06119" lon="7.13727">
        <ele>709.2</ele>
        <time>2022-06-11T09:30:40Z</time>
      </trkpt>
      <trkpt lat="44.06117" lon="7.13717">
        <ele>708.5</ele>
        <time>2022-06-11T09:30:41Z</time>
      </trkpt>
      <trkpt lat="44.06113" lon="7.13708">
        <ele>707</ele>
        <time>2022-06-11T09:30:42Z</time>
      </trkpt>
      <trkpt lat="44.06105" lon="7.13702">
        <ele>706.4</ele>
        <time>2022-06-11T09:30:43Z</time>
      </trkpt>
      <trkpt lat="44.06097" lon="7.13698">
        <ele>706</ele>
        <time>2022-06-11T09:30:44Z</time>
      </trkpt>
      <trkpt lat="44.06088" lon="7.13696">
        <ele>705.1</ele>
        <time>2022-06-11T09:30:45Z</time>
      </trkpt>
      <trkpt lat="44.06079" lon="7.13693">
        <ele>703.8</ele>
        <time>2022-06-11T09:30:46Z</time>
      </trkpt>
      <trkpt lat="44.06071" lon="7.13688">
        <ele>702.7</ele>
        <time>2022-06-11T09:30:47Z</time>
      </trkpt>
      <trkpt lat="44.06062" lon="7.13681">
        <ele>702</ele>
        <time>2022-06-11T09:30:48Z</time>
      </trkpt>
      <trkpt lat="44.06055" lon="7.13673">
        <ele>701</ele>
        <time>2022-06-11T09:30:49Z</time>
      </trkpt>
      <trkpt lat="44.06047" lon="7.13664">
        <ele>699.6</ele>
        <time>2022-06-11T09:30:50Z</time>
      </trkpt>
      <trkpt lat="44.06039" lon="7.13655">
        <ele>698.9</ele>
        <time>2022-06-11T09:30:51Z</time>
      </trkpt>
      <trkpt lat="44.06034" lon="7.13644">
        <ele>699.2</ele>
        <time>2022-06-11T09:30:52Z</time>
      </trkpt>
      <trkpt lat="44.0603" lon="7.13631">
        <ele>699.6</ele>
        <time>2022-06-11T09:30:53Z</time>
      </trkpt>
      <trkpt lat="44.06028" lon="7.13617">
        <ele>699.6</ele>
        <time>2022-06-11T09:30:54Z</time>
      </trkpt>
      <trkpt lat="44.06025" lon="7.13604">
        <ele>699.8</ele>
        <time>2022-06-11T09:30:55Z</time>
      </trkpt>
      <trkpt lat="44.0602" lon="7.13592">
        <ele>699</ele>
        <time>2022-06-11T09:30:56Z</time>
      </trkpt>
      <trkpt lat="44.06012" lon="7.13583">
        <ele>698.1</ele>
        <time>2022-06-11T09:30:57Z</time>
      </trkpt>
      <trkpt lat="44.06004" lon="7.13575">
        <ele>700.2</ele>
        <time>2022-06-11T09:30:58Z</time>
      </trkpt>
      <trkpt lat="44.05995" lon="7.13569">
        <ele>701.9</ele>
        <time>2022-06-11T09:30:59Z</time>
      </trkpt>
      <trkpt lat="44.05985" lon="7.13567">
        <ele>700.6</ele>
        <time>2022-06-11T09:31:00Z</time>
      </trkpt>
      <trkpt lat="44.05976" lon="7.13568">
        <ele>697.3</ele>
        <time>2022-06-11T09:31:01Z</time>
      </trkpt>
      <trkpt lat="44.05966" lon="7.13567">
        <ele>694.8</ele>
        <time>2022-06-11T09:31:02Z</time>
      </trkpt>
      <trkpt lat="44.05957" lon="7.13563">
        <ele>694.1</ele>
        <time>2022-06-11T09:31:03Z</time>
      </trkpt>
      <trkpt lat="44.05949" lon="7.13555">
        <ele>695</ele>
        <time>2022-06-11T09:31:04Z</time>
      </trkpt>
      <trkpt lat="44.05943" lon="7.13545">
        <ele>695.2</ele>
        <time>2022-06-11T09:31:05Z</time>
      </trkpt>
      <trkpt lat="44.05939" lon="7.13533">
        <ele>696.3</ele>
        <time>2022-06-11T09:31:06Z</time>
      </trkpt>
      <trkpt lat="44.05934" lon="7.13522">
        <ele>696.5</ele>
        <time>2022-06-11T09:31:07Z</time>
      </trkpt>
      <trkpt lat="44.05927" lon="7.13512">
        <ele>695.6</ele>
        <time>2022-06-11T09:31:08Z</time>
      </trkpt>
      <trkpt lat="44.05918" lon="7.13505">
        <ele>694.1</ele>
        <time>2022-06-11T09:31:09Z</time>
      </trkpt>
      <trkpt lat="44.05908" lon="7.135">
        <ele>693</ele>
        <time>2022-06-11T09:31:10Z</time>
      </trkpt>
      <trkpt lat="44.05898" lon="7.13495">
        <ele>692.5</ele>
        <time>2022-06-11T09:31:11Z</time>
      </trkpt>
      <trkpt lat="44.05888" lon="7.13491">
        <ele>691.6</ele>
        <time>2022-06-11T09:31:12Z</time>
      </trkpt>
      <trkpt lat="44.05878" lon="7.13487">
        <ele>691.1</ele>
        <time>2022-06-11T09:31:13Z</time>
      </trkpt>
      <trkpt lat="44.05867" lon="7.13484">
        <ele>690.3</ele>
        <time>2022-06-11T09:31:14Z</time>
      </trkpt>
      <trkpt lat="44.05857" lon="7.1348">
        <ele>689</ele>
        <time>2022-06-11T09:31:15Z</time>
      </trkpt>
      <trkpt lat="44.05847" lon="7.13475">
        <ele>687.1</ele>
        <time>2022-06-11T09:31:16Z</time>
      </trkpt>
      <trkpt lat="44.05838" lon="7.13467">
        <ele>686.6</ele>
        <time>2022-06-11T09:31:17Z</time>
      </trkpt>
      <trkpt lat="44.0583" lon="7.13457">
        <ele>687.1</ele>
        <time>2022-06-11T09:31:18Z</time>
      </trkpt>
      <trkpt lat="44.05822" lon="7.13446">
        <ele>688</ele>
        <time>2022-06-11T09:31:19Z</time>
      </trkpt>
      <trkpt lat="44.05813" lon="7.13439">
        <ele>688.2</ele>
        <time>2022-06-11T09:31:20Z</time>
      </trkpt>
      <trkpt lat="44.05804" lon="7.13435">
        <ele>687.1</ele>
        <time>2022-06-11T09:31:21Z</time>
      </trkpt>
      <trkpt lat="44.05793" lon="7.13436">
        <ele>685</ele>
        <time>2022-06-11T09:31:22Z</time>
      </trkpt>
      <trkpt lat="44.05782" lon="7.13436">
        <ele>683.5</ele>
        <time>2022-06-11T09:31:23Z</time>
      </trkpt>
      <trkpt lat="44.05772" lon="7.13434">
        <ele>681.3</ele>
        <time>2022-06-11T09:31:24Z</time>
      </trkpt>
      <trkpt lat="44.05762" lon="7.1343">
        <ele>679.1</ele>
        <time>2022-06-11T09:31:25Z</time>
      </trkpt>
      <trkpt lat="44.05753" lon="7.13424">
        <ele>678.7</ele>
        <time>2022-06-11T09:31:26Z</time>
      </trkpt>
      <trkpt lat="44.05745" lon="7.13416">
        <ele>680.3</ele>
        <time>2022-06-11T09:31:27Z</time>
      </trkpt>
      <trkpt lat="44.05737" lon="7.13408">
        <ele>681.5</ele>
        <time>2022-06-11T09:31:28Z</time>
      </trkpt>
      <trkpt lat="44.05727" lon="7.13403">
        <ele>681.1</ele>
        <time>2022-06-11T09:31:29Z</time>
      </trkpt>
      <trkpt lat="44.05717" lon="7.13402">
        <ele>679.4</ele>
        <time>2022-06-11T09:31:30Z</time>
      </trkpt>
      <trkpt lat="44.05707" lon="7.13401">
        <ele>678.1</ele>
        <time>2022-06-11T09:31:31Z</time>
      </trkpt>
      <trkpt lat="44.05696" lon="7.13399">
        <ele>677</ele>
        <time>2022-06-11T09:31:32Z</time>
      </trkpt>
      <trkpt lat="44.05685" lon="7.13397">
        <ele>676.6</ele>
        <time>2022-06-11T09:31:33Z</time>
      </trkpt>
      <trkpt lat="44.05675" lon="7.13394">
        <ele>676.4</ele>
        <time>2022-06-11T09:31:34Z</time>
      </trkpt>
      <trkpt lat="44.05664" lon="7.13391">
        <ele>676.5</ele>
        <time>2022-06-11T09:31:35Z</time>
      </trkpt>
      <trkpt lat="44.05653" lon="7.1339">
        <ele>677.1</ele>
        <time>2022-06-11T09:31:36Z</time>
      </trkpt>
      <trkpt lat="44.05642" lon="7.13389">
        <ele>677</ele>
        <time>2022-06-11T09:31:37Z</time>
      </trkpt>
      <trkpt lat="44.05632" lon="7.13389">
        <ele>676.2</ele>
        <time>2022-06-11T09:31:38Z</time>
      </trkpt>
      <trkpt lat="44.05621" lon="7.1339">
        <ele>675.1</ele>
        <time>2022-06-11T09:31:39Z</time>
      </trkpt>
      <trkpt lat="44.0561" lon="7.13391">
        <ele>673.8</ele>
        <time>2022-06-11T09:31:40Z</time>
      </trkpt>
      <trkpt lat="44.056" lon="7.13391">
        <ele>673</ele>
        <time>2022-06-11T09:31:41Z</time>
      </trkpt>
      <trkpt lat="44.05589" lon="7.13392">
        <ele>672.2</ele>
        <time>2022-06-11T09:31:42Z</time>
      </trkpt>
      <trkpt lat="44.05579" lon="7.13394">
        <ele>671.9</ele>
        <time>2022-06-11T09:31:43Z</time>
      </trkpt>
      <trkpt lat="44.05568" lon="7.13393">
        <ele>673</ele>
        <time>2022-06-11T09:31:44Z</time>
      </trkpt>
      <trkpt lat="44.05558" lon="7.13394">
        <ele>673.3</ele>
        <time>2022-06-11T09:31:45Z</time>
      </trkpt>
      <trkpt lat="44.05548" lon="7.13397">
        <ele>672</ele>
        <time>2022-06-11T09:31:46Z</time>
      </trkpt>
      <trkpt lat="44.05538" lon="7.13402">
        <ele>669.9</ele>
        <time>2022-06-11T09:31:47Z</time>
      </trkpt>
      <trkpt lat="44.05528" lon="7.13405">
        <ele>669</ele>
        <time>2022-06-11T09:31:48Z</time>
      </trkpt>
      <trkpt lat="44.05519" lon="7.13405">
        <ele>666.1</ele>
        <time>2022-06-11T09:31:49Z</time>
      </trkpt>
      <trkpt lat="44.0551" lon="7.13401">
        <ele>665.1</ele>
        <time>2022-06-11T09:31:50Z</time>
      </trkpt>
      <trkpt lat="44.05502" lon="7.13393">
        <ele>665.6</ele>
        <time>2022-06-11T09:31:51Z</time>
      </trkpt>
      <trkpt lat="44.05494" lon="7.13386">
        <ele>666.3</ele>
        <time>2022-06-11T09:31:52Z</time>
      </trkpt>
      <trkpt lat="44.05485" lon="7.13381">
        <ele>666.1</ele>
        <time>2022-06-11T09:31:53Z</time>
      </trkpt>
      <trkpt lat="44.05476" lon="7.13378">
        <ele>664.7</ele>
        <time>2022-06-11T09:31:54Z</time>
      </trkpt>
      <trkpt lat="44.05465" lon="7.13377">
        <ele>665</ele>
        <time>2022-06-11T09:31:55Z</time>
      </trkpt>
      <trkpt lat="44.05455" lon="7.13378">
        <ele>666.1</ele>
        <time>2022-06-11T09:31:56Z</time>
      </trkpt>
      <trkpt lat="44.05444" lon="7.13379">
        <ele>665.1</ele>
        <time>2022-06-11T09:31:57Z</time>
      </trkpt>
      <trkpt lat="44.05434" lon="7.13384">
        <ele>660.1</ele>
        <time>2022-06-11T09:31:58Z</time>
      </trkpt>
      <trkpt lat="44.05423" lon="7.13389">
        <ele>655.6</ele>
        <time>2022-06-11T09:31:59Z</time>
      </trkpt>
      <trkpt lat="44.05414" lon="7.13391">
        <ele>652.9</ele>
        <time>2022-06-11T09:32:00Z</time>
      </trkpt>
      <trkpt lat="44.05403" lon="7.1339">
        <ele>652.1</ele>
        <time>2022-06-11T09:32:01Z</time>
      </trkpt>
      <trkpt lat="44.05393" lon="7.13386">
        <ele>653</ele>
        <time>2022-06-11T09:32:02Z</time>
      </trkpt>
      <trkpt lat="44.05382" lon="7.1338">
        <ele>653.5</ele>
        <time>2022-06-11T09:32:03Z</time>
      </trkpt>
      <trkpt lat="44.05371" lon="7.13376">
        <ele>653.3</ele>
        <time>2022-06-11T09:32:04Z</time>
      </trkpt>
      <trkpt lat="44.0536" lon="7.1337">
        <ele>653.5</ele>
        <time>2022-06-11T09:32:05Z</time>
      </trkpt>
      <trkpt lat="44.05348" lon="7.13365">
        <ele>653.2</ele>
        <time>2022-06-11T09:32:06Z</time>
      </trkpt>
      <trkpt lat="44.05337" lon="7.1336">
        <ele>653.8</ele>
        <time>2022-06-11T09:32:07Z</time>
      </trkpt>
      <trkpt lat="44.05326" lon="7.13359">
        <ele>653.6</ele>
        <time>2022-06-11T09:32:08Z</time>
      </trkpt>
      <trkpt lat="44.05314" lon="7.13359">
        <ele>652</ele>
        <time>2022-06-11T09:32:09Z</time>
      </trkpt>
      <trkpt lat="44.05303" lon="7.13361">
        <ele>649.4</ele>
        <time>2022-06-11T09:32:10Z</time>
      </trkpt>
      <trkpt lat="44.05291" lon="7.1336">
        <ele>648.1</ele>
        <time>2022-06-11T09:32:11Z</time>
      </trkpt>
      <trkpt lat="44.0528" lon="7.13358">
        <ele>648.8</ele>
        <time>2022-06-11T09:32:12Z</time>
      </trkpt>
      <trkpt lat="44.05268" lon="7.13356">
        <ele>651</ele>
        <time>2022-06-11T09:32:13Z</time>
      </trkpt>
      <trkpt lat="44.05257" lon="7.13358">
        <ele>650.5</ele>
        <time>2022-06-11T09:32:14Z</time>
      </trkpt>
      <trkpt lat="44.05246" lon="7.13363">
        <ele>647.5</ele>
        <time>2022-06-11T09:32:15Z</time>
      </trkpt>
      <trkpt lat="44.05236" lon="7.13369">
        <ele>644.4</ele>
        <time>2022-06-11T09:32:16Z</time>
      </trkpt>
      <trkpt lat="44.05224" lon="7.13373">
        <ele>643.5</ele>
        <time>2022-06-11T09:32:17Z</time>
      </trkpt>
      <trkpt lat="44.05212" lon="7.13377">
        <ele>642.3</ele>
        <time>2022-06-11T09:32:18Z</time>
      </trkpt>
      <trkpt lat="44.05201" lon="7.1338">
        <ele>641.2</ele>
        <time>2022-06-11T09:32:19Z</time>
      </trkpt>
      <trkpt lat="44.05191" lon="7.13382">
        <ele>639.8</ele>
        <time>2022-06-11T09:32:20Z</time>
      </trkpt>
      <trkpt lat="44.05181" lon="7.13383">
        <ele>637.3</ele>
        <time>2022-06-11T09:32:21Z</time>
      </trkpt>
      <trkpt lat="44.05171" lon="7.13381">
        <ele>636.5</ele>
        <time>2022-06-11T09:32:22Z</time>
      </trkpt>
      <trkpt lat="44.05161" lon="7.13376">
        <ele>635.2</ele>
        <time>2022-06-11T09:32:23Z</time>
      </trkpt>
      <trkpt lat="44.05152" lon="7.13371">
        <ele>633.7</ele>
        <time>2022-06-11T09:32:24Z</time>
      </trkpt>
      <trkpt lat="44.05142" lon="7.13365">
        <ele>632.7</ele>
        <time>2022-06-11T09:32:25Z</time>
      </trkpt>
      <trkpt lat="44.05132" lon="7.13361">
        <ele>633.5</ele>
        <time>2022-06-11T09:32:26Z</time>
      </trkpt>
      <trkpt lat="44.05121" lon="7.13359">
        <ele>634.3</ele>
        <time>2022-06-11T09:32:27Z</time>
      </trkpt>
      <trkpt lat="44.05111" lon="7.13359">
        <ele>633.6</ele>
        <time>2022-06-11T09:32:28Z</time>
      </trkpt>
      <trkpt lat="44.051" lon="7.1336">
        <ele>631.7</ele>
        <time>2022-06-11T09:32:29Z</time>
      </trkpt>
      <trkpt lat="44.05089" lon="7.1336">
        <ele>630.2</ele>
        <time>2022-06-11T09:32:30Z</time>
      </trkpt>
      <trkpt lat="44.05079" lon="7.13358">
        <ele>628.8</ele>
        <time>2022-06-11T09:32:31Z</time>
      </trkpt>
      <trkpt lat="44.0507" lon="7.13353">
        <ele>627</ele>
        <time>2022-06-11T09:32:32Z</time>
      </trkpt>
      <trkpt lat="44.05061" lon="7.13348">
        <ele>625.9</ele>
        <time>2022-06-11T09:32:33Z</time>
      </trkpt>
      <trkpt lat="44.05054" lon="7.13339">
        <ele>626.2</ele>
        <time>2022-06-11T09:32:34Z</time>
      </trkpt>
      <trkpt lat="44.05049" lon="7.13328">
        <ele>626.2</ele>
        <time>2022-06-11T09:32:35Z</time>
      </trkpt>
      <trkpt lat="44.05045" lon="7.13315">
        <ele>626</ele>
        <time>2022-06-11T09:32:36Z</time>
      </trkpt>
      <trkpt lat="44.05041" lon="7.13302">
        <ele>625.3</ele>
        <time>2022-06-11T09:32:37Z</time>
      </trkpt>
      <trkpt lat="44.05036" lon="7.13288">
        <ele>624</ele>
        <time>2022-06-11T09:32:38Z</time>
      </trkpt>
      <trkpt lat="44.05031" lon="7.13273">
        <ele>622.9</ele>
        <time>2022-06-11T09:32:39Z</time>
      </trkpt>
      <trkpt lat="44.05026" lon="7.13259">
        <ele>622.8</ele>
        <time>2022-06-11T09:32:40Z</time>
      </trkpt>
      <trkpt lat="44.05019" lon="7.13247">
        <ele>622.5</ele>
        <time>2022-06-11T09:32:41Z</time>
      </trkpt>
      <trkpt lat="44.05009" lon="7.1324">
        <ele>621.9</ele>
        <time>2022-06-11T09:32:42Z</time>
      </trkpt>
      <trkpt lat="44.04999" lon="7.13235">
        <ele>620.3</ele>
        <time>2022-06-11T09:32:43Z</time>
      </trkpt>
      <trkpt lat="44.04989" lon="7.13233">
        <ele>619.2</ele>
        <time>2022-06-11T09:32:44Z</time>
      </trkpt>
      <trkpt lat="44.04977" lon="7.13229">
        <ele>619.5</ele>
        <time>2022-06-11T09:32:45Z</time>
      </trkpt>
      <trkpt lat="44.04966" lon="7.13223">
        <ele>620.1</ele>
        <time>2022-06-11T09:32:46Z</time>
      </trkpt>
      <trkpt lat="44.04955" lon="7.13216">
        <ele>624</ele>
        <time>2022-06-11T09:32:47Z</time>
      </trkpt>
      <trkpt lat="44.04944" lon="7.13212">
        <ele>625.8</ele>
        <time>2022-06-11T09:32:48Z</time>
      </trkpt>
      <trkpt lat="44.04932" lon="7.1321">
        <ele>623.1</ele>
        <time>2022-06-11T09:32:49Z</time>
      </trkpt>
      <trkpt lat="44.0492" lon="7.13211">
        <ele>617.5</ele>
        <time>2022-06-11T09:32:50Z</time>
      </trkpt>
      <trkpt lat="44.04909" lon="7.13212">
        <ele>611.8</ele>
        <time>2022-06-11T09:32:51Z</time>
      </trkpt>
      <trkpt lat="44.04898" lon="7.13214">
        <ele>607.5</ele>
        <time>2022-06-11T09:32:52Z</time>
      </trkpt>
      <trkpt lat="44.04887" lon="7.13213">
        <ele>605.5</ele>
        <time>2022-06-11T09:32:53Z</time>
      </trkpt>
      <trkpt lat="44.04877" lon="7.1321">
        <ele>605.1</ele>
        <time>2022-06-11T09:32:54Z</time>
      </trkpt>
      <trkpt lat="44.04869" lon="7.13202">
        <ele>607.1</ele>
        <time>2022-06-11T09:32:55Z</time>
      </trkpt>
      <trkpt lat="44.04862" lon="7.13192">
        <ele>607.9</ele>
        <time>2022-06-11T09:32:56Z</time>
      </trkpt>
      <trkpt lat="44.04857" lon="7.13179">
        <ele>606.7</ele>
        <time>2022-06-11T09:32:57Z</time>
      </trkpt>
      <trkpt lat="44.04853" lon="7.13165">
        <ele>606.5</ele>
        <time>2022-06-11T09:32:58Z</time>
      </trkpt>
      <trkpt lat="44.0485" lon="7.13152">
        <ele>605.6</ele>
        <time>2022-06-11T09:32:59Z</time>
      </trkpt>
      <trkpt lat="44.04847" lon="7.1314">
        <ele>604.9</ele>
        <time>2022-06-11T09:33:00Z</time>
      </trkpt>
      <trkpt lat="44.04845" lon="7.13129">
        <ele>604.3</ele>
        <time>2022-06-11T09:33:01Z</time>
      </trkpt>
      <trkpt lat="44.04844" lon="7.1312">
        <ele>604.5</ele>
        <time>2022-06-11T09:33:02Z</time>
      </trkpt>
      <trkpt lat="44.04845" lon="7.13112">
        <ele>606.4</ele>
        <time>2022-06-11T09:33:03Z</time>
      </trkpt>
      <trkpt lat="44.04848" lon="7.13104">
        <ele>605.6</ele>
        <time>2022-06-11T09:33:04Z</time>
      </trkpt>
      <trkpt lat="44.04852" lon="7.13096">
        <ele>605.6</ele>
        <time>2022-06-11T09:33:05Z</time>
      </trkpt>
      <trkpt lat="44.04857" lon="7.13087">
        <ele>606.3</ele>
        <time>2022-06-11T09:33:06Z</time>
      </trkpt>
      <trkpt lat="44.04861" lon="7.13079">
        <ele>605.8</ele>
        <time>2022-06-11T09:33:07Z</time>
      </trkpt>
      <trkpt lat="44.04865" lon="7.13073">
        <ele>605.3</ele>
        <time>2022-06-11T09:33:08Z</time>
      </trkpt>
      <trkpt lat="44.04868" lon="7.13067">
        <ele>604.8</ele>
        <time>2022-06-11T09:33:09Z</time>
      </trkpt>
      <trkpt lat="44.04869" lon="7.13062">
        <ele>602.9</ele>
        <time>2022-06-11T09:33:10Z</time>
      </trkpt>
      <trkpt lat="44.0487" lon="7.13058">
        <ele>600.7</ele>
        <time>2022-06-11T09:33:11Z</time>
      </trkpt>
      <trkpt lat="44.04872" lon="7.13054">
        <ele>599.9</ele>
        <time>2022-06-11T09:33:12Z</time>
      </trkpt>
      <trkpt lat="44.04874" lon="7.13053">
        <ele>600.9</ele>
        <time>2022-06-11T09:33:13Z</time>
      </trkpt>
      <trkpt lat="44.04876" lon="7.13052">
        <ele>601.9</ele>
        <time>2022-06-11T09:33:14Z</time>
      </trkpt>
      <trkpt lat="44.04878" lon="7.13051">
        <ele>602.8</ele>
        <time>2022-06-11T09:34:45Z</time>
      </trkpt>
      <trkpt lat="44.04881" lon="7.13051">
        <ele>603.8</ele>
        <time>2022-06-11T09:34:46Z</time>
      </trkpt>
      <trkpt lat="44.04885" lon="7.13049">
        <ele>605.4</ele>
        <time>2022-06-11T09:34:47Z</time>
      </trkpt>
      <trkpt lat="44.0489" lon="7.13046">
        <ele>606.1</ele>
        <time>2022-06-11T09:34:48Z</time>
      </trkpt>
      <trkpt lat="44.04896" lon="7.13042">
        <ele>605.8</ele>
        <time>2022-06-11T09:34:49Z</time>
      </trkpt>
      <trkpt lat="44.04902" lon="7.13038">
        <ele>604.5</ele>
        <time>2022-06-11T09:34:50Z</time>
      </trkpt>
      <trkpt lat="44.04908" lon="7.13034">
        <ele>602.9</ele>
        <time>2022-06-11T09:34:51Z</time>
      </trkpt>
      <trkpt lat="44.04915" lon="7.13028">
        <ele>600.2</ele>
        <time>2022-06-11T09:34:52Z</time>
      </trkpt>
      <trkpt lat="44.04923" lon="7.13023">
        <ele>598.2</ele>
        <time>2022-06-11T09:34:53Z</time>
      </trkpt>
      <trkpt lat="44.04931" lon="7.1302">
        <ele>599.4</ele>
        <time>2022-06-11T09:34:54Z</time>
      </trkpt>
      <trkpt lat="44.0494" lon="7.13016">
        <ele>600.6</ele>
        <time>2022-06-11T09:34:55Z</time>
      </trkpt>
      <trkpt lat="44.04949" lon="7.13011">
        <ele>598.8</ele>
        <time>2022-06-11T09:34:56Z</time>
      </trkpt>
      <trkpt lat="44.04958" lon="7.13003">
        <ele>592.5</ele>
        <time>2022-06-11T09:34:57Z</time>
      </trkpt>
      <trkpt lat="44.04966" lon="7.12994">
        <ele>591.7</ele>
        <time>2022-06-11T09:34:58Z</time>
      </trkpt>
      <trkpt lat="44.04976" lon="7.12988">
        <ele>592.9</ele>
        <time>2022-06-11T09:34:59Z</time>
      </trkpt>
      <trkpt lat="44.04987" lon="7.12982">
        <ele>591.9</ele>
        <time>2022-06-11T09:35:00Z</time>
      </trkpt>
      <trkpt lat="44.04998" lon="7.12976">
        <ele>590.1</ele>
        <time>2022-06-11T09:35:01Z</time>
      </trkpt>
      <trkpt lat="44.05008" lon="7.12968">
        <ele>589.8</ele>
        <time>2022-06-11T09:35:02Z</time>
      </trkpt>
      <trkpt lat="44.05019" lon="7.1296">
        <ele>590.2</ele>
        <time>2022-06-11T09:35:03Z</time>
      </trkpt>
      <trkpt lat="44.05029" lon="7.12952">
        <ele>591.5</ele>
        <time>2022-06-11T09:35:04Z</time>
      </trkpt>
      <trkpt lat="44.0504" lon="7.12944">
        <ele>593.6</ele>
        <time>2022-06-11T09:35:05Z</time>
      </trkpt>
      <trkpt lat="44.05052" lon="7.12938">
        <ele>597.1</ele>
        <time>2022-06-11T09:35:06Z</time>
      </trkpt>
      <trkpt lat="44.05065" lon="7.12933">
        <ele>599.3</ele>
        <time>2022-06-11T09:35:07Z</time>
      </trkpt>
      <trkpt lat="44.05079" lon="7.12927">
        <ele>599.2</ele>
        <time>2022-06-11T09:35:08Z</time>
      </trkpt>
      <trkpt lat="44.05089" lon="7.12921">
        <ele>593.5</ele>
        <time>2022-06-11T09:35:09Z</time>
      </trkpt>
      <trkpt lat="44.05098" lon="7.12915">
        <ele>588.2</ele>
        <time>2022-06-11T09:35:10Z</time>
      </trkpt>
      <trkpt lat="44.05107" lon="7.12905">
        <ele>581.9</ele>
        <time>2022-06-11T09:35:11Z</time>
      </trkpt>
      <trkpt lat="44.05113" lon="7.12891">
        <ele>575</ele>
        <time>2022-06-11T09:35:12Z</time>
      </trkpt>
      <trkpt lat="44.05118" lon="7.12877">
        <ele>574.4</ele>
        <time>2022-06-11T09:35:13Z</time>
      </trkpt>
      <trkpt lat="44.05123" lon="7.12863">
        <ele>575.1</ele>
        <time>2022-06-11T09:35:14Z</time>
      </trkpt>
      <trkpt lat="44.0513" lon="7.1285">
        <ele>575.2</ele>
        <time>2022-06-11T09:35:15Z</time>
      </trkpt>
      <trkpt lat="44.05138" lon="7.12839">
        <ele>575.7</ele>
        <time>2022-06-11T09:35:16Z</time>
      </trkpt>
      <trkpt lat="44.05146" lon="7.12826">
        <ele>575.2</ele>
        <time>2022-06-11T09:35:17Z</time>
      </trkpt>
      <trkpt lat="44.05152" lon="7.1281">
        <ele>570.9</ele>
        <time>2022-06-11T09:35:18Z</time>
      </trkpt>
      <trkpt lat="44.05157" lon="7.12796">
        <ele>568.6</ele>
        <time>2022-06-11T09:35:19Z</time>
      </trkpt>
      <trkpt lat="44.05163" lon="7.12785">
        <ele>567.8</ele>
        <time>2022-06-11T09:35:20Z</time>
      </trkpt>
      <trkpt lat="44.0517" lon="7.12775">
        <ele>568.6</ele>
        <time>2022-06-11T09:35:21Z</time>
      </trkpt>
      <trkpt lat="44.05178" lon="7.12767">
        <ele>569.4</ele>
        <time>2022-06-11T09:35:22Z</time>
      </trkpt>
      <trkpt lat="44.05186" lon="7.12758">
        <ele>568.3</ele>
        <time>2022-06-11T09:35:23Z</time>
      </trkpt>
      <trkpt lat="44.05193" lon="7.12746">
        <ele>565.4</ele>
        <time>2022-06-11T09:35:24Z</time>
      </trkpt>
      <trkpt lat="44.052" lon="7.12736">
        <ele>562.6</ele>
        <time>2022-06-11T09:35:25Z</time>
      </trkpt>
      <trkpt lat="44.05208" lon="7.12727">
        <ele>559.3</ele>
        <time>2022-06-11T09:35:26Z</time>
      </trkpt>
      <trkpt lat="44.05217" lon="7.12722">
        <ele>557</ele>
        <time>2022-06-11T09:35:27Z</time>
      </trkpt>
      <trkpt lat="44.05227" lon="7.1272">
        <ele>556.5</ele>
        <time>2022-06-11T09:35:28Z</time>
      </trkpt>
      <trkpt lat="44.05237" lon="7.12721">
        <ele>557.9</ele>
        <time>2022-06-11T09:35:29Z</time>
      </trkpt>
      <trkpt lat="44.05246" lon="7.12723">
        <ele>559.1</ele>
        <time>2022-06-11T09:35:30Z</time>
      </trkpt>
      <trkpt lat="44.05256" lon="7.12722">
        <ele>560.4</ele>
        <time>2022-06-11T09:35:31Z</time>
      </trkpt>
      <trkpt lat="44.05265" lon="7.12717">
        <ele>560.8</ele>
        <time>2022-06-11T09:35:32Z</time>
      </trkpt>
      <trkpt lat="44.05272" lon="7.1271">
        <ele>559.1</ele>
        <time>2022-06-11T09:35:33Z</time>
      </trkpt>
      <trkpt lat="44.05277" lon="7.12699">
        <ele>555.4</ele>
        <time>2022-06-11T09:35:34Z</time>
      </trkpt>
      <trkpt lat="44.05282" lon="7.12688">
        <ele>552.2</ele>
        <time>2022-06-11T09:35:35Z</time>
      </trkpt>
      <trkpt lat="44.05286" lon="7.12675">
        <ele>548.4</ele>
        <time>2022-06-11T09:35:36Z</time>
      </trkpt>
      <trkpt lat="44.0529" lon="7.12662">
        <ele>545.2</ele>
        <time>2022-06-11T09:35:37Z</time>
      </trkpt>
      <trkpt lat="44.05297" lon="7.1265">
        <ele>543.7</ele>
        <time>2022-06-11T09:35:38Z</time>
      </trkpt>
      <trkpt lat="44.05304" lon="7.12639">
        <ele>543.5</ele>
        <time>2022-06-11T09:35:39Z</time>
      </trkpt>
      <trkpt lat="44.05312" lon="7.12629">
        <ele>543.4</ele>
        <time>2022-06-11T09:35:40Z</time>
      </trkpt>
      <trkpt lat="44.05318" lon="7.12617">
        <ele>542</ele>
        <time>2022-06-11T09:35:41Z</time>
      </trkpt>
      <trkpt lat="44.05322" lon="7.12603">
        <ele>539.3</ele>
        <time>2022-06-11T09:35:42Z</time>
      </trkpt>
      <trkpt lat="44.05325" lon="7.1259">
        <ele>536.9</ele>
        <time>2022-06-11T09:35:43Z</time>
      </trkpt>
      <trkpt lat="44.0533" lon="7.12578">
        <ele>536.1</ele>
        <time>2022-06-11T09:35:44Z</time>
      </trkpt>
      <trkpt lat="44.05337" lon="7.1257">
        <ele>536.5</ele>
        <time>2022-06-11T09:35:45Z</time>
      </trkpt>
      <trkpt lat="44.05347" lon="7.12564">
        <ele>537.8</ele>
        <time>2022-06-11T09:35:46Z</time>
      </trkpt>
      <trkpt lat="44.05357" lon="7.1256">
        <ele>540.1</ele>
        <time>2022-06-11T09:35:47Z</time>
      </trkpt>
      <trkpt lat="44.05367" lon="7.12558">
        <ele>541.9</ele>
        <time>2022-06-11T09:35:48Z</time>
      </trkpt>
      <trkpt lat="44.05377" lon="7.12557">
        <ele>543.5</ele>
        <time>2022-06-11T09:35:49Z</time>
      </trkpt>
      <trkpt lat="44.05387" lon="7.12556">
        <ele>544.8</ele>
        <time>2022-06-11T09:35:50Z</time>
      </trkpt>
      <trkpt lat="44.05395" lon="7.12553">
        <ele>546.1</ele>
        <time>2022-06-11T09:35:51Z</time>
      </trkpt>
      <trkpt lat="44.05402" lon="7.12548">
        <ele>546.8</ele>
        <time>2022-06-11T09:35:52Z</time>
      </trkpt>
      <trkpt lat="44.05409" lon="7.1254">
        <ele>546.1</ele>
        <time>2022-06-11T09:35:53Z</time>
      </trkpt>
      <trkpt lat="44.05414" lon="7.12529">
        <ele>544.3</ele>
        <time>2022-06-11T09:35:54Z</time>
      </trkpt>
      <trkpt lat="44.05418" lon="7.12517">
        <ele>543.6</ele>
        <time>2022-06-11T09:35:55Z</time>
      </trkpt>
      <trkpt lat="44.05423" lon="7.12505">
        <ele>543.5</ele>
        <time>2022-06-11T09:35:56Z</time>
      </trkpt>
      <trkpt lat="44.05427" lon="7.12493">
        <ele>543.1</ele>
        <time>2022-06-11T09:35:57Z</time>
      </trkpt>
      <trkpt lat="44.05431" lon="7.12479">
        <ele>541.2</ele>
        <time>2022-06-11T09:35:58Z</time>
      </trkpt>
      <trkpt lat="44.05432" lon="7.12464">
        <ele>539</ele>
        <time>2022-06-11T09:35:59Z</time>
      </trkpt>
      <trkpt lat="44.0543" lon="7.1245">
        <ele>536.3</ele>
        <time>2022-06-11T09:36:00Z</time>
      </trkpt>
      <trkpt lat="44.05428" lon="7.12435">
        <ele>533.7</ele>
        <time>2022-06-11T09:36:01Z</time>
      </trkpt>
      <trkpt lat="44.05428" lon="7.1242">
        <ele>532</ele>
        <time>2022-06-11T09:36:02Z</time>
      </trkpt>
      <trkpt lat="44.0543" lon="7.12405">
        <ele>530.9</ele>
        <time>2022-06-11T09:36:03Z</time>
      </trkpt>
      <trkpt lat="44.05432" lon="7.1239">
        <ele>530.2</ele>
        <time>2022-06-11T09:36:04Z</time>
      </trkpt>
      <trkpt lat="44.05436" lon="7.12374">
        <ele>529.4</ele>
        <time>2022-06-11T09:36:05Z</time>
      </trkpt>
      <trkpt lat="44.05441" lon="7.12358">
        <ele>528.5</ele>
        <time>2022-06-11T09:36:06Z</time>
      </trkpt>
      <trkpt lat="44.05443" lon="7.12341">
        <ele>527.1</ele>
        <time>2022-06-11T09:36:07Z</time>
      </trkpt>
      <trkpt lat="44.05442" lon="7.12324">
        <ele>525.9</ele>
        <time>2022-06-11T09:36:08Z</time>
      </trkpt>
      <trkpt lat="44.05441" lon="7.12306">
        <ele>526.1</ele>
        <time>2022-06-11T09:36:09Z</time>
      </trkpt>
      <trkpt lat="44.05443" lon="7.12289">
        <ele>524.7</ele>
        <time>2022-06-11T09:36:10Z</time>
      </trkpt>
      <trkpt lat="44.05447" lon="7.12274">
        <ele>524.6</ele>
        <time>2022-06-11T09:36:11Z</time>
      </trkpt>
      <trkpt lat="44.05454" lon="7.1226">
        <ele>525.1</ele>
        <time>2022-06-11T09:36:12Z</time>
      </trkpt>
      <trkpt lat="44.0546" lon="7.12245">
        <ele>525.3</ele>
        <time>2022-06-11T09:36:13Z</time>
      </trkpt>
      <trkpt lat="44.05465" lon="7.12229">
        <ele>524.1</ele>
        <time>2022-06-11T09:36:14Z</time>
      </trkpt>
      <trkpt lat="44.0547" lon="7.12213">
        <ele>525.5</ele>
        <time>2022-06-11T09:36:15Z</time>
      </trkpt>
      <trkpt lat="44.05475" lon="7.12198">
        <ele>529.3</ele>
        <time>2022-06-11T09:36:16Z</time>
      </trkpt>
      <trkpt lat="44.05479" lon="7.12183">
        <ele>530.7</ele>
        <time>2022-06-11T09:36:17Z</time>
      </trkpt>
      <trkpt lat="44.05479" lon="7.12183">
        <ele>530.7</ele>
        <time>2022-06-11T09:36:18Z</time>
      </trkpt>
      <trkpt lat="44.05479" lon="7.12183">
        <ele>530.7</ele>
        <time>2022-06-11T09:36:19Z</time>
      </trkpt>
      <trkpt lat="44.05484" lon="7.12162">
        <ele>531.2</ele>
        <time>2022-06-11T09:36:20Z</time>
      </trkpt>
      <trkpt lat="44.05489" lon="7.12141">
        <ele>527.8</ele>
        <time>2022-06-11T09:36:21Z</time>
      </trkpt>
      <trkpt lat="44.055" lon="7.12099">
        <ele>512.4</ele>
        <time>2022-06-11T09:36:22Z</time>
      </trkpt>
      <trkpt lat="44.05501" lon="7.12081">
        <ele>504.6</ele>
        <time>2022-06-11T09:36:23Z</time>
      </trkpt>
      <trkpt lat="44.05501" lon="7.12066">
        <ele>505.8</ele>
        <time>2022-06-11T09:36:24Z</time>
      </trkpt>
      <trkpt lat="44.05499" lon="7.1205">
        <ele>503.8</ele>
        <time>2022-06-11T09:36:25Z</time>
      </trkpt>
      <trkpt lat="44.05497" lon="7.12034">
        <ele>502.8</ele>
        <time>2022-06-11T09:36:26Z</time>
      </trkpt>
      <trkpt lat="44.05496" lon="7.12018">
        <ele>501.7</ele>
        <time>2022-06-11T09:36:27Z</time>
      </trkpt>
      <trkpt lat="44.05494" lon="7.12002">
        <ele>500.6</ele>
        <time>2022-06-11T09:36:28Z</time>
      </trkpt>
      <trkpt lat="44.05492" lon="7.11986">
        <ele>499.5</ele>
        <time>2022-06-11T09:36:29Z</time>
      </trkpt>
      <trkpt lat="44.05491" lon="7.11971">
        <ele>498.5</ele>
        <time>2022-06-11T09:36:30Z</time>
      </trkpt>
      <trkpt lat="44.0549" lon="7.11958">
        <ele>497.3</ele>
        <time>2022-06-11T09:36:31Z</time>
      </trkpt>
      <trkpt lat="44.05488" lon="7.11947">
        <ele>496</ele>
        <time>2022-06-11T09:36:32Z</time>
      </trkpt>
      <trkpt lat="44.05488" lon="7.11936">
        <ele>492.5</ele>
        <time>2022-06-11T09:36:33Z</time>
      </trkpt>
      <trkpt lat="44.05488" lon="7.11925">
        <ele>488.2</ele>
        <time>2022-06-11T09:36:34Z</time>
      </trkpt>
      <trkpt lat="44.05488" lon="7.11915">
        <ele>483.8</ele>
        <time>2022-06-11T09:36:35Z</time>
      </trkpt>
      <trkpt lat="44.05488" lon="7.11906">
        <ele>478.9</ele>
        <time>2022-06-11T09:36:36Z</time>
      </trkpt>
      <trkpt lat="44.05487" lon="7.11899">
        <ele>474.9</ele>
        <time>2022-06-11T09:36:37Z</time>
      </trkpt>
      <trkpt lat="44.05484" lon="7.11894">
        <ele>472.4</ele>
        <time>2022-06-11T09:36:38Z</time>
      </trkpt>
      <trkpt lat="44.0548" lon="7.11891">
        <ele>471.8</ele>
        <time>2022-06-11T09:36:39Z</time>
      </trkpt>
      <trkpt lat="44.05476" lon="7.11893">
        <ele>472.7</ele>
        <time>2022-06-11T09:36:40Z</time>
      </trkpt>
      <trkpt lat="44.05473" lon="7.11898">
        <ele>473.9</ele>
        <time>2022-06-11T09:36:41Z</time>
      </trkpt>
      <trkpt lat="44.05471" lon="7.11904">
        <ele>474.3</ele>
        <time>2022-06-11T09:36:42Z</time>
      </trkpt>
      <trkpt lat="44.05471" lon="7.11911">
        <ele>476</ele>
        <time>2022-06-11T09:36:43Z</time>
      </trkpt>
      <trkpt lat="44.05472" lon="7.11919">
        <ele>478</ele>
        <time>2022-06-11T09:36:44Z</time>
      </trkpt>
      <trkpt lat="44.05473" lon="7.11927">
        <ele>480.4</ele>
        <time>2022-06-11T09:36:45Z</time>
      </trkpt>
      <trkpt lat="44.05474" lon="7.11935">
        <ele>483.1</ele>
        <time>2022-06-11T09:36:46Z</time>
      </trkpt>
      <trkpt lat="44.05476" lon="7.11943">
        <ele>486.4</ele>
        <time>2022-06-11T09:36:47Z</time>
      </trkpt>
      <trkpt lat="44.05477" lon="7.11952">
        <ele>487.7</ele>
        <time>2022-06-11T09:36:48Z</time>
      </trkpt>
      <trkpt lat="44.05479" lon="7.11961">
        <ele>488.5</ele>
        <time>2022-06-11T09:36:49Z</time>
      </trkpt>
      <trkpt lat="44.0548" lon="7.11971">
        <ele>489.1</ele>
        <time>2022-06-11T09:36:50Z</time>
      </trkpt>
      <trkpt lat="44.0548" lon="7.1198">
        <ele>489.7</ele>
        <time>2022-06-11T09:36:51Z</time>
      </trkpt>
      <trkpt lat="44.05481" lon="7.1199">
        <ele>490.1</ele>
        <time>2022-06-11T09:36:52Z</time>
      </trkpt>
      <trkpt lat="44.05481" lon="7.12001">
        <ele>490.3</ele>
        <time>2022-06-11T09:36:53Z</time>
      </trkpt>
      <trkpt lat="44.05482" lon="7.12011">
        <ele>490.7</ele>
        <time>2022-06-11T09:36:54Z</time>
      </trkpt>
      <trkpt lat="44.05483" lon="7.12023">
        <ele>490.8</ele>
        <time>2022-06-11T09:36:55Z</time>
      </trkpt>
      <trkpt lat="44.05483" lon="7.12034">
        <ele>491</ele>
        <time>2022-06-11T09:36:56Z</time>
      </trkpt>
      <trkpt lat="44.05484" lon="7.12046">
        <ele>491.3</ele>
        <time>2022-06-11T09:36:57Z</time>
      </trkpt>
      <trkpt lat="44.05484" lon="7.12058">
        <ele>491.4</ele>
        <time>2022-06-11T09:36:58Z</time>
      </trkpt>
      <trkpt lat="44.05483" lon="7.1207">
        <ele>491</ele>
        <time>2022-06-11T09:36:59Z</time>
      </trkpt>
      <trkpt lat="44.05481" lon="7.12081">
        <ele>489.9</ele>
        <time>2022-06-11T09:37:00Z</time>
      </trkpt>
      <trkpt lat="44.05479" lon="7.12091">
        <ele>490.8</ele>
        <time>2022-06-11T09:37:01Z</time>
      </trkpt>
      <trkpt lat="44.05477" lon="7.12102">
        <ele>491.7</ele>
        <time>2022-06-11T09:37:02Z</time>
      </trkpt>
      <trkpt lat="44.05476" lon="7.12113">
        <ele>493.7</ele>
        <time>2022-06-11T09:37:03Z</time>
      </trkpt>
      <trkpt lat="44.05474" lon="7.12121">
        <ele>498.2</ele>
        <time>2022-06-11T09:37:04Z</time>
      </trkpt>
      <trkpt lat="44.05473" lon="7.12129">
        <ele>502.5</ele>
        <time>2022-06-11T09:37:05Z</time>
      </trkpt>
      <trkpt lat="44.05471" lon="7.12134">
        <ele>503.9</ele>
        <time>2022-06-11T09:37:06Z</time>
      </trkpt>
      <trkpt lat="44.05469" lon="7.12135">
        <ele>502</ele>
        <time>2022-06-11T09:37:07Z</time>
      </trkpt>
      <trkpt lat="44.05467" lon="7.12134">
        <ele>498.9</ele>
        <time>2022-06-11T09:37:08Z</time>
      </trkpt>
      <trkpt lat="44.05467" lon="7.1213">
        <ele>496.4</ele>
        <time>2022-06-11T09:37:09Z</time>
      </trkpt>
      <trkpt lat="44.05468" lon="7.12125">
        <ele>494.3</ele>
        <time>2022-06-11T09:37:10Z</time>
      </trkpt>
      <trkpt lat="44.05468" lon="7.1212">
        <ele>491.8</ele>
        <time>2022-06-11T09:37:11Z</time>
      </trkpt>
      <trkpt lat="44.0547" lon="7.12115">
        <ele>489.6</ele>
        <time>2022-06-11T09:37:12Z</time>
      </trkpt>
      <trkpt lat="44.05471" lon="7.12109">
        <ele>487.8</ele>
        <time>2022-06-11T09:37:13Z</time>
      </trkpt>
      <trkpt lat="44.05472" lon="7.12103">
        <ele>487.4</ele>
        <time>2022-06-11T09:37:14Z</time>
      </trkpt>
      <trkpt lat="44.05473" lon="7.12097">
        <ele>486.9</ele>
        <time>2022-06-11T09:37:15Z</time>
      </trkpt>
      <trkpt lat="44.05472" lon="7.12092">
        <ele>485.5</ele>
        <time>2022-06-11T09:37:16Z</time>
      </trkpt>
      <trkpt lat="44.0547" lon="7.12091">
        <ele>484.4</ele>
        <time>2022-06-11T09:37:17Z</time>
      </trkpt>
      <trkpt lat="44.05467" lon="7.12091">
        <ele>483.1</ele>
        <time>2022-06-11T09:37:18Z</time>
      </trkpt>
      <trkpt lat="44.05465" lon="7.12091">
        <ele>482.2</ele>
        <time>2022-06-11T09:37:19Z</time>
      </trkpt>
      <trkpt lat="44.05464" lon="7.12091">
        <ele>481.6</ele>
        <time>2022-06-11T09:37:20Z</time>
      </trkpt>
      <trkpt lat="44.05464" lon="7.12092">
        <ele>481.8</ele>
        <time>2022-06-11T09:37:21Z</time>
      </trkpt>
      <trkpt lat="44.05464" lon="7.12092">
        <ele>481.8</ele>
        <time>2022-06-11T09:37:22Z</time>
      </trkpt>
      <trkpt lat="44.05464" lon="7.12092">
        <ele>481.8</ele>
        <time>2022-06-11T09:37:23Z</time>
      </trkpt>
      <trkpt lat="44.05468" lon="7.12085">
        <ele>482.5</ele>
        <time>2022-06-11T09:47:15Z</time>
      </trkpt>
      <trkpt lat="44.0547" lon="7.12083">
        <ele>482.9</ele>
        <time>2022-06-11T09:47:16Z</time>
      </trkpt>
      <trkpt lat="44.05471" lon="7.1208">
        <ele>483.2</ele>
        <time>2022-06-11T09:47:17Z</time>
      </trkpt>
      <trkpt lat="44.05473" lon="7.12076">
        <ele>484</ele>
        <time>2022-06-11T09:47:18Z</time>
      </trkpt>
      <trkpt lat="44.05474" lon="7.12071">
        <ele>484.5</ele>
        <time>2022-06-11T09:47:19Z</time>
      </trkpt>
      <trkpt lat="44.05475" lon="7.12066">
        <ele>485</ele>
        <time>2022-06-11T09:47:20Z</time>
      </trkpt>
      <trkpt lat="44.05476" lon="7.1206">
        <ele>485.1</ele>
        <time>2022-06-11T09:47:21Z</time>
      </trkpt>
      <trkpt lat="44.05475" lon="7.12054">
        <ele>484.4</ele>
        <time>2022-06-11T09:47:22Z</time>
      </trkpt>
      <trkpt lat="44.05474" lon="7.12048">
        <ele>483.7</ele>
        <time>2022-06-11T09:47:23Z</time>
      </trkpt>
      <trkpt lat="44.05474" lon="7.12042">
        <ele>483.3</ele>
        <time>2022-06-11T09:47:24Z</time>
      </trkpt>
      <trkpt lat="44.05473" lon="7.12036">
        <ele>482.9</ele>
        <time>2022-06-11T09:47:25Z</time>
      </trkpt>
      <trkpt lat="44.05473" lon="7.12029">
        <ele>482.2</ele>
        <time>2022-06-11T09:47:26Z</time>
      </trkpt>
      <trkpt lat="44.05472" lon="7.12023">
        <ele>481.8</ele>
        <time>2022-06-11T09:47:27Z</time>
      </trkpt>
      <trkpt lat="44.05471" lon="7.12015">
        <ele>481.6</ele>
        <time>2022-06-11T09:47:28Z</time>
      </trkpt>
      <trkpt lat="44.05471" lon="7.12008">
        <ele>481.6</ele>
        <time>2022-06-11T09:47:29Z</time>
      </trkpt>
      <trkpt lat="44.05471" lon="7.12001">
        <ele>481.4</ele>
        <time>2022-06-11T09:47:30Z</time>
      </trkpt>
      <trkpt lat="44.05471" lon="7.11995">
        <ele>481.4</ele>
        <time>2022-06-11T09:47:31Z</time>
      </trkpt>
      <trkpt lat="44.05471" lon="7.11987">
        <ele>481.5</ele>
        <time>2022-06-11T09:47:32Z</time>
      </trkpt>
      <trkpt lat="44.05471" lon="7.1198">
        <ele>481.5</ele>
        <time>2022-06-11T09:47:33Z</time>
      </trkpt>
      <trkpt lat="44.05471" lon="7.11973">
        <ele>481.4</ele>
        <time>2022-06-11T09:47:34Z</time>
      </trkpt>
      <trkpt lat="44.0547" lon="7.11966">
        <ele>481.1</ele>
        <time>2022-06-11T09:47:35Z</time>
      </trkpt>
      <trkpt lat="44.05469" lon="7.11959">
        <ele>480.5</ele>
        <time>2022-06-11T09:47:36Z</time>
      </trkpt>
      <trkpt lat="44.05467" lon="7.11953">
        <ele>479.5</ele>
        <time>2022-06-11T09:47:37Z</time>
      </trkpt>
      <trkpt lat="44.05464" lon="7.11947">
        <ele>478</ele>
        <time>2022-06-11T09:47:38Z</time>
      </trkpt>
      <trkpt lat="44.05461" lon="7.1194">
        <ele>475</ele>
        <time>2022-06-11T09:47:39Z</time>
      </trkpt>
      <trkpt lat="44.05457" lon="7.11935">
        <ele>471.4</ele>
        <time>2022-06-11T09:47:40Z</time>
      </trkpt>
      <trkpt lat="44.05454" lon="7.11929">
        <ele>467.9</ele>
        <time>2022-06-11T09:47:41Z</time>
      </trkpt>
      <trkpt lat="44.05451" lon="7.11922">
        <ele>465.1</ele>
        <time>2022-06-11T09:47:42Z</time>
      </trkpt>
      <trkpt lat="44.05448" lon="7.11915">
        <ele>462</ele>
        <time>2022-06-11T09:47:43Z</time>
      </trkpt>
      <trkpt lat="44.05447" lon="7.11907">
        <ele>459.3</ele>
        <time>2022-06-11T09:47:44Z</time>
      </trkpt>
      <trkpt lat="44.05447" lon="7.11899">
        <ele>457.4</ele>
        <time>2022-06-11T09:47:45Z</time>
      </trkpt>
      <trkpt lat="44.0545" lon="7.11891">
        <ele>457.3</ele>
        <time>2022-06-11T09:47:46Z</time>
      </trkpt>
      <trkpt lat="44.05454" lon="7.11885">
        <ele>455.5</ele>
        <time>2022-06-11T09:47:47Z</time>
      </trkpt>
      <trkpt lat="44.0546" lon="7.11881">
        <ele>454.8</ele>
        <time>2022-06-11T09:47:48Z</time>
      </trkpt>
      <trkpt lat="44.05465" lon="7.11879">
        <ele>455.5</ele>
        <time>2022-06-11T09:47:49Z</time>
      </trkpt>
      <trkpt lat="44.05471" lon="7.11878">
        <ele>457.8</ele>
        <time>2022-06-11T09:47:50Z</time>
      </trkpt>
      <trkpt lat="44.05476" lon="7.11878">
        <ele>457.7</ele>
        <time>2022-06-11T09:47:51Z</time>
      </trkpt>
      <trkpt lat="44.05482" lon="7.11879">
        <ele>457.7</ele>
        <time>2022-06-11T09:47:52Z</time>
      </trkpt>
      <trkpt lat="44.05488" lon="7.11881">
        <ele>458.8</ele>
        <time>2022-06-11T09:47:53Z</time>
      </trkpt>
      <trkpt lat="44.05494" lon="7.11885">
        <ele>462.8</ele>
        <time>2022-06-11T09:47:54Z</time>
      </trkpt>
      <trkpt lat="44.05498" lon="7.1189">
        <ele>468.7</ele>
        <time>2022-06-11T09:47:55Z</time>
      </trkpt>
      <trkpt lat="44.05503" lon="7.11895">
        <ele>471.2</ele>
        <time>2022-06-11T09:47:56Z</time>
      </trkpt>
      <trkpt lat="44.05507" lon="7.119">
        <ele>473.8</ele>
        <time>2022-06-11T09:47:57Z</time>
      </trkpt>
      <trkpt lat="44.05511" lon="7.11905">
        <ele>477.8</ele>
        <time>2022-06-11T09:47:58Z</time>
      </trkpt>
      <trkpt lat="44.05516" lon="7.1191">
        <ele>481.7</ele>
        <time>2022-06-11T09:47:59Z</time>
      </trkpt>
      <trkpt lat="44.0552" lon="7.11914">
        <ele>486.4</ele>
        <time>2022-06-11T09:48:00Z</time>
      </trkpt>
      <trkpt lat="44.05525" lon="7.11917">
        <ele>490.1</ele>
        <time>2022-06-11T09:48:01Z</time>
      </trkpt>
      <trkpt lat="44.0553" lon="7.11919">
        <ele>491.2</ele>
        <time>2022-06-11T09:48:02Z</time>
      </trkpt>
      <trkpt lat="44.05535" lon="7.11923">
        <ele>491.1</ele>
        <time>2022-06-11T09:48:03Z</time>
      </trkpt>
      <trkpt lat="44.0554" lon="7.11927">
        <ele>492.1</ele>
        <time>2022-06-11T09:48:04Z</time>
      </trkpt>
      <trkpt lat="44.05546" lon="7.11931">
        <ele>492</ele>
        <time>2022-06-11T09:48:05Z</time>
      </trkpt>
      <trkpt lat="44.05552" lon="7.11933">
        <ele>491.4</ele>
        <time>2022-06-11T09:48:06Z</time>
      </trkpt>
      <trkpt lat="44.05558" lon="7.11937">
        <ele>492.3</ele>
        <time>2022-06-11T09:48:07Z</time>
      </trkpt>
      <trkpt lat="44.05564" lon="7.11939">
        <ele>491.4</ele>
        <time>2022-06-11T09:48:08Z</time>
      </trkpt>
      <trkpt lat="44.0557" lon="7.11941">
        <ele>490.3</ele>
        <time>2022-06-11T09:48:09Z</time>
      </trkpt>
      <trkpt lat="44.05576" lon="7.11942">
        <ele>487.5</ele>
        <time>2022-06-11T09:48:10Z</time>
      </trkpt>
      <trkpt lat="44.05582" lon="7.11943">
        <ele>484</ele>
        <time>2022-06-11T09:48:11Z</time>
      </trkpt>
      <trkpt lat="44.05588" lon="7.11941">
        <ele>484</ele>
        <time>2022-06-11T09:48:12Z</time>
      </trkpt>
      <trkpt lat="44.05594" lon="7.11939">
        <ele>485.1</ele>
        <time>2022-06-11T09:48:13Z</time>
      </trkpt>
      <trkpt lat="44.056" lon="7.11935">
        <ele>485.4</ele>
        <time>2022-06-11T09:48:14Z</time>
      </trkpt>
      <trkpt lat="44.05605" lon="7.11928">
        <ele>484.1</ele>
        <time>2022-06-11T09:48:15Z</time>
      </trkpt>
      <trkpt lat="44.0561" lon="7.11923">
        <ele>484.2</ele>
        <time>2022-06-11T09:48:16Z</time>
      </trkpt>
      <trkpt lat="44.05615" lon="7.11918">
        <ele>485.1</ele>
        <time>2022-06-11T09:48:17Z</time>
      </trkpt>
      <trkpt lat="44.05619" lon="7.11912">
        <ele>484.9</ele>
        <time>2022-06-11T09:48:18Z</time>
      </trkpt>
      <trkpt lat="44.05623" lon="7.11907">
        <ele>484.2</ele>
        <time>2022-06-11T09:48:19Z</time>
      </trkpt>
      <trkpt lat="44.05627" lon="7.11901">
        <ele>482.8</ele>
        <time>2022-06-11T09:48:20Z</time>
      </trkpt>
      <trkpt lat="44.05631" lon="7.11895">
        <ele>481.8</ele>
        <time>2022-06-11T09:48:21Z</time>
      </trkpt>
      <trkpt lat="44.05636" lon="7.11891">
        <ele>481.7</ele>
        <time>2022-06-11T09:48:22Z</time>
      </trkpt>
      <trkpt lat="44.05642" lon="7.11889">
        <ele>482</ele>
        <time>2022-06-11T09:48:23Z</time>
      </trkpt>
      <trkpt lat="44.05648" lon="7.11888">
        <ele>481.9</ele>
        <time>2022-06-11T09:48:24Z</time>
      </trkpt>
      <trkpt lat="44.05654" lon="7.11889">
        <ele>484.4</ele>
        <time>2022-06-11T09:48:25Z</time>
      </trkpt>
      <trkpt lat="44.0566" lon="7.11893">
        <ele>489.4</ele>
        <time>2022-06-11T09:48:26Z</time>
      </trkpt>
      <trkpt lat="44.05666" lon="7.11896">
        <ele>495</ele>
        <time>2022-06-11T09:48:27Z</time>
      </trkpt>
      <trkpt lat="44.05672" lon="7.11899">
        <ele>496.9</ele>
        <time>2022-06-11T09:48:28Z</time>
      </trkpt>
      <trkpt lat="44.05678" lon="7.11901">
        <ele>497.6</ele>
        <time>2022-06-11T09:48:29Z</time>
      </trkpt>
      <trkpt lat="44.05685" lon="7.11903">
        <ele>496.6</ele>
        <time>2022-06-11T09:48:30Z</time>
      </trkpt>
      <trkpt lat="44.05691" lon="7.11903">
        <ele>495.1</ele>
        <time>2022-06-11T09:48:31Z</time>
      </trkpt>
      <trkpt lat="44.05697" lon="7.11903">
        <ele>492.5</ele>
        <time>2022-06-11T09:48:32Z</time>
      </trkpt>
      <trkpt lat="44.05703" lon="7.11902">
        <ele>490.7</ele>
        <time>2022-06-11T09:48:33Z</time>
      </trkpt>
      <trkpt lat="44.0571" lon="7.119">
        <ele>487.2</ele>
        <time>2022-06-11T09:48:34Z</time>
      </trkpt>
      <trkpt lat="44.05716" lon="7.11898">
        <ele>484.5</ele>
        <time>2022-06-11T09:48:35Z</time>
      </trkpt>
      <trkpt lat="44.05722" lon="7.11897">
        <ele>483.3</ele>
        <time>2022-06-11T09:48:36Z</time>
      </trkpt>
      <trkpt lat="44.05728" lon="7.11896">
        <ele>483.8</ele>
        <time>2022-06-11T09:48:37Z</time>
      </trkpt>
      <trkpt lat="44.05734" lon="7.11895">
        <ele>483.6</ele>
        <time>2022-06-11T09:48:38Z</time>
      </trkpt>
      <trkpt lat="44.0574" lon="7.11891">
        <ele>482.5</ele>
        <time>2022-06-11T09:48:39Z</time>
      </trkpt>
      <trkpt lat="44.05744" lon="7.11886">
        <ele>480.7</ele>
        <time>2022-06-11T09:48:40Z</time>
      </trkpt>
      <trkpt lat="44.05749" lon="7.11879">
        <ele>479.7</ele>
        <time>2022-06-11T09:48:41Z</time>
      </trkpt>
      <trkpt lat="44.05753" lon="7.11872">
        <ele>479.2</ele>
        <time>2022-06-11T09:48:42Z</time>
      </trkpt>
      <trkpt lat="44.05758" lon="7.11866">
        <ele>478.9</ele>
        <time>2022-06-11T09:48:43Z</time>
      </trkpt>
      <trkpt lat="44.05763" lon="7.1186">
        <ele>478.7</ele>
        <time>2022-06-11T09:48:44Z</time>
      </trkpt>
      <trkpt lat="44.05769" lon="7.11855">
        <ele>478.5</ele>
        <time>2022-06-11T09:48:45Z</time>
      </trkpt>
      <trkpt lat="44.05775" lon="7.11851">
        <ele>479.1</ele>
        <time>2022-06-11T09:48:46Z</time>
      </trkpt>
      <trkpt lat="44.05781" lon="7.11848">
        <ele>477.9</ele>
        <time>2022-06-11T09:48:47Z</time>
      </trkpt>
      <trkpt lat="44.05787" lon="7.11846">
        <ele>475.4</ele>
        <time>2022-06-11T09:48:48Z</time>
      </trkpt>
      <trkpt lat="44.05794" lon="7.11847">
        <ele>475</ele>
        <time>2022-06-11T09:48:49Z</time>
      </trkpt>
      <trkpt lat="44.058" lon="7.11849">
        <ele>475.4</ele>
        <time>2022-06-11T09:48:50Z</time>
      </trkpt>
      <trkpt lat="44.05806" lon="7.11853">
        <ele>478.1</ele>
        <time>2022-06-11T09:48:51Z</time>
      </trkpt>
      <trkpt lat="44.05813" lon="7.11857">
        <ele>479.3</ele>
        <time>2022-06-11T09:48:52Z</time>
      </trkpt>
      <trkpt lat="44.05819" lon="7.11861">
        <ele>480.2</ele>
        <time>2022-06-11T09:48:53Z</time>
      </trkpt>
      <trkpt lat="44.05825" lon="7.11864">
        <ele>481.5</ele>
        <time>2022-06-11T09:48:54Z</time>
      </trkpt>
      <trkpt lat="44.05831" lon="7.11866">
        <ele>482</ele>
        <time>2022-06-11T09:48:55Z</time>
      </trkpt>
      <trkpt lat="44.05837" lon="7.11868">
        <ele>483.2</ele>
        <time>2022-06-11T09:48:56Z</time>
      </trkpt>
      <trkpt lat="44.05844" lon="7.11869">
        <ele>484.7</ele>
        <time>2022-06-11T09:48:57Z</time>
      </trkpt>
      <trkpt lat="44.0585" lon="7.11869">
        <ele>485.4</ele>
        <time>2022-06-11T09:48:58Z</time>
      </trkpt>
      <trkpt lat="44.05857" lon="7.11868">
        <ele>484.7</ele>
        <time>2022-06-11T09:48:59Z</time>
      </trkpt>
      <trkpt lat="44.05863" lon="7.11867">
        <ele>484.2</ele>
        <time>2022-06-11T09:49:00Z</time>
      </trkpt>
      <trkpt lat="44.0587" lon="7.11864">
        <ele>483.1</ele>
        <time>2022-06-11T09:49:01Z</time>
      </trkpt>
      <trkpt lat="44.05876" lon="7.11861">
        <ele>481.9</ele>
        <time>2022-06-11T09:49:02Z</time>
      </trkpt>
      <trkpt lat="44.05882" lon="7.11857">
        <ele>480.9</ele>
        <time>2022-06-11T09:49:03Z</time>
      </trkpt>
      <trkpt lat="44.05888" lon="7.11853">
        <ele>480.2</ele>
        <time>2022-06-11T09:49:04Z</time>
      </trkpt>
      <trkpt lat="44.05894" lon="7.11849">
        <ele>480</ele>
        <time>2022-06-11T09:49:05Z</time>
      </trkpt>
      <trkpt lat="44.059" lon="7.11844">
        <ele>479</ele>
        <time>2022-06-11T09:49:06Z</time>
      </trkpt>
      <trkpt lat="44.05906" lon="7.1184">
        <ele>477.8</ele>
        <time>2022-06-11T09:49:07Z</time>
      </trkpt>
      <trkpt lat="44.05912" lon="7.11836">
        <ele>476.7</ele>
        <time>2022-06-11T09:49:08Z</time>
      </trkpt>
      <trkpt lat="44.05919" lon="7.11833">
        <ele>476</ele>
        <time>2022-06-11T09:49:09Z</time>
      </trkpt>
      <trkpt lat="44.05925" lon="7.11831">
        <ele>476.3</ele>
        <time>2022-06-11T09:49:10Z</time>
      </trkpt>
      <trkpt lat="44.05932" lon="7.11831">
        <ele>477.1</ele>
        <time>2022-06-11T09:49:11Z</time>
      </trkpt>
      <trkpt lat="44.05939" lon="7.1183">
        <ele>478.2</ele>
        <time>2022-06-11T09:49:12Z</time>
      </trkpt>
      <trkpt lat="44.05945" lon="7.11829">
        <ele>478.7</ele>
        <time>2022-06-11T09:49:13Z</time>
      </trkpt>
      <trkpt lat="44.05952" lon="7.11826">
        <ele>480.1</ele>
        <time>2022-06-11T09:49:14Z</time>
      </trkpt>
      <trkpt lat="44.05958" lon="7.11823">
        <ele>480.6</ele>
        <time>2022-06-11T09:49:15Z</time>
      </trkpt>
      <trkpt lat="44.05963" lon="7.11817">
        <ele>480.1</ele>
        <time>2022-06-11T09:49:16Z</time>
      </trkpt>
      <trkpt lat="44.05968" lon="7.11811">
        <ele>479.2</ele>
        <time>2022-06-11T09:49:17Z</time>
      </trkpt>
      <trkpt lat="44.05973" lon="7.11804">
        <ele>478.5</ele>
        <time>2022-06-11T09:49:18Z</time>
      </trkpt>
      <trkpt lat="44.05978" lon="7.11797">
        <ele>477.9</ele>
        <time>2022-06-11T09:49:19Z</time>
      </trkpt>
      <trkpt lat="44.05982" lon="7.1179">
        <ele>476.7</ele>
        <time>2022-06-11T09:49:20Z</time>
      </trkpt>
      <trkpt lat="44.05987" lon="7.11784">
        <ele>476.6</ele>
        <time>2022-06-11T09:49:21Z</time>
      </trkpt>
      <trkpt lat="44.05994" lon="7.11779">
        <ele>477.1</ele>
        <time>2022-06-11T09:49:22Z</time>
      </trkpt>
      <trkpt lat="44.06001" lon="7.11776">
        <ele>479</ele>
        <time>2022-06-11T09:49:23Z</time>
      </trkpt>
      <trkpt lat="44.06008" lon="7.11775">
        <ele>478.3</ele>
        <time>2022-06-11T09:49:24Z</time>
      </trkpt>
      <trkpt lat="44.06016" lon="7.11775">
        <ele>478.3</ele>
        <time>2022-06-11T09:49:25Z</time>
      </trkpt>
      <trkpt lat="44.06023" lon="7.11776">
        <ele>478.4</ele>
        <time>2022-06-11T09:49:26Z</time>
      </trkpt>
      <trkpt lat="44.0603" lon="7.11775">
        <ele>477.6</ele>
        <time>2022-06-11T09:49:27Z</time>
      </trkpt>
      <trkpt lat="44.06038" lon="7.11774">
        <ele>476.3</ele>
        <time>2022-06-11T09:49:28Z</time>
      </trkpt>
      <trkpt lat="44.06045" lon="7.11773">
        <ele>474.7</ele>
        <time>2022-06-11T09:49:29Z</time>
      </trkpt>
      <trkpt lat="44.06053" lon="7.11772">
        <ele>473.3</ele>
        <time>2022-06-11T09:49:30Z</time>
      </trkpt>
      <trkpt lat="44.0606" lon="7.11772">
        <ele>470.1</ele>
        <time>2022-06-11T09:49:31Z</time>
      </trkpt>
      <trkpt lat="44.06068" lon="7.11773">
        <ele>466.9</ele>
        <time>2022-06-11T09:49:32Z</time>
      </trkpt>
      <trkpt lat="44.06075" lon="7.11776">
        <ele>465.3</ele>
        <time>2022-06-11T09:49:33Z</time>
      </trkpt>
      <trkpt lat="44.06082" lon="7.11781">
        <ele>467</ele>
        <time>2022-06-11T09:49:34Z</time>
      </trkpt>
      <trkpt lat="44.06089" lon="7.11787">
        <ele>472.2</ele>
        <time>2022-06-11T09:49:35Z</time>
      </trkpt>
      <trkpt lat="44.06094" lon="7.11792">
        <ele>477.5</ele>
        <time>2022-06-11T09:49:36Z</time>
      </trkpt>
      <trkpt lat="44.061" lon="7.11798">
        <ele>481.9</ele>
        <time>2022-06-11T09:49:37Z</time>
      </trkpt>
      <trkpt lat="44.06106" lon="7.11802">
        <ele>484</ele>
        <time>2022-06-11T09:49:38Z</time>
      </trkpt>
      <trkpt lat="44.06112" lon="7.11805">
        <ele>484.6</ele>
        <time>2022-06-11T09:49:39Z</time>
      </trkpt>
      <trkpt lat="44.06118" lon="7.11808">
        <ele>486.5</ele>
        <time>2022-06-11T09:49:40Z</time>
      </trkpt>
      <trkpt lat="44.06125" lon="7.11809">
        <ele>485.7</ele>
        <time>2022-06-11T09:49:41Z</time>
      </trkpt>
      <trkpt lat="44.06131" lon="7.1181">
        <ele>484.9</ele>
        <time>2022-06-11T09:49:42Z</time>
      </trkpt>
      <trkpt lat="44.06137" lon="7.11809">
        <ele>481.7</ele>
        <time>2022-06-11T09:49:43Z</time>
      </trkpt>
      <trkpt lat="44.06144" lon="7.11808">
        <ele>480.1</ele>
        <time>2022-06-11T09:49:44Z</time>
      </trkpt>
      <trkpt lat="44.06151" lon="7.11806">
        <ele>478.3</ele>
        <time>2022-06-11T09:49:45Z</time>
      </trkpt>
      <trkpt lat="44.06159" lon="7.11805">
        <ele>477.1</ele>
        <time>2022-06-11T09:49:46Z</time>
      </trkpt>
      <trkpt lat="44.06166" lon="7.11804">
        <ele>476.5</ele>
        <time>2022-06-11T09:49:47Z</time>
      </trkpt>
      <trkpt lat="44.06174" lon="7.11805">
        <ele>476.4</ele>
        <time>2022-06-11T09:49:48Z</time>
      </trkpt>
      <trkpt lat="44.06181" lon="7.11806">
        <ele>476.8</ele>
        <time>2022-06-11T09:49:49Z</time>
      </trkpt>
      <trkpt lat="44.06188" lon="7.11807">
        <ele>476.8</ele>
        <time>2022-06-11T09:49:50Z</time>
      </trkpt>
      <trkpt lat="44.06194" lon="7.11806">
        <ele>476</ele>
        <time>2022-06-11T09:49:51Z</time>
      </trkpt>
      <trkpt lat="44.06201" lon="7.11803">
        <ele>478.6</ele>
        <time>2022-06-11T09:49:52Z</time>
      </trkpt>
      <trkpt lat="44.06206" lon="7.11798">
        <ele>479.9</ele>
        <time>2022-06-11T09:49:53Z</time>
      </trkpt>
      <trkpt lat="44.06212" lon="7.11793">
        <ele>480.7</ele>
        <time>2022-06-11T09:49:54Z</time>
      </trkpt>
      <trkpt lat="44.06217" lon="7.11786">
        <ele>480.5</ele>
        <time>2022-06-11T09:49:55Z</time>
      </trkpt>
      <trkpt lat="44.06222" lon="7.11779">
        <ele>479.4</ele>
        <time>2022-06-11T09:49:56Z</time>
      </trkpt>
      <trkpt lat="44.06226" lon="7.11771">
        <ele>478.9</ele>
        <time>2022-06-11T09:49:57Z</time>
      </trkpt>
      <trkpt lat="44.06231" lon="7.11764">
        <ele>478.7</ele>
        <time>2022-06-11T09:49:58Z</time>
      </trkpt>
      <trkpt lat="44.06235" lon="7.11757">
        <ele>478.3</ele>
        <time>2022-06-11T09:49:59Z</time>
      </trkpt>
      <trkpt lat="44.0624" lon="7.1175">
        <ele>477.4</ele>
        <time>2022-06-11T09:50:00Z</time>
      </trkpt>
      <trkpt lat="44.06244" lon="7.11742">
        <ele>477.1</ele>
        <time>2022-06-11T09:50:01Z</time>
      </trkpt>
      <trkpt lat="44.06248" lon="7.11733">
        <ele>475.6</ele>
        <time>2022-06-11T09:50:02Z</time>
      </trkpt>
      <trkpt lat="44.06252" lon="7.11725">
        <ele>473.6</ele>
        <time>2022-06-11T09:50:03Z</time>
      </trkpt>
      <trkpt lat="44.06257" lon="7.11717">
        <ele>472.3</ele>
        <time>2022-06-11T09:50:04Z</time>
      </trkpt>
      <trkpt lat="44.06263" lon="7.11712">
        <ele>472.1</ele>
        <time>2022-06-11T09:50:05Z</time>
      </trkpt>
      <trkpt lat="44.06271" lon="7.11711">
        <ele>472.9</ele>
        <time>2022-06-11T09:50:06Z</time>
      </trkpt>
      <trkpt lat="44.06278" lon="7.11712">
        <ele>474.7</ele>
        <time>2022-06-11T09:50:07Z</time>
      </trkpt>
      <trkpt lat="44.06285" lon="7.11715">
        <ele>476.1</ele>
        <time>2022-06-11T09:50:08Z</time>
      </trkpt>
      <trkpt lat="44.06291" lon="7.11719">
        <ele>478</ele>
        <time>2022-06-11T09:50:09Z</time>
      </trkpt>
      <trkpt lat="44.06298" lon="7.11721">
        <ele>479.7</ele>
        <time>2022-06-11T09:50:10Z</time>
      </trkpt>
      <trkpt lat="44.06304" lon="7.11723">
        <ele>481.2</ele>
        <time>2022-06-11T09:50:11Z</time>
      </trkpt>
      <trkpt lat="44.06312" lon="7.11723">
        <ele>480.9</ele>
        <time>2022-06-11T09:50:12Z</time>
      </trkpt>
      <trkpt lat="44.06319" lon="7.11722">
        <ele>480.1</ele>
        <time>2022-06-11T09:50:13Z</time>
      </trkpt>
      <trkpt lat="44.06326" lon="7.11722">
        <ele>479.2</ele>
        <time>2022-06-11T09:50:14Z</time>
      </trkpt>
      <trkpt lat="44.06333" lon="7.11721">
        <ele>477.8</ele>
        <time>2022-06-11T09:50:15Z</time>
      </trkpt>
      <trkpt lat="44.0634" lon="7.11719">
        <ele>477</ele>
        <time>2022-06-11T09:50:16Z</time>
      </trkpt>
      <trkpt lat="44.06348" lon="7.11717">
        <ele>475.9</ele>
        <time>2022-06-11T09:50:17Z</time>
      </trkpt>
      <trkpt lat="44.06355" lon="7.11715">
        <ele>474.7</ele>
        <time>2022-06-11T09:50:18Z</time>
      </trkpt>
      <trkpt lat="44.06362" lon="7.11714">
        <ele>474.5</ele>
        <time>2022-06-11T09:50:19Z</time>
      </trkpt>
      <trkpt lat="44.0637" lon="7.11714">
        <ele>474.7</ele>
        <time>2022-06-11T09:50:20Z</time>
      </trkpt>
      <trkpt lat="44.06377" lon="7.11715">
        <ele>475.8</ele>
        <time>2022-06-11T09:50:21Z</time>
      </trkpt>
      <trkpt lat="44.06385" lon="7.11716">
        <ele>477.2</ele>
        <time>2022-06-11T09:50:22Z</time>
      </trkpt>
      <trkpt lat="44.06392" lon="7.11719">
        <ele>478.9</ele>
        <time>2022-06-11T09:50:23Z</time>
      </trkpt>
      <trkpt lat="44.06399" lon="7.11722">
        <ele>480.4</ele>
        <time>2022-06-11T09:50:24Z</time>
      </trkpt>
      <trkpt lat="44.06406" lon="7.11724">
        <ele>481.5</ele>
        <time>2022-06-11T09:50:25Z</time>
      </trkpt>
      <trkpt lat="44.06413" lon="7.11727">
        <ele>482.9</ele>
        <time>2022-06-11T09:50:26Z</time>
      </trkpt>
      <trkpt lat="44.0642" lon="7.11729">
        <ele>482.3</ele>
        <time>2022-06-11T09:50:27Z</time>
      </trkpt>
      <trkpt lat="44.06427" lon="7.11731">
        <ele>479.2</ele>
        <time>2022-06-11T09:50:28Z</time>
      </trkpt>
      <trkpt lat="44.06434" lon="7.11731">
        <ele>475.3</ele>
        <time>2022-06-11T09:50:29Z</time>
      </trkpt>
      <trkpt lat="44.06441" lon="7.11729">
        <ele>470.2</ele>
        <time>2022-06-11T09:50:30Z</time>
      </trkpt>
      <trkpt lat="44.06447" lon="7.11726">
        <ele>465.3</ele>
        <time>2022-06-11T09:50:31Z</time>
      </trkpt>
      <trkpt lat="44.06453" lon="7.1172">
        <ele>463.4</ele>
        <time>2022-06-11T09:50:32Z</time>
      </trkpt>
      <trkpt lat="44.06458" lon="7.11713">
        <ele>465.4</ele>
        <time>2022-06-11T09:50:33Z</time>
      </trkpt>
      <trkpt lat="44.06461" lon="7.11705">
        <ele>468.5</ele>
        <time>2022-06-11T09:50:34Z</time>
      </trkpt>
      <trkpt lat="44.06463" lon="7.11696">
        <ele>471.9</ele>
        <time>2022-06-11T09:50:35Z</time>
      </trkpt>
      <trkpt lat="44.06463" lon="7.11687">
        <ele>474.6</ele>
        <time>2022-06-11T09:50:36Z</time>
      </trkpt>
      <trkpt lat="44.06462" lon="7.11678">
        <ele>476.4</ele>
        <time>2022-06-11T09:50:37Z</time>
      </trkpt>
      <trkpt lat="44.06461" lon="7.1167">
        <ele>478</ele>
        <time>2022-06-11T09:50:38Z</time>
      </trkpt>
      <trkpt lat="44.0646" lon="7.11662">
        <ele>478.1</ele>
        <time>2022-06-11T09:50:39Z</time>
      </trkpt>
      <trkpt lat="44.06459" lon="7.11653">
        <ele>477.7</ele>
        <time>2022-06-11T09:50:40Z</time>
      </trkpt>
      <trkpt lat="44.06459" lon="7.11644">
        <ele>478.3</ele>
        <time>2022-06-11T09:50:41Z</time>
      </trkpt>
      <trkpt lat="44.06461" lon="7.11636">
        <ele>478.3</ele>
        <time>2022-06-11T09:50:42Z</time>
      </trkpt>
      <trkpt lat="44.06464" lon="7.11628">
        <ele>477.6</ele>
        <time>2022-06-11T09:50:43Z</time>
      </trkpt>
      <trkpt lat="44.06468" lon="7.11621">
        <ele>477.9</ele>
        <time>2022-06-11T09:50:44Z</time>
      </trkpt>
      <trkpt lat="44.06471" lon="7.11614">
        <ele>478.2</ele>
        <time>2022-06-11T09:50:45Z</time>
      </trkpt>
      <trkpt lat="44.06475" lon="7.11608">
        <ele>478.8</ele>
        <time>2022-06-11T09:50:46Z</time>
      </trkpt>
      <trkpt lat="44.06478" lon="7.11601">
        <ele>479</ele>
        <time>2022-06-11T09:50:47Z</time>
      </trkpt>
      <trkpt lat="44.0648" lon="7.11593">
        <ele>478.5</ele>
        <time>2022-06-11T09:50:48Z</time>
      </trkpt>
      <trkpt lat="44.06482" lon="7.11585">
        <ele>477.8</ele>
        <time>2022-06-11T09:50:49Z</time>
      </trkpt>
      <trkpt lat="44.06484" lon="7.11577">
        <ele>477.9</ele>
        <time>2022-06-11T09:50:50Z</time>
      </trkpt>
      <trkpt lat="44.06486" lon="7.1157">
        <ele>478.7</ele>
        <time>2022-06-11T09:50:51Z</time>
      </trkpt>
      <trkpt lat="44.06488" lon="7.11562">
        <ele>479.8</ele>
        <time>2022-06-11T09:50:52Z</time>
      </trkpt>
      <trkpt lat="44.06492" lon="7.11555">
        <ele>481.8</ele>
        <time>2022-06-11T09:50:53Z</time>
      </trkpt>
      <trkpt lat="44.06495" lon="7.11548">
        <ele>482.8</ele>
        <time>2022-06-11T09:50:54Z</time>
      </trkpt>
      <trkpt lat="44.06498" lon="7.11541">
        <ele>483</ele>
        <time>2022-06-11T09:50:55Z</time>
      </trkpt>
      <trkpt lat="44.06501" lon="7.11533">
        <ele>482.1</ele>
        <time>2022-06-11T09:50:56Z</time>
      </trkpt>
      <trkpt lat="44.06503" lon="7.11526">
        <ele>481.8</ele>
        <time>2022-06-11T09:50:57Z</time>
      </trkpt>
      <trkpt lat="44.06505" lon="7.11518">
        <ele>481</ele>
        <time>2022-06-11T09:50:58Z</time>
      </trkpt>
      <trkpt lat="44.06507" lon="7.1151">
        <ele>479.8</ele>
        <time>2022-06-11T09:50:59Z</time>
      </trkpt>
      <trkpt lat="44.06508" lon="7.11502">
        <ele>478.5</ele>
        <time>2022-06-11T09:51:00Z</time>
      </trkpt>
      <trkpt lat="44.0651" lon="7.11494">
        <ele>477.2</ele>
        <time>2022-06-11T09:51:01Z</time>
      </trkpt>
      <trkpt lat="44.06512" lon="7.11486">
        <ele>475.9</ele>
        <time>2022-06-11T09:51:02Z</time>
      </trkpt>
      <trkpt lat="44.06514" lon="7.11479">
        <ele>474.4</ele>
        <time>2022-06-11T09:51:03Z</time>
      </trkpt>
      <trkpt lat="44.06516" lon="7.11472">
        <ele>473.3</ele>
        <time>2022-06-11T09:51:04Z</time>
      </trkpt>
      <trkpt lat="44.06519" lon="7.11465">
        <ele>472.8</ele>
        <time>2022-06-11T09:51:05Z</time>
      </trkpt>
      <trkpt lat="44.06524" lon="7.1146">
        <ele>472.8</ele>
        <time>2022-06-11T09:51:06Z</time>
      </trkpt>
      <trkpt lat="44.06529" lon="7.11457">
        <ele>472.9</ele>
        <time>2022-06-11T09:51:07Z</time>
      </trkpt>
      <trkpt lat="44.06535" lon="7.11455">
        <ele>471.4</ele>
        <time>2022-06-11T09:51:08Z</time>
      </trkpt>
      <trkpt lat="44.0654" lon="7.11455">
        <ele>470.7</ele>
        <time>2022-06-11T09:51:09Z</time>
      </trkpt>
      <trkpt lat="44.06546" lon="7.11456">
        <ele>470.6</ele>
        <time>2022-06-11T09:51:10Z</time>
      </trkpt>
      <trkpt lat="44.06552" lon="7.11457">
        <ele>470.8</ele>
        <time>2022-06-11T09:51:11Z</time>
      </trkpt>
      <trkpt lat="44.06558" lon="7.11458">
        <ele>471.5</ele>
        <time>2022-06-11T09:51:12Z</time>
      </trkpt>
      <trkpt lat="44.06565" lon="7.1146">
        <ele>472.4</ele>
        <time>2022-06-11T09:51:13Z</time>
      </trkpt>
      <trkpt lat="44.0657" lon="7.11462">
        <ele>473.6</ele>
        <time>2022-06-11T09:51:14Z</time>
      </trkpt>
      <trkpt lat="44.06576" lon="7.11463">
        <ele>474.4</ele>
        <time>2022-06-11T09:51:15Z</time>
      </trkpt>
      <trkpt lat="44.06582" lon="7.11465">
        <ele>475.3</ele>
        <time>2022-06-11T09:51:16Z</time>
      </trkpt>
      <trkpt lat="44.06588" lon="7.11466">
        <ele>475.3</ele>
        <time>2022-06-11T09:51:17Z</time>
      </trkpt>
      <trkpt lat="44.06594" lon="7.11469">
        <ele>475.6</ele>
        <time>2022-06-11T09:51:18Z</time>
      </trkpt>
      <trkpt lat="44.06599" lon="7.11471">
        <ele>476.1</ele>
        <time>2022-06-11T09:51:19Z</time>
      </trkpt>
      <trkpt lat="44.06605" lon="7.11474">
        <ele>477.3</ele>
        <time>2022-06-11T09:51:20Z</time>
      </trkpt>
      <trkpt lat="44.0661" lon="7.11478">
        <ele>479.4</ele>
        <time>2022-06-11T09:51:21Z</time>
      </trkpt>
      <trkpt lat="44.06615" lon="7.11483">
        <ele>482.5</ele>
        <time>2022-06-11T09:51:22Z</time>
      </trkpt>
      <trkpt lat="44.0662" lon="7.11488">
        <ele>485.7</ele>
        <time>2022-06-11T09:51:23Z</time>
      </trkpt>
      <trkpt lat="44.06624" lon="7.11492">
        <ele>488</ele>
        <time>2022-06-11T09:51:24Z</time>
      </trkpt>
      <trkpt lat="44.06628" lon="7.11496">
        <ele>490</ele>
        <time>2022-06-11T09:51:25Z</time>
      </trkpt>
      <trkpt lat="44.06633" lon="7.115">
        <ele>490.6</ele>
        <time>2022-06-11T09:51:26Z</time>
      </trkpt>
      <trkpt lat="44.06638" lon="7.11501">
        <ele>489.4</ele>
        <time>2022-06-11T09:51:27Z</time>
      </trkpt>
      <trkpt lat="44.06643" lon="7.11502">
        <ele>489.6</ele>
        <time>2022-06-11T09:51:28Z</time>
      </trkpt>
      <trkpt lat="44.06648" lon="7.115">
        <ele>488.6</ele>
        <time>2022-06-11T09:51:29Z</time>
      </trkpt>
      <trkpt lat="44.06653" lon="7.11496">
        <ele>485.7</ele>
        <time>2022-06-11T09:51:30Z</time>
      </trkpt>
      <trkpt lat="44.06658" lon="7.11491">
        <ele>482.3</ele>
        <time>2022-06-11T09:51:31Z</time>
      </trkpt>
      <trkpt lat="44.06663" lon="7.11487">
        <ele>479.3</ele>
        <time>2022-06-11T09:51:32Z</time>
      </trkpt>
      <trkpt lat="44.06668" lon="7.11484">
        <ele>477.7</ele>
        <time>2022-06-11T09:51:33Z</time>
      </trkpt>
      <trkpt lat="44.06674" lon="7.11482">
        <ele>476.8</ele>
        <time>2022-06-11T09:51:34Z</time>
      </trkpt>
      <trkpt lat="44.0668" lon="7.11483">
        <ele>477.7</ele>
        <time>2022-06-11T09:51:35Z</time>
      </trkpt>
      <trkpt lat="44.06686" lon="7.11484">
        <ele>479.1</ele>
        <time>2022-06-11T09:51:36Z</time>
      </trkpt>
      <trkpt lat="44.06691" lon="7.11484">
        <ele>479.9</ele>
        <time>2022-06-11T09:51:37Z</time>
      </trkpt>
      <trkpt lat="44.06697" lon="7.11484">
        <ele>480.8</ele>
        <time>2022-06-11T09:51:38Z</time>
      </trkpt>
      <trkpt lat="44.06702" lon="7.11484">
        <ele>482.5</ele>
        <time>2022-06-11T09:51:39Z</time>
      </trkpt>
      <trkpt lat="44.06708" lon="7.11483">
        <ele>483.4</ele>
        <time>2022-06-11T09:51:40Z</time>
      </trkpt>
      <trkpt lat="44.06713" lon="7.11481">
        <ele>483.9</ele>
        <time>2022-06-11T09:51:41Z</time>
      </trkpt>
      <trkpt lat="44.06719" lon="7.11479">
        <ele>483.9</ele>
        <time>2022-06-11T09:51:42Z</time>
      </trkpt>
      <trkpt lat="44.06724" lon="7.11476">
        <ele>483.5</ele>
        <time>2022-06-11T09:51:43Z</time>
      </trkpt>
      <trkpt lat="44.06729" lon="7.11473">
        <ele>482.7</ele>
        <time>2022-06-11T09:51:44Z</time>
      </trkpt>
      <trkpt lat="44.06735" lon="7.11469">
        <ele>482.1</ele>
        <time>2022-06-11T09:51:45Z</time>
      </trkpt>
      <trkpt lat="44.0674" lon="7.11466">
        <ele>481.6</ele>
        <time>2022-06-11T09:51:46Z</time>
      </trkpt>
      <trkpt lat="44.06745" lon="7.11463">
        <ele>480.9</ele>
        <time>2022-06-11T09:51:47Z</time>
      </trkpt>
      <trkpt lat="44.0675" lon="7.1146">
        <ele>480.4</ele>
        <time>2022-06-11T09:51:48Z</time>
      </trkpt>
      <trkpt lat="44.06755" lon="7.11457">
        <ele>480.8</ele>
        <time>2022-06-11T09:51:49Z</time>
      </trkpt>
      <trkpt lat="44.06761" lon="7.11455">
        <ele>481.3</ele>
        <time>2022-06-11T09:51:50Z</time>
      </trkpt>
      <trkpt lat="44.06766" lon="7.11451">
        <ele>481.1</ele>
        <time>2022-06-11T09:51:51Z</time>
      </trkpt>
      <trkpt lat="44.06771" lon="7.11448">
        <ele>480.7</ele>
        <time>2022-06-11T09:51:52Z</time>
      </trkpt>
      <trkpt lat="44.06776" lon="7.11446">
        <ele>480.4</ele>
        <time>2022-06-11T09:51:53Z</time>
      </trkpt>
      <trkpt lat="44.06781" lon="7.11443">
        <ele>480.6</ele>
        <time>2022-06-11T09:51:54Z</time>
      </trkpt>
      <trkpt lat="44.06786" lon="7.1144">
        <ele>481.1</ele>
        <time>2022-06-11T09:51:55Z</time>
      </trkpt>
      <trkpt lat="44.0679" lon="7.11437">
        <ele>481.4</ele>
        <time>2022-06-11T09:51:56Z</time>
      </trkpt>
      <trkpt lat="44.06795" lon="7.11434">
        <ele>482</ele>
        <time>2022-06-11T09:51:57Z</time>
      </trkpt>
      <trkpt lat="44.068" lon="7.11432">
        <ele>482.5</ele>
        <time>2022-06-11T09:51:58Z</time>
      </trkpt>
      <trkpt lat="44.06804" lon="7.11428">
        <ele>482.9</ele>
        <time>2022-06-11T09:51:59Z</time>
      </trkpt>
      <trkpt lat="44.06808" lon="7.11425">
        <ele>482.9</ele>
        <time>2022-06-11T09:52:00Z</time>
      </trkpt>
      <trkpt lat="44.06812" lon="7.1142">
        <ele>482.5</ele>
        <time>2022-06-11T09:52:01Z</time>
      </trkpt>
      <trkpt lat="44.06816" lon="7.11415">
        <ele>482</ele>
        <time>2022-06-11T09:52:02Z</time>
      </trkpt>
      <trkpt lat="44.06819" lon="7.1141">
        <ele>482</ele>
        <time>2022-06-11T09:52:03Z</time>
      </trkpt>
      <trkpt lat="44.06822" lon="7.11404">
        <ele>481.9</ele>
        <time>2022-06-11T09:52:04Z</time>
      </trkpt>
      <trkpt lat="44.06825" lon="7.11398">
        <ele>481.9</ele>
        <time>2022-06-11T09:52:05Z</time>
      </trkpt>
      <trkpt lat="44.06827" lon="7.11392">
        <ele>481.7</ele>
        <time>2022-06-11T09:52:06Z</time>
      </trkpt>
      <trkpt lat="44.06828" lon="7.11385">
        <ele>480.9</ele>
        <time>2022-06-11T09:52:07Z</time>
      </trkpt>
      <trkpt lat="44.0683" lon="7.11378">
        <ele>480.3</ele>
        <time>2022-06-11T09:52:08Z</time>
      </trkpt>
      <trkpt lat="44.06832" lon="7.11372">
        <ele>479.7</ele>
        <time>2022-06-11T09:52:09Z</time>
      </trkpt>
      <trkpt lat="44.06834" lon="7.11365">
        <ele>479.2</ele>
        <time>2022-06-11T09:52:10Z</time>
      </trkpt>
      <trkpt lat="44.06836" lon="7.11358">
        <ele>479.7</ele>
        <time>2022-06-11T09:52:11Z</time>
      </trkpt>
      <trkpt lat="44.06837" lon="7.11352">
        <ele>480.1</ele>
        <time>2022-06-11T09:52:12Z</time>
      </trkpt>
      <trkpt lat="44.06839" lon="7.11345">
        <ele>480.7</ele>
        <time>2022-06-11T09:52:13Z</time>
      </trkpt>
      <trkpt lat="44.06841" lon="7.11339">
        <ele>481.4</ele>
        <time>2022-06-11T09:52:14Z</time>
      </trkpt>
      <trkpt lat="44.06843" lon="7.11332">
        <ele>481.7</ele>
        <time>2022-06-11T09:52:15Z</time>
      </trkpt>
      <trkpt lat="44.06845" lon="7.11326">
        <ele>482.2</ele>
        <time>2022-06-11T09:52:16Z</time>
      </trkpt>
      <trkpt lat="44.06847" lon="7.11319">
        <ele>482.2</ele>
        <time>2022-06-11T09:52:17Z</time>
      </trkpt>
      <trkpt lat="44.06849" lon="7.11312">
        <ele>482.1</ele>
        <time>2022-06-11T09:52:18Z</time>
      </trkpt>
      <trkpt lat="44.06851" lon="7.11306">
        <ele>482.2</ele>
        <time>2022-06-11T09:52:19Z</time>
      </trkpt>
      <trkpt lat="44.06853" lon="7.113">
        <ele>482.1</ele>
        <time>2022-06-11T09:52:20Z</time>
      </trkpt>
      <trkpt lat="44.06855" lon="7.11294">
        <ele>481.4</ele>
        <time>2022-06-11T09:52:21Z</time>
      </trkpt>
      <trkpt lat="44.06857" lon="7.11287">
        <ele>480.8</ele>
        <time>2022-06-11T09:52:22Z</time>
      </trkpt>
      <trkpt lat="44.06859" lon="7.1128">
        <ele>480.1</ele>
        <time>2022-06-11T09:52:23Z</time>
      </trkpt>
      <trkpt lat="44.0686" lon="7.11273">
        <ele>480</ele>
        <time>2022-06-11T09:52:24Z</time>
      </trkpt>
      <trkpt lat="44.06862" lon="7.11266">
        <ele>480.2</ele>
        <time>2022-06-11T09:52:25Z</time>
      </trkpt>
      <trkpt lat="44.06863" lon="7.11258">
        <ele>480.5</ele>
        <time>2022-06-11T09:52:26Z</time>
      </trkpt>
      <trkpt lat="44.06864" lon="7.1125">
        <ele>480.8</ele>
        <time>2022-06-11T09:52:27Z</time>
      </trkpt>
      <trkpt lat="44.06865" lon="7.11243">
        <ele>481</ele>
        <time>2022-06-11T09:52:28Z</time>
      </trkpt>
      <trkpt lat="44.06866" lon="7.11235">
        <ele>481</ele>
        <time>2022-06-11T09:52:29Z</time>
      </trkpt>
      <trkpt lat="44.06867" lon="7.11228">
        <ele>481.4</ele>
        <time>2022-06-11T09:52:30Z</time>
      </trkpt>
      <trkpt lat="44.06867" lon="7.11221">
        <ele>481.2</ele>
        <time>2022-06-11T09:52:31Z</time>
      </trkpt>
      <trkpt lat="44.06868" lon="7.11214">
        <ele>480.8</ele>
        <time>2022-06-11T09:52:32Z</time>
      </trkpt>
      <trkpt lat="44.0687" lon="7.11207">
        <ele>480.9</ele>
        <time>2022-06-11T09:52:33Z</time>
      </trkpt>
      <trkpt lat="44.06871" lon="7.112">
        <ele>481</ele>
        <time>2022-06-11T09:52:34Z</time>
      </trkpt>
      <trkpt lat="44.06874" lon="7.11193">
        <ele>481.7</ele>
        <time>2022-06-11T09:52:35Z</time>
      </trkpt>
      <trkpt lat="44.06878" lon="7.11187">
        <ele>481.5</ele>
        <time>2022-06-11T09:52:36Z</time>
      </trkpt>
      <trkpt lat="44.06882" lon="7.11181">
        <ele>481.9</ele>
        <time>2022-06-11T09:52:37Z</time>
      </trkpt>
      <trkpt lat="44.06887" lon="7.11176">
        <ele>482.2</ele>
        <time>2022-06-11T09:52:38Z</time>
      </trkpt>
      <trkpt lat="44.06891" lon="7.11172">
        <ele>482.8</ele>
        <time>2022-06-11T09:52:39Z</time>
      </trkpt>
      <trkpt lat="44.06897" lon="7.11168">
        <ele>484.3</ele>
        <time>2022-06-11T09:52:40Z</time>
      </trkpt>
      <trkpt lat="44.06902" lon="7.11164">
        <ele>485.7</ele>
        <time>2022-06-11T09:52:41Z</time>
      </trkpt>
      <trkpt lat="44.06908" lon="7.11161">
        <ele>486.6</ele>
        <time>2022-06-11T09:52:42Z</time>
      </trkpt>
      <trkpt lat="44.06913" lon="7.11157">
        <ele>487</ele>
        <time>2022-06-11T09:52:43Z</time>
      </trkpt>
      <trkpt lat="44.06918" lon="7.11154">
        <ele>487.1</ele>
        <time>2022-06-11T09:52:44Z</time>
      </trkpt>
      <trkpt lat="44.06924" lon="7.1115">
        <ele>488.5</ele>
        <time>2022-06-11T09:52:45Z</time>
      </trkpt>
      <trkpt lat="44.06929" lon="7.11147">
        <ele>489.5</ele>
        <time>2022-06-11T09:52:46Z</time>
      </trkpt>
      <trkpt lat="44.06934" lon="7.11143">
        <ele>489.7</ele>
        <time>2022-06-11T09:52:47Z</time>
      </trkpt>
      <trkpt lat="44.06938" lon="7.11139">
        <ele>490</ele>
        <time>2022-06-11T09:52:48Z</time>
      </trkpt>
      <trkpt lat="44.06943" lon="7.11134">
        <ele>489.9</ele>
        <time>2022-06-11T09:52:49Z</time>
      </trkpt>
      <trkpt lat="44.06947" lon="7.11128">
        <ele>489</ele>
        <time>2022-06-11T09:52:50Z</time>
      </trkpt>
      <trkpt lat="44.06951" lon="7.11122">
        <ele>487.7</ele>
        <time>2022-06-11T09:52:51Z</time>
      </trkpt>
      <trkpt lat="44.06954" lon="7.11116">
        <ele>485.9</ele>
        <time>2022-06-11T09:52:52Z</time>
      </trkpt>
      <trkpt lat="44.06958" lon="7.11109">
        <ele>484.4</ele>
        <time>2022-06-11T09:52:53Z</time>
      </trkpt>
      <trkpt lat="44.06962" lon="7.11104">
        <ele>483.1</ele>
        <time>2022-06-11T09:52:54Z</time>
      </trkpt>
      <trkpt lat="44.06966" lon="7.11098">
        <ele>481.3</ele>
        <time>2022-06-11T09:52:55Z</time>
      </trkpt>
      <trkpt lat="44.06969" lon="7.11091">
        <ele>478.8</ele>
        <time>2022-06-11T09:52:56Z</time>
      </trkpt>
      <trkpt lat="44.06973" lon="7.11086">
        <ele>476.5</ele>
        <time>2022-06-11T09:52:57Z</time>
      </trkpt>
      <trkpt lat="44.06977" lon="7.1108">
        <ele>474.2</ele>
        <time>2022-06-11T09:52:58Z</time>
      </trkpt>
      <trkpt lat="44.06982" lon="7.11075">
        <ele>472.9</ele>
        <time>2022-06-11T09:52:59Z</time>
      </trkpt>
      <trkpt lat="44.06987" lon="7.11071">
        <ele>472.1</ele>
        <time>2022-06-11T09:53:00Z</time>
      </trkpt>
      <trkpt lat="44.06992" lon="7.11067">
        <ele>471</ele>
        <time>2022-06-11T09:53:01Z</time>
      </trkpt>
      <trkpt lat="44.06997" lon="7.11063">
        <ele>469.2</ele>
        <time>2022-06-11T09:53:02Z</time>
      </trkpt>
      <trkpt lat="44.07003" lon="7.1106">
        <ele>468.5</ele>
        <time>2022-06-11T09:53:03Z</time>
      </trkpt>
      <trkpt lat="44.07008" lon="7.11056">
        <ele>467.8</ele>
        <time>2022-06-11T09:53:04Z</time>
      </trkpt>
      <trkpt lat="44.07014" lon="7.11052">
        <ele>468.4</ele>
        <time>2022-06-11T09:53:05Z</time>
      </trkpt>
      <trkpt lat="44.07019" lon="7.11048">
        <ele>468.8</ele>
        <time>2022-06-11T09:53:06Z</time>
      </trkpt>
      <trkpt lat="44.07024" lon="7.11045">
        <ele>469.3</ele>
        <time>2022-06-11T09:53:07Z</time>
      </trkpt>
      <trkpt lat="44.07029" lon="7.11041">
        <ele>469.8</ele>
        <time>2022-06-11T09:53:08Z</time>
      </trkpt>
      <trkpt lat="44.07034" lon="7.11037">
        <ele>471.2</ele>
        <time>2022-06-11T09:53:09Z</time>
      </trkpt>
      <trkpt lat="44.0704" lon="7.11033">
        <ele>472.3</ele>
        <time>2022-06-11T09:53:10Z</time>
      </trkpt>
      <trkpt lat="44.07045" lon="7.1103">
        <ele>473.9</ele>
        <time>2022-06-11T09:53:11Z</time>
      </trkpt>
      <trkpt lat="44.07051" lon="7.11026">
        <ele>475.5</ele>
        <time>2022-06-11T09:53:12Z</time>
      </trkpt>
      <trkpt lat="44.07056" lon="7.11022">
        <ele>476.6</ele>
        <time>2022-06-11T09:53:13Z</time>
      </trkpt>
      <trkpt lat="44.07061" lon="7.11018">
        <ele>477.6</ele>
        <time>2022-06-11T09:53:14Z</time>
      </trkpt>
      <trkpt lat="44.07066" lon="7.11014">
        <ele>478.1</ele>
        <time>2022-06-11T09:53:15Z</time>
      </trkpt>
      <trkpt lat="44.07071" lon="7.11009">
        <ele>478.3</ele>
        <time>2022-06-11T09:53:16Z</time>
      </trkpt>
      <trkpt lat="44.07076" lon="7.11005">
        <ele>478.8</ele>
        <time>2022-06-11T09:53:17Z</time>
      </trkpt>
      <trkpt lat="44.07081" lon="7.11">
        <ele>478.7</ele>
        <time>2022-06-11T09:53:18Z</time>
      </trkpt>
      <trkpt lat="44.07085" lon="7.10996">
        <ele>478.9</ele>
        <time>2022-06-11T09:53:19Z</time>
      </trkpt>
      <trkpt lat="44.0709" lon="7.10991">
        <ele>479</ele>
        <time>2022-06-11T09:53:20Z</time>
      </trkpt>
      <trkpt lat="44.07095" lon="7.10986">
        <ele>479.1</ele>
        <time>2022-06-11T09:53:21Z</time>
      </trkpt>
      <trkpt lat="44.07099" lon="7.10982">
        <ele>479.3</ele>
        <time>2022-06-11T09:53:22Z</time>
      </trkpt>
      <trkpt lat="44.07104" lon="7.10977">
        <ele>479.2</ele>
        <time>2022-06-11T09:53:23Z</time>
      </trkpt>
      <trkpt lat="44.07109" lon="7.10973">
        <ele>479.4</ele>
        <time>2022-06-11T09:53:24Z</time>
      </trkpt>
      <trkpt lat="44.07114" lon="7.1097">
        <ele>479.5</ele>
        <time>2022-06-11T09:53:25Z</time>
      </trkpt>
      <trkpt lat="44.0712" lon="7.10968">
        <ele>479.6</ele>
        <time>2022-06-11T09:53:26Z</time>
      </trkpt>
      <trkpt lat="44.07125" lon="7.10965">
        <ele>479.5</ele>
        <time>2022-06-11T09:53:27Z</time>
      </trkpt>
      <trkpt lat="44.07131" lon="7.10963">
        <ele>480</ele>
        <time>2022-06-11T09:53:28Z</time>
      </trkpt>
      <trkpt lat="44.07137" lon="7.10962">
        <ele>480.6</ele>
        <time>2022-06-11T09:53:29Z</time>
      </trkpt>
      <trkpt lat="44.07143" lon="7.10961">
        <ele>480.4</ele>
        <time>2022-06-11T09:53:30Z</time>
      </trkpt>
      <trkpt lat="44.07149" lon="7.1096">
        <ele>479.8</ele>
        <time>2022-06-11T09:53:31Z</time>
      </trkpt>
      <trkpt lat="44.07155" lon="7.10961">
        <ele>479.6</ele>
        <time>2022-06-11T09:53:32Z</time>
      </trkpt>
      <trkpt lat="44.07161" lon="7.10961">
        <ele>479.2</ele>
        <time>2022-06-11T09:53:33Z</time>
      </trkpt>
      <trkpt lat="44.07167" lon="7.10962">
        <ele>479.2</ele>
        <time>2022-06-11T09:53:34Z</time>
      </trkpt>
      <trkpt lat="44.07173" lon="7.10963">
        <ele>479.2</ele>
        <time>2022-06-11T09:53:35Z</time>
      </trkpt>
      <trkpt lat="44.0718" lon="7.10963">
        <ele>479.2</ele>
        <time>2022-06-11T09:53:36Z</time>
      </trkpt>
      <trkpt lat="44.07186" lon="7.10964">
        <ele>479.1</ele>
        <time>2022-06-11T09:53:37Z</time>
      </trkpt>
      <trkpt lat="44.07192" lon="7.10965">
        <ele>478.9</ele>
        <time>2022-06-11T09:53:38Z</time>
      </trkpt>
      <trkpt lat="44.07198" lon="7.10965">
        <ele>478.8</ele>
        <time>2022-06-11T09:53:39Z</time>
      </trkpt>
      <trkpt lat="44.07204" lon="7.10966">
        <ele>478.8</ele>
        <time>2022-06-11T09:53:40Z</time>
      </trkpt>
      <trkpt lat="44.0721" lon="7.10967">
        <ele>478.8</ele>
        <time>2022-06-11T09:53:41Z</time>
      </trkpt>
      <trkpt lat="44.07216" lon="7.10967">
        <ele>478.7</ele>
        <time>2022-06-11T09:53:42Z</time>
      </trkpt>
      <trkpt lat="44.07221" lon="7.10968">
        <ele>478.7</ele>
        <time>2022-06-11T09:53:43Z</time>
      </trkpt>
      <trkpt lat="44.07227" lon="7.10969">
        <ele>478.1</ele>
        <time>2022-06-11T09:53:44Z</time>
      </trkpt>
      <trkpt lat="44.07234" lon="7.1097">
        <ele>477.2</ele>
        <time>2022-06-11T09:53:45Z</time>
      </trkpt>
      <trkpt lat="44.0724" lon="7.10971">
        <ele>476.4</ele>
        <time>2022-06-11T09:53:46Z</time>
      </trkpt>
      <trkpt lat="44.07246" lon="7.10971">
        <ele>475.5</ele>
        <time>2022-06-11T09:53:47Z</time>
      </trkpt>
      <trkpt lat="44.07252" lon="7.10971">
        <ele>474.9</ele>
        <time>2022-06-11T09:53:48Z</time>
      </trkpt>
      <trkpt lat="44.07258" lon="7.10972">
        <ele>475.1</ele>
        <time>2022-06-11T09:53:49Z</time>
      </trkpt>
      <trkpt lat="44.07264" lon="7.10972">
        <ele>475.4</ele>
        <time>2022-06-11T09:53:50Z</time>
      </trkpt>
      <trkpt lat="44.0727" lon="7.10972">
        <ele>475.7</ele>
        <time>2022-06-11T09:53:51Z</time>
      </trkpt>
      <trkpt lat="44.07276" lon="7.10972">
        <ele>475.9</ele>
        <time>2022-06-11T09:53:52Z</time>
      </trkpt>
      <trkpt lat="44.07282" lon="7.10972">
        <ele>476.5</ele>
        <time>2022-06-11T09:53:53Z</time>
      </trkpt>
      <trkpt lat="44.07288" lon="7.10972">
        <ele>477.3</ele>
        <time>2022-06-11T09:53:54Z</time>
      </trkpt>
      <trkpt lat="44.07294" lon="7.10971">
        <ele>478.1</ele>
        <time>2022-06-11T09:53:55Z</time>
      </trkpt>
      <trkpt lat="44.073" lon="7.10971">
        <ele>478.9</ele>
        <time>2022-06-11T09:53:56Z</time>
      </trkpt>
      <trkpt lat="44.07305" lon="7.10971">
        <ele>479.7</ele>
        <time>2022-06-11T09:53:57Z</time>
      </trkpt>
      <trkpt lat="44.07311" lon="7.1097">
        <ele>479.8</ele>
        <time>2022-06-11T09:53:58Z</time>
      </trkpt>
      <trkpt lat="44.07317" lon="7.10969">
        <ele>479.9</ele>
        <time>2022-06-11T09:53:59Z</time>
      </trkpt>
      <trkpt lat="44.07323" lon="7.10967">
        <ele>479.9</ele>
        <time>2022-06-11T09:54:00Z</time>
      </trkpt>
      <trkpt lat="44.07328" lon="7.10966">
        <ele>480.1</ele>
        <time>2022-06-11T09:54:01Z</time>
      </trkpt>
      <trkpt lat="44.07334" lon="7.10965">
        <ele>480.2</ele>
        <time>2022-06-11T09:54:02Z</time>
      </trkpt>
      <trkpt lat="44.07339" lon="7.10963">
        <ele>480.7</ele>
        <time>2022-06-11T09:54:03Z</time>
      </trkpt>
      <trkpt lat="44.07345" lon="7.10961">
        <ele>481.2</ele>
        <time>2022-06-11T09:54:04Z</time>
      </trkpt>
      <trkpt lat="44.0735" lon="7.10958">
        <ele>481.6</ele>
        <time>2022-06-11T09:54:05Z</time>
      </trkpt>
      <trkpt lat="44.07356" lon="7.10956">
        <ele>482</ele>
        <time>2022-06-11T09:54:06Z</time>
      </trkpt>
      <trkpt lat="44.07361" lon="7.10954">
        <ele>482.3</ele>
        <time>2022-06-11T09:54:07Z</time>
      </trkpt>
      <trkpt lat="44.07366" lon="7.10951">
        <ele>483.6</ele>
        <time>2022-06-11T09:54:08Z</time>
      </trkpt>
      <trkpt lat="44.07372" lon="7.10949">
        <ele>484.8</ele>
        <time>2022-06-11T09:54:09Z</time>
      </trkpt>
      <trkpt lat="44.07377" lon="7.10946">
        <ele>485.9</ele>
        <time>2022-06-11T09:54:10Z</time>
      </trkpt>
      <trkpt lat="44.07383" lon="7.10943">
        <ele>486.6</ele>
        <time>2022-06-11T09:54:11Z</time>
      </trkpt>
      <trkpt lat="44.07388" lon="7.10941">
        <ele>487.1</ele>
        <time>2022-06-11T09:54:12Z</time>
      </trkpt>
      <trkpt lat="44.07393" lon="7.10938">
        <ele>487.4</ele>
        <time>2022-06-11T09:54:13Z</time>
      </trkpt>
      <trkpt lat="44.07399" lon="7.10935">
        <ele>487.5</ele>
        <time>2022-06-11T09:54:14Z</time>
      </trkpt>
      <trkpt lat="44.07404" lon="7.10933">
        <ele>487.7</ele>
        <time>2022-06-11T09:54:15Z</time>
      </trkpt>
      <trkpt lat="44.07409" lon="7.10931">
        <ele>487.7</ele>
        <time>2022-06-11T09:54:16Z</time>
      </trkpt>
      <trkpt lat="44.07415" lon="7.10928">
        <ele>487.5</ele>
        <time>2022-06-11T09:54:17Z</time>
      </trkpt>
      <trkpt lat="44.0742" lon="7.10926">
        <ele>487.6</ele>
        <time>2022-06-11T09:54:18Z</time>
      </trkpt>
      <trkpt lat="44.07425" lon="7.10923">
        <ele>487.3</ele>
        <time>2022-06-11T09:54:19Z</time>
      </trkpt>
      <trkpt lat="44.07431" lon="7.1092">
        <ele>487.3</ele>
        <time>2022-06-11T09:54:20Z</time>
      </trkpt>
      <trkpt lat="44.07436" lon="7.10917">
        <ele>487.1</ele>
        <time>2022-06-11T09:54:21Z</time>
      </trkpt>
      <trkpt lat="44.07441" lon="7.10914">
        <ele>486.7</ele>
        <time>2022-06-11T09:54:22Z</time>
      </trkpt>
      <trkpt lat="44.07446" lon="7.10911">
        <ele>486.6</ele>
        <time>2022-06-11T09:54:23Z</time>
      </trkpt>
      <trkpt lat="44.07451" lon="7.10908">
        <ele>486.9</ele>
        <time>2022-06-11T09:54:24Z</time>
      </trkpt>
      <trkpt lat="44.07456" lon="7.10904">
        <ele>487.1</ele>
        <time>2022-06-11T09:54:25Z</time>
      </trkpt>
      <trkpt lat="44.07461" lon="7.109">
        <ele>487</ele>
        <time>2022-06-11T09:54:26Z</time>
      </trkpt>
      <trkpt lat="44.07466" lon="7.10896">
        <ele>486.8</ele>
        <time>2022-06-11T09:54:27Z</time>
      </trkpt>
      <trkpt lat="44.0747" lon="7.10891">
        <ele>486.3</ele>
        <time>2022-06-11T09:54:28Z</time>
      </trkpt>
      <trkpt lat="44.07475" lon="7.10886">
        <ele>485.7</ele>
        <time>2022-06-11T09:54:29Z</time>
      </trkpt>
      <trkpt lat="44.07479" lon="7.10881">
        <ele>485.2</ele>
        <time>2022-06-11T09:54:30Z</time>
      </trkpt>
      <trkpt lat="44.07484" lon="7.10876">
        <ele>484.6</ele>
        <time>2022-06-11T09:54:31Z</time>
      </trkpt>
      <trkpt lat="44.07489" lon="7.1087">
        <ele>484</ele>
        <time>2022-06-11T09:54:32Z</time>
      </trkpt>
      <trkpt lat="44.07493" lon="7.10865">
        <ele>483.5</ele>
        <time>2022-06-11T09:54:33Z</time>
      </trkpt>
      <trkpt lat="44.07499" lon="7.1086">
        <ele>483.5</ele>
        <time>2022-06-11T09:54:34Z</time>
      </trkpt>
      <trkpt lat="44.07504" lon="7.10856">
        <ele>483.9</ele>
        <time>2022-06-11T09:54:35Z</time>
      </trkpt>
      <trkpt lat="44.07509" lon="7.10852">
        <ele>484.4</ele>
        <time>2022-06-11T09:54:36Z</time>
      </trkpt>
      <trkpt lat="44.07515" lon="7.10848">
        <ele>484.6</ele>
        <time>2022-06-11T09:54:37Z</time>
      </trkpt>
      <trkpt lat="44.0752" lon="7.10843">
        <ele>484.5</ele>
        <time>2022-06-11T09:54:38Z</time>
      </trkpt>
      <trkpt lat="44.07524" lon="7.10839">
        <ele>484.2</ele>
        <time>2022-06-11T09:54:39Z</time>
      </trkpt>
      <trkpt lat="44.07529" lon="7.10834">
        <ele>483.8</ele>
        <time>2022-06-11T09:54:40Z</time>
      </trkpt>
      <trkpt lat="44.07534" lon="7.10829">
        <ele>483.1</ele>
        <time>2022-06-11T09:54:41Z</time>
      </trkpt>
      <trkpt lat="44.07539" lon="7.10824">
        <ele>482.5</ele>
        <time>2022-06-11T09:54:42Z</time>
      </trkpt>
      <trkpt lat="44.07544" lon="7.10819">
        <ele>482.1</ele>
        <time>2022-06-11T09:54:43Z</time>
      </trkpt>
      <trkpt lat="44.0755" lon="7.10815">
        <ele>482.4</ele>
        <time>2022-06-11T09:54:44Z</time>
      </trkpt>
      <trkpt lat="44.07555" lon="7.10812">
        <ele>482.7</ele>
        <time>2022-06-11T09:54:45Z</time>
      </trkpt>
      <trkpt lat="44.07561" lon="7.10808">
        <ele>483.1</ele>
        <time>2022-06-11T09:54:46Z</time>
      </trkpt>
      <trkpt lat="44.07567" lon="7.10805">
        <ele>483.7</ele>
        <time>2022-06-11T09:54:47Z</time>
      </trkpt>
      <trkpt lat="44.07573" lon="7.10802">
        <ele>484.8</ele>
        <time>2022-06-11T09:54:48Z</time>
      </trkpt>
      <trkpt lat="44.07578" lon="7.10798">
        <ele>485.6</ele>
        <time>2022-06-11T09:54:49Z</time>
      </trkpt>
      <trkpt lat="44.07584" lon="7.10794">
        <ele>486.1</ele>
        <time>2022-06-11T09:54:50Z</time>
      </trkpt>
      <trkpt lat="44.07589" lon="7.10789">
        <ele>486.9</ele>
        <time>2022-06-11T09:54:51Z</time>
      </trkpt>
      <trkpt lat="44.07594" lon="7.10784">
        <ele>487.1</ele>
        <time>2022-06-11T09:54:52Z</time>
      </trkpt>
      <trkpt lat="44.07599" lon="7.10779">
        <ele>487</ele>
        <time>2022-06-11T09:54:53Z</time>
      </trkpt>
      <trkpt lat="44.07604" lon="7.10773">
        <ele>486.9</ele>
        <time>2022-06-11T09:54:54Z</time>
      </trkpt>
      <trkpt lat="44.07609" lon="7.10767">
        <ele>486.7</ele>
        <time>2022-06-11T09:54:55Z</time>
      </trkpt>
      <trkpt lat="44.07614" lon="7.10761">
        <ele>486.7</ele>
        <time>2022-06-11T09:54:56Z</time>
      </trkpt>
      <trkpt lat="44.07618" lon="7.10755">
        <ele>486.2</ele>
        <time>2022-06-11T09:54:57Z</time>
      </trkpt>
      <trkpt lat="44.07623" lon="7.10749">
        <ele>485.7</ele>
        <time>2022-06-11T09:54:58Z</time>
      </trkpt>
      <trkpt lat="44.07627" lon="7.10742">
        <ele>485.4</ele>
        <time>2022-06-11T09:54:59Z</time>
      </trkpt>
      <trkpt lat="44.07631" lon="7.10736">
        <ele>485</ele>
        <time>2022-06-11T09:55:00Z</time>
      </trkpt>
      <trkpt lat="44.07635" lon="7.1073">
        <ele>484.4</ele>
        <time>2022-06-11T09:55:01Z</time>
      </trkpt>
      <trkpt lat="44.0764" lon="7.10723">
        <ele>483.8</ele>
        <time>2022-06-11T09:55:02Z</time>
      </trkpt>
      <trkpt lat="44.07644" lon="7.10716">
        <ele>482.9</ele>
        <time>2022-06-11T09:55:03Z</time>
      </trkpt>
      <trkpt lat="44.07648" lon="7.1071">
        <ele>482.3</ele>
        <time>2022-06-11T09:55:04Z</time>
      </trkpt>
      <trkpt lat="44.07652" lon="7.10703">
        <ele>481.7</ele>
        <time>2022-06-11T09:55:05Z</time>
      </trkpt>
      <trkpt lat="44.07655" lon="7.10696">
        <ele>480.7</ele>
        <time>2022-06-11T09:55:06Z</time>
      </trkpt>
      <trkpt lat="44.07659" lon="7.10689">
        <ele>480.8</ele>
        <time>2022-06-11T09:55:07Z</time>
      </trkpt>
      <trkpt lat="44.07663" lon="7.10683">
        <ele>481.2</ele>
        <time>2022-06-11T09:55:08Z</time>
      </trkpt>
      <trkpt lat="44.07668" lon="7.10677">
        <ele>481.7</ele>
        <time>2022-06-11T09:55:09Z</time>
      </trkpt>
      <trkpt lat="44.07672" lon="7.10671">
        <ele>482.6</ele>
        <time>2022-06-11T09:55:10Z</time>
      </trkpt>
      <trkpt lat="44.07677" lon="7.10665">
        <ele>483.3</ele>
        <time>2022-06-11T09:55:11Z</time>
      </trkpt>
      <trkpt lat="44.07681" lon="7.10658">
        <ele>483.9</ele>
        <time>2022-06-11T09:55:12Z</time>
      </trkpt>
      <trkpt lat="44.07685" lon="7.10652">
        <ele>484.5</ele>
        <time>2022-06-11T09:55:13Z</time>
      </trkpt>
      <trkpt lat="44.07689" lon="7.10646">
        <ele>484.7</ele>
        <time>2022-06-11T09:55:14Z</time>
      </trkpt>
      <trkpt lat="44.07692" lon="7.10638">
        <ele>484.2</ele>
        <time>2022-06-11T09:55:15Z</time>
      </trkpt>
      <trkpt lat="44.07696" lon="7.10631">
        <ele>484.3</ele>
        <time>2022-06-11T09:55:16Z</time>
      </trkpt>
      <trkpt lat="44.07699" lon="7.10624">
        <ele>484.2</ele>
        <time>2022-06-11T09:55:17Z</time>
      </trkpt>
      <trkpt lat="44.07702" lon="7.10616">
        <ele>483.8</ele>
        <time>2022-06-11T09:55:18Z</time>
      </trkpt>
      <trkpt lat="44.07705" lon="7.10609">
        <ele>483.4</ele>
        <time>2022-06-11T09:55:19Z</time>
      </trkpt>
      <trkpt lat="44.07708" lon="7.10601">
        <ele>482.9</ele>
        <time>2022-06-11T09:55:20Z</time>
      </trkpt>
      <trkpt lat="44.07711" lon="7.10594">
        <ele>482.4</ele>
        <time>2022-06-11T09:55:21Z</time>
      </trkpt>
      <trkpt lat="44.07714" lon="7.10586">
        <ele>481.6</ele>
        <time>2022-06-11T09:55:22Z</time>
      </trkpt>
      <trkpt lat="44.07717" lon="7.10578">
        <ele>480.9</ele>
        <time>2022-06-11T09:55:23Z</time>
      </trkpt>
      <trkpt lat="44.0772" lon="7.10571">
        <ele>479.9</ele>
        <time>2022-06-11T09:55:24Z</time>
      </trkpt>
      <trkpt lat="44.07723" lon="7.10563">
        <ele>478.8</ele>
        <time>2022-06-11T09:55:25Z</time>
      </trkpt>
      <trkpt lat="44.07727" lon="7.10556">
        <ele>478.3</ele>
        <time>2022-06-11T09:55:26Z</time>
      </trkpt>
      <trkpt lat="44.07731" lon="7.10548">
        <ele>478</ele>
        <time>2022-06-11T09:55:27Z</time>
      </trkpt>
      <trkpt lat="44.07734" lon="7.10541">
        <ele>477.4</ele>
        <time>2022-06-11T09:55:28Z</time>
      </trkpt>
      <trkpt lat="44.07738" lon="7.10534">
        <ele>476.9</ele>
        <time>2022-06-11T09:55:29Z</time>
      </trkpt>
      <trkpt lat="44.07743" lon="7.10528">
        <ele>476.6</ele>
        <time>2022-06-11T09:55:30Z</time>
      </trkpt>
      <trkpt lat="44.07747" lon="7.10522">
        <ele>476.9</ele>
        <time>2022-06-11T09:55:31Z</time>
      </trkpt>
      <trkpt lat="44.07752" lon="7.10516">
        <ele>476.8</ele>
        <time>2022-06-11T09:55:32Z</time>
      </trkpt>
      <trkpt lat="44.07757" lon="7.10511">
        <ele>476.2</ele>
        <time>2022-06-11T09:55:33Z</time>
      </trkpt>
      <trkpt lat="44.07761" lon="7.10507">
        <ele>475.3</ele>
        <time>2022-06-11T09:55:34Z</time>
      </trkpt>
      <trkpt lat="44.07766" lon="7.10502">
        <ele>474.1</ele>
        <time>2022-06-11T09:55:35Z</time>
      </trkpt>
      <trkpt lat="44.07771" lon="7.10497">
        <ele>473.4</ele>
        <time>2022-06-11T09:55:36Z</time>
      </trkpt>
      <trkpt lat="44.07777" lon="7.10493">
        <ele>473.2</ele>
        <time>2022-06-11T09:55:37Z</time>
      </trkpt>
      <trkpt lat="44.07783" lon="7.10491">
        <ele>472.9</ele>
        <time>2022-06-11T09:55:38Z</time>
      </trkpt>
      <trkpt lat="44.07789" lon="7.1049">
        <ele>473.1</ele>
        <time>2022-06-11T09:55:39Z</time>
      </trkpt>
      <trkpt lat="44.07795" lon="7.1049">
        <ele>473.5</ele>
        <time>2022-06-11T09:55:40Z</time>
      </trkpt>
      <trkpt lat="44.07801" lon="7.10491">
        <ele>474.3</ele>
        <time>2022-06-11T09:55:41Z</time>
      </trkpt>
      <trkpt lat="44.07807" lon="7.10494">
        <ele>475.5</ele>
        <time>2022-06-11T09:55:42Z</time>
      </trkpt>
      <trkpt lat="44.07813" lon="7.10497">
        <ele>476.4</ele>
        <time>2022-06-11T09:55:43Z</time>
      </trkpt>
      <trkpt lat="44.07819" lon="7.10499">
        <ele>476.9</ele>
        <time>2022-06-11T09:55:44Z</time>
      </trkpt>
      <trkpt lat="44.07825" lon="7.10502">
        <ele>478.5</ele>
        <time>2022-06-11T09:55:45Z</time>
      </trkpt>
      <trkpt lat="44.07831" lon="7.10505">
        <ele>481.6</ele>
        <time>2022-06-11T09:55:46Z</time>
      </trkpt>
      <trkpt lat="44.07837" lon="7.10508">
        <ele>484.6</ele>
        <time>2022-06-11T09:55:47Z</time>
      </trkpt>
      <trkpt lat="44.07843" lon="7.10511">
        <ele>487.3</ele>
        <time>2022-06-11T09:55:48Z</time>
      </trkpt>
      <trkpt lat="44.07849" lon="7.10513">
        <ele>488.9</ele>
        <time>2022-06-11T09:55:49Z</time>
      </trkpt>
      <trkpt lat="44.07855" lon="7.10515">
        <ele>489.8</ele>
        <time>2022-06-11T09:55:50Z</time>
      </trkpt>
      <trkpt lat="44.0786" lon="7.10516">
        <ele>490.3</ele>
        <time>2022-06-11T09:55:51Z</time>
      </trkpt>
      <trkpt lat="44.07866" lon="7.10517">
        <ele>490.9</ele>
        <time>2022-06-11T09:55:52Z</time>
      </trkpt>
      <trkpt lat="44.07872" lon="7.10518">
        <ele>491.6</ele>
        <time>2022-06-11T09:55:53Z</time>
      </trkpt>
      <trkpt lat="44.07878" lon="7.10518">
        <ele>492.1</ele>
        <time>2022-06-11T09:55:54Z</time>
      </trkpt>
      <trkpt lat="44.07884" lon="7.10518">
        <ele>492.2</ele>
        <time>2022-06-11T09:55:55Z</time>
      </trkpt>
      <trkpt lat="44.07889" lon="7.10518">
        <ele>492.3</ele>
        <time>2022-06-11T09:55:56Z</time>
      </trkpt>
      <trkpt lat="44.07895" lon="7.10517">
        <ele>491.9</ele>
        <time>2022-06-11T09:55:57Z</time>
      </trkpt>
      <trkpt lat="44.079" lon="7.10517">
        <ele>491.6</ele>
        <time>2022-06-11T09:55:58Z</time>
      </trkpt>
      <trkpt lat="44.07906" lon="7.10517">
        <ele>491.5</ele>
        <time>2022-06-11T09:55:59Z</time>
      </trkpt>
      <trkpt lat="44.07911" lon="7.10518">
        <ele>491.6</ele>
        <time>2022-06-11T09:56:00Z</time>
      </trkpt>
      <trkpt lat="44.07917" lon="7.10519">
        <ele>492.2</ele>
        <time>2022-06-11T09:56:01Z</time>
      </trkpt>
      <trkpt lat="44.07922" lon="7.10521">
        <ele>492</ele>
        <time>2022-06-11T09:56:02Z</time>
      </trkpt>
      <trkpt lat="44.07928" lon="7.10522">
        <ele>491.8</ele>
        <time>2022-06-11T09:56:03Z</time>
      </trkpt>
      <trkpt lat="44.07933" lon="7.10525">
        <ele>491.8</ele>
        <time>2022-06-11T09:56:04Z</time>
      </trkpt>
      <trkpt lat="44.07939" lon="7.10526">
        <ele>491.5</ele>
        <time>2022-06-11T09:56:05Z</time>
      </trkpt>
      <trkpt lat="44.07944" lon="7.10529">
        <ele>491.4</ele>
        <time>2022-06-11T09:56:06Z</time>
      </trkpt>
      <trkpt lat="44.0795" lon="7.10531">
        <ele>490.4</ele>
        <time>2022-06-11T09:56:07Z</time>
      </trkpt>
      <trkpt lat="44.07955" lon="7.10533">
        <ele>489.4</ele>
        <time>2022-06-11T09:56:08Z</time>
      </trkpt>
      <trkpt lat="44.0796" lon="7.10535">
        <ele>488.2</ele>
        <time>2022-06-11T09:56:09Z</time>
      </trkpt>
      <trkpt lat="44.07966" lon="7.10538">
        <ele>487.1</ele>
        <time>2022-06-11T09:56:10Z</time>
      </trkpt>
      <trkpt lat="44.07971" lon="7.10542">
        <ele>486.1</ele>
        <time>2022-06-11T09:56:11Z</time>
      </trkpt>
      <trkpt lat="44.07976" lon="7.10546">
        <ele>486.2</ele>
        <time>2022-06-11T09:56:12Z</time>
      </trkpt>
      <trkpt lat="44.07981" lon="7.10551">
        <ele>486.8</ele>
        <time>2022-06-11T09:56:13Z</time>
      </trkpt>
      <trkpt lat="44.07985" lon="7.10557">
        <ele>487.4</ele>
        <time>2022-06-11T09:56:14Z</time>
      </trkpt>
      <trkpt lat="44.07988" lon="7.10564">
        <ele>487</ele>
        <time>2022-06-11T09:56:15Z</time>
      </trkpt>
      <trkpt lat="44.07991" lon="7.10571">
        <ele>486.4</ele>
        <time>2022-06-11T09:56:16Z</time>
      </trkpt>
      <trkpt lat="44.07994" lon="7.10578">
        <ele>485.8</ele>
        <time>2022-06-11T09:56:17Z</time>
      </trkpt>
      <trkpt lat="44.07997" lon="7.10584">
        <ele>485.2</ele>
        <time>2022-06-11T09:56:18Z</time>
      </trkpt>
      <trkpt lat="44.08" lon="7.10591">
        <ele>485.8</ele>
        <time>2022-06-11T09:56:19Z</time>
      </trkpt>
      <trkpt lat="44.08003" lon="7.10598">
        <ele>486.3</ele>
        <time>2022-06-11T09:56:20Z</time>
      </trkpt>
      <trkpt lat="44.08006" lon="7.10605">
        <ele>486.5</ele>
        <time>2022-06-11T09:56:21Z</time>
      </trkpt>
      <trkpt lat="44.08009" lon="7.10611">
        <ele>486.4</ele>
        <time>2022-06-11T09:56:22Z</time>
      </trkpt>
      <trkpt lat="44.08012" lon="7.10618">
        <ele>489.1</ele>
        <time>2022-06-11T09:56:23Z</time>
      </trkpt>
      <trkpt lat="44.08016" lon="7.10624">
        <ele>491.5</ele>
        <time>2022-06-11T09:56:24Z</time>
      </trkpt>
      <trkpt lat="44.08019" lon="7.10631">
        <ele>493.3</ele>
        <time>2022-06-11T09:56:25Z</time>
      </trkpt>
      <trkpt lat="44.08022" lon="7.10637">
        <ele>494.8</ele>
        <time>2022-06-11T09:56:26Z</time>
      </trkpt>
      <trkpt lat="44.08026" lon="7.10643">
        <ele>496.1</ele>
        <time>2022-06-11T09:56:27Z</time>
      </trkpt>
      <trkpt lat="44.0803" lon="7.1065">
        <ele>498</ele>
        <time>2022-06-11T09:56:28Z</time>
      </trkpt>
      <trkpt lat="44.08033" lon="7.10655">
        <ele>499.8</ele>
        <time>2022-06-11T09:56:29Z</time>
      </trkpt>
      <trkpt lat="44.08037" lon="7.10661">
        <ele>500.7</ele>
        <time>2022-06-11T09:56:30Z</time>
      </trkpt>
      <trkpt lat="44.08043" lon="7.10664">
        <ele>499.6</ele>
        <time>2022-06-11T09:56:31Z</time>
      </trkpt>
      <trkpt lat="44.08048" lon="7.10668">
        <ele>498.3</ele>
        <time>2022-06-11T09:56:32Z</time>
      </trkpt>
      <trkpt lat="44.08053" lon="7.10671">
        <ele>497.1</ele>
        <time>2022-06-11T09:56:33Z</time>
      </trkpt>
      <trkpt lat="44.08058" lon="7.10674">
        <ele>496.5</ele>
        <time>2022-06-11T09:56:34Z</time>
      </trkpt>
      <trkpt lat="44.08064" lon="7.10676">
        <ele>496.4</ele>
        <time>2022-06-11T09:56:35Z</time>
      </trkpt>
      <trkpt lat="44.08069" lon="7.10679">
        <ele>496.3</ele>
        <time>2022-06-11T09:56:36Z</time>
      </trkpt>
      <trkpt lat="44.08075" lon="7.10681">
        <ele>495.9</ele>
        <time>2022-06-11T09:56:37Z</time>
      </trkpt>
      <trkpt lat="44.0808" lon="7.10683">
        <ele>495.5</ele>
        <time>2022-06-11T09:56:38Z</time>
      </trkpt>
      <trkpt lat="44.08085" lon="7.10685">
        <ele>495.8</ele>
        <time>2022-06-11T09:56:39Z</time>
      </trkpt>
      <trkpt lat="44.08091" lon="7.10687">
        <ele>497.1</ele>
        <time>2022-06-11T09:56:40Z</time>
      </trkpt>
      <trkpt lat="44.08096" lon="7.10689">
        <ele>498.7</ele>
        <time>2022-06-11T09:56:41Z</time>
      </trkpt>
      <trkpt lat="44.08102" lon="7.10691">
        <ele>499.8</ele>
        <time>2022-06-11T09:56:42Z</time>
      </trkpt>
      <trkpt lat="44.08107" lon="7.10692">
        <ele>500.3</ele>
        <time>2022-06-11T09:56:43Z</time>
      </trkpt>
      <trkpt lat="44.08113" lon="7.10691">
        <ele>500.1</ele>
        <time>2022-06-11T09:56:44Z</time>
      </trkpt>
      <trkpt lat="44.08118" lon="7.1069">
        <ele>499.6</ele>
        <time>2022-06-11T09:56:45Z</time>
      </trkpt>
      <trkpt lat="44.08124" lon="7.10687">
        <ele>498.6</ele>
        <time>2022-06-11T09:56:46Z</time>
      </trkpt>
      <trkpt lat="44.0813" lon="7.10686">
        <ele>498</ele>
        <time>2022-06-11T09:56:47Z</time>
      </trkpt>
      <trkpt lat="44.08135" lon="7.10682">
        <ele>496.6</ele>
        <time>2022-06-11T09:56:48Z</time>
      </trkpt>
      <trkpt lat="44.0814" lon="7.10679">
        <ele>495.5</ele>
        <time>2022-06-11T09:56:49Z</time>
      </trkpt>
      <trkpt lat="44.08146" lon="7.10676">
        <ele>494.7</ele>
        <time>2022-06-11T09:56:50Z</time>
      </trkpt>
      <trkpt lat="44.08151" lon="7.10673">
        <ele>494</ele>
        <time>2022-06-11T09:56:51Z</time>
      </trkpt>
      <trkpt lat="44.08156" lon="7.10669">
        <ele>493.3</ele>
        <time>2022-06-11T09:56:52Z</time>
      </trkpt>
      <trkpt lat="44.08161" lon="7.10667">
        <ele>493</ele>
        <time>2022-06-11T09:56:53Z</time>
      </trkpt>
      <trkpt lat="44.08165" lon="7.10664">
        <ele>493.2</ele>
        <time>2022-06-11T09:56:54Z</time>
      </trkpt>
      <trkpt lat="44.0817" lon="7.10661">
        <ele>493</ele>
        <time>2022-06-11T09:56:55Z</time>
      </trkpt>
      <trkpt lat="44.08175" lon="7.10658">
        <ele>492.7</ele>
        <time>2022-06-11T09:56:56Z</time>
      </trkpt>
      <trkpt lat="44.0818" lon="7.10655">
        <ele>492.3</ele>
        <time>2022-06-11T09:56:57Z</time>
      </trkpt>
      <trkpt lat="44.08185" lon="7.10652">
        <ele>492.1</ele>
        <time>2022-06-11T09:56:58Z</time>
      </trkpt>
      <trkpt lat="44.0819" lon="7.10648">
        <ele>491.6</ele>
        <time>2022-06-11T09:56:59Z</time>
      </trkpt>
      <trkpt lat="44.08195" lon="7.10644">
        <ele>491</ele>
        <time>2022-06-11T09:57:00Z</time>
      </trkpt>
      <trkpt lat="44.082" lon="7.10641">
        <ele>489.8</ele>
        <time>2022-06-11T09:57:01Z</time>
      </trkpt>
      <trkpt lat="44.08205" lon="7.10637">
        <ele>488.5</ele>
        <time>2022-06-11T09:57:02Z</time>
      </trkpt>
      <trkpt lat="44.0821" lon="7.10634">
        <ele>487.4</ele>
        <time>2022-06-11T09:57:03Z</time>
      </trkpt>
      <trkpt lat="44.08215" lon="7.1063">
        <ele>486.5</ele>
        <time>2022-06-11T09:57:04Z</time>
      </trkpt>
      <trkpt lat="44.08219" lon="7.10626">
        <ele>485.7</ele>
        <time>2022-06-11T09:57:05Z</time>
      </trkpt>
      <trkpt lat="44.08224" lon="7.10624">
        <ele>486</ele>
        <time>2022-06-11T09:57:06Z</time>
      </trkpt>
      <trkpt lat="44.08229" lon="7.1062">
        <ele>487.5</ele>
        <time>2022-06-11T09:57:07Z</time>
      </trkpt>
      <trkpt lat="44.08233" lon="7.10616">
        <ele>489.3</ele>
        <time>2022-06-11T09:57:08Z</time>
      </trkpt>
      <trkpt lat="44.08238" lon="7.10612">
        <ele>491.4</ele>
        <time>2022-06-11T09:57:09Z</time>
      </trkpt>
      <trkpt lat="44.08242" lon="7.10608">
        <ele>493.2</ele>
        <time>2022-06-11T09:57:10Z</time>
      </trkpt>
      <trkpt lat="44.08247" lon="7.10605">
        <ele>495</ele>
        <time>2022-06-11T09:57:11Z</time>
      </trkpt>
      <trkpt lat="44.08252" lon="7.10602">
        <ele>496.2</ele>
        <time>2022-06-11T09:57:12Z</time>
      </trkpt>
      <trkpt lat="44.08257" lon="7.10598">
        <ele>496.6</ele>
        <time>2022-06-11T09:57:13Z</time>
      </trkpt>
      <trkpt lat="44.08261" lon="7.10595">
        <ele>497.1</ele>
        <time>2022-06-11T09:57:14Z</time>
      </trkpt>
      <trkpt lat="44.08266" lon="7.10593">
        <ele>497.6</ele>
        <time>2022-06-11T09:57:15Z</time>
      </trkpt>
      <trkpt lat="44.0827" lon="7.1059">
        <ele>498.2</ele>
        <time>2022-06-11T09:57:16Z</time>
      </trkpt>
      <trkpt lat="44.08275" lon="7.10586">
        <ele>498.8</ele>
        <time>2022-06-11T09:57:17Z</time>
      </trkpt>
      <trkpt lat="44.0828" lon="7.10583">
        <ele>499.3</ele>
        <time>2022-06-11T09:57:18Z</time>
      </trkpt>
      <trkpt lat="44.08285" lon="7.1058">
        <ele>499.5</ele>
        <time>2022-06-11T09:57:19Z</time>
      </trkpt>
      <trkpt lat="44.0829" lon="7.10577">
        <ele>499.7</ele>
        <time>2022-06-11T09:57:20Z</time>
      </trkpt>
      <trkpt lat="44.08295" lon="7.10574">
        <ele>500</ele>
        <time>2022-06-11T09:57:21Z</time>
      </trkpt>
      <trkpt lat="44.083" lon="7.1057">
        <ele>500</ele>
        <time>2022-06-11T09:57:22Z</time>
      </trkpt>
      <trkpt lat="44.08305" lon="7.10565">
        <ele>500.2</ele>
        <time>2022-06-11T09:57:23Z</time>
      </trkpt>
      <trkpt lat="44.08309" lon="7.10562">
        <ele>500.1</ele>
        <time>2022-06-11T09:57:24Z</time>
      </trkpt>
      <trkpt lat="44.08314" lon="7.10558">
        <ele>499.7</ele>
        <time>2022-06-11T09:57:25Z</time>
      </trkpt>
      <trkpt lat="44.08317" lon="7.10555">
        <ele>499.3</ele>
        <time>2022-06-11T09:57:26Z</time>
      </trkpt>
      <trkpt lat="44.08321" lon="7.10551">
        <ele>499.1</ele>
        <time>2022-06-11T09:57:27Z</time>
      </trkpt>
      <trkpt lat="44.08325" lon="7.10547">
        <ele>498.9</ele>
        <time>2022-06-11T09:57:28Z</time>
      </trkpt>
      <trkpt lat="44.08329" lon="7.10544">
        <ele>498.9</ele>
        <time>2022-06-11T09:57:29Z</time>
      </trkpt>
      <trkpt lat="44.08333" lon="7.10542">
        <ele>499</ele>
        <time>2022-06-11T09:57:30Z</time>
      </trkpt>
      <trkpt lat="44.08337" lon="7.10539">
        <ele>499.5</ele>
        <time>2022-06-11T09:57:31Z</time>
      </trkpt>
      <trkpt lat="44.08341" lon="7.10536">
        <ele>499.8</ele>
        <time>2022-06-11T09:57:32Z</time>
      </trkpt>
      <trkpt lat="44.08344" lon="7.10533">
        <ele>500.1</ele>
        <time>2022-06-11T09:57:33Z</time>
      </trkpt>
      <trkpt lat="44.08348" lon="7.1053">
        <ele>500.3</ele>
        <time>2022-06-11T09:57:34Z</time>
      </trkpt>
      <trkpt lat="44.08352" lon="7.10528">
        <ele>500.6</ele>
        <time>2022-06-11T09:57:35Z</time>
      </trkpt>
      <trkpt lat="44.08356" lon="7.10523">
        <ele>501</ele>
        <time>2022-06-11T09:57:36Z</time>
      </trkpt>
      <trkpt lat="44.0836" lon="7.10519">
        <ele>501.3</ele>
        <time>2022-06-11T09:57:37Z</time>
      </trkpt>
      <trkpt lat="44.08364" lon="7.10516">
        <ele>501.3</ele>
        <time>2022-06-11T09:57:38Z</time>
      </trkpt>
      <trkpt lat="44.08369" lon="7.10511">
        <ele>501</ele>
        <time>2022-06-11T09:57:39Z</time>
      </trkpt>
      <trkpt lat="44.08373" lon="7.10507">
        <ele>500.5</ele>
        <time>2022-06-11T09:57:40Z</time>
      </trkpt>
      <trkpt lat="44.08377" lon="7.10505">
        <ele>500.1</ele>
        <time>2022-06-11T09:57:41Z</time>
      </trkpt>
      <trkpt lat="44.08382" lon="7.10502">
        <ele>499.6</ele>
        <time>2022-06-11T09:57:42Z</time>
      </trkpt>
      <trkpt lat="44.08387" lon="7.10501">
        <ele>499.2</ele>
        <time>2022-06-11T09:57:43Z</time>
      </trkpt>
      <trkpt lat="44.08392" lon="7.105">
        <ele>498.1</ele>
        <time>2022-06-11T09:57:44Z</time>
      </trkpt>
      <trkpt lat="44.08397" lon="7.10501">
        <ele>496.9</ele>
        <time>2022-06-11T09:57:45Z</time>
      </trkpt>
      <trkpt lat="44.08402" lon="7.10504">
        <ele>496.1</ele>
        <time>2022-06-11T09:57:46Z</time>
      </trkpt>
      <trkpt lat="44.08405" lon="7.10509">
        <ele>495.9</ele>
        <time>2022-06-11T09:57:47Z</time>
      </trkpt>
      <trkpt lat="44.08408" lon="7.10514">
        <ele>496.2</ele>
        <time>2022-06-11T09:57:48Z</time>
      </trkpt>
      <trkpt lat="44.0841" lon="7.1052">
        <ele>496.6</ele>
        <time>2022-06-11T09:57:49Z</time>
      </trkpt>
      <trkpt lat="44.08413" lon="7.10526">
        <ele>497</ele>
        <time>2022-06-11T09:57:50Z</time>
      </trkpt>
      <trkpt lat="44.08415" lon="7.10533">
        <ele>498.3</ele>
        <time>2022-06-11T09:57:51Z</time>
      </trkpt>
      <trkpt lat="44.08417" lon="7.10538">
        <ele>499.8</ele>
        <time>2022-06-11T09:57:52Z</time>
      </trkpt>
      <trkpt lat="44.08419" lon="7.10543">
        <ele>500.3</ele>
        <time>2022-06-11T09:57:53Z</time>
      </trkpt>
      <trkpt lat="44.08421" lon="7.10548">
        <ele>500.5</ele>
        <time>2022-06-11T09:57:54Z</time>
      </trkpt>
      <trkpt lat="44.08422" lon="7.10552">
        <ele>501</ele>
        <time>2022-06-11T09:57:55Z</time>
      </trkpt>
      <trkpt lat="44.08422" lon="7.10554">
        <ele>501.7</ele>
        <time>2022-06-11T09:57:56Z</time>
      </trkpt>
      <trkpt lat="44.08421" lon="7.10554">
        <ele>502.2</ele>
        <time>2022-06-11T09:57:57Z</time>
      </trkpt>
      <trkpt lat="44.08421" lon="7.10554">
        <ele>502.2</ele>
        <time>2022-06-11T09:57:58Z</time>
      </trkpt>
      <trkpt lat="44.08424" lon="7.10555">
        <ele>500.3</ele>
        <time>2022-06-11T10:01:54Z</time>
      </trkpt>
      <trkpt lat="44.08425" lon="7.10557">
        <ele>500.4</ele>
        <time>2022-06-11T10:01:55Z</time>
      </trkpt>
      <trkpt lat="44.08427" lon="7.1056">
        <ele>500.5</ele>
        <time>2022-06-11T10:01:56Z</time>
      </trkpt>
      <trkpt lat="44.08428" lon="7.10563">
        <ele>501</ele>
        <time>2022-06-11T10:01:57Z</time>
      </trkpt>
      <trkpt lat="44.0843" lon="7.10566">
        <ele>501.5</ele>
        <time>2022-06-11T10:01:58Z</time>
      </trkpt>
      <trkpt lat="44.08432" lon="7.1057">
        <ele>502.6</ele>
        <time>2022-06-11T10:01:59Z</time>
      </trkpt>
      <trkpt lat="44.08433" lon="7.10574">
        <ele>504.3</ele>
        <time>2022-06-11T10:02:00Z</time>
      </trkpt>
      <trkpt lat="44.08434" lon="7.10578">
        <ele>505.4</ele>
        <time>2022-06-11T10:02:01Z</time>
      </trkpt>
      <trkpt lat="44.08435" lon="7.10583">
        <ele>507.1</ele>
        <time>2022-06-11T10:02:02Z</time>
      </trkpt>
      <trkpt lat="44.08436" lon="7.10587">
        <ele>508.9</ele>
        <time>2022-06-11T10:02:03Z</time>
      </trkpt>
      <trkpt lat="44.08437" lon="7.10591">
        <ele>510.4</ele>
        <time>2022-06-11T10:02:04Z</time>
      </trkpt>
      <trkpt lat="44.08438" lon="7.10596">
        <ele>511.4</ele>
        <time>2022-06-11T10:02:05Z</time>
      </trkpt>
      <trkpt lat="44.08439" lon="7.10599">
        <ele>511.9</ele>
        <time>2022-06-11T10:02:06Z</time>
      </trkpt>
      <trkpt lat="44.08441" lon="7.10603">
        <ele>512</ele>
        <time>2022-06-11T10:02:07Z</time>
      </trkpt>
      <trkpt lat="44.08443" lon="7.10606">
        <ele>511.7</ele>
        <time>2022-06-11T10:02:08Z</time>
      </trkpt>
      <trkpt lat="44.08445" lon="7.10609">
        <ele>510.9</ele>
        <time>2022-06-11T10:02:09Z</time>
      </trkpt>
      <trkpt lat="44.08447" lon="7.10611">
        <ele>509.6</ele>
        <time>2022-06-11T10:02:10Z</time>
      </trkpt>
      <trkpt lat="44.08449" lon="7.10614">
        <ele>509.4</ele>
        <time>2022-06-11T10:02:11Z</time>
      </trkpt>
      <trkpt lat="44.08452" lon="7.10617">
        <ele>508.9</ele>
        <time>2022-06-11T10:02:12Z</time>
      </trkpt>
      <trkpt lat="44.08454" lon="7.1062">
        <ele>507.4</ele>
        <time>2022-06-11T10:02:13Z</time>
      </trkpt>
      <trkpt lat="44.08457" lon="7.10622">
        <ele>505</ele>
        <time>2022-06-11T10:02:14Z</time>
      </trkpt>
      <trkpt lat="44.0846" lon="7.10624">
        <ele>502.2</ele>
        <time>2022-06-11T10:02:15Z</time>
      </trkpt>
      <trkpt lat="44.08463" lon="7.10627">
        <ele>499.3</ele>
        <time>2022-06-11T10:02:16Z</time>
      </trkpt>
      <trkpt lat="44.08466" lon="7.10628">
        <ele>495.5</ele>
        <time>2022-06-11T10:02:17Z</time>
      </trkpt>
      <trkpt lat="44.08468" lon="7.10629">
        <ele>491.6</ele>
        <time>2022-06-11T10:02:18Z</time>
      </trkpt>
      <trkpt lat="44.08471" lon="7.1063">
        <ele>487.6</ele>
        <time>2022-06-11T10:02:19Z</time>
      </trkpt>
      <trkpt lat="44.08474" lon="7.10632">
        <ele>485.9</ele>
        <time>2022-06-11T10:02:20Z</time>
      </trkpt>
      <trkpt lat="44.08477" lon="7.10632">
        <ele>486.3</ele>
        <time>2022-06-11T10:02:21Z</time>
      </trkpt>
      <trkpt lat="44.0848" lon="7.10633">
        <ele>486.7</ele>
        <time>2022-06-11T10:02:22Z</time>
      </trkpt>
      <trkpt lat="44.08482" lon="7.10634">
        <ele>487.2</ele>
        <time>2022-06-11T10:02:23Z</time>
      </trkpt>
      <trkpt lat="44.08485" lon="7.10635">
        <ele>487.6</ele>
        <time>2022-06-11T10:02:24Z</time>
      </trkpt>
      <trkpt lat="44.08488" lon="7.10636">
        <ele>488.1</ele>
        <time>2022-06-11T10:02:25Z</time>
      </trkpt>
      <trkpt lat="44.08491" lon="7.10637">
        <ele>488.5</ele>
        <time>2022-06-11T10:02:26Z</time>
      </trkpt>
      <trkpt lat="44.08494" lon="7.10637">
        <ele>488.9</ele>
        <time>2022-06-11T10:02:27Z</time>
      </trkpt>
      <trkpt lat="44.08497" lon="7.10637">
        <ele>489.4</ele>
        <time>2022-06-11T10:02:28Z</time>
      </trkpt>
      <trkpt lat="44.08499" lon="7.10639">
        <ele>489.9</ele>
        <time>2022-06-11T10:02:29Z</time>
      </trkpt>
      <trkpt lat="44.08501" lon="7.10642">
        <ele>491.3</ele>
        <time>2022-06-11T10:02:30Z</time>
      </trkpt>
      <trkpt lat="44.08502" lon="7.10643">
        <ele>492.8</ele>
        <time>2022-06-11T10:02:31Z</time>
      </trkpt>
      <trkpt lat="44.08504" lon="7.10645">
        <ele>494.3</ele>
        <time>2022-06-11T10:02:32Z</time>
      </trkpt>
      <trkpt lat="44.08506" lon="7.10645">
        <ele>495.3</ele>
        <time>2022-06-11T10:02:33Z</time>
      </trkpt>
      <trkpt lat="44.08507" lon="7.10645">
        <ele>496</ele>
        <time>2022-06-11T10:02:34Z</time>
      </trkpt>
      <trkpt lat="44.08508" lon="7.10645">
        <ele>496.6</ele>
        <time>2022-06-11T10:02:35Z</time>
      </trkpt>
      <trkpt lat="44.08508" lon="7.10645">
        <ele>496.6</ele>
        <time>2022-06-11T10:02:36Z</time>
      </trkpt>
      <trkpt lat="44.08511" lon="7.10638">
        <ele>494.4</ele>
        <time>2022-06-11T10:03:48Z</time>
      </trkpt>
      <trkpt lat="44.08513" lon="7.10636">
        <ele>494.8</ele>
        <time>2022-06-11T10:03:49Z</time>
      </trkpt>
      <trkpt lat="44.08515" lon="7.10636">
        <ele>495.6</ele>
        <time>2022-06-11T10:03:50Z</time>
      </trkpt>
      <trkpt lat="44.08518" lon="7.10636">
        <ele>496.8</ele>
        <time>2022-06-11T10:03:51Z</time>
      </trkpt>
      <trkpt lat="44.08521" lon="7.10636">
        <ele>498.3</ele>
        <time>2022-06-11T10:03:52Z</time>
      </trkpt>
      <trkpt lat="44.08525" lon="7.10637">
        <ele>499.8</ele>
        <time>2022-06-11T10:03:53Z</time>
      </trkpt>
      <trkpt lat="44.08528" lon="7.10637">
        <ele>501</ele>
        <time>2022-06-11T10:03:54Z</time>
      </trkpt>
      <trkpt lat="44.08531" lon="7.10636">
        <ele>501.7</ele>
        <time>2022-06-11T10:03:55Z</time>
      </trkpt>
      <trkpt lat="44.08534" lon="7.10636">
        <ele>502.3</ele>
        <time>2022-06-11T10:03:56Z</time>
      </trkpt>
      <trkpt lat="44.08538" lon="7.10635">
        <ele>502.8</ele>
        <time>2022-06-11T10:03:57Z</time>
      </trkpt>
      <trkpt lat="44.08541" lon="7.10635">
        <ele>503.3</ele>
        <time>2022-06-11T10:03:58Z</time>
      </trkpt>
      <trkpt lat="44.08544" lon="7.10635">
        <ele>504</ele>
        <time>2022-06-11T10:03:59Z</time>
      </trkpt>
      <trkpt lat="44.08548" lon="7.10633">
        <ele>504</ele>
        <time>2022-06-11T10:04:00Z</time>
      </trkpt>
      <trkpt lat="44.08551" lon="7.10633">
        <ele>504.5</ele>
        <time>2022-06-11T10:04:01Z</time>
      </trkpt>
      <trkpt lat="44.08554" lon="7.10632">
        <ele>504.8</ele>
        <time>2022-06-11T10:04:02Z</time>
      </trkpt>
      <trkpt lat="44.08557" lon="7.10631">
        <ele>505.4</ele>
        <time>2022-06-11T10:04:03Z</time>
      </trkpt>
      <trkpt lat="44.0856" lon="7.1063">
        <ele>506</ele>
        <time>2022-06-11T10:04:04Z</time>
      </trkpt>
      <trkpt lat="44.08564" lon="7.10629">
        <ele>506.9</ele>
        <time>2022-06-11T10:04:05Z</time>
      </trkpt>
      <trkpt lat="44.08567" lon="7.10628">
        <ele>507.4</ele>
        <time>2022-06-11T10:04:06Z</time>
      </trkpt>
      <trkpt lat="44.0857" lon="7.10628">
        <ele>508.3</ele>
        <time>2022-06-11T10:04:07Z</time>
      </trkpt>
      <trkpt lat="44.08573" lon="7.10627">
        <ele>508.9</ele>
        <time>2022-06-11T10:04:08Z</time>
      </trkpt>
      <trkpt lat="44.08577" lon="7.10626">
        <ele>509.5</ele>
        <time>2022-06-11T10:04:09Z</time>
      </trkpt>
      <trkpt lat="44.0858" lon="7.10625">
        <ele>510</ele>
        <time>2022-06-11T10:04:10Z</time>
      </trkpt>
      <trkpt lat="44.08583" lon="7.10624">
        <ele>510.5</ele>
        <time>2022-06-11T10:04:11Z</time>
      </trkpt>
      <trkpt lat="44.08586" lon="7.10623">
        <ele>510.5</ele>
        <time>2022-06-11T10:04:12Z</time>
      </trkpt>
      <trkpt lat="44.08588" lon="7.10622">
        <ele>510.6</ele>
        <time>2022-06-11T10:04:13Z</time>
      </trkpt>
      <trkpt lat="44.08591" lon="7.10621">
        <ele>510.9</ele>
        <time>2022-06-11T10:04:14Z</time>
      </trkpt>
      <trkpt lat="44.08593" lon="7.10621">
        <ele>511.2</ele>
        <time>2022-06-11T10:04:15Z</time>
      </trkpt>
      <trkpt lat="44.08595" lon="7.1062">
        <ele>511.1</ele>
        <time>2022-06-11T10:04:16Z</time>
      </trkpt>
      <trkpt lat="44.08598" lon="7.10619">
        <ele>511.2</ele>
        <time>2022-06-11T10:04:17Z</time>
      </trkpt>
      <trkpt lat="44.086" lon="7.10618">
        <ele>511.3</ele>
        <time>2022-06-11T10:04:18Z</time>
      </trkpt>
      <trkpt lat="44.08602" lon="7.10618">
        <ele>511.8</ele>
        <time>2022-06-11T10:04:19Z</time>
      </trkpt>
      <trkpt lat="44.08604" lon="7.10617">
        <ele>511.6</ele>
        <time>2022-06-11T10:04:20Z</time>
      </trkpt>
      <trkpt lat="44.08607" lon="7.10617">
        <ele>512.1</ele>
        <time>2022-06-11T10:04:21Z</time>
      </trkpt>
      <trkpt lat="44.08609" lon="7.10617">
        <ele>512.7</ele>
        <time>2022-06-11T10:04:22Z</time>
      </trkpt>
      <trkpt lat="44.08611" lon="7.10616">
        <ele>513.1</ele>
        <time>2022-06-11T10:04:23Z</time>
      </trkpt>
      <trkpt lat="44.08613" lon="7.10615">
        <ele>512.5</ele>
        <time>2022-06-11T10:04:24Z</time>
      </trkpt>
      <trkpt lat="44.08615" lon="7.10613">
        <ele>510.9</ele>
        <time>2022-06-11T10:04:25Z</time>
      </trkpt>
      <trkpt lat="44.08617" lon="7.1061">
        <ele>509.6</ele>
        <time>2022-06-11T10:04:26Z</time>
      </trkpt>
      <trkpt lat="44.0862" lon="7.10608">
        <ele>509.7</ele>
        <time>2022-06-11T10:04:27Z</time>
      </trkpt>
      <trkpt lat="44.08624" lon="7.10607">
        <ele>509.9</ele>
        <time>2022-06-11T10:04:28Z</time>
      </trkpt>
      <trkpt lat="44.08627" lon="7.10607">
        <ele>510.3</ele>
        <time>2022-06-11T10:04:29Z</time>
      </trkpt>
      <trkpt lat="44.08631" lon="7.10606">
        <ele>510.6</ele>
        <time>2022-06-11T10:04:30Z</time>
      </trkpt>
      <trkpt lat="44.08634" lon="7.10604">
        <ele>510.7</ele>
        <time>2022-06-11T10:04:31Z</time>
      </trkpt>
      <trkpt lat="44.08638" lon="7.10603">
        <ele>510.8</ele>
        <time>2022-06-11T10:04:32Z</time>
      </trkpt>
      <trkpt lat="44.08642" lon="7.10602">
        <ele>510.2</ele>
        <time>2022-06-11T10:04:33Z</time>
      </trkpt>
      <trkpt lat="44.08646" lon="7.10601">
        <ele>509.7</ele>
        <time>2022-06-11T10:04:34Z</time>
      </trkpt>
      <trkpt lat="44.0865" lon="7.10601">
        <ele>509.4</ele>
        <time>2022-06-11T10:04:35Z</time>
      </trkpt>
      <trkpt lat="44.08653" lon="7.106">
        <ele>509.2</ele>
        <time>2022-06-11T10:04:36Z</time>
      </trkpt>
      <trkpt lat="44.08657" lon="7.106">
        <ele>509.2</ele>
        <time>2022-06-11T10:04:37Z</time>
      </trkpt>
      <trkpt lat="44.08661" lon="7.10601">
        <ele>509.2</ele>
        <time>2022-06-11T10:04:38Z</time>
      </trkpt>
      <trkpt lat="44.08665" lon="7.10601">
        <ele>509.4</ele>
        <time>2022-06-11T10:04:39Z</time>
      </trkpt>
      <trkpt lat="44.08668" lon="7.10602">
        <ele>509.3</ele>
        <time>2022-06-11T10:04:40Z</time>
      </trkpt>
      <trkpt lat="44.08672" lon="7.10603">
        <ele>509.2</ele>
        <time>2022-06-11T10:04:41Z</time>
      </trkpt>
      <trkpt lat="44.08676" lon="7.10603">
        <ele>508.8</ele>
        <time>2022-06-11T10:04:42Z</time>
      </trkpt>
      <trkpt lat="44.08679" lon="7.10604">
        <ele>508.4</ele>
        <time>2022-06-11T10:04:43Z</time>
      </trkpt>
      <trkpt lat="44.08683" lon="7.10604">
        <ele>508.1</ele>
        <time>2022-06-11T10:04:44Z</time>
      </trkpt>
      <trkpt lat="44.08688" lon="7.10605">
        <ele>507.5</ele>
        <time>2022-06-11T10:04:45Z</time>
      </trkpt>
      <trkpt lat="44.08692" lon="7.10606">
        <ele>507.4</ele>
        <time>2022-06-11T10:04:46Z</time>
      </trkpt>
      <trkpt lat="44.08696" lon="7.10607">
        <ele>506.9</ele>
        <time>2022-06-11T10:04:47Z</time>
      </trkpt>
      <trkpt lat="44.087" lon="7.10608">
        <ele>506.4</ele>
        <time>2022-06-11T10:04:48Z</time>
      </trkpt>
      <trkpt lat="44.08705" lon="7.1061">
        <ele>506.1</ele>
        <time>2022-06-11T10:04:49Z</time>
      </trkpt>
      <trkpt lat="44.08709" lon="7.10613">
        <ele>506.1</ele>
        <time>2022-06-11T10:04:50Z</time>
      </trkpt>
      <trkpt lat="44.08713" lon="7.10616">
        <ele>506.4</ele>
        <time>2022-06-11T10:04:51Z</time>
      </trkpt>
      <trkpt lat="44.08716" lon="7.1062">
        <ele>507</ele>
        <time>2022-06-11T10:04:52Z</time>
      </trkpt>
      <trkpt lat="44.08719" lon="7.10625">
        <ele>507.8</ele>
        <time>2022-06-11T10:04:53Z</time>
      </trkpt>
      <trkpt lat="44.08722" lon="7.10631">
        <ele>508.7</ele>
        <time>2022-06-11T10:04:54Z</time>
      </trkpt>
      <trkpt lat="44.08724" lon="7.10637">
        <ele>509.5</ele>
        <time>2022-06-11T10:04:55Z</time>
      </trkpt>
      <trkpt lat="44.08727" lon="7.10643">
        <ele>510.7</ele>
        <time>2022-06-11T10:04:56Z</time>
      </trkpt>
      <trkpt lat="44.0873" lon="7.10649">
        <ele>511.9</ele>
        <time>2022-06-11T10:04:57Z</time>
      </trkpt>
      <trkpt lat="44.08733" lon="7.10655">
        <ele>512.7</ele>
        <time>2022-06-11T10:04:58Z</time>
      </trkpt>
      <trkpt lat="44.08737" lon="7.1066">
        <ele>512.9</ele>
        <time>2022-06-11T10:04:59Z</time>
      </trkpt>
      <trkpt lat="44.08741" lon="7.10664">
        <ele>511.9</ele>
        <time>2022-06-11T10:05:00Z</time>
      </trkpt>
      <trkpt lat="44.08746" lon="7.10668">
        <ele>510.4</ele>
        <time>2022-06-11T10:05:01Z</time>
      </trkpt>
      <trkpt lat="44.08751" lon="7.10671">
        <ele>509.2</ele>
        <time>2022-06-11T10:05:02Z</time>
      </trkpt>
      <trkpt lat="44.08756" lon="7.10674">
        <ele>509</ele>
        <time>2022-06-11T10:05:03Z</time>
      </trkpt>
      <trkpt lat="44.08761" lon="7.10678">
        <ele>508.7</ele>
        <time>2022-06-11T10:05:04Z</time>
      </trkpt>
      <trkpt lat="44.08766" lon="7.10681">
        <ele>508.1</ele>
        <time>2022-06-11T10:05:05Z</time>
      </trkpt>
      <trkpt lat="44.08771" lon="7.10684">
        <ele>507.4</ele>
        <time>2022-06-11T10:05:06Z</time>
      </trkpt>
      <trkpt lat="44.08776" lon="7.10687">
        <ele>506.7</ele>
        <time>2022-06-11T10:05:07Z</time>
      </trkpt>
      <trkpt lat="44.08781" lon="7.10691">
        <ele>506.8</ele>
        <time>2022-06-11T10:05:08Z</time>
      </trkpt>
      <trkpt lat="44.08786" lon="7.10694">
        <ele>507.2</ele>
        <time>2022-06-11T10:05:09Z</time>
      </trkpt>
      <trkpt lat="44.08792" lon="7.10697">
        <ele>507.8</ele>
        <time>2022-06-11T10:05:10Z</time>
      </trkpt>
      <trkpt lat="44.08796" lon="7.107">
        <ele>508.3</ele>
        <time>2022-06-11T10:05:11Z</time>
      </trkpt>
      <trkpt lat="44.08801" lon="7.10703">
        <ele>508.7</ele>
        <time>2022-06-11T10:05:12Z</time>
      </trkpt>
      <trkpt lat="44.08807" lon="7.10705">
        <ele>509.1</ele>
        <time>2022-06-11T10:05:13Z</time>
      </trkpt>
      <trkpt lat="44.08812" lon="7.10708">
        <ele>509.8</ele>
        <time>2022-06-11T10:05:14Z</time>
      </trkpt>
      <trkpt lat="44.08817" lon="7.1071">
        <ele>510.3</ele>
        <time>2022-06-11T10:05:15Z</time>
      </trkpt>
      <trkpt lat="44.08823" lon="7.10711">
        <ele>510.7</ele>
        <time>2022-06-11T10:05:16Z</time>
      </trkpt>
      <trkpt lat="44.08828" lon="7.10712">
        <ele>511.1</ele>
        <time>2022-06-11T10:05:17Z</time>
      </trkpt>
      <trkpt lat="44.08834" lon="7.10714">
        <ele>511.5</ele>
        <time>2022-06-11T10:05:18Z</time>
      </trkpt>
      <trkpt lat="44.08839" lon="7.10715">
        <ele>511.7</ele>
        <time>2022-06-11T10:05:19Z</time>
      </trkpt>
      <trkpt lat="44.08845" lon="7.10717">
        <ele>512.1</ele>
        <time>2022-06-11T10:05:20Z</time>
      </trkpt>
      <trkpt lat="44.08851" lon="7.10718">
        <ele>512.4</ele>
        <time>2022-06-11T10:05:21Z</time>
      </trkpt>
      <trkpt lat="44.08856" lon="7.10719">
        <ele>512.4</ele>
        <time>2022-06-11T10:05:22Z</time>
      </trkpt>
      <trkpt lat="44.08862" lon="7.10717">
        <ele>511.5</ele>
        <time>2022-06-11T10:05:23Z</time>
      </trkpt>
      <trkpt lat="44.08867" lon="7.10713">
        <ele>508.9</ele>
        <time>2022-06-11T10:05:24Z</time>
      </trkpt>
      <trkpt lat="44.0887" lon="7.10706">
        <ele>505.4</ele>
        <time>2022-06-11T10:05:25Z</time>
      </trkpt>
      <trkpt lat="44.08873" lon="7.10699">
        <ele>501.6</ele>
        <time>2022-06-11T10:05:26Z</time>
      </trkpt>
      <trkpt lat="44.08875" lon="7.10692">
        <ele>498.8</ele>
        <time>2022-06-11T10:05:27Z</time>
      </trkpt>
      <trkpt lat="44.08877" lon="7.10685">
        <ele>498.2</ele>
        <time>2022-06-11T10:05:28Z</time>
      </trkpt>
      <trkpt lat="44.08879" lon="7.10679">
        <ele>497.8</ele>
        <time>2022-06-11T10:05:29Z</time>
      </trkpt>
      <trkpt lat="44.08882" lon="7.10673">
        <ele>497.6</ele>
        <time>2022-06-11T10:05:30Z</time>
      </trkpt>
      <trkpt lat="44.08883" lon="7.10666">
        <ele>497.9</ele>
        <time>2022-06-11T10:05:31Z</time>
      </trkpt>
      <trkpt lat="44.08884" lon="7.10659">
        <ele>500.1</ele>
        <time>2022-06-11T10:05:32Z</time>
      </trkpt>
      <trkpt lat="44.08884" lon="7.10653">
        <ele>502</ele>
        <time>2022-06-11T10:05:33Z</time>
      </trkpt>
      <trkpt lat="44.08884" lon="7.1065">
        <ele>503.1</ele>
        <time>2022-06-11T10:05:34Z</time>
      </trkpt>
      <trkpt lat="44.08883" lon="7.10647">
        <ele>503.9</ele>
        <time>2022-06-11T10:05:35Z</time>
      </trkpt>
      <trkpt lat="44.08882" lon="7.10644">
        <ele>504.5</ele>
        <time>2022-06-11T10:05:36Z</time>
      </trkpt>
      <trkpt lat="44.08881" lon="7.10642">
        <ele>504.8</ele>
        <time>2022-06-11T10:05:37Z</time>
      </trkpt>
      <trkpt lat="44.08879" lon="7.10639">
        <ele>505.1</ele>
        <time>2022-06-11T10:05:38Z</time>
      </trkpt>
      <trkpt lat="44.08877" lon="7.10638">
        <ele>505.2</ele>
        <time>2022-06-11T10:05:39Z</time>
      </trkpt>
      <trkpt lat="44.08874" lon="7.10636">
        <ele>505.4</ele>
        <time>2022-06-11T10:05:40Z</time>
      </trkpt>
      <trkpt lat="44.08872" lon="7.10634">
        <ele>505.5</ele>
        <time>2022-06-11T10:05:41Z</time>
      </trkpt>
      <trkpt lat="44.08869" lon="7.10632">
        <ele>505.4</ele>
        <time>2022-06-11T10:05:42Z</time>
      </trkpt>
      <trkpt lat="44.08866" lon="7.10631">
        <ele>505.1</ele>
        <time>2022-06-11T10:05:43Z</time>
      </trkpt>
      <trkpt lat="44.08863" lon="7.1063">
        <ele>504.3</ele>
        <time>2022-06-11T10:05:44Z</time>
      </trkpt>
      <trkpt lat="44.0886" lon="7.10628">
        <ele>504</ele>
        <time>2022-06-11T10:05:45Z</time>
      </trkpt>
      <trkpt lat="44.08857" lon="7.10627">
        <ele>503.7</ele>
        <time>2022-06-11T10:05:46Z</time>
      </trkpt>
      <trkpt lat="44.08855" lon="7.10626">
        <ele>503.5</ele>
        <time>2022-06-11T10:05:47Z</time>
      </trkpt>
      <trkpt lat="44.08852" lon="7.10625">
        <ele>503.3</ele>
        <time>2022-06-11T10:05:48Z</time>
      </trkpt>
      <trkpt lat="44.08849" lon="7.10623">
        <ele>503.1</ele>
        <time>2022-06-11T10:05:49Z</time>
      </trkpt>
      <trkpt lat="44.08847" lon="7.10621">
        <ele>503</ele>
        <time>2022-06-11T10:05:50Z</time>
      </trkpt>
      <trkpt lat="44.08845" lon="7.10618">
        <ele>503.2</ele>
        <time>2022-06-11T10:05:51Z</time>
      </trkpt>
      <trkpt lat="44.08843" lon="7.10616">
        <ele>503.4</ele>
        <time>2022-06-11T10:05:52Z</time>
      </trkpt>
      <trkpt lat="44.08841" lon="7.10613">
        <ele>503.5</ele>
        <time>2022-06-11T10:05:53Z</time>
      </trkpt>
      <trkpt lat="44.0884" lon="7.1061">
        <ele>503.6</ele>
        <time>2022-06-11T10:05:54Z</time>
      </trkpt>
      <trkpt lat="44.08838" lon="7.10607">
        <ele>503.8</ele>
        <time>2022-06-11T10:05:55Z</time>
      </trkpt>
      <trkpt lat="44.08836" lon="7.10604">
        <ele>504</ele>
        <time>2022-06-11T10:05:56Z</time>
      </trkpt>
      <trkpt lat="44.08834" lon="7.10602">
        <ele>504.1</ele>
        <time>2022-06-11T10:05:57Z</time>
      </trkpt>
      <trkpt lat="44.08833" lon="7.10599">
        <ele>504.5</ele>
        <time>2022-06-11T10:05:58Z</time>
      </trkpt>
      <trkpt lat="44.08832" lon="7.10596">
        <ele>504.9</ele>
        <time>2022-06-11T10:05:59Z</time>
      </trkpt>
      <trkpt lat="44.0883" lon="7.10593">
        <ele>505.2</ele>
        <time>2022-06-11T10:06:00Z</time>
      </trkpt>
      <trkpt lat="44.08828" lon="7.10591">
        <ele>505.3</ele>
        <time>2022-06-11T10:06:01Z</time>
      </trkpt>
      <trkpt lat="44.08827" lon="7.10588">
        <ele>505.5</ele>
        <time>2022-06-11T10:06:02Z</time>
      </trkpt>
      <trkpt lat="44.08825" lon="7.10585">
        <ele>505.6</ele>
        <time>2022-06-11T10:06:03Z</time>
      </trkpt>
      <trkpt lat="44.08824" lon="7.10582">
        <ele>505.8</ele>
        <time>2022-06-11T10:06:04Z</time>
      </trkpt>
      <trkpt lat="44.08822" lon="7.10579">
        <ele>506.2</ele>
        <time>2022-06-11T10:06:05Z</time>
      </trkpt>
      <trkpt lat="44.08821" lon="7.10576">
        <ele>506.5</ele>
        <time>2022-06-11T10:06:06Z</time>
      </trkpt>
      <trkpt lat="44.08819" lon="7.10573">
        <ele>506.5</ele>
        <time>2022-06-11T10:06:07Z</time>
      </trkpt>
      <trkpt lat="44.08818" lon="7.1057">
        <ele>506.7</ele>
        <time>2022-06-11T10:06:08Z</time>
      </trkpt>
      <trkpt lat="44.08817" lon="7.10567">
        <ele>506.8</ele>
        <time>2022-06-11T10:06:09Z</time>
      </trkpt>
      <trkpt lat="44.08816" lon="7.10564">
        <ele>507.1</ele>
        <time>2022-06-11T10:06:10Z</time>
      </trkpt>
      <trkpt lat="44.08814" lon="7.10561">
        <ele>507.1</ele>
        <time>2022-06-11T10:06:11Z</time>
      </trkpt>
      <trkpt lat="44.08813" lon="7.10558">
        <ele>507.2</ele>
        <time>2022-06-11T10:06:12Z</time>
      </trkpt>
      <trkpt lat="44.08812" lon="7.10556">
        <ele>507</ele>
        <time>2022-06-11T10:06:13Z</time>
      </trkpt>
      <trkpt lat="44.0881" lon="7.10553">
        <ele>506.8</ele>
        <time>2022-06-11T10:06:14Z</time>
      </trkpt>
      <trkpt lat="44.08809" lon="7.10551">
        <ele>506.9</ele>
        <time>2022-06-11T10:06:15Z</time>
      </trkpt>
      <trkpt lat="44.08808" lon="7.10548">
        <ele>507.1</ele>
        <time>2022-06-11T10:06:16Z</time>
      </trkpt>
      <trkpt lat="44.08806" lon="7.10545">
        <ele>507.1</ele>
        <time>2022-06-11T10:06:17Z</time>
      </trkpt>
      <trkpt lat="44.08805" lon="7.10542">
        <ele>507.2</ele>
        <time>2022-06-11T10:06:18Z</time>
      </trkpt>
      <trkpt lat="44.08804" lon="7.10539">
        <ele>507.5</ele>
        <time>2022-06-11T10:06:19Z</time>
      </trkpt>
      <trkpt lat="44.08803" lon="7.10536">
        <ele>507.9</ele>
        <time>2022-06-11T10:06:20Z</time>
      </trkpt>
      <trkpt lat="44.08802" lon="7.10533">
        <ele>508</ele>
        <time>2022-06-11T10:06:21Z</time>
      </trkpt>
      <trkpt lat="44.088" lon="7.1053">
        <ele>508.1</ele>
        <time>2022-06-11T10:06:22Z</time>
      </trkpt>
      <trkpt lat="44.08799" lon="7.10527">
        <ele>508.4</ele>
        <time>2022-06-11T10:06:23Z</time>
      </trkpt>
      <trkpt lat="44.08798" lon="7.10525">
        <ele>508.6</ele>
        <time>2022-06-11T10:06:24Z</time>
      </trkpt>
      <trkpt lat="44.08797" lon="7.10522">
        <ele>508.7</ele>
        <time>2022-06-11T10:06:25Z</time>
      </trkpt>
      <trkpt lat="44.08796" lon="7.10519">
        <ele>508.9</ele>
        <time>2022-06-11T10:06:26Z</time>
      </trkpt>
      <trkpt lat="44.08794" lon="7.10517">
        <ele>509.1</ele>
        <time>2022-06-11T10:06:27Z</time>
      </trkpt>
      <trkpt lat="44.08793" lon="7.10514">
        <ele>509.1</ele>
        <time>2022-06-11T10:06:28Z</time>
      </trkpt>
      <trkpt lat="44.08792" lon="7.10511">
        <ele>509.1</ele>
        <time>2022-06-11T10:06:29Z</time>
      </trkpt>
      <trkpt lat="44.0879" lon="7.10508">
        <ele>509.2</ele>
        <time>2022-06-11T10:06:30Z</time>
      </trkpt>
      <trkpt lat="44.08789" lon="7.10506">
        <ele>509.3</ele>
        <time>2022-06-11T10:06:31Z</time>
      </trkpt>
      <trkpt lat="44.08788" lon="7.10504">
        <ele>509.4</ele>
        <time>2022-06-11T10:06:32Z</time>
      </trkpt>
      <trkpt lat="44.08787" lon="7.10501">
        <ele>509.4</ele>
        <time>2022-06-11T10:06:33Z</time>
      </trkpt>
      <trkpt lat="44.08786" lon="7.10498">
        <ele>509.4</ele>
        <time>2022-06-11T10:06:34Z</time>
      </trkpt>
      <trkpt lat="44.08784" lon="7.10495">
        <ele>509.7</ele>
        <time>2022-06-11T10:06:35Z</time>
      </trkpt>
      <trkpt lat="44.08784" lon="7.10492">
        <ele>510.3</ele>
        <time>2022-06-11T10:06:36Z</time>
      </trkpt>
      <trkpt lat="44.08783" lon="7.10489">
        <ele>510.8</ele>
        <time>2022-06-11T10:06:37Z</time>
      </trkpt>
      <trkpt lat="44.08783" lon="7.10486">
        <ele>511.5</ele>
        <time>2022-06-11T10:06:38Z</time>
      </trkpt>
      <trkpt lat="44.08783" lon="7.10483">
        <ele>512.7</ele>
        <time>2022-06-11T10:06:39Z</time>
      </trkpt>
      <trkpt lat="44.08783" lon="7.10479">
        <ele>513.5</ele>
        <time>2022-06-11T10:06:40Z</time>
      </trkpt>
      <trkpt lat="44.08783" lon="7.10476">
        <ele>514.6</ele>
        <time>2022-06-11T10:06:41Z</time>
      </trkpt>
      <trkpt lat="44.08783" lon="7.10473">
        <ele>515.4</ele>
        <time>2022-06-11T10:06:42Z</time>
      </trkpt>
      <trkpt lat="44.08782" lon="7.1047">
        <ele>516.2</ele>
        <time>2022-06-11T10:06:43Z</time>
      </trkpt>
      <trkpt lat="44.08782" lon="7.10467">
        <ele>517</ele>
        <time>2022-06-11T10:06:44Z</time>
      </trkpt>
      <trkpt lat="44.08781" lon="7.10465">
        <ele>517.5</ele>
        <time>2022-06-11T10:06:45Z</time>
      </trkpt>
      <trkpt lat="44.08781" lon="7.10463">
        <ele>518.3</ele>
        <time>2022-06-11T10:06:46Z</time>
      </trkpt>
      <trkpt lat="44.0878" lon="7.10461">
        <ele>518.7</ele>
        <time>2022-06-11T10:06:47Z</time>
      </trkpt>
      <trkpt lat="44.0878" lon="7.10459">
        <ele>519.4</ele>
        <time>2022-06-11T10:06:48Z</time>
      </trkpt>
      <trkpt lat="44.08779" lon="7.10456">
        <ele>520.1</ele>
        <time>2022-06-11T10:06:49Z</time>
      </trkpt>
      <trkpt lat="44.08778" lon="7.10454">
        <ele>520.4</ele>
        <time>2022-06-11T10:06:50Z</time>
      </trkpt>
      <trkpt lat="44.08776" lon="7.10452">
        <ele>520.3</ele>
        <time>2022-06-11T10:06:51Z</time>
      </trkpt>
      <trkpt lat="44.08774" lon="7.1045">
        <ele>520.3</ele>
        <time>2022-06-11T10:06:52Z</time>
      </trkpt>
      <trkpt lat="44.08773" lon="7.10447">
        <ele>520.7</ele>
        <time>2022-06-11T10:06:53Z</time>
      </trkpt>
      <trkpt lat="44.08771" lon="7.10445">
        <ele>520.7</ele>
        <time>2022-06-11T10:06:54Z</time>
      </trkpt>
      <trkpt lat="44.08769" lon="7.10442">
        <ele>521.1</ele>
        <time>2022-06-11T10:06:55Z</time>
      </trkpt>
      <trkpt lat="44.08767" lon="7.1044">
        <ele>521.3</ele>
        <time>2022-06-11T10:06:56Z</time>
      </trkpt>
      <trkpt lat="44.08765" lon="7.10439">
        <ele>521.1</ele>
        <time>2022-06-11T10:06:57Z</time>
      </trkpt>
      <trkpt lat="44.08763" lon="7.10437">
        <ele>521.1</ele>
        <time>2022-06-11T10:06:58Z</time>
      </trkpt>
      <trkpt lat="44.08761" lon="7.10434">
        <ele>521.3</ele>
        <time>2022-06-11T10:06:59Z</time>
      </trkpt>
      <trkpt lat="44.08759" lon="7.10432">
        <ele>521.2</ele>
        <time>2022-06-11T10:07:00Z</time>
      </trkpt>
      <trkpt lat="44.08757" lon="7.10431">
        <ele>521.1</ele>
        <time>2022-06-11T10:07:01Z</time>
      </trkpt>
      <trkpt lat="44.08755" lon="7.10429">
        <ele>520.8</ele>
        <time>2022-06-11T10:07:02Z</time>
      </trkpt>
      <trkpt lat="44.08752" lon="7.10427">
        <ele>520.5</ele>
        <time>2022-06-11T10:07:03Z</time>
      </trkpt>
      <trkpt lat="44.0875" lon="7.10426">
        <ele>520.3</ele>
        <time>2022-06-11T10:07:04Z</time>
      </trkpt>
      <trkpt lat="44.08748" lon="7.10424">
        <ele>520.2</ele>
        <time>2022-06-11T10:07:05Z</time>
      </trkpt>
      <trkpt lat="44.08746" lon="7.10422">
        <ele>520.2</ele>
        <time>2022-06-11T10:07:06Z</time>
      </trkpt>
      <trkpt lat="44.08744" lon="7.1042">
        <ele>520.2</ele>
        <time>2022-06-11T10:07:07Z</time>
      </trkpt>
      <trkpt lat="44.08742" lon="7.10418">
        <ele>520.3</ele>
        <time>2022-06-11T10:07:08Z</time>
      </trkpt>
      <trkpt lat="44.0874" lon="7.10416">
        <ele>520.6</ele>
        <time>2022-06-11T10:07:09Z</time>
      </trkpt>
      <trkpt lat="44.08738" lon="7.10415">
        <ele>520.6</ele>
        <time>2022-06-11T10:07:10Z</time>
      </trkpt>
      <trkpt lat="44.08736" lon="7.10413">
        <ele>520.8</ele>
        <time>2022-06-11T10:07:11Z</time>
      </trkpt>
      <trkpt lat="44.08734" lon="7.10411">
        <ele>521.1</ele>
        <time>2022-06-11T10:07:12Z</time>
      </trkpt>
      <trkpt lat="44.08732" lon="7.10409">
        <ele>521.4</ele>
        <time>2022-06-11T10:07:13Z</time>
      </trkpt>
      <trkpt lat="44.0873" lon="7.10407">
        <ele>521.4</ele>
        <time>2022-06-11T10:07:14Z</time>
      </trkpt>
      <trkpt lat="44.08728" lon="7.10406">
        <ele>521.4</ele>
        <time>2022-06-11T10:07:15Z</time>
      </trkpt>
      <trkpt lat="44.08726" lon="7.10404">
        <ele>521.7</ele>
        <time>2022-06-11T10:07:16Z</time>
      </trkpt>
      <trkpt lat="44.08724" lon="7.10402">
        <ele>522.1</ele>
        <time>2022-06-11T10:07:17Z</time>
      </trkpt>
      <trkpt lat="44.08723" lon="7.104">
        <ele>522.7</ele>
        <time>2022-06-11T10:07:18Z</time>
      </trkpt>
      <trkpt lat="44.08721" lon="7.10398">
        <ele>523.1</ele>
        <time>2022-06-11T10:07:19Z</time>
      </trkpt>
      <trkpt lat="44.08719" lon="7.10397">
        <ele>523.5</ele>
        <time>2022-06-11T10:07:20Z</time>
      </trkpt>
      <trkpt lat="44.08717" lon="7.10395">
        <ele>523.9</ele>
        <time>2022-06-11T10:07:21Z</time>
      </trkpt>
      <trkpt lat="44.08715" lon="7.10394">
        <ele>524.3</ele>
        <time>2022-06-11T10:07:22Z</time>
      </trkpt>
      <trkpt lat="44.08714" lon="7.10392">
        <ele>524.8</ele>
        <time>2022-06-11T10:07:23Z</time>
      </trkpt>
      <trkpt lat="44.08712" lon="7.1039">
        <ele>525.6</ele>
        <time>2022-06-11T10:07:24Z</time>
      </trkpt>
      <trkpt lat="44.0871" lon="7.10388">
        <ele>526.3</ele>
        <time>2022-06-11T10:07:25Z</time>
      </trkpt>
      <trkpt lat="44.08709" lon="7.10386">
        <ele>526.9</ele>
        <time>2022-06-11T10:07:26Z</time>
      </trkpt>
      <trkpt lat="44.08707" lon="7.10385">
        <ele>527.4</ele>
        <time>2022-06-11T10:07:27Z</time>
      </trkpt>
      <trkpt lat="44.08705" lon="7.10383">
        <ele>528.1</ele>
        <time>2022-06-11T10:07:28Z</time>
      </trkpt>
      <trkpt lat="44.08703" lon="7.10381">
        <ele>529</ele>
        <time>2022-06-11T10:07:29Z</time>
      </trkpt>
      <trkpt lat="44.08701" lon="7.10379">
        <ele>529.7</ele>
        <time>2022-06-11T10:07:30Z</time>
      </trkpt>
      <trkpt lat="44.08699" lon="7.10378">
        <ele>530.3</ele>
        <time>2022-06-11T10:07:31Z</time>
      </trkpt>
      <trkpt lat="44.08698" lon="7.10376">
        <ele>531</ele>
        <time>2022-06-11T10:07:32Z</time>
      </trkpt>
      <trkpt lat="44.08696" lon="7.10374">
        <ele>531.9</ele>
        <time>2022-06-11T10:07:33Z</time>
      </trkpt>
      <trkpt lat="44.08694" lon="7.10372">
        <ele>532.7</ele>
        <time>2022-06-11T10:07:34Z</time>
      </trkpt>
      <trkpt lat="44.08692" lon="7.10371">
        <ele>533.9</ele>
        <time>2022-06-11T10:07:35Z</time>
      </trkpt>
      <trkpt lat="44.08691" lon="7.10369">
        <ele>535</ele>
        <time>2022-06-11T10:07:36Z</time>
      </trkpt>
      <trkpt lat="44.08689" lon="7.10368">
        <ele>536.2</ele>
        <time>2022-06-11T10:07:37Z</time>
      </trkpt>
      <trkpt lat="44.08686" lon="7.10367">
        <ele>537.1</ele>
        <time>2022-06-11T10:07:38Z</time>
      </trkpt>
      <trkpt lat="44.08684" lon="7.10366">
        <ele>538.1</ele>
        <time>2022-06-11T10:07:39Z</time>
      </trkpt>
      <trkpt lat="44.08682" lon="7.10365">
        <ele>538.9</ele>
        <time>2022-06-11T10:07:40Z</time>
      </trkpt>
      <trkpt lat="44.0868" lon="7.10365">
        <ele>539.4</ele>
        <time>2022-06-11T10:07:41Z</time>
      </trkpt>
      <trkpt lat="44.08677" lon="7.10366">
        <ele>539.2</ele>
        <time>2022-06-11T10:07:42Z</time>
      </trkpt>
      <trkpt lat="44.08675" lon="7.10366">
        <ele>539.1</ele>
        <time>2022-06-11T10:07:43Z</time>
      </trkpt>
      <trkpt lat="44.08673" lon="7.10367">
        <ele>539</ele>
        <time>2022-06-11T10:07:44Z</time>
      </trkpt>
      <trkpt lat="44.0867" lon="7.10368">
        <ele>538.9</ele>
        <time>2022-06-11T10:07:45Z</time>
      </trkpt>
      <trkpt lat="44.08668" lon="7.10369">
        <ele>538</ele>
        <time>2022-06-11T10:07:46Z</time>
      </trkpt>
      <trkpt lat="44.08666" lon="7.10371">
        <ele>537</ele>
        <time>2022-06-11T10:07:47Z</time>
      </trkpt>
      <trkpt lat="44.08664" lon="7.10373">
        <ele>536.4</ele>
        <time>2022-06-11T10:07:48Z</time>
      </trkpt>
      <trkpt lat="44.08661" lon="7.10374">
        <ele>536</ele>
        <time>2022-06-11T10:07:49Z</time>
      </trkpt>
      <trkpt lat="44.08659" lon="7.10375">
        <ele>535.6</ele>
        <time>2022-06-11T10:07:50Z</time>
      </trkpt>
      <trkpt lat="44.08657" lon="7.10377">
        <ele>534.5</ele>
        <time>2022-06-11T10:07:51Z</time>
      </trkpt>
      <trkpt lat="44.08654" lon="7.10379">
        <ele>534.1</ele>
        <time>2022-06-11T10:07:52Z</time>
      </trkpt>
      <trkpt lat="44.08652" lon="7.10379">
        <ele>534.1</ele>
        <time>2022-06-11T10:07:53Z</time>
      </trkpt>
      <trkpt lat="44.0865" lon="7.1038">
        <ele>534.2</ele>
        <time>2022-06-11T10:07:54Z</time>
      </trkpt>
      <trkpt lat="44.08647" lon="7.1038">
        <ele>534.6</ele>
        <time>2022-06-11T10:07:55Z</time>
      </trkpt>
      <trkpt lat="44.08645" lon="7.10381">
        <ele>534.5</ele>
        <time>2022-06-11T10:07:56Z</time>
      </trkpt>
      <trkpt lat="44.08643" lon="7.10382">
        <ele>534.4</ele>
        <time>2022-06-11T10:07:57Z</time>
      </trkpt>
      <trkpt lat="44.08641" lon="7.10382">
        <ele>534.5</ele>
        <time>2022-06-11T10:07:58Z</time>
      </trkpt>
      <trkpt lat="44.08638" lon="7.10383">
        <ele>534.5</ele>
        <time>2022-06-11T10:07:59Z</time>
      </trkpt>
      <trkpt lat="44.08635" lon="7.10383">
        <ele>534.4</ele>
        <time>2022-06-11T10:08:00Z</time>
      </trkpt>
      <trkpt lat="44.08633" lon="7.10383">
        <ele>534.3</ele>
        <time>2022-06-11T10:08:01Z</time>
      </trkpt>
      <trkpt lat="44.08631" lon="7.10383">
        <ele>534.4</ele>
        <time>2022-06-11T10:08:02Z</time>
      </trkpt>
      <trkpt lat="44.08628" lon="7.10383">
        <ele>534.1</ele>
        <time>2022-06-11T10:08:03Z</time>
      </trkpt>
      <trkpt lat="44.08626" lon="7.10383">
        <ele>534.2</ele>
        <time>2022-06-11T10:08:04Z</time>
      </trkpt>
      <trkpt lat="44.08624" lon="7.10383">
        <ele>534.6</ele>
        <time>2022-06-11T10:08:05Z</time>
      </trkpt>
      <trkpt lat="44.08622" lon="7.10382">
        <ele>535</ele>
        <time>2022-06-11T10:08:06Z</time>
      </trkpt>
      <trkpt lat="44.0862" lon="7.10381">
        <ele>535.6</ele>
        <time>2022-06-11T10:08:07Z</time>
      </trkpt>
      <trkpt lat="44.08617" lon="7.1038">
        <ele>536.2</ele>
        <time>2022-06-11T10:08:08Z</time>
      </trkpt>
      <trkpt lat="44.08615" lon="7.10379">
        <ele>536.9</ele>
        <time>2022-06-11T10:08:09Z</time>
      </trkpt>
      <trkpt lat="44.08613" lon="7.10378">
        <ele>537.6</ele>
        <time>2022-06-11T10:08:10Z</time>
      </trkpt>
      <trkpt lat="44.08611" lon="7.10376">
        <ele>538.6</ele>
        <time>2022-06-11T10:08:11Z</time>
      </trkpt>
      <trkpt lat="44.08609" lon="7.10374">
        <ele>539.1</ele>
        <time>2022-06-11T10:08:12Z</time>
      </trkpt>
      <trkpt lat="44.08607" lon="7.10372">
        <ele>539.9</ele>
        <time>2022-06-11T10:08:13Z</time>
      </trkpt>
      <trkpt lat="44.08605" lon="7.1037">
        <ele>540.5</ele>
        <time>2022-06-11T10:08:14Z</time>
      </trkpt>
      <trkpt lat="44.08604" lon="7.10368">
        <ele>541.2</ele>
        <time>2022-06-11T10:08:15Z</time>
      </trkpt>
      <trkpt lat="44.08603" lon="7.10365">
        <ele>542.1</ele>
        <time>2022-06-11T10:08:16Z</time>
      </trkpt>
      <trkpt lat="44.08601" lon="7.10363">
        <ele>542.6</ele>
        <time>2022-06-11T10:08:17Z</time>
      </trkpt>
      <trkpt lat="44.08599" lon="7.10362">
        <ele>542.9</ele>
        <time>2022-06-11T10:08:18Z</time>
      </trkpt>
      <trkpt lat="44.08597" lon="7.1036">
        <ele>543</ele>
        <time>2022-06-11T10:08:19Z</time>
      </trkpt>
      <trkpt lat="44.08595" lon="7.10359">
        <ele>542.8</ele>
        <time>2022-06-11T10:08:20Z</time>
      </trkpt>
      <trkpt lat="44.08593" lon="7.10357">
        <ele>542.8</ele>
        <time>2022-06-11T10:08:21Z</time>
      </trkpt>
      <trkpt lat="44.08593" lon="7.10354">
        <ele>543.6</ele>
        <time>2022-06-11T10:08:22Z</time>
      </trkpt>
      <trkpt lat="44.08591" lon="7.10352">
        <ele>543.8</ele>
        <time>2022-06-11T10:08:23Z</time>
      </trkpt>
      <trkpt lat="44.08589" lon="7.1035">
        <ele>543.8</ele>
        <time>2022-06-11T10:08:24Z</time>
      </trkpt>
      <trkpt lat="44.08587" lon="7.10348">
        <ele>543.6</ele>
        <time>2022-06-11T10:08:25Z</time>
      </trkpt>
      <trkpt lat="44.08585" lon="7.10346">
        <ele>543.5</ele>
        <time>2022-06-11T10:08:26Z</time>
      </trkpt>
      <trkpt lat="44.08583" lon="7.10345">
        <ele>543.2</ele>
        <time>2022-06-11T10:08:27Z</time>
      </trkpt>
      <trkpt lat="44.08582" lon="7.10342">
        <ele>543.1</ele>
        <time>2022-06-11T10:08:28Z</time>
      </trkpt>
      <trkpt lat="44.0858" lon="7.1034">
        <ele>542.9</ele>
        <time>2022-06-11T10:08:29Z</time>
      </trkpt>
      <trkpt lat="44.08579" lon="7.10337">
        <ele>542.8</ele>
        <time>2022-06-11T10:08:30Z</time>
      </trkpt>
      <trkpt lat="44.08578" lon="7.10335">
        <ele>542.6</ele>
        <time>2022-06-11T10:08:31Z</time>
      </trkpt>
      <trkpt lat="44.08576" lon="7.10332">
        <ele>542.4</ele>
        <time>2022-06-11T10:08:32Z</time>
      </trkpt>
      <trkpt lat="44.08575" lon="7.10329">
        <ele>542.4</ele>
        <time>2022-06-11T10:08:33Z</time>
      </trkpt>
      <trkpt lat="44.08574" lon="7.10327">
        <ele>542.1</ele>
        <time>2022-06-11T10:08:34Z</time>
      </trkpt>
      <trkpt lat="44.08573" lon="7.10324">
        <ele>542</ele>
        <time>2022-06-11T10:08:35Z</time>
      </trkpt>
      <trkpt lat="44.08571" lon="7.10321">
        <ele>541.9</ele>
        <time>2022-06-11T10:08:36Z</time>
      </trkpt>
      <trkpt lat="44.0857" lon="7.10319">
        <ele>541.7</ele>
        <time>2022-06-11T10:08:37Z</time>
      </trkpt>
      <trkpt lat="44.08569" lon="7.10316">
        <ele>541.5</ele>
        <time>2022-06-11T10:08:38Z</time>
      </trkpt>
      <trkpt lat="44.08568" lon="7.10314">
        <ele>541.4</ele>
        <time>2022-06-11T10:08:39Z</time>
      </trkpt>
      <trkpt lat="44.08567" lon="7.10311">
        <ele>541.4</ele>
        <time>2022-06-11T10:08:40Z</time>
      </trkpt>
      <trkpt lat="44.08566" lon="7.10308">
        <ele>541.3</ele>
        <time>2022-06-11T10:08:41Z</time>
      </trkpt>
      <trkpt lat="44.08565" lon="7.10305">
        <ele>541.2</ele>
        <time>2022-06-11T10:08:42Z</time>
      </trkpt>
      <trkpt lat="44.08564" lon="7.10303">
        <ele>541</ele>
        <time>2022-06-11T10:08:43Z</time>
      </trkpt>
      <trkpt lat="44.08563" lon="7.103">
        <ele>540.9</ele>
        <time>2022-06-11T10:08:44Z</time>
      </trkpt>
      <trkpt lat="44.08562" lon="7.10297">
        <ele>540.7</ele>
        <time>2022-06-11T10:08:45Z</time>
      </trkpt>
      <trkpt lat="44.08562" lon="7.10295">
        <ele>540.9</ele>
        <time>2022-06-11T10:08:46Z</time>
      </trkpt>
      <trkpt lat="44.08562" lon="7.10292">
        <ele>541.3</ele>
        <time>2022-06-11T10:08:47Z</time>
      </trkpt>
      <trkpt lat="44.08562" lon="7.10288">
        <ele>542.1</ele>
        <time>2022-06-11T10:08:48Z</time>
      </trkpt>
      <trkpt lat="44.08562" lon="7.10285">
        <ele>542.9</ele>
        <time>2022-06-11T10:08:49Z</time>
      </trkpt>
      <trkpt lat="44.08563" lon="7.10282">
        <ele>543.9</ele>
        <time>2022-06-11T10:08:50Z</time>
      </trkpt>
      <trkpt lat="44.08563" lon="7.10279">
        <ele>544.9</ele>
        <time>2022-06-11T10:08:51Z</time>
      </trkpt>
      <trkpt lat="44.08564" lon="7.10277">
        <ele>546.1</ele>
        <time>2022-06-11T10:08:52Z</time>
      </trkpt>
      <trkpt lat="44.08565" lon="7.10274">
        <ele>547.2</ele>
        <time>2022-06-11T10:08:53Z</time>
      </trkpt>
      <trkpt lat="44.08566" lon="7.10272">
        <ele>548.6</ele>
        <time>2022-06-11T10:08:54Z</time>
      </trkpt>
      <trkpt lat="44.08566" lon="7.10269">
        <ele>549.7</ele>
        <time>2022-06-11T10:08:55Z</time>
      </trkpt>
      <trkpt lat="44.08566" lon="7.10266">
        <ele>550.1</ele>
        <time>2022-06-11T10:08:56Z</time>
      </trkpt>
      <trkpt lat="44.08566" lon="7.10263">
        <ele>550.7</ele>
        <time>2022-06-11T10:08:57Z</time>
      </trkpt>
      <trkpt lat="44.08566" lon="7.1026">
        <ele>550.9</ele>
        <time>2022-06-11T10:08:58Z</time>
      </trkpt>
      <trkpt lat="44.08565" lon="7.10257">
        <ele>551.1</ele>
        <time>2022-06-11T10:08:59Z</time>
      </trkpt>
      <trkpt lat="44.08564" lon="7.10254">
        <ele>551</ele>
        <time>2022-06-11T10:09:00Z</time>
      </trkpt>
      <trkpt lat="44.08564" lon="7.10251">
        <ele>551.1</ele>
        <time>2022-06-11T10:09:01Z</time>
      </trkpt>
      <trkpt lat="44.08562" lon="7.10248">
        <ele>550.7</ele>
        <time>2022-06-11T10:09:02Z</time>
      </trkpt>
      <trkpt lat="44.08561" lon="7.10245">
        <ele>550.5</ele>
        <time>2022-06-11T10:09:03Z</time>
      </trkpt>
      <trkpt lat="44.08561" lon="7.10242">
        <ele>550.4</ele>
        <time>2022-06-11T10:09:04Z</time>
      </trkpt>
      <trkpt lat="44.0856" lon="7.10239">
        <ele>550.4</ele>
        <time>2022-06-11T10:09:05Z</time>
      </trkpt>
      <trkpt lat="44.08559" lon="7.10235">
        <ele>550.6</ele>
        <time>2022-06-11T10:09:06Z</time>
      </trkpt>
      <trkpt lat="44.08559" lon="7.10232">
        <ele>550.5</ele>
        <time>2022-06-11T10:09:07Z</time>
      </trkpt>
      <trkpt lat="44.08558" lon="7.1023">
        <ele>550.3</ele>
        <time>2022-06-11T10:09:08Z</time>
      </trkpt>
      <trkpt lat="44.08557" lon="7.10226">
        <ele>550.4</ele>
        <time>2022-06-11T10:09:09Z</time>
      </trkpt>
      <trkpt lat="44.08556" lon="7.10223">
        <ele>550.4</ele>
        <time>2022-06-11T10:09:10Z</time>
      </trkpt>
      <trkpt lat="44.08556" lon="7.1022">
        <ele>550.7</ele>
        <time>2022-06-11T10:09:11Z</time>
      </trkpt>
      <trkpt lat="44.08556" lon="7.10217">
        <ele>551.2</ele>
        <time>2022-06-11T10:09:12Z</time>
      </trkpt>
      <trkpt lat="44.08555" lon="7.10215">
        <ele>551.8</ele>
        <time>2022-06-11T10:09:13Z</time>
      </trkpt>
      <trkpt lat="44.08555" lon="7.10212">
        <ele>551.9</ele>
        <time>2022-06-11T10:09:14Z</time>
      </trkpt>
      <trkpt lat="44.08554" lon="7.1021">
        <ele>552.1</ele>
        <time>2022-06-11T10:09:15Z</time>
      </trkpt>
      <trkpt lat="44.08553" lon="7.10207">
        <ele>552.3</ele>
        <time>2022-06-11T10:09:16Z</time>
      </trkpt>
      <trkpt lat="44.08552" lon="7.10204">
        <ele>552.6</ele>
        <time>2022-06-11T10:09:17Z</time>
      </trkpt>
      <trkpt lat="44.08551" lon="7.10201">
        <ele>552.7</ele>
        <time>2022-06-11T10:09:18Z</time>
      </trkpt>
      <trkpt lat="44.0855" lon="7.10199">
        <ele>552.5</ele>
        <time>2022-06-11T10:09:19Z</time>
      </trkpt>
      <trkpt lat="44.08549" lon="7.10197">
        <ele>552.3</ele>
        <time>2022-06-11T10:09:20Z</time>
      </trkpt>
      <trkpt lat="44.08547" lon="7.10194">
        <ele>552.2</ele>
        <time>2022-06-11T10:09:21Z</time>
      </trkpt>
      <trkpt lat="44.08546" lon="7.10192">
        <ele>552.2</ele>
        <time>2022-06-11T10:09:22Z</time>
      </trkpt>
      <trkpt lat="44.08544" lon="7.10189">
        <ele>552</ele>
        <time>2022-06-11T10:09:23Z</time>
      </trkpt>
      <trkpt lat="44.08543" lon="7.10187">
        <ele>551.8</ele>
        <time>2022-06-11T10:09:24Z</time>
      </trkpt>
      <trkpt lat="44.08542" lon="7.10183">
        <ele>552.3</ele>
        <time>2022-06-11T10:09:25Z</time>
      </trkpt>
      <trkpt lat="44.08541" lon="7.1018">
        <ele>553</ele>
        <time>2022-06-11T10:09:26Z</time>
      </trkpt>
      <trkpt lat="44.08541" lon="7.10176">
        <ele>553.9</ele>
        <time>2022-06-11T10:09:27Z</time>
      </trkpt>
      <trkpt lat="44.08541" lon="7.10173">
        <ele>554.7</ele>
        <time>2022-06-11T10:09:28Z</time>
      </trkpt>
      <trkpt lat="44.0854" lon="7.1017">
        <ele>555.5</ele>
        <time>2022-06-11T10:09:29Z</time>
      </trkpt>
      <trkpt lat="44.0854" lon="7.10166">
        <ele>556.4</ele>
        <time>2022-06-11T10:09:30Z</time>
      </trkpt>
      <trkpt lat="44.0854" lon="7.10163">
        <ele>557.4</ele>
        <time>2022-06-11T10:09:31Z</time>
      </trkpt>
      <trkpt lat="44.0854" lon="7.1016">
        <ele>558.5</ele>
        <time>2022-06-11T10:09:32Z</time>
      </trkpt>
      <trkpt lat="44.08539" lon="7.10157">
        <ele>559.2</ele>
        <time>2022-06-11T10:09:33Z</time>
      </trkpt>
      <trkpt lat="44.08539" lon="7.10154">
        <ele>560</ele>
        <time>2022-06-11T10:09:34Z</time>
      </trkpt>
      <trkpt lat="44.08538" lon="7.10151">
        <ele>560.7</ele>
        <time>2022-06-11T10:09:35Z</time>
      </trkpt>
      <trkpt lat="44.08537" lon="7.10148">
        <ele>561.3</ele>
        <time>2022-06-11T10:09:36Z</time>
      </trkpt>
      <trkpt lat="44.08536" lon="7.10146">
        <ele>561.6</ele>
        <time>2022-06-11T10:09:37Z</time>
      </trkpt>
      <trkpt lat="44.08535" lon="7.10143">
        <ele>561.7</ele>
        <time>2022-06-11T10:09:38Z</time>
      </trkpt>
      <trkpt lat="44.08534" lon="7.10141">
        <ele>562</ele>
        <time>2022-06-11T10:09:39Z</time>
      </trkpt>
      <trkpt lat="44.08532" lon="7.10139">
        <ele>562</ele>
        <time>2022-06-11T10:09:40Z</time>
      </trkpt>
      <trkpt lat="44.0853" lon="7.10136">
        <ele>562.1</ele>
        <time>2022-06-11T10:09:41Z</time>
      </trkpt>
      <trkpt lat="44.08529" lon="7.10134">
        <ele>562.2</ele>
        <time>2022-06-11T10:09:42Z</time>
      </trkpt>
      <trkpt lat="44.08527" lon="7.10132">
        <ele>562.3</ele>
        <time>2022-06-11T10:09:43Z</time>
      </trkpt>
      <trkpt lat="44.08526" lon="7.1013">
        <ele>562.5</ele>
        <time>2022-06-11T10:09:44Z</time>
      </trkpt>
      <trkpt lat="44.08524" lon="7.1013">
        <ele>562.2</ele>
        <time>2022-06-11T10:09:45Z</time>
      </trkpt>
      <trkpt lat="44.08522" lon="7.10129">
        <ele>561.8</ele>
        <time>2022-06-11T10:09:46Z</time>
      </trkpt>
      <trkpt lat="44.0852" lon="7.10129">
        <ele>561.2</ele>
        <time>2022-06-11T10:09:47Z</time>
      </trkpt>
      <trkpt lat="44.08518" lon="7.10129">
        <ele>560.8</ele>
        <time>2022-06-11T10:09:48Z</time>
      </trkpt>
      <trkpt lat="44.08516" lon="7.10128">
        <ele>560.3</ele>
        <time>2022-06-11T10:09:49Z</time>
      </trkpt>
      <trkpt lat="44.08513" lon="7.10128">
        <ele>559.9</ele>
        <time>2022-06-11T10:09:50Z</time>
      </trkpt>
      <trkpt lat="44.08511" lon="7.10127">
        <ele>559.5</ele>
        <time>2022-06-11T10:09:51Z</time>
      </trkpt>
      <trkpt lat="44.08508" lon="7.10127">
        <ele>558.8</ele>
        <time>2022-06-11T10:09:52Z</time>
      </trkpt>
      <trkpt lat="44.08506" lon="7.10126">
        <ele>558.4</ele>
        <time>2022-06-11T10:09:53Z</time>
      </trkpt>
      <trkpt lat="44.08504" lon="7.10125">
        <ele>558</ele>
        <time>2022-06-11T10:09:54Z</time>
      </trkpt>
      <trkpt lat="44.08502" lon="7.10125">
        <ele>557.5</ele>
        <time>2022-06-11T10:09:55Z</time>
      </trkpt>
      <trkpt lat="44.085" lon="7.10125">
        <ele>556.9</ele>
        <time>2022-06-11T10:09:56Z</time>
      </trkpt>
      <trkpt lat="44.08497" lon="7.10125">
        <ele>556.3</ele>
        <time>2022-06-11T10:09:57Z</time>
      </trkpt>
      <trkpt lat="44.08495" lon="7.10125">
        <ele>555.6</ele>
        <time>2022-06-11T10:09:58Z</time>
      </trkpt>
      <trkpt lat="44.08492" lon="7.10125">
        <ele>554.9</ele>
        <time>2022-06-11T10:09:59Z</time>
      </trkpt>
      <trkpt lat="44.0849" lon="7.10125">
        <ele>554.2</ele>
        <time>2022-06-11T10:10:00Z</time>
      </trkpt>
      <trkpt lat="44.08488" lon="7.10125">
        <ele>553.4</ele>
        <time>2022-06-11T10:10:01Z</time>
      </trkpt>
      <trkpt lat="44.08486" lon="7.10126">
        <ele>552.5</ele>
        <time>2022-06-11T10:10:02Z</time>
      </trkpt>
      <trkpt lat="44.08483" lon="7.10127">
        <ele>551.5</ele>
        <time>2022-06-11T10:10:03Z</time>
      </trkpt>
      <trkpt lat="44.08481" lon="7.10128">
        <ele>550.6</ele>
        <time>2022-06-11T10:10:04Z</time>
      </trkpt>
      <trkpt lat="44.08479" lon="7.10128">
        <ele>549.9</ele>
        <time>2022-06-11T10:10:05Z</time>
      </trkpt>
      <trkpt lat="44.08476" lon="7.10129">
        <ele>549.1</ele>
        <time>2022-06-11T10:10:06Z</time>
      </trkpt>
      <trkpt lat="44.08474" lon="7.10128">
        <ele>548.5</ele>
        <time>2022-06-11T10:10:07Z</time>
      </trkpt>
      <trkpt lat="44.08471" lon="7.10127">
        <ele>548</ele>
        <time>2022-06-11T10:10:08Z</time>
      </trkpt>
      <trkpt lat="44.0847" lon="7.10125">
        <ele>547.8</ele>
        <time>2022-06-11T10:10:09Z</time>
      </trkpt>
      <trkpt lat="44.08468" lon="7.10122">
        <ele>548</ele>
        <time>2022-06-11T10:10:10Z</time>
      </trkpt>
      <trkpt lat="44.08468" lon="7.1012">
        <ele>548.7</ele>
        <time>2022-06-11T10:10:11Z</time>
      </trkpt>
      <trkpt lat="44.08469" lon="7.10116">
        <ele>549.8</ele>
        <time>2022-06-11T10:10:12Z</time>
      </trkpt>
      <trkpt lat="44.0847" lon="7.10114">
        <ele>551</ele>
        <time>2022-06-11T10:10:13Z</time>
      </trkpt>
      <trkpt lat="44.08471" lon="7.10112">
        <ele>552.3</ele>
        <time>2022-06-11T10:10:14Z</time>
      </trkpt>
      <trkpt lat="44.08474" lon="7.10111">
        <ele>553.6</ele>
        <time>2022-06-11T10:10:15Z</time>
      </trkpt>
      <trkpt lat="44.08476" lon="7.10111">
        <ele>554.4</ele>
        <time>2022-06-11T10:10:16Z</time>
      </trkpt>
      <trkpt lat="44.08478" lon="7.10111">
        <ele>555</ele>
        <time>2022-06-11T10:10:17Z</time>
      </trkpt>
      <trkpt lat="44.08481" lon="7.10112">
        <ele>555.7</ele>
        <time>2022-06-11T10:10:18Z</time>
      </trkpt>
      <trkpt lat="44.08484" lon="7.10112">
        <ele>556.5</ele>
        <time>2022-06-11T10:10:19Z</time>
      </trkpt>
      <trkpt lat="44.08486" lon="7.10112">
        <ele>557.1</ele>
        <time>2022-06-11T10:10:20Z</time>
      </trkpt>
      <trkpt lat="44.08488" lon="7.10112">
        <ele>557.9</ele>
        <time>2022-06-11T10:10:21Z</time>
      </trkpt>
      <trkpt lat="44.0849" lon="7.10113">
        <ele>558.4</ele>
        <time>2022-06-11T10:10:22Z</time>
      </trkpt>
      <trkpt lat="44.08493" lon="7.10113">
        <ele>558.9</ele>
        <time>2022-06-11T10:10:23Z</time>
      </trkpt>
      <trkpt lat="44.08495" lon="7.10114">
        <ele>559.2</ele>
        <time>2022-06-11T10:10:24Z</time>
      </trkpt>
      <trkpt lat="44.08497" lon="7.10115">
        <ele>559.7</ele>
        <time>2022-06-11T10:10:25Z</time>
      </trkpt>
      <trkpt lat="44.08499" lon="7.10115">
        <ele>560.3</ele>
        <time>2022-06-11T10:10:26Z</time>
      </trkpt>
      <trkpt lat="44.08501" lon="7.10115">
        <ele>560.8</ele>
        <time>2022-06-11T10:10:27Z</time>
      </trkpt>
      <trkpt lat="44.08503" lon="7.10115">
        <ele>561.4</ele>
        <time>2022-06-11T10:10:28Z</time>
      </trkpt>
      <trkpt lat="44.08505" lon="7.10116">
        <ele>561.8</ele>
        <time>2022-06-11T10:10:29Z</time>
      </trkpt>
      <trkpt lat="44.08507" lon="7.10117">
        <ele>562.1</ele>
        <time>2022-06-11T10:10:30Z</time>
      </trkpt>
      <trkpt lat="44.08509" lon="7.10118">
        <ele>562.3</ele>
        <time>2022-06-11T10:10:31Z</time>
      </trkpt>
      <trkpt lat="44.08511" lon="7.10118">
        <ele>562.7</ele>
        <time>2022-06-11T10:10:32Z</time>
      </trkpt>
      <trkpt lat="44.08514" lon="7.10119">
        <ele>563.2</ele>
        <time>2022-06-11T10:10:33Z</time>
      </trkpt>
      <trkpt lat="44.08516" lon="7.10119">
        <ele>563.6</ele>
        <time>2022-06-11T10:10:34Z</time>
      </trkpt>
      <trkpt lat="44.08518" lon="7.10119">
        <ele>564.1</ele>
        <time>2022-06-11T10:10:35Z</time>
      </trkpt>
      <trkpt lat="44.0852" lon="7.10118">
        <ele>565.2</ele>
        <time>2022-06-11T10:10:36Z</time>
      </trkpt>
      <trkpt lat="44.08523" lon="7.10118">
        <ele>566.2</ele>
        <time>2022-06-11T10:10:37Z</time>
      </trkpt>
      <trkpt lat="44.08525" lon="7.10118">
        <ele>566.7</ele>
        <time>2022-06-11T10:10:38Z</time>
      </trkpt>
      <trkpt lat="44.08527" lon="7.10118">
        <ele>567.3</ele>
        <time>2022-06-11T10:10:39Z</time>
      </trkpt>
      <trkpt lat="44.08529" lon="7.10118">
        <ele>568</ele>
        <time>2022-06-11T10:10:40Z</time>
      </trkpt>
      <trkpt lat="44.08531" lon="7.10118">
        <ele>568.7</ele>
        <time>2022-06-11T10:10:41Z</time>
      </trkpt>
      <trkpt lat="44.08533" lon="7.10118">
        <ele>569.6</ele>
        <time>2022-06-11T10:10:42Z</time>
      </trkpt>
      <trkpt lat="44.08535" lon="7.10119">
        <ele>570.3</ele>
        <time>2022-06-11T10:10:43Z</time>
      </trkpt>
      <trkpt lat="44.08537" lon="7.1012">
        <ele>571</ele>
        <time>2022-06-11T10:10:44Z</time>
      </trkpt>
      <trkpt lat="44.08539" lon="7.10121">
        <ele>571.6</ele>
        <time>2022-06-11T10:10:45Z</time>
      </trkpt>
      <trkpt lat="44.08541" lon="7.10122">
        <ele>571.8</ele>
        <time>2022-06-11T10:10:46Z</time>
      </trkpt>
      <trkpt lat="44.08542" lon="7.10124">
        <ele>571.6</ele>
        <time>2022-06-11T10:10:47Z</time>
      </trkpt>
      <trkpt lat="44.08543" lon="7.10125">
        <ele>571.9</ele>
        <time>2022-06-11T10:10:48Z</time>
      </trkpt>
      <trkpt lat="44.08545" lon="7.10127">
        <ele>572.3</ele>
        <time>2022-06-11T10:10:49Z</time>
      </trkpt>
      <trkpt lat="44.08547" lon="7.10128">
        <ele>572.6</ele>
        <time>2022-06-11T10:10:50Z</time>
      </trkpt>
      <trkpt lat="44.08549" lon="7.1013">
        <ele>572.8</ele>
        <time>2022-06-11T10:10:51Z</time>
      </trkpt>
      <trkpt lat="44.08551" lon="7.10133">
        <ele>572.5</ele>
        <time>2022-06-11T10:10:52Z</time>
      </trkpt>
      <trkpt lat="44.08552" lon="7.10136">
        <ele>572.4</ele>
        <time>2022-06-11T10:10:53Z</time>
      </trkpt>
      <trkpt lat="44.08553" lon="7.10139">
        <ele>572.1</ele>
        <time>2022-06-11T10:10:54Z</time>
      </trkpt>
      <trkpt lat="44.08555" lon="7.10141">
        <ele>571.8</ele>
        <time>2022-06-11T10:10:55Z</time>
      </trkpt>
      <trkpt lat="44.08556" lon="7.10143">
        <ele>571.9</ele>
        <time>2022-06-11T10:10:56Z</time>
      </trkpt>
      <trkpt lat="44.08557" lon="7.10146">
        <ele>571.9</ele>
        <time>2022-06-11T10:10:57Z</time>
      </trkpt>
      <trkpt lat="44.08559" lon="7.10148">
        <ele>572.1</ele>
        <time>2022-06-11T10:10:58Z</time>
      </trkpt>
      <trkpt lat="44.0856" lon="7.1015">
        <ele>572.3</ele>
        <time>2022-06-11T10:10:59Z</time>
      </trkpt>
      <trkpt lat="44.08562" lon="7.10153">
        <ele>572.3</ele>
        <time>2022-06-11T10:11:00Z</time>
      </trkpt>
      <trkpt lat="44.08563" lon="7.10155">
        <ele>572.1</ele>
        <time>2022-06-11T10:11:01Z</time>
      </trkpt>
      <trkpt lat="44.08563" lon="7.10158">
        <ele>571.8</ele>
        <time>2022-06-11T10:11:02Z</time>
      </trkpt>
      <trkpt lat="44.08565" lon="7.1016">
        <ele>572</ele>
        <time>2022-06-11T10:11:03Z</time>
      </trkpt>
      <trkpt lat="44.08566" lon="7.10163">
        <ele>572.3</ele>
        <time>2022-06-11T10:11:04Z</time>
      </trkpt>
      <trkpt lat="44.08567" lon="7.10165">
        <ele>572.6</ele>
        <time>2022-06-11T10:11:05Z</time>
      </trkpt>
      <trkpt lat="44.08569" lon="7.10168">
        <ele>572.7</ele>
        <time>2022-06-11T10:11:06Z</time>
      </trkpt>
      <trkpt lat="44.0857" lon="7.10171">
        <ele>572.6</ele>
        <time>2022-06-11T10:11:07Z</time>
      </trkpt>
      <trkpt lat="44.08571" lon="7.10174">
        <ele>572.7</ele>
        <time>2022-06-11T10:11:08Z</time>
      </trkpt>
      <trkpt lat="44.08572" lon="7.10177">
        <ele>572.9</ele>
        <time>2022-06-11T10:11:09Z</time>
      </trkpt>
      <trkpt lat="44.08573" lon="7.1018">
        <ele>572.9</ele>
        <time>2022-06-11T10:11:10Z</time>
      </trkpt>
      <trkpt lat="44.08574" lon="7.10183">
        <ele>572.7</ele>
        <time>2022-06-11T10:11:11Z</time>
      </trkpt>
      <trkpt lat="44.08575" lon="7.10186">
        <ele>572.6</ele>
        <time>2022-06-11T10:11:12Z</time>
      </trkpt>
      <trkpt lat="44.08576" lon="7.10189">
        <ele>572.6</ele>
        <time>2022-06-11T10:11:13Z</time>
      </trkpt>
      <trkpt lat="44.08576" lon="7.10192">
        <ele>572.5</ele>
        <time>2022-06-11T10:11:14Z</time>
      </trkpt>
      <trkpt lat="44.08577" lon="7.10195">
        <ele>572.4</ele>
        <time>2022-06-11T10:11:15Z</time>
      </trkpt>
      <trkpt lat="44.08578" lon="7.10197">
        <ele>572.2</ele>
        <time>2022-06-11T10:11:16Z</time>
      </trkpt>
      <trkpt lat="44.08578" lon="7.102">
        <ele>572</ele>
        <time>2022-06-11T10:11:17Z</time>
      </trkpt>
      <trkpt lat="44.0858" lon="7.10203">
        <ele>572.4</ele>
        <time>2022-06-11T10:11:18Z</time>
      </trkpt>
      <trkpt lat="44.08581" lon="7.10205">
        <ele>572.7</ele>
        <time>2022-06-11T10:11:19Z</time>
      </trkpt>
      <trkpt lat="44.08581" lon="7.10208">
        <ele>572.5</ele>
        <time>2022-06-11T10:11:20Z</time>
      </trkpt>
      <trkpt lat="44.08582" lon="7.1021">
        <ele>572.4</ele>
        <time>2022-06-11T10:11:21Z</time>
      </trkpt>
      <trkpt lat="44.08583" lon="7.10213">
        <ele>572.6</ele>
        <time>2022-06-11T10:11:22Z</time>
      </trkpt>
      <trkpt lat="44.08584" lon="7.10216">
        <ele>572.7</ele>
        <time>2022-06-11T10:11:23Z</time>
      </trkpt>
      <trkpt lat="44.08585" lon="7.10218">
        <ele>572.9</ele>
        <time>2022-06-11T10:11:24Z</time>
      </trkpt>
      <trkpt lat="44.08586" lon="7.1022">
        <ele>573.1</ele>
        <time>2022-06-11T10:11:25Z</time>
      </trkpt>
      <trkpt lat="44.08587" lon="7.10223">
        <ele>573.5</ele>
        <time>2022-06-11T10:11:26Z</time>
      </trkpt>
      <trkpt lat="44.08588" lon="7.10226">
        <ele>574.1</ele>
        <time>2022-06-11T10:11:27Z</time>
      </trkpt>
      <trkpt lat="44.0859" lon="7.10228">
        <ele>574.7</ele>
        <time>2022-06-11T10:11:28Z</time>
      </trkpt>
      <trkpt lat="44.08591" lon="7.10231">
        <ele>575.3</ele>
        <time>2022-06-11T10:11:29Z</time>
      </trkpt>
      <trkpt lat="44.08593" lon="7.10233">
        <ele>576.2</ele>
        <time>2022-06-11T10:11:30Z</time>
      </trkpt>
      <trkpt lat="44.08594" lon="7.10235">
        <ele>576.7</ele>
        <time>2022-06-11T10:11:31Z</time>
      </trkpt>
      <trkpt lat="44.08595" lon="7.10238">
        <ele>577.1</ele>
        <time>2022-06-11T10:11:32Z</time>
      </trkpt>
      <trkpt lat="44.08596" lon="7.10241">
        <ele>577.2</ele>
        <time>2022-06-11T10:11:33Z</time>
      </trkpt>
      <trkpt lat="44.08597" lon="7.10243">
        <ele>577.3</ele>
        <time>2022-06-11T10:11:34Z</time>
      </trkpt>
      <trkpt lat="44.08597" lon="7.10246">
        <ele>577.3</ele>
        <time>2022-06-11T10:11:35Z</time>
      </trkpt>
      <trkpt lat="44.08598" lon="7.10249">
        <ele>577.3</ele>
        <time>2022-06-11T10:11:36Z</time>
      </trkpt>
      <trkpt lat="44.08599" lon="7.10252">
        <ele>576.9</ele>
        <time>2022-06-11T10:11:37Z</time>
      </trkpt>
      <trkpt lat="44.08599" lon="7.10255">
        <ele>576.5</ele>
        <time>2022-06-11T10:11:38Z</time>
      </trkpt>
      <trkpt lat="44.08599" lon="7.10258">
        <ele>576</ele>
        <time>2022-06-11T10:11:39Z</time>
      </trkpt>
      <trkpt lat="44.08599" lon="7.10261">
        <ele>575.4</ele>
        <time>2022-06-11T10:11:40Z</time>
      </trkpt>
      <trkpt lat="44.086" lon="7.10265">
        <ele>574.8</ele>
        <time>2022-06-11T10:11:41Z</time>
      </trkpt>
      <trkpt lat="44.086" lon="7.10268">
        <ele>574.4</ele>
        <time>2022-06-11T10:11:42Z</time>
      </trkpt>
      <trkpt lat="44.08601" lon="7.10271">
        <ele>574.4</ele>
        <time>2022-06-11T10:11:43Z</time>
      </trkpt>
      <trkpt lat="44.08602" lon="7.10274">
        <ele>574.4</ele>
        <time>2022-06-11T10:11:44Z</time>
      </trkpt>
      <trkpt lat="44.08603" lon="7.10277">
        <ele>574.4</ele>
        <time>2022-06-11T10:11:45Z</time>
      </trkpt>
      <trkpt lat="44.08605" lon="7.1028">
        <ele>574.4</ele>
        <time>2022-06-11T10:11:46Z</time>
      </trkpt>
      <trkpt lat="44.08606" lon="7.10283">
        <ele>574.4</ele>
        <time>2022-06-11T10:11:47Z</time>
      </trkpt>
      <trkpt lat="44.08608" lon="7.10286">
        <ele>574.4</ele>
        <time>2022-06-11T10:11:48Z</time>
      </trkpt>
      <trkpt lat="44.08609" lon="7.10288">
        <ele>574.4</ele>
        <time>2022-06-11T10:11:49Z</time>
      </trkpt>
      <trkpt lat="44.08611" lon="7.10291">
        <ele>574.5</ele>
        <time>2022-06-11T10:11:50Z</time>
      </trkpt>
      <trkpt lat="44.08612" lon="7.10293">
        <ele>574.5</ele>
        <time>2022-06-11T10:11:51Z</time>
      </trkpt>
      <trkpt lat="44.08614" lon="7.10295">
        <ele>574.5</ele>
        <time>2022-06-11T10:11:52Z</time>
      </trkpt>
      <trkpt lat="44.08616" lon="7.10296">
        <ele>574.4</ele>
        <time>2022-06-11T10:11:53Z</time>
      </trkpt>
      <trkpt lat="44.08618" lon="7.10298">
        <ele>574.2</ele>
        <time>2022-06-11T10:11:54Z</time>
      </trkpt>
      <trkpt lat="44.08619" lon="7.103">
        <ele>573.9</ele>
        <time>2022-06-11T10:11:55Z</time>
      </trkpt>
      <trkpt lat="44.08621" lon="7.10302">
        <ele>573.7</ele>
        <time>2022-06-11T10:11:56Z</time>
      </trkpt>
      <trkpt lat="44.08623" lon="7.10304">
        <ele>573.4</ele>
        <time>2022-06-11T10:11:57Z</time>
      </trkpt>
      <trkpt lat="44.08624" lon="7.10306">
        <ele>573.2</ele>
        <time>2022-06-11T10:11:58Z</time>
      </trkpt>
      <trkpt lat="44.08626" lon="7.10308">
        <ele>573</ele>
        <time>2022-06-11T10:11:59Z</time>
      </trkpt>
      <trkpt lat="44.08628" lon="7.10309">
        <ele>572.8</ele>
        <time>2022-06-11T10:12:00Z</time>
      </trkpt>
      <trkpt lat="44.0863" lon="7.10311">
        <ele>572.7</ele>
        <time>2022-06-11T10:12:01Z</time>
      </trkpt>
      <trkpt lat="44.08632" lon="7.10312">
        <ele>572.7</ele>
        <time>2022-06-11T10:12:02Z</time>
      </trkpt>
      <trkpt lat="44.08634" lon="7.10313">
        <ele>572.7</ele>
        <time>2022-06-11T10:12:03Z</time>
      </trkpt>
      <trkpt lat="44.08636" lon="7.10314">
        <ele>572.8</ele>
        <time>2022-06-11T10:12:04Z</time>
      </trkpt>
      <trkpt lat="44.08638" lon="7.10316">
        <ele>572.8</ele>
        <time>2022-06-11T10:12:05Z</time>
      </trkpt>
      <trkpt lat="44.0864" lon="7.10316">
        <ele>572.8</ele>
        <time>2022-06-11T10:12:06Z</time>
      </trkpt>
      <trkpt lat="44.08641" lon="7.10316">
        <ele>572.8</ele>
        <time>2022-06-11T10:12:07Z</time>
      </trkpt>
      <trkpt lat="44.08643" lon="7.10316">
        <ele>572.7</ele>
        <time>2022-06-11T10:12:08Z</time>
      </trkpt>
      <trkpt lat="44.08645" lon="7.10316">
        <ele>572.8</ele>
        <time>2022-06-11T10:12:09Z</time>
      </trkpt>
      <trkpt lat="44.08647" lon="7.10316">
        <ele>572.8</ele>
        <time>2022-06-11T10:12:10Z</time>
      </trkpt>
      <trkpt lat="44.08649" lon="7.10315">
        <ele>573.2</ele>
        <time>2022-06-11T10:12:11Z</time>
      </trkpt>
      <trkpt lat="44.08652" lon="7.10314">
        <ele>573.5</ele>
        <time>2022-06-11T10:12:12Z</time>
      </trkpt>
      <trkpt lat="44.08654" lon="7.10314">
        <ele>573.6</ele>
        <time>2022-06-11T10:12:13Z</time>
      </trkpt>
      <trkpt lat="44.08656" lon="7.10313">
        <ele>573.9</ele>
        <time>2022-06-11T10:12:14Z</time>
      </trkpt>
      <trkpt lat="44.08658" lon="7.10312">
        <ele>574.4</ele>
        <time>2022-06-11T10:12:15Z</time>
      </trkpt>
      <trkpt lat="44.0866" lon="7.10311">
        <ele>574.9</ele>
        <time>2022-06-11T10:12:16Z</time>
      </trkpt>
      <trkpt lat="44.08662" lon="7.1031">
        <ele>575.4</ele>
        <time>2022-06-11T10:12:17Z</time>
      </trkpt>
      <trkpt lat="44.08664" lon="7.10309">
        <ele>576.1</ele>
        <time>2022-06-11T10:12:18Z</time>
      </trkpt>
      <trkpt lat="44.08666" lon="7.10308">
        <ele>576.7</ele>
        <time>2022-06-11T10:12:19Z</time>
      </trkpt>
      <trkpt lat="44.08668" lon="7.10307">
        <ele>576.9</ele>
        <time>2022-06-11T10:12:20Z</time>
      </trkpt>
      <trkpt lat="44.0867" lon="7.10306">
        <ele>576.9</ele>
        <time>2022-06-11T10:12:21Z</time>
      </trkpt>
      <trkpt lat="44.08672" lon="7.10305">
        <ele>576.8</ele>
        <time>2022-06-11T10:12:22Z</time>
      </trkpt>
      <trkpt lat="44.08675" lon="7.10304">
        <ele>576.9</ele>
        <time>2022-06-11T10:12:23Z</time>
      </trkpt>
      <trkpt lat="44.08677" lon="7.10303">
        <ele>576.9</ele>
        <time>2022-06-11T10:12:24Z</time>
      </trkpt>
      <trkpt lat="44.08679" lon="7.10303">
        <ele>576.7</ele>
        <time>2022-06-11T10:12:25Z</time>
      </trkpt>
      <trkpt lat="44.08681" lon="7.10302">
        <ele>576.8</ele>
        <time>2022-06-11T10:12:26Z</time>
      </trkpt>
      <trkpt lat="44.08683" lon="7.103">
        <ele>577.1</ele>
        <time>2022-06-11T10:12:27Z</time>
      </trkpt>
      <trkpt lat="44.08685" lon="7.10299">
        <ele>577.7</ele>
        <time>2022-06-11T10:12:28Z</time>
      </trkpt>
      <trkpt lat="44.08687" lon="7.10296">
        <ele>578.7</ele>
        <time>2022-06-11T10:12:29Z</time>
      </trkpt>
      <trkpt lat="44.08688" lon="7.10294">
        <ele>579.7</ele>
        <time>2022-06-11T10:12:30Z</time>
      </trkpt>
      <trkpt lat="44.0869" lon="7.10292">
        <ele>580.7</ele>
        <time>2022-06-11T10:12:31Z</time>
      </trkpt>
      <trkpt lat="44.08692" lon="7.1029">
        <ele>581.6</ele>
        <time>2022-06-11T10:12:32Z</time>
      </trkpt>
      <trkpt lat="44.08693" lon="7.10289">
        <ele>582.3</ele>
        <time>2022-06-11T10:12:33Z</time>
      </trkpt>
      <trkpt lat="44.08695" lon="7.10287">
        <ele>583.3</ele>
        <time>2022-06-11T10:12:34Z</time>
      </trkpt>
      <trkpt lat="44.08697" lon="7.10285">
        <ele>584</ele>
        <time>2022-06-11T10:12:35Z</time>
      </trkpt>
      <trkpt lat="44.08699" lon="7.10284">
        <ele>584.4</ele>
        <time>2022-06-11T10:12:36Z</time>
      </trkpt>
      <trkpt lat="44.08701" lon="7.10284">
        <ele>584.5</ele>
        <time>2022-06-11T10:12:37Z</time>
      </trkpt>
      <trkpt lat="44.08703" lon="7.10283">
        <ele>584.3</ele>
        <time>2022-06-11T10:12:38Z</time>
      </trkpt>
      <trkpt lat="44.08705" lon="7.10283">
        <ele>584.5</ele>
        <time>2022-06-11T10:12:39Z</time>
      </trkpt>
      <trkpt lat="44.08708" lon="7.10282">
        <ele>584.6</ele>
        <time>2022-06-11T10:12:40Z</time>
      </trkpt>
      <trkpt lat="44.0871" lon="7.10282">
        <ele>584.2</ele>
        <time>2022-06-11T10:12:41Z</time>
      </trkpt>
      <trkpt lat="44.08712" lon="7.10282">
        <ele>584</ele>
        <time>2022-06-11T10:12:42Z</time>
      </trkpt>
      <trkpt lat="44.08714" lon="7.10283">
        <ele>583.4</ele>
        <time>2022-06-11T10:12:43Z</time>
      </trkpt>
      <trkpt lat="44.08716" lon="7.10283">
        <ele>582.9</ele>
        <time>2022-06-11T10:12:44Z</time>
      </trkpt>
      <trkpt lat="44.08719" lon="7.10284">
        <ele>582.4</ele>
        <time>2022-06-11T10:12:45Z</time>
      </trkpt>
      <trkpt lat="44.08721" lon="7.10284">
        <ele>581.9</ele>
        <time>2022-06-11T10:12:46Z</time>
      </trkpt>
      <trkpt lat="44.08723" lon="7.10284">
        <ele>581.7</ele>
        <time>2022-06-11T10:12:47Z</time>
      </trkpt>
      <trkpt lat="44.08725" lon="7.10283">
        <ele>582.1</ele>
        <time>2022-06-11T10:12:48Z</time>
      </trkpt>
      <trkpt lat="44.08728" lon="7.10283">
        <ele>582.5</ele>
        <time>2022-06-11T10:12:49Z</time>
      </trkpt>
      <trkpt lat="44.0873" lon="7.10282">
        <ele>582.7</ele>
        <time>2022-06-11T10:12:50Z</time>
      </trkpt>
      <trkpt lat="44.08732" lon="7.10282">
        <ele>583</ele>
        <time>2022-06-11T10:12:51Z</time>
      </trkpt>
      <trkpt lat="44.08735" lon="7.10281">
        <ele>583.3</ele>
        <time>2022-06-11T10:12:52Z</time>
      </trkpt>
      <trkpt lat="44.08737" lon="7.10281">
        <ele>583.4</ele>
        <time>2022-06-11T10:12:53Z</time>
      </trkpt>
      <trkpt lat="44.08739" lon="7.10281">
        <ele>583.6</ele>
        <time>2022-06-11T10:12:54Z</time>
      </trkpt>
      <trkpt lat="44.08741" lon="7.10281">
        <ele>583.7</ele>
        <time>2022-06-11T10:12:55Z</time>
      </trkpt>
      <trkpt lat="44.08744" lon="7.1028">
        <ele>583.8</ele>
        <time>2022-06-11T10:12:56Z</time>
      </trkpt>
      <trkpt lat="44.08746" lon="7.1028">
        <ele>583.9</ele>
        <time>2022-06-11T10:12:57Z</time>
      </trkpt>
      <trkpt lat="44.08748" lon="7.1028">
        <ele>583.9</ele>
        <time>2022-06-11T10:12:58Z</time>
      </trkpt>
      <trkpt lat="44.08751" lon="7.1028">
        <ele>584.2</ele>
        <time>2022-06-11T10:12:59Z</time>
      </trkpt>
      <trkpt lat="44.08753" lon="7.1028">
        <ele>584.5</ele>
        <time>2022-06-11T10:13:00Z</time>
      </trkpt>
      <trkpt lat="44.08755" lon="7.1028">
        <ele>585</ele>
        <time>2022-06-11T10:13:01Z</time>
      </trkpt>
      <trkpt lat="44.08758" lon="7.10279">
        <ele>585.5</ele>
        <time>2022-06-11T10:13:02Z</time>
      </trkpt>
      <trkpt lat="44.0876" lon="7.1028">
        <ele>585.7</ele>
        <time>2022-06-11T10:13:03Z</time>
      </trkpt>
      <trkpt lat="44.08762" lon="7.1028">
        <ele>585.9</ele>
        <time>2022-06-11T10:13:04Z</time>
      </trkpt>
      <trkpt lat="44.08765" lon="7.10281">
        <ele>586</ele>
        <time>2022-06-11T10:13:05Z</time>
      </trkpt>
      <trkpt lat="44.08767" lon="7.10282">
        <ele>585.8</ele>
        <time>2022-06-11T10:13:06Z</time>
      </trkpt>
      <trkpt lat="44.08769" lon="7.10283">
        <ele>585.7</ele>
        <time>2022-06-11T10:13:07Z</time>
      </trkpt>
      <trkpt lat="44.08771" lon="7.10284">
        <ele>585.7</ele>
        <time>2022-06-11T10:13:08Z</time>
      </trkpt>
      <trkpt lat="44.08773" lon="7.10285">
        <ele>585.8</ele>
        <time>2022-06-11T10:13:09Z</time>
      </trkpt>
      <trkpt lat="44.08776" lon="7.10285">
        <ele>585.9</ele>
        <time>2022-06-11T10:13:10Z</time>
      </trkpt>
      <trkpt lat="44.08778" lon="7.10286">
        <ele>586.1</ele>
        <time>2022-06-11T10:13:11Z</time>
      </trkpt>
      <trkpt lat="44.0878" lon="7.10286">
        <ele>586.4</ele>
        <time>2022-06-11T10:13:12Z</time>
      </trkpt>
      <trkpt lat="44.08782" lon="7.10287">
        <ele>586.6</ele>
        <time>2022-06-11T10:13:13Z</time>
      </trkpt>
      <trkpt lat="44.08784" lon="7.10288">
        <ele>586.9</ele>
        <time>2022-06-11T10:13:14Z</time>
      </trkpt>
      <trkpt lat="44.08785" lon="7.10289">
        <ele>587.1</ele>
        <time>2022-06-11T10:13:15Z</time>
      </trkpt>
      <trkpt lat="44.08788" lon="7.1029">
        <ele>587.5</ele>
        <time>2022-06-11T10:13:16Z</time>
      </trkpt>
      <trkpt lat="44.0879" lon="7.10291">
        <ele>587.8</ele>
        <time>2022-06-11T10:13:17Z</time>
      </trkpt>
      <trkpt lat="44.08792" lon="7.10292">
        <ele>588</ele>
        <time>2022-06-11T10:13:18Z</time>
      </trkpt>
      <trkpt lat="44.08794" lon="7.10293">
        <ele>588.1</ele>
        <time>2022-06-11T10:13:19Z</time>
      </trkpt>
      <trkpt lat="44.08796" lon="7.10294">
        <ele>588.4</ele>
        <time>2022-06-11T10:13:20Z</time>
      </trkpt>
      <trkpt lat="44.08798" lon="7.10295">
        <ele>588.6</ele>
        <time>2022-06-11T10:13:21Z</time>
      </trkpt>
      <trkpt lat="44.088" lon="7.10296">
        <ele>588.7</ele>
        <time>2022-06-11T10:13:22Z</time>
      </trkpt>
      <trkpt lat="44.08802" lon="7.10297">
        <ele>589.1</ele>
        <time>2022-06-11T10:13:23Z</time>
      </trkpt>
      <trkpt lat="44.08804" lon="7.10297">
        <ele>589.5</ele>
        <time>2022-06-11T10:13:24Z</time>
      </trkpt>
      <trkpt lat="44.08806" lon="7.10298">
        <ele>589.8</ele>
        <time>2022-06-11T10:13:25Z</time>
      </trkpt>
      <trkpt lat="44.08808" lon="7.10299">
        <ele>590.3</ele>
        <time>2022-06-11T10:13:26Z</time>
      </trkpt>
      <trkpt lat="44.0881" lon="7.10299">
        <ele>591</ele>
        <time>2022-06-11T10:13:27Z</time>
      </trkpt>
      <trkpt lat="44.08812" lon="7.103">
        <ele>591.4</ele>
        <time>2022-06-11T10:13:28Z</time>
      </trkpt>
      <trkpt lat="44.08814" lon="7.10301">
        <ele>591.6</ele>
        <time>2022-06-11T10:13:29Z</time>
      </trkpt>
      <trkpt lat="44.08816" lon="7.10301">
        <ele>592.2</ele>
        <time>2022-06-11T10:13:30Z</time>
      </trkpt>
      <trkpt lat="44.08818" lon="7.10301">
        <ele>592.8</ele>
        <time>2022-06-11T10:13:31Z</time>
      </trkpt>
      <trkpt lat="44.0882" lon="7.10301">
        <ele>593.8</ele>
        <time>2022-06-11T10:13:32Z</time>
      </trkpt>
      <trkpt lat="44.08822" lon="7.10301">
        <ele>594.6</ele>
        <time>2022-06-11T10:13:33Z</time>
      </trkpt>
      <trkpt lat="44.08824" lon="7.10301">
        <ele>595.2</ele>
        <time>2022-06-11T10:13:34Z</time>
      </trkpt>
      <trkpt lat="44.08826" lon="7.10301">
        <ele>595.9</ele>
        <time>2022-06-11T10:13:35Z</time>
      </trkpt>
      <trkpt lat="44.08828" lon="7.10302">
        <ele>596.4</ele>
        <time>2022-06-11T10:13:36Z</time>
      </trkpt>
      <trkpt lat="44.0883" lon="7.10303">
        <ele>596.8</ele>
        <time>2022-06-11T10:13:37Z</time>
      </trkpt>
      <trkpt lat="44.08832" lon="7.10304">
        <ele>596.9</ele>
        <time>2022-06-11T10:13:38Z</time>
      </trkpt>
      <trkpt lat="44.08834" lon="7.10306">
        <ele>596.9</ele>
        <time>2022-06-11T10:13:39Z</time>
      </trkpt>
      <trkpt lat="44.08835" lon="7.10308">
        <ele>596.9</ele>
        <time>2022-06-11T10:13:40Z</time>
      </trkpt>
      <trkpt lat="44.08836" lon="7.1031">
        <ele>596.6</ele>
        <time>2022-06-11T10:13:41Z</time>
      </trkpt>
      <trkpt lat="44.08838" lon="7.10311">
        <ele>597.1</ele>
        <time>2022-06-11T10:13:42Z</time>
      </trkpt>
      <trkpt lat="44.0884" lon="7.10313">
        <ele>597.5</ele>
        <time>2022-06-11T10:13:43Z</time>
      </trkpt>
      <trkpt lat="44.08843" lon="7.10314">
        <ele>597.8</ele>
        <time>2022-06-11T10:13:44Z</time>
      </trkpt>
      <trkpt lat="44.08845" lon="7.10316">
        <ele>598</ele>
        <time>2022-06-11T10:13:45Z</time>
      </trkpt>
      <trkpt lat="44.08846" lon="7.10319">
        <ele>597.7</ele>
        <time>2022-06-11T10:13:46Z</time>
      </trkpt>
      <trkpt lat="44.08848" lon="7.1032">
        <ele>598.1</ele>
        <time>2022-06-11T10:13:47Z</time>
      </trkpt>
      <trkpt lat="44.0885" lon="7.10321">
        <ele>598.4</ele>
        <time>2022-06-11T10:13:48Z</time>
      </trkpt>
      <trkpt lat="44.08852" lon="7.10323">
        <ele>598.6</ele>
        <time>2022-06-11T10:13:49Z</time>
      </trkpt>
      <trkpt lat="44.08854" lon="7.10325">
        <ele>598.9</ele>
        <time>2022-06-11T10:13:50Z</time>
      </trkpt>
      <trkpt lat="44.08856" lon="7.10326">
        <ele>599.2</ele>
        <time>2022-06-11T10:13:51Z</time>
      </trkpt>
      <trkpt lat="44.08858" lon="7.10328">
        <ele>599.5</ele>
        <time>2022-06-11T10:13:52Z</time>
      </trkpt>
      <trkpt lat="44.0886" lon="7.10329">
        <ele>600.1</ele>
        <time>2022-06-11T10:13:53Z</time>
      </trkpt>
      <trkpt lat="44.08861" lon="7.10329">
        <ele>600.9</ele>
        <time>2022-06-11T10:13:54Z</time>
      </trkpt>
      <trkpt lat="44.08863" lon="7.10328">
        <ele>602.3</ele>
        <time>2022-06-11T10:13:55Z</time>
      </trkpt>
      <trkpt lat="44.08864" lon="7.10326">
        <ele>603.6</ele>
        <time>2022-06-11T10:13:56Z</time>
      </trkpt>
      <trkpt lat="44.08865" lon="7.10324">
        <ele>605</ele>
        <time>2022-06-11T10:13:57Z</time>
      </trkpt>
      <trkpt lat="44.08866" lon="7.10321">
        <ele>606.4</ele>
        <time>2022-06-11T10:13:58Z</time>
      </trkpt>
      <trkpt lat="44.08866" lon="7.10318">
        <ele>607.7</ele>
        <time>2022-06-11T10:13:59Z</time>
      </trkpt>
      <trkpt lat="44.08865" lon="7.10315">
        <ele>608.3</ele>
        <time>2022-06-11T10:14:00Z</time>
      </trkpt>
      <trkpt lat="44.08864" lon="7.10312">
        <ele>608.7</ele>
        <time>2022-06-11T10:14:01Z</time>
      </trkpt>
      <trkpt lat="44.08864" lon="7.10309">
        <ele>609.2</ele>
        <time>2022-06-11T10:14:02Z</time>
      </trkpt>
      <trkpt lat="44.08862" lon="7.10307">
        <ele>609.4</ele>
        <time>2022-06-11T10:14:03Z</time>
      </trkpt>
      <trkpt lat="44.08861" lon="7.10305">
        <ele>608.9</ele>
        <time>2022-06-11T10:14:04Z</time>
      </trkpt>
      <trkpt lat="44.08859" lon="7.10304">
        <ele>608.6</ele>
        <time>2022-06-11T10:14:05Z</time>
      </trkpt>
      <trkpt lat="44.08857" lon="7.10302">
        <ele>608.7</ele>
        <time>2022-06-11T10:14:06Z</time>
      </trkpt>
      <trkpt lat="44.08855" lon="7.10301">
        <ele>608.2</ele>
        <time>2022-06-11T10:14:07Z</time>
      </trkpt>
      <trkpt lat="44.08853" lon="7.10299">
        <ele>607.9</ele>
        <time>2022-06-11T10:14:08Z</time>
      </trkpt>
      <trkpt lat="44.08852" lon="7.10297">
        <ele>607.9</ele>
        <time>2022-06-11T10:14:09Z</time>
      </trkpt>
      <trkpt lat="44.0885" lon="7.10295">
        <ele>607.9</ele>
        <time>2022-06-11T10:14:10Z</time>
      </trkpt>
      <trkpt lat="44.08848" lon="7.10294">
        <ele>607.7</ele>
        <time>2022-06-11T10:14:11Z</time>
      </trkpt>
      <trkpt lat="44.08847" lon="7.10291">
        <ele>607.9</ele>
        <time>2022-06-11T10:14:12Z</time>
      </trkpt>
      <trkpt lat="44.08845" lon="7.1029">
        <ele>607.6</ele>
        <time>2022-06-11T10:14:13Z</time>
      </trkpt>
      <trkpt lat="44.08843" lon="7.10288">
        <ele>607.6</ele>
        <time>2022-06-11T10:14:14Z</time>
      </trkpt>
      <trkpt lat="44.08842" lon="7.10285">
        <ele>607.8</ele>
        <time>2022-06-11T10:14:15Z</time>
      </trkpt>
      <trkpt lat="44.0884" lon="7.10284">
        <ele>607.7</ele>
        <time>2022-06-11T10:14:16Z</time>
      </trkpt>
      <trkpt lat="44.08838" lon="7.10282">
        <ele>607.6</ele>
        <time>2022-06-11T10:14:17Z</time>
      </trkpt>
      <trkpt lat="44.08836" lon="7.1028">
        <ele>607.4</ele>
        <time>2022-06-11T10:14:18Z</time>
      </trkpt>
      <trkpt lat="44.08834" lon="7.10278">
        <ele>607.3</ele>
        <time>2022-06-11T10:14:19Z</time>
      </trkpt>
      <trkpt lat="44.08832" lon="7.10276">
        <ele>607</ele>
        <time>2022-06-11T10:14:20Z</time>
      </trkpt>
      <trkpt lat="44.08829" lon="7.10276">
        <ele>606.2</ele>
        <time>2022-06-11T10:14:21Z</time>
      </trkpt>
      <trkpt lat="44.08827" lon="7.10276">
        <ele>605.4</ele>
        <time>2022-06-11T10:14:22Z</time>
      </trkpt>
      <trkpt lat="44.08825" lon="7.10277">
        <ele>604.4</ele>
        <time>2022-06-11T10:14:23Z</time>
      </trkpt>
      <trkpt lat="44.08823" lon="7.10277">
        <ele>603.4</ele>
        <time>2022-06-11T10:14:24Z</time>
      </trkpt>
      <trkpt lat="44.0882" lon="7.10277">
        <ele>602.5</ele>
        <time>2022-06-11T10:14:25Z</time>
      </trkpt>
      <trkpt lat="44.08818" lon="7.10277">
        <ele>601.9</ele>
        <time>2022-06-11T10:14:26Z</time>
      </trkpt>
      <trkpt lat="44.08816" lon="7.10276">
        <ele>601.5</ele>
        <time>2022-06-11T10:14:27Z</time>
      </trkpt>
      <trkpt lat="44.08814" lon="7.10275">
        <ele>601.2</ele>
        <time>2022-06-11T10:14:28Z</time>
      </trkpt>
      <trkpt lat="44.08813" lon="7.10274">
        <ele>600.8</ele>
        <time>2022-06-11T10:14:29Z</time>
      </trkpt>
      <trkpt lat="44.08811" lon="7.10273">
        <ele>600.6</ele>
        <time>2022-06-11T10:14:30Z</time>
      </trkpt>
      <trkpt lat="44.08809" lon="7.10271">
        <ele>600.5</ele>
        <time>2022-06-11T10:14:31Z</time>
      </trkpt>
      <trkpt lat="44.08808" lon="7.10269">
        <ele>600.6</ele>
        <time>2022-06-11T10:14:32Z</time>
      </trkpt>
      <trkpt lat="44.08806" lon="7.10267">
        <ele>600.6</ele>
        <time>2022-06-11T10:14:33Z</time>
      </trkpt>
      <trkpt lat="44.08805" lon="7.10265">
        <ele>600.9</ele>
        <time>2022-06-11T10:14:34Z</time>
      </trkpt>
      <trkpt lat="44.08804" lon="7.10263">
        <ele>601.3</ele>
        <time>2022-06-11T10:14:35Z</time>
      </trkpt>
      <trkpt lat="44.08802" lon="7.1026">
        <ele>601.7</ele>
        <time>2022-06-11T10:14:36Z</time>
      </trkpt>
      <trkpt lat="44.08801" lon="7.10258">
        <ele>602.2</ele>
        <time>2022-06-11T10:14:37Z</time>
      </trkpt>
      <trkpt lat="44.088" lon="7.10255">
        <ele>602.5</ele>
        <time>2022-06-11T10:14:38Z</time>
      </trkpt>
      <trkpt lat="44.08798" lon="7.10253">
        <ele>602.7</ele>
        <time>2022-06-11T10:14:39Z</time>
      </trkpt>
      <trkpt lat="44.08797" lon="7.10251">
        <ele>603</ele>
        <time>2022-06-11T10:14:40Z</time>
      </trkpt>
      <trkpt lat="44.08796" lon="7.10249">
        <ele>603.3</ele>
        <time>2022-06-11T10:14:41Z</time>
      </trkpt>
      <trkpt lat="44.08794" lon="7.10246">
        <ele>603.8</ele>
        <time>2022-06-11T10:14:42Z</time>
      </trkpt>
      <trkpt lat="44.08793" lon="7.10244">
        <ele>604.1</ele>
        <time>2022-06-11T10:14:43Z</time>
      </trkpt>
      <trkpt lat="44.08792" lon="7.10242">
        <ele>604.7</ele>
        <time>2022-06-11T10:14:44Z</time>
      </trkpt>
      <trkpt lat="44.0879" lon="7.10239">
        <ele>605.2</ele>
        <time>2022-06-11T10:14:45Z</time>
      </trkpt>
      <trkpt lat="44.08789" lon="7.10237">
        <ele>605.5</ele>
        <time>2022-06-11T10:14:46Z</time>
      </trkpt>
      <trkpt lat="44.08787" lon="7.10235">
        <ele>605.8</ele>
        <time>2022-06-11T10:14:47Z</time>
      </trkpt>
      <trkpt lat="44.08786" lon="7.10233">
        <ele>606</ele>
        <time>2022-06-11T10:14:48Z</time>
      </trkpt>
      <trkpt lat="44.08784" lon="7.10231">
        <ele>606.2</ele>
        <time>2022-06-11T10:14:49Z</time>
      </trkpt>
      <trkpt lat="44.08783" lon="7.10229">
        <ele>606.4</ele>
        <time>2022-06-11T10:14:50Z</time>
      </trkpt>
      <trkpt lat="44.08781" lon="7.10227">
        <ele>606.5</ele>
        <time>2022-06-11T10:14:51Z</time>
      </trkpt>
      <trkpt lat="44.08779" lon="7.10225">
        <ele>606.4</ele>
        <time>2022-06-11T10:14:52Z</time>
      </trkpt>
      <trkpt lat="44.08777" lon="7.10223">
        <ele>606.8</ele>
        <time>2022-06-11T10:14:53Z</time>
      </trkpt>
      <trkpt lat="44.08775" lon="7.10222">
        <ele>607.3</ele>
        <time>2022-06-11T10:14:54Z</time>
      </trkpt>
      <trkpt lat="44.08772" lon="7.10221">
        <ele>607.9</ele>
        <time>2022-06-11T10:14:55Z</time>
      </trkpt>
      <trkpt lat="44.0877" lon="7.10221">
        <ele>608.2</ele>
        <time>2022-06-11T10:14:56Z</time>
      </trkpt>
      <trkpt lat="44.08768" lon="7.1022">
        <ele>608.5</ele>
        <time>2022-06-11T10:14:57Z</time>
      </trkpt>
      <trkpt lat="44.08766" lon="7.1022">
        <ele>608.8</ele>
        <time>2022-06-11T10:14:58Z</time>
      </trkpt>
      <trkpt lat="44.08764" lon="7.1022">
        <ele>609.2</ele>
        <time>2022-06-11T10:14:59Z</time>
      </trkpt>
      <trkpt lat="44.08761" lon="7.1022">
        <ele>609.2</ele>
        <time>2022-06-11T10:15:00Z</time>
      </trkpt>
      <trkpt lat="44.08759" lon="7.1022">
        <ele>609.3</ele>
        <time>2022-06-11T10:15:01Z</time>
      </trkpt>
      <trkpt lat="44.08757" lon="7.10221">
        <ele>609.3</ele>
        <time>2022-06-11T10:15:02Z</time>
      </trkpt>
      <trkpt lat="44.08754" lon="7.10221">
        <ele>609.3</ele>
        <time>2022-06-11T10:15:03Z</time>
      </trkpt>
      <trkpt lat="44.08752" lon="7.10221">
        <ele>609.4</ele>
        <time>2022-06-11T10:15:04Z</time>
      </trkpt>
      <trkpt lat="44.0875" lon="7.10222">
        <ele>609.2</ele>
        <time>2022-06-11T10:15:05Z</time>
      </trkpt>
      <trkpt lat="44.08748" lon="7.10223">
        <ele>609.2</ele>
        <time>2022-06-11T10:15:06Z</time>
      </trkpt>
      <trkpt lat="44.08746" lon="7.10223">
        <ele>609.4</ele>
        <time>2022-06-11T10:15:07Z</time>
      </trkpt>
      <trkpt lat="44.08743" lon="7.10224">
        <ele>609.4</ele>
        <time>2022-06-11T10:15:08Z</time>
      </trkpt>
      <trkpt lat="44.08741" lon="7.10225">
        <ele>609.5</ele>
        <time>2022-06-11T10:15:09Z</time>
      </trkpt>
      <trkpt lat="44.08739" lon="7.10226">
        <ele>609.4</ele>
        <time>2022-06-11T10:15:10Z</time>
      </trkpt>
      <trkpt lat="44.08737" lon="7.10227">
        <ele>609.2</ele>
        <time>2022-06-11T10:15:11Z</time>
      </trkpt>
      <trkpt lat="44.08735" lon="7.10227">
        <ele>609.3</ele>
        <time>2022-06-11T10:15:12Z</time>
      </trkpt>
      <trkpt lat="44.08732" lon="7.10227">
        <ele>609.7</ele>
        <time>2022-06-11T10:15:13Z</time>
      </trkpt>
      <trkpt lat="44.0873" lon="7.10227">
        <ele>609.9</ele>
        <time>2022-06-11T10:15:14Z</time>
      </trkpt>
      <trkpt lat="44.08728" lon="7.10227">
        <ele>610.2</ele>
        <time>2022-06-11T10:15:15Z</time>
      </trkpt>
      <trkpt lat="44.08726" lon="7.10227">
        <ele>610.7</ele>
        <time>2022-06-11T10:15:16Z</time>
      </trkpt>
      <trkpt lat="44.08724" lon="7.10227">
        <ele>611.1</ele>
        <time>2022-06-11T10:15:17Z</time>
      </trkpt>
      <trkpt lat="44.08723" lon="7.10227">
        <ele>611.4</ele>
        <time>2022-06-11T10:15:18Z</time>
      </trkpt>
      <trkpt lat="44.08721" lon="7.10228">
        <ele>611.5</ele>
        <time>2022-06-11T10:15:19Z</time>
      </trkpt>
      <trkpt lat="44.08718" lon="7.10228">
        <ele>611.6</ele>
        <time>2022-06-11T10:15:20Z</time>
      </trkpt>
      <trkpt lat="44.08716" lon="7.10229">
        <ele>611.8</ele>
        <time>2022-06-11T10:15:21Z</time>
      </trkpt>
      <trkpt lat="44.08714" lon="7.10229">
        <ele>612.3</ele>
        <time>2022-06-11T10:15:22Z</time>
      </trkpt>
      <trkpt lat="44.08712" lon="7.10229">
        <ele>612.7</ele>
        <time>2022-06-11T10:15:23Z</time>
      </trkpt>
      <trkpt lat="44.0871" lon="7.1023">
        <ele>612.9</ele>
        <time>2022-06-11T10:15:24Z</time>
      </trkpt>
      <trkpt lat="44.08707" lon="7.1023">
        <ele>613.2</ele>
        <time>2022-06-11T10:15:25Z</time>
      </trkpt>
      <trkpt lat="44.08705" lon="7.1023">
        <ele>613.9</ele>
        <time>2022-06-11T10:15:26Z</time>
      </trkpt>
      <trkpt lat="44.08703" lon="7.1023">
        <ele>614.1</ele>
        <time>2022-06-11T10:15:27Z</time>
      </trkpt>
      <trkpt lat="44.08701" lon="7.1023">
        <ele>614.5</ele>
        <time>2022-06-11T10:15:28Z</time>
      </trkpt>
      <trkpt lat="44.08698" lon="7.10231">
        <ele>615</ele>
        <time>2022-06-11T10:15:29Z</time>
      </trkpt>
      <trkpt lat="44.08696" lon="7.10231">
        <ele>615.6</ele>
        <time>2022-06-11T10:15:30Z</time>
      </trkpt>
      <trkpt lat="44.08693" lon="7.1023">
        <ele>615.8</ele>
        <time>2022-06-11T10:15:31Z</time>
      </trkpt>
      <trkpt lat="44.08691" lon="7.1023">
        <ele>615.7</ele>
        <time>2022-06-11T10:15:32Z</time>
      </trkpt>
      <trkpt lat="44.08688" lon="7.1023">
        <ele>615.8</ele>
        <time>2022-06-11T10:15:33Z</time>
      </trkpt>
      <trkpt lat="44.08686" lon="7.10229">
        <ele>616.1</ele>
        <time>2022-06-11T10:15:34Z</time>
      </trkpt>
      <trkpt lat="44.08684" lon="7.10228">
        <ele>616.3</ele>
        <time>2022-06-11T10:15:35Z</time>
      </trkpt>
      <trkpt lat="44.08681" lon="7.10228">
        <ele>616.4</ele>
        <time>2022-06-11T10:15:36Z</time>
      </trkpt>
      <trkpt lat="44.0868" lon="7.10227">
        <ele>616.7</ele>
        <time>2022-06-11T10:15:37Z</time>
      </trkpt>
      <trkpt lat="44.08678" lon="7.10227">
        <ele>616.8</ele>
        <time>2022-06-11T10:15:38Z</time>
      </trkpt>
      <trkpt lat="44.08676" lon="7.10226">
        <ele>617</ele>
        <time>2022-06-11T10:15:39Z</time>
      </trkpt>
      <trkpt lat="44.08673" lon="7.10225">
        <ele>617.2</ele>
        <time>2022-06-11T10:15:40Z</time>
      </trkpt>
      <trkpt lat="44.08671" lon="7.10225">
        <ele>617.3</ele>
        <time>2022-06-11T10:15:41Z</time>
      </trkpt>
      <trkpt lat="44.08669" lon="7.10223">
        <ele>617.7</ele>
        <time>2022-06-11T10:15:42Z</time>
      </trkpt>
      <trkpt lat="44.08667" lon="7.10222">
        <ele>618.1</ele>
        <time>2022-06-11T10:15:43Z</time>
      </trkpt>
      <trkpt lat="44.08665" lon="7.10221">
        <ele>617.8</ele>
        <time>2022-06-11T10:15:44Z</time>
      </trkpt>
      <trkpt lat="44.08662" lon="7.10219">
        <ele>617.5</ele>
        <time>2022-06-11T10:15:45Z</time>
      </trkpt>
      <trkpt lat="44.0866" lon="7.10217">
        <ele>617.4</ele>
        <time>2022-06-11T10:15:46Z</time>
      </trkpt>
      <trkpt lat="44.08658" lon="7.10215">
        <ele>617.4</ele>
        <time>2022-06-11T10:15:47Z</time>
      </trkpt>
      <trkpt lat="44.08656" lon="7.10213">
        <ele>617.3</ele>
        <time>2022-06-11T10:15:48Z</time>
      </trkpt>
      <trkpt lat="44.08655" lon="7.10211">
        <ele>617.3</ele>
        <time>2022-06-11T10:15:49Z</time>
      </trkpt>
      <trkpt lat="44.08653" lon="7.10209">
        <ele>617.3</ele>
        <time>2022-06-11T10:15:50Z</time>
      </trkpt>
      <trkpt lat="44.08651" lon="7.10207">
        <ele>617.4</ele>
        <time>2022-06-11T10:15:51Z</time>
      </trkpt>
      <trkpt lat="44.0865" lon="7.10204">
        <ele>617.7</ele>
        <time>2022-06-11T10:15:52Z</time>
      </trkpt>
      <trkpt lat="44.08649" lon="7.10202">
        <ele>617.9</ele>
        <time>2022-06-11T10:15:53Z</time>
      </trkpt>
      <trkpt lat="44.08647" lon="7.10199">
        <ele>618</ele>
        <time>2022-06-11T10:15:54Z</time>
      </trkpt>
      <trkpt lat="44.08646" lon="7.10196">
        <ele>618.5</ele>
        <time>2022-06-11T10:15:55Z</time>
      </trkpt>
      <trkpt lat="44.08645" lon="7.10194">
        <ele>618.9</ele>
        <time>2022-06-11T10:15:56Z</time>
      </trkpt>
      <trkpt lat="44.08644" lon="7.10191">
        <ele>619.2</ele>
        <time>2022-06-11T10:15:57Z</time>
      </trkpt>
      <trkpt lat="44.08643" lon="7.10188">
        <ele>619.5</ele>
        <time>2022-06-11T10:15:58Z</time>
      </trkpt>
      <trkpt lat="44.08642" lon="7.10186">
        <ele>619.8</ele>
        <time>2022-06-11T10:15:59Z</time>
      </trkpt>
      <trkpt lat="44.08642" lon="7.10183">
        <ele>620.2</ele>
        <time>2022-06-11T10:16:00Z</time>
      </trkpt>
      <trkpt lat="44.08641" lon="7.1018">
        <ele>620.6</ele>
        <time>2022-06-11T10:16:01Z</time>
      </trkpt>
      <trkpt lat="44.0864" lon="7.10177">
        <ele>620.9</ele>
        <time>2022-06-11T10:16:02Z</time>
      </trkpt>
      <trkpt lat="44.08639" lon="7.10175">
        <ele>621.2</ele>
        <time>2022-06-11T10:16:03Z</time>
      </trkpt>
      <trkpt lat="44.08639" lon="7.10172">
        <ele>621.6</ele>
        <time>2022-06-11T10:16:04Z</time>
      </trkpt>
      <trkpt lat="44.08638" lon="7.10169">
        <ele>621.6</ele>
        <time>2022-06-11T10:16:05Z</time>
      </trkpt>
      <trkpt lat="44.08638" lon="7.10166">
        <ele>622.1</ele>
        <time>2022-06-11T10:16:06Z</time>
      </trkpt>
      <trkpt lat="44.08637" lon="7.10163">
        <ele>622.4</ele>
        <time>2022-06-11T10:16:07Z</time>
      </trkpt>
      <trkpt lat="44.08636" lon="7.1016">
        <ele>622.6</ele>
        <time>2022-06-11T10:16:08Z</time>
      </trkpt>
      <trkpt lat="44.08636" lon="7.10157">
        <ele>622.7</ele>
        <time>2022-06-11T10:16:09Z</time>
      </trkpt>
      <trkpt lat="44.08635" lon="7.10154">
        <ele>622.9</ele>
        <time>2022-06-11T10:16:10Z</time>
      </trkpt>
      <trkpt lat="44.08635" lon="7.10151">
        <ele>623.1</ele>
        <time>2022-06-11T10:16:11Z</time>
      </trkpt>
      <trkpt lat="44.08634" lon="7.10149">
        <ele>623.3</ele>
        <time>2022-06-11T10:16:12Z</time>
      </trkpt>
      <trkpt lat="44.08633" lon="7.10146">
        <ele>623.3</ele>
        <time>2022-06-11T10:16:13Z</time>
      </trkpt>
      <trkpt lat="44.08633" lon="7.10143">
        <ele>623.5</ele>
        <time>2022-06-11T10:16:14Z</time>
      </trkpt>
      <trkpt lat="44.08632" lon="7.1014">
        <ele>623.9</ele>
        <time>2022-06-11T10:16:15Z</time>
      </trkpt>
      <trkpt lat="44.08632" lon="7.10137">
        <ele>624.2</ele>
        <time>2022-06-11T10:16:16Z</time>
      </trkpt>
      <trkpt lat="44.08631" lon="7.10134">
        <ele>624.3</ele>
        <time>2022-06-11T10:16:17Z</time>
      </trkpt>
      <trkpt lat="44.08631" lon="7.10131">
        <ele>624.3</ele>
        <time>2022-06-11T10:16:18Z</time>
      </trkpt>
      <trkpt lat="44.0863" lon="7.10128">
        <ele>624.3</ele>
        <time>2022-06-11T10:16:19Z</time>
      </trkpt>
      <trkpt lat="44.08629" lon="7.10124">
        <ele>624.4</ele>
        <time>2022-06-11T10:16:20Z</time>
      </trkpt>
      <trkpt lat="44.08629" lon="7.10121">
        <ele>624.6</ele>
        <time>2022-06-11T10:16:21Z</time>
      </trkpt>
      <trkpt lat="44.08628" lon="7.10118">
        <ele>624.6</ele>
        <time>2022-06-11T10:16:22Z</time>
      </trkpt>
      <trkpt lat="44.08628" lon="7.10115">
        <ele>625</ele>
        <time>2022-06-11T10:16:23Z</time>
      </trkpt>
      <trkpt lat="44.08627" lon="7.10112">
        <ele>625.4</ele>
        <time>2022-06-11T10:16:24Z</time>
      </trkpt>
      <trkpt lat="44.08627" lon="7.10109">
        <ele>626</ele>
        <time>2022-06-11T10:16:25Z</time>
      </trkpt>
      <trkpt lat="44.08627" lon="7.10106">
        <ele>626.7</ele>
        <time>2022-06-11T10:16:26Z</time>
      </trkpt>
      <trkpt lat="44.08627" lon="7.10103">
        <ele>627.4</ele>
        <time>2022-06-11T10:16:27Z</time>
      </trkpt>
      <trkpt lat="44.08627" lon="7.101">
        <ele>628.1</ele>
        <time>2022-06-11T10:16:28Z</time>
      </trkpt>
      <trkpt lat="44.08627" lon="7.10097">
        <ele>628.9</ele>
        <time>2022-06-11T10:16:29Z</time>
      </trkpt>
      <trkpt lat="44.08627" lon="7.10094">
        <ele>629.4</ele>
        <time>2022-06-11T10:16:30Z</time>
      </trkpt>
      <trkpt lat="44.08626" lon="7.10091">
        <ele>629.7</ele>
        <time>2022-06-11T10:16:31Z</time>
      </trkpt>
      <trkpt lat="44.08626" lon="7.10088">
        <ele>629.8</ele>
        <time>2022-06-11T10:16:32Z</time>
      </trkpt>
      <trkpt lat="44.08625" lon="7.10085">
        <ele>629.8</ele>
        <time>2022-06-11T10:16:33Z</time>
      </trkpt>
      <trkpt lat="44.08624" lon="7.10082">
        <ele>629.8</ele>
        <time>2022-06-11T10:16:34Z</time>
      </trkpt>
      <trkpt lat="44.08623" lon="7.1008">
        <ele>629.8</ele>
        <time>2022-06-11T10:16:35Z</time>
      </trkpt>
      <trkpt lat="44.08621" lon="7.10078">
        <ele>629.4</ele>
        <time>2022-06-11T10:16:36Z</time>
      </trkpt>
      <trkpt lat="44.0862" lon="7.10075">
        <ele>629.3</ele>
        <time>2022-06-11T10:16:37Z</time>
      </trkpt>
      <trkpt lat="44.08618" lon="7.10073">
        <ele>629</ele>
        <time>2022-06-11T10:16:38Z</time>
      </trkpt>
      <trkpt lat="44.08617" lon="7.10071">
        <ele>629.1</ele>
        <time>2022-06-11T10:16:39Z</time>
      </trkpt>
      <trkpt lat="44.08616" lon="7.10069">
        <ele>628.9</ele>
        <time>2022-06-11T10:16:40Z</time>
      </trkpt>
      <trkpt lat="44.08615" lon="7.10066">
        <ele>628.6</ele>
        <time>2022-06-11T10:16:41Z</time>
      </trkpt>
      <trkpt lat="44.08613" lon="7.10064">
        <ele>628.7</ele>
        <time>2022-06-11T10:16:42Z</time>
      </trkpt>
      <trkpt lat="44.08612" lon="7.10062">
        <ele>628.6</ele>
        <time>2022-06-11T10:16:43Z</time>
      </trkpt>
      <trkpt lat="44.08611" lon="7.1006">
        <ele>628.7</ele>
        <time>2022-06-11T10:16:44Z</time>
      </trkpt>
      <trkpt lat="44.0861" lon="7.10057">
        <ele>628.7</ele>
        <time>2022-06-11T10:16:45Z</time>
      </trkpt>
      <trkpt lat="44.08608" lon="7.10055">
        <ele>628.7</ele>
        <time>2022-06-11T10:16:46Z</time>
      </trkpt>
      <trkpt lat="44.08607" lon="7.10052">
        <ele>628.9</ele>
        <time>2022-06-11T10:16:47Z</time>
      </trkpt>
      <trkpt lat="44.08605" lon="7.1005">
        <ele>628.8</ele>
        <time>2022-06-11T10:16:48Z</time>
      </trkpt>
      <trkpt lat="44.08604" lon="7.10048">
        <ele>628.9</ele>
        <time>2022-06-11T10:16:49Z</time>
      </trkpt>
      <trkpt lat="44.08603" lon="7.10045">
        <ele>629.2</ele>
        <time>2022-06-11T10:16:50Z</time>
      </trkpt>
      <trkpt lat="44.08601" lon="7.10043">
        <ele>629.4</ele>
        <time>2022-06-11T10:16:51Z</time>
      </trkpt>
      <trkpt lat="44.086" lon="7.1004">
        <ele>629.7</ele>
        <time>2022-06-11T10:16:52Z</time>
      </trkpt>
      <trkpt lat="44.08599" lon="7.10038">
        <ele>630.1</ele>
        <time>2022-06-11T10:16:53Z</time>
      </trkpt>
      <trkpt lat="44.08598" lon="7.10036">
        <ele>630.1</ele>
        <time>2022-06-11T10:16:54Z</time>
      </trkpt>
      <trkpt lat="44.08596" lon="7.10034">
        <ele>630.3</ele>
        <time>2022-06-11T10:16:55Z</time>
      </trkpt>
      <trkpt lat="44.08595" lon="7.10031">
        <ele>630.5</ele>
        <time>2022-06-11T10:16:56Z</time>
      </trkpt>
      <trkpt lat="44.08594" lon="7.10029">
        <ele>630.7</ele>
        <time>2022-06-11T10:16:57Z</time>
      </trkpt>
      <trkpt lat="44.08592" lon="7.10026">
        <ele>631.1</ele>
        <time>2022-06-11T10:16:58Z</time>
      </trkpt>
      <trkpt lat="44.08591" lon="7.10024">
        <ele>631.3</ele>
        <time>2022-06-11T10:16:59Z</time>
      </trkpt>
      <trkpt lat="44.0859" lon="7.10021">
        <ele>632</ele>
        <time>2022-06-11T10:17:00Z</time>
      </trkpt>
      <trkpt lat="44.08589" lon="7.10018">
        <ele>632.5</ele>
        <time>2022-06-11T10:17:01Z</time>
      </trkpt>
      <trkpt lat="44.08588" lon="7.10015">
        <ele>633.2</ele>
        <time>2022-06-11T10:17:02Z</time>
      </trkpt>
      <trkpt lat="44.08587" lon="7.10013">
        <ele>633.8</ele>
        <time>2022-06-11T10:17:03Z</time>
      </trkpt>
      <trkpt lat="44.08586" lon="7.1001">
        <ele>634.4</ele>
        <time>2022-06-11T10:17:04Z</time>
      </trkpt>
      <trkpt lat="44.08585" lon="7.10007">
        <ele>635</ele>
        <time>2022-06-11T10:17:05Z</time>
      </trkpt>
      <trkpt lat="44.08584" lon="7.10005">
        <ele>635.6</ele>
        <time>2022-06-11T10:17:06Z</time>
      </trkpt>
      <trkpt lat="44.08583" lon="7.10002">
        <ele>636.3</ele>
        <time>2022-06-11T10:17:07Z</time>
      </trkpt>
      <trkpt lat="44.08582" lon="7.09999">
        <ele>636.6</ele>
        <time>2022-06-11T10:17:08Z</time>
      </trkpt>
      <trkpt lat="44.0858" lon="7.09997">
        <ele>636.8</ele>
        <time>2022-06-11T10:17:09Z</time>
      </trkpt>
      <trkpt lat="44.08579" lon="7.09995">
        <ele>637</ele>
        <time>2022-06-11T10:17:10Z</time>
      </trkpt>
      <trkpt lat="44.08577" lon="7.09993">
        <ele>637.2</ele>
        <time>2022-06-11T10:17:11Z</time>
      </trkpt>
      <trkpt lat="44.08576" lon="7.09991">
        <ele>637.2</ele>
        <time>2022-06-11T10:17:12Z</time>
      </trkpt>
      <trkpt lat="44.08574" lon="7.0999">
        <ele>637.2</ele>
        <time>2022-06-11T10:17:13Z</time>
      </trkpt>
      <trkpt lat="44.08572" lon="7.09988">
        <ele>637.1</ele>
        <time>2022-06-11T10:17:14Z</time>
      </trkpt>
      <trkpt lat="44.08571" lon="7.09986">
        <ele>637</ele>
        <time>2022-06-11T10:17:15Z</time>
      </trkpt>
      <trkpt lat="44.08569" lon="7.09985">
        <ele>636.6</ele>
        <time>2022-06-11T10:17:16Z</time>
      </trkpt>
      <trkpt lat="44.08567" lon="7.09983">
        <ele>636.4</ele>
        <time>2022-06-11T10:17:17Z</time>
      </trkpt>
      <trkpt lat="44.08565" lon="7.09982">
        <ele>636.1</ele>
        <time>2022-06-11T10:17:18Z</time>
      </trkpt>
      <trkpt lat="44.08563" lon="7.09981">
        <ele>635.6</ele>
        <time>2022-06-11T10:17:19Z</time>
      </trkpt>
      <trkpt lat="44.08561" lon="7.0998">
        <ele>634.9</ele>
        <time>2022-06-11T10:17:20Z</time>
      </trkpt>
      <trkpt lat="44.08559" lon="7.0998">
        <ele>634.2</ele>
        <time>2022-06-11T10:17:21Z</time>
      </trkpt>
      <trkpt lat="44.08556" lon="7.09979">
        <ele>633.6</ele>
        <time>2022-06-11T10:17:22Z</time>
      </trkpt>
      <trkpt lat="44.08554" lon="7.09978">
        <ele>633.2</ele>
        <time>2022-06-11T10:17:23Z</time>
      </trkpt>
      <trkpt lat="44.08552" lon="7.09976">
        <ele>632.9</ele>
        <time>2022-06-11T10:17:24Z</time>
      </trkpt>
      <trkpt lat="44.0855" lon="7.09975">
        <ele>632.5</ele>
        <time>2022-06-11T10:17:25Z</time>
      </trkpt>
      <trkpt lat="44.08548" lon="7.09974">
        <ele>632.1</ele>
        <time>2022-06-11T10:17:26Z</time>
      </trkpt>
      <trkpt lat="44.08546" lon="7.09973">
        <ele>631.7</ele>
        <time>2022-06-11T10:17:27Z</time>
      </trkpt>
      <trkpt lat="44.08543" lon="7.09972">
        <ele>631.4</ele>
        <time>2022-06-11T10:17:28Z</time>
      </trkpt>
      <trkpt lat="44.08541" lon="7.0997">
        <ele>631.3</ele>
        <time>2022-06-11T10:17:29Z</time>
      </trkpt>
      <trkpt lat="44.0854" lon="7.09968">
        <ele>631.5</ele>
        <time>2022-06-11T10:17:30Z</time>
      </trkpt>
      <trkpt lat="44.08538" lon="7.09967">
        <ele>631.5</ele>
        <time>2022-06-11T10:17:31Z</time>
      </trkpt>
      <trkpt lat="44.08536" lon="7.09965">
        <ele>631.6</ele>
        <time>2022-06-11T10:17:32Z</time>
      </trkpt>
      <trkpt lat="44.08535" lon="7.09963">
        <ele>631.9</ele>
        <time>2022-06-11T10:17:33Z</time>
      </trkpt>
      <trkpt lat="44.08533" lon="7.0996">
        <ele>632.3</ele>
        <time>2022-06-11T10:17:34Z</time>
      </trkpt>
      <trkpt lat="44.08532" lon="7.09958">
        <ele>632.6</ele>
        <time>2022-06-11T10:17:35Z</time>
      </trkpt>
      <trkpt lat="44.0853" lon="7.09956">
        <ele>632.9</ele>
        <time>2022-06-11T10:17:36Z</time>
      </trkpt>
      <trkpt lat="44.08528" lon="7.09954">
        <ele>633.2</ele>
        <time>2022-06-11T10:17:37Z</time>
      </trkpt>
      <trkpt lat="44.08526" lon="7.09952">
        <ele>633.3</ele>
        <time>2022-06-11T10:17:38Z</time>
      </trkpt>
      <trkpt lat="44.08525" lon="7.0995">
        <ele>633.3</ele>
        <time>2022-06-11T10:17:39Z</time>
      </trkpt>
      <trkpt lat="44.08523" lon="7.09948">
        <ele>633.4</ele>
        <time>2022-06-11T10:17:40Z</time>
      </trkpt>
      <trkpt lat="44.08521" lon="7.09946">
        <ele>633.6</ele>
        <time>2022-06-11T10:17:41Z</time>
      </trkpt>
      <trkpt lat="44.08519" lon="7.09943">
        <ele>634.1</ele>
        <time>2022-06-11T10:17:42Z</time>
      </trkpt>
      <trkpt lat="44.08518" lon="7.09941">
        <ele>634.8</ele>
        <time>2022-06-11T10:17:43Z</time>
      </trkpt>
      <trkpt lat="44.08517" lon="7.09938">
        <ele>635.4</ele>
        <time>2022-06-11T10:17:44Z</time>
      </trkpt>
      <trkpt lat="44.08515" lon="7.09936">
        <ele>635.7</ele>
        <time>2022-06-11T10:17:45Z</time>
      </trkpt>
      <trkpt lat="44.08514" lon="7.09934">
        <ele>636.5</ele>
        <time>2022-06-11T10:17:46Z</time>
      </trkpt>
      <trkpt lat="44.08512" lon="7.09931">
        <ele>637.1</ele>
        <time>2022-06-11T10:17:47Z</time>
      </trkpt>
      <trkpt lat="44.0851" lon="7.09929">
        <ele>637.3</ele>
        <time>2022-06-11T10:17:48Z</time>
      </trkpt>
      <trkpt lat="44.08508" lon="7.09927">
        <ele>637.7</ele>
        <time>2022-06-11T10:17:49Z</time>
      </trkpt>
      <trkpt lat="44.08507" lon="7.09926">
        <ele>637.9</ele>
        <time>2022-06-11T10:17:50Z</time>
      </trkpt>
      <trkpt lat="44.08505" lon="7.09924">
        <ele>638</ele>
        <time>2022-06-11T10:17:51Z</time>
      </trkpt>
      <trkpt lat="44.08503" lon="7.09923">
        <ele>637.5</ele>
        <time>2022-06-11T10:17:52Z</time>
      </trkpt>
      <trkpt lat="44.085" lon="7.09922">
        <ele>637</ele>
        <time>2022-06-11T10:17:53Z</time>
      </trkpt>
      <trkpt lat="44.08498" lon="7.09922">
        <ele>636.5</ele>
        <time>2022-06-11T10:17:54Z</time>
      </trkpt>
      <trkpt lat="44.08496" lon="7.0992">
        <ele>636.3</ele>
        <time>2022-06-11T10:17:55Z</time>
      </trkpt>
      <trkpt lat="44.08494" lon="7.09918">
        <ele>636.8</ele>
        <time>2022-06-11T10:17:56Z</time>
      </trkpt>
      <trkpt lat="44.08492" lon="7.09917">
        <ele>637</ele>
        <time>2022-06-11T10:17:57Z</time>
      </trkpt>
      <trkpt lat="44.08491" lon="7.09915">
        <ele>637.2</ele>
        <time>2022-06-11T10:17:58Z</time>
      </trkpt>
      <trkpt lat="44.08489" lon="7.09914">
        <ele>637.3</ele>
        <time>2022-06-11T10:17:59Z</time>
      </trkpt>
      <trkpt lat="44.08486" lon="7.09912">
        <ele>637.3</ele>
        <time>2022-06-11T10:18:00Z</time>
      </trkpt>
      <trkpt lat="44.08485" lon="7.09911">
        <ele>637.2</ele>
        <time>2022-06-11T10:18:01Z</time>
      </trkpt>
      <trkpt lat="44.08483" lon="7.0991">
        <ele>637.2</ele>
        <time>2022-06-11T10:18:02Z</time>
      </trkpt>
      <trkpt lat="44.08481" lon="7.09909">
        <ele>636.9</ele>
        <time>2022-06-11T10:18:03Z</time>
      </trkpt>
      <trkpt lat="44.08479" lon="7.09908">
        <ele>636.5</ele>
        <time>2022-06-11T10:18:04Z</time>
      </trkpt>
      <trkpt lat="44.08477" lon="7.09907">
        <ele>636.4</ele>
        <time>2022-06-11T10:18:05Z</time>
      </trkpt>
      <trkpt lat="44.08475" lon="7.09907">
        <ele>636.1</ele>
        <time>2022-06-11T10:18:06Z</time>
      </trkpt>
      <trkpt lat="44.08472" lon="7.09905">
        <ele>636.1</ele>
        <time>2022-06-11T10:18:07Z</time>
      </trkpt>
      <trkpt lat="44.0847" lon="7.09904">
        <ele>636.4</ele>
        <time>2022-06-11T10:18:08Z</time>
      </trkpt>
      <trkpt lat="44.08469" lon="7.09901">
        <ele>637.3</ele>
        <time>2022-06-11T10:18:09Z</time>
      </trkpt>
      <trkpt lat="44.08467" lon="7.099">
        <ele>637.7</ele>
        <time>2022-06-11T10:18:10Z</time>
      </trkpt>
      <trkpt lat="44.08465" lon="7.09898">
        <ele>638.1</ele>
        <time>2022-06-11T10:18:11Z</time>
      </trkpt>
      <trkpt lat="44.08462" lon="7.09897">
        <ele>638.2</ele>
        <time>2022-06-11T10:18:12Z</time>
      </trkpt>
      <trkpt lat="44.0846" lon="7.09896">
        <ele>638.3</ele>
        <time>2022-06-11T10:18:13Z</time>
      </trkpt>
      <trkpt lat="44.08458" lon="7.09895">
        <ele>638.3</ele>
        <time>2022-06-11T10:18:14Z</time>
      </trkpt>
      <trkpt lat="44.08456" lon="7.09893">
        <ele>638.8</ele>
        <time>2022-06-11T10:18:15Z</time>
      </trkpt>
      <trkpt lat="44.08454" lon="7.09891">
        <ele>639.3</ele>
        <time>2022-06-11T10:18:16Z</time>
      </trkpt>
      <trkpt lat="44.08452" lon="7.0989">
        <ele>639.8</ele>
        <time>2022-06-11T10:18:17Z</time>
      </trkpt>
      <trkpt lat="44.0845" lon="7.09888">
        <ele>640.4</ele>
        <time>2022-06-11T10:18:18Z</time>
      </trkpt>
      <trkpt lat="44.08449" lon="7.09886">
        <ele>641.2</ele>
        <time>2022-06-11T10:18:19Z</time>
      </trkpt>
      <trkpt lat="44.08448" lon="7.09883">
        <ele>642.2</ele>
        <time>2022-06-11T10:18:20Z</time>
      </trkpt>
      <trkpt lat="44.08446" lon="7.09881">
        <ele>643</ele>
        <time>2022-06-11T10:18:21Z</time>
      </trkpt>
      <trkpt lat="44.08444" lon="7.09879">
        <ele>643.7</ele>
        <time>2022-06-11T10:18:22Z</time>
      </trkpt>
      <trkpt lat="44.08442" lon="7.09878">
        <ele>644.3</ele>
        <time>2022-06-11T10:18:23Z</time>
      </trkpt>
      <trkpt lat="44.0844" lon="7.09877">
        <ele>644.7</ele>
        <time>2022-06-11T10:18:24Z</time>
      </trkpt>
      <trkpt lat="44.08438" lon="7.09875">
        <ele>645.3</ele>
        <time>2022-06-11T10:18:25Z</time>
      </trkpt>
      <trkpt lat="44.08436" lon="7.09874">
        <ele>645.8</ele>
        <time>2022-06-11T10:18:26Z</time>
      </trkpt>
      <trkpt lat="44.08434" lon="7.09873">
        <ele>646.4</ele>
        <time>2022-06-11T10:18:27Z</time>
      </trkpt>
      <trkpt lat="44.08432" lon="7.09872">
        <ele>646.8</ele>
        <time>2022-06-11T10:18:28Z</time>
      </trkpt>
      <trkpt lat="44.08429" lon="7.09871">
        <ele>647.4</ele>
        <time>2022-06-11T10:18:29Z</time>
      </trkpt>
      <trkpt lat="44.08427" lon="7.0987">
        <ele>648</ele>
        <time>2022-06-11T10:18:30Z</time>
      </trkpt>
      <trkpt lat="44.08425" lon="7.09869">
        <ele>648.4</ele>
        <time>2022-06-11T10:18:31Z</time>
      </trkpt>
      <trkpt lat="44.08423" lon="7.09868">
        <ele>648.6</ele>
        <time>2022-06-11T10:18:32Z</time>
      </trkpt>
      <trkpt lat="44.08421" lon="7.09868">
        <ele>648.8</ele>
        <time>2022-06-11T10:18:33Z</time>
      </trkpt>
      <trkpt lat="44.08418" lon="7.09867">
        <ele>649.3</ele>
        <time>2022-06-11T10:18:34Z</time>
      </trkpt>
      <trkpt lat="44.08416" lon="7.09866">
        <ele>649.9</ele>
        <time>2022-06-11T10:18:35Z</time>
      </trkpt>
      <trkpt lat="44.08414" lon="7.09864">
        <ele>650.6</ele>
        <time>2022-06-11T10:18:36Z</time>
      </trkpt>
      <trkpt lat="44.08412" lon="7.09863">
        <ele>650.8</ele>
        <time>2022-06-11T10:18:37Z</time>
      </trkpt>
      <trkpt lat="44.0841" lon="7.09863">
        <ele>650.9</ele>
        <time>2022-06-11T10:18:38Z</time>
      </trkpt>
      <trkpt lat="44.08408" lon="7.09862">
        <ele>651.1</ele>
        <time>2022-06-11T10:18:39Z</time>
      </trkpt>
      <trkpt lat="44.08406" lon="7.09861">
        <ele>651.7</ele>
        <time>2022-06-11T10:18:40Z</time>
      </trkpt>
      <trkpt lat="44.08404" lon="7.09861">
        <ele>651.2</ele>
        <time>2022-06-11T10:18:41Z</time>
      </trkpt>
      <trkpt lat="44.08402" lon="7.0986">
        <ele>651.5</ele>
        <time>2022-06-11T10:18:42Z</time>
      </trkpt>
      <trkpt lat="44.084" lon="7.0986">
        <ele>651.1</ele>
        <time>2022-06-11T10:18:43Z</time>
      </trkpt>
      <trkpt lat="44.08397" lon="7.0986">
        <ele>650.8</ele>
        <time>2022-06-11T10:18:44Z</time>
      </trkpt>
      <trkpt lat="44.08395" lon="7.09861">
        <ele>650.3</ele>
        <time>2022-06-11T10:18:45Z</time>
      </trkpt>
      <trkpt lat="44.08393" lon="7.09861">
        <ele>649.5</ele>
        <time>2022-06-11T10:18:46Z</time>
      </trkpt>
      <trkpt lat="44.08391" lon="7.09861">
        <ele>649.3</ele>
        <time>2022-06-11T10:18:47Z</time>
      </trkpt>
      <trkpt lat="44.08389" lon="7.09861">
        <ele>648.6</ele>
        <time>2022-06-11T10:18:48Z</time>
      </trkpt>
      <trkpt lat="44.08386" lon="7.09861">
        <ele>647.2</ele>
        <time>2022-06-11T10:18:49Z</time>
      </trkpt>
      <trkpt lat="44.08384" lon="7.09861">
        <ele>646</ele>
        <time>2022-06-11T10:18:50Z</time>
      </trkpt>
      <trkpt lat="44.08381" lon="7.09861">
        <ele>644.9</ele>
        <time>2022-06-11T10:18:51Z</time>
      </trkpt>
      <trkpt lat="44.08379" lon="7.09859">
        <ele>644.5</ele>
        <time>2022-06-11T10:18:52Z</time>
      </trkpt>
      <trkpt lat="44.08377" lon="7.09858">
        <ele>644.1</ele>
        <time>2022-06-11T10:18:53Z</time>
      </trkpt>
      <trkpt lat="44.08375" lon="7.09856">
        <ele>644.3</ele>
        <time>2022-06-11T10:18:54Z</time>
      </trkpt>
      <trkpt lat="44.08374" lon="7.09853">
        <ele>644.9</ele>
        <time>2022-06-11T10:18:55Z</time>
      </trkpt>
      <trkpt lat="44.08373" lon="7.09851">
        <ele>645.7</ele>
        <time>2022-06-11T10:18:56Z</time>
      </trkpt>
      <trkpt lat="44.08372" lon="7.09848">
        <ele>646.8</ele>
        <time>2022-06-11T10:18:57Z</time>
      </trkpt>
      <trkpt lat="44.08372" lon="7.09845">
        <ele>648.3</ele>
        <time>2022-06-11T10:18:58Z</time>
      </trkpt>
      <trkpt lat="44.08371" lon="7.09842">
        <ele>649.8</ele>
        <time>2022-06-11T10:18:59Z</time>
      </trkpt>
      <trkpt lat="44.08371" lon="7.09839">
        <ele>651.3</ele>
        <time>2022-06-11T10:19:00Z</time>
      </trkpt>
      <trkpt lat="44.08371" lon="7.09836">
        <ele>652.6</ele>
        <time>2022-06-11T10:19:01Z</time>
      </trkpt>
      <trkpt lat="44.08371" lon="7.09833">
        <ele>653.9</ele>
        <time>2022-06-11T10:19:02Z</time>
      </trkpt>
      <trkpt lat="44.0837" lon="7.09829">
        <ele>654.2</ele>
        <time>2022-06-11T10:19:03Z</time>
      </trkpt>
      <trkpt lat="44.0837" lon="7.09826">
        <ele>654.7</ele>
        <time>2022-06-11T10:19:04Z</time>
      </trkpt>
      <trkpt lat="44.0837" lon="7.09823">
        <ele>655.1</ele>
        <time>2022-06-11T10:19:05Z</time>
      </trkpt>
      <trkpt lat="44.0837" lon="7.0982">
        <ele>655.2</ele>
        <time>2022-06-11T10:19:06Z</time>
      </trkpt>
      <trkpt lat="44.0837" lon="7.09816">
        <ele>655.8</ele>
        <time>2022-06-11T10:19:07Z</time>
      </trkpt>
      <trkpt lat="44.0837" lon="7.09813">
        <ele>656.4</ele>
        <time>2022-06-11T10:19:08Z</time>
      </trkpt>
      <trkpt lat="44.0837" lon="7.0981">
        <ele>657.1</ele>
        <time>2022-06-11T10:19:09Z</time>
      </trkpt>
      <trkpt lat="44.08371" lon="7.09807">
        <ele>657.9</ele>
        <time>2022-06-11T10:19:10Z</time>
      </trkpt>
      <trkpt lat="44.08371" lon="7.09804">
        <ele>657.7</ele>
        <time>2022-06-11T10:19:11Z</time>
      </trkpt>
      <trkpt lat="44.08372" lon="7.09801">
        <ele>657.1</ele>
        <time>2022-06-11T10:19:12Z</time>
      </trkpt>
      <trkpt lat="44.08374" lon="7.09798">
        <ele>656.7</ele>
        <time>2022-06-11T10:19:13Z</time>
      </trkpt>
      <trkpt lat="44.08375" lon="7.09796">
        <ele>656.3</ele>
        <time>2022-06-11T10:19:14Z</time>
      </trkpt>
      <trkpt lat="44.08377" lon="7.09794">
        <ele>656.3</ele>
        <time>2022-06-11T10:19:15Z</time>
      </trkpt>
      <trkpt lat="44.08379" lon="7.09793">
        <ele>656.6</ele>
        <time>2022-06-11T10:19:16Z</time>
      </trkpt>
      <trkpt lat="44.08381" lon="7.09792">
        <ele>656.8</ele>
        <time>2022-06-11T10:19:17Z</time>
      </trkpt>
      <trkpt lat="44.08383" lon="7.0979">
        <ele>656.5</ele>
        <time>2022-06-11T10:19:18Z</time>
      </trkpt>
      <trkpt lat="44.08385" lon="7.09789">
        <ele>656.7</ele>
        <time>2022-06-11T10:19:19Z</time>
      </trkpt>
      <trkpt lat="44.08388" lon="7.09788">
        <ele>657.1</ele>
        <time>2022-06-11T10:19:20Z</time>
      </trkpt>
      <trkpt lat="44.0839" lon="7.09787">
        <ele>658</ele>
        <time>2022-06-11T10:19:21Z</time>
      </trkpt>
      <trkpt lat="44.08392" lon="7.09787">
        <ele>658.7</ele>
        <time>2022-06-11T10:19:22Z</time>
      </trkpt>
      <trkpt lat="44.08394" lon="7.09786">
        <ele>659.4</ele>
        <time>2022-06-11T10:19:23Z</time>
      </trkpt>
      <trkpt lat="44.08396" lon="7.09786">
        <ele>660.2</ele>
        <time>2022-06-11T10:19:24Z</time>
      </trkpt>
      <trkpt lat="44.08398" lon="7.09785">
        <ele>660.9</ele>
        <time>2022-06-11T10:19:25Z</time>
      </trkpt>
      <trkpt lat="44.08401" lon="7.09784">
        <ele>661.8</ele>
        <time>2022-06-11T10:19:26Z</time>
      </trkpt>
      <trkpt lat="44.08403" lon="7.09783">
        <ele>662.2</ele>
        <time>2022-06-11T10:19:27Z</time>
      </trkpt>
      <trkpt lat="44.08404" lon="7.09782">
        <ele>662.1</ele>
        <time>2022-06-11T10:19:28Z</time>
      </trkpt>
      <trkpt lat="44.08406" lon="7.0978">
        <ele>662</ele>
        <time>2022-06-11T10:19:29Z</time>
      </trkpt>
      <trkpt lat="44.08408" lon="7.09779">
        <ele>662.2</ele>
        <time>2022-06-11T10:19:30Z</time>
      </trkpt>
      <trkpt lat="44.0841" lon="7.09777">
        <ele>662.7</ele>
        <time>2022-06-11T10:19:31Z</time>
      </trkpt>
      <trkpt lat="44.08412" lon="7.09776">
        <ele>662.9</ele>
        <time>2022-06-11T10:19:32Z</time>
      </trkpt>
      <trkpt lat="44.08414" lon="7.09774">
        <ele>663.1</ele>
        <time>2022-06-11T10:19:33Z</time>
      </trkpt>
      <trkpt lat="44.08415" lon="7.09772">
        <ele>663.1</ele>
        <time>2022-06-11T10:19:34Z</time>
      </trkpt>
      <trkpt lat="44.08417" lon="7.0977">
        <ele>663</ele>
        <time>2022-06-11T10:19:35Z</time>
      </trkpt>
      <trkpt lat="44.08418" lon="7.09768">
        <ele>663.3</ele>
        <time>2022-06-11T10:19:36Z</time>
      </trkpt>
      <trkpt lat="44.0842" lon="7.09766">
        <ele>663.8</ele>
        <time>2022-06-11T10:19:37Z</time>
      </trkpt>
      <trkpt lat="44.08422" lon="7.09764">
        <ele>664.1</ele>
        <time>2022-06-11T10:19:38Z</time>
      </trkpt>
      <trkpt lat="44.08423" lon="7.09762">
        <ele>664.4</ele>
        <time>2022-06-11T10:19:39Z</time>
      </trkpt>
      <trkpt lat="44.08425" lon="7.0976">
        <ele>664.5</ele>
        <time>2022-06-11T10:19:40Z</time>
      </trkpt>
      <trkpt lat="44.08426" lon="7.09758">
        <ele>664.7</ele>
        <time>2022-06-11T10:19:41Z</time>
      </trkpt>
      <trkpt lat="44.08428" lon="7.09755">
        <ele>664.8</ele>
        <time>2022-06-11T10:19:42Z</time>
      </trkpt>
      <trkpt lat="44.08429" lon="7.09752">
        <ele>664.6</ele>
        <time>2022-06-11T10:19:43Z</time>
      </trkpt>
      <trkpt lat="44.08431" lon="7.09749">
        <ele>664.7</ele>
        <time>2022-06-11T10:19:44Z</time>
      </trkpt>
      <trkpt lat="44.08432" lon="7.09746">
        <ele>664.8</ele>
        <time>2022-06-11T10:19:45Z</time>
      </trkpt>
      <trkpt lat="44.08433" lon="7.09743">
        <ele>664.9</ele>
        <time>2022-06-11T10:19:46Z</time>
      </trkpt>
      <trkpt lat="44.08434" lon="7.0974">
        <ele>665</ele>
        <time>2022-06-11T10:19:47Z</time>
      </trkpt>
      <trkpt lat="44.08435" lon="7.09737">
        <ele>665</ele>
        <time>2022-06-11T10:19:48Z</time>
      </trkpt>
      <trkpt lat="44.08436" lon="7.09735">
        <ele>665.2</ele>
        <time>2022-06-11T10:19:49Z</time>
      </trkpt>
      <trkpt lat="44.08438" lon="7.09732">
        <ele>665.6</ele>
        <time>2022-06-11T10:19:50Z</time>
      </trkpt>
      <trkpt lat="44.08439" lon="7.09729">
        <ele>665.9</ele>
        <time>2022-06-11T10:19:51Z</time>
      </trkpt>
      <trkpt lat="44.0844" lon="7.09726">
        <ele>666.4</ele>
        <time>2022-06-11T10:19:52Z</time>
      </trkpt>
      <trkpt lat="44.08441" lon="7.09724">
        <ele>666.9</ele>
        <time>2022-06-11T10:19:53Z</time>
      </trkpt>
      <trkpt lat="44.08442" lon="7.09721">
        <ele>667</ele>
        <time>2022-06-11T10:19:54Z</time>
      </trkpt>
      <trkpt lat="44.08443" lon="7.09718">
        <ele>667</ele>
        <time>2022-06-11T10:19:55Z</time>
      </trkpt>
      <trkpt lat="44.08444" lon="7.09715">
        <ele>667</ele>
        <time>2022-06-11T10:19:56Z</time>
      </trkpt>
      <trkpt lat="44.08445" lon="7.09712">
        <ele>667</ele>
        <time>2022-06-11T10:19:57Z</time>
      </trkpt>
      <trkpt lat="44.08446" lon="7.09709">
        <ele>666.8</ele>
        <time>2022-06-11T10:19:58Z</time>
      </trkpt>
      <trkpt lat="44.08447" lon="7.09706">
        <ele>666.4</ele>
        <time>2022-06-11T10:19:59Z</time>
      </trkpt>
      <trkpt lat="44.08448" lon="7.09703">
        <ele>665.9</ele>
        <time>2022-06-11T10:20:00Z</time>
      </trkpt>
      <trkpt lat="44.08449" lon="7.097">
        <ele>665.8</ele>
        <time>2022-06-11T10:20:01Z</time>
      </trkpt>
      <trkpt lat="44.08449" lon="7.09697">
        <ele>665.6</ele>
        <time>2022-06-11T10:20:02Z</time>
      </trkpt>
      <trkpt lat="44.0845" lon="7.09694">
        <ele>665.3</ele>
        <time>2022-06-11T10:20:03Z</time>
      </trkpt>
      <trkpt lat="44.08451" lon="7.09691">
        <ele>665.1</ele>
        <time>2022-06-11T10:20:04Z</time>
      </trkpt>
      <trkpt lat="44.08452" lon="7.09688">
        <ele>664.6</ele>
        <time>2022-06-11T10:20:05Z</time>
      </trkpt>
      <trkpt lat="44.08453" lon="7.09686">
        <ele>664.5</ele>
        <time>2022-06-11T10:20:06Z</time>
      </trkpt>
      <trkpt lat="44.08454" lon="7.09683">
        <ele>664.6</ele>
        <time>2022-06-11T10:20:07Z</time>
      </trkpt>
      <trkpt lat="44.08455" lon="7.09681">
        <ele>664.7</ele>
        <time>2022-06-11T10:20:08Z</time>
      </trkpt>
      <trkpt lat="44.08456" lon="7.09678">
        <ele>664.4</ele>
        <time>2022-06-11T10:20:09Z</time>
      </trkpt>
      <trkpt lat="44.08458" lon="7.09675">
        <ele>664.3</ele>
        <time>2022-06-11T10:20:10Z</time>
      </trkpt>
      <trkpt lat="44.08459" lon="7.09672">
        <ele>664.2</ele>
        <time>2022-06-11T10:20:11Z</time>
      </trkpt>
      <trkpt lat="44.0846" lon="7.09669">
        <ele>664</ele>
        <time>2022-06-11T10:20:12Z</time>
      </trkpt>
      <trkpt lat="44.08462" lon="7.09667">
        <ele>664.2</ele>
        <time>2022-06-11T10:20:13Z</time>
      </trkpt>
      <trkpt lat="44.08463" lon="7.09665">
        <ele>664.4</ele>
        <time>2022-06-11T10:20:14Z</time>
      </trkpt>
      <trkpt lat="44.08465" lon="7.09663">
        <ele>664.7</ele>
        <time>2022-06-11T10:20:15Z</time>
      </trkpt>
      <trkpt lat="44.08466" lon="7.0966">
        <ele>664.5</ele>
        <time>2022-06-11T10:20:16Z</time>
      </trkpt>
      <trkpt lat="44.08468" lon="7.09658">
        <ele>664.8</ele>
        <time>2022-06-11T10:20:17Z</time>
      </trkpt>
      <trkpt lat="44.0847" lon="7.09657">
        <ele>665.7</ele>
        <time>2022-06-11T10:20:18Z</time>
      </trkpt>
      <trkpt lat="44.08472" lon="7.09655">
        <ele>666.7</ele>
        <time>2022-06-11T10:20:19Z</time>
      </trkpt>
      <trkpt lat="44.08474" lon="7.09654">
        <ele>667.4</ele>
        <time>2022-06-11T10:20:20Z</time>
      </trkpt>
      <trkpt lat="44.08476" lon="7.09653">
        <ele>668</ele>
        <time>2022-06-11T10:20:21Z</time>
      </trkpt>
      <trkpt lat="44.08478" lon="7.09652">
        <ele>668.8</ele>
        <time>2022-06-11T10:20:22Z</time>
      </trkpt>
      <trkpt lat="44.0848" lon="7.09651">
        <ele>669.6</ele>
        <time>2022-06-11T10:20:23Z</time>
      </trkpt>
      <trkpt lat="44.08482" lon="7.09651">
        <ele>670.5</ele>
        <time>2022-06-11T10:20:24Z</time>
      </trkpt>
      <trkpt lat="44.08485" lon="7.09651">
        <ele>671.8</ele>
        <time>2022-06-11T10:20:25Z</time>
      </trkpt>
      <trkpt lat="44.08487" lon="7.09651">
        <ele>673.2</ele>
        <time>2022-06-11T10:20:26Z</time>
      </trkpt>
      <trkpt lat="44.0849" lon="7.09651">
        <ele>674.6</ele>
        <time>2022-06-11T10:20:27Z</time>
      </trkpt>
      <trkpt lat="44.08492" lon="7.09651">
        <ele>675.9</ele>
        <time>2022-06-11T10:20:28Z</time>
      </trkpt>
      <trkpt lat="44.08494" lon="7.09651">
        <ele>677.1</ele>
        <time>2022-06-11T10:20:29Z</time>
      </trkpt>
      <trkpt lat="44.08496" lon="7.09652">
        <ele>678.6</ele>
        <time>2022-06-11T10:20:30Z</time>
      </trkpt>
      <trkpt lat="44.08498" lon="7.09651">
        <ele>679.5</ele>
        <time>2022-06-11T10:20:31Z</time>
      </trkpt>
      <trkpt lat="44.08501" lon="7.09651">
        <ele>680.5</ele>
        <time>2022-06-11T10:20:32Z</time>
      </trkpt>
      <trkpt lat="44.08503" lon="7.0965">
        <ele>681.1</ele>
        <time>2022-06-11T10:20:33Z</time>
      </trkpt>
      <trkpt lat="44.08505" lon="7.09648">
        <ele>681.2</ele>
        <time>2022-06-11T10:20:34Z</time>
      </trkpt>
      <trkpt lat="44.08507" lon="7.09646">
        <ele>680.8</ele>
        <time>2022-06-11T10:20:35Z</time>
      </trkpt>
      <trkpt lat="44.08508" lon="7.09643">
        <ele>680.2</ele>
        <time>2022-06-11T10:20:36Z</time>
      </trkpt>
      <trkpt lat="44.0851" lon="7.09639">
        <ele>679</ele>
        <time>2022-06-11T10:20:37Z</time>
      </trkpt>
      <trkpt lat="44.08511" lon="7.09636">
        <ele>678.6</ele>
        <time>2022-06-11T10:20:38Z</time>
      </trkpt>
      <trkpt lat="44.08513" lon="7.09634">
        <ele>678.7</ele>
        <time>2022-06-11T10:20:39Z</time>
      </trkpt>
      <trkpt lat="44.08515" lon="7.09632">
        <ele>678.9</ele>
        <time>2022-06-11T10:20:40Z</time>
      </trkpt>
      <trkpt lat="44.08517" lon="7.0963">
        <ele>679.2</ele>
        <time>2022-06-11T10:20:41Z</time>
      </trkpt>
      <trkpt lat="44.08518" lon="7.09628">
        <ele>679.5</ele>
        <time>2022-06-11T10:20:42Z</time>
      </trkpt>
      <trkpt lat="44.0852" lon="7.09626">
        <ele>679.7</ele>
        <time>2022-06-11T10:20:43Z</time>
      </trkpt>
      <trkpt lat="44.08522" lon="7.09623">
        <ele>679.9</ele>
        <time>2022-06-11T10:20:44Z</time>
      </trkpt>
      <trkpt lat="44.08524" lon="7.09622">
        <ele>680.3</ele>
        <time>2022-06-11T10:20:45Z</time>
      </trkpt>
      <trkpt lat="44.08526" lon="7.0962">
        <ele>680.6</ele>
        <time>2022-06-11T10:20:46Z</time>
      </trkpt>
      <trkpt lat="44.08527" lon="7.09618">
        <ele>681</ele>
        <time>2022-06-11T10:20:47Z</time>
      </trkpt>
      <trkpt lat="44.08529" lon="7.09617">
        <ele>681.9</ele>
        <time>2022-06-11T10:20:48Z</time>
      </trkpt>
      <trkpt lat="44.08531" lon="7.09615">
        <ele>682.9</ele>
        <time>2022-06-11T10:20:49Z</time>
      </trkpt>
      <trkpt lat="44.08533" lon="7.09613">
        <ele>683.6</ele>
        <time>2022-06-11T10:20:50Z</time>
      </trkpt>
      <trkpt lat="44.08535" lon="7.09611">
        <ele>684</ele>
        <time>2022-06-11T10:20:51Z</time>
      </trkpt>
      <trkpt lat="44.08537" lon="7.09609">
        <ele>684.5</ele>
        <time>2022-06-11T10:20:52Z</time>
      </trkpt>
      <trkpt lat="44.08538" lon="7.09606">
        <ele>684.8</ele>
        <time>2022-06-11T10:20:53Z</time>
      </trkpt>
      <trkpt lat="44.0854" lon="7.09604">
        <ele>685.1</ele>
        <time>2022-06-11T10:20:54Z</time>
      </trkpt>
      <trkpt lat="44.08541" lon="7.09601">
        <ele>685.4</ele>
        <time>2022-06-11T10:20:55Z</time>
      </trkpt>
      <trkpt lat="44.08543" lon="7.09599">
        <ele>685.7</ele>
        <time>2022-06-11T10:20:56Z</time>
      </trkpt>
      <trkpt lat="44.08544" lon="7.09597">
        <ele>685.9</ele>
        <time>2022-06-11T10:20:57Z</time>
      </trkpt>
      <trkpt lat="44.08546" lon="7.09594">
        <ele>686.1</ele>
        <time>2022-06-11T10:20:58Z</time>
      </trkpt>
      <trkpt lat="44.08547" lon="7.09592">
        <ele>686.6</ele>
        <time>2022-06-11T10:20:59Z</time>
      </trkpt>
      <trkpt lat="44.08549" lon="7.0959">
        <ele>686.8</ele>
        <time>2022-06-11T10:21:00Z</time>
      </trkpt>
      <trkpt lat="44.0855" lon="7.09587">
        <ele>686.6</ele>
        <time>2022-06-11T10:21:01Z</time>
      </trkpt>
      <trkpt lat="44.08551" lon="7.09585">
        <ele>686.6</ele>
        <time>2022-06-11T10:21:02Z</time>
      </trkpt>
      <trkpt lat="44.08553" lon="7.09582">
        <ele>686.3</ele>
        <time>2022-06-11T10:21:03Z</time>
      </trkpt>
      <trkpt lat="44.08554" lon="7.09579">
        <ele>686.1</ele>
        <time>2022-06-11T10:21:04Z</time>
      </trkpt>
      <trkpt lat="44.08556" lon="7.09577">
        <ele>686</ele>
        <time>2022-06-11T10:21:05Z</time>
      </trkpt>
      <trkpt lat="44.08557" lon="7.09575">
        <ele>686.1</ele>
        <time>2022-06-11T10:21:06Z</time>
      </trkpt>
      <trkpt lat="44.08559" lon="7.09572">
        <ele>686.4</ele>
        <time>2022-06-11T10:21:07Z</time>
      </trkpt>
      <trkpt lat="44.08561" lon="7.0957">
        <ele>686.8</ele>
        <time>2022-06-11T10:21:08Z</time>
      </trkpt>
      <trkpt lat="44.08562" lon="7.09568">
        <ele>687</ele>
        <time>2022-06-11T10:21:09Z</time>
      </trkpt>
      <trkpt lat="44.08564" lon="7.09566">
        <ele>687.3</ele>
        <time>2022-06-11T10:21:10Z</time>
      </trkpt>
      <trkpt lat="44.08565" lon="7.09564">
        <ele>687.6</ele>
        <time>2022-06-11T10:21:11Z</time>
      </trkpt>
      <trkpt lat="44.08567" lon="7.09561">
        <ele>687.8</ele>
        <time>2022-06-11T10:21:12Z</time>
      </trkpt>
      <trkpt lat="44.08568" lon="7.09559">
        <ele>687.9</ele>
        <time>2022-06-11T10:21:13Z</time>
      </trkpt>
      <trkpt lat="44.0857" lon="7.09556">
        <ele>688.4</ele>
        <time>2022-06-11T10:21:14Z</time>
      </trkpt>
      <trkpt lat="44.08571" lon="7.09554">
        <ele>688.5</ele>
        <time>2022-06-11T10:21:15Z</time>
      </trkpt>
      <trkpt lat="44.08572" lon="7.09552">
        <ele>688.6</ele>
        <time>2022-06-11T10:21:16Z</time>
      </trkpt>
      <trkpt lat="44.08574" lon="7.0955">
        <ele>688.9</ele>
        <time>2022-06-11T10:21:17Z</time>
      </trkpt>
      <trkpt lat="44.08575" lon="7.09547">
        <ele>689</ele>
        <time>2022-06-11T10:21:18Z</time>
      </trkpt>
      <trkpt lat="44.08576" lon="7.09545">
        <ele>688.7</ele>
        <time>2022-06-11T10:21:19Z</time>
      </trkpt>
      <trkpt lat="44.08578" lon="7.09542">
        <ele>688.5</ele>
        <time>2022-06-11T10:21:20Z</time>
      </trkpt>
      <trkpt lat="44.08579" lon="7.0954">
        <ele>688.4</ele>
        <time>2022-06-11T10:21:21Z</time>
      </trkpt>
      <trkpt lat="44.08581" lon="7.09538">
        <ele>688.6</ele>
        <time>2022-06-11T10:21:22Z</time>
      </trkpt>
      <trkpt lat="44.08582" lon="7.09536">
        <ele>688.5</ele>
        <time>2022-06-11T10:21:23Z</time>
      </trkpt>
      <trkpt lat="44.08584" lon="7.09534">
        <ele>688.7</ele>
        <time>2022-06-11T10:21:24Z</time>
      </trkpt>
      <trkpt lat="44.08586" lon="7.09532">
        <ele>689</ele>
        <time>2022-06-11T10:21:25Z</time>
      </trkpt>
      <trkpt lat="44.08587" lon="7.09529">
        <ele>689.2</ele>
        <time>2022-06-11T10:21:26Z</time>
      </trkpt>
      <trkpt lat="44.08589" lon="7.09527">
        <ele>689.8</ele>
        <time>2022-06-11T10:21:27Z</time>
      </trkpt>
      <trkpt lat="44.08591" lon="7.09526">
        <ele>690.7</ele>
        <time>2022-06-11T10:21:28Z</time>
      </trkpt>
      <trkpt lat="44.08592" lon="7.09524">
        <ele>691.3</ele>
        <time>2022-06-11T10:21:29Z</time>
      </trkpt>
      <trkpt lat="44.08594" lon="7.09521">
        <ele>691.9</ele>
        <time>2022-06-11T10:21:30Z</time>
      </trkpt>
      <trkpt lat="44.08595" lon="7.09518">
        <ele>691.9</ele>
        <time>2022-06-11T10:21:31Z</time>
      </trkpt>
      <trkpt lat="44.08596" lon="7.09516">
        <ele>691.7</ele>
        <time>2022-06-11T10:21:32Z</time>
      </trkpt>
      <trkpt lat="44.08598" lon="7.09513">
        <ele>692.1</ele>
        <time>2022-06-11T10:21:33Z</time>
      </trkpt>
      <trkpt lat="44.08599" lon="7.0951">
        <ele>692</ele>
        <time>2022-06-11T10:21:34Z</time>
      </trkpt>
      <trkpt lat="44.086" lon="7.09508">
        <ele>692</ele>
        <time>2022-06-11T10:21:35Z</time>
      </trkpt>
      <trkpt lat="44.08602" lon="7.09506">
        <ele>692.3</ele>
        <time>2022-06-11T10:21:36Z</time>
      </trkpt>
      <trkpt lat="44.08603" lon="7.09503">
        <ele>692.4</ele>
        <time>2022-06-11T10:21:37Z</time>
      </trkpt>
      <trkpt lat="44.08605" lon="7.09501">
        <ele>692.3</ele>
        <time>2022-06-11T10:21:38Z</time>
      </trkpt>
      <trkpt lat="44.08606" lon="7.09498">
        <ele>692.4</ele>
        <time>2022-06-11T10:21:39Z</time>
      </trkpt>
      <trkpt lat="44.08608" lon="7.09496">
        <ele>692.5</ele>
        <time>2022-06-11T10:21:40Z</time>
      </trkpt>
      <trkpt lat="44.08609" lon="7.09494">
        <ele>692.4</ele>
        <time>2022-06-11T10:21:41Z</time>
      </trkpt>
      <trkpt lat="44.0861" lon="7.09491">
        <ele>692.1</ele>
        <time>2022-06-11T10:21:42Z</time>
      </trkpt>
      <trkpt lat="44.08612" lon="7.09489">
        <ele>692</ele>
        <time>2022-06-11T10:21:43Z</time>
      </trkpt>
      <trkpt lat="44.08613" lon="7.09486">
        <ele>691.9</ele>
        <time>2022-06-11T10:21:44Z</time>
      </trkpt>
      <trkpt lat="44.08614" lon="7.09484">
        <ele>691.9</ele>
        <time>2022-06-11T10:21:45Z</time>
      </trkpt>
      <trkpt lat="44.08616" lon="7.09482">
        <ele>692.3</ele>
        <time>2022-06-11T10:21:46Z</time>
      </trkpt>
      <trkpt lat="44.08617" lon="7.0948">
        <ele>692.3</ele>
        <time>2022-06-11T10:21:47Z</time>
      </trkpt>
      <trkpt lat="44.08618" lon="7.09478">
        <ele>692.5</ele>
        <time>2022-06-11T10:21:48Z</time>
      </trkpt>
      <trkpt lat="44.08619" lon="7.09475">
        <ele>692.4</ele>
        <time>2022-06-11T10:21:49Z</time>
      </trkpt>
      <trkpt lat="44.08621" lon="7.09473">
        <ele>692.6</ele>
        <time>2022-06-11T10:21:50Z</time>
      </trkpt>
      <trkpt lat="44.08622" lon="7.0947">
        <ele>692.7</ele>
        <time>2022-06-11T10:21:51Z</time>
      </trkpt>
      <trkpt lat="44.08623" lon="7.09467">
        <ele>692.9</ele>
        <time>2022-06-11T10:21:52Z</time>
      </trkpt>
      <trkpt lat="44.08624" lon="7.09464">
        <ele>693.1</ele>
        <time>2022-06-11T10:21:53Z</time>
      </trkpt>
      <trkpt lat="44.08625" lon="7.09462">
        <ele>693.1</ele>
        <time>2022-06-11T10:21:54Z</time>
      </trkpt>
      <trkpt lat="44.08626" lon="7.09459">
        <ele>693.2</ele>
        <time>2022-06-11T10:21:55Z</time>
      </trkpt>
      <trkpt lat="44.08627" lon="7.09456">
        <ele>692.9</ele>
        <time>2022-06-11T10:21:56Z</time>
      </trkpt>
      <trkpt lat="44.08628" lon="7.09454">
        <ele>692.9</ele>
        <time>2022-06-11T10:21:57Z</time>
      </trkpt>
      <trkpt lat="44.08628" lon="7.09451">
        <ele>692.3</ele>
        <time>2022-06-11T10:21:58Z</time>
      </trkpt>
      <trkpt lat="44.08629" lon="7.09448">
        <ele>692</ele>
        <time>2022-06-11T10:21:59Z</time>
      </trkpt>
      <trkpt lat="44.0863" lon="7.09445">
        <ele>691.7</ele>
        <time>2022-06-11T10:22:00Z</time>
      </trkpt>
      <trkpt lat="44.08631" lon="7.09442">
        <ele>692.1</ele>
        <time>2022-06-11T10:22:01Z</time>
      </trkpt>
      <trkpt lat="44.08632" lon="7.09439">
        <ele>692.2</ele>
        <time>2022-06-11T10:22:02Z</time>
      </trkpt>
      <trkpt lat="44.08633" lon="7.09436">
        <ele>692.5</ele>
        <time>2022-06-11T10:22:03Z</time>
      </trkpt>
      <trkpt lat="44.08634" lon="7.09433">
        <ele>692.7</ele>
        <time>2022-06-11T10:22:04Z</time>
      </trkpt>
      <trkpt lat="44.08634" lon="7.0943">
        <ele>692.8</ele>
        <time>2022-06-11T10:22:05Z</time>
      </trkpt>
      <trkpt lat="44.08635" lon="7.09427">
        <ele>692.9</ele>
        <time>2022-06-11T10:22:06Z</time>
      </trkpt>
      <trkpt lat="44.08636" lon="7.09424">
        <ele>693.1</ele>
        <time>2022-06-11T10:22:07Z</time>
      </trkpt>
      <trkpt lat="44.08636" lon="7.09421">
        <ele>693.3</ele>
        <time>2022-06-11T10:22:08Z</time>
      </trkpt>
      <trkpt lat="44.08637" lon="7.09418">
        <ele>693.5</ele>
        <time>2022-06-11T10:22:09Z</time>
      </trkpt>
      <trkpt lat="44.08638" lon="7.09415">
        <ele>693.5</ele>
        <time>2022-06-11T10:22:10Z</time>
      </trkpt>
      <trkpt lat="44.08638" lon="7.09412">
        <ele>693.3</ele>
        <time>2022-06-11T10:22:11Z</time>
      </trkpt>
      <trkpt lat="44.08638" lon="7.09409">
        <ele>693.3</ele>
        <time>2022-06-11T10:22:12Z</time>
      </trkpt>
      <trkpt lat="44.08639" lon="7.09406">
        <ele>693.5</ele>
        <time>2022-06-11T10:22:13Z</time>
      </trkpt>
      <trkpt lat="44.0864" lon="7.09403">
        <ele>693.7</ele>
        <time>2022-06-11T10:22:14Z</time>
      </trkpt>
      <trkpt lat="44.0864" lon="7.094">
        <ele>693.9</ele>
        <time>2022-06-11T10:22:15Z</time>
      </trkpt>
      <trkpt lat="44.08641" lon="7.09397">
        <ele>693.8</ele>
        <time>2022-06-11T10:22:16Z</time>
      </trkpt>
      <trkpt lat="44.08641" lon="7.09394">
        <ele>693.8</ele>
        <time>2022-06-11T10:22:17Z</time>
      </trkpt>
      <trkpt lat="44.08642" lon="7.09391">
        <ele>693.9</ele>
        <time>2022-06-11T10:22:18Z</time>
      </trkpt>
      <trkpt lat="44.08643" lon="7.09388">
        <ele>694.2</ele>
        <time>2022-06-11T10:22:19Z</time>
      </trkpt>
      <trkpt lat="44.08644" lon="7.09385">
        <ele>694.3</ele>
        <time>2022-06-11T10:22:20Z</time>
      </trkpt>
      <trkpt lat="44.08644" lon="7.09382">
        <ele>694.3</ele>
        <time>2022-06-11T10:22:21Z</time>
      </trkpt>
      <trkpt lat="44.08645" lon="7.09379">
        <ele>694.3</ele>
        <time>2022-06-11T10:22:22Z</time>
      </trkpt>
      <trkpt lat="44.08646" lon="7.09377">
        <ele>694.8</ele>
        <time>2022-06-11T10:22:23Z</time>
      </trkpt>
      <trkpt lat="44.08648" lon="7.09374">
        <ele>695.5</ele>
        <time>2022-06-11T10:22:24Z</time>
      </trkpt>
      <trkpt lat="44.08649" lon="7.09371">
        <ele>696.1</ele>
        <time>2022-06-11T10:22:25Z</time>
      </trkpt>
      <trkpt lat="44.08651" lon="7.09369">
        <ele>696.9</ele>
        <time>2022-06-11T10:22:26Z</time>
      </trkpt>
      <trkpt lat="44.08652" lon="7.09366">
        <ele>697.6</ele>
        <time>2022-06-11T10:22:27Z</time>
      </trkpt>
      <trkpt lat="44.08653" lon="7.09363">
        <ele>697.6</ele>
        <time>2022-06-11T10:22:28Z</time>
      </trkpt>
      <trkpt lat="44.08654" lon="7.0936">
        <ele>697.9</ele>
        <time>2022-06-11T10:22:29Z</time>
      </trkpt>
      <trkpt lat="44.08655" lon="7.09357">
        <ele>698.4</ele>
        <time>2022-06-11T10:22:30Z</time>
      </trkpt>
      <trkpt lat="44.08655" lon="7.09354">
        <ele>698.5</ele>
        <time>2022-06-11T10:22:31Z</time>
      </trkpt>
      <trkpt lat="44.08656" lon="7.09351">
        <ele>698.6</ele>
        <time>2022-06-11T10:22:32Z</time>
      </trkpt>
      <trkpt lat="44.08656" lon="7.09348">
        <ele>698.8</ele>
        <time>2022-06-11T10:22:33Z</time>
      </trkpt>
      <trkpt lat="44.08657" lon="7.09345">
        <ele>699.1</ele>
        <time>2022-06-11T10:22:34Z</time>
      </trkpt>
      <trkpt lat="44.08657" lon="7.09342">
        <ele>699.1</ele>
        <time>2022-06-11T10:22:35Z</time>
      </trkpt>
      <trkpt lat="44.08658" lon="7.09339">
        <ele>699.2</ele>
        <time>2022-06-11T10:22:36Z</time>
      </trkpt>
      <trkpt lat="44.08658" lon="7.09336">
        <ele>699</ele>
        <time>2022-06-11T10:22:37Z</time>
      </trkpt>
      <trkpt lat="44.08658" lon="7.09333">
        <ele>699.2</ele>
        <time>2022-06-11T10:22:38Z</time>
      </trkpt>
      <trkpt lat="44.08658" lon="7.0933">
        <ele>700</ele>
        <time>2022-06-11T10:22:39Z</time>
      </trkpt>
      <trkpt lat="44.08659" lon="7.09327">
        <ele>700.8</ele>
        <time>2022-06-11T10:22:40Z</time>
      </trkpt>
      <trkpt lat="44.08658" lon="7.09324">
        <ele>701.3</ele>
        <time>2022-06-11T10:22:41Z</time>
      </trkpt>
      <trkpt lat="44.08658" lon="7.09321">
        <ele>701.6</ele>
        <time>2022-06-11T10:22:42Z</time>
      </trkpt>
      <trkpt lat="44.08657" lon="7.09319">
        <ele>701.3</ele>
        <time>2022-06-11T10:22:43Z</time>
      </trkpt>
      <trkpt lat="44.08656" lon="7.09317">
        <ele>700.8</ele>
        <time>2022-06-11T10:22:44Z</time>
      </trkpt>
      <trkpt lat="44.08655" lon="7.09314">
        <ele>700.7</ele>
        <time>2022-06-11T10:22:45Z</time>
      </trkpt>
      <trkpt lat="44.08654" lon="7.09311">
        <ele>700.8</ele>
        <time>2022-06-11T10:22:46Z</time>
      </trkpt>
      <trkpt lat="44.08653" lon="7.09308">
        <ele>700.9</ele>
        <time>2022-06-11T10:22:47Z</time>
      </trkpt>
      <trkpt lat="44.08652" lon="7.09305">
        <ele>700.6</ele>
        <time>2022-06-11T10:22:48Z</time>
      </trkpt>
      <trkpt lat="44.08651" lon="7.09303">
        <ele>700.2</ele>
        <time>2022-06-11T10:22:49Z</time>
      </trkpt>
      <trkpt lat="44.08649" lon="7.09301">
        <ele>699.7</ele>
        <time>2022-06-11T10:22:50Z</time>
      </trkpt>
      <trkpt lat="44.08647" lon="7.09298">
        <ele>699</ele>
        <time>2022-06-11T10:22:51Z</time>
      </trkpt>
      <trkpt lat="44.08646" lon="7.09296">
        <ele>698.8</ele>
        <time>2022-06-11T10:22:52Z</time>
      </trkpt>
      <trkpt lat="44.08644" lon="7.09293">
        <ele>698.2</ele>
        <time>2022-06-11T10:22:53Z</time>
      </trkpt>
      <trkpt lat="44.08643" lon="7.0929">
        <ele>697.7</ele>
        <time>2022-06-11T10:22:54Z</time>
      </trkpt>
      <trkpt lat="44.08641" lon="7.09287">
        <ele>697.3</ele>
        <time>2022-06-11T10:22:55Z</time>
      </trkpt>
      <trkpt lat="44.0864" lon="7.09284">
        <ele>697.5</ele>
        <time>2022-06-11T10:22:56Z</time>
      </trkpt>
      <trkpt lat="44.0864" lon="7.09281">
        <ele>697.7</ele>
        <time>2022-06-11T10:22:57Z</time>
      </trkpt>
      <trkpt lat="44.08639" lon="7.09278">
        <ele>698.4</ele>
        <time>2022-06-11T10:22:58Z</time>
      </trkpt>
      <trkpt lat="44.08639" lon="7.09275">
        <ele>697.9</ele>
        <time>2022-06-11T10:22:59Z</time>
      </trkpt>
      <trkpt lat="44.08639" lon="7.09272">
        <ele>697.7</ele>
        <time>2022-06-11T10:23:00Z</time>
      </trkpt>
      <trkpt lat="44.08639" lon="7.09268">
        <ele>697.7</ele>
        <time>2022-06-11T10:23:01Z</time>
      </trkpt>
      <trkpt lat="44.08639" lon="7.09265">
        <ele>697.9</ele>
        <time>2022-06-11T10:23:02Z</time>
      </trkpt>
      <trkpt lat="44.08639" lon="7.09262">
        <ele>698.5</ele>
        <time>2022-06-11T10:23:03Z</time>
      </trkpt>
      <trkpt lat="44.0864" lon="7.09259">
        <ele>699.4</ele>
        <time>2022-06-11T10:23:04Z</time>
      </trkpt>
      <trkpt lat="44.08641" lon="7.09256">
        <ele>700.3</ele>
        <time>2022-06-11T10:23:05Z</time>
      </trkpt>
      <trkpt lat="44.08641" lon="7.09253">
        <ele>701</ele>
        <time>2022-06-11T10:23:06Z</time>
      </trkpt>
      <trkpt lat="44.08642" lon="7.0925">
        <ele>702</ele>
        <time>2022-06-11T10:23:07Z</time>
      </trkpt>
      <trkpt lat="44.08643" lon="7.09247">
        <ele>703.2</ele>
        <time>2022-06-11T10:23:08Z</time>
      </trkpt>
      <trkpt lat="44.08643" lon="7.09244">
        <ele>703.9</ele>
        <time>2022-06-11T10:23:09Z</time>
      </trkpt>
      <trkpt lat="44.08644" lon="7.09241">
        <ele>704.7</ele>
        <time>2022-06-11T10:23:10Z</time>
      </trkpt>
      <trkpt lat="44.08644" lon="7.09238">
        <ele>705.2</ele>
        <time>2022-06-11T10:23:11Z</time>
      </trkpt>
      <trkpt lat="44.08645" lon="7.09235">
        <ele>705.9</ele>
        <time>2022-06-11T10:23:12Z</time>
      </trkpt>
      <trkpt lat="44.08645" lon="7.09232">
        <ele>706.1</ele>
        <time>2022-06-11T10:23:13Z</time>
      </trkpt>
      <trkpt lat="44.08645" lon="7.09229">
        <ele>706.6</ele>
        <time>2022-06-11T10:23:14Z</time>
      </trkpt>
      <trkpt lat="44.08645" lon="7.09226">
        <ele>707.1</ele>
        <time>2022-06-11T10:23:15Z</time>
      </trkpt>
      <trkpt lat="44.08645" lon="7.09223">
        <ele>707.2</ele>
        <time>2022-06-11T10:23:16Z</time>
      </trkpt>
      <trkpt lat="44.08645" lon="7.09219">
        <ele>707.3</ele>
        <time>2022-06-11T10:23:17Z</time>
      </trkpt>
      <trkpt lat="44.08646" lon="7.09216">
        <ele>707.9</ele>
        <time>2022-06-11T10:23:18Z</time>
      </trkpt>
      <trkpt lat="44.08646" lon="7.09213">
        <ele>708.3</ele>
        <time>2022-06-11T10:23:19Z</time>
      </trkpt>
      <trkpt lat="44.08647" lon="7.0921">
        <ele>709</ele>
        <time>2022-06-11T10:23:20Z</time>
      </trkpt>
      <trkpt lat="44.08647" lon="7.09206">
        <ele>709.8</ele>
        <time>2022-06-11T10:23:21Z</time>
      </trkpt>
      <trkpt lat="44.08648" lon="7.09203">
        <ele>710.8</ele>
        <time>2022-06-11T10:23:22Z</time>
      </trkpt>
      <trkpt lat="44.08649" lon="7.092">
        <ele>711.8</ele>
        <time>2022-06-11T10:23:23Z</time>
      </trkpt>
      <trkpt lat="44.0865" lon="7.09198">
        <ele>713.5</ele>
        <time>2022-06-11T10:23:24Z</time>
      </trkpt>
      <trkpt lat="44.08651" lon="7.09196">
        <ele>714.8</ele>
        <time>2022-06-11T10:23:25Z</time>
      </trkpt>
      <trkpt lat="44.08651" lon="7.09193">
        <ele>715.3</ele>
        <time>2022-06-11T10:23:26Z</time>
      </trkpt>
      <trkpt lat="44.08651" lon="7.0919">
        <ele>715.2</ele>
        <time>2022-06-11T10:23:27Z</time>
      </trkpt>
      <trkpt lat="44.08652" lon="7.09187">
        <ele>715.9</ele>
        <time>2022-06-11T10:23:28Z</time>
      </trkpt>
      <trkpt lat="44.08652" lon="7.09183">
        <ele>715.7</ele>
        <time>2022-06-11T10:23:29Z</time>
      </trkpt>
      <trkpt lat="44.08653" lon="7.09181">
        <ele>715.6</ele>
        <time>2022-06-11T10:23:30Z</time>
      </trkpt>
      <trkpt lat="44.08653" lon="7.09177">
        <ele>715.8</ele>
        <time>2022-06-11T10:23:31Z</time>
      </trkpt>
      <trkpt lat="44.08653" lon="7.09175">
        <ele>715.7</ele>
        <time>2022-06-11T10:23:32Z</time>
      </trkpt>
      <trkpt lat="44.08653" lon="7.09172">
        <ele>714.7</ele>
        <time>2022-06-11T10:23:33Z</time>
      </trkpt>
      <trkpt lat="44.08654" lon="7.09169">
        <ele>715</ele>
        <time>2022-06-11T10:23:34Z</time>
      </trkpt>
      <trkpt lat="44.08654" lon="7.09166">
        <ele>715.6</ele>
        <time>2022-06-11T10:23:35Z</time>
      </trkpt>
      <trkpt lat="44.08655" lon="7.09163">
        <ele>716.2</ele>
        <time>2022-06-11T10:23:36Z</time>
      </trkpt>
      <trkpt lat="44.08654" lon="7.0916">
        <ele>715.3</ele>
        <time>2022-06-11T10:23:37Z</time>
      </trkpt>
      <trkpt lat="44.08654" lon="7.09157">
        <ele>715.3</ele>
        <time>2022-06-11T10:23:38Z</time>
      </trkpt>
      <trkpt lat="44.08653" lon="7.09154">
        <ele>714.3</ele>
        <time>2022-06-11T10:23:39Z</time>
      </trkpt>
      <trkpt lat="44.08652" lon="7.09151">
        <ele>713.1</ele>
        <time>2022-06-11T10:23:40Z</time>
      </trkpt>
      <trkpt lat="44.08652" lon="7.09147">
        <ele>712.6</ele>
        <time>2022-06-11T10:23:41Z</time>
      </trkpt>
      <trkpt lat="44.08651" lon="7.09144">
        <ele>711.3</ele>
        <time>2022-06-11T10:23:42Z</time>
      </trkpt>
      <trkpt lat="44.0865" lon="7.09141">
        <ele>710.3</ele>
        <time>2022-06-11T10:23:43Z</time>
      </trkpt>
      <trkpt lat="44.08649" lon="7.09138">
        <ele>709.5</ele>
        <time>2022-06-11T10:23:44Z</time>
      </trkpt>
      <trkpt lat="44.08648" lon="7.09135">
        <ele>709.1</ele>
        <time>2022-06-11T10:23:45Z</time>
      </trkpt>
      <trkpt lat="44.08648" lon="7.09131">
        <ele>710.5</ele>
        <time>2022-06-11T10:23:46Z</time>
      </trkpt>
      <trkpt lat="44.08649" lon="7.09129">
        <ele>712.1</ele>
        <time>2022-06-11T10:23:47Z</time>
      </trkpt>
      <trkpt lat="44.08649" lon="7.09126">
        <ele>712.9</ele>
        <time>2022-06-11T10:23:48Z</time>
      </trkpt>
      <trkpt lat="44.08649" lon="7.09124">
        <ele>713.9</ele>
        <time>2022-06-11T10:23:49Z</time>
      </trkpt>
      <trkpt lat="44.0865" lon="7.09123">
        <ele>715.2</ele>
        <time>2022-06-11T10:23:50Z</time>
      </trkpt>
      <trkpt lat="44.0865" lon="7.09121">
        <ele>716.4</ele>
        <time>2022-06-11T10:23:51Z</time>
      </trkpt>
      <trkpt lat="44.08651" lon="7.09119">
        <ele>718.1</ele>
        <time>2022-06-11T10:23:52Z</time>
      </trkpt>
      <trkpt lat="44.08651" lon="7.09116">
        <ele>718.6</ele>
        <time>2022-06-11T10:23:53Z</time>
      </trkpt>
      <trkpt lat="44.0865" lon="7.09113">
        <ele>719</ele>
        <time>2022-06-11T10:23:54Z</time>
      </trkpt>
      <trkpt lat="44.0865" lon="7.0911">
        <ele>720</ele>
        <time>2022-06-11T10:23:55Z</time>
      </trkpt>
      <trkpt lat="44.0865" lon="7.09106">
        <ele>721.7</ele>
        <time>2022-06-11T10:23:56Z</time>
      </trkpt>
      <trkpt lat="44.0865" lon="7.09103">
        <ele>722.7</ele>
        <time>2022-06-11T10:23:57Z</time>
      </trkpt>
      <trkpt lat="44.08649" lon="7.091">
        <ele>723.5</ele>
        <time>2022-06-11T10:23:58Z</time>
      </trkpt>
      <trkpt lat="44.08648" lon="7.09097">
        <ele>723</ele>
        <time>2022-06-11T10:23:59Z</time>
      </trkpt>
      <trkpt lat="44.08648" lon="7.09093">
        <ele>724.6</ele>
        <time>2022-06-11T10:24:00Z</time>
      </trkpt>
      <trkpt lat="44.08646" lon="7.0909">
        <ele>723.9</ele>
        <time>2022-06-11T10:24:01Z</time>
      </trkpt>
      <trkpt lat="44.08644" lon="7.09088">
        <ele>721.7</ele>
        <time>2022-06-11T10:24:02Z</time>
      </trkpt>
      <trkpt lat="44.08643" lon="7.09085">
        <ele>721.9</ele>
        <time>2022-06-11T10:24:03Z</time>
      </trkpt>
      <trkpt lat="44.08641" lon="7.09083">
        <ele>721.2</ele>
        <time>2022-06-11T10:24:04Z</time>
      </trkpt>
      <trkpt lat="44.0864" lon="7.0908">
        <ele>720.6</ele>
        <time>2022-06-11T10:24:05Z</time>
      </trkpt>
      <trkpt lat="44.08639" lon="7.09077">
        <ele>720.9</ele>
        <time>2022-06-11T10:24:06Z</time>
      </trkpt>
      <trkpt lat="44.08637" lon="7.09074">
        <ele>721.4</ele>
        <time>2022-06-11T10:24:07Z</time>
      </trkpt>
      <trkpt lat="44.08637" lon="7.09071">
        <ele>722.5</ele>
        <time>2022-06-11T10:24:08Z</time>
      </trkpt>
      <trkpt lat="44.08636" lon="7.09068">
        <ele>723.4</ele>
        <time>2022-06-11T10:24:09Z</time>
      </trkpt>
      <trkpt lat="44.08636" lon="7.09064">
        <ele>725.4</ele>
        <time>2022-06-11T10:24:10Z</time>
      </trkpt>
      <trkpt lat="44.08635" lon="7.09061">
        <ele>726.6</ele>
        <time>2022-06-11T10:24:11Z</time>
      </trkpt>
      <trkpt lat="44.08635" lon="7.09058">
        <ele>727.8</ele>
        <time>2022-06-11T10:24:12Z</time>
      </trkpt>
      <trkpt lat="44.08634" lon="7.09055">
        <ele>729.4</ele>
        <time>2022-06-11T10:24:13Z</time>
      </trkpt>
      <trkpt lat="44.08634" lon="7.09052">
        <ele>731.6</ele>
        <time>2022-06-11T10:24:14Z</time>
      </trkpt>
      <trkpt lat="44.08633" lon="7.0905">
        <ele>733.2</ele>
        <time>2022-06-11T10:24:15Z</time>
      </trkpt>
      <trkpt lat="44.08631" lon="7.09048">
        <ele>734</ele>
        <time>2022-06-11T10:24:16Z</time>
      </trkpt>
      <trkpt lat="44.0863" lon="7.09045">
        <ele>735.7</ele>
        <time>2022-06-11T10:24:17Z</time>
      </trkpt>
      <trkpt lat="44.08629" lon="7.09043">
        <ele>737.4</ele>
        <time>2022-06-11T10:24:18Z</time>
      </trkpt>
      <trkpt lat="44.08627" lon="7.09041">
        <ele>738.6</ele>
        <time>2022-06-11T10:24:19Z</time>
      </trkpt>
      <trkpt lat="44.08626" lon="7.09038">
        <ele>740.4</ele>
        <time>2022-06-11T10:24:20Z</time>
      </trkpt>
      <trkpt lat="44.08625" lon="7.09035">
        <ele>743.2</ele>
        <time>2022-06-11T10:24:21Z</time>
      </trkpt>
      <trkpt lat="44.08624" lon="7.09032">
        <ele>745.8</ele>
        <time>2022-06-11T10:24:22Z</time>
      </trkpt>
      <trkpt lat="44.08624" lon="7.09032">
        <ele>745.8</ele>
        <time>2022-06-11T10:24:23Z</time>
      </trkpt>
      <trkpt lat="44.08624" lon="7.09032">
        <ele>745.8</ele>
        <time>2022-06-11T10:24:24Z</time>
      </trkpt>
      <trkpt lat="44.08624" lon="7.09032">
        <ele>745.8</ele>
        <time>2022-06-11T10:24:25Z</time>
      </trkpt>
      <trkpt lat="44.08624" lon="7.09032">
        <ele>745.8</ele>
        <time>2022-06-11T10:24:26Z</time>
      </trkpt>
      <trkpt lat="44.08624" lon="7.09032">
        <ele>745.8</ele>
        <time>2022-06-11T10:24:27Z</time>
      </trkpt>
      <trkpt lat="44.08624" lon="7.09032">
        <ele>745.8</ele>
        <time>2022-06-11T10:24:28Z</time>
      </trkpt>
      <trkpt lat="44.08624" lon="7.09032">
        <ele>745.8</ele>
        <time>2022-06-11T10:24:29Z</time>
      </trkpt>
      <trkpt lat="44.08624" lon="7.09032">
        <ele>745.8</ele>
        <time>2022-06-11T10:24:30Z</time>
      </trkpt>
      <trkpt lat="44.08624" lon="7.09032">
        <ele>745.8</ele>
        <time>2022-06-11T10:24:31Z</time>
      </trkpt>
      <trkpt lat="44.08624" lon="7.09032">
        <ele>745.8</ele>
        <time>2022-06-11T10:24:32Z</time>
      </trkpt>
      <trkpt lat="44.08624" lon="7.09032">
        <ele>745.8</ele>
        <time>2022-06-11T10:24:33Z</time>
      </trkpt>
      <trkpt lat="44.08624" lon="7.09032">
        <ele>745.8</ele>
        <time>2022-06-11T10:24:34Z</time>
      </trkpt>
      <trkpt lat="44.08624" lon="7.09032">
        <ele>745.8</ele>
        <time>2022-06-11T10:24:35Z</time>
      </trkpt>
      <trkpt lat="44.08624" lon="7.09032">
        <ele>745.8</ele>
        <time>2022-06-11T10:24:36Z</time>
      </trkpt>
      <trkpt lat="44.08624" lon="7.09032">
        <ele>745.8</ele>
        <time>2022-06-11T10:24:37Z</time>
      </trkpt>
      <trkpt lat="44.08624" lon="7.09032">
        <ele>745.8</ele>
        <time>2022-06-11T10:24:38Z</time>
      </trkpt>
      <trkpt lat="44.08624" lon="7.09032">
        <ele>745.8</ele>
        <time>2022-06-11T10:24:39Z</time>
      </trkpt>
      <trkpt lat="44.08624" lon="7.09032">
        <ele>745.8</ele>
        <time>2022-06-11T10:24:40Z</time>
      </trkpt>
      <trkpt lat="44.08624" lon="7.09032">
        <ele>745.8</ele>
        <time>2022-06-11T10:24:41Z</time>
      </trkpt>
      <trkpt lat="44.08624" lon="7.09032">
        <ele>745.8</ele>
        <time>2022-06-11T10:24:42Z</time>
      </trkpt>
      <trkpt lat="44.08624" lon="7.09032">
        <ele>745.8</ele>
        <time>2022-06-11T10:24:43Z</time>
      </trkpt>
      <trkpt lat="44.08567" lon="7.08957">
        <ele>741</ele>
        <time>2022-06-11T10:24:44Z</time>
      </trkpt>
      <trkpt lat="44.08569" lon="7.0896">
        <ele>742</ele>
        <time>2022-06-11T10:24:45Z</time>
      </trkpt>
      <trkpt lat="44.08568" lon="7.08959">
        <ele>741.6</ele>
        <time>2022-06-11T10:24:46Z</time>
      </trkpt>
      <trkpt lat="44.08567" lon="7.08959">
        <ele>739.9</ele>
        <time>2022-06-11T10:24:47Z</time>
      </trkpt>
      <trkpt lat="44.08565" lon="7.08959">
        <ele>738.4</ele>
        <time>2022-06-11T10:24:48Z</time>
      </trkpt>
      <trkpt lat="44.08563" lon="7.08959">
        <ele>736.3</ele>
        <time>2022-06-11T10:24:49Z</time>
      </trkpt>
      <trkpt lat="44.08561" lon="7.08959">
        <ele>734.4</ele>
        <time>2022-06-11T10:24:50Z</time>
      </trkpt>
      <trkpt lat="44.08558" lon="7.08959">
        <ele>731.5</ele>
        <time>2022-06-11T10:24:51Z</time>
      </trkpt>
      <trkpt lat="44.08556" lon="7.08958">
        <ele>730.3</ele>
        <time>2022-06-11T10:24:52Z</time>
      </trkpt>
      <trkpt lat="44.08554" lon="7.08955">
        <ele>730.5</ele>
        <time>2022-06-11T10:24:53Z</time>
      </trkpt>
      <trkpt lat="44.08552" lon="7.08953">
        <ele>731.3</ele>
        <time>2022-06-11T10:24:54Z</time>
      </trkpt>
      <trkpt lat="44.08551" lon="7.0895">
        <ele>731.9</ele>
        <time>2022-06-11T10:24:55Z</time>
      </trkpt>
      <trkpt lat="44.08549" lon="7.08948">
        <ele>732.1</ele>
        <time>2022-06-11T10:24:56Z</time>
      </trkpt>
      <trkpt lat="44.08547" lon="7.08946">
        <ele>732.2</ele>
        <time>2022-06-11T10:24:57Z</time>
      </trkpt>
      <trkpt lat="44.08545" lon="7.08944">
        <ele>732.3</ele>
        <time>2022-06-11T10:24:58Z</time>
      </trkpt>
      <trkpt lat="44.08543" lon="7.08942">
        <ele>731.8</ele>
        <time>2022-06-11T10:24:59Z</time>
      </trkpt>
      <trkpt lat="44.08541" lon="7.0894">
        <ele>731.4</ele>
        <time>2022-06-11T10:25:00Z</time>
      </trkpt>
      <trkpt lat="44.08539" lon="7.08939">
        <ele>730.9</ele>
        <time>2022-06-11T10:25:01Z</time>
      </trkpt>
      <trkpt lat="44.08537" lon="7.08937">
        <ele>730.4</ele>
        <time>2022-06-11T10:25:02Z</time>
      </trkpt>
      <trkpt lat="44.08535" lon="7.08935">
        <ele>730</ele>
        <time>2022-06-11T10:25:03Z</time>
      </trkpt>
      <trkpt lat="44.08533" lon="7.08934">
        <ele>728.9</ele>
        <time>2022-06-11T10:25:04Z</time>
      </trkpt>
      <trkpt lat="44.08531" lon="7.08932">
        <ele>727.8</ele>
        <time>2022-06-11T10:25:05Z</time>
      </trkpt>
      <trkpt lat="44.08529" lon="7.0893">
        <ele>727.2</ele>
        <time>2022-06-11T10:25:06Z</time>
      </trkpt>
      <trkpt lat="44.08527" lon="7.08928">
        <ele>726.4</ele>
        <time>2022-06-11T10:25:07Z</time>
      </trkpt>
      <trkpt lat="44.08526" lon="7.08926">
        <ele>726</ele>
        <time>2022-06-11T10:25:08Z</time>
      </trkpt>
      <trkpt lat="44.08524" lon="7.08924">
        <ele>725.7</ele>
        <time>2022-06-11T10:25:09Z</time>
      </trkpt>
      <trkpt lat="44.08523" lon="7.0892">
        <ele>725.9</ele>
        <time>2022-06-11T10:25:10Z</time>
      </trkpt>
      <trkpt lat="44.08522" lon="7.08918">
        <ele>726</ele>
        <time>2022-06-11T10:25:11Z</time>
      </trkpt>
      <trkpt lat="44.08521" lon="7.08915">
        <ele>725.4</ele>
        <time>2022-06-11T10:25:12Z</time>
      </trkpt>
      <trkpt lat="44.08521" lon="7.08912">
        <ele>725</ele>
        <time>2022-06-11T10:25:13Z</time>
      </trkpt>
      <trkpt lat="44.08521" lon="7.08909">
        <ele>724.8</ele>
        <time>2022-06-11T10:25:14Z</time>
      </trkpt>
      <trkpt lat="44.08521" lon="7.08906">
        <ele>724.9</ele>
        <time>2022-06-11T10:25:15Z</time>
      </trkpt>
      <trkpt lat="44.08521" lon="7.08903">
        <ele>725.1</ele>
        <time>2022-06-11T10:25:16Z</time>
      </trkpt>
      <trkpt lat="44.08522" lon="7.089">
        <ele>725.5</ele>
        <time>2022-06-11T10:25:17Z</time>
      </trkpt>
      <trkpt lat="44.08522" lon="7.08896">
        <ele>725.8</ele>
        <time>2022-06-11T10:25:18Z</time>
      </trkpt>
      <trkpt lat="44.08523" lon="7.08893">
        <ele>726.3</ele>
        <time>2022-06-11T10:25:19Z</time>
      </trkpt>
      <trkpt lat="44.08524" lon="7.0889">
        <ele>727</ele>
        <time>2022-06-11T10:25:20Z</time>
      </trkpt>
      <trkpt lat="44.08525" lon="7.08887">
        <ele>727.8</ele>
        <time>2022-06-11T10:25:21Z</time>
      </trkpt>
      <trkpt lat="44.08526" lon="7.08884">
        <ele>728.3</ele>
        <time>2022-06-11T10:25:22Z</time>
      </trkpt>
      <trkpt lat="44.08527" lon="7.08881">
        <ele>728.9</ele>
        <time>2022-06-11T10:25:23Z</time>
      </trkpt>
      <trkpt lat="44.08528" lon="7.08878">
        <ele>729.5</ele>
        <time>2022-06-11T10:25:24Z</time>
      </trkpt>
      <trkpt lat="44.08529" lon="7.08875">
        <ele>730.4</ele>
        <time>2022-06-11T10:25:25Z</time>
      </trkpt>
      <trkpt lat="44.08529" lon="7.08873">
        <ele>731</ele>
        <time>2022-06-11T10:25:26Z</time>
      </trkpt>
      <trkpt lat="44.0853" lon="7.08869">
        <ele>731.5</ele>
        <time>2022-06-11T10:25:27Z</time>
      </trkpt>
      <trkpt lat="44.0853" lon="7.08866">
        <ele>732</ele>
        <time>2022-06-11T10:25:28Z</time>
      </trkpt>
      <trkpt lat="44.0853" lon="7.08863">
        <ele>732.3</ele>
        <time>2022-06-11T10:25:29Z</time>
      </trkpt>
      <trkpt lat="44.08531" lon="7.0886">
        <ele>732.4</ele>
        <time>2022-06-11T10:25:30Z</time>
      </trkpt>
      <trkpt lat="44.08531" lon="7.08857">
        <ele>732</ele>
        <time>2022-06-11T10:25:31Z</time>
      </trkpt>
      <trkpt lat="44.08531" lon="7.08854">
        <ele>732.2</ele>
        <time>2022-06-11T10:25:32Z</time>
      </trkpt>
      <trkpt lat="44.08532" lon="7.0885">
        <ele>732.5</ele>
        <time>2022-06-11T10:25:33Z</time>
      </trkpt>
      <trkpt lat="44.08532" lon="7.08847">
        <ele>732.7</ele>
        <time>2022-06-11T10:25:34Z</time>
      </trkpt>
      <trkpt lat="44.08533" lon="7.08844">
        <ele>732.9</ele>
        <time>2022-06-11T10:25:35Z</time>
      </trkpt>
      <trkpt lat="44.08533" lon="7.08841">
        <ele>732.9</ele>
        <time>2022-06-11T10:25:36Z</time>
      </trkpt>
      <trkpt lat="44.08533" lon="7.08837">
        <ele>732.6</ele>
        <time>2022-06-11T10:25:37Z</time>
      </trkpt>
      <trkpt lat="44.08533" lon="7.08834">
        <ele>732.1</ele>
        <time>2022-06-11T10:25:38Z</time>
      </trkpt>
      <trkpt lat="44.08534" lon="7.08831">
        <ele>732.4</ele>
        <time>2022-06-11T10:25:39Z</time>
      </trkpt>
      <trkpt lat="44.08534" lon="7.08827">
        <ele>732.5</ele>
        <time>2022-06-11T10:25:40Z</time>
      </trkpt>
      <trkpt lat="44.08534" lon="7.08824">
        <ele>732.6</ele>
        <time>2022-06-11T10:25:41Z</time>
      </trkpt>
      <trkpt lat="44.08534" lon="7.0882">
        <ele>732.3</ele>
        <time>2022-06-11T10:25:42Z</time>
      </trkpt>
      <trkpt lat="44.08534" lon="7.08817">
        <ele>732.2</ele>
        <time>2022-06-11T10:25:43Z</time>
      </trkpt>
      <trkpt lat="44.08535" lon="7.08814">
        <ele>732.6</ele>
        <time>2022-06-11T10:25:44Z</time>
      </trkpt>
      <trkpt lat="44.08535" lon="7.0881">
        <ele>732.5</ele>
        <time>2022-06-11T10:25:45Z</time>
      </trkpt>
      <trkpt lat="44.08535" lon="7.08807">
        <ele>732.3</ele>
        <time>2022-06-11T10:25:46Z</time>
      </trkpt>
      <trkpt lat="44.08535" lon="7.08803">
        <ele>732.2</ele>
        <time>2022-06-11T10:25:47Z</time>
      </trkpt>
      <trkpt lat="44.08535" lon="7.088">
        <ele>732.4</ele>
        <time>2022-06-11T10:25:48Z</time>
      </trkpt>
      <trkpt lat="44.08536" lon="7.08797">
        <ele>732.6</ele>
        <time>2022-06-11T10:25:49Z</time>
      </trkpt>
      <trkpt lat="44.08536" lon="7.08793">
        <ele>732.7</ele>
        <time>2022-06-11T10:25:50Z</time>
      </trkpt>
      <trkpt lat="44.08536" lon="7.0879">
        <ele>733.1</ele>
        <time>2022-06-11T10:25:51Z</time>
      </trkpt>
      <trkpt lat="44.08536" lon="7.08787">
        <ele>733</ele>
        <time>2022-06-11T10:25:52Z</time>
      </trkpt>
      <trkpt lat="44.08536" lon="7.08784">
        <ele>733.3</ele>
        <time>2022-06-11T10:25:53Z</time>
      </trkpt>
      <trkpt lat="44.08537" lon="7.0878">
        <ele>733.6</ele>
        <time>2022-06-11T10:25:54Z</time>
      </trkpt>
      <trkpt lat="44.08537" lon="7.08777">
        <ele>734.1</ele>
        <time>2022-06-11T10:25:55Z</time>
      </trkpt>
      <trkpt lat="44.08538" lon="7.08774">
        <ele>735</ele>
        <time>2022-06-11T10:25:56Z</time>
      </trkpt>
      <trkpt lat="44.08539" lon="7.08771">
        <ele>735.6</ele>
        <time>2022-06-11T10:25:57Z</time>
      </trkpt>
      <trkpt lat="44.08539" lon="7.08768">
        <ele>736.3</ele>
        <time>2022-06-11T10:25:58Z</time>
      </trkpt>
      <trkpt lat="44.0854" lon="7.08765">
        <ele>737.2</ele>
        <time>2022-06-11T10:25:59Z</time>
      </trkpt>
      <trkpt lat="44.08541" lon="7.08762">
        <ele>737.8</ele>
        <time>2022-06-11T10:26:00Z</time>
      </trkpt>
      <trkpt lat="44.08542" lon="7.0876">
        <ele>738.7</ele>
        <time>2022-06-11T10:26:01Z</time>
      </trkpt>
      <trkpt lat="44.08542" lon="7.08756">
        <ele>738.8</ele>
        <time>2022-06-11T10:26:02Z</time>
      </trkpt>
      <trkpt lat="44.08543" lon="7.08753">
        <ele>738.8</ele>
        <time>2022-06-11T10:26:03Z</time>
      </trkpt>
      <trkpt lat="44.08543" lon="7.0875">
        <ele>738.8</ele>
        <time>2022-06-11T10:26:04Z</time>
      </trkpt>
      <trkpt lat="44.08543" lon="7.08746">
        <ele>739.2</ele>
        <time>2022-06-11T10:26:05Z</time>
      </trkpt>
      <trkpt lat="44.08543" lon="7.08743">
        <ele>739.5</ele>
        <time>2022-06-11T10:26:06Z</time>
      </trkpt>
      <trkpt lat="44.08542" lon="7.0874">
        <ele>739.6</ele>
        <time>2022-06-11T10:26:07Z</time>
      </trkpt>
      <trkpt lat="44.08542" lon="7.08737">
        <ele>739.7</ele>
        <time>2022-06-11T10:26:08Z</time>
      </trkpt>
      <trkpt lat="44.08542" lon="7.08734">
        <ele>740</ele>
        <time>2022-06-11T10:26:09Z</time>
      </trkpt>
      <trkpt lat="44.08542" lon="7.08731">
        <ele>740.6</ele>
        <time>2022-06-11T10:26:10Z</time>
      </trkpt>
      <trkpt lat="44.08542" lon="7.08727">
        <ele>740.7</ele>
        <time>2022-06-11T10:26:11Z</time>
      </trkpt>
      <trkpt lat="44.08542" lon="7.08724">
        <ele>740.8</ele>
        <time>2022-06-11T10:26:12Z</time>
      </trkpt>
      <trkpt lat="44.08541" lon="7.08721">
        <ele>740.9</ele>
        <time>2022-06-11T10:26:13Z</time>
      </trkpt>
      <trkpt lat="44.0854" lon="7.08718">
        <ele>741.1</ele>
        <time>2022-06-11T10:26:14Z</time>
      </trkpt>
      <trkpt lat="44.08539" lon="7.08714">
        <ele>741.1</ele>
        <time>2022-06-11T10:26:15Z</time>
      </trkpt>
      <trkpt lat="44.08539" lon="7.08711">
        <ele>741.4</ele>
        <time>2022-06-11T10:26:16Z</time>
      </trkpt>
      <trkpt lat="44.08538" lon="7.08707">
        <ele>741.6</ele>
        <time>2022-06-11T10:26:17Z</time>
      </trkpt>
      <trkpt lat="44.08537" lon="7.08704">
        <ele>742</ele>
        <time>2022-06-11T10:26:18Z</time>
      </trkpt>
      <trkpt lat="44.08537" lon="7.087">
        <ele>742.4</ele>
        <time>2022-06-11T10:26:19Z</time>
      </trkpt>
      <trkpt lat="44.08536" lon="7.08696">
        <ele>742.5</ele>
        <time>2022-06-11T10:26:20Z</time>
      </trkpt>
      <trkpt lat="44.08535" lon="7.08693">
        <ele>742.1</ele>
        <time>2022-06-11T10:26:21Z</time>
      </trkpt>
      <trkpt lat="44.08533" lon="7.0869">
        <ele>741.7</ele>
        <time>2022-06-11T10:26:22Z</time>
      </trkpt>
      <trkpt lat="44.08533" lon="7.08687">
        <ele>741.7</ele>
        <time>2022-06-11T10:26:23Z</time>
      </trkpt>
      <trkpt lat="44.08531" lon="7.08683">
        <ele>741.2</ele>
        <time>2022-06-11T10:26:24Z</time>
      </trkpt>
      <trkpt lat="44.0853" lon="7.08678">
        <ele>741.1</ele>
        <time>2022-06-11T10:26:25Z</time>
      </trkpt>
      <trkpt lat="44.08529" lon="7.08673">
        <ele>741.1</ele>
        <time>2022-06-11T10:26:26Z</time>
      </trkpt>
      <trkpt lat="44.08529" lon="7.08669">
        <ele>741.4</ele>
        <time>2022-06-11T10:26:27Z</time>
      </trkpt>
      <trkpt lat="44.08529" lon="7.08665">
        <ele>741.9</ele>
        <time>2022-06-11T10:26:28Z</time>
      </trkpt>
      <trkpt lat="44.08529" lon="7.0866">
        <ele>742.2</ele>
        <time>2022-06-11T10:26:29Z</time>
      </trkpt>
      <trkpt lat="44.08529" lon="7.08656">
        <ele>743</ele>
        <time>2022-06-11T10:26:30Z</time>
      </trkpt>
      <trkpt lat="44.08529" lon="7.08652">
        <ele>743.5</ele>
        <time>2022-06-11T10:26:31Z</time>
      </trkpt>
      <trkpt lat="44.0853" lon="7.08647">
        <ele>744.4</ele>
        <time>2022-06-11T10:26:32Z</time>
      </trkpt>
      <trkpt lat="44.0853" lon="7.08642">
        <ele>745.2</ele>
        <time>2022-06-11T10:26:33Z</time>
      </trkpt>
      <trkpt lat="44.0853" lon="7.08638">
        <ele>745.7</ele>
        <time>2022-06-11T10:26:34Z</time>
      </trkpt>
      <trkpt lat="44.0853" lon="7.08635">
        <ele>746.3</ele>
        <time>2022-06-11T10:26:35Z</time>
      </trkpt>
      <trkpt lat="44.0853" lon="7.08632">
        <ele>746.3</ele>
        <time>2022-06-11T10:26:36Z</time>
      </trkpt>
      <trkpt lat="44.08529" lon="7.08628">
        <ele>746.6</ele>
        <time>2022-06-11T10:26:37Z</time>
      </trkpt>
      <trkpt lat="44.08529" lon="7.08625">
        <ele>746.7</ele>
        <time>2022-06-11T10:26:38Z</time>
      </trkpt>
      <trkpt lat="44.08528" lon="7.08621">
        <ele>746.6</ele>
        <time>2022-06-11T10:26:39Z</time>
      </trkpt>
      <trkpt lat="44.08528" lon="7.08618">
        <ele>746.6</ele>
        <time>2022-06-11T10:26:40Z</time>
      </trkpt>
      <trkpt lat="44.08527" lon="7.08615">
        <ele>746.4</ele>
        <time>2022-06-11T10:26:41Z</time>
      </trkpt>
      <trkpt lat="44.08526" lon="7.08611">
        <ele>746.3</ele>
        <time>2022-06-11T10:26:42Z</time>
      </trkpt>
      <trkpt lat="44.08526" lon="7.08608">
        <ele>746</ele>
        <time>2022-06-11T10:26:43Z</time>
      </trkpt>
      <trkpt lat="44.08525" lon="7.08605">
        <ele>745.7</ele>
        <time>2022-06-11T10:26:44Z</time>
      </trkpt>
      <trkpt lat="44.08524" lon="7.08601">
        <ele>745.7</ele>
        <time>2022-06-11T10:26:45Z</time>
      </trkpt>
      <trkpt lat="44.08524" lon="7.08597">
        <ele>745.8</ele>
        <time>2022-06-11T10:26:46Z</time>
      </trkpt>
      <trkpt lat="44.08524" lon="7.08594">
        <ele>746.1</ele>
        <time>2022-06-11T10:26:47Z</time>
      </trkpt>
      <trkpt lat="44.08524" lon="7.0859">
        <ele>746.1</ele>
        <time>2022-06-11T10:26:48Z</time>
      </trkpt>
      <trkpt lat="44.08523" lon="7.08587">
        <ele>746.2</ele>
        <time>2022-06-11T10:26:49Z</time>
      </trkpt>
      <trkpt lat="44.08523" lon="7.08584">
        <ele>746.3</ele>
        <time>2022-06-11T10:26:50Z</time>
      </trkpt>
      <trkpt lat="44.08523" lon="7.08581">
        <ele>746.2</ele>
        <time>2022-06-11T10:26:51Z</time>
      </trkpt>
      <trkpt lat="44.08522" lon="7.08578">
        <ele>746.1</ele>
        <time>2022-06-11T10:26:52Z</time>
      </trkpt>
      <trkpt lat="44.08521" lon="7.08575">
        <ele>746</ele>
        <time>2022-06-11T10:26:53Z</time>
      </trkpt>
      <trkpt lat="44.08521" lon="7.08572">
        <ele>746.2</ele>
        <time>2022-06-11T10:26:54Z</time>
      </trkpt>
      <trkpt lat="44.08521" lon="7.08569">
        <ele>746.5</ele>
        <time>2022-06-11T10:26:55Z</time>
      </trkpt>
      <trkpt lat="44.08521" lon="7.08566">
        <ele>746.9</ele>
        <time>2022-06-11T10:26:56Z</time>
      </trkpt>
      <trkpt lat="44.08521" lon="7.08562">
        <ele>747.3</ele>
        <time>2022-06-11T10:26:57Z</time>
      </trkpt>
      <trkpt lat="44.08521" lon="7.08559">
        <ele>747.8</ele>
        <time>2022-06-11T10:26:58Z</time>
      </trkpt>
      <trkpt lat="44.0852" lon="7.08555">
        <ele>748</ele>
        <time>2022-06-11T10:26:59Z</time>
      </trkpt>
      <trkpt lat="44.0852" lon="7.08552">
        <ele>748.3</ele>
        <time>2022-06-11T10:27:00Z</time>
      </trkpt>
      <trkpt lat="44.0852" lon="7.08549">
        <ele>748.8</ele>
        <time>2022-06-11T10:27:01Z</time>
      </trkpt>
      <trkpt lat="44.0852" lon="7.08546">
        <ele>749.1</ele>
        <time>2022-06-11T10:27:02Z</time>
      </trkpt>
      <trkpt lat="44.0852" lon="7.08542">
        <ele>749.4</ele>
        <time>2022-06-11T10:27:03Z</time>
      </trkpt>
      <trkpt lat="44.08519" lon="7.08539">
        <ele>749.6</ele>
        <time>2022-06-11T10:27:04Z</time>
      </trkpt>
      <trkpt lat="44.08519" lon="7.08536">
        <ele>749.7</ele>
        <time>2022-06-11T10:27:05Z</time>
      </trkpt>
      <trkpt lat="44.08518" lon="7.08533">
        <ele>749.8</ele>
        <time>2022-06-11T10:27:06Z</time>
      </trkpt>
      <trkpt lat="44.08518" lon="7.0853">
        <ele>750.1</ele>
        <time>2022-06-11T10:27:07Z</time>
      </trkpt>
      <trkpt lat="44.08518" lon="7.08526">
        <ele>750.4</ele>
        <time>2022-06-11T10:27:08Z</time>
      </trkpt>
      <trkpt lat="44.08518" lon="7.08523">
        <ele>750.5</ele>
        <time>2022-06-11T10:27:09Z</time>
      </trkpt>
      <trkpt lat="44.08518" lon="7.0852">
        <ele>750.6</ele>
        <time>2022-06-11T10:27:10Z</time>
      </trkpt>
      <trkpt lat="44.08518" lon="7.08517">
        <ele>750.7</ele>
        <time>2022-06-11T10:27:11Z</time>
      </trkpt>
      <trkpt lat="44.08518" lon="7.08514">
        <ele>751</ele>
        <time>2022-06-11T10:27:12Z</time>
      </trkpt>
      <trkpt lat="44.08518" lon="7.08511">
        <ele>751.3</ele>
        <time>2022-06-11T10:27:13Z</time>
      </trkpt>
      <trkpt lat="44.08518" lon="7.08508">
        <ele>751.6</ele>
        <time>2022-06-11T10:27:14Z</time>
      </trkpt>
      <trkpt lat="44.08519" lon="7.08504">
        <ele>751.8</ele>
        <time>2022-06-11T10:27:15Z</time>
      </trkpt>
      <trkpt lat="44.08519" lon="7.08501">
        <ele>752.1</ele>
        <time>2022-06-11T10:27:16Z</time>
      </trkpt>
      <trkpt lat="44.08519" lon="7.08498">
        <ele>752.1</ele>
        <time>2022-06-11T10:27:17Z</time>
      </trkpt>
      <trkpt lat="44.0852" lon="7.08495">
        <ele>752.1</ele>
        <time>2022-06-11T10:27:18Z</time>
      </trkpt>
      <trkpt lat="44.08521" lon="7.08492">
        <ele>752.3</ele>
        <time>2022-06-11T10:27:19Z</time>
      </trkpt>
      <trkpt lat="44.08522" lon="7.08489">
        <ele>752.6</ele>
        <time>2022-06-11T10:27:20Z</time>
      </trkpt>
      <trkpt lat="44.08523" lon="7.08486">
        <ele>753.1</ele>
        <time>2022-06-11T10:27:21Z</time>
      </trkpt>
      <trkpt lat="44.08524" lon="7.08484">
        <ele>753.7</ele>
        <time>2022-06-11T10:27:22Z</time>
      </trkpt>
      <trkpt lat="44.08526" lon="7.08482">
        <ele>754.4</ele>
        <time>2022-06-11T10:27:23Z</time>
      </trkpt>
      <trkpt lat="44.08528" lon="7.0848">
        <ele>755.3</ele>
        <time>2022-06-11T10:27:24Z</time>
      </trkpt>
      <trkpt lat="44.0853" lon="7.08479">
        <ele>756.2</ele>
        <time>2022-06-11T10:27:25Z</time>
      </trkpt>
      <trkpt lat="44.08532" lon="7.08477">
        <ele>757.1</ele>
        <time>2022-06-11T10:27:26Z</time>
      </trkpt>
      <trkpt lat="44.08534" lon="7.08475">
        <ele>758.1</ele>
        <time>2022-06-11T10:27:27Z</time>
      </trkpt>
      <trkpt lat="44.08536" lon="7.08474">
        <ele>759</ele>
        <time>2022-06-11T10:27:28Z</time>
      </trkpt>
      <trkpt lat="44.08538" lon="7.08472">
        <ele>759.7</ele>
        <time>2022-06-11T10:27:29Z</time>
      </trkpt>
      <trkpt lat="44.0854" lon="7.0847">
        <ele>760.2</ele>
        <time>2022-06-11T10:27:30Z</time>
      </trkpt>
      <trkpt lat="44.08542" lon="7.08469">
        <ele>760.7</ele>
        <time>2022-06-11T10:27:31Z</time>
      </trkpt>
      <trkpt lat="44.08544" lon="7.08467">
        <ele>761.2</ele>
        <time>2022-06-11T10:27:32Z</time>
      </trkpt>
      <trkpt lat="44.08546" lon="7.08465">
        <ele>761.7</ele>
        <time>2022-06-11T10:27:33Z</time>
      </trkpt>
      <trkpt lat="44.08547" lon="7.08464">
        <ele>762.2</ele>
        <time>2022-06-11T10:27:34Z</time>
      </trkpt>
      <trkpt lat="44.08549" lon="7.08462">
        <ele>762.5</ele>
        <time>2022-06-11T10:27:35Z</time>
      </trkpt>
      <trkpt lat="44.08551" lon="7.08461">
        <ele>763</ele>
        <time>2022-06-11T10:27:36Z</time>
      </trkpt>
      <trkpt lat="44.08553" lon="7.08459">
        <ele>763.2</ele>
        <time>2022-06-11T10:27:37Z</time>
      </trkpt>
      <trkpt lat="44.08555" lon="7.08457">
        <ele>763.7</ele>
        <time>2022-06-11T10:27:38Z</time>
      </trkpt>
      <trkpt lat="44.08557" lon="7.08456">
        <ele>764.2</ele>
        <time>2022-06-11T10:27:39Z</time>
      </trkpt>
      <trkpt lat="44.08559" lon="7.08455">
        <ele>764.5</ele>
        <time>2022-06-11T10:27:40Z</time>
      </trkpt>
      <trkpt lat="44.08561" lon="7.08454">
        <ele>765.3</ele>
        <time>2022-06-11T10:27:41Z</time>
      </trkpt>
      <trkpt lat="44.08563" lon="7.08453">
        <ele>765.7</ele>
        <time>2022-06-11T10:27:42Z</time>
      </trkpt>
      <trkpt lat="44.08565" lon="7.08451">
        <ele>766</ele>
        <time>2022-06-11T10:27:43Z</time>
      </trkpt>
      <trkpt lat="44.08567" lon="7.0845">
        <ele>766.4</ele>
        <time>2022-06-11T10:27:44Z</time>
      </trkpt>
      <trkpt lat="44.08569" lon="7.0845">
        <ele>767</ele>
        <time>2022-06-11T10:27:45Z</time>
      </trkpt>
      <trkpt lat="44.08571" lon="7.08449">
        <ele>767.6</ele>
        <time>2022-06-11T10:27:46Z</time>
      </trkpt>
      <trkpt lat="44.08573" lon="7.08448">
        <ele>768.1</ele>
        <time>2022-06-11T10:27:47Z</time>
      </trkpt>
      <trkpt lat="44.08576" lon="7.08447">
        <ele>768.9</ele>
        <time>2022-06-11T10:27:48Z</time>
      </trkpt>
      <trkpt lat="44.08578" lon="7.08447">
        <ele>769.5</ele>
        <time>2022-06-11T10:27:49Z</time>
      </trkpt>
      <trkpt lat="44.0858" lon="7.08446">
        <ele>770.1</ele>
        <time>2022-06-11T10:27:50Z</time>
      </trkpt>
      <trkpt lat="44.08582" lon="7.08445">
        <ele>770.4</ele>
        <time>2022-06-11T10:27:51Z</time>
      </trkpt>
      <trkpt lat="44.08584" lon="7.08443">
        <ele>770.2</ele>
        <time>2022-06-11T10:27:52Z</time>
      </trkpt>
      <trkpt lat="44.08586" lon="7.08442">
        <ele>770</ele>
        <time>2022-06-11T10:27:53Z</time>
      </trkpt>
      <trkpt lat="44.08588" lon="7.08441">
        <ele>769.8</ele>
        <time>2022-06-11T10:27:54Z</time>
      </trkpt>
      <trkpt lat="44.0859" lon="7.08439">
        <ele>769.3</ele>
        <time>2022-06-11T10:27:55Z</time>
      </trkpt>
      <trkpt lat="44.08592" lon="7.08437">
        <ele>769.2</ele>
        <time>2022-06-11T10:27:56Z</time>
      </trkpt>
      <trkpt lat="44.08594" lon="7.08436">
        <ele>769.1</ele>
        <time>2022-06-11T10:27:57Z</time>
      </trkpt>
      <trkpt lat="44.08596" lon="7.08434">
        <ele>768.7</ele>
        <time>2022-06-11T10:27:58Z</time>
      </trkpt>
      <trkpt lat="44.08598" lon="7.08432">
        <ele>768.8</ele>
        <time>2022-06-11T10:27:59Z</time>
      </trkpt>
      <trkpt lat="44.086" lon="7.0843">
        <ele>768.3</ele>
        <time>2022-06-11T10:28:00Z</time>
      </trkpt>
      <trkpt lat="44.08602" lon="7.08428">
        <ele>768.1</ele>
        <time>2022-06-11T10:28:01Z</time>
      </trkpt>
      <trkpt lat="44.08603" lon="7.08426">
        <ele>767.5</ele>
        <time>2022-06-11T10:28:02Z</time>
      </trkpt>
      <trkpt lat="44.08605" lon="7.08424">
        <ele>767.3</ele>
        <time>2022-06-11T10:28:03Z</time>
      </trkpt>
      <trkpt lat="44.08607" lon="7.08422">
        <ele>767.4</ele>
        <time>2022-06-11T10:28:04Z</time>
      </trkpt>
      <trkpt lat="44.08609" lon="7.0842">
        <ele>767.2</ele>
        <time>2022-06-11T10:28:05Z</time>
      </trkpt>
      <trkpt lat="44.0861" lon="7.08419">
        <ele>767.5</ele>
        <time>2022-06-11T10:28:06Z</time>
      </trkpt>
      <trkpt lat="44.08612" lon="7.08417">
        <ele>768</ele>
        <time>2022-06-11T10:28:07Z</time>
      </trkpt>
      <trkpt lat="44.08614" lon="7.08415">
        <ele>768.3</ele>
        <time>2022-06-11T10:28:08Z</time>
      </trkpt>
      <trkpt lat="44.08616" lon="7.08413">
        <ele>768.4</ele>
        <time>2022-06-11T10:28:09Z</time>
      </trkpt>
      <trkpt lat="44.08617" lon="7.0841">
        <ele>768.3</ele>
        <time>2022-06-11T10:28:10Z</time>
      </trkpt>
      <trkpt lat="44.08619" lon="7.08408">
        <ele>768.5</ele>
        <time>2022-06-11T10:28:11Z</time>
      </trkpt>
      <trkpt lat="44.08621" lon="7.08406">
        <ele>768.7</ele>
        <time>2022-06-11T10:28:12Z</time>
      </trkpt>
      <trkpt lat="44.08622" lon="7.08403">
        <ele>768.6</ele>
        <time>2022-06-11T10:28:13Z</time>
      </trkpt>
      <trkpt lat="44.08624" lon="7.084">
        <ele>768</ele>
        <time>2022-06-11T10:28:14Z</time>
      </trkpt>
      <trkpt lat="44.08625" lon="7.08397">
        <ele>767.5</ele>
        <time>2022-06-11T10:28:15Z</time>
      </trkpt>
      <trkpt lat="44.08626" lon="7.08394">
        <ele>767.4</ele>
        <time>2022-06-11T10:28:16Z</time>
      </trkpt>
      <trkpt lat="44.08628" lon="7.08392">
        <ele>767.5</ele>
        <time>2022-06-11T10:28:17Z</time>
      </trkpt>
      <trkpt lat="44.08629" lon="7.08389">
        <ele>767.2</ele>
        <time>2022-06-11T10:28:18Z</time>
      </trkpt>
      <trkpt lat="44.08631" lon="7.08386">
        <ele>767.3</ele>
        <time>2022-06-11T10:28:19Z</time>
      </trkpt>
      <trkpt lat="44.08632" lon="7.08383">
        <ele>767.3</ele>
        <time>2022-06-11T10:28:20Z</time>
      </trkpt>
      <trkpt lat="44.08633" lon="7.08381">
        <ele>767.5</ele>
        <time>2022-06-11T10:28:21Z</time>
      </trkpt>
      <trkpt lat="44.08634" lon="7.08378">
        <ele>767.3</ele>
        <time>2022-06-11T10:28:22Z</time>
      </trkpt>
      <trkpt lat="44.08636" lon="7.08375">
        <ele>767.2</ele>
        <time>2022-06-11T10:28:23Z</time>
      </trkpt>
      <trkpt lat="44.08637" lon="7.08372">
        <ele>767.3</ele>
        <time>2022-06-11T10:28:24Z</time>
      </trkpt>
      <trkpt lat="44.08639" lon="7.0837">
        <ele>767.5</ele>
        <time>2022-06-11T10:28:25Z</time>
      </trkpt>
      <trkpt lat="44.0864" lon="7.08368">
        <ele>768.1</ele>
        <time>2022-06-11T10:28:26Z</time>
      </trkpt>
      <trkpt lat="44.08642" lon="7.08365">
        <ele>768.8</ele>
        <time>2022-06-11T10:28:27Z</time>
      </trkpt>
      <trkpt lat="44.08643" lon="7.08363">
        <ele>769.4</ele>
        <time>2022-06-11T10:28:28Z</time>
      </trkpt>
      <trkpt lat="44.08645" lon="7.08361">
        <ele>770</ele>
        <time>2022-06-11T10:28:29Z</time>
      </trkpt>
      <trkpt lat="44.08646" lon="7.08358">
        <ele>771</ele>
        <time>2022-06-11T10:28:30Z</time>
      </trkpt>
      <trkpt lat="44.08648" lon="7.08356">
        <ele>771.9</ele>
        <time>2022-06-11T10:28:31Z</time>
      </trkpt>
      <trkpt lat="44.08649" lon="7.08354">
        <ele>772.3</ele>
        <time>2022-06-11T10:28:32Z</time>
      </trkpt>
      <trkpt lat="44.08651" lon="7.08351">
        <ele>772.5</ele>
        <time>2022-06-11T10:28:33Z</time>
      </trkpt>
      <trkpt lat="44.08652" lon="7.08348">
        <ele>772.6</ele>
        <time>2022-06-11T10:28:34Z</time>
      </trkpt>
      <trkpt lat="44.08653" lon="7.08346">
        <ele>773</ele>
        <time>2022-06-11T10:28:35Z</time>
      </trkpt>
      <trkpt lat="44.08655" lon="7.08343">
        <ele>772.8</ele>
        <time>2022-06-11T10:28:36Z</time>
      </trkpt>
      <trkpt lat="44.08656" lon="7.0834">
        <ele>773.1</ele>
        <time>2022-06-11T10:28:37Z</time>
      </trkpt>
      <trkpt lat="44.08658" lon="7.08338">
        <ele>774</ele>
        <time>2022-06-11T10:28:38Z</time>
      </trkpt>
      <trkpt lat="44.0866" lon="7.08337">
        <ele>774.8</ele>
        <time>2022-06-11T10:28:39Z</time>
      </trkpt>
      <trkpt lat="44.08661" lon="7.08334">
        <ele>774.8</ele>
        <time>2022-06-11T10:28:40Z</time>
      </trkpt>
      <trkpt lat="44.08663" lon="7.08333">
        <ele>775.8</ele>
        <time>2022-06-11T10:28:41Z</time>
      </trkpt>
      <trkpt lat="44.08665" lon="7.08331">
        <ele>776.3</ele>
        <time>2022-06-11T10:28:42Z</time>
      </trkpt>
      <trkpt lat="44.08666" lon="7.08329">
        <ele>775.9</ele>
        <time>2022-06-11T10:28:43Z</time>
      </trkpt>
      <trkpt lat="44.08668" lon="7.08327">
        <ele>776.1</ele>
        <time>2022-06-11T10:28:44Z</time>
      </trkpt>
      <trkpt lat="44.0867" lon="7.08325">
        <ele>776.5</ele>
        <time>2022-06-11T10:28:45Z</time>
      </trkpt>
      <trkpt lat="44.08672" lon="7.08323">
        <ele>776.4</ele>
        <time>2022-06-11T10:28:46Z</time>
      </trkpt>
      <trkpt lat="44.08673" lon="7.08321">
        <ele>776.4</ele>
        <time>2022-06-11T10:28:47Z</time>
      </trkpt>
      <trkpt lat="44.08675" lon="7.08318">
        <ele>776.2</ele>
        <time>2022-06-11T10:28:48Z</time>
      </trkpt>
      <trkpt lat="44.08677" lon="7.08316">
        <ele>776.1</ele>
        <time>2022-06-11T10:28:49Z</time>
      </trkpt>
      <trkpt lat="44.08679" lon="7.08314">
        <ele>776</ele>
        <time>2022-06-11T10:28:50Z</time>
      </trkpt>
      <trkpt lat="44.0868" lon="7.08312">
        <ele>775.3</ele>
        <time>2022-06-11T10:28:51Z</time>
      </trkpt>
      <trkpt lat="44.08682" lon="7.08309">
        <ele>775</ele>
        <time>2022-06-11T10:28:52Z</time>
      </trkpt>
      <trkpt lat="44.08684" lon="7.08307">
        <ele>774.6</ele>
        <time>2022-06-11T10:28:53Z</time>
      </trkpt>
      <trkpt lat="44.08685" lon="7.08305">
        <ele>774.4</ele>
        <time>2022-06-11T10:28:54Z</time>
      </trkpt>
      <trkpt lat="44.08687" lon="7.08303">
        <ele>774.6</ele>
        <time>2022-06-11T10:28:55Z</time>
      </trkpt>
      <trkpt lat="44.08688" lon="7.08301">
        <ele>774.6</ele>
        <time>2022-06-11T10:28:56Z</time>
      </trkpt>
      <trkpt lat="44.0869" lon="7.08299">
        <ele>774.9</ele>
        <time>2022-06-11T10:28:57Z</time>
      </trkpt>
      <trkpt lat="44.08691" lon="7.08296">
        <ele>774.8</ele>
        <time>2022-06-11T10:28:58Z</time>
      </trkpt>
      <trkpt lat="44.08693" lon="7.08293">
        <ele>774.4</ele>
        <time>2022-06-11T10:28:59Z</time>
      </trkpt>
      <trkpt lat="44.08694" lon="7.0829">
        <ele>773.7</ele>
        <time>2022-06-11T10:29:00Z</time>
      </trkpt>
      <trkpt lat="44.08695" lon="7.08287">
        <ele>773.3</ele>
        <time>2022-06-11T10:29:01Z</time>
      </trkpt>
      <trkpt lat="44.08696" lon="7.08285">
        <ele>773.2</ele>
        <time>2022-06-11T10:29:02Z</time>
      </trkpt>
      <trkpt lat="44.08696" lon="7.08282">
        <ele>772.7</ele>
        <time>2022-06-11T10:29:03Z</time>
      </trkpt>
      <trkpt lat="44.08697" lon="7.08279">
        <ele>772.2</ele>
        <time>2022-06-11T10:29:04Z</time>
      </trkpt>
      <trkpt lat="44.08698" lon="7.08276">
        <ele>772.3</ele>
        <time>2022-06-11T10:29:05Z</time>
      </trkpt>
      <trkpt lat="44.08699" lon="7.08273">
        <ele>772.9</ele>
        <time>2022-06-11T10:29:06Z</time>
      </trkpt>
      <trkpt lat="44.087" lon="7.08271">
        <ele>773.8</ele>
        <time>2022-06-11T10:29:07Z</time>
      </trkpt>
      <trkpt lat="44.08701" lon="7.08268">
        <ele>774.5</ele>
        <time>2022-06-11T10:29:08Z</time>
      </trkpt>
      <trkpt lat="44.08702" lon="7.08265">
        <ele>775</ele>
        <time>2022-06-11T10:29:09Z</time>
      </trkpt>
      <trkpt lat="44.08704" lon="7.08263">
        <ele>776.1</ele>
        <time>2022-06-11T10:29:10Z</time>
      </trkpt>
      <trkpt lat="44.08705" lon="7.08261">
        <ele>776.8</ele>
        <time>2022-06-11T10:29:11Z</time>
      </trkpt>
      <trkpt lat="44.08706" lon="7.08258">
        <ele>777.7</ele>
        <time>2022-06-11T10:29:12Z</time>
      </trkpt>
      <trkpt lat="44.08707" lon="7.08255">
        <ele>778.3</ele>
        <time>2022-06-11T10:29:13Z</time>
      </trkpt>
      <trkpt lat="44.08708" lon="7.08253">
        <ele>779.2</ele>
        <time>2022-06-11T10:29:14Z</time>
      </trkpt>
      <trkpt lat="44.08709" lon="7.08251">
        <ele>779.7</ele>
        <time>2022-06-11T10:29:15Z</time>
      </trkpt>
      <trkpt lat="44.0871" lon="7.08248">
        <ele>779.4</ele>
        <time>2022-06-11T10:29:16Z</time>
      </trkpt>
      <trkpt lat="44.0871" lon="7.08245">
        <ele>778</ele>
        <time>2022-06-11T10:29:17Z</time>
      </trkpt>
      <trkpt lat="44.08711" lon="7.08242">
        <ele>777.2</ele>
        <time>2022-06-11T10:29:18Z</time>
      </trkpt>
      <trkpt lat="44.08711" lon="7.08238">
        <ele>776.5</ele>
        <time>2022-06-11T10:29:19Z</time>
      </trkpt>
      <trkpt lat="44.08712" lon="7.08235">
        <ele>776.2</ele>
        <time>2022-06-11T10:29:20Z</time>
      </trkpt>
      <trkpt lat="44.08713" lon="7.08232">
        <ele>775.6</ele>
        <time>2022-06-11T10:29:21Z</time>
      </trkpt>
      <trkpt lat="44.08714" lon="7.08229">
        <ele>775.5</ele>
        <time>2022-06-11T10:29:22Z</time>
      </trkpt>
      <trkpt lat="44.08716" lon="7.08226">
        <ele>776.1</ele>
        <time>2022-06-11T10:29:23Z</time>
      </trkpt>
      <trkpt lat="44.08717" lon="7.08224">
        <ele>776.8</ele>
        <time>2022-06-11T10:29:24Z</time>
      </trkpt>
      <trkpt lat="44.08719" lon="7.08222">
        <ele>777.7</ele>
        <time>2022-06-11T10:29:25Z</time>
      </trkpt>
      <trkpt lat="44.08721" lon="7.0822">
        <ele>779</ele>
        <time>2022-06-11T10:29:26Z</time>
      </trkpt>
      <trkpt lat="44.08723" lon="7.08219">
        <ele>780.5</ele>
        <time>2022-06-11T10:29:27Z</time>
      </trkpt>
      <trkpt lat="44.08725" lon="7.08217">
        <ele>781.4</ele>
        <time>2022-06-11T10:29:28Z</time>
      </trkpt>
      <trkpt lat="44.08727" lon="7.08216">
        <ele>782.4</ele>
        <time>2022-06-11T10:29:29Z</time>
      </trkpt>
      <trkpt lat="44.08729" lon="7.08215">
        <ele>783</ele>
        <time>2022-06-11T10:29:30Z</time>
      </trkpt>
      <trkpt lat="44.08732" lon="7.08215">
        <ele>785.3</ele>
        <time>2022-06-11T10:29:31Z</time>
      </trkpt>
      <trkpt lat="44.08734" lon="7.08215">
        <ele>786.8</ele>
        <time>2022-06-11T10:29:32Z</time>
      </trkpt>
      <trkpt lat="44.08736" lon="7.08215">
        <ele>788.4</ele>
        <time>2022-06-11T10:29:33Z</time>
      </trkpt>
      <trkpt lat="44.08738" lon="7.08213">
        <ele>788.7</ele>
        <time>2022-06-11T10:29:34Z</time>
      </trkpt>
      <trkpt lat="44.08739" lon="7.08212">
        <ele>788.8</ele>
        <time>2022-06-11T10:29:35Z</time>
      </trkpt>
      <trkpt lat="44.08741" lon="7.0821">
        <ele>789.1</ele>
        <time>2022-06-11T10:29:36Z</time>
      </trkpt>
      <trkpt lat="44.08743" lon="7.08208">
        <ele>788.8</ele>
        <time>2022-06-11T10:29:37Z</time>
      </trkpt>
      <trkpt lat="44.08745" lon="7.08206">
        <ele>789</ele>
        <time>2022-06-11T10:29:38Z</time>
      </trkpt>
      <trkpt lat="44.08747" lon="7.08205">
        <ele>789.7</ele>
        <time>2022-06-11T10:29:39Z</time>
      </trkpt>
      <trkpt lat="44.08748" lon="7.08204">
        <ele>789.9</ele>
        <time>2022-06-11T10:29:40Z</time>
      </trkpt>
      <trkpt lat="44.0875" lon="7.08202">
        <ele>789.9</ele>
        <time>2022-06-11T10:29:41Z</time>
      </trkpt>
      <trkpt lat="44.08751" lon="7.082">
        <ele>789.1</ele>
        <time>2022-06-11T10:29:42Z</time>
      </trkpt>
      <trkpt lat="44.08753" lon="7.08199">
        <ele>789.5</ele>
        <time>2022-06-11T10:29:43Z</time>
      </trkpt>
      <trkpt lat="44.08755" lon="7.08197">
        <ele>789</ele>
        <time>2022-06-11T10:29:44Z</time>
      </trkpt>
      <trkpt lat="44.08756" lon="7.08194">
        <ele>788.3</ele>
        <time>2022-06-11T10:29:45Z</time>
      </trkpt>
      <trkpt lat="44.08757" lon="7.08192">
        <ele>788.9</ele>
        <time>2022-06-11T10:29:46Z</time>
      </trkpt>
      <trkpt lat="44.08758" lon="7.08189">
        <ele>788.4</ele>
        <time>2022-06-11T10:29:47Z</time>
      </trkpt>
      <trkpt lat="44.08759" lon="7.08186">
        <ele>788.1</ele>
        <time>2022-06-11T10:29:48Z</time>
      </trkpt>
      <trkpt lat="44.0876" lon="7.08182">
        <ele>787.7</ele>
        <time>2022-06-11T10:29:49Z</time>
      </trkpt>
      <trkpt lat="44.08761" lon="7.08179">
        <ele>787.2</ele>
        <time>2022-06-11T10:29:50Z</time>
      </trkpt>
      <trkpt lat="44.08761" lon="7.08175">
        <ele>786.7</ele>
        <time>2022-06-11T10:29:51Z</time>
      </trkpt>
      <trkpt lat="44.08762" lon="7.08172">
        <ele>786.4</ele>
        <time>2022-06-11T10:29:52Z</time>
      </trkpt>
      <trkpt lat="44.08763" lon="7.08168">
        <ele>785.8</ele>
        <time>2022-06-11T10:29:53Z</time>
      </trkpt>
      <trkpt lat="44.08763" lon="7.08165">
        <ele>785.7</ele>
        <time>2022-06-11T10:29:54Z</time>
      </trkpt>
      <trkpt lat="44.08764" lon="7.08161">
        <ele>785.7</ele>
        <time>2022-06-11T10:29:55Z</time>
      </trkpt>
      <trkpt lat="44.08765" lon="7.08159">
        <ele>785.9</ele>
        <time>2022-06-11T10:29:56Z</time>
      </trkpt>
      <trkpt lat="44.08766" lon="7.08155">
        <ele>785.9</ele>
        <time>2022-06-11T10:29:57Z</time>
      </trkpt>
      <trkpt lat="44.08767" lon="7.08152">
        <ele>786.3</ele>
        <time>2022-06-11T10:29:58Z</time>
      </trkpt>
      <trkpt lat="44.08767" lon="7.08149">
        <ele>786.3</ele>
        <time>2022-06-11T10:29:59Z</time>
      </trkpt>
      <trkpt lat="44.08768" lon="7.08147">
        <ele>786.6</ele>
        <time>2022-06-11T10:30:00Z</time>
      </trkpt>
      <trkpt lat="44.08769" lon="7.08144">
        <ele>786.9</ele>
        <time>2022-06-11T10:30:01Z</time>
      </trkpt>
      <trkpt lat="44.0877" lon="7.0814">
        <ele>787.1</ele>
        <time>2022-06-11T10:30:02Z</time>
      </trkpt>
      <trkpt lat="44.08771" lon="7.08138">
        <ele>787.4</ele>
        <time>2022-06-11T10:30:03Z</time>
      </trkpt>
      <trkpt lat="44.08772" lon="7.08135">
        <ele>787.2</ele>
        <time>2022-06-11T10:30:04Z</time>
      </trkpt>
      <trkpt lat="44.08773" lon="7.08132">
        <ele>787</ele>
        <time>2022-06-11T10:30:05Z</time>
      </trkpt>
      <trkpt lat="44.08773" lon="7.08129">
        <ele>787</ele>
        <time>2022-06-11T10:30:06Z</time>
      </trkpt>
      <trkpt lat="44.08774" lon="7.08126">
        <ele>786.9</ele>
        <time>2022-06-11T10:30:07Z</time>
      </trkpt>
      <trkpt lat="44.08775" lon="7.08123">
        <ele>787.1</ele>
        <time>2022-06-11T10:30:08Z</time>
      </trkpt>
      <trkpt lat="44.08776" lon="7.08121">
        <ele>787.5</ele>
        <time>2022-06-11T10:30:09Z</time>
      </trkpt>
      <trkpt lat="44.08778" lon="7.08118">
        <ele>788.2</ele>
        <time>2022-06-11T10:30:10Z</time>
      </trkpt>
      <trkpt lat="44.08779" lon="7.08115">
        <ele>788.6</ele>
        <time>2022-06-11T10:30:11Z</time>
      </trkpt>
      <trkpt lat="44.08779" lon="7.08113">
        <ele>788.7</ele>
        <time>2022-06-11T10:30:12Z</time>
      </trkpt>
      <trkpt lat="44.0878" lon="7.0811">
        <ele>789</ele>
        <time>2022-06-11T10:30:13Z</time>
      </trkpt>
      <trkpt lat="44.08781" lon="7.08107">
        <ele>789.1</ele>
        <time>2022-06-11T10:30:14Z</time>
      </trkpt>
      <trkpt lat="44.08782" lon="7.08104">
        <ele>789</ele>
        <time>2022-06-11T10:30:15Z</time>
      </trkpt>
      <trkpt lat="44.08782" lon="7.08101">
        <ele>788.7</ele>
        <time>2022-06-11T10:30:16Z</time>
      </trkpt>
      <trkpt lat="44.08783" lon="7.08098">
        <ele>788.6</ele>
        <time>2022-06-11T10:30:17Z</time>
      </trkpt>
      <trkpt lat="44.08784" lon="7.08095">
        <ele>788.6</ele>
        <time>2022-06-11T10:30:18Z</time>
      </trkpt>
      <trkpt lat="44.08785" lon="7.08092">
        <ele>788.5</ele>
        <time>2022-06-11T10:30:19Z</time>
      </trkpt>
      <trkpt lat="44.08786" lon="7.08089">
        <ele>788.8</ele>
        <time>2022-06-11T10:30:20Z</time>
      </trkpt>
      <trkpt lat="44.08787" lon="7.08087">
        <ele>789</ele>
        <time>2022-06-11T10:30:21Z</time>
      </trkpt>
      <trkpt lat="44.08787" lon="7.08084">
        <ele>789.1</ele>
        <time>2022-06-11T10:30:22Z</time>
      </trkpt>
      <trkpt lat="44.08789" lon="7.08082">
        <ele>789.8</ele>
        <time>2022-06-11T10:30:23Z</time>
      </trkpt>
      <trkpt lat="44.0879" lon="7.0808">
        <ele>790.6</ele>
        <time>2022-06-11T10:30:24Z</time>
      </trkpt>
      <trkpt lat="44.08791" lon="7.08077">
        <ele>791.1</ele>
        <time>2022-06-11T10:30:25Z</time>
      </trkpt>
      <trkpt lat="44.08791" lon="7.08074">
        <ele>791.4</ele>
        <time>2022-06-11T10:30:26Z</time>
      </trkpt>
      <trkpt lat="44.08792" lon="7.08071">
        <ele>791.7</ele>
        <time>2022-06-11T10:30:27Z</time>
      </trkpt>
      <trkpt lat="44.08793" lon="7.08068">
        <ele>792.4</ele>
        <time>2022-06-11T10:30:28Z</time>
      </trkpt>
      <trkpt lat="44.08794" lon="7.08065">
        <ele>792.8</ele>
        <time>2022-06-11T10:30:29Z</time>
      </trkpt>
      <trkpt lat="44.08795" lon="7.08062">
        <ele>793.3</ele>
        <time>2022-06-11T10:30:30Z</time>
      </trkpt>
      <trkpt lat="44.08795" lon="7.08059">
        <ele>793.7</ele>
        <time>2022-06-11T10:30:31Z</time>
      </trkpt>
      <trkpt lat="44.08796" lon="7.08056">
        <ele>793.6</ele>
        <time>2022-06-11T10:30:32Z</time>
      </trkpt>
      <trkpt lat="44.08796" lon="7.08053">
        <ele>793.2</ele>
        <time>2022-06-11T10:30:33Z</time>
      </trkpt>
      <trkpt lat="44.08796" lon="7.0805">
        <ele>793.1</ele>
        <time>2022-06-11T10:30:34Z</time>
      </trkpt>
      <trkpt lat="44.08796" lon="7.08047">
        <ele>793.2</ele>
        <time>2022-06-11T10:30:35Z</time>
      </trkpt>
      <trkpt lat="44.08797" lon="7.08044">
        <ele>793.1</ele>
        <time>2022-06-11T10:30:36Z</time>
      </trkpt>
      <trkpt lat="44.08797" lon="7.08041">
        <ele>793.3</ele>
        <time>2022-06-11T10:30:37Z</time>
      </trkpt>
      <trkpt lat="44.08798" lon="7.08038">
        <ele>793.6</ele>
        <time>2022-06-11T10:30:38Z</time>
      </trkpt>
      <trkpt lat="44.08799" lon="7.08035">
        <ele>794</ele>
        <time>2022-06-11T10:30:39Z</time>
      </trkpt>
      <trkpt lat="44.08799" lon="7.08032">
        <ele>794.3</ele>
        <time>2022-06-11T10:30:40Z</time>
      </trkpt>
      <trkpt lat="44.088" lon="7.08029">
        <ele>794.5</ele>
        <time>2022-06-11T10:30:41Z</time>
      </trkpt>
      <trkpt lat="44.088" lon="7.08026">
        <ele>794.4</ele>
        <time>2022-06-11T10:30:42Z</time>
      </trkpt>
      <trkpt lat="44.088" lon="7.08023">
        <ele>794.6</ele>
        <time>2022-06-11T10:30:43Z</time>
      </trkpt>
      <trkpt lat="44.088" lon="7.0802">
        <ele>794.7</ele>
        <time>2022-06-11T10:30:44Z</time>
      </trkpt>
      <trkpt lat="44.08801" lon="7.08017">
        <ele>794.8</ele>
        <time>2022-06-11T10:30:45Z</time>
      </trkpt>
      <trkpt lat="44.08801" lon="7.08014">
        <ele>794.9</ele>
        <time>2022-06-11T10:30:46Z</time>
      </trkpt>
      <trkpt lat="44.08801" lon="7.08011">
        <ele>795.4</ele>
        <time>2022-06-11T10:30:47Z</time>
      </trkpt>
      <trkpt lat="44.08802" lon="7.08008">
        <ele>795.8</ele>
        <time>2022-06-11T10:30:48Z</time>
      </trkpt>
      <trkpt lat="44.08802" lon="7.08005">
        <ele>796</ele>
        <time>2022-06-11T10:30:49Z</time>
      </trkpt>
      <trkpt lat="44.08802" lon="7.08002">
        <ele>796.1</ele>
        <time>2022-06-11T10:30:50Z</time>
      </trkpt>
      <trkpt lat="44.08802" lon="7.07999">
        <ele>795.8</ele>
        <time>2022-06-11T10:30:51Z</time>
      </trkpt>
      <trkpt lat="44.08803" lon="7.07996">
        <ele>795.7</ele>
        <time>2022-06-11T10:30:52Z</time>
      </trkpt>
      <trkpt lat="44.08803" lon="7.07993">
        <ele>795.2</ele>
        <time>2022-06-11T10:30:53Z</time>
      </trkpt>
      <trkpt lat="44.08803" lon="7.0799">
        <ele>794.9</ele>
        <time>2022-06-11T10:30:54Z</time>
      </trkpt>
      <trkpt lat="44.08803" lon="7.07987">
        <ele>794.7</ele>
        <time>2022-06-11T10:30:55Z</time>
      </trkpt>
      <trkpt lat="44.08803" lon="7.07984">
        <ele>794.5</ele>
        <time>2022-06-11T10:30:56Z</time>
      </trkpt>
      <trkpt lat="44.08803" lon="7.07981">
        <ele>794.5</ele>
        <time>2022-06-11T10:30:57Z</time>
      </trkpt>
      <trkpt lat="44.08804" lon="7.07978">
        <ele>794.4</ele>
        <time>2022-06-11T10:30:58Z</time>
      </trkpt>
      <trkpt lat="44.08805" lon="7.07975">
        <ele>795.1</ele>
        <time>2022-06-11T10:30:59Z</time>
      </trkpt>
      <trkpt lat="44.08805" lon="7.07972">
        <ele>795.4</ele>
        <time>2022-06-11T10:31:00Z</time>
      </trkpt>
      <trkpt lat="44.08806" lon="7.07969">
        <ele>795.6</ele>
        <time>2022-06-11T10:31:01Z</time>
      </trkpt>
      <trkpt lat="44.08807" lon="7.07967">
        <ele>796.1</ele>
        <time>2022-06-11T10:31:02Z</time>
      </trkpt>
      <trkpt lat="44.08809" lon="7.07965">
        <ele>797.3</ele>
        <time>2022-06-11T10:31:03Z</time>
      </trkpt>
      <trkpt lat="44.0881" lon="7.07963">
        <ele>798.5</ele>
        <time>2022-06-11T10:31:04Z</time>
      </trkpt>
      <trkpt lat="44.08811" lon="7.07961">
        <ele>799.3</ele>
        <time>2022-06-11T10:31:05Z</time>
      </trkpt>
      <trkpt lat="44.08813" lon="7.07958">
        <ele>800.6</ele>
        <time>2022-06-11T10:31:06Z</time>
      </trkpt>
      <trkpt lat="44.08814" lon="7.07956">
        <ele>800.9</ele>
        <time>2022-06-11T10:31:07Z</time>
      </trkpt>
      <trkpt lat="44.08815" lon="7.07953">
        <ele>801.3</ele>
        <time>2022-06-11T10:31:08Z</time>
      </trkpt>
      <trkpt lat="44.08816" lon="7.0795">
        <ele>800.9</ele>
        <time>2022-06-11T10:31:09Z</time>
      </trkpt>
      <trkpt lat="44.08817" lon="7.07947">
        <ele>800.9</ele>
        <time>2022-06-11T10:31:10Z</time>
      </trkpt>
      <trkpt lat="44.08818" lon="7.07944">
        <ele>800.6</ele>
        <time>2022-06-11T10:31:11Z</time>
      </trkpt>
      <trkpt lat="44.08819" lon="7.07942">
        <ele>801.2</ele>
        <time>2022-06-11T10:31:12Z</time>
      </trkpt>
      <trkpt lat="44.0882" lon="7.07939">
        <ele>801.4</ele>
        <time>2022-06-11T10:31:13Z</time>
      </trkpt>
      <trkpt lat="44.08821" lon="7.07936">
        <ele>801.3</ele>
        <time>2022-06-11T10:31:14Z</time>
      </trkpt>
      <trkpt lat="44.08821" lon="7.07932">
        <ele>800.7</ele>
        <time>2022-06-11T10:31:15Z</time>
      </trkpt>
      <trkpt lat="44.08822" lon="7.07929">
        <ele>800.6</ele>
        <time>2022-06-11T10:31:16Z</time>
      </trkpt>
      <trkpt lat="44.08822" lon="7.07926">
        <ele>800.4</ele>
        <time>2022-06-11T10:31:17Z</time>
      </trkpt>
      <trkpt lat="44.08823" lon="7.07924">
        <ele>800.8</ele>
        <time>2022-06-11T10:31:18Z</time>
      </trkpt>
      <trkpt lat="44.08824" lon="7.07921">
        <ele>800.8</ele>
        <time>2022-06-11T10:31:19Z</time>
      </trkpt>
      <trkpt lat="44.08825" lon="7.07918">
        <ele>800.9</ele>
        <time>2022-06-11T10:31:20Z</time>
      </trkpt>
      <trkpt lat="44.08826" lon="7.07915">
        <ele>801</ele>
        <time>2022-06-11T10:31:21Z</time>
      </trkpt>
      <trkpt lat="44.08827" lon="7.07912">
        <ele>801.4</ele>
        <time>2022-06-11T10:31:22Z</time>
      </trkpt>
      <trkpt lat="44.08828" lon="7.07909">
        <ele>802</ele>
        <time>2022-06-11T10:31:23Z</time>
      </trkpt>
      <trkpt lat="44.08829" lon="7.07907">
        <ele>802.2</ele>
        <time>2022-06-11T10:31:24Z</time>
      </trkpt>
      <trkpt lat="44.0883" lon="7.07904">
        <ele>802.5</ele>
        <time>2022-06-11T10:31:25Z</time>
      </trkpt>
      <trkpt lat="44.08831" lon="7.07902">
        <ele>803.1</ele>
        <time>2022-06-11T10:31:26Z</time>
      </trkpt>
      <trkpt lat="44.08833" lon="7.07899">
        <ele>803.5</ele>
        <time>2022-06-11T10:31:27Z</time>
      </trkpt>
      <trkpt lat="44.08834" lon="7.07897">
        <ele>803.9</ele>
        <time>2022-06-11T10:31:28Z</time>
      </trkpt>
      <trkpt lat="44.08835" lon="7.07894">
        <ele>804.4</ele>
        <time>2022-06-11T10:31:29Z</time>
      </trkpt>
      <trkpt lat="44.08836" lon="7.07892">
        <ele>804.6</ele>
        <time>2022-06-11T10:31:30Z</time>
      </trkpt>
      <trkpt lat="44.08837" lon="7.07889">
        <ele>804.5</ele>
        <time>2022-06-11T10:31:31Z</time>
      </trkpt>
      <trkpt lat="44.08838" lon="7.07886">
        <ele>804.4</ele>
        <time>2022-06-11T10:31:32Z</time>
      </trkpt>
      <trkpt lat="44.08839" lon="7.07883">
        <ele>804.5</ele>
        <time>2022-06-11T10:31:33Z</time>
      </trkpt>
      <trkpt lat="44.0884" lon="7.07881">
        <ele>804.7</ele>
        <time>2022-06-11T10:31:34Z</time>
      </trkpt>
      <trkpt lat="44.08841" lon="7.07878">
        <ele>804.7</ele>
        <time>2022-06-11T10:31:35Z</time>
      </trkpt>
      <trkpt lat="44.08843" lon="7.07875">
        <ele>804.6</ele>
        <time>2022-06-11T10:31:36Z</time>
      </trkpt>
      <trkpt lat="44.08844" lon="7.07873">
        <ele>804.9</ele>
        <time>2022-06-11T10:31:37Z</time>
      </trkpt>
      <trkpt lat="44.08845" lon="7.0787">
        <ele>805.2</ele>
        <time>2022-06-11T10:31:38Z</time>
      </trkpt>
      <trkpt lat="44.08847" lon="7.07868">
        <ele>805.8</ele>
        <time>2022-06-11T10:31:39Z</time>
      </trkpt>
      <trkpt lat="44.08849" lon="7.07866">
        <ele>807</ele>
        <time>2022-06-11T10:31:40Z</time>
      </trkpt>
      <trkpt lat="44.08851" lon="7.07865">
        <ele>808.1</ele>
        <time>2022-06-11T10:31:41Z</time>
      </trkpt>
      <trkpt lat="44.08853" lon="7.07863">
        <ele>809.3</ele>
        <time>2022-06-11T10:31:42Z</time>
      </trkpt>
      <trkpt lat="44.08854" lon="7.07862">
        <ele>810.4</ele>
        <time>2022-06-11T10:31:43Z</time>
      </trkpt>
      <trkpt lat="44.08856" lon="7.0786">
        <ele>811.7</ele>
        <time>2022-06-11T10:31:44Z</time>
      </trkpt>
      <trkpt lat="44.08858" lon="7.07859">
        <ele>812.9</ele>
        <time>2022-06-11T10:31:45Z</time>
      </trkpt>
      <trkpt lat="44.0886" lon="7.07858">
        <ele>814.1</ele>
        <time>2022-06-11T10:31:46Z</time>
      </trkpt>
      <trkpt lat="44.08862" lon="7.07856">
        <ele>815.6</ele>
        <time>2022-06-11T10:31:47Z</time>
      </trkpt>
      <trkpt lat="44.08864" lon="7.07855">
        <ele>816.8</ele>
        <time>2022-06-11T10:31:48Z</time>
      </trkpt>
      <trkpt lat="44.08866" lon="7.07853">
        <ele>817.9</ele>
        <time>2022-06-11T10:31:49Z</time>
      </trkpt>
      <trkpt lat="44.08867" lon="7.07852">
        <ele>818.9</ele>
        <time>2022-06-11T10:31:50Z</time>
      </trkpt>
      <trkpt lat="44.08869" lon="7.0785">
        <ele>819.9</ele>
        <time>2022-06-11T10:31:51Z</time>
      </trkpt>
      <trkpt lat="44.08871" lon="7.07848">
        <ele>820.7</ele>
        <time>2022-06-11T10:31:52Z</time>
      </trkpt>
      <trkpt lat="44.08872" lon="7.07845">
        <ele>820.5</ele>
        <time>2022-06-11T10:31:53Z</time>
      </trkpt>
      <trkpt lat="44.08873" lon="7.07843">
        <ele>820.7</ele>
        <time>2022-06-11T10:31:54Z</time>
      </trkpt>
      <trkpt lat="44.08874" lon="7.07839">
        <ele>820</ele>
        <time>2022-06-11T10:31:55Z</time>
      </trkpt>
      <trkpt lat="44.08876" lon="7.07837">
        <ele>820</ele>
        <time>2022-06-11T10:31:56Z</time>
      </trkpt>
      <trkpt lat="44.08877" lon="7.07835">
        <ele>820.3</ele>
        <time>2022-06-11T10:31:57Z</time>
      </trkpt>
      <trkpt lat="44.08878" lon="7.07832">
        <ele>820.1</ele>
        <time>2022-06-11T10:31:58Z</time>
      </trkpt>
      <trkpt lat="44.0888" lon="7.0783">
        <ele>820.2</ele>
        <time>2022-06-11T10:31:59Z</time>
      </trkpt>
      <trkpt lat="44.08881" lon="7.07827">
        <ele>820.1</ele>
        <time>2022-06-11T10:32:00Z</time>
      </trkpt>
      <trkpt lat="44.08882" lon="7.07824">
        <ele>819.7</ele>
        <time>2022-06-11T10:32:01Z</time>
      </trkpt>
      <trkpt lat="44.08883" lon="7.07821">
        <ele>818.6</ele>
        <time>2022-06-11T10:32:02Z</time>
      </trkpt>
      <trkpt lat="44.08884" lon="7.07819">
        <ele>818.1</ele>
        <time>2022-06-11T10:32:03Z</time>
      </trkpt>
      <trkpt lat="44.08885" lon="7.07816">
        <ele>817.7</ele>
        <time>2022-06-11T10:32:04Z</time>
      </trkpt>
      <trkpt lat="44.08886" lon="7.07813">
        <ele>817</ele>
        <time>2022-06-11T10:32:05Z</time>
      </trkpt>
      <trkpt lat="44.08887" lon="7.07811">
        <ele>816.8</ele>
        <time>2022-06-11T10:32:06Z</time>
      </trkpt>
      <trkpt lat="44.08888" lon="7.07808">
        <ele>816.8</ele>
        <time>2022-06-11T10:32:07Z</time>
      </trkpt>
      <trkpt lat="44.08889" lon="7.07806">
        <ele>816.1</ele>
        <time>2022-06-11T10:32:08Z</time>
      </trkpt>
      <trkpt lat="44.0889" lon="7.07803">
        <ele>816.2</ele>
        <time>2022-06-11T10:32:09Z</time>
      </trkpt>
      <trkpt lat="44.08892" lon="7.07801">
        <ele>816.2</ele>
        <time>2022-06-11T10:32:10Z</time>
      </trkpt>
      <trkpt lat="44.08893" lon="7.07798">
        <ele>816.1</ele>
        <time>2022-06-11T10:32:11Z</time>
      </trkpt>
      <trkpt lat="44.08894" lon="7.07796">
        <ele>815.6</ele>
        <time>2022-06-11T10:32:12Z</time>
      </trkpt>
      <trkpt lat="44.08895" lon="7.07793">
        <ele>815.3</ele>
        <time>2022-06-11T10:32:13Z</time>
      </trkpt>
      <trkpt lat="44.08896" lon="7.07791">
        <ele>815.3</ele>
        <time>2022-06-11T10:32:14Z</time>
      </trkpt>
      <trkpt lat="44.08897" lon="7.07788">
        <ele>814.6</ele>
        <time>2022-06-11T10:32:15Z</time>
      </trkpt>
      <trkpt lat="44.08898" lon="7.07785">
        <ele>814.2</ele>
        <time>2022-06-11T10:32:16Z</time>
      </trkpt>
      <trkpt lat="44.08899" lon="7.07782">
        <ele>814.2</ele>
        <time>2022-06-11T10:32:17Z</time>
      </trkpt>
      <trkpt lat="44.08901" lon="7.0778">
        <ele>814.6</ele>
        <time>2022-06-11T10:32:18Z</time>
      </trkpt>
      <trkpt lat="44.08902" lon="7.07778">
        <ele>814.8</ele>
        <time>2022-06-11T10:32:19Z</time>
      </trkpt>
      <trkpt lat="44.08904" lon="7.07776">
        <ele>815.5</ele>
        <time>2022-06-11T10:32:20Z</time>
      </trkpt>
      <trkpt lat="44.08905" lon="7.07774">
        <ele>816.4</ele>
        <time>2022-06-11T10:32:21Z</time>
      </trkpt>
      <trkpt lat="44.08907" lon="7.07772">
        <ele>816.9</ele>
        <time>2022-06-11T10:32:22Z</time>
      </trkpt>
      <trkpt lat="44.08908" lon="7.07769">
        <ele>817</ele>
        <time>2022-06-11T10:32:23Z</time>
      </trkpt>
      <trkpt lat="44.08909" lon="7.07766">
        <ele>817.1</ele>
        <time>2022-06-11T10:32:24Z</time>
      </trkpt>
      <trkpt lat="44.0891" lon="7.07763">
        <ele>816.8</ele>
        <time>2022-06-11T10:32:25Z</time>
      </trkpt>
      <trkpt lat="44.08911" lon="7.0776">
        <ele>816.5</ele>
        <time>2022-06-11T10:32:26Z</time>
      </trkpt>
      <trkpt lat="44.08912" lon="7.07758">
        <ele>817.1</ele>
        <time>2022-06-11T10:32:27Z</time>
      </trkpt>
      <trkpt lat="44.08913" lon="7.07756">
        <ele>817.5</ele>
        <time>2022-06-11T10:32:28Z</time>
      </trkpt>
      <trkpt lat="44.08914" lon="7.07753">
        <ele>817.7</ele>
        <time>2022-06-11T10:32:29Z</time>
      </trkpt>
      <trkpt lat="44.08915" lon="7.0775">
        <ele>817.8</ele>
        <time>2022-06-11T10:32:30Z</time>
      </trkpt>
      <trkpt lat="44.08916" lon="7.07747">
        <ele>817.4</ele>
        <time>2022-06-11T10:32:31Z</time>
      </trkpt>
      <trkpt lat="44.08917" lon="7.07744">
        <ele>816.9</ele>
        <time>2022-06-11T10:32:32Z</time>
      </trkpt>
      <trkpt lat="44.08917" lon="7.07741">
        <ele>816.2</ele>
        <time>2022-06-11T10:32:33Z</time>
      </trkpt>
      <trkpt lat="44.08918" lon="7.07738">
        <ele>816.2</ele>
        <time>2022-06-11T10:32:34Z</time>
      </trkpt>
      <trkpt lat="44.08919" lon="7.07735">
        <ele>816.3</ele>
        <time>2022-06-11T10:32:35Z</time>
      </trkpt>
      <trkpt lat="44.0892" lon="7.07732">
        <ele>816.3</ele>
        <time>2022-06-11T10:32:36Z</time>
      </trkpt>
      <trkpt lat="44.08921" lon="7.0773">
        <ele>816.5</ele>
        <time>2022-06-11T10:32:37Z</time>
      </trkpt>
      <trkpt lat="44.08922" lon="7.07727">
        <ele>816.5</ele>
        <time>2022-06-11T10:32:38Z</time>
      </trkpt>
      <trkpt lat="44.08923" lon="7.07724">
        <ele>817</ele>
        <time>2022-06-11T10:32:39Z</time>
      </trkpt>
      <trkpt lat="44.08925" lon="7.07722">
        <ele>817.5</ele>
        <time>2022-06-11T10:32:40Z</time>
      </trkpt>
      <trkpt lat="44.08926" lon="7.07719">
        <ele>817.8</ele>
        <time>2022-06-11T10:32:41Z</time>
      </trkpt>
      <trkpt lat="44.08927" lon="7.07716">
        <ele>818.1</ele>
        <time>2022-06-11T10:32:42Z</time>
      </trkpt>
      <trkpt lat="44.08929" lon="7.07713">
        <ele>818.3</ele>
        <time>2022-06-11T10:32:43Z</time>
      </trkpt>
      <trkpt lat="44.0893" lon="7.0771">
        <ele>818.4</ele>
        <time>2022-06-11T10:32:44Z</time>
      </trkpt>
      <trkpt lat="44.08931" lon="7.07708">
        <ele>818.9</ele>
        <time>2022-06-11T10:32:45Z</time>
      </trkpt>
      <trkpt lat="44.08932" lon="7.07705">
        <ele>819.1</ele>
        <time>2022-06-11T10:32:46Z</time>
      </trkpt>
      <trkpt lat="44.08933" lon="7.07702">
        <ele>819.1</ele>
        <time>2022-06-11T10:32:47Z</time>
      </trkpt>
      <trkpt lat="44.08934" lon="7.077">
        <ele>819</ele>
        <time>2022-06-11T10:32:48Z</time>
      </trkpt>
      <trkpt lat="44.08935" lon="7.07697">
        <ele>818.7</ele>
        <time>2022-06-11T10:32:49Z</time>
      </trkpt>
      <trkpt lat="44.08936" lon="7.07694">
        <ele>818.3</ele>
        <time>2022-06-11T10:32:50Z</time>
      </trkpt>
      <trkpt lat="44.08937" lon="7.07691">
        <ele>818</ele>
        <time>2022-06-11T10:32:51Z</time>
      </trkpt>
      <trkpt lat="44.08938" lon="7.07688">
        <ele>817.8</ele>
        <time>2022-06-11T10:32:52Z</time>
      </trkpt>
      <trkpt lat="44.08939" lon="7.07685">
        <ele>817.5</ele>
        <time>2022-06-11T10:32:53Z</time>
      </trkpt>
      <trkpt lat="44.0894" lon="7.07682">
        <ele>817.2</ele>
        <time>2022-06-11T10:32:54Z</time>
      </trkpt>
      <trkpt lat="44.08941" lon="7.07679">
        <ele>817.2</ele>
        <time>2022-06-11T10:32:55Z</time>
      </trkpt>
      <trkpt lat="44.08942" lon="7.07677">
        <ele>817.2</ele>
        <time>2022-06-11T10:32:56Z</time>
      </trkpt>
      <trkpt lat="44.08944" lon="7.07675">
        <ele>817.5</ele>
        <time>2022-06-11T10:32:57Z</time>
      </trkpt>
      <trkpt lat="44.08945" lon="7.07672">
        <ele>817.9</ele>
        <time>2022-06-11T10:32:58Z</time>
      </trkpt>
      <trkpt lat="44.08947" lon="7.0767">
        <ele>818.4</ele>
        <time>2022-06-11T10:32:59Z</time>
      </trkpt>
      <trkpt lat="44.08948" lon="7.07668">
        <ele>818.7</ele>
        <time>2022-06-11T10:33:00Z</time>
      </trkpt>
      <trkpt lat="44.0895" lon="7.07667">
        <ele>819.5</ele>
        <time>2022-06-11T10:33:01Z</time>
      </trkpt>
      <trkpt lat="44.08952" lon="7.07665">
        <ele>820.3</ele>
        <time>2022-06-11T10:33:02Z</time>
      </trkpt>
      <trkpt lat="44.08954" lon="7.07663">
        <ele>820.8</ele>
        <time>2022-06-11T10:33:03Z</time>
      </trkpt>
      <trkpt lat="44.08956" lon="7.07661">
        <ele>821.8</ele>
        <time>2022-06-11T10:33:04Z</time>
      </trkpt>
      <trkpt lat="44.08957" lon="7.07659">
        <ele>822.7</ele>
        <time>2022-06-11T10:33:05Z</time>
      </trkpt>
      <trkpt lat="44.08959" lon="7.07658">
        <ele>823.5</ele>
        <time>2022-06-11T10:33:06Z</time>
      </trkpt>
      <trkpt lat="44.08961" lon="7.07656">
        <ele>824.5</ele>
        <time>2022-06-11T10:33:07Z</time>
      </trkpt>
      <trkpt lat="44.08963" lon="7.07654">
        <ele>824.9</ele>
        <time>2022-06-11T10:33:08Z</time>
      </trkpt>
      <trkpt lat="44.08964" lon="7.07652">
        <ele>825.5</ele>
        <time>2022-06-11T10:33:09Z</time>
      </trkpt>
      <trkpt lat="44.08966" lon="7.07651">
        <ele>826.3</ele>
        <time>2022-06-11T10:33:10Z</time>
      </trkpt>
      <trkpt lat="44.08968" lon="7.07649">
        <ele>827.1</ele>
        <time>2022-06-11T10:33:11Z</time>
      </trkpt>
      <trkpt lat="44.08969" lon="7.07648">
        <ele>827.8</ele>
        <time>2022-06-11T10:33:12Z</time>
      </trkpt>
      <trkpt lat="44.08971" lon="7.07646">
        <ele>828.2</ele>
        <time>2022-06-11T10:33:13Z</time>
      </trkpt>
      <trkpt lat="44.08972" lon="7.07644">
        <ele>828.8</ele>
        <time>2022-06-11T10:33:14Z</time>
      </trkpt>
      <trkpt lat="44.08973" lon="7.07641">
        <ele>828.5</ele>
        <time>2022-06-11T10:33:15Z</time>
      </trkpt>
      <trkpt lat="44.08974" lon="7.07638">
        <ele>828.2</ele>
        <time>2022-06-11T10:33:16Z</time>
      </trkpt>
      <trkpt lat="44.08975" lon="7.07635">
        <ele>827.8</ele>
        <time>2022-06-11T10:33:17Z</time>
      </trkpt>
      <trkpt lat="44.08975" lon="7.07632">
        <ele>827.6</ele>
        <time>2022-06-11T10:33:18Z</time>
      </trkpt>
      <trkpt lat="44.08976" lon="7.07629">
        <ele>827.6</ele>
        <time>2022-06-11T10:33:19Z</time>
      </trkpt>
      <trkpt lat="44.08976" lon="7.07627">
        <ele>827.1</ele>
        <time>2022-06-11T10:33:20Z</time>
      </trkpt>
      <trkpt lat="44.08977" lon="7.07624">
        <ele>826.8</ele>
        <time>2022-06-11T10:33:21Z</time>
      </trkpt>
      <trkpt lat="44.08977" lon="7.07621">
        <ele>826.3</ele>
        <time>2022-06-11T10:33:22Z</time>
      </trkpt>
      <trkpt lat="44.08977" lon="7.07617">
        <ele>825.8</ele>
        <time>2022-06-11T10:33:23Z</time>
      </trkpt>
      <trkpt lat="44.08977" lon="7.07614">
        <ele>824.9</ele>
        <time>2022-06-11T10:33:24Z</time>
      </trkpt>
      <trkpt lat="44.08977" lon="7.07611">
        <ele>823.9</ele>
        <time>2022-06-11T10:33:25Z</time>
      </trkpt>
      <trkpt lat="44.08977" lon="7.07608">
        <ele>823.6</ele>
        <time>2022-06-11T10:33:26Z</time>
      </trkpt>
      <trkpt lat="44.08977" lon="7.07605">
        <ele>823.2</ele>
        <time>2022-06-11T10:33:27Z</time>
      </trkpt>
      <trkpt lat="44.08977" lon="7.07602">
        <ele>822.9</ele>
        <time>2022-06-11T10:33:28Z</time>
      </trkpt>
      <trkpt lat="44.08976" lon="7.07599">
        <ele>822.5</ele>
        <time>2022-06-11T10:33:29Z</time>
      </trkpt>
      <trkpt lat="44.08976" lon="7.07596">
        <ele>822.1</ele>
        <time>2022-06-11T10:33:30Z</time>
      </trkpt>
      <trkpt lat="44.08976" lon="7.07593">
        <ele>821.7</ele>
        <time>2022-06-11T10:33:31Z</time>
      </trkpt>
      <trkpt lat="44.08976" lon="7.07591">
        <ele>821.1</ele>
        <time>2022-06-11T10:33:32Z</time>
      </trkpt>
      <trkpt lat="44.08976" lon="7.07588">
        <ele>820.5</ele>
        <time>2022-06-11T10:33:33Z</time>
      </trkpt>
      <trkpt lat="44.08976" lon="7.07585">
        <ele>820.2</ele>
        <time>2022-06-11T10:33:34Z</time>
      </trkpt>
      <trkpt lat="44.08975" lon="7.07582">
        <ele>819.7</ele>
        <time>2022-06-11T10:33:35Z</time>
      </trkpt>
      <trkpt lat="44.08975" lon="7.07579">
        <ele>819.6</ele>
        <time>2022-06-11T10:33:36Z</time>
      </trkpt>
      <trkpt lat="44.08975" lon="7.07576">
        <ele>819.4</ele>
        <time>2022-06-11T10:33:37Z</time>
      </trkpt>
      <trkpt lat="44.08975" lon="7.07573">
        <ele>819.2</ele>
        <time>2022-06-11T10:33:38Z</time>
      </trkpt>
      <trkpt lat="44.08975" lon="7.0757">
        <ele>819.2</ele>
        <time>2022-06-11T10:33:39Z</time>
      </trkpt>
      <trkpt lat="44.08975" lon="7.07567">
        <ele>819.2</ele>
        <time>2022-06-11T10:33:40Z</time>
      </trkpt>
      <trkpt lat="44.08975" lon="7.07565">
        <ele>819.2</ele>
        <time>2022-06-11T10:33:41Z</time>
      </trkpt>
      <trkpt lat="44.08975" lon="7.07562">
        <ele>819.2</ele>
        <time>2022-06-11T10:33:42Z</time>
      </trkpt>
      <trkpt lat="44.08974" lon="7.07559">
        <ele>818.7</ele>
        <time>2022-06-11T10:33:43Z</time>
      </trkpt>
      <trkpt lat="44.08974" lon="7.07556">
        <ele>818.4</ele>
        <time>2022-06-11T10:33:44Z</time>
      </trkpt>
      <trkpt lat="44.08974" lon="7.07553">
        <ele>818.1</ele>
        <time>2022-06-11T10:33:45Z</time>
      </trkpt>
      <trkpt lat="44.08973" lon="7.0755">
        <ele>817.8</ele>
        <time>2022-06-11T10:33:46Z</time>
      </trkpt>
      <trkpt lat="44.08973" lon="7.07547">
        <ele>817.7</ele>
        <time>2022-06-11T10:33:47Z</time>
      </trkpt>
      <trkpt lat="44.08973" lon="7.07544">
        <ele>817.3</ele>
        <time>2022-06-11T10:33:48Z</time>
      </trkpt>
      <trkpt lat="44.08972" lon="7.07541">
        <ele>817.1</ele>
        <time>2022-06-11T10:33:49Z</time>
      </trkpt>
      <trkpt lat="44.08972" lon="7.07538">
        <ele>817.1</ele>
        <time>2022-06-11T10:33:50Z</time>
      </trkpt>
      <trkpt lat="44.08972" lon="7.07535">
        <ele>816.8</ele>
        <time>2022-06-11T10:33:51Z</time>
      </trkpt>
      <trkpt lat="44.08972" lon="7.07532">
        <ele>816.6</ele>
        <time>2022-06-11T10:33:52Z</time>
      </trkpt>
      <trkpt lat="44.08972" lon="7.07529">
        <ele>816.6</ele>
        <time>2022-06-11T10:33:53Z</time>
      </trkpt>
      <trkpt lat="44.08972" lon="7.07526">
        <ele>816.4</ele>
        <time>2022-06-11T10:33:54Z</time>
      </trkpt>
      <trkpt lat="44.08971" lon="7.07523">
        <ele>816</ele>
        <time>2022-06-11T10:33:55Z</time>
      </trkpt>
      <trkpt lat="44.08971" lon="7.0752">
        <ele>815.7</ele>
        <time>2022-06-11T10:33:56Z</time>
      </trkpt>
      <trkpt lat="44.08971" lon="7.07517">
        <ele>815.7</ele>
        <time>2022-06-11T10:33:57Z</time>
      </trkpt>
      <trkpt lat="44.08971" lon="7.07514">
        <ele>815.6</ele>
        <time>2022-06-11T10:33:58Z</time>
      </trkpt>
      <trkpt lat="44.08971" lon="7.0751">
        <ele>815.8</ele>
        <time>2022-06-11T10:33:59Z</time>
      </trkpt>
      <trkpt lat="44.08971" lon="7.07507">
        <ele>815.8</ele>
        <time>2022-06-11T10:34:00Z</time>
      </trkpt>
      <trkpt lat="44.08971" lon="7.07504">
        <ele>816.2</ele>
        <time>2022-06-11T10:34:01Z</time>
      </trkpt>
      <trkpt lat="44.08972" lon="7.07502">
        <ele>816.8</ele>
        <time>2022-06-11T10:34:02Z</time>
      </trkpt>
      <trkpt lat="44.08973" lon="7.07498">
        <ele>817.1</ele>
        <time>2022-06-11T10:34:03Z</time>
      </trkpt>
      <trkpt lat="44.08974" lon="7.07495">
        <ele>817.8</ele>
        <time>2022-06-11T10:34:04Z</time>
      </trkpt>
      <trkpt lat="44.08975" lon="7.07493">
        <ele>818.7</ele>
        <time>2022-06-11T10:34:05Z</time>
      </trkpt>
      <trkpt lat="44.08977" lon="7.07491">
        <ele>819.9</ele>
        <time>2022-06-11T10:34:06Z</time>
      </trkpt>
      <trkpt lat="44.08979" lon="7.07489">
        <ele>820.9</ele>
        <time>2022-06-11T10:34:07Z</time>
      </trkpt>
      <trkpt lat="44.0898" lon="7.07487">
        <ele>821.9</ele>
        <time>2022-06-11T10:34:08Z</time>
      </trkpt>
      <trkpt lat="44.08982" lon="7.07485">
        <ele>823.1</ele>
        <time>2022-06-11T10:34:09Z</time>
      </trkpt>
      <trkpt lat="44.08984" lon="7.07484">
        <ele>824.6</ele>
        <time>2022-06-11T10:34:10Z</time>
      </trkpt>
      <trkpt lat="44.08986" lon="7.07482">
        <ele>826.1</ele>
        <time>2022-06-11T10:34:11Z</time>
      </trkpt>
      <trkpt lat="44.08988" lon="7.0748">
        <ele>827.5</ele>
        <time>2022-06-11T10:34:12Z</time>
      </trkpt>
      <trkpt lat="44.0899" lon="7.07478">
        <ele>828.9</ele>
        <time>2022-06-11T10:34:13Z</time>
      </trkpt>
      <trkpt lat="44.08992" lon="7.07476">
        <ele>830.2</ele>
        <time>2022-06-11T10:34:14Z</time>
      </trkpt>
      <trkpt lat="44.08994" lon="7.07474">
        <ele>831.3</ele>
        <time>2022-06-11T10:34:15Z</time>
      </trkpt>
      <trkpt lat="44.08996" lon="7.07472">
        <ele>832.7</ele>
        <time>2022-06-11T10:34:16Z</time>
      </trkpt>
      <trkpt lat="44.08998" lon="7.0747">
        <ele>834</ele>
        <time>2022-06-11T10:34:17Z</time>
      </trkpt>
      <trkpt lat="44.09" lon="7.07468">
        <ele>835.6</ele>
        <time>2022-06-11T10:34:18Z</time>
      </trkpt>
      <trkpt lat="44.09001" lon="7.07466">
        <ele>836.8</ele>
        <time>2022-06-11T10:34:19Z</time>
      </trkpt>
      <trkpt lat="44.09002" lon="7.07463">
        <ele>837.9</ele>
        <time>2022-06-11T10:34:20Z</time>
      </trkpt>
      <trkpt lat="44.09004" lon="7.07461">
        <ele>838.9</ele>
        <time>2022-06-11T10:34:21Z</time>
      </trkpt>
      <trkpt lat="44.09005" lon="7.07458">
        <ele>839.8</ele>
        <time>2022-06-11T10:34:22Z</time>
      </trkpt>
      <trkpt lat="44.09006" lon="7.07455">
        <ele>840.8</ele>
        <time>2022-06-11T10:34:23Z</time>
      </trkpt>
      <trkpt lat="44.09007" lon="7.07453">
        <ele>841.8</ele>
        <time>2022-06-11T10:34:24Z</time>
      </trkpt>
      <trkpt lat="44.09008" lon="7.07451">
        <ele>842.7</ele>
        <time>2022-06-11T10:34:25Z</time>
      </trkpt>
      <trkpt lat="44.09008" lon="7.07448">
        <ele>843.4</ele>
        <time>2022-06-11T10:34:26Z</time>
      </trkpt>
      <trkpt lat="44.09009" lon="7.07445">
        <ele>843.9</ele>
        <time>2022-06-11T10:34:27Z</time>
      </trkpt>
      <trkpt lat="44.09009" lon="7.07442">
        <ele>844.9</ele>
        <time>2022-06-11T10:34:28Z</time>
      </trkpt>
      <trkpt lat="44.09009" lon="7.07439">
        <ele>845.3</ele>
        <time>2022-06-11T10:34:29Z</time>
      </trkpt>
      <trkpt lat="44.09009" lon="7.07436">
        <ele>845.7</ele>
        <time>2022-06-11T10:34:30Z</time>
      </trkpt>
      <trkpt lat="44.09008" lon="7.07433">
        <ele>845.7</ele>
        <time>2022-06-11T10:34:31Z</time>
      </trkpt>
      <trkpt lat="44.09007" lon="7.0743">
        <ele>845.5</ele>
        <time>2022-06-11T10:34:32Z</time>
      </trkpt>
      <trkpt lat="44.09007" lon="7.07427">
        <ele>845.8</ele>
        <time>2022-06-11T10:34:33Z</time>
      </trkpt>
      <trkpt lat="44.09007" lon="7.07423">
        <ele>845.8</ele>
        <time>2022-06-11T10:34:34Z</time>
      </trkpt>
      <trkpt lat="44.09005" lon="7.07421">
        <ele>845</ele>
        <time>2022-06-11T10:34:35Z</time>
      </trkpt>
      <trkpt lat="44.09004" lon="7.07418">
        <ele>844.4</ele>
        <time>2022-06-11T10:34:36Z</time>
      </trkpt>
      <trkpt lat="44.09003" lon="7.07415">
        <ele>843.6</ele>
        <time>2022-06-11T10:34:37Z</time>
      </trkpt>
      <trkpt lat="44.09001" lon="7.07413">
        <ele>843</ele>
        <time>2022-06-11T10:34:38Z</time>
      </trkpt>
      <trkpt lat="44.09" lon="7.07411">
        <ele>842.1</ele>
        <time>2022-06-11T10:34:39Z</time>
      </trkpt>
      <trkpt lat="44.08998" lon="7.07408">
        <ele>841.6</ele>
        <time>2022-06-11T10:34:40Z</time>
      </trkpt>
      <trkpt lat="44.08997" lon="7.07406">
        <ele>840.7</ele>
        <time>2022-06-11T10:34:41Z</time>
      </trkpt>
      <trkpt lat="44.08995" lon="7.07404">
        <ele>840.1</ele>
        <time>2022-06-11T10:34:42Z</time>
      </trkpt>
      <trkpt lat="44.08994" lon="7.07401">
        <ele>839.4</ele>
        <time>2022-06-11T10:34:43Z</time>
      </trkpt>
      <trkpt lat="44.08992" lon="7.07399">
        <ele>838.1</ele>
        <time>2022-06-11T10:34:44Z</time>
      </trkpt>
      <trkpt lat="44.0899" lon="7.07397">
        <ele>837.1</ele>
        <time>2022-06-11T10:34:45Z</time>
      </trkpt>
      <trkpt lat="44.08988" lon="7.07395">
        <ele>835.7</ele>
        <time>2022-06-11T10:34:46Z</time>
      </trkpt>
      <trkpt lat="44.08986" lon="7.07392">
        <ele>835.3</ele>
        <time>2022-06-11T10:34:47Z</time>
      </trkpt>
      <trkpt lat="44.08985" lon="7.0739">
        <ele>834.4</ele>
        <time>2022-06-11T10:34:48Z</time>
      </trkpt>
      <trkpt lat="44.08984" lon="7.07387">
        <ele>834.7</ele>
        <time>2022-06-11T10:34:49Z</time>
      </trkpt>
      <trkpt lat="44.08982" lon="7.07384">
        <ele>834.8</ele>
        <time>2022-06-11T10:34:50Z</time>
      </trkpt>
      <trkpt lat="44.08981" lon="7.07382">
        <ele>834.8</ele>
        <time>2022-06-11T10:34:51Z</time>
      </trkpt>
      <trkpt lat="44.08979" lon="7.07379">
        <ele>834.6</ele>
        <time>2022-06-11T10:34:52Z</time>
      </trkpt>
      <trkpt lat="44.08978" lon="7.07377">
        <ele>834.1</ele>
        <time>2022-06-11T10:34:53Z</time>
      </trkpt>
      <trkpt lat="44.08976" lon="7.07374">
        <ele>834.2</ele>
        <time>2022-06-11T10:34:54Z</time>
      </trkpt>
      <trkpt lat="44.08975" lon="7.07372">
        <ele>834.2</ele>
        <time>2022-06-11T10:34:55Z</time>
      </trkpt>
      <trkpt lat="44.08973" lon="7.07369">
        <ele>834.3</ele>
        <time>2022-06-11T10:34:56Z</time>
      </trkpt>
      <trkpt lat="44.08972" lon="7.07367">
        <ele>834</ele>
        <time>2022-06-11T10:34:57Z</time>
      </trkpt>
      <trkpt lat="44.0897" lon="7.07365">
        <ele>834</ele>
        <time>2022-06-11T10:34:58Z</time>
      </trkpt>
      <trkpt lat="44.08969" lon="7.07363">
        <ele>834.1</ele>
        <time>2022-06-11T10:34:59Z</time>
      </trkpt>
      <trkpt lat="44.08967" lon="7.07361">
        <ele>833.8</ele>
        <time>2022-06-11T10:35:00Z</time>
      </trkpt>
      <trkpt lat="44.08965" lon="7.07358">
        <ele>833.6</ele>
        <time>2022-06-11T10:35:01Z</time>
      </trkpt>
      <trkpt lat="44.08964" lon="7.07356">
        <ele>833.7</ele>
        <time>2022-06-11T10:35:02Z</time>
      </trkpt>
      <trkpt lat="44.08963" lon="7.07353">
        <ele>834.1</ele>
        <time>2022-06-11T10:35:03Z</time>
      </trkpt>
      <trkpt lat="44.08962" lon="7.07351">
        <ele>834.6</ele>
        <time>2022-06-11T10:35:04Z</time>
      </trkpt>
      <trkpt lat="44.0896" lon="7.07348">
        <ele>834.7</ele>
        <time>2022-06-11T10:35:05Z</time>
      </trkpt>
      <trkpt lat="44.08959" lon="7.07346">
        <ele>834.8</ele>
        <time>2022-06-11T10:35:06Z</time>
      </trkpt>
      <trkpt lat="44.08957" lon="7.07343">
        <ele>834.5</ele>
        <time>2022-06-11T10:35:07Z</time>
      </trkpt>
      <trkpt lat="44.08956" lon="7.07341">
        <ele>834.8</ele>
        <time>2022-06-11T10:35:08Z</time>
      </trkpt>
      <trkpt lat="44.08956" lon="7.07338">
        <ele>835.7</ele>
        <time>2022-06-11T10:35:09Z</time>
      </trkpt>
      <trkpt lat="44.08955" lon="7.07335">
        <ele>836.4</ele>
        <time>2022-06-11T10:35:10Z</time>
      </trkpt>
      <trkpt lat="44.08954" lon="7.07332">
        <ele>837</ele>
        <time>2022-06-11T10:35:11Z</time>
      </trkpt>
      <trkpt lat="44.08953" lon="7.07329">
        <ele>837.4</ele>
        <time>2022-06-11T10:35:12Z</time>
      </trkpt>
      <trkpt lat="44.08952" lon="7.07326">
        <ele>837.4</ele>
        <time>2022-06-11T10:35:13Z</time>
      </trkpt>
      <trkpt lat="44.08951" lon="7.07324">
        <ele>837.5</ele>
        <time>2022-06-11T10:35:14Z</time>
      </trkpt>
      <trkpt lat="44.0895" lon="7.07321">
        <ele>837.5</ele>
        <time>2022-06-11T10:35:15Z</time>
      </trkpt>
      <trkpt lat="44.08949" lon="7.07318">
        <ele>837.7</ele>
        <time>2022-06-11T10:35:16Z</time>
      </trkpt>
      <trkpt lat="44.08948" lon="7.07315">
        <ele>837.7</ele>
        <time>2022-06-11T10:35:17Z</time>
      </trkpt>
      <trkpt lat="44.08947" lon="7.07312">
        <ele>837.9</ele>
        <time>2022-06-11T10:35:18Z</time>
      </trkpt>
      <trkpt lat="44.08947" lon="7.07309">
        <ele>838.2</ele>
        <time>2022-06-11T10:35:19Z</time>
      </trkpt>
      <trkpt lat="44.08945" lon="7.07306">
        <ele>837.8</ele>
        <time>2022-06-11T10:35:20Z</time>
      </trkpt>
      <trkpt lat="44.08944" lon="7.07304">
        <ele>838.3</ele>
        <time>2022-06-11T10:35:21Z</time>
      </trkpt>
      <trkpt lat="44.08943" lon="7.07301">
        <ele>839.3</ele>
        <time>2022-06-11T10:35:22Z</time>
      </trkpt>
      <trkpt lat="44.08942" lon="7.07298">
        <ele>840.6</ele>
        <time>2022-06-11T10:35:23Z</time>
      </trkpt>
      <trkpt lat="44.08941" lon="7.07296">
        <ele>841.5</ele>
        <time>2022-06-11T10:35:24Z</time>
      </trkpt>
      <trkpt lat="44.08939" lon="7.07293">
        <ele>842</ele>
        <time>2022-06-11T10:35:25Z</time>
      </trkpt>
      <trkpt lat="44.08938" lon="7.07292">
        <ele>841.9</ele>
        <time>2022-06-11T10:35:26Z</time>
      </trkpt>
      <trkpt lat="44.08936" lon="7.07291">
        <ele>841.4</ele>
        <time>2022-06-11T10:35:27Z</time>
      </trkpt>
      <trkpt lat="44.08935" lon="7.0729">
        <ele>841.1</ele>
        <time>2022-06-11T10:35:28Z</time>
      </trkpt>
      <trkpt lat="44.08934" lon="7.07288">
        <ele>841.5</ele>
        <time>2022-06-11T10:35:29Z</time>
      </trkpt>
      <trkpt lat="44.08933" lon="7.07284">
        <ele>843.5</ele>
        <time>2022-06-11T10:35:30Z</time>
      </trkpt>
      <trkpt lat="44.08933" lon="7.07277">
        <ele>846.8</ele>
        <time>2022-06-11T10:35:31Z</time>
      </trkpt>
      <trkpt lat="44.08933" lon="7.07267">
        <ele>853.2</ele>
        <time>2022-06-11T10:35:32Z</time>
      </trkpt>
      <trkpt lat="44.08934" lon="7.07264">
        <ele>855.8</ele>
        <time>2022-06-11T10:35:33Z</time>
      </trkpt>
      <trkpt lat="44.08934" lon="7.07261">
        <ele>858.4</ele>
        <time>2022-06-11T10:35:34Z</time>
      </trkpt>
      <trkpt lat="44.08935" lon="7.07258">
        <ele>861</ele>
        <time>2022-06-11T10:35:35Z</time>
      </trkpt>
      <trkpt lat="44.08936" lon="7.07254">
        <ele>863.7</ele>
        <time>2022-06-11T10:35:36Z</time>
      </trkpt>
      <trkpt lat="44.08936" lon="7.07254">
        <ele>863.7</ele>
        <time>2022-06-11T10:35:37Z</time>
      </trkpt>
      <trkpt lat="44.08936" lon="7.07254">
        <ele>863.7</ele>
        <time>2022-06-11T10:35:38Z</time>
      </trkpt>
      <trkpt lat="44.08921" lon="7.07244">
        <ele>851.7</ele>
        <time>2022-06-11T10:35:39Z</time>
      </trkpt>
      <trkpt lat="44.08906" lon="7.07235">
        <ele>835.9</ele>
        <time>2022-06-11T10:35:40Z</time>
      </trkpt>
      <trkpt lat="44.08902" lon="7.07237">
        <ele>830.7</ele>
        <time>2022-06-11T10:35:41Z</time>
      </trkpt>
      <trkpt lat="44.08902" lon="7.07238">
        <ele>830.7</ele>
        <time>2022-06-11T10:35:42Z</time>
      </trkpt>
      <trkpt lat="44.08907" lon="7.07236">
        <ele>836.6</ele>
        <time>2022-06-11T10:35:43Z</time>
      </trkpt>
      <trkpt lat="44.0891" lon="7.07237">
        <ele>839.9</ele>
        <time>2022-06-11T10:35:44Z</time>
      </trkpt>
      <trkpt lat="44.08911" lon="7.07233">
        <ele>841.9</ele>
        <time>2022-06-11T10:35:45Z</time>
      </trkpt>
      <trkpt lat="44.08911" lon="7.0723">
        <ele>842.9</ele>
        <time>2022-06-11T10:35:46Z</time>
      </trkpt>
      <trkpt lat="44.08912" lon="7.07227">
        <ele>844.3</ele>
        <time>2022-06-11T10:35:47Z</time>
      </trkpt>
      <trkpt lat="44.08913" lon="7.07223">
        <ele>845.5</ele>
        <time>2022-06-11T10:35:48Z</time>
      </trkpt>
      <trkpt lat="44.08913" lon="7.0722">
        <ele>846.3</ele>
        <time>2022-06-11T10:35:49Z</time>
      </trkpt>
      <trkpt lat="44.08914" lon="7.07217">
        <ele>847.5</ele>
        <time>2022-06-11T10:35:50Z</time>
      </trkpt>
      <trkpt lat="44.08915" lon="7.07214">
        <ele>848.1</ele>
        <time>2022-06-11T10:35:51Z</time>
      </trkpt>
      <trkpt lat="44.08915" lon="7.07211">
        <ele>848.9</ele>
        <time>2022-06-11T10:35:52Z</time>
      </trkpt>
      <trkpt lat="44.08916" lon="7.07208">
        <ele>849.6</ele>
        <time>2022-06-11T10:35:53Z</time>
      </trkpt>
      <trkpt lat="44.08916" lon="7.07205">
        <ele>850.1</ele>
        <time>2022-06-11T10:35:54Z</time>
      </trkpt>
      <trkpt lat="44.08916" lon="7.07202">
        <ele>850.5</ele>
        <time>2022-06-11T10:35:55Z</time>
      </trkpt>
      <trkpt lat="44.08917" lon="7.07199">
        <ele>851.2</ele>
        <time>2022-06-11T10:35:56Z</time>
      </trkpt>
      <trkpt lat="44.08917" lon="7.07196">
        <ele>852</ele>
        <time>2022-06-11T10:35:57Z</time>
      </trkpt>
      <trkpt lat="44.08918" lon="7.07192">
        <ele>852.5</ele>
        <time>2022-06-11T10:35:58Z</time>
      </trkpt>
      <trkpt lat="44.08918" lon="7.07189">
        <ele>852.7</ele>
        <time>2022-06-11T10:35:59Z</time>
      </trkpt>
      <trkpt lat="44.08918" lon="7.07185">
        <ele>853.5</ele>
        <time>2022-06-11T10:36:00Z</time>
      </trkpt>
      <trkpt lat="44.08919" lon="7.07182">
        <ele>853.9</ele>
        <time>2022-06-11T10:36:01Z</time>
      </trkpt>
      <trkpt lat="44.08919" lon="7.07179">
        <ele>853.8</ele>
        <time>2022-06-11T10:36:02Z</time>
      </trkpt>
      <trkpt lat="44.08919" lon="7.07176">
        <ele>854.1</ele>
        <time>2022-06-11T10:36:03Z</time>
      </trkpt>
      <trkpt lat="44.08919" lon="7.07172">
        <ele>854.5</ele>
        <time>2022-06-11T10:36:04Z</time>
      </trkpt>
      <trkpt lat="44.08919" lon="7.07169">
        <ele>854.3</ele>
        <time>2022-06-11T10:36:05Z</time>
      </trkpt>
      <trkpt lat="44.08919" lon="7.07166">
        <ele>854.7</ele>
        <time>2022-06-11T10:36:06Z</time>
      </trkpt>
      <trkpt lat="44.0892" lon="7.07163">
        <ele>856.2</ele>
        <time>2022-06-11T10:36:07Z</time>
      </trkpt>
      <trkpt lat="44.08921" lon="7.07159">
        <ele>856.9</ele>
        <time>2022-06-11T10:36:08Z</time>
      </trkpt>
      <trkpt lat="44.08921" lon="7.07156">
        <ele>857.2</ele>
        <time>2022-06-11T10:36:09Z</time>
      </trkpt>
      <trkpt lat="44.08922" lon="7.07153">
        <ele>857.9</ele>
        <time>2022-06-11T10:36:10Z</time>
      </trkpt>
      <trkpt lat="44.08922" lon="7.0715">
        <ele>858.4</ele>
        <time>2022-06-11T10:36:11Z</time>
      </trkpt>
      <trkpt lat="44.08922" lon="7.07146">
        <ele>857.8</ele>
        <time>2022-06-11T10:36:12Z</time>
      </trkpt>
      <trkpt lat="44.08922" lon="7.07144">
        <ele>858.1</ele>
        <time>2022-06-11T10:36:13Z</time>
      </trkpt>
      <trkpt lat="44.08922" lon="7.0714">
        <ele>857.3</ele>
        <time>2022-06-11T10:36:14Z</time>
      </trkpt>
      <trkpt lat="44.08922" lon="7.07137">
        <ele>857.3</ele>
        <time>2022-06-11T10:36:15Z</time>
      </trkpt>
      <trkpt lat="44.08922" lon="7.07134">
        <ele>855.9</ele>
        <time>2022-06-11T10:36:16Z</time>
      </trkpt>
      <trkpt lat="44.08921" lon="7.07131">
        <ele>854.7</ele>
        <time>2022-06-11T10:36:17Z</time>
      </trkpt>
      <trkpt lat="44.08921" lon="7.07128">
        <ele>854</ele>
        <time>2022-06-11T10:36:18Z</time>
      </trkpt>
      <trkpt lat="44.08921" lon="7.07124">
        <ele>853.9</ele>
        <time>2022-06-11T10:36:19Z</time>
      </trkpt>
      <trkpt lat="44.08921" lon="7.07121">
        <ele>853.1</ele>
        <time>2022-06-11T10:36:20Z</time>
      </trkpt>
      <trkpt lat="44.08921" lon="7.07118">
        <ele>853</ele>
        <time>2022-06-11T10:36:21Z</time>
      </trkpt>
      <trkpt lat="44.08921" lon="7.07115">
        <ele>852.4</ele>
        <time>2022-06-11T10:36:22Z</time>
      </trkpt>
      <trkpt lat="44.08921" lon="7.07112">
        <ele>851.6</ele>
        <time>2022-06-11T10:36:23Z</time>
      </trkpt>
      <trkpt lat="44.08921" lon="7.07109">
        <ele>850.6</ele>
        <time>2022-06-11T10:36:24Z</time>
      </trkpt>
      <trkpt lat="44.08921" lon="7.07106">
        <ele>850.3</ele>
        <time>2022-06-11T10:36:25Z</time>
      </trkpt>
      <trkpt lat="44.08922" lon="7.07104">
        <ele>850.8</ele>
        <time>2022-06-11T10:36:26Z</time>
      </trkpt>
      <trkpt lat="44.08922" lon="7.071">
        <ele>851.3</ele>
        <time>2022-06-11T10:36:27Z</time>
      </trkpt>
      <trkpt lat="44.08923" lon="7.07097">
        <ele>851.4</ele>
        <time>2022-06-11T10:36:28Z</time>
      </trkpt>
      <trkpt lat="44.08923" lon="7.07094">
        <ele>851.2</ele>
        <time>2022-06-11T10:36:29Z</time>
      </trkpt>
      <trkpt lat="44.08924" lon="7.07091">
        <ele>851.4</ele>
        <time>2022-06-11T10:36:30Z</time>
      </trkpt>
      <trkpt lat="44.08924" lon="7.07088">
        <ele>851.5</ele>
        <time>2022-06-11T10:36:31Z</time>
      </trkpt>
      <trkpt lat="44.08924" lon="7.07085">
        <ele>850.9</ele>
        <time>2022-06-11T10:36:32Z</time>
      </trkpt>
      <trkpt lat="44.08924" lon="7.07082">
        <ele>850</ele>
        <time>2022-06-11T10:36:33Z</time>
      </trkpt>
      <trkpt lat="44.08924" lon="7.07079">
        <ele>849.3</ele>
        <time>2022-06-11T10:36:34Z</time>
      </trkpt>
      <trkpt lat="44.08925" lon="7.07076">
        <ele>849.8</ele>
        <time>2022-06-11T10:36:35Z</time>
      </trkpt>
      <trkpt lat="44.08925" lon="7.07072">
        <ele>849.3</ele>
        <time>2022-06-11T10:36:36Z</time>
      </trkpt>
      <trkpt lat="44.08926" lon="7.07069">
        <ele>849.8</ele>
        <time>2022-06-11T10:36:37Z</time>
      </trkpt>
      <trkpt lat="44.08927" lon="7.07066">
        <ele>850.4</ele>
        <time>2022-06-11T10:36:38Z</time>
      </trkpt>
      <trkpt lat="44.08928" lon="7.07063">
        <ele>850.7</ele>
        <time>2022-06-11T10:36:39Z</time>
      </trkpt>
      <trkpt lat="44.08929" lon="7.0706">
        <ele>851.6</ele>
        <time>2022-06-11T10:36:40Z</time>
      </trkpt>
      <trkpt lat="44.0893" lon="7.07057">
        <ele>852.5</ele>
        <time>2022-06-11T10:36:41Z</time>
      </trkpt>
      <trkpt lat="44.08931" lon="7.07054">
        <ele>853.2</ele>
        <time>2022-06-11T10:36:42Z</time>
      </trkpt>
      <trkpt lat="44.08932" lon="7.07051">
        <ele>853.4</ele>
        <time>2022-06-11T10:36:43Z</time>
      </trkpt>
      <trkpt lat="44.08933" lon="7.07048">
        <ele>854</ele>
        <time>2022-06-11T10:36:44Z</time>
      </trkpt>
      <trkpt lat="44.08934" lon="7.07045">
        <ele>854.4</ele>
        <time>2022-06-11T10:36:45Z</time>
      </trkpt>
      <trkpt lat="44.08935" lon="7.07042">
        <ele>854.9</ele>
        <time>2022-06-11T10:36:46Z</time>
      </trkpt>
      <trkpt lat="44.08936" lon="7.07039">
        <ele>855.4</ele>
        <time>2022-06-11T10:36:47Z</time>
      </trkpt>
      <trkpt lat="44.08937" lon="7.07036">
        <ele>856.2</ele>
        <time>2022-06-11T10:36:48Z</time>
      </trkpt>
      <trkpt lat="44.08939" lon="7.07033">
        <ele>857.1</ele>
        <time>2022-06-11T10:36:49Z</time>
      </trkpt>
      <trkpt lat="44.0894" lon="7.0703">
        <ele>857.3</ele>
        <time>2022-06-11T10:36:50Z</time>
      </trkpt>
      <trkpt lat="44.08941" lon="7.07026">
        <ele>857.9</ele>
        <time>2022-06-11T10:36:51Z</time>
      </trkpt>
      <trkpt lat="44.08942" lon="7.07023">
        <ele>858.6</ele>
        <time>2022-06-11T10:36:52Z</time>
      </trkpt>
      <trkpt lat="44.08943" lon="7.0702">
        <ele>859</ele>
        <time>2022-06-11T10:36:53Z</time>
      </trkpt>
      <trkpt lat="44.08945" lon="7.07017">
        <ele>859.4</ele>
        <time>2022-06-11T10:36:54Z</time>
      </trkpt>
      <trkpt lat="44.08946" lon="7.07014">
        <ele>860</ele>
        <time>2022-06-11T10:36:55Z</time>
      </trkpt>
      <trkpt lat="44.08947" lon="7.07011">
        <ele>860.3</ele>
        <time>2022-06-11T10:36:56Z</time>
      </trkpt>
      <trkpt lat="44.08947" lon="7.07007">
        <ele>859.9</ele>
        <time>2022-06-11T10:36:57Z</time>
      </trkpt>
      <trkpt lat="44.08948" lon="7.07004">
        <ele>860.3</ele>
        <time>2022-06-11T10:36:58Z</time>
      </trkpt>
      <trkpt lat="44.08949" lon="7.07001">
        <ele>860.7</ele>
        <time>2022-06-11T10:36:59Z</time>
      </trkpt>
      <trkpt lat="44.08951" lon="7.06998">
        <ele>862.4</ele>
        <time>2022-06-11T10:37:00Z</time>
      </trkpt>
      <trkpt lat="44.08952" lon="7.06995">
        <ele>863.4</ele>
        <time>2022-06-11T10:37:01Z</time>
      </trkpt>
      <trkpt lat="44.08953" lon="7.06992">
        <ele>864.1</ele>
        <time>2022-06-11T10:37:02Z</time>
      </trkpt>
      <trkpt lat="44.08955" lon="7.0699">
        <ele>865.1</ele>
        <time>2022-06-11T10:37:03Z</time>
      </trkpt>
      <trkpt lat="44.08956" lon="7.06987">
        <ele>865.6</ele>
        <time>2022-06-11T10:37:04Z</time>
      </trkpt>
      <trkpt lat="44.08956" lon="7.06984">
        <ele>865.4</ele>
        <time>2022-06-11T10:37:05Z</time>
      </trkpt>
      <trkpt lat="44.08957" lon="7.06982">
        <ele>865.8</ele>
        <time>2022-06-11T10:37:06Z</time>
      </trkpt>
      <trkpt lat="44.08958" lon="7.06978">
        <ele>865.4</ele>
        <time>2022-06-11T10:37:07Z</time>
      </trkpt>
      <trkpt lat="44.08958" lon="7.06976">
        <ele>865.7</ele>
        <time>2022-06-11T10:37:08Z</time>
      </trkpt>
      <trkpt lat="44.08959" lon="7.06973">
        <ele>865.8</ele>
        <time>2022-06-11T10:37:09Z</time>
      </trkpt>
      <trkpt lat="44.0896" lon="7.06971">
        <ele>865.7</ele>
        <time>2022-06-11T10:37:10Z</time>
      </trkpt>
      <trkpt lat="44.08961" lon="7.06968">
        <ele>866.4</ele>
        <time>2022-06-11T10:37:11Z</time>
      </trkpt>
      <trkpt lat="44.08962" lon="7.06965">
        <ele>866.6</ele>
        <time>2022-06-11T10:37:12Z</time>
      </trkpt>
      <trkpt lat="44.08963" lon="7.06962">
        <ele>867</ele>
        <time>2022-06-11T10:37:13Z</time>
      </trkpt>
      <trkpt lat="44.08964" lon="7.0696">
        <ele>867.5</ele>
        <time>2022-06-11T10:37:14Z</time>
      </trkpt>
      <trkpt lat="44.08964" lon="7.06957">
        <ele>867.4</ele>
        <time>2022-06-11T10:37:15Z</time>
      </trkpt>
      <trkpt lat="44.08965" lon="7.06954">
        <ele>867.1</ele>
        <time>2022-06-11T10:37:16Z</time>
      </trkpt>
      <trkpt lat="44.08966" lon="7.06951">
        <ele>867.4</ele>
        <time>2022-06-11T10:37:17Z</time>
      </trkpt>
      <trkpt lat="44.08966" lon="7.06949">
        <ele>867.4</ele>
        <time>2022-06-11T10:37:18Z</time>
      </trkpt>
      <trkpt lat="44.08967" lon="7.06946">
        <ele>867.3</ele>
        <time>2022-06-11T10:37:19Z</time>
      </trkpt>
      <trkpt lat="44.08968" lon="7.06943">
        <ele>867.7</ele>
        <time>2022-06-11T10:37:20Z</time>
      </trkpt>
      <trkpt lat="44.08969" lon="7.0694">
        <ele>868.1</ele>
        <time>2022-06-11T10:37:21Z</time>
      </trkpt>
      <trkpt lat="44.0897" lon="7.06938">
        <ele>868.9</ele>
        <time>2022-06-11T10:37:22Z</time>
      </trkpt>
      <trkpt lat="44.08971" lon="7.06936">
        <ele>869.2</ele>
        <time>2022-06-11T10:37:23Z</time>
      </trkpt>
      <trkpt lat="44.08972" lon="7.06933">
        <ele>869.5</ele>
        <time>2022-06-11T10:37:24Z</time>
      </trkpt>
      <trkpt lat="44.08972" lon="7.0693">
        <ele>869.5</ele>
        <time>2022-06-11T10:37:25Z</time>
      </trkpt>
      <trkpt lat="44.08973" lon="7.06928">
        <ele>869.9</ele>
        <time>2022-06-11T10:37:26Z</time>
      </trkpt>
      <trkpt lat="44.08974" lon="7.06926">
        <ele>870.1</ele>
        <time>2022-06-11T10:37:27Z</time>
      </trkpt>
      <trkpt lat="44.08974" lon="7.06923">
        <ele>870</ele>
        <time>2022-06-11T10:37:28Z</time>
      </trkpt>
      <trkpt lat="44.08975" lon="7.0692">
        <ele>869.8</ele>
        <time>2022-06-11T10:37:29Z</time>
      </trkpt>
      <trkpt lat="44.08976" lon="7.06918">
        <ele>870</ele>
        <time>2022-06-11T10:37:30Z</time>
      </trkpt>
      <trkpt lat="44.08976" lon="7.06915">
        <ele>869.9</ele>
        <time>2022-06-11T10:37:31Z</time>
      </trkpt>
      <trkpt lat="44.08976" lon="7.06912">
        <ele>869</ele>
        <time>2022-06-11T10:37:32Z</time>
      </trkpt>
      <trkpt lat="44.08977" lon="7.0691">
        <ele>869.5</ele>
        <time>2022-06-11T10:37:33Z</time>
      </trkpt>
      <trkpt lat="44.08977" lon="7.06906">
        <ele>868.7</ele>
        <time>2022-06-11T10:37:34Z</time>
      </trkpt>
      <trkpt lat="44.08978" lon="7.06903">
        <ele>868</ele>
        <time>2022-06-11T10:37:35Z</time>
      </trkpt>
      <trkpt lat="44.08978" lon="7.069">
        <ele>867.7</ele>
        <time>2022-06-11T10:37:36Z</time>
      </trkpt>
      <trkpt lat="44.08979" lon="7.06898">
        <ele>867.5</ele>
        <time>2022-06-11T10:37:37Z</time>
      </trkpt>
      <trkpt lat="44.08979" lon="7.06896">
        <ele>867.7</ele>
        <time>2022-06-11T10:37:38Z</time>
      </trkpt>
      <trkpt lat="44.0898" lon="7.06893">
        <ele>867.7</ele>
        <time>2022-06-11T10:37:39Z</time>
      </trkpt>
      <trkpt lat="44.08981" lon="7.0689">
        <ele>867.8</ele>
        <time>2022-06-11T10:37:40Z</time>
      </trkpt>
      <trkpt lat="44.08982" lon="7.06887">
        <ele>867.6</ele>
        <time>2022-06-11T10:37:41Z</time>
      </trkpt>
      <trkpt lat="44.08983" lon="7.06884">
        <ele>867.6</ele>
        <time>2022-06-11T10:37:42Z</time>
      </trkpt>
      <trkpt lat="44.08984" lon="7.06882">
        <ele>867.3</ele>
        <time>2022-06-11T10:37:43Z</time>
      </trkpt>
      <trkpt lat="44.08985" lon="7.06879">
        <ele>867.4</ele>
        <time>2022-06-11T10:37:44Z</time>
      </trkpt>
      <trkpt lat="44.08985" lon="7.06877">
        <ele>867.1</ele>
        <time>2022-06-11T10:37:45Z</time>
      </trkpt>
      <trkpt lat="44.08986" lon="7.06874">
        <ele>866.7</ele>
        <time>2022-06-11T10:37:46Z</time>
      </trkpt>
      <trkpt lat="44.08987" lon="7.06871">
        <ele>866.5</ele>
        <time>2022-06-11T10:37:47Z</time>
      </trkpt>
      <trkpt lat="44.08988" lon="7.0687">
        <ele>866.8</ele>
        <time>2022-06-11T10:37:48Z</time>
      </trkpt>
      <trkpt lat="44.08989" lon="7.06868">
        <ele>866.5</ele>
        <time>2022-06-11T10:37:49Z</time>
      </trkpt>
      <trkpt lat="44.08989" lon="7.06867">
        <ele>866.3</ele>
        <time>2022-06-11T10:37:50Z</time>
      </trkpt>
      <trkpt lat="44.08989" lon="7.06866">
        <ele>866.1</ele>
        <time>2022-06-11T10:37:51Z</time>
      </trkpt>
      <trkpt lat="44.0899" lon="7.06864">
        <ele>866.1</ele>
        <time>2022-06-11T10:37:52Z</time>
      </trkpt>
      <trkpt lat="44.08989" lon="7.0686">
        <ele>863.5</ele>
        <time>2022-06-11T10:37:53Z</time>
      </trkpt>
      <trkpt lat="44.08989" lon="7.0686">
        <ele>863.5</ele>
        <time>2022-06-11T10:37:54Z</time>
      </trkpt>
      <trkpt lat="44.08988" lon="7.06857">
        <ele>861.5</ele>
        <time>2022-06-11T10:37:55Z</time>
      </trkpt>
      <trkpt lat="44.08988" lon="7.06854">
        <ele>859.5</ele>
        <time>2022-06-11T10:37:56Z</time>
      </trkpt>
      <trkpt lat="44.08988" lon="7.0685">
        <ele>858</ele>
        <time>2022-06-11T10:37:57Z</time>
      </trkpt>
      <trkpt lat="44.08988" lon="7.0685">
        <ele>857.5</ele>
        <time>2022-06-11T10:37:58Z</time>
      </trkpt>
      <trkpt lat="44.08992" lon="7.06846">
        <ele>859.8</ele>
        <time>2022-06-11T10:37:59Z</time>
      </trkpt>
      <trkpt lat="44.08995" lon="7.06847">
        <ele>863.1</ele>
        <time>2022-06-11T10:38:00Z</time>
      </trkpt>
      <trkpt lat="44.08999" lon="7.06846">
        <ele>864.9</ele>
        <time>2022-06-11T10:38:01Z</time>
      </trkpt>
      <trkpt lat="44.09005" lon="7.06847">
        <ele>872.3</ele>
        <time>2022-06-11T10:38:02Z</time>
      </trkpt>
      <trkpt lat="44.09009" lon="7.06845">
        <ele>875.5</ele>
        <time>2022-06-11T10:38:03Z</time>
      </trkpt>
      <trkpt lat="44.09012" lon="7.06844">
        <ele>878</ele>
        <time>2022-06-11T10:38:04Z</time>
      </trkpt>
      <trkpt lat="44.09014" lon="7.06842">
        <ele>879</ele>
        <time>2022-06-11T10:38:05Z</time>
      </trkpt>
      <trkpt lat="44.09016" lon="7.06841">
        <ele>880.9</ele>
        <time>2022-06-11T10:38:06Z</time>
      </trkpt>
      <trkpt lat="44.09017" lon="7.06839">
        <ele>881.8</ele>
        <time>2022-06-11T10:38:07Z</time>
      </trkpt>
      <trkpt lat="44.09019" lon="7.06837">
        <ele>882.1</ele>
        <time>2022-06-11T10:38:08Z</time>
      </trkpt>
      <trkpt lat="44.0902" lon="7.06835">
        <ele>882.9</ele>
        <time>2022-06-11T10:38:09Z</time>
      </trkpt>
      <trkpt lat="44.09021" lon="7.06833">
        <ele>883.7</ele>
        <time>2022-06-11T10:38:10Z</time>
      </trkpt>
      <trkpt lat="44.09023" lon="7.06831">
        <ele>885.5</ele>
        <time>2022-06-11T10:38:11Z</time>
      </trkpt>
      <trkpt lat="44.09024" lon="7.06828">
        <ele>886.8</ele>
        <time>2022-06-11T10:38:12Z</time>
      </trkpt>
      <trkpt lat="44.09025" lon="7.06826">
        <ele>887.5</ele>
        <time>2022-06-11T10:38:13Z</time>
      </trkpt>
      <trkpt lat="44.09026" lon="7.06822">
        <ele>888.4</ele>
        <time>2022-06-11T10:38:14Z</time>
      </trkpt>
      <trkpt lat="44.09026" lon="7.06819">
        <ele>888.6</ele>
        <time>2022-06-11T10:38:15Z</time>
      </trkpt>
      <trkpt lat="44.09026" lon="7.06815">
        <ele>888.2</ele>
        <time>2022-06-11T10:38:16Z</time>
      </trkpt>
      <trkpt lat="44.09026" lon="7.06812">
        <ele>887.3</ele>
        <time>2022-06-11T10:38:17Z</time>
      </trkpt>
      <trkpt lat="44.09025" lon="7.06809">
        <ele>886</ele>
        <time>2022-06-11T10:38:18Z</time>
      </trkpt>
      <trkpt lat="44.09024" lon="7.06806">
        <ele>884.4</ele>
        <time>2022-06-11T10:38:19Z</time>
      </trkpt>
      <trkpt lat="44.09023" lon="7.06803">
        <ele>884.2</ele>
        <time>2022-06-11T10:38:20Z</time>
      </trkpt>
      <trkpt lat="44.09023" lon="7.06799">
        <ele>884.7</ele>
        <time>2022-06-11T10:38:21Z</time>
      </trkpt>
      <trkpt lat="44.09023" lon="7.06796">
        <ele>884.1</ele>
        <time>2022-06-11T10:38:22Z</time>
      </trkpt>
      <trkpt lat="44.09022" lon="7.06793">
        <ele>882.9</ele>
        <time>2022-06-11T10:38:23Z</time>
      </trkpt>
      <trkpt lat="44.09021" lon="7.06791">
        <ele>882.2</ele>
        <time>2022-06-11T10:38:24Z</time>
      </trkpt>
      <trkpt lat="44.0902" lon="7.06788">
        <ele>881.5</ele>
        <time>2022-06-11T10:38:25Z</time>
      </trkpt>
      <trkpt lat="44.09018" lon="7.06785">
        <ele>879.1</ele>
        <time>2022-06-11T10:38:26Z</time>
      </trkpt>
      <trkpt lat="44.09018" lon="7.06782">
        <ele>879.1</ele>
        <time>2022-06-11T10:38:27Z</time>
      </trkpt>
      <trkpt lat="44.09018" lon="7.06779">
        <ele>879.4</ele>
        <time>2022-06-11T10:38:28Z</time>
      </trkpt>
      <trkpt lat="44.09018" lon="7.06776">
        <ele>879.1</ele>
        <time>2022-06-11T10:38:29Z</time>
      </trkpt>
      <trkpt lat="44.09017" lon="7.06773">
        <ele>878.9</ele>
        <time>2022-06-11T10:38:30Z</time>
      </trkpt>
      <trkpt lat="44.09017" lon="7.0677">
        <ele>879.3</ele>
        <time>2022-06-11T10:38:31Z</time>
      </trkpt>
      <trkpt lat="44.09017" lon="7.06767">
        <ele>879.3</ele>
        <time>2022-06-11T10:38:32Z</time>
      </trkpt>
      <trkpt lat="44.09017" lon="7.06764">
        <ele>879.9</ele>
        <time>2022-06-11T10:38:33Z</time>
      </trkpt>
      <trkpt lat="44.09017" lon="7.06761">
        <ele>880.3</ele>
        <time>2022-06-11T10:38:34Z</time>
      </trkpt>
      <trkpt lat="44.09017" lon="7.06759">
        <ele>879.8</ele>
        <time>2022-06-11T10:38:35Z</time>
      </trkpt>
      <trkpt lat="44.09017" lon="7.06756">
        <ele>879.8</ele>
        <time>2022-06-11T10:38:36Z</time>
      </trkpt>
      <trkpt lat="44.09016" lon="7.06753">
        <ele>879.4</ele>
        <time>2022-06-11T10:38:37Z</time>
      </trkpt>
      <trkpt lat="44.09016" lon="7.0675">
        <ele>879.3</ele>
        <time>2022-06-11T10:38:38Z</time>
      </trkpt>
      <trkpt lat="44.09016" lon="7.06747">
        <ele>879.4</ele>
        <time>2022-06-11T10:38:39Z</time>
      </trkpt>
      <trkpt lat="44.09015" lon="7.06744">
        <ele>879.6</ele>
        <time>2022-06-11T10:38:40Z</time>
      </trkpt>
      <trkpt lat="44.09015" lon="7.06741">
        <ele>879.9</ele>
        <time>2022-06-11T10:38:41Z</time>
      </trkpt>
      <trkpt lat="44.09015" lon="7.06738">
        <ele>880.4</ele>
        <time>2022-06-11T10:38:42Z</time>
      </trkpt>
      <trkpt lat="44.09015" lon="7.06735">
        <ele>880.9</ele>
        <time>2022-06-11T10:38:43Z</time>
      </trkpt>
      <trkpt lat="44.09015" lon="7.06731">
        <ele>881.4</ele>
        <time>2022-06-11T10:38:44Z</time>
      </trkpt>
      <trkpt lat="44.09015" lon="7.06728">
        <ele>881.6</ele>
        <time>2022-06-11T10:38:45Z</time>
      </trkpt>
      <trkpt lat="44.09015" lon="7.06725">
        <ele>881.8</ele>
        <time>2022-06-11T10:38:46Z</time>
      </trkpt>
      <trkpt lat="44.09014" lon="7.06721">
        <ele>882</ele>
        <time>2022-06-11T10:38:47Z</time>
      </trkpt>
      <trkpt lat="44.09014" lon="7.06718">
        <ele>883.2</ele>
        <time>2022-06-11T10:38:48Z</time>
      </trkpt>
      <trkpt lat="44.09014" lon="7.06715">
        <ele>884.1</ele>
        <time>2022-06-11T10:38:49Z</time>
      </trkpt>
      <trkpt lat="44.09015" lon="7.06713">
        <ele>885.4</ele>
        <time>2022-06-11T10:38:50Z</time>
      </trkpt>
      <trkpt lat="44.09016" lon="7.0671">
        <ele>887</ele>
        <time>2022-06-11T10:38:51Z</time>
      </trkpt>
      <trkpt lat="44.09016" lon="7.06707">
        <ele>888.2</ele>
        <time>2022-06-11T10:38:52Z</time>
      </trkpt>
      <trkpt lat="44.09016" lon="7.06705">
        <ele>889.3</ele>
        <time>2022-06-11T10:38:53Z</time>
      </trkpt>
      <trkpt lat="44.09017" lon="7.06702">
        <ele>890.4</ele>
        <time>2022-06-11T10:38:54Z</time>
      </trkpt>
      <trkpt lat="44.09017" lon="7.067">
        <ele>891.5</ele>
        <time>2022-06-11T10:38:55Z</time>
      </trkpt>
      <trkpt lat="44.09018" lon="7.06698">
        <ele>892.8</ele>
        <time>2022-06-11T10:38:56Z</time>
      </trkpt>
      <trkpt lat="44.09018" lon="7.06696">
        <ele>893.6</ele>
        <time>2022-06-11T10:38:57Z</time>
      </trkpt>
      <trkpt lat="44.09017" lon="7.06693">
        <ele>893.9</ele>
        <time>2022-06-11T10:38:58Z</time>
      </trkpt>
      <trkpt lat="44.09017" lon="7.06693">
        <ele>893.9</ele>
        <time>2022-06-11T10:38:59Z</time>
      </trkpt>
      <trkpt lat="44.09017" lon="7.06693">
        <ele>893.9</ele>
        <time>2022-06-11T10:39:00Z</time>
      </trkpt>
      <trkpt lat="44.09017" lon="7.06693">
        <ele>893.9</ele>
        <time>2022-06-11T10:39:01Z</time>
      </trkpt>
      <trkpt lat="44.09017" lon="7.06693">
        <ele>893.9</ele>
        <time>2022-06-11T10:39:02Z</time>
      </trkpt>
      <trkpt lat="44.09017" lon="7.06693">
        <ele>893.9</ele>
        <time>2022-06-11T10:39:03Z</time>
      </trkpt>
      <trkpt lat="44.09017" lon="7.06693">
        <ele>893.9</ele>
        <time>2022-06-11T10:39:04Z</time>
      </trkpt>
      <trkpt lat="44.09017" lon="7.06693">
        <ele>893.9</ele>
        <time>2022-06-11T10:39:05Z</time>
      </trkpt>
      <trkpt lat="44.09017" lon="7.06693">
        <ele>893.9</ele>
        <time>2022-06-11T10:39:06Z</time>
      </trkpt>
      <trkpt lat="44.09017" lon="7.06693">
        <ele>893.9</ele>
        <time>2022-06-11T10:39:07Z</time>
      </trkpt>
      <trkpt lat="44.09017" lon="7.06693">
        <ele>893.9</ele>
        <time>2022-06-11T10:39:08Z</time>
      </trkpt>
      <trkpt lat="44.09017" lon="7.06693">
        <ele>893.9</ele>
        <time>2022-06-11T10:39:09Z</time>
      </trkpt>
      <trkpt lat="44.09017" lon="7.06693">
        <ele>893.9</ele>
        <time>2022-06-11T10:39:10Z</time>
      </trkpt>
      <trkpt lat="44.09017" lon="7.06693">
        <ele>893.9</ele>
        <time>2022-06-11T10:39:11Z</time>
      </trkpt>
      <trkpt lat="44.09017" lon="7.06693">
        <ele>893.9</ele>
        <time>2022-06-11T10:39:12Z</time>
      </trkpt>
      <trkpt lat="44.09017" lon="7.06693">
        <ele>893.9</ele>
        <time>2022-06-11T10:39:13Z</time>
      </trkpt>
      <trkpt lat="44.09017" lon="7.06693">
        <ele>893.9</ele>
        <time>2022-06-11T10:39:14Z</time>
      </trkpt>
      <trkpt lat="44.09017" lon="7.06693">
        <ele>893.9</ele>
        <time>2022-06-11T10:39:15Z</time>
      </trkpt>
      <trkpt lat="44.09017" lon="7.06693">
        <ele>893.9</ele>
        <time>2022-06-11T10:39:16Z</time>
      </trkpt>
      <trkpt lat="44.09017" lon="7.06693">
        <ele>893.9</ele>
        <time>2022-06-11T10:39:17Z</time>
      </trkpt>
      <trkpt lat="44.09017" lon="7.06693">
        <ele>893.9</ele>
        <time>2022-06-11T10:39:18Z</time>
      </trkpt>
      <trkpt lat="44.09017" lon="7.06693">
        <ele>893.9</ele>
        <time>2022-06-11T10:39:19Z</time>
      </trkpt>
      <trkpt lat="44.09017" lon="7.06693">
        <ele>893.9</ele>
        <time>2022-06-11T10:39:20Z</time>
      </trkpt>
      <trkpt lat="44.09017" lon="7.06693">
        <ele>893.9</ele>
        <time>2022-06-11T10:39:21Z</time>
      </trkpt>
      <trkpt lat="44.09017" lon="7.06693">
        <ele>893.9</ele>
        <time>2022-06-11T10:39:22Z</time>
      </trkpt>
      <trkpt lat="44.09017" lon="7.06693">
        <ele>893.9</ele>
        <time>2022-06-11T10:39:23Z</time>
      </trkpt>
      <trkpt lat="44.09017" lon="7.06693">
        <ele>893.9</ele>
        <time>2022-06-11T10:39:24Z</time>
      </trkpt>
      <trkpt lat="44.09017" lon="7.06693">
        <ele>893.9</ele>
        <time>2022-06-11T10:39:25Z</time>
      </trkpt>
      <trkpt lat="44.09017" lon="7.06693">
        <ele>893.9</ele>
        <time>2022-06-11T10:39:26Z</time>
      </trkpt>
      <trkpt lat="44.09015" lon="7.06549">
        <ele>874.8</ele>
        <time>2022-06-11T10:39:27Z</time>
      </trkpt>
      <trkpt lat="44.09021" lon="7.06558">
        <ele>881.6</ele>
        <time>2022-06-11T10:39:28Z</time>
      </trkpt>
      <trkpt lat="44.09026" lon="7.06567">
        <ele>888.9</ele>
        <time>2022-06-11T10:39:29Z</time>
      </trkpt>
      <trkpt lat="44.09027" lon="7.06568">
        <ele>890.2</ele>
        <time>2022-06-11T10:39:30Z</time>
      </trkpt>
      <trkpt lat="44.09027" lon="7.06566">
        <ele>890.2</ele>
        <time>2022-06-11T10:39:31Z</time>
      </trkpt>
      <trkpt lat="44.09028" lon="7.06567">
        <ele>891.5</ele>
        <time>2022-06-11T10:39:32Z</time>
      </trkpt>
      <trkpt lat="44.0903" lon="7.06569">
        <ele>894.5</ele>
        <time>2022-06-11T10:39:33Z</time>
      </trkpt>
      <trkpt lat="44.0903" lon="7.06568">
        <ele>894.2</ele>
        <time>2022-06-11T10:39:34Z</time>
      </trkpt>
      <trkpt lat="44.09031" lon="7.0657">
        <ele>895.2</ele>
        <time>2022-06-11T10:39:35Z</time>
      </trkpt>
      <trkpt lat="44.0903" lon="7.06569">
        <ele>894.3</ele>
        <time>2022-06-11T10:39:36Z</time>
      </trkpt>
      <trkpt lat="44.09029" lon="7.06567">
        <ele>893.2</ele>
        <time>2022-06-11T10:39:37Z</time>
      </trkpt>
      <trkpt lat="44.09029" lon="7.06565">
        <ele>892.6</ele>
        <time>2022-06-11T10:39:38Z</time>
      </trkpt>
      <trkpt lat="44.09029" lon="7.06563">
        <ele>891.7</ele>
        <time>2022-06-11T10:39:39Z</time>
      </trkpt>
      <trkpt lat="44.09028" lon="7.06561">
        <ele>890.8</ele>
        <time>2022-06-11T10:39:40Z</time>
      </trkpt>
      <trkpt lat="44.09028" lon="7.06559">
        <ele>890</ele>
        <time>2022-06-11T10:39:41Z</time>
      </trkpt>
      <trkpt lat="44.09027" lon="7.06557">
        <ele>889.5</ele>
        <time>2022-06-11T10:39:42Z</time>
      </trkpt>
      <trkpt lat="44.09027" lon="7.06554">
        <ele>889</ele>
        <time>2022-06-11T10:39:43Z</time>
      </trkpt>
      <trkpt lat="44.09026" lon="7.06551">
        <ele>887.9</ele>
        <time>2022-06-11T10:39:44Z</time>
      </trkpt>
      <trkpt lat="44.09026" lon="7.06548">
        <ele>887.1</ele>
        <time>2022-06-11T10:39:45Z</time>
      </trkpt>
      <trkpt lat="44.09026" lon="7.06546">
        <ele>886.7</ele>
        <time>2022-06-11T10:39:46Z</time>
      </trkpt>
      <trkpt lat="44.09026" lon="7.06543">
        <ele>886.8</ele>
        <time>2022-06-11T10:39:47Z</time>
      </trkpt>
      <trkpt lat="44.09026" lon="7.0654">
        <ele>886.8</ele>
        <time>2022-06-11T10:39:48Z</time>
      </trkpt>
      <trkpt lat="44.09026" lon="7.06536">
        <ele>886.1</ele>
        <time>2022-06-11T10:39:49Z</time>
      </trkpt>
      <trkpt lat="44.09026" lon="7.06533">
        <ele>886.1</ele>
        <time>2022-06-11T10:39:50Z</time>
      </trkpt>
      <trkpt lat="44.09026" lon="7.0653">
        <ele>886.2</ele>
        <time>2022-06-11T10:39:51Z</time>
      </trkpt>
      <trkpt lat="44.09027" lon="7.06527">
        <ele>886.5</ele>
        <time>2022-06-11T10:39:52Z</time>
      </trkpt>
      <trkpt lat="44.09027" lon="7.06525">
        <ele>886.9</ele>
        <time>2022-06-11T10:39:53Z</time>
      </trkpt>
      <trkpt lat="44.09028" lon="7.06522">
        <ele>887.3</ele>
        <time>2022-06-11T10:39:54Z</time>
      </trkpt>
      <trkpt lat="44.09029" lon="7.06519">
        <ele>888</ele>
        <time>2022-06-11T10:39:55Z</time>
      </trkpt>
      <trkpt lat="44.0903" lon="7.06516">
        <ele>888.9</ele>
        <time>2022-06-11T10:39:56Z</time>
      </trkpt>
      <trkpt lat="44.09031" lon="7.06514">
        <ele>890</ele>
        <time>2022-06-11T10:39:57Z</time>
      </trkpt>
      <trkpt lat="44.09033" lon="7.06511">
        <ele>891.1</ele>
        <time>2022-06-11T10:39:58Z</time>
      </trkpt>
      <trkpt lat="44.09034" lon="7.06509">
        <ele>892.5</ele>
        <time>2022-06-11T10:39:59Z</time>
      </trkpt>
      <trkpt lat="44.09035" lon="7.06506">
        <ele>893</ele>
        <time>2022-06-11T10:40:00Z</time>
      </trkpt>
      <trkpt lat="44.09036" lon="7.06504">
        <ele>894</ele>
        <time>2022-06-11T10:40:01Z</time>
      </trkpt>
      <trkpt lat="44.09037" lon="7.06501">
        <ele>895.2</ele>
        <time>2022-06-11T10:40:02Z</time>
      </trkpt>
      <trkpt lat="44.09039" lon="7.06498">
        <ele>896.3</ele>
        <time>2022-06-11T10:40:03Z</time>
      </trkpt>
      <trkpt lat="44.0904" lon="7.06496">
        <ele>897.7</ele>
        <time>2022-06-11T10:40:04Z</time>
      </trkpt>
      <trkpt lat="44.09041" lon="7.06494">
        <ele>898.8</ele>
        <time>2022-06-11T10:40:05Z</time>
      </trkpt>
      <trkpt lat="44.09042" lon="7.06491">
        <ele>899.5</ele>
        <time>2022-06-11T10:40:06Z</time>
      </trkpt>
      <trkpt lat="44.09043" lon="7.06488">
        <ele>900.3</ele>
        <time>2022-06-11T10:40:07Z</time>
      </trkpt>
      <trkpt lat="44.09044" lon="7.06485">
        <ele>901</ele>
        <time>2022-06-11T10:40:08Z</time>
      </trkpt>
      <trkpt lat="44.09044" lon="7.06481">
        <ele>901.4</ele>
        <time>2022-06-11T10:40:09Z</time>
      </trkpt>
      <trkpt lat="44.09045" lon="7.06478">
        <ele>902.2</ele>
        <time>2022-06-11T10:40:10Z</time>
      </trkpt>
      <trkpt lat="44.09047" lon="7.06476">
        <ele>903.5</ele>
        <time>2022-06-11T10:40:11Z</time>
      </trkpt>
      <trkpt lat="44.09048" lon="7.06473">
        <ele>904.7</ele>
        <time>2022-06-11T10:40:12Z</time>
      </trkpt>
      <trkpt lat="44.09049" lon="7.06471">
        <ele>905.8</ele>
        <time>2022-06-11T10:40:13Z</time>
      </trkpt>
      <trkpt lat="44.0905" lon="7.06468">
        <ele>906.9</ele>
        <time>2022-06-11T10:40:14Z</time>
      </trkpt>
      <trkpt lat="44.09051" lon="7.06465">
        <ele>908.1</ele>
        <time>2022-06-11T10:40:15Z</time>
      </trkpt>
      <trkpt lat="44.09051" lon="7.06462">
        <ele>908.9</ele>
        <time>2022-06-11T10:40:16Z</time>
      </trkpt>
      <trkpt lat="44.09052" lon="7.06459">
        <ele>909.6</ele>
        <time>2022-06-11T10:40:17Z</time>
      </trkpt>
      <trkpt lat="44.09052" lon="7.06456">
        <ele>909.8</ele>
        <time>2022-06-11T10:40:18Z</time>
      </trkpt>
      <trkpt lat="44.09052" lon="7.06454">
        <ele>910.5</ele>
        <time>2022-06-11T10:40:19Z</time>
      </trkpt>
      <trkpt lat="44.09053" lon="7.06451">
        <ele>911.1</ele>
        <time>2022-06-11T10:40:20Z</time>
      </trkpt>
      <trkpt lat="44.09053" lon="7.06448">
        <ele>911.8</ele>
        <time>2022-06-11T10:40:21Z</time>
      </trkpt>
      <trkpt lat="44.09054" lon="7.06445">
        <ele>912.5</ele>
        <time>2022-06-11T10:40:22Z</time>
      </trkpt>
      <trkpt lat="44.09054" lon="7.06442">
        <ele>913.4</ele>
        <time>2022-06-11T10:40:23Z</time>
      </trkpt>
      <trkpt lat="44.09055" lon="7.0644">
        <ele>914.5</ele>
        <time>2022-06-11T10:40:24Z</time>
      </trkpt>
      <trkpt lat="44.09055" lon="7.06436">
        <ele>914.8</ele>
        <time>2022-06-11T10:40:25Z</time>
      </trkpt>
      <trkpt lat="44.09056" lon="7.06433">
        <ele>915.3</ele>
        <time>2022-06-11T10:40:26Z</time>
      </trkpt>
      <trkpt lat="44.09056" lon="7.06431">
        <ele>916</ele>
        <time>2022-06-11T10:40:27Z</time>
      </trkpt>
      <trkpt lat="44.09057" lon="7.06428">
        <ele>916.6</ele>
        <time>2022-06-11T10:40:28Z</time>
      </trkpt>
      <trkpt lat="44.09057" lon="7.06425">
        <ele>916.9</ele>
        <time>2022-06-11T10:40:29Z</time>
      </trkpt>
      <trkpt lat="44.09057" lon="7.06422">
        <ele>916.9</ele>
        <time>2022-06-11T10:40:30Z</time>
      </trkpt>
      <trkpt lat="44.09057" lon="7.06419">
        <ele>917.5</ele>
        <time>2022-06-11T10:40:31Z</time>
      </trkpt>
      <trkpt lat="44.09058" lon="7.06417">
        <ele>918.2</ele>
        <time>2022-06-11T10:40:32Z</time>
      </trkpt>
      <trkpt lat="44.09059" lon="7.06415">
        <ele>919.3</ele>
        <time>2022-06-11T10:40:33Z</time>
      </trkpt>
      <trkpt lat="44.09059" lon="7.06412">
        <ele>920.8</ele>
        <time>2022-06-11T10:40:34Z</time>
      </trkpt>
      <trkpt lat="44.0906" lon="7.06409">
        <ele>922.1</ele>
        <time>2022-06-11T10:40:35Z</time>
      </trkpt>
      <trkpt lat="44.0906" lon="7.06407">
        <ele>923.1</ele>
        <time>2022-06-11T10:40:36Z</time>
      </trkpt>
      <trkpt lat="44.09061" lon="7.06404">
        <ele>924.3</ele>
        <time>2022-06-11T10:40:37Z</time>
      </trkpt>
      <trkpt lat="44.09062" lon="7.06401">
        <ele>925.6</ele>
        <time>2022-06-11T10:40:38Z</time>
      </trkpt>
      <trkpt lat="44.09062" lon="7.06398">
        <ele>926.5</ele>
        <time>2022-06-11T10:40:39Z</time>
      </trkpt>
      <trkpt lat="44.09062" lon="7.06395">
        <ele>927.6</ele>
        <time>2022-06-11T10:40:40Z</time>
      </trkpt>
      <trkpt lat="44.09062" lon="7.06392">
        <ele>928.7</ele>
        <time>2022-06-11T10:40:41Z</time>
      </trkpt>
      <trkpt lat="44.09062" lon="7.06389">
        <ele>929.4</ele>
        <time>2022-06-11T10:40:42Z</time>
      </trkpt>
      <trkpt lat="44.09062" lon="7.06387">
        <ele>930.1</ele>
        <time>2022-06-11T10:40:43Z</time>
      </trkpt>
      <trkpt lat="44.09062" lon="7.06385">
        <ele>930.6</ele>
        <time>2022-06-11T10:40:44Z</time>
      </trkpt>
      <trkpt lat="44.09063" lon="7.06383">
        <ele>931.7</ele>
        <time>2022-06-11T10:40:45Z</time>
      </trkpt>
      <trkpt lat="44.09064" lon="7.06379">
        <ele>933</ele>
        <time>2022-06-11T10:40:46Z</time>
      </trkpt>
      <trkpt lat="44.09064" lon="7.06379">
        <ele>933</ele>
        <time>2022-06-11T10:40:47Z</time>
      </trkpt>
      <trkpt lat="44.09065" lon="7.06374">
        <ele>935.1</ele>
        <time>2022-06-11T10:40:48Z</time>
      </trkpt>
      <trkpt lat="44.09065" lon="7.06374">
        <ele>935.1</ele>
        <time>2022-06-11T10:40:49Z</time>
      </trkpt>
      <trkpt lat="44.09065" lon="7.06374">
        <ele>935.1</ele>
        <time>2022-06-11T10:40:50Z</time>
      </trkpt>
      <trkpt lat="44.09065" lon="7.06374">
        <ele>935.1</ele>
        <time>2022-06-11T10:40:51Z</time>
      </trkpt>
      <trkpt lat="44.09065" lon="7.06374">
        <ele>935.1</ele>
        <time>2022-06-11T10:40:52Z</time>
      </trkpt>
      <trkpt lat="44.09065" lon="7.06374">
        <ele>935.1</ele>
        <time>2022-06-11T10:40:53Z</time>
      </trkpt>
      <trkpt lat="44.09065" lon="7.06374">
        <ele>935.1</ele>
        <time>2022-06-11T10:40:54Z</time>
      </trkpt>
      <trkpt lat="44.09065" lon="7.06374">
        <ele>935.1</ele>
        <time>2022-06-11T10:40:55Z</time>
      </trkpt>
      <trkpt lat="44.09065" lon="7.06374">
        <ele>935.1</ele>
        <time>2022-06-11T10:40:56Z</time>
      </trkpt>
      <trkpt lat="44.09065" lon="7.06374">
        <ele>935.1</ele>
        <time>2022-06-11T10:40:57Z</time>
      </trkpt>
      <trkpt lat="44.09065" lon="7.06374">
        <ele>935.1</ele>
        <time>2022-06-11T10:40:58Z</time>
      </trkpt>
      <trkpt lat="44.09065" lon="7.06374">
        <ele>935.1</ele>
        <time>2022-06-11T10:40:59Z</time>
      </trkpt>
      <trkpt lat="44.09065" lon="7.06374">
        <ele>935.1</ele>
        <time>2022-06-11T10:41:00Z</time>
      </trkpt>
      <trkpt lat="44.09065" lon="7.06374">
        <ele>935.1</ele>
        <time>2022-06-11T10:41:01Z</time>
      </trkpt>
      <trkpt lat="44.09073" lon="7.0633">
        <ele>935.5</ele>
        <time>2022-06-11T10:41:02Z</time>
      </trkpt>
      <trkpt lat="44.09075" lon="7.06327">
        <ele>934.7</ele>
        <time>2022-06-11T10:41:03Z</time>
      </trkpt>
      <trkpt lat="44.09078" lon="7.06327">
        <ele>936.1</ele>
        <time>2022-06-11T10:41:04Z</time>
      </trkpt>
      <trkpt lat="44.0908" lon="7.06326">
        <ele>936.7</ele>
        <time>2022-06-11T10:41:05Z</time>
      </trkpt>
      <trkpt lat="44.09083" lon="7.06323">
        <ele>935.6</ele>
        <time>2022-06-11T10:41:06Z</time>
      </trkpt>
      <trkpt lat="44.09085" lon="7.06322">
        <ele>936.1</ele>
        <time>2022-06-11T10:41:07Z</time>
      </trkpt>
      <trkpt lat="44.09086" lon="7.0632">
        <ele>935</ele>
        <time>2022-06-11T10:41:08Z</time>
      </trkpt>
      <trkpt lat="44.09088" lon="7.06318">
        <ele>934.5</ele>
        <time>2022-06-11T10:41:09Z</time>
      </trkpt>
      <trkpt lat="44.0909" lon="7.06315">
        <ele>933.6</ele>
        <time>2022-06-11T10:41:10Z</time>
      </trkpt>
      <trkpt lat="44.09092" lon="7.06314">
        <ele>933.4</ele>
        <time>2022-06-11T10:41:11Z</time>
      </trkpt>
      <trkpt lat="44.09094" lon="7.06312">
        <ele>933.2</ele>
        <time>2022-06-11T10:41:12Z</time>
      </trkpt>
      <trkpt lat="44.09096" lon="7.06311">
        <ele>933.1</ele>
        <time>2022-06-11T10:41:13Z</time>
      </trkpt>
      <trkpt lat="44.09098" lon="7.0631">
        <ele>933.1</ele>
        <time>2022-06-11T10:41:14Z</time>
      </trkpt>
      <trkpt lat="44.09099" lon="7.06307">
        <ele>931.7</ele>
        <time>2022-06-11T10:41:15Z</time>
      </trkpt>
      <trkpt lat="44.09101" lon="7.06304">
        <ele>931.1</ele>
        <time>2022-06-11T10:41:16Z</time>
      </trkpt>
      <trkpt lat="44.09103" lon="7.06303">
        <ele>931</ele>
        <time>2022-06-11T10:41:17Z</time>
      </trkpt>
      <trkpt lat="44.09104" lon="7.06301">
        <ele>930.7</ele>
        <time>2022-06-11T10:41:18Z</time>
      </trkpt>
      <trkpt lat="44.09106" lon="7.063">
        <ele>931.2</ele>
        <time>2022-06-11T10:41:19Z</time>
      </trkpt>
      <trkpt lat="44.09107" lon="7.06298">
        <ele>930.9</ele>
        <time>2022-06-11T10:41:20Z</time>
      </trkpt>
      <trkpt lat="44.09109" lon="7.06295">
        <ele>930.6</ele>
        <time>2022-06-11T10:41:21Z</time>
      </trkpt>
      <trkpt lat="44.0911" lon="7.06293">
        <ele>930.4</ele>
        <time>2022-06-11T10:41:22Z</time>
      </trkpt>
      <trkpt lat="44.09111" lon="7.0629">
        <ele>930.1</ele>
        <time>2022-06-11T10:41:23Z</time>
      </trkpt>
      <trkpt lat="44.09113" lon="7.06288">
        <ele>930.5</ele>
        <time>2022-06-11T10:41:24Z</time>
      </trkpt>
      <trkpt lat="44.09114" lon="7.06286">
        <ele>930.6</ele>
        <time>2022-06-11T10:41:25Z</time>
      </trkpt>
      <trkpt lat="44.09115" lon="7.06283">
        <ele>930.7</ele>
        <time>2022-06-11T10:41:26Z</time>
      </trkpt>
      <trkpt lat="44.09117" lon="7.06281">
        <ele>930.8</ele>
        <time>2022-06-11T10:41:27Z</time>
      </trkpt>
      <trkpt lat="44.09118" lon="7.06278">
        <ele>930.8</ele>
        <time>2022-06-11T10:41:28Z</time>
      </trkpt>
      <trkpt lat="44.09119" lon="7.06276">
        <ele>931.3</ele>
        <time>2022-06-11T10:41:29Z</time>
      </trkpt>
      <trkpt lat="44.0912" lon="7.06273">
        <ele>931.3</ele>
        <time>2022-06-11T10:41:30Z</time>
      </trkpt>
      <trkpt lat="44.09121" lon="7.0627">
        <ele>931.3</ele>
        <time>2022-06-11T10:41:31Z</time>
      </trkpt>
      <trkpt lat="44.09122" lon="7.06267">
        <ele>931.3</ele>
        <time>2022-06-11T10:41:32Z</time>
      </trkpt>
      <trkpt lat="44.09123" lon="7.06265">
        <ele>931.3</ele>
        <time>2022-06-11T10:41:33Z</time>
      </trkpt>
      <trkpt lat="44.09124" lon="7.06262">
        <ele>931.3</ele>
        <time>2022-06-11T10:41:34Z</time>
      </trkpt>
      <trkpt lat="44.09126" lon="7.0626">
        <ele>931.5</ele>
        <time>2022-06-11T10:41:35Z</time>
      </trkpt>
      <trkpt lat="44.09127" lon="7.06257">
        <ele>931.7</ele>
        <time>2022-06-11T10:41:36Z</time>
      </trkpt>
      <trkpt lat="44.09128" lon="7.06255">
        <ele>931.6</ele>
        <time>2022-06-11T10:41:37Z</time>
      </trkpt>
      <trkpt lat="44.0913" lon="7.06252">
        <ele>931.8</ele>
        <time>2022-06-11T10:41:38Z</time>
      </trkpt>
      <trkpt lat="44.09131" lon="7.0625">
        <ele>932</ele>
        <time>2022-06-11T10:41:39Z</time>
      </trkpt>
      <trkpt lat="44.09132" lon="7.06247">
        <ele>931.8</ele>
        <time>2022-06-11T10:41:40Z</time>
      </trkpt>
      <trkpt lat="44.09134" lon="7.06245">
        <ele>931.7</ele>
        <time>2022-06-11T10:41:41Z</time>
      </trkpt>
      <trkpt lat="44.09135" lon="7.06243">
        <ele>931.6</ele>
        <time>2022-06-11T10:41:42Z</time>
      </trkpt>
      <trkpt lat="44.09138" lon="7.06242">
        <ele>932.6</ele>
        <time>2022-06-11T10:41:43Z</time>
      </trkpt>
      <trkpt lat="44.09139" lon="7.0624">
        <ele>932.4</ele>
        <time>2022-06-11T10:41:44Z</time>
      </trkpt>
      <trkpt lat="44.09141" lon="7.06239">
        <ele>933.1</ele>
        <time>2022-06-11T10:41:45Z</time>
      </trkpt>
      <trkpt lat="44.09143" lon="7.06237">
        <ele>933.4</ele>
        <time>2022-06-11T10:41:46Z</time>
      </trkpt>
      <trkpt lat="44.09144" lon="7.06236">
        <ele>933.9</ele>
        <time>2022-06-11T10:41:47Z</time>
      </trkpt>
      <trkpt lat="44.09146" lon="7.06234">
        <ele>934</ele>
        <time>2022-06-11T10:41:48Z</time>
      </trkpt>
      <trkpt lat="44.09148" lon="7.06232">
        <ele>934</ele>
        <time>2022-06-11T10:41:49Z</time>
      </trkpt>
      <trkpt lat="44.09149" lon="7.0623">
        <ele>933.8</ele>
        <time>2022-06-11T10:41:50Z</time>
      </trkpt>
      <trkpt lat="44.09151" lon="7.06228">
        <ele>933.9</ele>
        <time>2022-06-11T10:41:51Z</time>
      </trkpt>
      <trkpt lat="44.09153" lon="7.06225">
        <ele>933.9</ele>
        <time>2022-06-11T10:41:52Z</time>
      </trkpt>
      <trkpt lat="44.09154" lon="7.06224">
        <ele>934</ele>
        <time>2022-06-11T10:41:53Z</time>
      </trkpt>
      <trkpt lat="44.09156" lon="7.06221">
        <ele>933.8</ele>
        <time>2022-06-11T10:41:54Z</time>
      </trkpt>
      <trkpt lat="44.09158" lon="7.06219">
        <ele>933.4</ele>
        <time>2022-06-11T10:41:55Z</time>
      </trkpt>
      <trkpt lat="44.09159" lon="7.06216">
        <ele>932.5</ele>
        <time>2022-06-11T10:41:56Z</time>
      </trkpt>
      <trkpt lat="44.09161" lon="7.06215">
        <ele>932.8</ele>
        <time>2022-06-11T10:41:57Z</time>
      </trkpt>
      <trkpt lat="44.09163" lon="7.06213">
        <ele>932.4</ele>
        <time>2022-06-11T10:41:58Z</time>
      </trkpt>
      <trkpt lat="44.09164" lon="7.0621">
        <ele>932.1</ele>
        <time>2022-06-11T10:41:59Z</time>
      </trkpt>
      <trkpt lat="44.09166" lon="7.06209">
        <ele>932.2</ele>
        <time>2022-06-11T10:42:00Z</time>
      </trkpt>
      <trkpt lat="44.09168" lon="7.06207">
        <ele>931.9</ele>
        <time>2022-06-11T10:42:01Z</time>
      </trkpt>
      <trkpt lat="44.09169" lon="7.06205">
        <ele>931.6</ele>
        <time>2022-06-11T10:42:02Z</time>
      </trkpt>
      <trkpt lat="44.09171" lon="7.06203">
        <ele>931.9</ele>
        <time>2022-06-11T10:42:03Z</time>
      </trkpt>
      <trkpt lat="44.09173" lon="7.06202">
        <ele>932</ele>
        <time>2022-06-11T10:42:04Z</time>
      </trkpt>
      <trkpt lat="44.09175" lon="7.062">
        <ele>932</ele>
        <time>2022-06-11T10:42:05Z</time>
      </trkpt>
      <trkpt lat="44.09176" lon="7.06197">
        <ele>931.8</ele>
        <time>2022-06-11T10:42:06Z</time>
      </trkpt>
      <trkpt lat="44.09178" lon="7.06196">
        <ele>932</ele>
        <time>2022-06-11T10:42:07Z</time>
      </trkpt>
      <trkpt lat="44.09179" lon="7.06194">
        <ele>931.9</ele>
        <time>2022-06-11T10:42:08Z</time>
      </trkpt>
      <trkpt lat="44.09181" lon="7.06192">
        <ele>932.3</ele>
        <time>2022-06-11T10:42:09Z</time>
      </trkpt>
      <trkpt lat="44.09183" lon="7.0619">
        <ele>932.4</ele>
        <time>2022-06-11T10:42:10Z</time>
      </trkpt>
      <trkpt lat="44.09185" lon="7.06189">
        <ele>932.6</ele>
        <time>2022-06-11T10:42:11Z</time>
      </trkpt>
      <trkpt lat="44.09186" lon="7.06187">
        <ele>933</ele>
        <time>2022-06-11T10:42:12Z</time>
      </trkpt>
      <trkpt lat="44.09188" lon="7.06185">
        <ele>933.4</ele>
        <time>2022-06-11T10:42:13Z</time>
      </trkpt>
      <trkpt lat="44.0919" lon="7.06184">
        <ele>933.8</ele>
        <time>2022-06-11T10:42:14Z</time>
      </trkpt>
      <trkpt lat="44.09192" lon="7.06182">
        <ele>934.3</ele>
        <time>2022-06-11T10:42:15Z</time>
      </trkpt>
      <trkpt lat="44.09194" lon="7.06181">
        <ele>934.8</ele>
        <time>2022-06-11T10:42:16Z</time>
      </trkpt>
      <trkpt lat="44.09196" lon="7.0618">
        <ele>935.4</ele>
        <time>2022-06-11T10:42:17Z</time>
      </trkpt>
      <trkpt lat="44.09198" lon="7.06178">
        <ele>936</ele>
        <time>2022-06-11T10:42:18Z</time>
      </trkpt>
      <trkpt lat="44.09199" lon="7.06177">
        <ele>936.4</ele>
        <time>2022-06-11T10:42:19Z</time>
      </trkpt>
      <trkpt lat="44.09201" lon="7.06175">
        <ele>936.9</ele>
        <time>2022-06-11T10:42:20Z</time>
      </trkpt>
      <trkpt lat="44.09203" lon="7.06174">
        <ele>937.2</ele>
        <time>2022-06-11T10:42:21Z</time>
      </trkpt>
      <trkpt lat="44.09205" lon="7.06172">
        <ele>937.8</ele>
        <time>2022-06-11T10:42:22Z</time>
      </trkpt>
      <trkpt lat="44.09206" lon="7.0617">
        <ele>938.1</ele>
        <time>2022-06-11T10:42:23Z</time>
      </trkpt>
      <trkpt lat="44.09208" lon="7.06168">
        <ele>937.8</ele>
        <time>2022-06-11T10:42:24Z</time>
      </trkpt>
      <trkpt lat="44.09209" lon="7.06164">
        <ele>937.3</ele>
        <time>2022-06-11T10:42:25Z</time>
      </trkpt>
      <trkpt lat="44.0921" lon="7.06161">
        <ele>936.9</ele>
        <time>2022-06-11T10:42:26Z</time>
      </trkpt>
      <trkpt lat="44.09211" lon="7.06159">
        <ele>937.2</ele>
        <time>2022-06-11T10:42:27Z</time>
      </trkpt>
      <trkpt lat="44.09213" lon="7.06156">
        <ele>937.2</ele>
        <time>2022-06-11T10:42:28Z</time>
      </trkpt>
      <trkpt lat="44.09215" lon="7.06154">
        <ele>937.7</ele>
        <time>2022-06-11T10:42:29Z</time>
      </trkpt>
      <trkpt lat="44.09216" lon="7.06152">
        <ele>937.8</ele>
        <time>2022-06-11T10:42:30Z</time>
      </trkpt>
      <trkpt lat="44.09217" lon="7.0615">
        <ele>937.6</ele>
        <time>2022-06-11T10:42:31Z</time>
      </trkpt>
      <trkpt lat="44.09219" lon="7.06147">
        <ele>937.7</ele>
        <time>2022-06-11T10:42:32Z</time>
      </trkpt>
      <trkpt lat="44.0922" lon="7.06145">
        <ele>937.6</ele>
        <time>2022-06-11T10:42:33Z</time>
      </trkpt>
      <trkpt lat="44.09221" lon="7.06142">
        <ele>937.7</ele>
        <time>2022-06-11T10:42:34Z</time>
      </trkpt>
      <trkpt lat="44.09222" lon="7.0614">
        <ele>937.3</ele>
        <time>2022-06-11T10:42:35Z</time>
      </trkpt>
      <trkpt lat="44.09223" lon="7.06137">
        <ele>937.1</ele>
        <time>2022-06-11T10:42:36Z</time>
      </trkpt>
      <trkpt lat="44.09225" lon="7.06135">
        <ele>937.4</ele>
        <time>2022-06-11T10:42:37Z</time>
      </trkpt>
      <trkpt lat="44.09226" lon="7.06133">
        <ele>937.6</ele>
        <time>2022-06-11T10:42:38Z</time>
      </trkpt>
      <trkpt lat="44.09228" lon="7.06131">
        <ele>938.2</ele>
        <time>2022-06-11T10:42:39Z</time>
      </trkpt>
      <trkpt lat="44.0923" lon="7.06129">
        <ele>938.8</ele>
        <time>2022-06-11T10:42:40Z</time>
      </trkpt>
      <trkpt lat="44.09231" lon="7.06127">
        <ele>939.3</ele>
        <time>2022-06-11T10:42:41Z</time>
      </trkpt>
      <trkpt lat="44.09233" lon="7.06125">
        <ele>939.6</ele>
        <time>2022-06-11T10:42:42Z</time>
      </trkpt>
      <trkpt lat="44.09234" lon="7.06123">
        <ele>939.9</ele>
        <time>2022-06-11T10:42:43Z</time>
      </trkpt>
      <trkpt lat="44.09235" lon="7.06121">
        <ele>939.8</ele>
        <time>2022-06-11T10:42:44Z</time>
      </trkpt>
      <trkpt lat="44.09236" lon="7.06118">
        <ele>939.7</ele>
        <time>2022-06-11T10:42:45Z</time>
      </trkpt>
      <trkpt lat="44.09238" lon="7.06115">
        <ele>939.6</ele>
        <time>2022-06-11T10:42:46Z</time>
      </trkpt>
      <trkpt lat="44.09239" lon="7.06113">
        <ele>939.5</ele>
        <time>2022-06-11T10:42:47Z</time>
      </trkpt>
      <trkpt lat="44.0924" lon="7.0611">
        <ele>939.5</ele>
        <time>2022-06-11T10:42:48Z</time>
      </trkpt>
      <trkpt lat="44.09242" lon="7.06108">
        <ele>939.5</ele>
        <time>2022-06-11T10:42:49Z</time>
      </trkpt>
      <trkpt lat="44.09243" lon="7.06105">
        <ele>939.5</ele>
        <time>2022-06-11T10:42:50Z</time>
      </trkpt>
      <trkpt lat="44.09244" lon="7.06102">
        <ele>938.9</ele>
        <time>2022-06-11T10:42:51Z</time>
      </trkpt>
      <trkpt lat="44.09245" lon="7.061">
        <ele>938.8</ele>
        <time>2022-06-11T10:42:52Z</time>
      </trkpt>
      <trkpt lat="44.09246" lon="7.06097">
        <ele>938.5</ele>
        <time>2022-06-11T10:42:53Z</time>
      </trkpt>
      <trkpt lat="44.09248" lon="7.06095">
        <ele>938.6</ele>
        <time>2022-06-11T10:42:54Z</time>
      </trkpt>
      <trkpt lat="44.0925" lon="7.06093">
        <ele>938.7</ele>
        <time>2022-06-11T10:42:55Z</time>
      </trkpt>
      <trkpt lat="44.09251" lon="7.0609">
        <ele>938.7</ele>
        <time>2022-06-11T10:42:56Z</time>
      </trkpt>
      <trkpt lat="44.09253" lon="7.06089">
        <ele>939.1</ele>
        <time>2022-06-11T10:42:57Z</time>
      </trkpt>
      <trkpt lat="44.09255" lon="7.06088">
        <ele>939.8</ele>
        <time>2022-06-11T10:42:58Z</time>
      </trkpt>
      <trkpt lat="44.09256" lon="7.06086">
        <ele>940.3</ele>
        <time>2022-06-11T10:42:59Z</time>
      </trkpt>
      <trkpt lat="44.09258" lon="7.06085">
        <ele>940.8</ele>
        <time>2022-06-11T10:43:00Z</time>
      </trkpt>
      <trkpt lat="44.0926" lon="7.06083">
        <ele>941.1</ele>
        <time>2022-06-11T10:43:01Z</time>
      </trkpt>
      <trkpt lat="44.09262" lon="7.06081">
        <ele>941.3</ele>
        <time>2022-06-11T10:43:02Z</time>
      </trkpt>
      <trkpt lat="44.09263" lon="7.06079">
        <ele>941.6</ele>
        <time>2022-06-11T10:43:03Z</time>
      </trkpt>
      <trkpt lat="44.09265" lon="7.06077">
        <ele>942</ele>
        <time>2022-06-11T10:43:04Z</time>
      </trkpt>
      <trkpt lat="44.09267" lon="7.06075">
        <ele>942.2</ele>
        <time>2022-06-11T10:43:05Z</time>
      </trkpt>
      <trkpt lat="44.09269" lon="7.06074">
        <ele>942.4</ele>
        <time>2022-06-11T10:43:06Z</time>
      </trkpt>
      <trkpt lat="44.0927" lon="7.06072">
        <ele>942.9</ele>
        <time>2022-06-11T10:43:07Z</time>
      </trkpt>
      <trkpt lat="44.09272" lon="7.06071">
        <ele>943.4</ele>
        <time>2022-06-11T10:43:08Z</time>
      </trkpt>
      <trkpt lat="44.09274" lon="7.06069">
        <ele>943.4</ele>
        <time>2022-06-11T10:43:09Z</time>
      </trkpt>
      <trkpt lat="44.09275" lon="7.06067">
        <ele>943.5</ele>
        <time>2022-06-11T10:43:10Z</time>
      </trkpt>
      <trkpt lat="44.09277" lon="7.06065">
        <ele>943.5</ele>
        <time>2022-06-11T10:43:11Z</time>
      </trkpt>
      <trkpt lat="44.09279" lon="7.06063">
        <ele>943.5</ele>
        <time>2022-06-11T10:43:12Z</time>
      </trkpt>
      <trkpt lat="44.09281" lon="7.06062">
        <ele>944</ele>
        <time>2022-06-11T10:43:13Z</time>
      </trkpt>
      <trkpt lat="44.09282" lon="7.0606">
        <ele>944.1</ele>
        <time>2022-06-11T10:43:14Z</time>
      </trkpt>
      <trkpt lat="44.09284" lon="7.06058">
        <ele>944.8</ele>
        <time>2022-06-11T10:43:15Z</time>
      </trkpt>
      <trkpt lat="44.09286" lon="7.06057">
        <ele>946</ele>
        <time>2022-06-11T10:43:16Z</time>
      </trkpt>
      <trkpt lat="44.09289" lon="7.06056">
        <ele>946.9</ele>
        <time>2022-06-11T10:43:17Z</time>
      </trkpt>
      <trkpt lat="44.09291" lon="7.06055">
        <ele>948</ele>
        <time>2022-06-11T10:43:18Z</time>
      </trkpt>
      <trkpt lat="44.09292" lon="7.06053">
        <ele>948.3</ele>
        <time>2022-06-11T10:43:19Z</time>
      </trkpt>
      <trkpt lat="44.09294" lon="7.06052">
        <ele>948.9</ele>
        <time>2022-06-11T10:43:20Z</time>
      </trkpt>
      <trkpt lat="44.09296" lon="7.0605">
        <ele>949.5</ele>
        <time>2022-06-11T10:43:21Z</time>
      </trkpt>
      <trkpt lat="44.09298" lon="7.06048">
        <ele>949.9</ele>
        <time>2022-06-11T10:43:22Z</time>
      </trkpt>
      <trkpt lat="44.09299" lon="7.06046">
        <ele>949.7</ele>
        <time>2022-06-11T10:43:23Z</time>
      </trkpt>
      <trkpt lat="44.09301" lon="7.06044">
        <ele>950.2</ele>
        <time>2022-06-11T10:43:24Z</time>
      </trkpt>
      <trkpt lat="44.09303" lon="7.06042">
        <ele>950.2</ele>
        <time>2022-06-11T10:43:25Z</time>
      </trkpt>
      <trkpt lat="44.09304" lon="7.0604">
        <ele>950.5</ele>
        <time>2022-06-11T10:43:26Z</time>
      </trkpt>
      <trkpt lat="44.09306" lon="7.06039">
        <ele>951</ele>
        <time>2022-06-11T10:43:27Z</time>
      </trkpt>
      <trkpt lat="44.09308" lon="7.06037">
        <ele>951.3</ele>
        <time>2022-06-11T10:43:28Z</time>
      </trkpt>
      <trkpt lat="44.09309" lon="7.06036">
        <ele>951.9</ele>
        <time>2022-06-11T10:43:29Z</time>
      </trkpt>
      <trkpt lat="44.09311" lon="7.06033">
        <ele>951.8</ele>
        <time>2022-06-11T10:43:30Z</time>
      </trkpt>
      <trkpt lat="44.09312" lon="7.06031">
        <ele>951.5</ele>
        <time>2022-06-11T10:43:31Z</time>
      </trkpt>
      <trkpt lat="44.09313" lon="7.06028">
        <ele>951.4</ele>
        <time>2022-06-11T10:43:32Z</time>
      </trkpt>
      <trkpt lat="44.09314" lon="7.06026">
        <ele>951.5</ele>
        <time>2022-06-11T10:43:33Z</time>
      </trkpt>
      <trkpt lat="44.09316" lon="7.06025">
        <ele>952.3</ele>
        <time>2022-06-11T10:43:34Z</time>
      </trkpt>
      <trkpt lat="44.09318" lon="7.06024">
        <ele>953.1</ele>
        <time>2022-06-11T10:43:35Z</time>
      </trkpt>
      <trkpt lat="44.09319" lon="7.06022">
        <ele>953.7</ele>
        <time>2022-06-11T10:43:36Z</time>
      </trkpt>
      <trkpt lat="44.0932" lon="7.06019">
        <ele>953.6</ele>
        <time>2022-06-11T10:43:37Z</time>
      </trkpt>
      <trkpt lat="44.09321" lon="7.06016">
        <ele>953</ele>
        <time>2022-06-11T10:43:38Z</time>
      </trkpt>
      <trkpt lat="44.09322" lon="7.06013">
        <ele>952.5</ele>
        <time>2022-06-11T10:43:39Z</time>
      </trkpt>
      <trkpt lat="44.09323" lon="7.06011">
        <ele>952.3</ele>
        <time>2022-06-11T10:43:40Z</time>
      </trkpt>
      <trkpt lat="44.09325" lon="7.06008">
        <ele>952.4</ele>
        <time>2022-06-11T10:43:41Z</time>
      </trkpt>
      <trkpt lat="44.09326" lon="7.06006">
        <ele>952.5</ele>
        <time>2022-06-11T10:43:42Z</time>
      </trkpt>
      <trkpt lat="44.09327" lon="7.06004">
        <ele>952.7</ele>
        <time>2022-06-11T10:43:43Z</time>
      </trkpt>
      <trkpt lat="44.09329" lon="7.06001">
        <ele>952.8</ele>
        <time>2022-06-11T10:43:44Z</time>
      </trkpt>
      <trkpt lat="44.0933" lon="7.05998">
        <ele>952.5</ele>
        <time>2022-06-11T10:43:45Z</time>
      </trkpt>
      <trkpt lat="44.09331" lon="7.05995">
        <ele>952.3</ele>
        <time>2022-06-11T10:43:46Z</time>
      </trkpt>
      <trkpt lat="44.09332" lon="7.05993">
        <ele>952.2</ele>
        <time>2022-06-11T10:43:47Z</time>
      </trkpt>
      <trkpt lat="44.09333" lon="7.0599">
        <ele>952.1</ele>
        <time>2022-06-11T10:43:48Z</time>
      </trkpt>
      <trkpt lat="44.09335" lon="7.05988">
        <ele>952.3</ele>
        <time>2022-06-11T10:43:49Z</time>
      </trkpt>
      <trkpt lat="44.09336" lon="7.05985">
        <ele>952.2</ele>
        <time>2022-06-11T10:43:50Z</time>
      </trkpt>
      <trkpt lat="44.09337" lon="7.05982">
        <ele>951.9</ele>
        <time>2022-06-11T10:43:51Z</time>
      </trkpt>
      <trkpt lat="44.09338" lon="7.0598">
        <ele>952</ele>
        <time>2022-06-11T10:43:52Z</time>
      </trkpt>
      <trkpt lat="44.09339" lon="7.05977">
        <ele>952</ele>
        <time>2022-06-11T10:43:53Z</time>
      </trkpt>
      <trkpt lat="44.09341" lon="7.05974">
        <ele>952</ele>
        <time>2022-06-11T10:43:54Z</time>
      </trkpt>
      <trkpt lat="44.09342" lon="7.05972">
        <ele>952.3</ele>
        <time>2022-06-11T10:43:55Z</time>
      </trkpt>
      <trkpt lat="44.09343" lon="7.0597">
        <ele>952.7</ele>
        <time>2022-06-11T10:43:56Z</time>
      </trkpt>
      <trkpt lat="44.09345" lon="7.05968">
        <ele>953.2</ele>
        <time>2022-06-11T10:43:57Z</time>
      </trkpt>
      <trkpt lat="44.09346" lon="7.05965">
        <ele>953.5</ele>
        <time>2022-06-11T10:43:58Z</time>
      </trkpt>
      <trkpt lat="44.09348" lon="7.05963">
        <ele>953.9</ele>
        <time>2022-06-11T10:43:59Z</time>
      </trkpt>
      <trkpt lat="44.09349" lon="7.05961">
        <ele>954.2</ele>
        <time>2022-06-11T10:44:00Z</time>
      </trkpt>
      <trkpt lat="44.0935" lon="7.05959">
        <ele>954.4</ele>
        <time>2022-06-11T10:44:01Z</time>
      </trkpt>
      <trkpt lat="44.09352" lon="7.05957">
        <ele>954.9</ele>
        <time>2022-06-11T10:44:02Z</time>
      </trkpt>
      <trkpt lat="44.09353" lon="7.05954">
        <ele>955</ele>
        <time>2022-06-11T10:44:03Z</time>
      </trkpt>
      <trkpt lat="44.09354" lon="7.05952">
        <ele>955.3</ele>
        <time>2022-06-11T10:44:04Z</time>
      </trkpt>
      <trkpt lat="44.09356" lon="7.0595">
        <ele>955.9</ele>
        <time>2022-06-11T10:44:05Z</time>
      </trkpt>
      <trkpt lat="44.09357" lon="7.05947">
        <ele>955.7</ele>
        <time>2022-06-11T10:44:06Z</time>
      </trkpt>
      <trkpt lat="44.09358" lon="7.05945">
        <ele>955.7</ele>
        <time>2022-06-11T10:44:07Z</time>
      </trkpt>
      <trkpt lat="44.09359" lon="7.05942">
        <ele>955.8</ele>
        <time>2022-06-11T10:44:08Z</time>
      </trkpt>
      <trkpt lat="44.0936" lon="7.0594">
        <ele>955.8</ele>
        <time>2022-06-11T10:44:09Z</time>
      </trkpt>
      <trkpt lat="44.09361" lon="7.05937">
        <ele>955.8</ele>
        <time>2022-06-11T10:44:10Z</time>
      </trkpt>
      <trkpt lat="44.09362" lon="7.05934">
        <ele>955.8</ele>
        <time>2022-06-11T10:44:11Z</time>
      </trkpt>
      <trkpt lat="44.09363" lon="7.05932">
        <ele>956</ele>
        <time>2022-06-11T10:44:12Z</time>
      </trkpt>
      <trkpt lat="44.09364" lon="7.0593">
        <ele>956.6</ele>
        <time>2022-06-11T10:44:13Z</time>
      </trkpt>
      <trkpt lat="44.09365" lon="7.05927">
        <ele>957</ele>
        <time>2022-06-11T10:44:14Z</time>
      </trkpt>
      <trkpt lat="44.09367" lon="7.05925">
        <ele>957.4</ele>
        <time>2022-06-11T10:44:15Z</time>
      </trkpt>
      <trkpt lat="44.09368" lon="7.05922">
        <ele>957.7</ele>
        <time>2022-06-11T10:44:16Z</time>
      </trkpt>
      <trkpt lat="44.09369" lon="7.0592">
        <ele>958.2</ele>
        <time>2022-06-11T10:44:17Z</time>
      </trkpt>
      <trkpt lat="44.0937" lon="7.05917">
        <ele>958.3</ele>
        <time>2022-06-11T10:44:18Z</time>
      </trkpt>
      <trkpt lat="44.09371" lon="7.05915">
        <ele>958.3</ele>
        <time>2022-06-11T10:44:19Z</time>
      </trkpt>
      <trkpt lat="44.09372" lon="7.05912">
        <ele>958.4</ele>
        <time>2022-06-11T10:44:20Z</time>
      </trkpt>
      <trkpt lat="44.09372" lon="7.05909">
        <ele>958.1</ele>
        <time>2022-06-11T10:44:21Z</time>
      </trkpt>
      <trkpt lat="44.09372" lon="7.05906">
        <ele>957.3</ele>
        <time>2022-06-11T10:44:22Z</time>
      </trkpt>
      <trkpt lat="44.09372" lon="7.05902">
        <ele>956.4</ele>
        <time>2022-06-11T10:44:23Z</time>
      </trkpt>
      <trkpt lat="44.09372" lon="7.05899">
        <ele>955.6</ele>
        <time>2022-06-11T10:44:24Z</time>
      </trkpt>
      <trkpt lat="44.09372" lon="7.05897">
        <ele>954.6</ele>
        <time>2022-06-11T10:44:25Z</time>
      </trkpt>
      <trkpt lat="44.09372" lon="7.05893">
        <ele>953.6</ele>
        <time>2022-06-11T10:44:26Z</time>
      </trkpt>
      <trkpt lat="44.09372" lon="7.0589">
        <ele>952.6</ele>
        <time>2022-06-11T10:44:27Z</time>
      </trkpt>
      <trkpt lat="44.09372" lon="7.05887">
        <ele>951.8</ele>
        <time>2022-06-11T10:44:28Z</time>
      </trkpt>
      <trkpt lat="44.09372" lon="7.05884">
        <ele>950.9</ele>
        <time>2022-06-11T10:44:29Z</time>
      </trkpt>
      <trkpt lat="44.09372" lon="7.05881">
        <ele>949.7</ele>
        <time>2022-06-11T10:44:30Z</time>
      </trkpt>
      <trkpt lat="44.09372" lon="7.05877">
        <ele>948.8</ele>
        <time>2022-06-11T10:44:31Z</time>
      </trkpt>
      <trkpt lat="44.09372" lon="7.05874">
        <ele>947.9</ele>
        <time>2022-06-11T10:44:32Z</time>
      </trkpt>
      <trkpt lat="44.09373" lon="7.05871">
        <ele>947.4</ele>
        <time>2022-06-11T10:44:33Z</time>
      </trkpt>
      <trkpt lat="44.09374" lon="7.05868">
        <ele>947.2</ele>
        <time>2022-06-11T10:44:34Z</time>
      </trkpt>
      <trkpt lat="44.09375" lon="7.05865">
        <ele>947.2</ele>
        <time>2022-06-11T10:44:35Z</time>
      </trkpt>
      <trkpt lat="44.09376" lon="7.05862">
        <ele>947.4</ele>
        <time>2022-06-11T10:44:36Z</time>
      </trkpt>
      <trkpt lat="44.09377" lon="7.05859">
        <ele>947.7</ele>
        <time>2022-06-11T10:44:37Z</time>
      </trkpt>
      <trkpt lat="44.09378" lon="7.05856">
        <ele>947.8</ele>
        <time>2022-06-11T10:44:38Z</time>
      </trkpt>
      <trkpt lat="44.0938" lon="7.05853">
        <ele>948.2</ele>
        <time>2022-06-11T10:44:39Z</time>
      </trkpt>
      <trkpt lat="44.09381" lon="7.0585">
        <ele>948.6</ele>
        <time>2022-06-11T10:44:40Z</time>
      </trkpt>
      <trkpt lat="44.09383" lon="7.05848">
        <ele>949.2</ele>
        <time>2022-06-11T10:44:41Z</time>
      </trkpt>
      <trkpt lat="44.09384" lon="7.05845">
        <ele>949.6</ele>
        <time>2022-06-11T10:44:42Z</time>
      </trkpt>
      <trkpt lat="44.09386" lon="7.05843">
        <ele>950.3</ele>
        <time>2022-06-11T10:44:43Z</time>
      </trkpt>
      <trkpt lat="44.09387" lon="7.0584">
        <ele>950.8</ele>
        <time>2022-06-11T10:44:44Z</time>
      </trkpt>
      <trkpt lat="44.09389" lon="7.05838">
        <ele>951.4</ele>
        <time>2022-06-11T10:44:45Z</time>
      </trkpt>
      <trkpt lat="44.0939" lon="7.05835">
        <ele>951.6</ele>
        <time>2022-06-11T10:44:46Z</time>
      </trkpt>
      <trkpt lat="44.09392" lon="7.05833">
        <ele>952.4</ele>
        <time>2022-06-11T10:44:47Z</time>
      </trkpt>
      <trkpt lat="44.09394" lon="7.05831">
        <ele>953.2</ele>
        <time>2022-06-11T10:44:48Z</time>
      </trkpt>
      <trkpt lat="44.09396" lon="7.05829">
        <ele>954.3</ele>
        <time>2022-06-11T10:44:49Z</time>
      </trkpt>
      <trkpt lat="44.09398" lon="7.05826">
        <ele>954.9</ele>
        <time>2022-06-11T10:44:50Z</time>
      </trkpt>
      <trkpt lat="44.094" lon="7.05824">
        <ele>955.8</ele>
        <time>2022-06-11T10:44:51Z</time>
      </trkpt>
      <trkpt lat="44.09402" lon="7.05821">
        <ele>956.5</ele>
        <time>2022-06-11T10:44:52Z</time>
      </trkpt>
      <trkpt lat="44.09404" lon="7.05818">
        <ele>956.7</ele>
        <time>2022-06-11T10:44:53Z</time>
      </trkpt>
      <trkpt lat="44.09406" lon="7.05815">
        <ele>957.3</ele>
        <time>2022-06-11T10:44:54Z</time>
      </trkpt>
      <trkpt lat="44.09408" lon="7.05813">
        <ele>957.9</ele>
        <time>2022-06-11T10:44:55Z</time>
      </trkpt>
      <trkpt lat="44.0941" lon="7.0581">
        <ele>958.6</ele>
        <time>2022-06-11T10:44:56Z</time>
      </trkpt>
      <trkpt lat="44.09413" lon="7.05808">
        <ele>959.6</ele>
        <time>2022-06-11T10:44:57Z</time>
      </trkpt>
      <trkpt lat="44.09416" lon="7.05808">
        <ele>961</ele>
        <time>2022-06-11T10:44:58Z</time>
      </trkpt>
      <trkpt lat="44.09418" lon="7.05806">
        <ele>961.7</ele>
        <time>2022-06-11T10:44:59Z</time>
      </trkpt>
      <trkpt lat="44.0942" lon="7.05804">
        <ele>962.6</ele>
        <time>2022-06-11T10:45:00Z</time>
      </trkpt>
      <trkpt lat="44.09423" lon="7.05802">
        <ele>963.7</ele>
        <time>2022-06-11T10:45:01Z</time>
      </trkpt>
      <trkpt lat="44.09425" lon="7.05801">
        <ele>964.6</ele>
        <time>2022-06-11T10:45:02Z</time>
      </trkpt>
      <trkpt lat="44.09427" lon="7.05798">
        <ele>965.3</ele>
        <time>2022-06-11T10:45:03Z</time>
      </trkpt>
      <trkpt lat="44.09429" lon="7.05796">
        <ele>966</ele>
        <time>2022-06-11T10:45:04Z</time>
      </trkpt>
      <trkpt lat="44.09431" lon="7.05793">
        <ele>966.3</ele>
        <time>2022-06-11T10:45:05Z</time>
      </trkpt>
      <trkpt lat="44.09432" lon="7.05791">
        <ele>966.7</ele>
        <time>2022-06-11T10:45:06Z</time>
      </trkpt>
      <trkpt lat="44.09434" lon="7.05788">
        <ele>967</ele>
        <time>2022-06-11T10:45:07Z</time>
      </trkpt>
      <trkpt lat="44.09436" lon="7.05785">
        <ele>967.3</ele>
        <time>2022-06-11T10:45:08Z</time>
      </trkpt>
      <trkpt lat="44.09438" lon="7.05781">
        <ele>967.3</ele>
        <time>2022-06-11T10:45:09Z</time>
      </trkpt>
      <trkpt lat="44.09439" lon="7.05778">
        <ele>967.1</ele>
        <time>2022-06-11T10:45:10Z</time>
      </trkpt>
      <trkpt lat="44.0944" lon="7.05776">
        <ele>967.4</ele>
        <time>2022-06-11T10:45:11Z</time>
      </trkpt>
      <trkpt lat="44.09441" lon="7.05772">
        <ele>967.4</ele>
        <time>2022-06-11T10:45:12Z</time>
      </trkpt>
      <trkpt lat="44.09442" lon="7.05769">
        <ele>967.3</ele>
        <time>2022-06-11T10:45:13Z</time>
      </trkpt>
      <trkpt lat="44.09442" lon="7.05766">
        <ele>967.2</ele>
        <time>2022-06-11T10:45:14Z</time>
      </trkpt>
      <trkpt lat="44.09444" lon="7.05764">
        <ele>967.5</ele>
        <time>2022-06-11T10:45:15Z</time>
      </trkpt>
      <trkpt lat="44.09444" lon="7.05761">
        <ele>967.4</ele>
        <time>2022-06-11T10:45:16Z</time>
      </trkpt>
      <trkpt lat="44.09444" lon="7.05759">
        <ele>967.3</ele>
        <time>2022-06-11T10:45:17Z</time>
      </trkpt>
      <trkpt lat="44.09444" lon="7.05759">
        <ele>967.1</ele>
        <time>2022-06-11T10:45:18Z</time>
      </trkpt>
      <trkpt lat="44.09444" lon="7.05759">
        <ele>967.1</ele>
        <time>2022-06-11T10:45:19Z</time>
      </trkpt>
      <trkpt lat="44.09442" lon="7.05747">
        <ele>964.8</ele>
        <time>2022-06-11T10:50:02Z</time>
      </trkpt>
      <trkpt lat="44.09443" lon="7.05744">
        <ele>964.8</ele>
        <time>2022-06-11T10:50:03Z</time>
      </trkpt>
      <trkpt lat="44.09443" lon="7.05741">
        <ele>964.3</ele>
        <time>2022-06-11T10:50:04Z</time>
      </trkpt>
      <trkpt lat="44.09443" lon="7.05737">
        <ele>964.3</ele>
        <time>2022-06-11T10:50:05Z</time>
      </trkpt>
      <trkpt lat="44.09444" lon="7.05734">
        <ele>964.6</ele>
        <time>2022-06-11T10:50:06Z</time>
      </trkpt>
      <trkpt lat="44.09445" lon="7.05731">
        <ele>964.7</ele>
        <time>2022-06-11T10:50:07Z</time>
      </trkpt>
      <trkpt lat="44.09446" lon="7.05727">
        <ele>964.8</ele>
        <time>2022-06-11T10:50:08Z</time>
      </trkpt>
      <trkpt lat="44.09447" lon="7.05725">
        <ele>964.9</ele>
        <time>2022-06-11T10:50:09Z</time>
      </trkpt>
      <trkpt lat="44.09448" lon="7.05722">
        <ele>965</ele>
        <time>2022-06-11T10:50:10Z</time>
      </trkpt>
      <trkpt lat="44.09449" lon="7.05719">
        <ele>964.7</ele>
        <time>2022-06-11T10:50:11Z</time>
      </trkpt>
      <trkpt lat="44.09451" lon="7.05717">
        <ele>964.6</ele>
        <time>2022-06-11T10:50:12Z</time>
      </trkpt>
      <trkpt lat="44.09453" lon="7.05714">
        <ele>964.4</ele>
        <time>2022-06-11T10:50:13Z</time>
      </trkpt>
      <trkpt lat="44.09454" lon="7.05712">
        <ele>964.4</ele>
        <time>2022-06-11T10:50:14Z</time>
      </trkpt>
      <trkpt lat="44.09457" lon="7.05711">
        <ele>964.9</ele>
        <time>2022-06-11T10:50:15Z</time>
      </trkpt>
      <trkpt lat="44.09459" lon="7.05709">
        <ele>965.1</ele>
        <time>2022-06-11T10:50:16Z</time>
      </trkpt>
      <trkpt lat="44.09461" lon="7.05708">
        <ele>965.8</ele>
        <time>2022-06-11T10:50:17Z</time>
      </trkpt>
      <trkpt lat="44.09463" lon="7.05706">
        <ele>966.3</ele>
        <time>2022-06-11T10:50:18Z</time>
      </trkpt>
      <trkpt lat="44.09464" lon="7.05705">
        <ele>966.7</ele>
        <time>2022-06-11T10:50:19Z</time>
      </trkpt>
      <trkpt lat="44.09466" lon="7.05704">
        <ele>967.1</ele>
        <time>2022-06-11T10:50:20Z</time>
      </trkpt>
      <trkpt lat="44.09468" lon="7.05702">
        <ele>967.6</ele>
        <time>2022-06-11T10:50:21Z</time>
      </trkpt>
      <trkpt lat="44.0947" lon="7.05701">
        <ele>968</ele>
        <time>2022-06-11T10:50:22Z</time>
      </trkpt>
      <trkpt lat="44.09472" lon="7.05699">
        <ele>968.7</ele>
        <time>2022-06-11T10:50:23Z</time>
      </trkpt>
      <trkpt lat="44.09473" lon="7.05698">
        <ele>969</ele>
        <time>2022-06-11T10:50:24Z</time>
      </trkpt>
      <trkpt lat="44.09475" lon="7.05696">
        <ele>969.2</ele>
        <time>2022-06-11T10:50:25Z</time>
      </trkpt>
      <trkpt lat="44.09477" lon="7.05695">
        <ele>969.6</ele>
        <time>2022-06-11T10:50:26Z</time>
      </trkpt>
      <trkpt lat="44.09479" lon="7.05695">
        <ele>970.1</ele>
        <time>2022-06-11T10:50:27Z</time>
      </trkpt>
      <trkpt lat="44.09481" lon="7.05694">
        <ele>970.4</ele>
        <time>2022-06-11T10:50:28Z</time>
      </trkpt>
      <trkpt lat="44.09483" lon="7.05693">
        <ele>970.7</ele>
        <time>2022-06-11T10:50:29Z</time>
      </trkpt>
      <trkpt lat="44.09485" lon="7.05691">
        <ele>970.4</ele>
        <time>2022-06-11T10:50:30Z</time>
      </trkpt>
      <trkpt lat="44.09487" lon="7.05689">
        <ele>970.5</ele>
        <time>2022-06-11T10:50:31Z</time>
      </trkpt>
      <trkpt lat="44.09488" lon="7.05688">
        <ele>970.5</ele>
        <time>2022-06-11T10:50:32Z</time>
      </trkpt>
      <trkpt lat="44.09491" lon="7.05687">
        <ele>971</ele>
        <time>2022-06-11T10:50:33Z</time>
      </trkpt>
      <trkpt lat="44.09493" lon="7.05687">
        <ele>971.6</ele>
        <time>2022-06-11T10:50:34Z</time>
      </trkpt>
      <trkpt lat="44.09496" lon="7.05687">
        <ele>972.3</ele>
        <time>2022-06-11T10:50:35Z</time>
      </trkpt>
      <trkpt lat="44.09498" lon="7.05686">
        <ele>972.8</ele>
        <time>2022-06-11T10:50:36Z</time>
      </trkpt>
      <trkpt lat="44.095" lon="7.05686">
        <ele>973.4</ele>
        <time>2022-06-11T10:50:37Z</time>
      </trkpt>
      <trkpt lat="44.09502" lon="7.05685">
        <ele>973.7</ele>
        <time>2022-06-11T10:50:38Z</time>
      </trkpt>
      <trkpt lat="44.09505" lon="7.05686">
        <ele>974.8</ele>
        <time>2022-06-11T10:50:39Z</time>
      </trkpt>
      <trkpt lat="44.09507" lon="7.05687">
        <ele>975.7</ele>
        <time>2022-06-11T10:50:40Z</time>
      </trkpt>
      <trkpt lat="44.09509" lon="7.05688">
        <ele>977</ele>
        <time>2022-06-11T10:50:41Z</time>
      </trkpt>
      <trkpt lat="44.09511" lon="7.05688">
        <ele>977.6</ele>
        <time>2022-06-11T10:50:42Z</time>
      </trkpt>
      <trkpt lat="44.09512" lon="7.05688">
        <ele>978.3</ele>
        <time>2022-06-11T10:50:43Z</time>
      </trkpt>
      <trkpt lat="44.09514" lon="7.05689">
        <ele>979.2</ele>
        <time>2022-06-11T10:50:44Z</time>
      </trkpt>
      <trkpt lat="44.09517" lon="7.0569">
        <ele>980.5</ele>
        <time>2022-06-11T10:50:45Z</time>
      </trkpt>
      <trkpt lat="44.09519" lon="7.05691">
        <ele>981.9</ele>
        <time>2022-06-11T10:50:46Z</time>
      </trkpt>
      <trkpt lat="44.09521" lon="7.05691">
        <ele>982.5</ele>
        <time>2022-06-11T10:50:47Z</time>
      </trkpt>
      <trkpt lat="44.09523" lon="7.05691">
        <ele>983.4</ele>
        <time>2022-06-11T10:50:48Z</time>
      </trkpt>
      <trkpt lat="44.09525" lon="7.05691">
        <ele>984.1</ele>
        <time>2022-06-11T10:50:49Z</time>
      </trkpt>
      <trkpt lat="44.09527" lon="7.05691">
        <ele>985.2</ele>
        <time>2022-06-11T10:50:50Z</time>
      </trkpt>
      <trkpt lat="44.0953" lon="7.05691">
        <ele>986.2</ele>
        <time>2022-06-11T10:50:51Z</time>
      </trkpt>
      <trkpt lat="44.09532" lon="7.05692">
        <ele>987.3</ele>
        <time>2022-06-11T10:50:52Z</time>
      </trkpt>
      <trkpt lat="44.09534" lon="7.05691">
        <ele>987.9</ele>
        <time>2022-06-11T10:50:53Z</time>
      </trkpt>
      <trkpt lat="44.09536" lon="7.0569">
        <ele>988.5</ele>
        <time>2022-06-11T10:50:54Z</time>
      </trkpt>
      <trkpt lat="44.09538" lon="7.05689">
        <ele>988.6</ele>
        <time>2022-06-11T10:50:55Z</time>
      </trkpt>
      <trkpt lat="44.0954" lon="7.05688">
        <ele>988.7</ele>
        <time>2022-06-11T10:50:56Z</time>
      </trkpt>
      <trkpt lat="44.09542" lon="7.05687">
        <ele>988.6</ele>
        <time>2022-06-11T10:50:57Z</time>
      </trkpt>
      <trkpt lat="44.09543" lon="7.05685">
        <ele>988</ele>
        <time>2022-06-11T10:50:58Z</time>
      </trkpt>
      <trkpt lat="44.09545" lon="7.05683">
        <ele>987.9</ele>
        <time>2022-06-11T10:50:59Z</time>
      </trkpt>
      <trkpt lat="44.09546" lon="7.05681">
        <ele>987.1</ele>
        <time>2022-06-11T10:51:00Z</time>
      </trkpt>
      <trkpt lat="44.09548" lon="7.05681">
        <ele>987.9</ele>
        <time>2022-06-11T10:51:01Z</time>
      </trkpt>
      <trkpt lat="44.0955" lon="7.0568">
        <ele>988</ele>
        <time>2022-06-11T10:51:02Z</time>
      </trkpt>
      <trkpt lat="44.09551" lon="7.05677">
        <ele>987</ele>
        <time>2022-06-11T10:51:03Z</time>
      </trkpt>
      <trkpt lat="44.09553" lon="7.05676">
        <ele>986.8</ele>
        <time>2022-06-11T10:51:04Z</time>
      </trkpt>
      <trkpt lat="44.09555" lon="7.05674">
        <ele>986.3</ele>
        <time>2022-06-11T10:51:05Z</time>
      </trkpt>
      <trkpt lat="44.09556" lon="7.05671">
        <ele>984.8</ele>
        <time>2022-06-11T10:51:06Z</time>
      </trkpt>
      <trkpt lat="44.09558" lon="7.05669">
        <ele>984.3</ele>
        <time>2022-06-11T10:51:07Z</time>
      </trkpt>
      <trkpt lat="44.09559" lon="7.05666">
        <ele>983.2</ele>
        <time>2022-06-11T10:51:08Z</time>
      </trkpt>
      <trkpt lat="44.09561" lon="7.05664">
        <ele>982.8</ele>
        <time>2022-06-11T10:51:09Z</time>
      </trkpt>
      <trkpt lat="44.09562" lon="7.05662">
        <ele>982.5</ele>
        <time>2022-06-11T10:51:10Z</time>
      </trkpt>
      <trkpt lat="44.09563" lon="7.05659">
        <ele>981.2</ele>
        <time>2022-06-11T10:51:11Z</time>
      </trkpt>
      <trkpt lat="44.09564" lon="7.05656">
        <ele>980.3</ele>
        <time>2022-06-11T10:51:12Z</time>
      </trkpt>
      <trkpt lat="44.09566" lon="7.05653">
        <ele>979.6</ele>
        <time>2022-06-11T10:51:13Z</time>
      </trkpt>
      <trkpt lat="44.09567" lon="7.05651">
        <ele>979.2</ele>
        <time>2022-06-11T10:51:14Z</time>
      </trkpt>
      <trkpt lat="44.09568" lon="7.05649">
        <ele>978.7</ele>
        <time>2022-06-11T10:51:15Z</time>
      </trkpt>
      <trkpt lat="44.0957" lon="7.05648">
        <ele>978.2</ele>
        <time>2022-06-11T10:51:16Z</time>
      </trkpt>
      <trkpt lat="44.09571" lon="7.05645">
        <ele>977.6</ele>
        <time>2022-06-11T10:51:17Z</time>
      </trkpt>
      <trkpt lat="44.09573" lon="7.05644">
        <ele>977.2</ele>
        <time>2022-06-11T10:51:18Z</time>
      </trkpt>
      <trkpt lat="44.09575" lon="7.05642">
        <ele>977.3</ele>
        <time>2022-06-11T10:51:19Z</time>
      </trkpt>
      <trkpt lat="44.09577" lon="7.05641">
        <ele>977.4</ele>
        <time>2022-06-11T10:51:20Z</time>
      </trkpt>
      <trkpt lat="44.09579" lon="7.05641">
        <ele>977.7</ele>
        <time>2022-06-11T10:51:21Z</time>
      </trkpt>
      <trkpt lat="44.09582" lon="7.0564">
        <ele>978.3</ele>
        <time>2022-06-11T10:51:22Z</time>
      </trkpt>
      <trkpt lat="44.09584" lon="7.05639">
        <ele>978.3</ele>
        <time>2022-06-11T10:51:23Z</time>
      </trkpt>
      <trkpt lat="44.09586" lon="7.05639">
        <ele>978.4</ele>
        <time>2022-06-11T10:51:24Z</time>
      </trkpt>
      <trkpt lat="44.09588" lon="7.05638">
        <ele>978.6</ele>
        <time>2022-06-11T10:51:25Z</time>
      </trkpt>
      <trkpt lat="44.09591" lon="7.05638">
        <ele>979</ele>
        <time>2022-06-11T10:51:26Z</time>
      </trkpt>
      <trkpt lat="44.09593" lon="7.05638">
        <ele>979.5</ele>
        <time>2022-06-11T10:51:27Z</time>
      </trkpt>
      <trkpt lat="44.09595" lon="7.05638">
        <ele>979.8</ele>
        <time>2022-06-11T10:51:28Z</time>
      </trkpt>
      <trkpt lat="44.09597" lon="7.05638">
        <ele>980.2</ele>
        <time>2022-06-11T10:51:29Z</time>
      </trkpt>
      <trkpt lat="44.096" lon="7.05639">
        <ele>980.8</ele>
        <time>2022-06-11T10:51:30Z</time>
      </trkpt>
      <trkpt lat="44.09602" lon="7.05639">
        <ele>981.4</ele>
        <time>2022-06-11T10:51:31Z</time>
      </trkpt>
      <trkpt lat="44.09604" lon="7.0564">
        <ele>982.3</ele>
        <time>2022-06-11T10:51:32Z</time>
      </trkpt>
      <trkpt lat="44.09606" lon="7.05641">
        <ele>983.4</ele>
        <time>2022-06-11T10:51:33Z</time>
      </trkpt>
      <trkpt lat="44.09608" lon="7.05642">
        <ele>984.1</ele>
        <time>2022-06-11T10:51:34Z</time>
      </trkpt>
      <trkpt lat="44.0961" lon="7.05642">
        <ele>984.9</ele>
        <time>2022-06-11T10:51:35Z</time>
      </trkpt>
      <trkpt lat="44.09612" lon="7.05643">
        <ele>985.6</ele>
        <time>2022-06-11T10:51:36Z</time>
      </trkpt>
      <trkpt lat="44.09615" lon="7.05643">
        <ele>986.1</ele>
        <time>2022-06-11T10:51:37Z</time>
      </trkpt>
      <trkpt lat="44.09617" lon="7.05644">
        <ele>986.9</ele>
        <time>2022-06-11T10:51:38Z</time>
      </trkpt>
      <trkpt lat="44.09619" lon="7.05644">
        <ele>987.2</ele>
        <time>2022-06-11T10:51:39Z</time>
      </trkpt>
      <trkpt lat="44.0962" lon="7.05643">
        <ele>986.8</ele>
        <time>2022-06-11T10:51:40Z</time>
      </trkpt>
      <trkpt lat="44.09623" lon="7.05643">
        <ele>986.8</ele>
        <time>2022-06-11T10:51:41Z</time>
      </trkpt>
      <trkpt lat="44.09625" lon="7.05642">
        <ele>986.6</ele>
        <time>2022-06-11T10:51:42Z</time>
      </trkpt>
      <trkpt lat="44.09626" lon="7.05641">
        <ele>986.5</ele>
        <time>2022-06-11T10:51:43Z</time>
      </trkpt>
      <trkpt lat="44.09628" lon="7.05641">
        <ele>986.5</ele>
        <time>2022-06-11T10:51:44Z</time>
      </trkpt>
      <trkpt lat="44.0963" lon="7.05641">
        <ele>986.7</ele>
        <time>2022-06-11T10:51:45Z</time>
      </trkpt>
      <trkpt lat="44.09632" lon="7.0564">
        <ele>986.7</ele>
        <time>2022-06-11T10:51:46Z</time>
      </trkpt>
      <trkpt lat="44.09635" lon="7.0564">
        <ele>986.8</ele>
        <time>2022-06-11T10:51:47Z</time>
      </trkpt>
      <trkpt lat="44.09637" lon="7.05639">
        <ele>986.8</ele>
        <time>2022-06-11T10:51:48Z</time>
      </trkpt>
      <trkpt lat="44.09638" lon="7.05639">
        <ele>986.8</ele>
        <time>2022-06-11T10:51:49Z</time>
      </trkpt>
      <trkpt lat="44.0964" lon="7.05638">
        <ele>986.8</ele>
        <time>2022-06-11T10:51:50Z</time>
      </trkpt>
      <trkpt lat="44.09643" lon="7.05639">
        <ele>987.8</ele>
        <time>2022-06-11T10:51:51Z</time>
      </trkpt>
      <trkpt lat="44.09645" lon="7.05638">
        <ele>988.1</ele>
        <time>2022-06-11T10:51:52Z</time>
      </trkpt>
      <trkpt lat="44.09647" lon="7.05638">
        <ele>988.3</ele>
        <time>2022-06-11T10:51:53Z</time>
      </trkpt>
      <trkpt lat="44.09649" lon="7.05637">
        <ele>988.1</ele>
        <time>2022-06-11T10:51:54Z</time>
      </trkpt>
      <trkpt lat="44.09651" lon="7.05636">
        <ele>988.1</ele>
        <time>2022-06-11T10:51:55Z</time>
      </trkpt>
      <trkpt lat="44.09653" lon="7.05635">
        <ele>988</ele>
        <time>2022-06-11T10:51:56Z</time>
      </trkpt>
      <trkpt lat="44.09655" lon="7.05633">
        <ele>987.8</ele>
        <time>2022-06-11T10:51:57Z</time>
      </trkpt>
      <trkpt lat="44.09657" lon="7.05632">
        <ele>987.5</ele>
        <time>2022-06-11T10:51:58Z</time>
      </trkpt>
      <trkpt lat="44.09658" lon="7.0563">
        <ele>987.1</ele>
        <time>2022-06-11T10:51:59Z</time>
      </trkpt>
      <trkpt lat="44.0966" lon="7.05628">
        <ele>986.2</ele>
        <time>2022-06-11T10:52:00Z</time>
      </trkpt>
      <trkpt lat="44.09661" lon="7.05627">
        <ele>985.7</ele>
        <time>2022-06-11T10:52:01Z</time>
      </trkpt>
      <trkpt lat="44.09663" lon="7.05624">
        <ele>984.7</ele>
        <time>2022-06-11T10:52:02Z</time>
      </trkpt>
      <trkpt lat="44.09664" lon="7.05622">
        <ele>983.8</ele>
        <time>2022-06-11T10:52:03Z</time>
      </trkpt>
      <trkpt lat="44.09665" lon="7.05619">
        <ele>982.6</ele>
        <time>2022-06-11T10:52:04Z</time>
      </trkpt>
      <trkpt lat="44.09665" lon="7.05616">
        <ele>981.1</ele>
        <time>2022-06-11T10:52:05Z</time>
      </trkpt>
      <trkpt lat="44.09665" lon="7.05613">
        <ele>979.5</ele>
        <time>2022-06-11T10:52:06Z</time>
      </trkpt>
      <trkpt lat="44.09665" lon="7.05609">
        <ele>980.3</ele>
        <time>2022-06-11T10:52:07Z</time>
      </trkpt>
      <trkpt lat="44.09664" lon="7.05606">
        <ele>983</ele>
        <time>2022-06-11T10:52:08Z</time>
      </trkpt>
      <trkpt lat="44.09663" lon="7.05603">
        <ele>984.8</ele>
        <time>2022-06-11T10:52:09Z</time>
      </trkpt>
      <trkpt lat="44.09662" lon="7.056">
        <ele>986.8</ele>
        <time>2022-06-11T10:52:10Z</time>
      </trkpt>
      <trkpt lat="44.09661" lon="7.05597">
        <ele>989</ele>
        <time>2022-06-11T10:52:11Z</time>
      </trkpt>
      <trkpt lat="44.0966" lon="7.05594">
        <ele>991.2</ele>
        <time>2022-06-11T10:52:12Z</time>
      </trkpt>
      <trkpt lat="44.09658" lon="7.05592">
        <ele>992.9</ele>
        <time>2022-06-11T10:52:13Z</time>
      </trkpt>
      <trkpt lat="44.09657" lon="7.05589">
        <ele>994.5</ele>
        <time>2022-06-11T10:52:14Z</time>
      </trkpt>
      <trkpt lat="44.09655" lon="7.05588">
        <ele>994.7</ele>
        <time>2022-06-11T10:52:15Z</time>
      </trkpt>
      <trkpt lat="44.09652" lon="7.05588">
        <ele>994.4</ele>
        <time>2022-06-11T10:52:16Z</time>
      </trkpt>
      <trkpt lat="44.0965" lon="7.05588">
        <ele>994</ele>
        <time>2022-06-11T10:52:17Z</time>
      </trkpt>
      <trkpt lat="44.09648" lon="7.05588">
        <ele>993.4</ele>
        <time>2022-06-11T10:52:18Z</time>
      </trkpt>
      <trkpt lat="44.09646" lon="7.05588">
        <ele>992.9</ele>
        <time>2022-06-11T10:52:19Z</time>
      </trkpt>
      <trkpt lat="44.09644" lon="7.05588">
        <ele>992.7</ele>
        <time>2022-06-11T10:52:20Z</time>
      </trkpt>
      <trkpt lat="44.09641" lon="7.05588">
        <ele>992.4</ele>
        <time>2022-06-11T10:52:21Z</time>
      </trkpt>
      <trkpt lat="44.09639" lon="7.05588">
        <ele>992</ele>
        <time>2022-06-11T10:52:22Z</time>
      </trkpt>
      <trkpt lat="44.09637" lon="7.05588">
        <ele>991.1</ele>
        <time>2022-06-11T10:52:23Z</time>
      </trkpt>
      <trkpt lat="44.09635" lon="7.05587">
        <ele>990.9</ele>
        <time>2022-06-11T10:52:24Z</time>
      </trkpt>
      <trkpt lat="44.09633" lon="7.05585">
        <ele>991.4</ele>
        <time>2022-06-11T10:52:25Z</time>
      </trkpt>
      <trkpt lat="44.09631" lon="7.05583">
        <ele>991.6</ele>
        <time>2022-06-11T10:52:26Z</time>
      </trkpt>
      <trkpt lat="44.09629" lon="7.05582">
        <ele>991.6</ele>
        <time>2022-06-11T10:52:27Z</time>
      </trkpt>
      <trkpt lat="44.09627" lon="7.0558">
        <ele>992.1</ele>
        <time>2022-06-11T10:52:28Z</time>
      </trkpt>
      <trkpt lat="44.09626" lon="7.05578">
        <ele>992.8</ele>
        <time>2022-06-11T10:52:29Z</time>
      </trkpt>
      <trkpt lat="44.09624" lon="7.05575">
        <ele>993.7</ele>
        <time>2022-06-11T10:52:30Z</time>
      </trkpt>
      <trkpt lat="44.09623" lon="7.05572">
        <ele>994.9</ele>
        <time>2022-06-11T10:52:31Z</time>
      </trkpt>
      <trkpt lat="44.09622" lon="7.0557">
        <ele>995.3</ele>
        <time>2022-06-11T10:52:32Z</time>
      </trkpt>
      <trkpt lat="44.09621" lon="7.05567">
        <ele>996.5</ele>
        <time>2022-06-11T10:52:33Z</time>
      </trkpt>
      <trkpt lat="44.09619" lon="7.05565">
        <ele>996.9</ele>
        <time>2022-06-11T10:52:34Z</time>
      </trkpt>
      <trkpt lat="44.09618" lon="7.05562">
        <ele>997.3</ele>
        <time>2022-06-11T10:52:35Z</time>
      </trkpt>
      <trkpt lat="44.09616" lon="7.05561">
        <ele>997</ele>
        <time>2022-06-11T10:52:36Z</time>
      </trkpt>
      <trkpt lat="44.09615" lon="7.05558">
        <ele>997.1</ele>
        <time>2022-06-11T10:52:37Z</time>
      </trkpt>
      <trkpt lat="44.09613" lon="7.05557">
        <ele>996.5</ele>
        <time>2022-06-11T10:52:38Z</time>
      </trkpt>
      <trkpt lat="44.09611" lon="7.05556">
        <ele>995.9</ele>
        <time>2022-06-11T10:52:39Z</time>
      </trkpt>
      <trkpt lat="44.09609" lon="7.05554">
        <ele>996.1</ele>
        <time>2022-06-11T10:52:40Z</time>
      </trkpt>
      <trkpt lat="44.09607" lon="7.05553">
        <ele>996.3</ele>
        <time>2022-06-11T10:52:41Z</time>
      </trkpt>
      <trkpt lat="44.09605" lon="7.05553">
        <ele>995.6</ele>
        <time>2022-06-11T10:52:42Z</time>
      </trkpt>
      <trkpt lat="44.09603" lon="7.05554">
        <ele>994.7</ele>
        <time>2022-06-11T10:52:43Z</time>
      </trkpt>
      <trkpt lat="44.09601" lon="7.05554">
        <ele>993.9</ele>
        <time>2022-06-11T10:52:44Z</time>
      </trkpt>
      <trkpt lat="44.09599" lon="7.05555">
        <ele>993</ele>
        <time>2022-06-11T10:52:45Z</time>
      </trkpt>
      <trkpt lat="44.09597" lon="7.05555">
        <ele>992</ele>
        <time>2022-06-11T10:52:46Z</time>
      </trkpt>
      <trkpt lat="44.09594" lon="7.05555">
        <ele>991.3</ele>
        <time>2022-06-11T10:52:47Z</time>
      </trkpt>
      <trkpt lat="44.09592" lon="7.05555">
        <ele>991</ele>
        <time>2022-06-11T10:52:48Z</time>
      </trkpt>
      <trkpt lat="44.0959" lon="7.05555">
        <ele>990.4</ele>
        <time>2022-06-11T10:52:49Z</time>
      </trkpt>
      <trkpt lat="44.09588" lon="7.05555">
        <ele>989.8</ele>
        <time>2022-06-11T10:52:50Z</time>
      </trkpt>
      <trkpt lat="44.09585" lon="7.05555">
        <ele>989.2</ele>
        <time>2022-06-11T10:52:51Z</time>
      </trkpt>
      <trkpt lat="44.09583" lon="7.05554">
        <ele>988.8</ele>
        <time>2022-06-11T10:52:52Z</time>
      </trkpt>
      <trkpt lat="44.09581" lon="7.05553">
        <ele>989.7</ele>
        <time>2022-06-11T10:52:53Z</time>
      </trkpt>
      <trkpt lat="44.09579" lon="7.05552">
        <ele>990.5</ele>
        <time>2022-06-11T10:52:54Z</time>
      </trkpt>
      <trkpt lat="44.09577" lon="7.05551">
        <ele>991.3</ele>
        <time>2022-06-11T10:52:55Z</time>
      </trkpt>
      <trkpt lat="44.09575" lon="7.0555">
        <ele>992</ele>
        <time>2022-06-11T10:52:56Z</time>
      </trkpt>
      <trkpt lat="44.09573" lon="7.05549">
        <ele>992.7</ele>
        <time>2022-06-11T10:52:57Z</time>
      </trkpt>
      <trkpt lat="44.09571" lon="7.05548">
        <ele>993.5</ele>
        <time>2022-06-11T10:52:58Z</time>
      </trkpt>
      <trkpt lat="44.09569" lon="7.05547">
        <ele>994.3</ele>
        <time>2022-06-11T10:52:59Z</time>
      </trkpt>
      <trkpt lat="44.09567" lon="7.05547">
        <ele>994.9</ele>
        <time>2022-06-11T10:53:00Z</time>
      </trkpt>
      <trkpt lat="44.09565" lon="7.05546">
        <ele>995.2</ele>
        <time>2022-06-11T10:53:01Z</time>
      </trkpt>
      <trkpt lat="44.09563" lon="7.05546">
        <ele>995.7</ele>
        <time>2022-06-11T10:53:02Z</time>
      </trkpt>
      <trkpt lat="44.09561" lon="7.05546">
        <ele>995.9</ele>
        <time>2022-06-11T10:53:03Z</time>
      </trkpt>
      <trkpt lat="44.09559" lon="7.05546">
        <ele>995.9</ele>
        <time>2022-06-11T10:53:04Z</time>
      </trkpt>
      <trkpt lat="44.09557" lon="7.05547">
        <ele>995.4</ele>
        <time>2022-06-11T10:53:05Z</time>
      </trkpt>
      <trkpt lat="44.09555" lon="7.05548">
        <ele>995</ele>
        <time>2022-06-11T10:53:06Z</time>
      </trkpt>
      <trkpt lat="44.09552" lon="7.05549">
        <ele>995.1</ele>
        <time>2022-06-11T10:53:07Z</time>
      </trkpt>
      <trkpt lat="44.0955" lon="7.0555">
        <ele>995.3</ele>
        <time>2022-06-11T10:53:08Z</time>
      </trkpt>
      <trkpt lat="44.09548" lon="7.0555">
        <ele>995.8</ele>
        <time>2022-06-11T10:53:09Z</time>
      </trkpt>
      <trkpt lat="44.09546" lon="7.05551">
        <ele>996</ele>
        <time>2022-06-11T10:53:10Z</time>
      </trkpt>
      <trkpt lat="44.09544" lon="7.05551">
        <ele>996.7</ele>
        <time>2022-06-11T10:53:11Z</time>
      </trkpt>
      <trkpt lat="44.09542" lon="7.05551">
        <ele>997</ele>
        <time>2022-06-11T10:53:12Z</time>
      </trkpt>
      <trkpt lat="44.0954" lon="7.05552">
        <ele>997.2</ele>
        <time>2022-06-11T10:53:13Z</time>
      </trkpt>
      <trkpt lat="44.09538" lon="7.05553">
        <ele>997</ele>
        <time>2022-06-11T10:53:14Z</time>
      </trkpt>
      <trkpt lat="44.09535" lon="7.05554">
        <ele>997</ele>
        <time>2022-06-11T10:53:15Z</time>
      </trkpt>
      <trkpt lat="44.09534" lon="7.05555">
        <ele>997</ele>
        <time>2022-06-11T10:53:16Z</time>
      </trkpt>
      <trkpt lat="44.09532" lon="7.05555">
        <ele>997.2</ele>
        <time>2022-06-11T10:53:17Z</time>
      </trkpt>
      <trkpt lat="44.0953" lon="7.05557">
        <ele>996.9</ele>
        <time>2022-06-11T10:53:18Z</time>
      </trkpt>
      <trkpt lat="44.09528" lon="7.05557">
        <ele>997.1</ele>
        <time>2022-06-11T10:53:19Z</time>
      </trkpt>
      <trkpt lat="44.09525" lon="7.05558">
        <ele>997.4</ele>
        <time>2022-06-11T10:53:20Z</time>
      </trkpt>
      <trkpt lat="44.09523" lon="7.05559">
        <ele>997.5</ele>
        <time>2022-06-11T10:53:21Z</time>
      </trkpt>
      <trkpt lat="44.09521" lon="7.0556">
        <ele>997.7</ele>
        <time>2022-06-11T10:53:22Z</time>
      </trkpt>
      <trkpt lat="44.09519" lon="7.05561">
        <ele>997.9</ele>
        <time>2022-06-11T10:53:23Z</time>
      </trkpt>
      <trkpt lat="44.09517" lon="7.05563">
        <ele>997.8</ele>
        <time>2022-06-11T10:53:24Z</time>
      </trkpt>
      <trkpt lat="44.09515" lon="7.05564">
        <ele>997.8</ele>
        <time>2022-06-11T10:53:25Z</time>
      </trkpt>
      <trkpt lat="44.09513" lon="7.05564">
        <ele>998.2</ele>
        <time>2022-06-11T10:53:26Z</time>
      </trkpt>
      <trkpt lat="44.0951" lon="7.05564">
        <ele>998.9</ele>
        <time>2022-06-11T10:53:27Z</time>
      </trkpt>
      <trkpt lat="44.09508" lon="7.05564">
        <ele>999.6</ele>
        <time>2022-06-11T10:53:28Z</time>
      </trkpt>
      <trkpt lat="44.09505" lon="7.05565">
        <ele>1000.2</ele>
        <time>2022-06-11T10:53:29Z</time>
      </trkpt>
      <trkpt lat="44.09503" lon="7.05564">
        <ele>1001.3</ele>
        <time>2022-06-11T10:53:30Z</time>
      </trkpt>
      <trkpt lat="44.09501" lon="7.05565">
        <ele>1002</ele>
        <time>2022-06-11T10:53:31Z</time>
      </trkpt>
      <trkpt lat="44.09498" lon="7.05565">
        <ele>1002.7</ele>
        <time>2022-06-11T10:53:32Z</time>
      </trkpt>
      <trkpt lat="44.09496" lon="7.05565">
        <ele>1003.7</ele>
        <time>2022-06-11T10:53:33Z</time>
      </trkpt>
      <trkpt lat="44.09494" lon="7.05565">
        <ele>1004.6</ele>
        <time>2022-06-11T10:53:34Z</time>
      </trkpt>
      <trkpt lat="44.09492" lon="7.05565">
        <ele>1005.6</ele>
        <time>2022-06-11T10:53:35Z</time>
      </trkpt>
      <trkpt lat="44.09489" lon="7.05566">
        <ele>1006.2</ele>
        <time>2022-06-11T10:53:36Z</time>
      </trkpt>
      <trkpt lat="44.09487" lon="7.05567">
        <ele>1006.4</ele>
        <time>2022-06-11T10:53:37Z</time>
      </trkpt>
      <trkpt lat="44.09485" lon="7.05568">
        <ele>1006.7</ele>
        <time>2022-06-11T10:53:38Z</time>
      </trkpt>
      <trkpt lat="44.09484" lon="7.05569">
        <ele>1006.8</ele>
        <time>2022-06-11T10:53:39Z</time>
      </trkpt>
      <trkpt lat="44.09481" lon="7.0557">
        <ele>1006.5</ele>
        <time>2022-06-11T10:53:40Z</time>
      </trkpt>
      <trkpt lat="44.0948" lon="7.05572">
        <ele>1006.3</ele>
        <time>2022-06-11T10:53:41Z</time>
      </trkpt>
      <trkpt lat="44.09478" lon="7.05573">
        <ele>1005.9</ele>
        <time>2022-06-11T10:53:42Z</time>
      </trkpt>
      <trkpt lat="44.09476" lon="7.05574">
        <ele>1006.1</ele>
        <time>2022-06-11T10:53:43Z</time>
      </trkpt>
      <trkpt lat="44.09474" lon="7.05575">
        <ele>1006.4</ele>
        <time>2022-06-11T10:53:44Z</time>
      </trkpt>
      <trkpt lat="44.09472" lon="7.05576">
        <ele>1006.7</ele>
        <time>2022-06-11T10:53:45Z</time>
      </trkpt>
      <trkpt lat="44.0947" lon="7.05577">
        <ele>1007.3</ele>
        <time>2022-06-11T10:53:46Z</time>
      </trkpt>
      <trkpt lat="44.09468" lon="7.05578">
        <ele>1007.9</ele>
        <time>2022-06-11T10:53:47Z</time>
      </trkpt>
      <trkpt lat="44.09466" lon="7.05579">
        <ele>1008.3</ele>
        <time>2022-06-11T10:53:48Z</time>
      </trkpt>
      <trkpt lat="44.09463" lon="7.05581">
        <ele>1008.4</ele>
        <time>2022-06-11T10:53:49Z</time>
      </trkpt>
      <trkpt lat="44.09461" lon="7.05583">
        <ele>1008.2</ele>
        <time>2022-06-11T10:53:50Z</time>
      </trkpt>
      <trkpt lat="44.09459" lon="7.05585">
        <ele>1008.4</ele>
        <time>2022-06-11T10:53:51Z</time>
      </trkpt>
      <trkpt lat="44.09457" lon="7.05586">
        <ele>1008.7</ele>
        <time>2022-06-11T10:53:52Z</time>
      </trkpt>
      <trkpt lat="44.09455" lon="7.05588">
        <ele>1008.2</ele>
        <time>2022-06-11T10:53:53Z</time>
      </trkpt>
      <trkpt lat="44.09453" lon="7.0559">
        <ele>1008.1</ele>
        <time>2022-06-11T10:53:54Z</time>
      </trkpt>
      <trkpt lat="44.09451" lon="7.05592">
        <ele>1008</ele>
        <time>2022-06-11T10:53:55Z</time>
      </trkpt>
      <trkpt lat="44.09449" lon="7.05593">
        <ele>1008.6</ele>
        <time>2022-06-11T10:53:56Z</time>
      </trkpt>
      <trkpt lat="44.09447" lon="7.05594">
        <ele>1009.1</ele>
        <time>2022-06-11T10:53:57Z</time>
      </trkpt>
      <trkpt lat="44.09445" lon="7.05595">
        <ele>1009.2</ele>
        <time>2022-06-11T10:53:58Z</time>
      </trkpt>
      <trkpt lat="44.09444" lon="7.05596">
        <ele>1009.2</ele>
        <time>2022-06-11T10:53:59Z</time>
      </trkpt>
      <trkpt lat="44.09442" lon="7.05598">
        <ele>1009</ele>
        <time>2022-06-11T10:54:00Z</time>
      </trkpt>
      <trkpt lat="44.09441" lon="7.056">
        <ele>1008.8</ele>
        <time>2022-06-11T10:54:01Z</time>
      </trkpt>
      <trkpt lat="44.09439" lon="7.05602">
        <ele>1008.6</ele>
        <time>2022-06-11T10:54:02Z</time>
      </trkpt>
      <trkpt lat="44.09438" lon="7.05604">
        <ele>1008.1</ele>
        <time>2022-06-11T10:54:03Z</time>
      </trkpt>
      <trkpt lat="44.09436" lon="7.05606">
        <ele>1008</ele>
        <time>2022-06-11T10:54:04Z</time>
      </trkpt>
      <trkpt lat="44.09434" lon="7.05607">
        <ele>1008</ele>
        <time>2022-06-11T10:54:05Z</time>
      </trkpt>
      <trkpt lat="44.09433" lon="7.05609">
        <ele>1008</ele>
        <time>2022-06-11T10:54:06Z</time>
      </trkpt>
      <trkpt lat="44.09431" lon="7.05609">
        <ele>1008.5</ele>
        <time>2022-06-11T10:54:07Z</time>
      </trkpt>
      <trkpt lat="44.09429" lon="7.05611">
        <ele>1008.4</ele>
        <time>2022-06-11T10:54:08Z</time>
      </trkpt>
      <trkpt lat="44.09427" lon="7.05613">
        <ele>1008.8</ele>
        <time>2022-06-11T10:54:09Z</time>
      </trkpt>
      <trkpt lat="44.09426" lon="7.05614">
        <ele>1008.7</ele>
        <time>2022-06-11T10:54:10Z</time>
      </trkpt>
      <trkpt lat="44.09424" lon="7.05616">
        <ele>1009.1</ele>
        <time>2022-06-11T10:54:11Z</time>
      </trkpt>
      <trkpt lat="44.09422" lon="7.05616">
        <ele>1009.9</ele>
        <time>2022-06-11T10:54:12Z</time>
      </trkpt>
      <trkpt lat="44.09421" lon="7.05617">
        <ele>1010.1</ele>
        <time>2022-06-11T10:54:13Z</time>
      </trkpt>
      <trkpt lat="44.09419" lon="7.05619">
        <ele>1010.4</ele>
        <time>2022-06-11T10:54:14Z</time>
      </trkpt>
      <trkpt lat="44.09417" lon="7.0562">
        <ele>1010.6</ele>
        <time>2022-06-11T10:54:15Z</time>
      </trkpt>
      <trkpt lat="44.09415" lon="7.05623">
        <ele>1010.2</ele>
        <time>2022-06-11T10:54:16Z</time>
      </trkpt>
      <trkpt lat="44.09413" lon="7.05625">
        <ele>1010</ele>
        <time>2022-06-11T10:54:17Z</time>
      </trkpt>
      <trkpt lat="44.09411" lon="7.05627">
        <ele>1010.2</ele>
        <time>2022-06-11T10:54:18Z</time>
      </trkpt>
      <trkpt lat="44.0941" lon="7.05629">
        <ele>1009.9</ele>
        <time>2022-06-11T10:54:19Z</time>
      </trkpt>
      <trkpt lat="44.09408" lon="7.05631">
        <ele>1010.1</ele>
        <time>2022-06-11T10:54:20Z</time>
      </trkpt>
      <trkpt lat="44.09406" lon="7.05633">
        <ele>1010.3</ele>
        <time>2022-06-11T10:54:21Z</time>
      </trkpt>
      <trkpt lat="44.09404" lon="7.05635">
        <ele>1010.3</ele>
        <time>2022-06-11T10:54:22Z</time>
      </trkpt>
      <trkpt lat="44.09402" lon="7.05637">
        <ele>1010.6</ele>
        <time>2022-06-11T10:54:23Z</time>
      </trkpt>
      <trkpt lat="44.094" lon="7.05639">
        <ele>1010.9</ele>
        <time>2022-06-11T10:54:24Z</time>
      </trkpt>
      <trkpt lat="44.09398" lon="7.0564">
        <ele>1011</ele>
        <time>2022-06-11T10:54:25Z</time>
      </trkpt>
      <trkpt lat="44.09397" lon="7.05642">
        <ele>1010.7</ele>
        <time>2022-06-11T10:54:26Z</time>
      </trkpt>
      <trkpt lat="44.09395" lon="7.05644">
        <ele>1010.9</ele>
        <time>2022-06-11T10:54:27Z</time>
      </trkpt>
      <trkpt lat="44.09394" lon="7.05646">
        <ele>1010.6</ele>
        <time>2022-06-11T10:54:28Z</time>
      </trkpt>
      <trkpt lat="44.09392" lon="7.05647">
        <ele>1010.9</ele>
        <time>2022-06-11T10:54:29Z</time>
      </trkpt>
      <trkpt lat="44.0939" lon="7.05649">
        <ele>1011.3</ele>
        <time>2022-06-11T10:54:30Z</time>
      </trkpt>
      <trkpt lat="44.09389" lon="7.0565">
        <ele>1011.5</ele>
        <time>2022-06-11T10:54:31Z</time>
      </trkpt>
      <trkpt lat="44.09387" lon="7.05652">
        <ele>1011.8</ele>
        <time>2022-06-11T10:54:32Z</time>
      </trkpt>
      <trkpt lat="44.09385" lon="7.05654">
        <ele>1011.5</ele>
        <time>2022-06-11T10:54:33Z</time>
      </trkpt>
      <trkpt lat="44.09383" lon="7.05656">
        <ele>1011.3</ele>
        <time>2022-06-11T10:54:34Z</time>
      </trkpt>
      <trkpt lat="44.09381" lon="7.05658">
        <ele>1011.2</ele>
        <time>2022-06-11T10:54:35Z</time>
      </trkpt>
      <trkpt lat="44.0938" lon="7.0566">
        <ele>1011</ele>
        <time>2022-06-11T10:54:36Z</time>
      </trkpt>
      <trkpt lat="44.09378" lon="7.05662">
        <ele>1010.9</ele>
        <time>2022-06-11T10:54:37Z</time>
      </trkpt>
      <trkpt lat="44.09376" lon="7.05665">
        <ele>1010.7</ele>
        <time>2022-06-11T10:54:38Z</time>
      </trkpt>
      <trkpt lat="44.09374" lon="7.05666">
        <ele>1011</ele>
        <time>2022-06-11T10:54:39Z</time>
      </trkpt>
      <trkpt lat="44.09372" lon="7.05668">
        <ele>1011.1</ele>
        <time>2022-06-11T10:54:40Z</time>
      </trkpt>
      <trkpt lat="44.0937" lon="7.0567">
        <ele>1011.7</ele>
        <time>2022-06-11T10:54:41Z</time>
      </trkpt>
      <trkpt lat="44.09368" lon="7.05671">
        <ele>1012.1</ele>
        <time>2022-06-11T10:54:42Z</time>
      </trkpt>
      <trkpt lat="44.09366" lon="7.05673">
        <ele>1012.4</ele>
        <time>2022-06-11T10:54:43Z</time>
      </trkpt>
      <trkpt lat="44.09364" lon="7.05674">
        <ele>1013</ele>
        <time>2022-06-11T10:54:44Z</time>
      </trkpt>
      <trkpt lat="44.09363" lon="7.05675">
        <ele>1013.1</ele>
        <time>2022-06-11T10:54:45Z</time>
      </trkpt>
      <trkpt lat="44.09361" lon="7.05677">
        <ele>1013.1</ele>
        <time>2022-06-11T10:54:46Z</time>
      </trkpt>
      <trkpt lat="44.09359" lon="7.05679">
        <ele>1012.9</ele>
        <time>2022-06-11T10:54:47Z</time>
      </trkpt>
      <trkpt lat="44.09357" lon="7.05681">
        <ele>1012.6</ele>
        <time>2022-06-11T10:54:48Z</time>
      </trkpt>
      <trkpt lat="44.09355" lon="7.05683">
        <ele>1012</ele>
        <time>2022-06-11T10:54:49Z</time>
      </trkpt>
      <trkpt lat="44.09354" lon="7.05685">
        <ele>1011.4</ele>
        <time>2022-06-11T10:54:50Z</time>
      </trkpt>
      <trkpt lat="44.09352" lon="7.05687">
        <ele>1011.1</ele>
        <time>2022-06-11T10:54:51Z</time>
      </trkpt>
      <trkpt lat="44.0935" lon="7.05689">
        <ele>1011</ele>
        <time>2022-06-11T10:54:52Z</time>
      </trkpt>
      <trkpt lat="44.09348" lon="7.05691">
        <ele>1010.8</ele>
        <time>2022-06-11T10:54:53Z</time>
      </trkpt>
      <trkpt lat="44.09347" lon="7.05693">
        <ele>1010.4</ele>
        <time>2022-06-11T10:54:54Z</time>
      </trkpt>
      <trkpt lat="44.09345" lon="7.05695">
        <ele>1010</ele>
        <time>2022-06-11T10:54:55Z</time>
      </trkpt>
      <trkpt lat="44.09343" lon="7.05697">
        <ele>1009.6</ele>
        <time>2022-06-11T10:54:56Z</time>
      </trkpt>
      <trkpt lat="44.09341" lon="7.057">
        <ele>1009.1</ele>
        <time>2022-06-11T10:54:57Z</time>
      </trkpt>
      <trkpt lat="44.0934" lon="7.05702">
        <ele>1008.6</ele>
        <time>2022-06-11T10:54:58Z</time>
      </trkpt>
      <trkpt lat="44.09338" lon="7.05705">
        <ele>1007.8</ele>
        <time>2022-06-11T10:54:59Z</time>
      </trkpt>
      <trkpt lat="44.09336" lon="7.05707">
        <ele>1007.3</ele>
        <time>2022-06-11T10:55:00Z</time>
      </trkpt>
      <trkpt lat="44.09335" lon="7.05709">
        <ele>1006.9</ele>
        <time>2022-06-11T10:55:01Z</time>
      </trkpt>
      <trkpt lat="44.09333" lon="7.05711">
        <ele>1006.5</ele>
        <time>2022-06-11T10:55:02Z</time>
      </trkpt>
      <trkpt lat="44.09331" lon="7.05713">
        <ele>1006.2</ele>
        <time>2022-06-11T10:55:03Z</time>
      </trkpt>
      <trkpt lat="44.09329" lon="7.05714">
        <ele>1006.5</ele>
        <time>2022-06-11T10:55:04Z</time>
      </trkpt>
      <trkpt lat="44.09327" lon="7.05715">
        <ele>1006.4</ele>
        <time>2022-06-11T10:55:05Z</time>
      </trkpt>
      <trkpt lat="44.09325" lon="7.05716">
        <ele>1006.7</ele>
        <time>2022-06-11T10:55:06Z</time>
      </trkpt>
      <trkpt lat="44.09323" lon="7.05718">
        <ele>1006.5</ele>
        <time>2022-06-11T10:55:07Z</time>
      </trkpt>
      <trkpt lat="44.09321" lon="7.05719">
        <ele>1006.8</ele>
        <time>2022-06-11T10:55:08Z</time>
      </trkpt>
      <trkpt lat="44.09319" lon="7.0572">
        <ele>1006.6</ele>
        <time>2022-06-11T10:55:09Z</time>
      </trkpt>
      <trkpt lat="44.09316" lon="7.05721">
        <ele>1007</ele>
        <time>2022-06-11T10:55:10Z</time>
      </trkpt>
      <trkpt lat="44.09314" lon="7.05722">
        <ele>1007.6</ele>
        <time>2022-06-11T10:55:11Z</time>
      </trkpt>
      <trkpt lat="44.09312" lon="7.05723">
        <ele>1008</ele>
        <time>2022-06-11T10:55:12Z</time>
      </trkpt>
      <trkpt lat="44.0931" lon="7.05723">
        <ele>1008.6</ele>
        <time>2022-06-11T10:55:13Z</time>
      </trkpt>
      <trkpt lat="44.09308" lon="7.05724">
        <ele>1008.9</ele>
        <time>2022-06-11T10:55:14Z</time>
      </trkpt>
      <trkpt lat="44.09306" lon="7.05725">
        <ele>1009.3</ele>
        <time>2022-06-11T10:55:15Z</time>
      </trkpt>
      <trkpt lat="44.09304" lon="7.05725">
        <ele>1009.8</ele>
        <time>2022-06-11T10:55:16Z</time>
      </trkpt>
      <trkpt lat="44.09302" lon="7.05725">
        <ele>1010.7</ele>
        <time>2022-06-11T10:55:17Z</time>
      </trkpt>
      <trkpt lat="44.093" lon="7.05725">
        <ele>1011.7</ele>
        <time>2022-06-11T10:55:18Z</time>
      </trkpt>
      <trkpt lat="44.09297" lon="7.05725">
        <ele>1012.4</ele>
        <time>2022-06-11T10:55:19Z</time>
      </trkpt>
      <trkpt lat="44.09295" lon="7.05725">
        <ele>1013.5</ele>
        <time>2022-06-11T10:55:20Z</time>
      </trkpt>
      <trkpt lat="44.09293" lon="7.05724">
        <ele>1014.7</ele>
        <time>2022-06-11T10:55:21Z</time>
      </trkpt>
      <trkpt lat="44.09291" lon="7.05722">
        <ele>1016.1</ele>
        <time>2022-06-11T10:55:22Z</time>
      </trkpt>
      <trkpt lat="44.09289" lon="7.05721">
        <ele>1017.4</ele>
        <time>2022-06-11T10:55:23Z</time>
      </trkpt>
      <trkpt lat="44.09287" lon="7.05721">
        <ele>1018.5</ele>
        <time>2022-06-11T10:55:24Z</time>
      </trkpt>
      <trkpt lat="44.09285" lon="7.0572">
        <ele>1019.7</ele>
        <time>2022-06-11T10:55:25Z</time>
      </trkpt>
      <trkpt lat="44.09283" lon="7.05719">
        <ele>1020.7</ele>
        <time>2022-06-11T10:55:26Z</time>
      </trkpt>
      <trkpt lat="44.09281" lon="7.05719">
        <ele>1021.8</ele>
        <time>2022-06-11T10:55:27Z</time>
      </trkpt>
      <trkpt lat="44.09279" lon="7.05718">
        <ele>1022.7</ele>
        <time>2022-06-11T10:55:28Z</time>
      </trkpt>
      <trkpt lat="44.09277" lon="7.05718">
        <ele>1023.4</ele>
        <time>2022-06-11T10:55:29Z</time>
      </trkpt>
      <trkpt lat="44.09275" lon="7.05718">
        <ele>1024.5</ele>
        <time>2022-06-11T10:55:30Z</time>
      </trkpt>
      <trkpt lat="44.09273" lon="7.05718">
        <ele>1025.5</ele>
        <time>2022-06-11T10:55:31Z</time>
      </trkpt>
      <trkpt lat="44.09271" lon="7.05718">
        <ele>1026.3</ele>
        <time>2022-06-11T10:55:32Z</time>
      </trkpt>
      <trkpt lat="44.09269" lon="7.05719">
        <ele>1027.2</ele>
        <time>2022-06-11T10:55:33Z</time>
      </trkpt>
      <trkpt lat="44.09267" lon="7.05719">
        <ele>1027.9</ele>
        <time>2022-06-11T10:55:34Z</time>
      </trkpt>
      <trkpt lat="44.09265" lon="7.0572">
        <ele>1028.4</ele>
        <time>2022-06-11T10:55:35Z</time>
      </trkpt>
      <trkpt lat="44.09263" lon="7.0572">
        <ele>1029.2</ele>
        <time>2022-06-11T10:55:36Z</time>
      </trkpt>
      <trkpt lat="44.09261" lon="7.0572">
        <ele>1030.1</ele>
        <time>2022-06-11T10:55:37Z</time>
      </trkpt>
      <trkpt lat="44.09259" lon="7.05721">
        <ele>1030.7</ele>
        <time>2022-06-11T10:55:38Z</time>
      </trkpt>
      <trkpt lat="44.09257" lon="7.05722">
        <ele>1030.8</ele>
        <time>2022-06-11T10:55:39Z</time>
      </trkpt>
      <trkpt lat="44.09256" lon="7.05723">
        <ele>1031</ele>
        <time>2022-06-11T10:55:40Z</time>
      </trkpt>
      <trkpt lat="44.09254" lon="7.05725">
        <ele>1031.1</ele>
        <time>2022-06-11T10:55:41Z</time>
      </trkpt>
      <trkpt lat="44.09252" lon="7.05726">
        <ele>1031.4</ele>
        <time>2022-06-11T10:55:42Z</time>
      </trkpt>
      <trkpt lat="44.0925" lon="7.05727">
        <ele>1031.3</ele>
        <time>2022-06-11T10:55:43Z</time>
      </trkpt>
      <trkpt lat="44.09249" lon="7.05729">
        <ele>1031.1</ele>
        <time>2022-06-11T10:55:44Z</time>
      </trkpt>
      <trkpt lat="44.09247" lon="7.05731">
        <ele>1030.8</ele>
        <time>2022-06-11T10:55:45Z</time>
      </trkpt>
      <trkpt lat="44.09245" lon="7.05733">
        <ele>1030.4</ele>
        <time>2022-06-11T10:55:46Z</time>
      </trkpt>
      <trkpt lat="44.09243" lon="7.05735">
        <ele>1030</ele>
        <time>2022-06-11T10:55:47Z</time>
      </trkpt>
      <trkpt lat="44.09242" lon="7.05737">
        <ele>1029.4</ele>
        <time>2022-06-11T10:55:48Z</time>
      </trkpt>
      <trkpt lat="44.0924" lon="7.05739">
        <ele>1029.2</ele>
        <time>2022-06-11T10:55:49Z</time>
      </trkpt>
      <trkpt lat="44.09238" lon="7.05741">
        <ele>1028.5</ele>
        <time>2022-06-11T10:55:50Z</time>
      </trkpt>
      <trkpt lat="44.09237" lon="7.05744">
        <ele>1027.7</ele>
        <time>2022-06-11T10:55:51Z</time>
      </trkpt>
      <trkpt lat="44.09235" lon="7.05746">
        <ele>1027.2</ele>
        <time>2022-06-11T10:55:52Z</time>
      </trkpt>
      <trkpt lat="44.09233" lon="7.05749">
        <ele>1026.5</ele>
        <time>2022-06-11T10:55:53Z</time>
      </trkpt>
      <trkpt lat="44.09231" lon="7.05751">
        <ele>1025.8</ele>
        <time>2022-06-11T10:55:54Z</time>
      </trkpt>
      <trkpt lat="44.09229" lon="7.05754">
        <ele>1025.2</ele>
        <time>2022-06-11T10:55:55Z</time>
      </trkpt>
      <trkpt lat="44.09228" lon="7.05757">
        <ele>1024.2</ele>
        <time>2022-06-11T10:55:56Z</time>
      </trkpt>
      <trkpt lat="44.09226" lon="7.05759">
        <ele>1024</ele>
        <time>2022-06-11T10:55:57Z</time>
      </trkpt>
      <trkpt lat="44.09224" lon="7.05762">
        <ele>1023.6</ele>
        <time>2022-06-11T10:55:58Z</time>
      </trkpt>
      <trkpt lat="44.09222" lon="7.05763">
        <ele>1023.4</ele>
        <time>2022-06-11T10:55:59Z</time>
      </trkpt>
      <trkpt lat="44.0922" lon="7.05765">
        <ele>1023.5</ele>
        <time>2022-06-11T10:56:00Z</time>
      </trkpt>
      <trkpt lat="44.09218" lon="7.05766">
        <ele>1023.6</ele>
        <time>2022-06-11T10:56:01Z</time>
      </trkpt>
      <trkpt lat="44.09215" lon="7.05766">
        <ele>1024</ele>
        <time>2022-06-11T10:56:02Z</time>
      </trkpt>
      <trkpt lat="44.09213" lon="7.05767">
        <ele>1024.1</ele>
        <time>2022-06-11T10:56:03Z</time>
      </trkpt>
      <trkpt lat="44.09211" lon="7.05766">
        <ele>1025.2</ele>
        <time>2022-06-11T10:56:04Z</time>
      </trkpt>
      <trkpt lat="44.09209" lon="7.05766">
        <ele>1026.3</ele>
        <time>2022-06-11T10:56:05Z</time>
      </trkpt>
      <trkpt lat="44.09207" lon="7.05765">
        <ele>1027.4</ele>
        <time>2022-06-11T10:56:06Z</time>
      </trkpt>
      <trkpt lat="44.09205" lon="7.05764">
        <ele>1028.6</ele>
        <time>2022-06-11T10:56:07Z</time>
      </trkpt>
      <trkpt lat="44.09202" lon="7.05762">
        <ele>1029.9</ele>
        <time>2022-06-11T10:56:08Z</time>
      </trkpt>
      <trkpt lat="44.092" lon="7.05761">
        <ele>1031.5</ele>
        <time>2022-06-11T10:56:09Z</time>
      </trkpt>
      <trkpt lat="44.09198" lon="7.05759">
        <ele>1032.9</ele>
        <time>2022-06-11T10:56:10Z</time>
      </trkpt>
      <trkpt lat="44.09196" lon="7.05758">
        <ele>1034.1</ele>
        <time>2022-06-11T10:56:11Z</time>
      </trkpt>
      <trkpt lat="44.09194" lon="7.05757">
        <ele>1035.7</ele>
        <time>2022-06-11T10:56:12Z</time>
      </trkpt>
      <trkpt lat="44.09192" lon="7.05756">
        <ele>1037.6</ele>
        <time>2022-06-11T10:56:13Z</time>
      </trkpt>
      <trkpt lat="44.09189" lon="7.05755">
        <ele>1039.3</ele>
        <time>2022-06-11T10:56:14Z</time>
      </trkpt>
      <trkpt lat="44.09187" lon="7.05754">
        <ele>1041.1</ele>
        <time>2022-06-11T10:56:15Z</time>
      </trkpt>
      <trkpt lat="44.09185" lon="7.05753">
        <ele>1042.9</ele>
        <time>2022-06-11T10:56:16Z</time>
      </trkpt>
      <trkpt lat="44.09182" lon="7.05753">
        <ele>1044.3</ele>
        <time>2022-06-11T10:56:17Z</time>
      </trkpt>
      <trkpt lat="44.09181" lon="7.05753">
        <ele>1045.1</ele>
        <time>2022-06-11T10:56:18Z</time>
      </trkpt>
      <trkpt lat="44.0918" lon="7.05753">
        <ele>1045.4</ele>
        <time>2022-06-11T10:56:19Z</time>
      </trkpt>
      <trkpt lat="44.0918" lon="7.05753">
        <ele>1045.6</ele>
        <time>2022-06-11T10:56:20Z</time>
      </trkpt>
      <trkpt lat="44.0918" lon="7.05753">
        <ele>1045.4</ele>
        <time>2022-06-11T10:56:21Z</time>
      </trkpt>
      <trkpt lat="44.09181" lon="7.05753">
        <ele>1044.8</ele>
        <time>2022-06-11T10:56:22Z</time>
      </trkpt>
      <trkpt lat="44.09182" lon="7.05753">
        <ele>1044.5</ele>
        <time>2022-06-11T10:56:23Z</time>
      </trkpt>
      <trkpt lat="44.09182" lon="7.05753">
        <ele>1044.6</ele>
        <time>2022-06-11T10:56:24Z</time>
      </trkpt>
      <trkpt lat="44.09182" lon="7.05753">
        <ele>1044.6</ele>
        <time>2022-06-11T10:56:25Z</time>
      </trkpt>
      <trkpt lat="44.09176" lon="7.05755">
        <ele>1046.6</ele>
        <time>2022-06-11T10:57:43Z</time>
      </trkpt>
      <trkpt lat="44.09175" lon="7.05758">
        <ele>1046</ele>
        <time>2022-06-11T10:57:44Z</time>
      </trkpt>
      <trkpt lat="44.09173" lon="7.0576">
        <ele>1045.3</ele>
        <time>2022-06-11T10:57:45Z</time>
      </trkpt>
      <trkpt lat="44.09172" lon="7.05763">
        <ele>1044.5</ele>
        <time>2022-06-11T10:57:46Z</time>
      </trkpt>
      <trkpt lat="44.09171" lon="7.05766">
        <ele>1043.4</ele>
        <time>2022-06-11T10:57:47Z</time>
      </trkpt>
      <trkpt lat="44.0917" lon="7.05768">
        <ele>1042.2</ele>
        <time>2022-06-11T10:57:48Z</time>
      </trkpt>
      <trkpt lat="44.09169" lon="7.05771">
        <ele>1041.1</ele>
        <time>2022-06-11T10:57:49Z</time>
      </trkpt>
      <trkpt lat="44.09169" lon="7.05773">
        <ele>1039.9</ele>
        <time>2022-06-11T10:57:50Z</time>
      </trkpt>
      <trkpt lat="44.09168" lon="7.05776">
        <ele>1038.6</ele>
        <time>2022-06-11T10:57:51Z</time>
      </trkpt>
      <trkpt lat="44.09167" lon="7.05779">
        <ele>1037.6</ele>
        <time>2022-06-11T10:57:52Z</time>
      </trkpt>
      <trkpt lat="44.09165" lon="7.05781">
        <ele>1037.9</ele>
        <time>2022-06-11T10:57:53Z</time>
      </trkpt>
      <trkpt lat="44.09163" lon="7.05784">
        <ele>1038.1</ele>
        <time>2022-06-11T10:57:54Z</time>
      </trkpt>
      <trkpt lat="44.09162" lon="7.05786">
        <ele>1038.5</ele>
        <time>2022-06-11T10:57:55Z</time>
      </trkpt>
      <trkpt lat="44.0916" lon="7.05788">
        <ele>1039.1</ele>
        <time>2022-06-11T10:57:56Z</time>
      </trkpt>
      <trkpt lat="44.09158" lon="7.0579">
        <ele>1039.7</ele>
        <time>2022-06-11T10:57:57Z</time>
      </trkpt>
      <trkpt lat="44.09156" lon="7.05791">
        <ele>1040.5</ele>
        <time>2022-06-11T10:57:58Z</time>
      </trkpt>
      <trkpt lat="44.09155" lon="7.05793">
        <ele>1041.1</ele>
        <time>2022-06-11T10:57:59Z</time>
      </trkpt>
      <trkpt lat="44.09153" lon="7.05795">
        <ele>1041.5</ele>
        <time>2022-06-11T10:58:00Z</time>
      </trkpt>
      <trkpt lat="44.09151" lon="7.05797">
        <ele>1042.1</ele>
        <time>2022-06-11T10:58:01Z</time>
      </trkpt>
      <trkpt lat="44.0915" lon="7.05798">
        <ele>1042.9</ele>
        <time>2022-06-11T10:58:02Z</time>
      </trkpt>
      <trkpt lat="44.09148" lon="7.058">
        <ele>1043.6</ele>
        <time>2022-06-11T10:58:03Z</time>
      </trkpt>
      <trkpt lat="44.09146" lon="7.05802">
        <ele>1044.2</ele>
        <time>2022-06-11T10:58:04Z</time>
      </trkpt>
      <trkpt lat="44.09144" lon="7.05804">
        <ele>1044.9</ele>
        <time>2022-06-11T10:58:05Z</time>
      </trkpt>
      <trkpt lat="44.09143" lon="7.05806">
        <ele>1045.3</ele>
        <time>2022-06-11T10:58:06Z</time>
      </trkpt>
      <trkpt lat="44.09141" lon="7.05807">
        <ele>1045.9</ele>
        <time>2022-06-11T10:58:07Z</time>
      </trkpt>
      <trkpt lat="44.0914" lon="7.05809">
        <ele>1046.3</ele>
        <time>2022-06-11T10:58:08Z</time>
      </trkpt>
      <trkpt lat="44.09138" lon="7.0581">
        <ele>1047.1</ele>
        <time>2022-06-11T10:58:09Z</time>
      </trkpt>
      <trkpt lat="44.09136" lon="7.05812">
        <ele>1048.3</ele>
        <time>2022-06-11T10:58:10Z</time>
      </trkpt>
      <trkpt lat="44.09135" lon="7.05814">
        <ele>1048.6</ele>
        <time>2022-06-11T10:58:11Z</time>
      </trkpt>
      <trkpt lat="44.09134" lon="7.05816">
        <ele>1049.1</ele>
        <time>2022-06-11T10:58:12Z</time>
      </trkpt>
      <trkpt lat="44.09132" lon="7.05818">
        <ele>1049.6</ele>
        <time>2022-06-11T10:58:13Z</time>
      </trkpt>
      <trkpt lat="44.09131" lon="7.05819">
        <ele>1050.4</ele>
        <time>2022-06-11T10:58:14Z</time>
      </trkpt>
      <trkpt lat="44.0913" lon="7.05821">
        <ele>1050.3</ele>
        <time>2022-06-11T10:58:15Z</time>
      </trkpt>
      <trkpt lat="44.09129" lon="7.05824">
        <ele>1050.1</ele>
        <time>2022-06-11T10:58:16Z</time>
      </trkpt>
      <trkpt lat="44.09127" lon="7.05827">
        <ele>1050.1</ele>
        <time>2022-06-11T10:58:17Z</time>
      </trkpt>
      <trkpt lat="44.09126" lon="7.05829">
        <ele>1050.1</ele>
        <time>2022-06-11T10:58:18Z</time>
      </trkpt>
      <trkpt lat="44.09125" lon="7.05831">
        <ele>1050.5</ele>
        <time>2022-06-11T10:58:19Z</time>
      </trkpt>
      <trkpt lat="44.09123" lon="7.05833">
        <ele>1050.7</ele>
        <time>2022-06-11T10:58:20Z</time>
      </trkpt>
      <trkpt lat="44.09122" lon="7.05836">
        <ele>1051.4</ele>
        <time>2022-06-11T10:58:21Z</time>
      </trkpt>
      <trkpt lat="44.0912" lon="7.05838">
        <ele>1052.6</ele>
        <time>2022-06-11T10:58:22Z</time>
      </trkpt>
      <trkpt lat="44.09118" lon="7.05841">
        <ele>1052.6</ele>
        <time>2022-06-11T10:58:23Z</time>
      </trkpt>
      <trkpt lat="44.09116" lon="7.05844">
        <ele>1053.3</ele>
        <time>2022-06-11T10:58:24Z</time>
      </trkpt>
      <trkpt lat="44.09115" lon="7.05847">
        <ele>1053.1</ele>
        <time>2022-06-11T10:58:25Z</time>
      </trkpt>
      <trkpt lat="44.09113" lon="7.0585">
        <ele>1053.1</ele>
        <time>2022-06-11T10:58:26Z</time>
      </trkpt>
      <trkpt lat="44.09112" lon="7.05852">
        <ele>1052.7</ele>
        <time>2022-06-11T10:58:27Z</time>
      </trkpt>
      <trkpt lat="44.09111" lon="7.05855">
        <ele>1052.5</ele>
        <time>2022-06-11T10:58:28Z</time>
      </trkpt>
      <trkpt lat="44.09109" lon="7.05857">
        <ele>1052</ele>
        <time>2022-06-11T10:58:29Z</time>
      </trkpt>
      <trkpt lat="44.09108" lon="7.0586">
        <ele>1051.8</ele>
        <time>2022-06-11T10:58:30Z</time>
      </trkpt>
      <trkpt lat="44.09107" lon="7.05863">
        <ele>1051.3</ele>
        <time>2022-06-11T10:58:31Z</time>
      </trkpt>
      <trkpt lat="44.09105" lon="7.05865">
        <ele>1051.4</ele>
        <time>2022-06-11T10:58:32Z</time>
      </trkpt>
      <trkpt lat="44.09104" lon="7.05867">
        <ele>1051.1</ele>
        <time>2022-06-11T10:58:33Z</time>
      </trkpt>
      <trkpt lat="44.09103" lon="7.0587">
        <ele>1050.4</ele>
        <time>2022-06-11T10:58:34Z</time>
      </trkpt>
      <trkpt lat="44.09103" lon="7.05872">
        <ele>1049.6</ele>
        <time>2022-06-11T10:58:35Z</time>
      </trkpt>
      <trkpt lat="44.09102" lon="7.05874">
        <ele>1048.8</ele>
        <time>2022-06-11T10:58:36Z</time>
      </trkpt>
      <trkpt lat="44.09101" lon="7.05876">
        <ele>1048.4</ele>
        <time>2022-06-11T10:58:37Z</time>
      </trkpt>
      <trkpt lat="44.091" lon="7.05879">
        <ele>1047.8</ele>
        <time>2022-06-11T10:58:38Z</time>
      </trkpt>
      <trkpt lat="44.09099" lon="7.05881">
        <ele>1047.4</ele>
        <time>2022-06-11T10:58:39Z</time>
      </trkpt>
      <trkpt lat="44.09098" lon="7.05884">
        <ele>1046.6</ele>
        <time>2022-06-11T10:58:40Z</time>
      </trkpt>
      <trkpt lat="44.09097" lon="7.05886">
        <ele>1046.4</ele>
        <time>2022-06-11T10:58:41Z</time>
      </trkpt>
      <trkpt lat="44.09096" lon="7.05889">
        <ele>1045.6</ele>
        <time>2022-06-11T10:58:42Z</time>
      </trkpt>
      <trkpt lat="44.09096" lon="7.0589">
        <ele>1045.4</ele>
        <time>2022-06-11T10:58:43Z</time>
      </trkpt>
      <trkpt lat="44.09095" lon="7.05892">
        <ele>1044.6</ele>
        <time>2022-06-11T10:58:44Z</time>
      </trkpt>
      <trkpt lat="44.09094" lon="7.05894">
        <ele>1044.1</ele>
        <time>2022-06-11T10:58:45Z</time>
      </trkpt>
      <trkpt lat="44.09094" lon="7.05897">
        <ele>1043.4</ele>
        <time>2022-06-11T10:58:46Z</time>
      </trkpt>
      <trkpt lat="44.09093" lon="7.059">
        <ele>1042.5</ele>
        <time>2022-06-11T10:58:47Z</time>
      </trkpt>
      <trkpt lat="44.09091" lon="7.05902">
        <ele>1042</ele>
        <time>2022-06-11T10:58:48Z</time>
      </trkpt>
      <trkpt lat="44.0909" lon="7.05904">
        <ele>1041.7</ele>
        <time>2022-06-11T10:58:49Z</time>
      </trkpt>
      <trkpt lat="44.09089" lon="7.05906">
        <ele>1041.6</ele>
        <time>2022-06-11T10:58:50Z</time>
      </trkpt>
      <trkpt lat="44.09087" lon="7.05908">
        <ele>1041.8</ele>
        <time>2022-06-11T10:58:51Z</time>
      </trkpt>
      <trkpt lat="44.09085" lon="7.0591">
        <ele>1041.9</ele>
        <time>2022-06-11T10:58:52Z</time>
      </trkpt>
      <trkpt lat="44.09083" lon="7.05911">
        <ele>1042.3</ele>
        <time>2022-06-11T10:58:53Z</time>
      </trkpt>
      <trkpt lat="44.09081" lon="7.05913">
        <ele>1042.3</ele>
        <time>2022-06-11T10:58:54Z</time>
      </trkpt>
      <trkpt lat="44.09079" lon="7.05914">
        <ele>1042.6</ele>
        <time>2022-06-11T10:58:55Z</time>
      </trkpt>
      <trkpt lat="44.09077" lon="7.05915">
        <ele>1042.7</ele>
        <time>2022-06-11T10:58:56Z</time>
      </trkpt>
      <trkpt lat="44.09075" lon="7.05915">
        <ele>1043.1</ele>
        <time>2022-06-11T10:58:57Z</time>
      </trkpt>
      <trkpt lat="44.09072" lon="7.05915">
        <ele>1043.8</ele>
        <time>2022-06-11T10:58:58Z</time>
      </trkpt>
      <trkpt lat="44.0907" lon="7.05915">
        <ele>1044.6</ele>
        <time>2022-06-11T10:58:59Z</time>
      </trkpt>
      <trkpt lat="44.09068" lon="7.05914">
        <ele>1045.9</ele>
        <time>2022-06-11T10:59:00Z</time>
      </trkpt>
      <trkpt lat="44.09067" lon="7.05913">
        <ele>1047.1</ele>
        <time>2022-06-11T10:59:01Z</time>
      </trkpt>
      <trkpt lat="44.09065" lon="7.05912">
        <ele>1048.6</ele>
        <time>2022-06-11T10:59:02Z</time>
      </trkpt>
      <trkpt lat="44.09063" lon="7.05911">
        <ele>1049.8</ele>
        <time>2022-06-11T10:59:03Z</time>
      </trkpt>
      <trkpt lat="44.09061" lon="7.0591">
        <ele>1051.4</ele>
        <time>2022-06-11T10:59:04Z</time>
      </trkpt>
      <trkpt lat="44.09059" lon="7.05909">
        <ele>1052.9</ele>
        <time>2022-06-11T10:59:05Z</time>
      </trkpt>
      <trkpt lat="44.09058" lon="7.05907">
        <ele>1054.6</ele>
        <time>2022-06-11T10:59:06Z</time>
      </trkpt>
      <trkpt lat="44.09056" lon="7.05905">
        <ele>1056.4</ele>
        <time>2022-06-11T10:59:07Z</time>
      </trkpt>
      <trkpt lat="44.09054" lon="7.05904">
        <ele>1058.2</ele>
        <time>2022-06-11T10:59:08Z</time>
      </trkpt>
      <trkpt lat="44.09052" lon="7.05903">
        <ele>1060.1</ele>
        <time>2022-06-11T10:59:09Z</time>
      </trkpt>
      <trkpt lat="44.0905" lon="7.05902">
        <ele>1061.8</ele>
        <time>2022-06-11T10:59:10Z</time>
      </trkpt>
      <trkpt lat="44.09047" lon="7.05901">
        <ele>1063.3</ele>
        <time>2022-06-11T10:59:11Z</time>
      </trkpt>
      <trkpt lat="44.09045" lon="7.05902">
        <ele>1064.4</ele>
        <time>2022-06-11T10:59:12Z</time>
      </trkpt>
      <trkpt lat="44.09043" lon="7.05902">
        <ele>1065.4</ele>
        <time>2022-06-11T10:59:13Z</time>
      </trkpt>
      <trkpt lat="44.09041" lon="7.05902">
        <ele>1066.5</ele>
        <time>2022-06-11T10:59:14Z</time>
      </trkpt>
      <trkpt lat="44.09038" lon="7.05902">
        <ele>1067.6</ele>
        <time>2022-06-11T10:59:15Z</time>
      </trkpt>
      <trkpt lat="44.09036" lon="7.05902">
        <ele>1068.9</ele>
        <time>2022-06-11T10:59:16Z</time>
      </trkpt>
      <trkpt lat="44.09034" lon="7.05902">
        <ele>1069.8</ele>
        <time>2022-06-11T10:59:17Z</time>
      </trkpt>
      <trkpt lat="44.09032" lon="7.05903">
        <ele>1070.4</ele>
        <time>2022-06-11T10:59:18Z</time>
      </trkpt>
      <trkpt lat="44.0903" lon="7.05904">
        <ele>1070.8</ele>
        <time>2022-06-11T10:59:19Z</time>
      </trkpt>
      <trkpt lat="44.09028" lon="7.05905">
        <ele>1070.9</ele>
        <time>2022-06-11T10:59:20Z</time>
      </trkpt>
      <trkpt lat="44.09027" lon="7.05907">
        <ele>1071.2</ele>
        <time>2022-06-11T10:59:21Z</time>
      </trkpt>
      <trkpt lat="44.09025" lon="7.05909">
        <ele>1071.7</ele>
        <time>2022-06-11T10:59:22Z</time>
      </trkpt>
      <trkpt lat="44.09023" lon="7.05911">
        <ele>1071.9</ele>
        <time>2022-06-11T10:59:23Z</time>
      </trkpt>
      <trkpt lat="44.09023" lon="7.05914">
        <ele>1071</ele>
        <time>2022-06-11T10:59:24Z</time>
      </trkpt>
      <trkpt lat="44.09022" lon="7.05917">
        <ele>1070.3</ele>
        <time>2022-06-11T10:59:25Z</time>
      </trkpt>
      <trkpt lat="44.0902" lon="7.0592">
        <ele>1069.5</ele>
        <time>2022-06-11T10:59:26Z</time>
      </trkpt>
      <trkpt lat="44.0902" lon="7.05923">
        <ele>1067.9</ele>
        <time>2022-06-11T10:59:27Z</time>
      </trkpt>
      <trkpt lat="44.0902" lon="7.05925">
        <ele>1066.6</ele>
        <time>2022-06-11T10:59:28Z</time>
      </trkpt>
      <trkpt lat="44.09019" lon="7.05928">
        <ele>1066</ele>
        <time>2022-06-11T10:59:29Z</time>
      </trkpt>
      <trkpt lat="44.09019" lon="7.0593">
        <ele>1064.7</ele>
        <time>2022-06-11T10:59:30Z</time>
      </trkpt>
      <trkpt lat="44.09018" lon="7.05933">
        <ele>1063.5</ele>
        <time>2022-06-11T10:59:31Z</time>
      </trkpt>
      <trkpt lat="44.09017" lon="7.05936">
        <ele>1062.4</ele>
        <time>2022-06-11T10:59:32Z</time>
      </trkpt>
      <trkpt lat="44.09017" lon="7.05939">
        <ele>1061.1</ele>
        <time>2022-06-11T10:59:33Z</time>
      </trkpt>
      <trkpt lat="44.09016" lon="7.05941">
        <ele>1060.7</ele>
        <time>2022-06-11T10:59:34Z</time>
      </trkpt>
      <trkpt lat="44.09015" lon="7.05943">
        <ele>1060.2</ele>
        <time>2022-06-11T10:59:35Z</time>
      </trkpt>
      <trkpt lat="44.09014" lon="7.05946">
        <ele>1060.1</ele>
        <time>2022-06-11T10:59:36Z</time>
      </trkpt>
      <trkpt lat="44.09013" lon="7.05948">
        <ele>1059.1</ele>
        <time>2022-06-11T10:59:37Z</time>
      </trkpt>
      <trkpt lat="44.09012" lon="7.05951">
        <ele>1058.1</ele>
        <time>2022-06-11T10:59:38Z</time>
      </trkpt>
      <trkpt lat="44.09011" lon="7.05954">
        <ele>1057.4</ele>
        <time>2022-06-11T10:59:39Z</time>
      </trkpt>
      <trkpt lat="44.0901" lon="7.05956">
        <ele>1056.5</ele>
        <time>2022-06-11T10:59:40Z</time>
      </trkpt>
      <trkpt lat="44.09009" lon="7.05959">
        <ele>1055.5</ele>
        <time>2022-06-11T10:59:41Z</time>
      </trkpt>
      <trkpt lat="44.09008" lon="7.05962">
        <ele>1054.9</ele>
        <time>2022-06-11T10:59:42Z</time>
      </trkpt>
      <trkpt lat="44.09006" lon="7.05965">
        <ele>1054.8</ele>
        <time>2022-06-11T10:59:43Z</time>
      </trkpt>
      <trkpt lat="44.09005" lon="7.05967">
        <ele>1054.9</ele>
        <time>2022-06-11T10:59:44Z</time>
      </trkpt>
      <trkpt lat="44.09003" lon="7.05969">
        <ele>1055</ele>
        <time>2022-06-11T10:59:45Z</time>
      </trkpt>
      <trkpt lat="44.09002" lon="7.05971">
        <ele>1055.5</ele>
        <time>2022-06-11T10:59:46Z</time>
      </trkpt>
      <trkpt lat="44.09" lon="7.05973">
        <ele>1056.2</ele>
        <time>2022-06-11T10:59:47Z</time>
      </trkpt>
      <trkpt lat="44.08998" lon="7.05974">
        <ele>1057.4</ele>
        <time>2022-06-11T10:59:48Z</time>
      </trkpt>
      <trkpt lat="44.08996" lon="7.05975">
        <ele>1058.6</ele>
        <time>2022-06-11T10:59:49Z</time>
      </trkpt>
      <trkpt lat="44.08995" lon="7.05976">
        <ele>1059.2</ele>
        <time>2022-06-11T10:59:50Z</time>
      </trkpt>
      <trkpt lat="44.08993" lon="7.05977">
        <ele>1060</ele>
        <time>2022-06-11T10:59:51Z</time>
      </trkpt>
      <trkpt lat="44.08992" lon="7.05978">
        <ele>1060.8</ele>
        <time>2022-06-11T10:59:52Z</time>
      </trkpt>
      <trkpt lat="44.0899" lon="7.05979">
        <ele>1062.1</ele>
        <time>2022-06-11T10:59:53Z</time>
      </trkpt>
      <trkpt lat="44.08989" lon="7.05979">
        <ele>1063.2</ele>
        <time>2022-06-11T10:59:54Z</time>
      </trkpt>
      <trkpt lat="44.08987" lon="7.0598">
        <ele>1064.3</ele>
        <time>2022-06-11T10:59:55Z</time>
      </trkpt>
      <trkpt lat="44.08986" lon="7.05981">
        <ele>1065.6</ele>
        <time>2022-06-11T10:59:56Z</time>
      </trkpt>
      <trkpt lat="44.08984" lon="7.05982">
        <ele>1067.1</ele>
        <time>2022-06-11T10:59:57Z</time>
      </trkpt>
      <trkpt lat="44.08982" lon="7.05983">
        <ele>1068</ele>
        <time>2022-06-11T10:59:58Z</time>
      </trkpt>
      <trkpt lat="44.08981" lon="7.05984">
        <ele>1069.2</ele>
        <time>2022-06-11T10:59:59Z</time>
      </trkpt>
      <trkpt lat="44.08979" lon="7.05985">
        <ele>1070</ele>
        <time>2022-06-11T11:00:00Z</time>
      </trkpt>
      <trkpt lat="44.08977" lon="7.05987">
        <ele>1070.4</ele>
        <time>2022-06-11T11:00:01Z</time>
      </trkpt>
      <trkpt lat="44.08975" lon="7.05989">
        <ele>1071</ele>
        <time>2022-06-11T11:00:02Z</time>
      </trkpt>
      <trkpt lat="44.08974" lon="7.0599">
        <ele>1071</ele>
        <time>2022-06-11T11:00:03Z</time>
      </trkpt>
      <trkpt lat="44.08972" lon="7.05993">
        <ele>1071.1</ele>
        <time>2022-06-11T11:00:04Z</time>
      </trkpt>
      <trkpt lat="44.08971" lon="7.05995">
        <ele>1071</ele>
        <time>2022-06-11T11:00:05Z</time>
      </trkpt>
      <trkpt lat="44.08969" lon="7.05996">
        <ele>1071.6</ele>
        <time>2022-06-11T11:00:06Z</time>
      </trkpt>
      <trkpt lat="44.08967" lon="7.05997">
        <ele>1072.6</ele>
        <time>2022-06-11T11:00:07Z</time>
      </trkpt>
      <trkpt lat="44.08966" lon="7.05998">
        <ele>1073.2</ele>
        <time>2022-06-11T11:00:08Z</time>
      </trkpt>
      <trkpt lat="44.08964" lon="7.06">
        <ele>1072.7</ele>
        <time>2022-06-11T11:00:09Z</time>
      </trkpt>
      <trkpt lat="44.08963" lon="7.06004">
        <ele>1070.8</ele>
        <time>2022-06-11T11:00:10Z</time>
      </trkpt>
      <trkpt lat="44.08961" lon="7.06007">
        <ele>1069.1</ele>
        <time>2022-06-11T11:00:11Z</time>
      </trkpt>
      <trkpt lat="44.0896" lon="7.06009">
        <ele>1068.3</ele>
        <time>2022-06-11T11:00:12Z</time>
      </trkpt>
      <trkpt lat="44.08958" lon="7.06012">
        <ele>1067.7</ele>
        <time>2022-06-11T11:00:13Z</time>
      </trkpt>
      <trkpt lat="44.08956" lon="7.06014">
        <ele>1067.9</ele>
        <time>2022-06-11T11:00:14Z</time>
      </trkpt>
      <trkpt lat="44.08954" lon="7.06016">
        <ele>1068.1</ele>
        <time>2022-06-11T11:00:15Z</time>
      </trkpt>
      <trkpt lat="44.08952" lon="7.06018">
        <ele>1067.6</ele>
        <time>2022-06-11T11:00:16Z</time>
      </trkpt>
      <trkpt lat="44.08951" lon="7.0602">
        <ele>1067.5</ele>
        <time>2022-06-11T11:00:17Z</time>
      </trkpt>
      <trkpt lat="44.08949" lon="7.06022">
        <ele>1067.6</ele>
        <time>2022-06-11T11:00:18Z</time>
      </trkpt>
      <trkpt lat="44.08947" lon="7.06024">
        <ele>1067.4</ele>
        <time>2022-06-11T11:00:19Z</time>
      </trkpt>
      <trkpt lat="44.08945" lon="7.06025">
        <ele>1067.9</ele>
        <time>2022-06-11T11:00:20Z</time>
      </trkpt>
      <trkpt lat="44.08944" lon="7.06026">
        <ele>1068.3</ele>
        <time>2022-06-11T11:00:21Z</time>
      </trkpt>
      <trkpt lat="44.08942" lon="7.06028">
        <ele>1068.4</ele>
        <time>2022-06-11T11:00:22Z</time>
      </trkpt>
      <trkpt lat="44.0894" lon="7.06029">
        <ele>1069</ele>
        <time>2022-06-11T11:00:23Z</time>
      </trkpt>
      <trkpt lat="44.08938" lon="7.06031">
        <ele>1069.7</ele>
        <time>2022-06-11T11:00:24Z</time>
      </trkpt>
      <trkpt lat="44.08936" lon="7.06032">
        <ele>1069.8</ele>
        <time>2022-06-11T11:00:25Z</time>
      </trkpt>
      <trkpt lat="44.08934" lon="7.06034">
        <ele>1069.9</ele>
        <time>2022-06-11T11:00:26Z</time>
      </trkpt>
      <trkpt lat="44.08932" lon="7.06035">
        <ele>1070.1</ele>
        <time>2022-06-11T11:00:27Z</time>
      </trkpt>
      <trkpt lat="44.0893" lon="7.06036">
        <ele>1071.3</ele>
        <time>2022-06-11T11:00:28Z</time>
      </trkpt>
      <trkpt lat="44.08929" lon="7.06037">
        <ele>1072</ele>
        <time>2022-06-11T11:00:29Z</time>
      </trkpt>
      <trkpt lat="44.08927" lon="7.06039">
        <ele>1071.5</ele>
        <time>2022-06-11T11:00:30Z</time>
      </trkpt>
      <trkpt lat="44.08926" lon="7.06042">
        <ele>1070.8</ele>
        <time>2022-06-11T11:00:31Z</time>
      </trkpt>
      <trkpt lat="44.08924" lon="7.06044">
        <ele>1069.8</ele>
        <time>2022-06-11T11:00:32Z</time>
      </trkpt>
      <trkpt lat="44.08922" lon="7.06047">
        <ele>1069.4</ele>
        <time>2022-06-11T11:00:33Z</time>
      </trkpt>
      <trkpt lat="44.0892" lon="7.06049">
        <ele>1069.2</ele>
        <time>2022-06-11T11:00:34Z</time>
      </trkpt>
      <trkpt lat="44.08919" lon="7.06053">
        <ele>1067.8</ele>
        <time>2022-06-11T11:00:35Z</time>
      </trkpt>
      <trkpt lat="44.08917" lon="7.06056">
        <ele>1066.5</ele>
        <time>2022-06-11T11:00:36Z</time>
      </trkpt>
      <trkpt lat="44.08916" lon="7.06059">
        <ele>1065.7</ele>
        <time>2022-06-11T11:00:37Z</time>
      </trkpt>
      <trkpt lat="44.08914" lon="7.06061">
        <ele>1065.6</ele>
        <time>2022-06-11T11:00:38Z</time>
      </trkpt>
      <trkpt lat="44.08913" lon="7.06063">
        <ele>1065.1</ele>
        <time>2022-06-11T11:00:39Z</time>
      </trkpt>
      <trkpt lat="44.08911" lon="7.06066">
        <ele>1064.6</ele>
        <time>2022-06-11T11:00:40Z</time>
      </trkpt>
      <trkpt lat="44.0891" lon="7.06068">
        <ele>1064.2</ele>
        <time>2022-06-11T11:00:41Z</time>
      </trkpt>
      <trkpt lat="44.08908" lon="7.06071">
        <ele>1063.4</ele>
        <time>2022-06-11T11:00:42Z</time>
      </trkpt>
      <trkpt lat="44.08907" lon="7.06074">
        <ele>1062.7</ele>
        <time>2022-06-11T11:00:43Z</time>
      </trkpt>
      <trkpt lat="44.08906" lon="7.06076">
        <ele>1062.1</ele>
        <time>2022-06-11T11:00:44Z</time>
      </trkpt>
      <trkpt lat="44.08905" lon="7.06079">
        <ele>1061.6</ele>
        <time>2022-06-11T11:00:45Z</time>
      </trkpt>
      <trkpt lat="44.08904" lon="7.06081">
        <ele>1061.3</ele>
        <time>2022-06-11T11:00:46Z</time>
      </trkpt>
      <trkpt lat="44.08902" lon="7.06083">
        <ele>1061.4</ele>
        <time>2022-06-11T11:00:47Z</time>
      </trkpt>
      <trkpt lat="44.08901" lon="7.06085">
        <ele>1061</ele>
        <time>2022-06-11T11:00:48Z</time>
      </trkpt>
      <trkpt lat="44.089" lon="7.06087">
        <ele>1061</ele>
        <time>2022-06-11T11:00:49Z</time>
      </trkpt>
      <trkpt lat="44.08899" lon="7.06089">
        <ele>1060.6</ele>
        <time>2022-06-11T11:00:50Z</time>
      </trkpt>
      <trkpt lat="44.08899" lon="7.06091">
        <ele>1059.9</ele>
        <time>2022-06-11T11:00:51Z</time>
      </trkpt>
      <trkpt lat="44.08898" lon="7.06093">
        <ele>1059.4</ele>
        <time>2022-06-11T11:00:52Z</time>
      </trkpt>
      <trkpt lat="44.08897" lon="7.06095">
        <ele>1059.1</ele>
        <time>2022-06-11T11:00:53Z</time>
      </trkpt>
      <trkpt lat="44.08896" lon="7.06096">
        <ele>1059.6</ele>
        <time>2022-06-11T11:00:54Z</time>
      </trkpt>
      <trkpt lat="44.08896" lon="7.06096">
        <ele>1059.6</ele>
        <time>2022-06-11T11:00:55Z</time>
      </trkpt>
      <trkpt lat="44.08892" lon="7.06103">
        <ele>1060.1</ele>
        <time>2022-06-11T11:02:31Z</time>
      </trkpt>
      <trkpt lat="44.08891" lon="7.06106">
        <ele>1059.5</ele>
        <time>2022-06-11T11:02:32Z</time>
      </trkpt>
      <trkpt lat="44.08889" lon="7.06109">
        <ele>1059.1</ele>
        <time>2022-06-11T11:02:33Z</time>
      </trkpt>
      <trkpt lat="44.08888" lon="7.06112">
        <ele>1058.1</ele>
        <time>2022-06-11T11:02:34Z</time>
      </trkpt>
      <trkpt lat="44.08887" lon="7.06115">
        <ele>1056.9</ele>
        <time>2022-06-11T11:02:35Z</time>
      </trkpt>
      <trkpt lat="44.08886" lon="7.06117">
        <ele>1055.6</ele>
        <time>2022-06-11T11:02:36Z</time>
      </trkpt>
      <trkpt lat="44.08885" lon="7.0612">
        <ele>1054.2</ele>
        <time>2022-06-11T11:02:37Z</time>
      </trkpt>
      <trkpt lat="44.08884" lon="7.06123">
        <ele>1052.8</ele>
        <time>2022-06-11T11:02:38Z</time>
      </trkpt>
      <trkpt lat="44.08882" lon="7.06125">
        <ele>1052.2</ele>
        <time>2022-06-11T11:02:39Z</time>
      </trkpt>
      <trkpt lat="44.08881" lon="7.06127">
        <ele>1051.8</ele>
        <time>2022-06-11T11:02:40Z</time>
      </trkpt>
      <trkpt lat="44.08879" lon="7.06129">
        <ele>1051.4</ele>
        <time>2022-06-11T11:02:41Z</time>
      </trkpt>
      <trkpt lat="44.08878" lon="7.06131">
        <ele>1051</ele>
        <time>2022-06-11T11:02:42Z</time>
      </trkpt>
      <trkpt lat="44.08876" lon="7.06134">
        <ele>1050.3</ele>
        <time>2022-06-11T11:02:43Z</time>
      </trkpt>
      <trkpt lat="44.08874" lon="7.06135">
        <ele>1050.7</ele>
        <time>2022-06-11T11:02:44Z</time>
      </trkpt>
      <trkpt lat="44.08872" lon="7.06136">
        <ele>1051.4</ele>
        <time>2022-06-11T11:02:45Z</time>
      </trkpt>
      <trkpt lat="44.0887" lon="7.06136">
        <ele>1052.6</ele>
        <time>2022-06-11T11:02:46Z</time>
      </trkpt>
      <trkpt lat="44.08867" lon="7.06136">
        <ele>1053.9</ele>
        <time>2022-06-11T11:02:47Z</time>
      </trkpt>
      <trkpt lat="44.08865" lon="7.06136">
        <ele>1055.3</ele>
        <time>2022-06-11T11:02:48Z</time>
      </trkpt>
      <trkpt lat="44.08863" lon="7.06136">
        <ele>1056.8</ele>
        <time>2022-06-11T11:02:49Z</time>
      </trkpt>
      <trkpt lat="44.0886" lon="7.06136">
        <ele>1057.6</ele>
        <time>2022-06-11T11:02:50Z</time>
      </trkpt>
      <trkpt lat="44.08858" lon="7.06135">
        <ele>1058</ele>
        <time>2022-06-11T11:02:51Z</time>
      </trkpt>
      <trkpt lat="44.08856" lon="7.06134">
        <ele>1058.6</ele>
        <time>2022-06-11T11:02:52Z</time>
      </trkpt>
      <trkpt lat="44.08854" lon="7.06133">
        <ele>1059.1</ele>
        <time>2022-06-11T11:02:53Z</time>
      </trkpt>
      <trkpt lat="44.08852" lon="7.06131">
        <ele>1060</ele>
        <time>2022-06-11T11:02:54Z</time>
      </trkpt>
      <trkpt lat="44.0885" lon="7.06129">
        <ele>1061</ele>
        <time>2022-06-11T11:02:55Z</time>
      </trkpt>
      <trkpt lat="44.08849" lon="7.06126">
        <ele>1062.1</ele>
        <time>2022-06-11T11:02:56Z</time>
      </trkpt>
      <trkpt lat="44.08847" lon="7.06124">
        <ele>1063.2</ele>
        <time>2022-06-11T11:02:57Z</time>
      </trkpt>
      <trkpt lat="44.08846" lon="7.06121">
        <ele>1064.6</ele>
        <time>2022-06-11T11:02:58Z</time>
      </trkpt>
      <trkpt lat="44.08845" lon="7.06118">
        <ele>1065.6</ele>
        <time>2022-06-11T11:02:59Z</time>
      </trkpt>
      <trkpt lat="44.08844" lon="7.06115">
        <ele>1066.8</ele>
        <time>2022-06-11T11:03:00Z</time>
      </trkpt>
      <trkpt lat="44.08842" lon="7.06113">
        <ele>1067.9</ele>
        <time>2022-06-11T11:03:01Z</time>
      </trkpt>
      <trkpt lat="44.08841" lon="7.0611">
        <ele>1069</ele>
        <time>2022-06-11T11:03:02Z</time>
      </trkpt>
      <trkpt lat="44.0884" lon="7.06107">
        <ele>1069.7</ele>
        <time>2022-06-11T11:03:03Z</time>
      </trkpt>
      <trkpt lat="44.08839" lon="7.06105">
        <ele>1070.4</ele>
        <time>2022-06-11T11:03:04Z</time>
      </trkpt>
      <trkpt lat="44.08837" lon="7.06102">
        <ele>1071.1</ele>
        <time>2022-06-11T11:03:05Z</time>
      </trkpt>
      <trkpt lat="44.08837" lon="7.06099">
        <ele>1072</ele>
        <time>2022-06-11T11:03:06Z</time>
      </trkpt>
      <trkpt lat="44.08835" lon="7.06097">
        <ele>1072.6</ele>
        <time>2022-06-11T11:03:07Z</time>
      </trkpt>
      <trkpt lat="44.08834" lon="7.06094">
        <ele>1073.3</ele>
        <time>2022-06-11T11:03:08Z</time>
      </trkpt>
      <trkpt lat="44.08833" lon="7.06091">
        <ele>1073.9</ele>
        <time>2022-06-11T11:03:09Z</time>
      </trkpt>
      <trkpt lat="44.08832" lon="7.06089">
        <ele>1074.2</ele>
        <time>2022-06-11T11:03:10Z</time>
      </trkpt>
      <trkpt lat="44.0883" lon="7.06086">
        <ele>1074.4</ele>
        <time>2022-06-11T11:03:11Z</time>
      </trkpt>
      <trkpt lat="44.08829" lon="7.06084">
        <ele>1074.6</ele>
        <time>2022-06-11T11:03:12Z</time>
      </trkpt>
      <trkpt lat="44.08827" lon="7.06081">
        <ele>1074.7</ele>
        <time>2022-06-11T11:03:13Z</time>
      </trkpt>
      <trkpt lat="44.08826" lon="7.06078">
        <ele>1074.9</ele>
        <time>2022-06-11T11:03:14Z</time>
      </trkpt>
      <trkpt lat="44.08825" lon="7.06076">
        <ele>1075.2</ele>
        <time>2022-06-11T11:03:15Z</time>
      </trkpt>
      <trkpt lat="44.08824" lon="7.06073">
        <ele>1075.5</ele>
        <time>2022-06-11T11:03:16Z</time>
      </trkpt>
      <trkpt lat="44.08822" lon="7.0607">
        <ele>1075.6</ele>
        <time>2022-06-11T11:03:17Z</time>
      </trkpt>
      <trkpt lat="44.08821" lon="7.06068">
        <ele>1075.6</ele>
        <time>2022-06-11T11:03:18Z</time>
      </trkpt>
      <trkpt lat="44.08819" lon="7.06065">
        <ele>1075.8</ele>
        <time>2022-06-11T11:03:19Z</time>
      </trkpt>
      <trkpt lat="44.08818" lon="7.06063">
        <ele>1075.9</ele>
        <time>2022-06-11T11:03:20Z</time>
      </trkpt>
      <trkpt lat="44.08817" lon="7.0606">
        <ele>1076.2</ele>
        <time>2022-06-11T11:03:21Z</time>
      </trkpt>
      <trkpt lat="44.08816" lon="7.06057">
        <ele>1076.9</ele>
        <time>2022-06-11T11:03:22Z</time>
      </trkpt>
      <trkpt lat="44.08815" lon="7.06054">
        <ele>1077.4</ele>
        <time>2022-06-11T11:03:23Z</time>
      </trkpt>
      <trkpt lat="44.08814" lon="7.06051">
        <ele>1077.4</ele>
        <time>2022-06-11T11:03:24Z</time>
      </trkpt>
      <trkpt lat="44.08813" lon="7.06049">
        <ele>1077.6</ele>
        <time>2022-06-11T11:03:25Z</time>
      </trkpt>
      <trkpt lat="44.08811" lon="7.06046">
        <ele>1077.5</ele>
        <time>2022-06-11T11:03:26Z</time>
      </trkpt>
      <trkpt lat="44.0881" lon="7.06044">
        <ele>1077.5</ele>
        <time>2022-06-11T11:03:27Z</time>
      </trkpt>
      <trkpt lat="44.08808" lon="7.06041">
        <ele>1077.5</ele>
        <time>2022-06-11T11:03:28Z</time>
      </trkpt>
      <trkpt lat="44.08807" lon="7.06038">
        <ele>1077.6</ele>
        <time>2022-06-11T11:03:29Z</time>
      </trkpt>
      <trkpt lat="44.08805" lon="7.06035">
        <ele>1077.7</ele>
        <time>2022-06-11T11:03:30Z</time>
      </trkpt>
      <trkpt lat="44.08804" lon="7.06033">
        <ele>1077.8</ele>
        <time>2022-06-11T11:03:31Z</time>
      </trkpt>
      <trkpt lat="44.08802" lon="7.06029">
        <ele>1078</ele>
        <time>2022-06-11T11:03:32Z</time>
      </trkpt>
      <trkpt lat="44.08801" lon="7.06027">
        <ele>1078.1</ele>
        <time>2022-06-11T11:03:33Z</time>
      </trkpt>
      <trkpt lat="44.08799" lon="7.06024">
        <ele>1077.9</ele>
        <time>2022-06-11T11:03:34Z</time>
      </trkpt>
      <trkpt lat="44.08797" lon="7.06021">
        <ele>1077.7</ele>
        <time>2022-06-11T11:03:35Z</time>
      </trkpt>
      <trkpt lat="44.08795" lon="7.06019">
        <ele>1077.5</ele>
        <time>2022-06-11T11:03:36Z</time>
      </trkpt>
      <trkpt lat="44.08794" lon="7.06016">
        <ele>1077.7</ele>
        <time>2022-06-11T11:03:37Z</time>
      </trkpt>
      <trkpt lat="44.08792" lon="7.06012">
        <ele>1078</ele>
        <time>2022-06-11T11:03:38Z</time>
      </trkpt>
      <trkpt lat="44.08791" lon="7.06009">
        <ele>1078.1</ele>
        <time>2022-06-11T11:03:39Z</time>
      </trkpt>
      <trkpt lat="44.08789" lon="7.06006">
        <ele>1078.1</ele>
        <time>2022-06-11T11:03:40Z</time>
      </trkpt>
      <trkpt lat="44.08788" lon="7.06003">
        <ele>1078.2</ele>
        <time>2022-06-11T11:03:41Z</time>
      </trkpt>
      <trkpt lat="44.08786" lon="7.06">
        <ele>1078.2</ele>
        <time>2022-06-11T11:03:42Z</time>
      </trkpt>
      <trkpt lat="44.08784" lon="7.05997">
        <ele>1078</ele>
        <time>2022-06-11T11:03:43Z</time>
      </trkpt>
      <trkpt lat="44.08783" lon="7.05995">
        <ele>1077.9</ele>
        <time>2022-06-11T11:03:44Z</time>
      </trkpt>
      <trkpt lat="44.08781" lon="7.05992">
        <ele>1077.7</ele>
        <time>2022-06-11T11:03:45Z</time>
      </trkpt>
      <trkpt lat="44.0878" lon="7.05989">
        <ele>1077.7</ele>
        <time>2022-06-11T11:03:46Z</time>
      </trkpt>
      <trkpt lat="44.08778" lon="7.05987">
        <ele>1077.7</ele>
        <time>2022-06-11T11:03:47Z</time>
      </trkpt>
      <trkpt lat="44.08777" lon="7.05984">
        <ele>1077.9</ele>
        <time>2022-06-11T11:03:48Z</time>
      </trkpt>
      <trkpt lat="44.08776" lon="7.05981">
        <ele>1078.2</ele>
        <time>2022-06-11T11:03:49Z</time>
      </trkpt>
      <trkpt lat="44.08775" lon="7.05978">
        <ele>1078.6</ele>
        <time>2022-06-11T11:03:50Z</time>
      </trkpt>
      <trkpt lat="44.08773" lon="7.05976">
        <ele>1078.8</ele>
        <time>2022-06-11T11:03:51Z</time>
      </trkpt>
      <trkpt lat="44.08772" lon="7.05973">
        <ele>1079.1</ele>
        <time>2022-06-11T11:03:52Z</time>
      </trkpt>
      <trkpt lat="44.08771" lon="7.05971">
        <ele>1079.5</ele>
        <time>2022-06-11T11:03:53Z</time>
      </trkpt>
      <trkpt lat="44.08769" lon="7.05968">
        <ele>1079.9</ele>
        <time>2022-06-11T11:03:54Z</time>
      </trkpt>
      <trkpt lat="44.08768" lon="7.05965">
        <ele>1080.4</ele>
        <time>2022-06-11T11:03:55Z</time>
      </trkpt>
      <trkpt lat="44.08766" lon="7.05963">
        <ele>1080.8</ele>
        <time>2022-06-11T11:03:56Z</time>
      </trkpt>
      <trkpt lat="44.08765" lon="7.0596">
        <ele>1081.1</ele>
        <time>2022-06-11T11:03:57Z</time>
      </trkpt>
      <trkpt lat="44.08763" lon="7.05958">
        <ele>1081.5</ele>
        <time>2022-06-11T11:03:58Z</time>
      </trkpt>
      <trkpt lat="44.08761" lon="7.05955">
        <ele>1081.8</ele>
        <time>2022-06-11T11:03:59Z</time>
      </trkpt>
      <trkpt lat="44.0876" lon="7.05953">
        <ele>1082.1</ele>
        <time>2022-06-11T11:04:00Z</time>
      </trkpt>
      <trkpt lat="44.08758" lon="7.05951">
        <ele>1082.2</ele>
        <time>2022-06-11T11:04:01Z</time>
      </trkpt>
      <trkpt lat="44.08756" lon="7.05948">
        <ele>1082.6</ele>
        <time>2022-06-11T11:04:02Z</time>
      </trkpt>
      <trkpt lat="44.08754" lon="7.05946">
        <ele>1082.9</ele>
        <time>2022-06-11T11:04:03Z</time>
      </trkpt>
      <trkpt lat="44.08753" lon="7.05943">
        <ele>1083.3</ele>
        <time>2022-06-11T11:04:04Z</time>
      </trkpt>
      <trkpt lat="44.08751" lon="7.05941">
        <ele>1083.7</ele>
        <time>2022-06-11T11:04:05Z</time>
      </trkpt>
      <trkpt lat="44.08749" lon="7.05939">
        <ele>1084.1</ele>
        <time>2022-06-11T11:04:06Z</time>
      </trkpt>
      <trkpt lat="44.08747" lon="7.05938">
        <ele>1084.5</ele>
        <time>2022-06-11T11:04:07Z</time>
      </trkpt>
      <trkpt lat="44.08745" lon="7.05936">
        <ele>1084.9</ele>
        <time>2022-06-11T11:04:08Z</time>
      </trkpt>
      <trkpt lat="44.08743" lon="7.05934">
        <ele>1085.2</ele>
        <time>2022-06-11T11:04:09Z</time>
      </trkpt>
      <trkpt lat="44.08741" lon="7.05932">
        <ele>1085.5</ele>
        <time>2022-06-11T11:04:10Z</time>
      </trkpt>
      <trkpt lat="44.08739" lon="7.05931">
        <ele>1085.9</ele>
        <time>2022-06-11T11:04:11Z</time>
      </trkpt>
      <trkpt lat="44.08738" lon="7.05929">
        <ele>1086.2</ele>
        <time>2022-06-11T11:04:12Z</time>
      </trkpt>
      <trkpt lat="44.08735" lon="7.05928">
        <ele>1086.1</ele>
        <time>2022-06-11T11:04:13Z</time>
      </trkpt>
      <trkpt lat="44.08734" lon="7.05927">
        <ele>1086.2</ele>
        <time>2022-06-11T11:04:14Z</time>
      </trkpt>
      <trkpt lat="44.08731" lon="7.05926">
        <ele>1086.1</ele>
        <time>2022-06-11T11:04:15Z</time>
      </trkpt>
      <trkpt lat="44.08729" lon="7.05925">
        <ele>1086.1</ele>
        <time>2022-06-11T11:04:16Z</time>
      </trkpt>
      <trkpt lat="44.08727" lon="7.05924">
        <ele>1086.2</ele>
        <time>2022-06-11T11:04:17Z</time>
      </trkpt>
      <trkpt lat="44.08725" lon="7.05922">
        <ele>1086.4</ele>
        <time>2022-06-11T11:04:18Z</time>
      </trkpt>
      <trkpt lat="44.08723" lon="7.05921">
        <ele>1086.3</ele>
        <time>2022-06-11T11:04:19Z</time>
      </trkpt>
      <trkpt lat="44.08721" lon="7.0592">
        <ele>1086.4</ele>
        <time>2022-06-11T11:04:20Z</time>
      </trkpt>
      <trkpt lat="44.08719" lon="7.0592">
        <ele>1086.4</ele>
        <time>2022-06-11T11:04:21Z</time>
      </trkpt>
      <trkpt lat="44.08717" lon="7.05919">
        <ele>1086.4</ele>
        <time>2022-06-11T11:04:22Z</time>
      </trkpt>
      <trkpt lat="44.08715" lon="7.05918">
        <ele>1086.3</ele>
        <time>2022-06-11T11:04:23Z</time>
      </trkpt>
      <trkpt lat="44.08713" lon="7.05917">
        <ele>1086.4</ele>
        <time>2022-06-11T11:04:24Z</time>
      </trkpt>
      <trkpt lat="44.08711" lon="7.05916">
        <ele>1086.8</ele>
        <time>2022-06-11T11:04:25Z</time>
      </trkpt>
      <trkpt lat="44.08709" lon="7.05915">
        <ele>1087</ele>
        <time>2022-06-11T11:04:26Z</time>
      </trkpt>
      <trkpt lat="44.08707" lon="7.05914">
        <ele>1087.4</ele>
        <time>2022-06-11T11:04:27Z</time>
      </trkpt>
      <trkpt lat="44.08705" lon="7.05913">
        <ele>1087.5</ele>
        <time>2022-06-11T11:04:28Z</time>
      </trkpt>
      <trkpt lat="44.08703" lon="7.05912">
        <ele>1087.8</ele>
        <time>2022-06-11T11:04:29Z</time>
      </trkpt>
      <trkpt lat="44.08701" lon="7.05911">
        <ele>1087.9</ele>
        <time>2022-06-11T11:04:30Z</time>
      </trkpt>
      <trkpt lat="44.08699" lon="7.05909">
        <ele>1088.2</ele>
        <time>2022-06-11T11:04:31Z</time>
      </trkpt>
      <trkpt lat="44.08697" lon="7.05909">
        <ele>1088.2</ele>
        <time>2022-06-11T11:04:32Z</time>
      </trkpt>
      <trkpt lat="44.08695" lon="7.05907">
        <ele>1088.6</ele>
        <time>2022-06-11T11:04:33Z</time>
      </trkpt>
      <trkpt lat="44.08693" lon="7.05906">
        <ele>1088.7</ele>
        <time>2022-06-11T11:04:34Z</time>
      </trkpt>
      <trkpt lat="44.08691" lon="7.05905">
        <ele>1089.1</ele>
        <time>2022-06-11T11:04:35Z</time>
      </trkpt>
      <trkpt lat="44.08689" lon="7.05904">
        <ele>1089.4</ele>
        <time>2022-06-11T11:04:36Z</time>
      </trkpt>
      <trkpt lat="44.08687" lon="7.05903">
        <ele>1089.5</ele>
        <time>2022-06-11T11:04:37Z</time>
      </trkpt>
      <trkpt lat="44.08685" lon="7.05902">
        <ele>1089.5</ele>
        <time>2022-06-11T11:04:38Z</time>
      </trkpt>
      <trkpt lat="44.08683" lon="7.05901">
        <ele>1089.7</ele>
        <time>2022-06-11T11:04:39Z</time>
      </trkpt>
      <trkpt lat="44.08682" lon="7.059">
        <ele>1090</ele>
        <time>2022-06-11T11:04:40Z</time>
      </trkpt>
      <trkpt lat="44.0868" lon="7.05899">
        <ele>1090.2</ele>
        <time>2022-06-11T11:04:41Z</time>
      </trkpt>
      <trkpt lat="44.08677" lon="7.05898">
        <ele>1090.2</ele>
        <time>2022-06-11T11:04:42Z</time>
      </trkpt>
      <trkpt lat="44.08675" lon="7.05897">
        <ele>1090.2</ele>
        <time>2022-06-11T11:04:43Z</time>
      </trkpt>
      <trkpt lat="44.08673" lon="7.05895">
        <ele>1090.4</ele>
        <time>2022-06-11T11:04:44Z</time>
      </trkpt>
      <trkpt lat="44.08671" lon="7.05894">
        <ele>1090.3</ele>
        <time>2022-06-11T11:04:45Z</time>
      </trkpt>
      <trkpt lat="44.0867" lon="7.05893">
        <ele>1090.3</ele>
        <time>2022-06-11T11:04:46Z</time>
      </trkpt>
      <trkpt lat="44.08667" lon="7.05892">
        <ele>1090.2</ele>
        <time>2022-06-11T11:04:47Z</time>
      </trkpt>
      <trkpt lat="44.08665" lon="7.05891">
        <ele>1090.5</ele>
        <time>2022-06-11T11:04:48Z</time>
      </trkpt>
      <trkpt lat="44.08663" lon="7.05889">
        <ele>1090.7</ele>
        <time>2022-06-11T11:04:49Z</time>
      </trkpt>
      <trkpt lat="44.08661" lon="7.05888">
        <ele>1091.1</ele>
        <time>2022-06-11T11:04:50Z</time>
      </trkpt>
      <trkpt lat="44.0866" lon="7.05886">
        <ele>1091.6</ele>
        <time>2022-06-11T11:04:51Z</time>
      </trkpt>
      <trkpt lat="44.08658" lon="7.05884">
        <ele>1092.3</ele>
        <time>2022-06-11T11:04:52Z</time>
      </trkpt>
      <trkpt lat="44.08656" lon="7.05882">
        <ele>1092.8</ele>
        <time>2022-06-11T11:04:53Z</time>
      </trkpt>
      <trkpt lat="44.08654" lon="7.0588">
        <ele>1093.1</ele>
        <time>2022-06-11T11:04:54Z</time>
      </trkpt>
      <trkpt lat="44.08652" lon="7.05879">
        <ele>1093.2</ele>
        <time>2022-06-11T11:04:55Z</time>
      </trkpt>
      <trkpt lat="44.08651" lon="7.05877">
        <ele>1093.6</ele>
        <time>2022-06-11T11:04:56Z</time>
      </trkpt>
      <trkpt lat="44.08649" lon="7.05875">
        <ele>1093.9</ele>
        <time>2022-06-11T11:04:57Z</time>
      </trkpt>
      <trkpt lat="44.08647" lon="7.05873">
        <ele>1094</ele>
        <time>2022-06-11T11:04:58Z</time>
      </trkpt>
      <trkpt lat="44.08646" lon="7.05872">
        <ele>1094.2</ele>
        <time>2022-06-11T11:04:59Z</time>
      </trkpt>
      <trkpt lat="44.08645" lon="7.0587">
        <ele>1094.5</ele>
        <time>2022-06-11T11:05:00Z</time>
      </trkpt>
      <trkpt lat="44.08643" lon="7.05868">
        <ele>1094.6</ele>
        <time>2022-06-11T11:05:01Z</time>
      </trkpt>
      <trkpt lat="44.08641" lon="7.05866">
        <ele>1094.6</ele>
        <time>2022-06-11T11:05:02Z</time>
      </trkpt>
      <trkpt lat="44.08639" lon="7.05864">
        <ele>1094.4</ele>
        <time>2022-06-11T11:05:03Z</time>
      </trkpt>
      <trkpt lat="44.08638" lon="7.05862">
        <ele>1094.8</ele>
        <time>2022-06-11T11:05:04Z</time>
      </trkpt>
      <trkpt lat="44.08636" lon="7.0586">
        <ele>1095.3</ele>
        <time>2022-06-11T11:05:05Z</time>
      </trkpt>
      <trkpt lat="44.08634" lon="7.05858">
        <ele>1095.7</ele>
        <time>2022-06-11T11:05:06Z</time>
      </trkpt>
      <trkpt lat="44.08633" lon="7.05857">
        <ele>1096</ele>
        <time>2022-06-11T11:05:07Z</time>
      </trkpt>
      <trkpt lat="44.08632" lon="7.05854">
        <ele>1096.6</ele>
        <time>2022-06-11T11:05:08Z</time>
      </trkpt>
      <trkpt lat="44.08631" lon="7.05851">
        <ele>1097.2</ele>
        <time>2022-06-11T11:05:09Z</time>
      </trkpt>
      <trkpt lat="44.0863" lon="7.05849">
        <ele>1097.6</ele>
        <time>2022-06-11T11:05:10Z</time>
      </trkpt>
      <trkpt lat="44.08629" lon="7.05846">
        <ele>1098</ele>
        <time>2022-06-11T11:05:11Z</time>
      </trkpt>
      <trkpt lat="44.08628" lon="7.05844">
        <ele>1098.3</ele>
        <time>2022-06-11T11:05:12Z</time>
      </trkpt>
      <trkpt lat="44.08627" lon="7.05841">
        <ele>1098.5</ele>
        <time>2022-06-11T11:05:13Z</time>
      </trkpt>
      <trkpt lat="44.08626" lon="7.05838">
        <ele>1098.8</ele>
        <time>2022-06-11T11:05:14Z</time>
      </trkpt>
      <trkpt lat="44.08624" lon="7.05836">
        <ele>1099</ele>
        <time>2022-06-11T11:05:15Z</time>
      </trkpt>
      <trkpt lat="44.08623" lon="7.05833">
        <ele>1099.1</ele>
        <time>2022-06-11T11:05:16Z</time>
      </trkpt>
      <trkpt lat="44.08623" lon="7.05831">
        <ele>1099.4</ele>
        <time>2022-06-11T11:05:17Z</time>
      </trkpt>
      <trkpt lat="44.08622" lon="7.05829">
        <ele>1099.6</ele>
        <time>2022-06-11T11:05:18Z</time>
      </trkpt>
      <trkpt lat="44.08621" lon="7.05826">
        <ele>1100</ele>
        <time>2022-06-11T11:05:19Z</time>
      </trkpt>
      <trkpt lat="44.0862" lon="7.05823">
        <ele>1100.4</ele>
        <time>2022-06-11T11:05:20Z</time>
      </trkpt>
      <trkpt lat="44.08619" lon="7.0582">
        <ele>1100.8</ele>
        <time>2022-06-11T11:05:21Z</time>
      </trkpt>
      <trkpt lat="44.08618" lon="7.05817">
        <ele>1101.2</ele>
        <time>2022-06-11T11:05:22Z</time>
      </trkpt>
      <trkpt lat="44.08617" lon="7.05815">
        <ele>1101.2</ele>
        <time>2022-06-11T11:05:23Z</time>
      </trkpt>
      <trkpt lat="44.08616" lon="7.05814">
        <ele>1101.3</ele>
        <time>2022-06-11T11:05:24Z</time>
      </trkpt>
      <trkpt lat="44.08615" lon="7.05811">
        <ele>1101.3</ele>
        <time>2022-06-11T11:05:25Z</time>
      </trkpt>
      <trkpt lat="44.08614" lon="7.05807">
        <ele>1101.5</ele>
        <time>2022-06-11T11:05:26Z</time>
      </trkpt>
      <trkpt lat="44.08612" lon="7.05805">
        <ele>1101.6</ele>
        <time>2022-06-11T11:05:27Z</time>
      </trkpt>
      <trkpt lat="44.08611" lon="7.05803">
        <ele>1101.7</ele>
        <time>2022-06-11T11:05:28Z</time>
      </trkpt>
      <trkpt lat="44.0861" lon="7.05801">
        <ele>1102.3</ele>
        <time>2022-06-11T11:05:29Z</time>
      </trkpt>
      <trkpt lat="44.08609" lon="7.05798">
        <ele>1102.9</ele>
        <time>2022-06-11T11:05:30Z</time>
      </trkpt>
      <trkpt lat="44.08608" lon="7.05796">
        <ele>1103.4</ele>
        <time>2022-06-11T11:05:31Z</time>
      </trkpt>
      <trkpt lat="44.08606" lon="7.05793">
        <ele>1103.8</ele>
        <time>2022-06-11T11:05:32Z</time>
      </trkpt>
      <trkpt lat="44.08604" lon="7.05791">
        <ele>1104</ele>
        <time>2022-06-11T11:05:33Z</time>
      </trkpt>
      <trkpt lat="44.08602" lon="7.0579">
        <ele>1104.1</ele>
        <time>2022-06-11T11:05:34Z</time>
      </trkpt>
      <trkpt lat="44.08601" lon="7.05788">
        <ele>1104.1</ele>
        <time>2022-06-11T11:05:35Z</time>
      </trkpt>
      <trkpt lat="44.08599" lon="7.05787">
        <ele>1104</ele>
        <time>2022-06-11T11:05:36Z</time>
      </trkpt>
      <trkpt lat="44.08597" lon="7.05785">
        <ele>1103.9</ele>
        <time>2022-06-11T11:05:37Z</time>
      </trkpt>
      <trkpt lat="44.08594" lon="7.05784">
        <ele>1103.7</ele>
        <time>2022-06-11T11:05:38Z</time>
      </trkpt>
      <trkpt lat="44.08593" lon="7.05782">
        <ele>1103.6</ele>
        <time>2022-06-11T11:05:39Z</time>
      </trkpt>
      <trkpt lat="44.08591" lon="7.0578">
        <ele>1103.4</ele>
        <time>2022-06-11T11:05:40Z</time>
      </trkpt>
      <trkpt lat="44.08588" lon="7.05778">
        <ele>1103.2</ele>
        <time>2022-06-11T11:05:41Z</time>
      </trkpt>
      <trkpt lat="44.08586" lon="7.05777">
        <ele>1102.9</ele>
        <time>2022-06-11T11:05:42Z</time>
      </trkpt>
      <trkpt lat="44.08585" lon="7.05776">
        <ele>1102.8</ele>
        <time>2022-06-11T11:05:43Z</time>
      </trkpt>
      <trkpt lat="44.08583" lon="7.05774">
        <ele>1102.9</ele>
        <time>2022-06-11T11:05:44Z</time>
      </trkpt>
      <trkpt lat="44.08581" lon="7.05773">
        <ele>1103.5</ele>
        <time>2022-06-11T11:05:45Z</time>
      </trkpt>
      <trkpt lat="44.08579" lon="7.05771">
        <ele>1104.1</ele>
        <time>2022-06-11T11:05:46Z</time>
      </trkpt>
      <trkpt lat="44.08577" lon="7.05769">
        <ele>1104.7</ele>
        <time>2022-06-11T11:05:47Z</time>
      </trkpt>
      <trkpt lat="44.08575" lon="7.05767">
        <ele>1105.1</ele>
        <time>2022-06-11T11:05:48Z</time>
      </trkpt>
      <trkpt lat="44.08574" lon="7.05765">
        <ele>1105.6</ele>
        <time>2022-06-11T11:05:49Z</time>
      </trkpt>
      <trkpt lat="44.08572" lon="7.05763">
        <ele>1105.9</ele>
        <time>2022-06-11T11:05:50Z</time>
      </trkpt>
      <trkpt lat="44.0857" lon="7.05762">
        <ele>1106.2</ele>
        <time>2022-06-11T11:05:51Z</time>
      </trkpt>
      <trkpt lat="44.08568" lon="7.0576">
        <ele>1106.4</ele>
        <time>2022-06-11T11:05:52Z</time>
      </trkpt>
      <trkpt lat="44.08566" lon="7.05759">
        <ele>1106.4</ele>
        <time>2022-06-11T11:05:53Z</time>
      </trkpt>
      <trkpt lat="44.08564" lon="7.05758">
        <ele>1106.5</ele>
        <time>2022-06-11T11:05:54Z</time>
      </trkpt>
      <trkpt lat="44.08563" lon="7.05756">
        <ele>1106.5</ele>
        <time>2022-06-11T11:05:55Z</time>
      </trkpt>
      <trkpt lat="44.08561" lon="7.05755">
        <ele>1106.5</ele>
        <time>2022-06-11T11:05:56Z</time>
      </trkpt>
      <trkpt lat="44.08558" lon="7.05753">
        <ele>1106.3</ele>
        <time>2022-06-11T11:05:57Z</time>
      </trkpt>
      <trkpt lat="44.08556" lon="7.05752">
        <ele>1106.2</ele>
        <time>2022-06-11T11:05:58Z</time>
      </trkpt>
      <trkpt lat="44.08554" lon="7.0575">
        <ele>1106.3</ele>
        <time>2022-06-11T11:05:59Z</time>
      </trkpt>
      <trkpt lat="44.08552" lon="7.05749">
        <ele>1106.9</ele>
        <time>2022-06-11T11:06:00Z</time>
      </trkpt>
      <trkpt lat="44.08551" lon="7.05747">
        <ele>1107.4</ele>
        <time>2022-06-11T11:06:01Z</time>
      </trkpt>
      <trkpt lat="44.08549" lon="7.05747">
        <ele>1107.8</ele>
        <time>2022-06-11T11:06:02Z</time>
      </trkpt>
      <trkpt lat="44.08546" lon="7.05746">
        <ele>1108.2</ele>
        <time>2022-06-11T11:06:03Z</time>
      </trkpt>
      <trkpt lat="44.08544" lon="7.05746">
        <ele>1108.7</ele>
        <time>2022-06-11T11:06:04Z</time>
      </trkpt>
      <trkpt lat="44.08542" lon="7.05745">
        <ele>1109.1</ele>
        <time>2022-06-11T11:06:05Z</time>
      </trkpt>
      <trkpt lat="44.0854" lon="7.05744">
        <ele>1109.4</ele>
        <time>2022-06-11T11:06:06Z</time>
      </trkpt>
      <trkpt lat="44.08538" lon="7.05743">
        <ele>1109.7</ele>
        <time>2022-06-11T11:06:07Z</time>
      </trkpt>
      <trkpt lat="44.08535" lon="7.05743">
        <ele>1110.1</ele>
        <time>2022-06-11T11:06:08Z</time>
      </trkpt>
      <trkpt lat="44.08533" lon="7.05742">
        <ele>1110.4</ele>
        <time>2022-06-11T11:06:09Z</time>
      </trkpt>
      <trkpt lat="44.08531" lon="7.05742">
        <ele>1110.7</ele>
        <time>2022-06-11T11:06:10Z</time>
      </trkpt>
      <trkpt lat="44.08528" lon="7.05741">
        <ele>1111</ele>
        <time>2022-06-11T11:06:11Z</time>
      </trkpt>
      <trkpt lat="44.08526" lon="7.0574">
        <ele>1111.3</ele>
        <time>2022-06-11T11:06:12Z</time>
      </trkpt>
      <trkpt lat="44.08524" lon="7.05739">
        <ele>1111.6</ele>
        <time>2022-06-11T11:06:13Z</time>
      </trkpt>
      <trkpt lat="44.08521" lon="7.05737">
        <ele>1111.9</ele>
        <time>2022-06-11T11:06:14Z</time>
      </trkpt>
      <trkpt lat="44.0852" lon="7.05735">
        <ele>1112</ele>
        <time>2022-06-11T11:06:15Z</time>
      </trkpt>
      <trkpt lat="44.08518" lon="7.05733">
        <ele>1112</ele>
        <time>2022-06-11T11:06:16Z</time>
      </trkpt>
      <trkpt lat="44.08517" lon="7.0573">
        <ele>1112</ele>
        <time>2022-06-11T11:06:17Z</time>
      </trkpt>
      <trkpt lat="44.08515" lon="7.05728">
        <ele>1111.9</ele>
        <time>2022-06-11T11:06:18Z</time>
      </trkpt>
      <trkpt lat="44.08514" lon="7.05725">
        <ele>1111.7</ele>
        <time>2022-06-11T11:06:19Z</time>
      </trkpt>
      <trkpt lat="44.08513" lon="7.05723">
        <ele>1111.6</ele>
        <time>2022-06-11T11:06:20Z</time>
      </trkpt>
      <trkpt lat="44.08511" lon="7.05721">
        <ele>1111.9</ele>
        <time>2022-06-11T11:06:21Z</time>
      </trkpt>
      <trkpt lat="44.08509" lon="7.0572">
        <ele>1112.3</ele>
        <time>2022-06-11T11:06:22Z</time>
      </trkpt>
      <trkpt lat="44.08508" lon="7.05719">
        <ele>1112.6</ele>
        <time>2022-06-11T11:06:23Z</time>
      </trkpt>
      <trkpt lat="44.08506" lon="7.05717">
        <ele>1113</ele>
        <time>2022-06-11T11:06:24Z</time>
      </trkpt>
      <trkpt lat="44.08504" lon="7.05716">
        <ele>1113.4</ele>
        <time>2022-06-11T11:06:25Z</time>
      </trkpt>
      <trkpt lat="44.08502" lon="7.05715">
        <ele>1113.5</ele>
        <time>2022-06-11T11:06:26Z</time>
      </trkpt>
      <trkpt lat="44.08499" lon="7.05715">
        <ele>1113.7</ele>
        <time>2022-06-11T11:06:27Z</time>
      </trkpt>
      <trkpt lat="44.08497" lon="7.05714">
        <ele>1114</ele>
        <time>2022-06-11T11:06:28Z</time>
      </trkpt>
      <trkpt lat="44.08494" lon="7.05714">
        <ele>1114.3</ele>
        <time>2022-06-11T11:06:29Z</time>
      </trkpt>
      <trkpt lat="44.08492" lon="7.05714">
        <ele>1114.7</ele>
        <time>2022-06-11T11:06:30Z</time>
      </trkpt>
      <trkpt lat="44.0849" lon="7.05713">
        <ele>1114.9</ele>
        <time>2022-06-11T11:06:31Z</time>
      </trkpt>
      <trkpt lat="44.08487" lon="7.05713">
        <ele>1115.2</ele>
        <time>2022-06-11T11:06:32Z</time>
      </trkpt>
      <trkpt lat="44.08485" lon="7.05713">
        <ele>1115.4</ele>
        <time>2022-06-11T11:06:33Z</time>
      </trkpt>
      <trkpt lat="44.08483" lon="7.05713">
        <ele>1115.7</ele>
        <time>2022-06-11T11:06:34Z</time>
      </trkpt>
      <trkpt lat="44.08481" lon="7.05712">
        <ele>1116</ele>
        <time>2022-06-11T11:06:35Z</time>
      </trkpt>
      <trkpt lat="44.08479" lon="7.05711">
        <ele>1116.3</ele>
        <time>2022-06-11T11:06:36Z</time>
      </trkpt>
      <trkpt lat="44.08476" lon="7.05711">
        <ele>1116.5</ele>
        <time>2022-06-11T11:06:37Z</time>
      </trkpt>
      <trkpt lat="44.08474" lon="7.05711">
        <ele>1116.7</ele>
        <time>2022-06-11T11:06:38Z</time>
      </trkpt>
      <trkpt lat="44.08472" lon="7.05711">
        <ele>1116.9</ele>
        <time>2022-06-11T11:06:39Z</time>
      </trkpt>
      <trkpt lat="44.0847" lon="7.05712">
        <ele>1117.2</ele>
        <time>2022-06-11T11:06:40Z</time>
      </trkpt>
      <trkpt lat="44.08467" lon="7.05713">
        <ele>1117.5</ele>
        <time>2022-06-11T11:06:41Z</time>
      </trkpt>
      <trkpt lat="44.08465" lon="7.05713">
        <ele>1117.8</ele>
        <time>2022-06-11T11:06:42Z</time>
      </trkpt>
      <trkpt lat="44.08463" lon="7.05713">
        <ele>1118.2</ele>
        <time>2022-06-11T11:06:43Z</time>
      </trkpt>
      <trkpt lat="44.0846" lon="7.05713">
        <ele>1118.5</ele>
        <time>2022-06-11T11:06:44Z</time>
      </trkpt>
      <trkpt lat="44.08458" lon="7.05713">
        <ele>1118.9</ele>
        <time>2022-06-11T11:06:45Z</time>
      </trkpt>
      <trkpt lat="44.08456" lon="7.05714">
        <ele>1119.2</ele>
        <time>2022-06-11T11:06:46Z</time>
      </trkpt>
      <trkpt lat="44.08454" lon="7.05715">
        <ele>1119.6</ele>
        <time>2022-06-11T11:06:47Z</time>
      </trkpt>
      <trkpt lat="44.08452" lon="7.05715">
        <ele>1119.9</ele>
        <time>2022-06-11T11:06:48Z</time>
      </trkpt>
      <trkpt lat="44.08449" lon="7.05715">
        <ele>1120.2</ele>
        <time>2022-06-11T11:06:49Z</time>
      </trkpt>
      <trkpt lat="44.08447" lon="7.05714">
        <ele>1120.6</ele>
        <time>2022-06-11T11:06:50Z</time>
      </trkpt>
      <trkpt lat="44.08445" lon="7.05714">
        <ele>1121</ele>
        <time>2022-06-11T11:06:51Z</time>
      </trkpt>
      <trkpt lat="44.08443" lon="7.05714">
        <ele>1121.1</ele>
        <time>2022-06-11T11:06:52Z</time>
      </trkpt>
      <trkpt lat="44.08441" lon="7.05713">
        <ele>1121.2</ele>
        <time>2022-06-11T11:06:53Z</time>
      </trkpt>
      <trkpt lat="44.08439" lon="7.05713">
        <ele>1121.4</ele>
        <time>2022-06-11T11:06:54Z</time>
      </trkpt>
      <trkpt lat="44.08436" lon="7.05713">
        <ele>1121.5</ele>
        <time>2022-06-11T11:06:55Z</time>
      </trkpt>
      <trkpt lat="44.08434" lon="7.05714">
        <ele>1121.6</ele>
        <time>2022-06-11T11:06:56Z</time>
      </trkpt>
      <trkpt lat="44.08432" lon="7.05715">
        <ele>1121.8</ele>
        <time>2022-06-11T11:06:57Z</time>
      </trkpt>
      <trkpt lat="44.08429" lon="7.05715">
        <ele>1121.9</ele>
        <time>2022-06-11T11:06:58Z</time>
      </trkpt>
      <trkpt lat="44.08427" lon="7.05715">
        <ele>1122.1</ele>
        <time>2022-06-11T11:06:59Z</time>
      </trkpt>
      <trkpt lat="44.08425" lon="7.05715">
        <ele>1122.2</ele>
        <time>2022-06-11T11:07:00Z</time>
      </trkpt>
      <trkpt lat="44.08423" lon="7.05715">
        <ele>1122.3</ele>
        <time>2022-06-11T11:07:01Z</time>
      </trkpt>
      <trkpt lat="44.08421" lon="7.05715">
        <ele>1122.5</ele>
        <time>2022-06-11T11:07:02Z</time>
      </trkpt>
      <trkpt lat="44.08418" lon="7.05716">
        <ele>1122.7</ele>
        <time>2022-06-11T11:07:03Z</time>
      </trkpt>
      <trkpt lat="44.08416" lon="7.05716">
        <ele>1122.8</ele>
        <time>2022-06-11T11:07:04Z</time>
      </trkpt>
      <trkpt lat="44.08414" lon="7.05717">
        <ele>1123</ele>
        <time>2022-06-11T11:07:05Z</time>
      </trkpt>
      <trkpt lat="44.08412" lon="7.05716">
        <ele>1123</ele>
        <time>2022-06-11T11:07:06Z</time>
      </trkpt>
      <trkpt lat="44.0841" lon="7.05714">
        <ele>1123</ele>
        <time>2022-06-11T11:07:07Z</time>
      </trkpt>
      <trkpt lat="44.08408" lon="7.05712">
        <ele>1123</ele>
        <time>2022-06-11T11:07:08Z</time>
      </trkpt>
      <trkpt lat="44.08407" lon="7.05709">
        <ele>1122.9</ele>
        <time>2022-06-11T11:07:09Z</time>
      </trkpt>
      <trkpt lat="44.08406" lon="7.05707">
        <ele>1122.8</ele>
        <time>2022-06-11T11:07:10Z</time>
      </trkpt>
      <trkpt lat="44.08405" lon="7.05703">
        <ele>1122.6</ele>
        <time>2022-06-11T11:07:11Z</time>
      </trkpt>
      <trkpt lat="44.08406" lon="7.05701">
        <ele>1122.4</ele>
        <time>2022-06-11T11:07:12Z</time>
      </trkpt>
      <trkpt lat="44.08407" lon="7.05698">
        <ele>1122.2</ele>
        <time>2022-06-11T11:07:13Z</time>
      </trkpt>
      <trkpt lat="44.08409" lon="7.05697">
        <ele>1122.1</ele>
        <time>2022-06-11T11:07:14Z</time>
      </trkpt>
      <trkpt lat="44.08411" lon="7.05696">
        <ele>1122.1</ele>
        <time>2022-06-11T11:07:15Z</time>
      </trkpt>
      <trkpt lat="44.08413" lon="7.05696">
        <ele>1122.1</ele>
        <time>2022-06-11T11:07:16Z</time>
      </trkpt>
      <trkpt lat="44.08416" lon="7.05696">
        <ele>1122</ele>
        <time>2022-06-11T11:07:17Z</time>
      </trkpt>
      <trkpt lat="44.08418" lon="7.05696">
        <ele>1122</ele>
        <time>2022-06-11T11:07:18Z</time>
      </trkpt>
      <trkpt lat="44.0842" lon="7.05697">
        <ele>1122</ele>
        <time>2022-06-11T11:07:19Z</time>
      </trkpt>
      <trkpt lat="44.08422" lon="7.05697">
        <ele>1121.9</ele>
        <time>2022-06-11T11:07:20Z</time>
      </trkpt>
      <trkpt lat="44.08424" lon="7.05697">
        <ele>1121.8</ele>
        <time>2022-06-11T11:07:21Z</time>
      </trkpt>
      <trkpt lat="44.08426" lon="7.05697">
        <ele>1121.7</ele>
        <time>2022-06-11T11:07:22Z</time>
      </trkpt>
      <trkpt lat="44.08428" lon="7.05697">
        <ele>1121.7</ele>
        <time>2022-06-11T11:07:23Z</time>
      </trkpt>
      <trkpt lat="44.0843" lon="7.05698">
        <ele>1121.6</ele>
        <time>2022-06-11T11:07:24Z</time>
      </trkpt>
      <trkpt lat="44.08431" lon="7.05698">
        <ele>1121.5</ele>
        <time>2022-06-11T11:07:25Z</time>
      </trkpt>
      <trkpt lat="44.08433" lon="7.05698">
        <ele>1121.5</ele>
        <time>2022-06-11T11:07:26Z</time>
      </trkpt>
      <trkpt lat="44.08435" lon="7.05698">
        <ele>1121.4</ele>
        <time>2022-06-11T11:07:27Z</time>
      </trkpt>
      <trkpt lat="44.08437" lon="7.05697">
        <ele>1121.3</ele>
        <time>2022-06-11T11:07:28Z</time>
      </trkpt>
      <trkpt lat="44.0844" lon="7.05696">
        <ele>1121.2</ele>
        <time>2022-06-11T11:07:29Z</time>
      </trkpt>
      <trkpt lat="44.08442" lon="7.05696">
        <ele>1121.1</ele>
        <time>2022-06-11T11:07:30Z</time>
      </trkpt>
      <trkpt lat="44.08444" lon="7.05695">
        <ele>1121</ele>
        <time>2022-06-11T11:07:31Z</time>
      </trkpt>
      <trkpt lat="44.08446" lon="7.05694">
        <ele>1120.9</ele>
        <time>2022-06-11T11:07:32Z</time>
      </trkpt>
      <trkpt lat="44.08448" lon="7.05694">
        <ele>1120.8</ele>
        <time>2022-06-11T11:07:33Z</time>
      </trkpt>
      <trkpt lat="44.08449" lon="7.05693">
        <ele>1120.9</ele>
        <time>2022-06-11T11:07:34Z</time>
      </trkpt>
      <trkpt lat="44.08451" lon="7.05692">
        <ele>1120.9</ele>
        <time>2022-06-11T11:07:35Z</time>
      </trkpt>
      <trkpt lat="44.08453" lon="7.05691">
        <ele>1120.9</ele>
        <time>2022-06-11T11:07:36Z</time>
      </trkpt>
      <trkpt lat="44.08454" lon="7.0569">
        <ele>1120.9</ele>
        <time>2022-06-11T11:07:37Z</time>
      </trkpt>
      <trkpt lat="44.08456" lon="7.05689">
        <ele>1121.1</ele>
        <time>2022-06-11T11:07:38Z</time>
      </trkpt>
      <trkpt lat="44.08458" lon="7.05687">
        <ele>1121.2</ele>
        <time>2022-06-11T11:07:39Z</time>
      </trkpt>
      <trkpt lat="44.0846" lon="7.05686">
        <ele>1121.4</ele>
        <time>2022-06-11T11:07:40Z</time>
      </trkpt>
      <trkpt lat="44.08462" lon="7.05685">
        <ele>1121.4</ele>
        <time>2022-06-11T11:07:41Z</time>
      </trkpt>
      <trkpt lat="44.08465" lon="7.05684">
        <ele>1121.5</ele>
        <time>2022-06-11T11:07:42Z</time>
      </trkpt>
      <trkpt lat="44.08467" lon="7.05683">
        <ele>1121.7</ele>
        <time>2022-06-11T11:07:43Z</time>
      </trkpt>
      <trkpt lat="44.08469" lon="7.05682">
        <ele>1121.7</ele>
        <time>2022-06-11T11:07:44Z</time>
      </trkpt>
      <trkpt lat="44.08471" lon="7.05682">
        <ele>1121.7</ele>
        <time>2022-06-11T11:07:45Z</time>
      </trkpt>
      <trkpt lat="44.08473" lon="7.05682">
        <ele>1121.7</ele>
        <time>2022-06-11T11:07:46Z</time>
      </trkpt>
      <trkpt lat="44.08475" lon="7.05681">
        <ele>1121.9</ele>
        <time>2022-06-11T11:07:47Z</time>
      </trkpt>
      <trkpt lat="44.08477" lon="7.05681">
        <ele>1121.9</ele>
        <time>2022-06-11T11:07:48Z</time>
      </trkpt>
      <trkpt lat="44.08479" lon="7.05681">
        <ele>1122</ele>
        <time>2022-06-11T11:07:49Z</time>
      </trkpt>
      <trkpt lat="44.08481" lon="7.05682">
        <ele>1121.8</ele>
        <time>2022-06-11T11:07:50Z</time>
      </trkpt>
      <trkpt lat="44.08484" lon="7.05683">
        <ele>1121.5</ele>
        <time>2022-06-11T11:07:51Z</time>
      </trkpt>
      <trkpt lat="44.08486" lon="7.05684">
        <ele>1121.3</ele>
        <time>2022-06-11T11:07:52Z</time>
      </trkpt>
      <trkpt lat="44.08488" lon="7.05685">
        <ele>1121.1</ele>
        <time>2022-06-11T11:07:53Z</time>
      </trkpt>
      <trkpt lat="44.0849" lon="7.05686">
        <ele>1120.6</ele>
        <time>2022-06-11T11:07:54Z</time>
      </trkpt>
      <trkpt lat="44.08492" lon="7.05687">
        <ele>1120.2</ele>
        <time>2022-06-11T11:07:55Z</time>
      </trkpt>
      <trkpt lat="44.08494" lon="7.05688">
        <ele>1119.9</ele>
        <time>2022-06-11T11:07:56Z</time>
      </trkpt>
      <trkpt lat="44.08496" lon="7.0569">
        <ele>1119.5</ele>
        <time>2022-06-11T11:07:57Z</time>
      </trkpt>
      <trkpt lat="44.08499" lon="7.05691">
        <ele>1119</ele>
        <time>2022-06-11T11:07:58Z</time>
      </trkpt>
      <trkpt lat="44.08501" lon="7.05693">
        <ele>1118.6</ele>
        <time>2022-06-11T11:07:59Z</time>
      </trkpt>
      <trkpt lat="44.08502" lon="7.05694">
        <ele>1118.4</ele>
        <time>2022-06-11T11:08:00Z</time>
      </trkpt>
      <trkpt lat="44.08505" lon="7.05695">
        <ele>1118.1</ele>
        <time>2022-06-11T11:08:01Z</time>
      </trkpt>
      <trkpt lat="44.08507" lon="7.05696">
        <ele>1118</ele>
        <time>2022-06-11T11:08:02Z</time>
      </trkpt>
      <trkpt lat="44.08509" lon="7.05697">
        <ele>1117.8</ele>
        <time>2022-06-11T11:08:03Z</time>
      </trkpt>
      <trkpt lat="44.08511" lon="7.05698">
        <ele>1117.5</ele>
        <time>2022-06-11T11:08:04Z</time>
      </trkpt>
      <trkpt lat="44.08513" lon="7.05699">
        <ele>1117.3</ele>
        <time>2022-06-11T11:08:05Z</time>
      </trkpt>
      <trkpt lat="44.08515" lon="7.05701">
        <ele>1117</ele>
        <time>2022-06-11T11:08:06Z</time>
      </trkpt>
      <trkpt lat="44.08517" lon="7.05702">
        <ele>1116.7</ele>
        <time>2022-06-11T11:08:07Z</time>
      </trkpt>
      <trkpt lat="44.08518" lon="7.05703">
        <ele>1116.5</ele>
        <time>2022-06-11T11:08:08Z</time>
      </trkpt>
      <trkpt lat="44.0852" lon="7.05703">
        <ele>1116.6</ele>
        <time>2022-06-11T11:08:09Z</time>
      </trkpt>
      <trkpt lat="44.08522" lon="7.05703">
        <ele>1116.5</ele>
        <time>2022-06-11T11:08:10Z</time>
      </trkpt>
      <trkpt lat="44.08523" lon="7.05703">
        <ele>1116.4</ele>
        <time>2022-06-11T11:08:11Z</time>
      </trkpt>
      <trkpt lat="44.08525" lon="7.05704">
        <ele>1116.3</ele>
        <time>2022-06-11T11:08:12Z</time>
      </trkpt>
      <trkpt lat="44.08528" lon="7.05703">
        <ele>1116.6</ele>
        <time>2022-06-11T11:08:13Z</time>
      </trkpt>
      <trkpt lat="44.0853" lon="7.05701">
        <ele>1117.2</ele>
        <time>2022-06-11T11:08:14Z</time>
      </trkpt>
      <trkpt lat="44.08533" lon="7.057">
        <ele>1117.7</ele>
        <time>2022-06-11T11:08:15Z</time>
      </trkpt>
      <trkpt lat="44.08535" lon="7.05699">
        <ele>1118.2</ele>
        <time>2022-06-11T11:08:16Z</time>
      </trkpt>
      <trkpt lat="44.08538" lon="7.05697">
        <ele>1119</ele>
        <time>2022-06-11T11:08:17Z</time>
      </trkpt>
      <trkpt lat="44.0854" lon="7.05696">
        <ele>1119.3</ele>
        <time>2022-06-11T11:08:18Z</time>
      </trkpt>
      <trkpt lat="44.08542" lon="7.05695">
        <ele>1119.9</ele>
        <time>2022-06-11T11:08:19Z</time>
      </trkpt>
      <trkpt lat="44.08544" lon="7.05692">
        <ele>1121.1</ele>
        <time>2022-06-11T11:08:20Z</time>
      </trkpt>
      <trkpt lat="44.08546" lon="7.0569">
        <ele>1122.1</ele>
        <time>2022-06-11T11:08:21Z</time>
      </trkpt>
      <trkpt lat="44.08548" lon="7.05689">
        <ele>1122.8</ele>
        <time>2022-06-11T11:08:22Z</time>
      </trkpt>
      <trkpt lat="44.0855" lon="7.05686">
        <ele>1124.1</ele>
        <time>2022-06-11T11:08:23Z</time>
      </trkpt>
      <trkpt lat="44.08551" lon="7.05683">
        <ele>1125.2</ele>
        <time>2022-06-11T11:08:24Z</time>
      </trkpt>
      <trkpt lat="44.08553" lon="7.05681">
        <ele>1126.1</ele>
        <time>2022-06-11T11:08:25Z</time>
      </trkpt>
      <trkpt lat="44.08555" lon="7.05679">
        <ele>1127.1</ele>
        <time>2022-06-11T11:08:26Z</time>
      </trkpt>
      <trkpt lat="44.08558" lon="7.05678">
        <ele>1128.2</ele>
        <time>2022-06-11T11:08:27Z</time>
      </trkpt>
      <trkpt lat="44.0856" lon="7.05676">
        <ele>1129.2</ele>
        <time>2022-06-11T11:08:28Z</time>
      </trkpt>
      <trkpt lat="44.08563" lon="7.05675">
        <ele>1130.2</ele>
        <time>2022-06-11T11:08:29Z</time>
      </trkpt>
      <trkpt lat="44.08565" lon="7.05675">
        <ele>1130.8</ele>
        <time>2022-06-11T11:08:30Z</time>
      </trkpt>
      <trkpt lat="44.08567" lon="7.05674">
        <ele>1131.6</ele>
        <time>2022-06-11T11:08:31Z</time>
      </trkpt>
      <trkpt lat="44.08569" lon="7.05674">
        <ele>1132.3</ele>
        <time>2022-06-11T11:08:32Z</time>
      </trkpt>
      <trkpt lat="44.08572" lon="7.05673">
        <ele>1133</ele>
        <time>2022-06-11T11:08:33Z</time>
      </trkpt>
      <trkpt lat="44.08574" lon="7.05673">
        <ele>1133.5</ele>
        <time>2022-06-11T11:08:34Z</time>
      </trkpt>
      <trkpt lat="44.08577" lon="7.05674">
        <ele>1133.8</ele>
        <time>2022-06-11T11:08:35Z</time>
      </trkpt>
      <trkpt lat="44.08579" lon="7.05675">
        <ele>1134</ele>
        <time>2022-06-11T11:08:36Z</time>
      </trkpt>
      <trkpt lat="44.08581" lon="7.05676">
        <ele>1133.8</ele>
        <time>2022-06-11T11:08:37Z</time>
      </trkpt>
      <trkpt lat="44.08583" lon="7.05678">
        <ele>1133.7</ele>
        <time>2022-06-11T11:08:38Z</time>
      </trkpt>
      <trkpt lat="44.08585" lon="7.05679">
        <ele>1134</ele>
        <time>2022-06-11T11:08:39Z</time>
      </trkpt>
      <trkpt lat="44.08588" lon="7.05681">
        <ele>1134.4</ele>
        <time>2022-06-11T11:08:40Z</time>
      </trkpt>
      <trkpt lat="44.08589" lon="7.05683">
        <ele>1134.6</ele>
        <time>2022-06-11T11:08:41Z</time>
      </trkpt>
      <trkpt lat="44.08591" lon="7.05685">
        <ele>1134.5</ele>
        <time>2022-06-11T11:08:42Z</time>
      </trkpt>
      <trkpt lat="44.08593" lon="7.05687">
        <ele>1134.6</ele>
        <time>2022-06-11T11:08:43Z</time>
      </trkpt>
      <trkpt lat="44.08594" lon="7.05689">
        <ele>1134.5</ele>
        <time>2022-06-11T11:08:44Z</time>
      </trkpt>
      <trkpt lat="44.08596" lon="7.05691">
        <ele>1134.2</ele>
        <time>2022-06-11T11:08:45Z</time>
      </trkpt>
      <trkpt lat="44.08597" lon="7.05693">
        <ele>1133.8</ele>
        <time>2022-06-11T11:08:46Z</time>
      </trkpt>
      <trkpt lat="44.08598" lon="7.05696">
        <ele>1133.2</ele>
        <time>2022-06-11T11:08:47Z</time>
      </trkpt>
      <trkpt lat="44.08599" lon="7.05698">
        <ele>1132.9</ele>
        <time>2022-06-11T11:08:48Z</time>
      </trkpt>
      <trkpt lat="44.086" lon="7.057">
        <ele>1132.6</ele>
        <time>2022-06-11T11:08:49Z</time>
      </trkpt>
      <trkpt lat="44.08601" lon="7.05703">
        <ele>1132.1</ele>
        <time>2022-06-11T11:08:50Z</time>
      </trkpt>
      <trkpt lat="44.08602" lon="7.05705">
        <ele>1131.4</ele>
        <time>2022-06-11T11:08:51Z</time>
      </trkpt>
      <trkpt lat="44.08603" lon="7.05708">
        <ele>1130.7</ele>
        <time>2022-06-11T11:08:52Z</time>
      </trkpt>
      <trkpt lat="44.08604" lon="7.05711">
        <ele>1130</ele>
        <time>2022-06-11T11:08:53Z</time>
      </trkpt>
      <trkpt lat="44.08606" lon="7.05714">
        <ele>1129.4</ele>
        <time>2022-06-11T11:08:54Z</time>
      </trkpt>
      <trkpt lat="44.08607" lon="7.05716">
        <ele>1129</ele>
        <time>2022-06-11T11:08:55Z</time>
      </trkpt>
      <trkpt lat="44.08608" lon="7.05718">
        <ele>1128.8</ele>
        <time>2022-06-11T11:08:56Z</time>
      </trkpt>
      <trkpt lat="44.0861" lon="7.0572">
        <ele>1128.6</ele>
        <time>2022-06-11T11:08:57Z</time>
      </trkpt>
      <trkpt lat="44.08612" lon="7.05721">
        <ele>1128.7</ele>
        <time>2022-06-11T11:08:58Z</time>
      </trkpt>
      <trkpt lat="44.08614" lon="7.05722">
        <ele>1129.3</ele>
        <time>2022-06-11T11:08:59Z</time>
      </trkpt>
      <trkpt lat="44.08616" lon="7.05723">
        <ele>1129.8</ele>
        <time>2022-06-11T11:09:00Z</time>
      </trkpt>
      <trkpt lat="44.08618" lon="7.05725">
        <ele>1130.1</ele>
        <time>2022-06-11T11:09:01Z</time>
      </trkpt>
      <trkpt lat="44.08619" lon="7.05726">
        <ele>1130.5</ele>
        <time>2022-06-11T11:09:02Z</time>
      </trkpt>
      <trkpt lat="44.08621" lon="7.05726">
        <ele>1131.2</ele>
        <time>2022-06-11T11:09:03Z</time>
      </trkpt>
      <trkpt lat="44.08624" lon="7.05727">
        <ele>1132</ele>
        <time>2022-06-11T11:09:04Z</time>
      </trkpt>
      <trkpt lat="44.08626" lon="7.05727">
        <ele>1132.8</ele>
        <time>2022-06-11T11:09:05Z</time>
      </trkpt>
      <trkpt lat="44.08628" lon="7.05727">
        <ele>1133.7</ele>
        <time>2022-06-11T11:09:06Z</time>
      </trkpt>
      <trkpt lat="44.0863" lon="7.05728">
        <ele>1134.4</ele>
        <time>2022-06-11T11:09:07Z</time>
      </trkpt>
      <trkpt lat="44.08632" lon="7.05729">
        <ele>1135.1</ele>
        <time>2022-06-11T11:09:08Z</time>
      </trkpt>
      <trkpt lat="44.08634" lon="7.05729">
        <ele>1135.8</ele>
        <time>2022-06-11T11:09:09Z</time>
      </trkpt>
      <trkpt lat="44.08636" lon="7.05729">
        <ele>1136.7</ele>
        <time>2022-06-11T11:09:10Z</time>
      </trkpt>
      <trkpt lat="44.08638" lon="7.05729">
        <ele>1137.6</ele>
        <time>2022-06-11T11:09:11Z</time>
      </trkpt>
      <trkpt lat="44.0864" lon="7.0573">
        <ele>1138.5</ele>
        <time>2022-06-11T11:09:12Z</time>
      </trkpt>
      <trkpt lat="44.08643" lon="7.05731">
        <ele>1139.1</ele>
        <time>2022-06-11T11:09:13Z</time>
      </trkpt>
      <trkpt lat="44.08645" lon="7.05732">
        <ele>1139.6</ele>
        <time>2022-06-11T11:09:14Z</time>
      </trkpt>
      <trkpt lat="44.08646" lon="7.05733">
        <ele>1140</ele>
        <time>2022-06-11T11:09:15Z</time>
      </trkpt>
      <trkpt lat="44.08648" lon="7.05734">
        <ele>1140.3</ele>
        <time>2022-06-11T11:09:16Z</time>
      </trkpt>
      <trkpt lat="44.0865" lon="7.05736">
        <ele>1140.4</ele>
        <time>2022-06-11T11:09:17Z</time>
      </trkpt>
      <trkpt lat="44.08651" lon="7.05737">
        <ele>1140.6</ele>
        <time>2022-06-11T11:09:18Z</time>
      </trkpt>
      <trkpt lat="44.08653" lon="7.05739">
        <ele>1140.8</ele>
        <time>2022-06-11T11:09:19Z</time>
      </trkpt>
      <trkpt lat="44.08655" lon="7.05741">
        <ele>1141.1</ele>
        <time>2022-06-11T11:09:20Z</time>
      </trkpt>
      <trkpt lat="44.08657" lon="7.05743">
        <ele>1141.1</ele>
        <time>2022-06-11T11:09:21Z</time>
      </trkpt>
      <trkpt lat="44.08658" lon="7.05746">
        <ele>1140.9</ele>
        <time>2022-06-11T11:09:22Z</time>
      </trkpt>
      <trkpt lat="44.08659" lon="7.05747">
        <ele>1140.7</ele>
        <time>2022-06-11T11:09:23Z</time>
      </trkpt>
      <trkpt lat="44.0866" lon="7.0575">
        <ele>1140.7</ele>
        <time>2022-06-11T11:09:24Z</time>
      </trkpt>
      <trkpt lat="44.08662" lon="7.05752">
        <ele>1140.7</ele>
        <time>2022-06-11T11:09:25Z</time>
      </trkpt>
      <trkpt lat="44.08663" lon="7.05754">
        <ele>1140.9</ele>
        <time>2022-06-11T11:09:26Z</time>
      </trkpt>
      <trkpt lat="44.08665" lon="7.05757">
        <ele>1140.9</ele>
        <time>2022-06-11T11:09:27Z</time>
      </trkpt>
      <trkpt lat="44.08666" lon="7.0576">
        <ele>1140.8</ele>
        <time>2022-06-11T11:09:28Z</time>
      </trkpt>
      <trkpt lat="44.08668" lon="7.05763">
        <ele>1140.8</ele>
        <time>2022-06-11T11:09:29Z</time>
      </trkpt>
      <trkpt lat="44.08669" lon="7.05766">
        <ele>1140.8</ele>
        <time>2022-06-11T11:09:30Z</time>
      </trkpt>
      <trkpt lat="44.0867" lon="7.05769">
        <ele>1140.5</ele>
        <time>2022-06-11T11:09:31Z</time>
      </trkpt>
      <trkpt lat="44.08671" lon="7.05772">
        <ele>1140.2</ele>
        <time>2022-06-11T11:09:32Z</time>
      </trkpt>
      <trkpt lat="44.08672" lon="7.05774">
        <ele>1140.1</ele>
        <time>2022-06-11T11:09:33Z</time>
      </trkpt>
      <trkpt lat="44.08673" lon="7.05777">
        <ele>1140.2</ele>
        <time>2022-06-11T11:09:34Z</time>
      </trkpt>
      <trkpt lat="44.08675" lon="7.05779">
        <ele>1139.9</ele>
        <time>2022-06-11T11:09:35Z</time>
      </trkpt>
      <trkpt lat="44.08676" lon="7.05782">
        <ele>1139.7</ele>
        <time>2022-06-11T11:09:36Z</time>
      </trkpt>
      <trkpt lat="44.08677" lon="7.05784">
        <ele>1139.5</ele>
        <time>2022-06-11T11:09:37Z</time>
      </trkpt>
      <trkpt lat="44.08679" lon="7.05786">
        <ele>1139.5</ele>
        <time>2022-06-11T11:09:38Z</time>
      </trkpt>
      <trkpt lat="44.0868" lon="7.05789">
        <ele>1139.3</ele>
        <time>2022-06-11T11:09:39Z</time>
      </trkpt>
      <trkpt lat="44.08681" lon="7.05791">
        <ele>1139.2</ele>
        <time>2022-06-11T11:09:40Z</time>
      </trkpt>
      <trkpt lat="44.08683" lon="7.05793">
        <ele>1139.3</ele>
        <time>2022-06-11T11:09:41Z</time>
      </trkpt>
      <trkpt lat="44.08685" lon="7.05795">
        <ele>1139.7</ele>
        <time>2022-06-11T11:09:42Z</time>
      </trkpt>
      <trkpt lat="44.08687" lon="7.05797">
        <ele>1139.8</ele>
        <time>2022-06-11T11:09:43Z</time>
      </trkpt>
      <trkpt lat="44.08689" lon="7.05799">
        <ele>1139.9</ele>
        <time>2022-06-11T11:09:44Z</time>
      </trkpt>
      <trkpt lat="44.08691" lon="7.05801">
        <ele>1139.9</ele>
        <time>2022-06-11T11:09:45Z</time>
      </trkpt>
      <trkpt lat="44.08692" lon="7.05803">
        <ele>1139.8</ele>
        <time>2022-06-11T11:09:46Z</time>
      </trkpt>
      <trkpt lat="44.08694" lon="7.05806">
        <ele>1139.5</ele>
        <time>2022-06-11T11:09:47Z</time>
      </trkpt>
      <trkpt lat="44.08695" lon="7.05808">
        <ele>1139.1</ele>
        <time>2022-06-11T11:09:48Z</time>
      </trkpt>
      <trkpt lat="44.08696" lon="7.0581">
        <ele>1138.5</ele>
        <time>2022-06-11T11:09:49Z</time>
      </trkpt>
      <trkpt lat="44.08698" lon="7.05812">
        <ele>1138.1</ele>
        <time>2022-06-11T11:09:50Z</time>
      </trkpt>
      <trkpt lat="44.08699" lon="7.05813">
        <ele>1138.1</ele>
        <time>2022-06-11T11:09:51Z</time>
      </trkpt>
      <trkpt lat="44.08701" lon="7.05815">
        <ele>1138</ele>
        <time>2022-06-11T11:09:52Z</time>
      </trkpt>
      <trkpt lat="44.08703" lon="7.05815">
        <ele>1138.3</ele>
        <time>2022-06-11T11:09:53Z</time>
      </trkpt>
      <trkpt lat="44.08705" lon="7.05816">
        <ele>1138.7</ele>
        <time>2022-06-11T11:09:54Z</time>
      </trkpt>
      <trkpt lat="44.08707" lon="7.05816">
        <ele>1139</ele>
        <time>2022-06-11T11:09:55Z</time>
      </trkpt>
      <trkpt lat="44.08709" lon="7.05817">
        <ele>1139.2</ele>
        <time>2022-06-11T11:09:56Z</time>
      </trkpt>
      <trkpt lat="44.08711" lon="7.05818">
        <ele>1139.5</ele>
        <time>2022-06-11T11:09:57Z</time>
      </trkpt>
      <trkpt lat="44.08714" lon="7.05818">
        <ele>1139.8</ele>
        <time>2022-06-11T11:09:58Z</time>
      </trkpt>
      <trkpt lat="44.08716" lon="7.05818">
        <ele>1140.4</ele>
        <time>2022-06-11T11:09:59Z</time>
      </trkpt>
      <trkpt lat="44.08718" lon="7.05818">
        <ele>1141</ele>
        <time>2022-06-11T11:10:00Z</time>
      </trkpt>
      <trkpt lat="44.0872" lon="7.05818">
        <ele>1141.8</ele>
        <time>2022-06-11T11:10:01Z</time>
      </trkpt>
      <trkpt lat="44.08722" lon="7.05817">
        <ele>1142.6</ele>
        <time>2022-06-11T11:10:02Z</time>
      </trkpt>
      <trkpt lat="44.08724" lon="7.05817">
        <ele>1143.3</ele>
        <time>2022-06-11T11:10:03Z</time>
      </trkpt>
      <trkpt lat="44.08727" lon="7.05816">
        <ele>1143.9</ele>
        <time>2022-06-11T11:10:04Z</time>
      </trkpt>
      <trkpt lat="44.08729" lon="7.05815">
        <ele>1144.6</ele>
        <time>2022-06-11T11:10:05Z</time>
      </trkpt>
      <trkpt lat="44.08732" lon="7.05815">
        <ele>1144.9</ele>
        <time>2022-06-11T11:10:06Z</time>
      </trkpt>
      <trkpt lat="44.08734" lon="7.05815">
        <ele>1145.4</ele>
        <time>2022-06-11T11:10:07Z</time>
      </trkpt>
      <trkpt lat="44.08736" lon="7.05814">
        <ele>1146.1</ele>
        <time>2022-06-11T11:10:08Z</time>
      </trkpt>
      <trkpt lat="44.08738" lon="7.05813">
        <ele>1146.6</ele>
        <time>2022-06-11T11:10:09Z</time>
      </trkpt>
      <trkpt lat="44.0874" lon="7.05813">
        <ele>1147.2</ele>
        <time>2022-06-11T11:10:10Z</time>
      </trkpt>
      <trkpt lat="44.08742" lon="7.05812">
        <ele>1147.6</ele>
        <time>2022-06-11T11:10:11Z</time>
      </trkpt>
      <trkpt lat="44.08744" lon="7.05812">
        <ele>1148.1</ele>
        <time>2022-06-11T11:10:12Z</time>
      </trkpt>
      <trkpt lat="44.08746" lon="7.05811">
        <ele>1148.5</ele>
        <time>2022-06-11T11:10:13Z</time>
      </trkpt>
      <trkpt lat="44.08749" lon="7.05811">
        <ele>1149</ele>
        <time>2022-06-11T11:10:14Z</time>
      </trkpt>
      <trkpt lat="44.08751" lon="7.0581">
        <ele>1149.6</ele>
        <time>2022-06-11T11:10:15Z</time>
      </trkpt>
      <trkpt lat="44.08753" lon="7.0581">
        <ele>1149.8</ele>
        <time>2022-06-11T11:10:16Z</time>
      </trkpt>
      <trkpt lat="44.08755" lon="7.0581">
        <ele>1150.3</ele>
        <time>2022-06-11T11:10:17Z</time>
      </trkpt>
      <trkpt lat="44.08757" lon="7.05809">
        <ele>1150.7</ele>
        <time>2022-06-11T11:10:18Z</time>
      </trkpt>
      <trkpt lat="44.08759" lon="7.05809">
        <ele>1151.1</ele>
        <time>2022-06-11T11:10:19Z</time>
      </trkpt>
      <trkpt lat="44.08761" lon="7.05808">
        <ele>1151.5</ele>
        <time>2022-06-11T11:10:20Z</time>
      </trkpt>
      <trkpt lat="44.08764" lon="7.05808">
        <ele>1152</ele>
        <time>2022-06-11T11:10:21Z</time>
      </trkpt>
      <trkpt lat="44.08765" lon="7.05807">
        <ele>1152.6</ele>
        <time>2022-06-11T11:10:22Z</time>
      </trkpt>
      <trkpt lat="44.08767" lon="7.05806">
        <ele>1153.1</ele>
        <time>2022-06-11T11:10:23Z</time>
      </trkpt>
      <trkpt lat="44.08769" lon="7.05805">
        <ele>1153.7</ele>
        <time>2022-06-11T11:10:24Z</time>
      </trkpt>
      <trkpt lat="44.08772" lon="7.05804">
        <ele>1154.4</ele>
        <time>2022-06-11T11:10:25Z</time>
      </trkpt>
      <trkpt lat="44.08774" lon="7.05803">
        <ele>1154.9</ele>
        <time>2022-06-11T11:10:26Z</time>
      </trkpt>
      <trkpt lat="44.08776" lon="7.05803">
        <ele>1155.3</ele>
        <time>2022-06-11T11:10:27Z</time>
      </trkpt>
      <trkpt lat="44.08778" lon="7.05802">
        <ele>1155.6</ele>
        <time>2022-06-11T11:10:28Z</time>
      </trkpt>
      <trkpt lat="44.0878" lon="7.05802">
        <ele>1155.9</ele>
        <time>2022-06-11T11:10:29Z</time>
      </trkpt>
      <trkpt lat="44.08782" lon="7.05802">
        <ele>1156.3</ele>
        <time>2022-06-11T11:10:30Z</time>
      </trkpt>
      <trkpt lat="44.08784" lon="7.05801">
        <ele>1156.5</ele>
        <time>2022-06-11T11:10:31Z</time>
      </trkpt>
      <trkpt lat="44.08786" lon="7.05801">
        <ele>1156.8</ele>
        <time>2022-06-11T11:10:32Z</time>
      </trkpt>
      <trkpt lat="44.08788" lon="7.05801">
        <ele>1157</ele>
        <time>2022-06-11T11:10:33Z</time>
      </trkpt>
      <trkpt lat="44.0879" lon="7.05801">
        <ele>1157.1</ele>
        <time>2022-06-11T11:10:34Z</time>
      </trkpt>
      <trkpt lat="44.08793" lon="7.05801">
        <ele>1157.5</ele>
        <time>2022-06-11T11:10:35Z</time>
      </trkpt>
      <trkpt lat="44.08795" lon="7.058">
        <ele>1157.8</ele>
        <time>2022-06-11T11:10:36Z</time>
      </trkpt>
      <trkpt lat="44.08797" lon="7.058">
        <ele>1157.9</ele>
        <time>2022-06-11T11:10:37Z</time>
      </trkpt>
      <trkpt lat="44.08799" lon="7.05801">
        <ele>1157.8</ele>
        <time>2022-06-11T11:10:38Z</time>
      </trkpt>
      <trkpt lat="44.08801" lon="7.05801">
        <ele>1157.7</ele>
        <time>2022-06-11T11:10:39Z</time>
      </trkpt>
      <trkpt lat="44.08803" lon="7.05802">
        <ele>1157.4</ele>
        <time>2022-06-11T11:10:40Z</time>
      </trkpt>
      <trkpt lat="44.08805" lon="7.05803">
        <ele>1157.3</ele>
        <time>2022-06-11T11:10:41Z</time>
      </trkpt>
      <trkpt lat="44.08807" lon="7.05804">
        <ele>1157.1</ele>
        <time>2022-06-11T11:10:42Z</time>
      </trkpt>
      <trkpt lat="44.08809" lon="7.05805">
        <ele>1157.2</ele>
        <time>2022-06-11T11:10:43Z</time>
      </trkpt>
      <trkpt lat="44.08811" lon="7.05805">
        <ele>1157.4</ele>
        <time>2022-06-11T11:10:44Z</time>
      </trkpt>
      <trkpt lat="44.08813" lon="7.05805">
        <ele>1157.8</ele>
        <time>2022-06-11T11:10:45Z</time>
      </trkpt>
      <trkpt lat="44.08815" lon="7.05806">
        <ele>1157.8</ele>
        <time>2022-06-11T11:10:46Z</time>
      </trkpt>
      <trkpt lat="44.08816" lon="7.05807">
        <ele>1157.9</ele>
        <time>2022-06-11T11:10:47Z</time>
      </trkpt>
      <trkpt lat="44.08818" lon="7.05807">
        <ele>1157.9</ele>
        <time>2022-06-11T11:10:48Z</time>
      </trkpt>
      <trkpt lat="44.0882" lon="7.05809">
        <ele>1157.8</ele>
        <time>2022-06-11T11:10:49Z</time>
      </trkpt>
      <trkpt lat="44.08822" lon="7.05809">
        <ele>1158</ele>
        <time>2022-06-11T11:10:50Z</time>
      </trkpt>
      <trkpt lat="44.08824" lon="7.0581">
        <ele>1158.3</ele>
        <time>2022-06-11T11:10:51Z</time>
      </trkpt>
      <trkpt lat="44.08826" lon="7.0581">
        <ele>1158.4</ele>
        <time>2022-06-11T11:10:52Z</time>
      </trkpt>
      <trkpt lat="44.08828" lon="7.0581">
        <ele>1158.8</ele>
        <time>2022-06-11T11:10:53Z</time>
      </trkpt>
      <trkpt lat="44.0883" lon="7.0581">
        <ele>1159.2</ele>
        <time>2022-06-11T11:10:54Z</time>
      </trkpt>
      <trkpt lat="44.08833" lon="7.05811">
        <ele>1159.7</ele>
        <time>2022-06-11T11:10:55Z</time>
      </trkpt>
      <trkpt lat="44.08835" lon="7.05811">
        <ele>1160.3</ele>
        <time>2022-06-11T11:10:56Z</time>
      </trkpt>
      <trkpt lat="44.08837" lon="7.05811">
        <ele>1160.9</ele>
        <time>2022-06-11T11:10:57Z</time>
      </trkpt>
      <trkpt lat="44.08839" lon="7.0581">
        <ele>1161.7</ele>
        <time>2022-06-11T11:10:58Z</time>
      </trkpt>
      <trkpt lat="44.08841" lon="7.0581">
        <ele>1162.6</ele>
        <time>2022-06-11T11:10:59Z</time>
      </trkpt>
      <trkpt lat="44.08843" lon="7.05809">
        <ele>1163.4</ele>
        <time>2022-06-11T11:11:00Z</time>
      </trkpt>
      <trkpt lat="44.08845" lon="7.05809">
        <ele>1164.1</ele>
        <time>2022-06-11T11:11:01Z</time>
      </trkpt>
      <trkpt lat="44.08847" lon="7.05809">
        <ele>1164.7</ele>
        <time>2022-06-11T11:11:02Z</time>
      </trkpt>
      <trkpt lat="44.08849" lon="7.05809">
        <ele>1165.1</ele>
        <time>2022-06-11T11:11:03Z</time>
      </trkpt>
      <trkpt lat="44.08851" lon="7.0581">
        <ele>1165.3</ele>
        <time>2022-06-11T11:11:04Z</time>
      </trkpt>
      <trkpt lat="44.08853" lon="7.05811">
        <ele>1165.5</ele>
        <time>2022-06-11T11:11:05Z</time>
      </trkpt>
      <trkpt lat="44.08855" lon="7.05812">
        <ele>1165.6</ele>
        <time>2022-06-11T11:11:06Z</time>
      </trkpt>
      <trkpt lat="44.08857" lon="7.05814">
        <ele>1165.5</ele>
        <time>2022-06-11T11:11:07Z</time>
      </trkpt>
      <trkpt lat="44.08858" lon="7.05816">
        <ele>1165.4</ele>
        <time>2022-06-11T11:11:08Z</time>
      </trkpt>
      <trkpt lat="44.0886" lon="7.05818">
        <ele>1165.3</ele>
        <time>2022-06-11T11:11:09Z</time>
      </trkpt>
      <trkpt lat="44.08862" lon="7.05819">
        <ele>1165.2</ele>
        <time>2022-06-11T11:11:10Z</time>
      </trkpt>
      <trkpt lat="44.08863" lon="7.05821">
        <ele>1165.3</ele>
        <time>2022-06-11T11:11:11Z</time>
      </trkpt>
      <trkpt lat="44.08865" lon="7.05823">
        <ele>1165.3</ele>
        <time>2022-06-11T11:11:12Z</time>
      </trkpt>
      <trkpt lat="44.08866" lon="7.05824">
        <ele>1165.3</ele>
        <time>2022-06-11T11:11:13Z</time>
      </trkpt>
      <trkpt lat="44.08868" lon="7.05826">
        <ele>1165.4</ele>
        <time>2022-06-11T11:11:14Z</time>
      </trkpt>
      <trkpt lat="44.08869" lon="7.05828">
        <ele>1165.2</ele>
        <time>2022-06-11T11:11:15Z</time>
      </trkpt>
      <trkpt lat="44.08871" lon="7.05829">
        <ele>1165.2</ele>
        <time>2022-06-11T11:11:16Z</time>
      </trkpt>
      <trkpt lat="44.08872" lon="7.05832">
        <ele>1164.9</ele>
        <time>2022-06-11T11:11:17Z</time>
      </trkpt>
      <trkpt lat="44.08874" lon="7.05834">
        <ele>1164.7</ele>
        <time>2022-06-11T11:11:18Z</time>
      </trkpt>
      <trkpt lat="44.08874" lon="7.05834">
        <ele>1164.7</ele>
        <time>2022-06-11T11:11:19Z</time>
      </trkpt>
      <trkpt lat="44.08876" lon="7.05838">
        <ele>1164.1</ele>
        <time>2022-06-11T11:11:20Z</time>
      </trkpt>
      <trkpt lat="44.08877" lon="7.05841">
        <ele>1163.7</ele>
        <time>2022-06-11T11:11:21Z</time>
      </trkpt>
      <trkpt lat="44.08879" lon="7.05843">
        <ele>1163.4</ele>
        <time>2022-06-11T11:11:22Z</time>
      </trkpt>
      <trkpt lat="44.0888" lon="7.05845">
        <ele>1163.1</ele>
        <time>2022-06-11T11:11:23Z</time>
      </trkpt>
      <trkpt lat="44.08881" lon="7.05847">
        <ele>1162.8</ele>
        <time>2022-06-11T11:11:24Z</time>
      </trkpt>
      <trkpt lat="44.08882" lon="7.05849">
        <ele>1162.8</ele>
        <time>2022-06-11T11:11:25Z</time>
      </trkpt>
      <trkpt lat="44.08884" lon="7.05851">
        <ele>1162.8</ele>
        <time>2022-06-11T11:11:26Z</time>
      </trkpt>
      <trkpt lat="44.08886" lon="7.05853">
        <ele>1162.8</ele>
        <time>2022-06-11T11:11:27Z</time>
      </trkpt>
      <trkpt lat="44.08888" lon="7.05854">
        <ele>1163</ele>
        <time>2022-06-11T11:11:28Z</time>
      </trkpt>
      <trkpt lat="44.0889" lon="7.05855">
        <ele>1163.2</ele>
        <time>2022-06-11T11:11:29Z</time>
      </trkpt>
      <trkpt lat="44.08892" lon="7.05857">
        <ele>1163</ele>
        <time>2022-06-11T11:11:30Z</time>
      </trkpt>
      <trkpt lat="44.08894" lon="7.05858">
        <ele>1162.8</ele>
        <time>2022-06-11T11:11:31Z</time>
      </trkpt>
      <trkpt lat="44.08896" lon="7.05858">
        <ele>1162.9</ele>
        <time>2022-06-11T11:11:32Z</time>
      </trkpt>
      <trkpt lat="44.08899" lon="7.05858">
        <ele>1163.1</ele>
        <time>2022-06-11T11:11:33Z</time>
      </trkpt>
      <trkpt lat="44.08901" lon="7.05858">
        <ele>1163.5</ele>
        <time>2022-06-11T11:11:34Z</time>
      </trkpt>
      <trkpt lat="44.08903" lon="7.05857">
        <ele>1163.9</ele>
        <time>2022-06-11T11:11:35Z</time>
      </trkpt>
      <trkpt lat="44.08905" lon="7.05857">
        <ele>1164.5</ele>
        <time>2022-06-11T11:11:36Z</time>
      </trkpt>
      <trkpt lat="44.08907" lon="7.05855">
        <ele>1165.2</ele>
        <time>2022-06-11T11:11:37Z</time>
      </trkpt>
      <trkpt lat="44.08909" lon="7.05854">
        <ele>1166</ele>
        <time>2022-06-11T11:11:38Z</time>
      </trkpt>
      <trkpt lat="44.08911" lon="7.05852">
        <ele>1166.9</ele>
        <time>2022-06-11T11:11:39Z</time>
      </trkpt>
      <trkpt lat="44.08913" lon="7.05851">
        <ele>1167.8</ele>
        <time>2022-06-11T11:11:40Z</time>
      </trkpt>
      <trkpt lat="44.08915" lon="7.05849">
        <ele>1168.8</ele>
        <time>2022-06-11T11:11:41Z</time>
      </trkpt>
      <trkpt lat="44.08917" lon="7.05847">
        <ele>1169.5</ele>
        <time>2022-06-11T11:11:42Z</time>
      </trkpt>
      <trkpt lat="44.08919" lon="7.05845">
        <ele>1169.6</ele>
        <time>2022-06-11T11:11:43Z</time>
      </trkpt>
      <trkpt lat="44.08921" lon="7.05843">
        <ele>1169.9</ele>
        <time>2022-06-11T11:11:44Z</time>
      </trkpt>
      <trkpt lat="44.08923" lon="7.0584">
        <ele>1170</ele>
        <time>2022-06-11T11:11:45Z</time>
      </trkpt>
      <trkpt lat="44.08925" lon="7.05839">
        <ele>1170</ele>
        <time>2022-06-11T11:11:46Z</time>
      </trkpt>
      <trkpt lat="44.08927" lon="7.05837">
        <ele>1169.9</ele>
        <time>2022-06-11T11:11:47Z</time>
      </trkpt>
      <trkpt lat="44.08929" lon="7.05835">
        <ele>1170</ele>
        <time>2022-06-11T11:11:48Z</time>
      </trkpt>
      <trkpt lat="44.0893" lon="7.05833">
        <ele>1170.3</ele>
        <time>2022-06-11T11:11:49Z</time>
      </trkpt>
      <trkpt lat="44.08932" lon="7.05831">
        <ele>1170.7</ele>
        <time>2022-06-11T11:11:50Z</time>
      </trkpt>
      <trkpt lat="44.08933" lon="7.05828">
        <ele>1171.1</ele>
        <time>2022-06-11T11:11:51Z</time>
      </trkpt>
      <trkpt lat="44.08934" lon="7.05826">
        <ele>1171.4</ele>
        <time>2022-06-11T11:11:52Z</time>
      </trkpt>
      <trkpt lat="44.08936" lon="7.05824">
        <ele>1171.8</ele>
        <time>2022-06-11T11:11:53Z</time>
      </trkpt>
      <trkpt lat="44.08937" lon="7.05822">
        <ele>1172.4</ele>
        <time>2022-06-11T11:11:54Z</time>
      </trkpt>
      <trkpt lat="44.08937" lon="7.05819">
        <ele>1173.2</ele>
        <time>2022-06-11T11:11:55Z</time>
      </trkpt>
      <trkpt lat="44.08938" lon="7.05817">
        <ele>1173.9</ele>
        <time>2022-06-11T11:11:56Z</time>
      </trkpt>
      <trkpt lat="44.08938" lon="7.05814">
        <ele>1174.9</ele>
        <time>2022-06-11T11:11:57Z</time>
      </trkpt>
      <trkpt lat="44.08939" lon="7.05811">
        <ele>1175.8</ele>
        <time>2022-06-11T11:11:58Z</time>
      </trkpt>
      <trkpt lat="44.0894" lon="7.05809">
        <ele>1176.4</ele>
        <time>2022-06-11T11:11:59Z</time>
      </trkpt>
      <trkpt lat="44.08941" lon="7.05806">
        <ele>1177.1</ele>
        <time>2022-06-11T11:12:00Z</time>
      </trkpt>
      <trkpt lat="44.08942" lon="7.05803">
        <ele>1178.1</ele>
        <time>2022-06-11T11:12:01Z</time>
      </trkpt>
      <trkpt lat="44.08942" lon="7.05801">
        <ele>1179</ele>
        <time>2022-06-11T11:12:02Z</time>
      </trkpt>
      <trkpt lat="44.08942" lon="7.05798">
        <ele>1180.1</ele>
        <time>2022-06-11T11:12:03Z</time>
      </trkpt>
      <trkpt lat="44.08944" lon="7.05796">
        <ele>1180.6</ele>
        <time>2022-06-11T11:12:04Z</time>
      </trkpt>
      <trkpt lat="44.08944" lon="7.05794">
        <ele>1181.3</ele>
        <time>2022-06-11T11:12:05Z</time>
      </trkpt>
      <trkpt lat="44.08945" lon="7.05791">
        <ele>1182</ele>
        <time>2022-06-11T11:12:06Z</time>
      </trkpt>
      <trkpt lat="44.08946" lon="7.05789">
        <ele>1182.3</ele>
        <time>2022-06-11T11:12:07Z</time>
      </trkpt>
      <trkpt lat="44.08947" lon="7.05786">
        <ele>1182.9</ele>
        <time>2022-06-11T11:12:08Z</time>
      </trkpt>
      <trkpt lat="44.08948" lon="7.05785">
        <ele>1183</ele>
        <time>2022-06-11T11:12:09Z</time>
      </trkpt>
      <trkpt lat="44.08949" lon="7.05783">
        <ele>1183.1</ele>
        <time>2022-06-11T11:12:10Z</time>
      </trkpt>
      <trkpt lat="44.0895" lon="7.05781">
        <ele>1183.3</ele>
        <time>2022-06-11T11:12:11Z</time>
      </trkpt>
      <trkpt lat="44.08951" lon="7.05779">
        <ele>1183.2</ele>
        <time>2022-06-11T11:12:12Z</time>
      </trkpt>
      <trkpt lat="44.08953" lon="7.05776">
        <ele>1183.4</ele>
        <time>2022-06-11T11:12:13Z</time>
      </trkpt>
      <trkpt lat="44.08954" lon="7.05773">
        <ele>1184</ele>
        <time>2022-06-11T11:12:14Z</time>
      </trkpt>
      <trkpt lat="44.08955" lon="7.05771">
        <ele>1184.5</ele>
        <time>2022-06-11T11:12:15Z</time>
      </trkpt>
      <trkpt lat="44.08957" lon="7.05768">
        <ele>1185</ele>
        <time>2022-06-11T11:12:16Z</time>
      </trkpt>
      <trkpt lat="44.08959" lon="7.05766">
        <ele>1185.1</ele>
        <time>2022-06-11T11:12:17Z</time>
      </trkpt>
      <trkpt lat="44.0896" lon="7.05764">
        <ele>1185.3</ele>
        <time>2022-06-11T11:12:18Z</time>
      </trkpt>
      <trkpt lat="44.08962" lon="7.05762">
        <ele>1185.2</ele>
        <time>2022-06-11T11:12:19Z</time>
      </trkpt>
      <trkpt lat="44.08964" lon="7.05761">
        <ele>1184.7</ele>
        <time>2022-06-11T11:12:20Z</time>
      </trkpt>
      <trkpt lat="44.08965" lon="7.05759">
        <ele>1185.2</ele>
        <time>2022-06-11T11:12:21Z</time>
      </trkpt>
      <trkpt lat="44.08966" lon="7.05757">
        <ele>1186</ele>
        <time>2022-06-11T11:12:22Z</time>
      </trkpt>
      <trkpt lat="44.08967" lon="7.05755">
        <ele>1186.3</ele>
        <time>2022-06-11T11:12:23Z</time>
      </trkpt>
      <trkpt lat="44.08968" lon="7.05753">
        <ele>1186.8</ele>
        <time>2022-06-11T11:12:24Z</time>
      </trkpt>
      <trkpt lat="44.08969" lon="7.05751">
        <ele>1187.5</ele>
        <time>2022-06-11T11:12:25Z</time>
      </trkpt>
      <trkpt lat="44.08971" lon="7.05749">
        <ele>1187.6</ele>
        <time>2022-06-11T11:12:26Z</time>
      </trkpt>
      <trkpt lat="44.08972" lon="7.05747">
        <ele>1187.7</ele>
        <time>2022-06-11T11:12:27Z</time>
      </trkpt>
      <trkpt lat="44.08974" lon="7.05746">
        <ele>1188</ele>
        <time>2022-06-11T11:12:28Z</time>
      </trkpt>
      <trkpt lat="44.08975" lon="7.05744">
        <ele>1188.3</ele>
        <time>2022-06-11T11:12:29Z</time>
      </trkpt>
      <trkpt lat="44.08976" lon="7.05744">
        <ele>1187.6</ele>
        <time>2022-06-11T11:12:30Z</time>
      </trkpt>
      <trkpt lat="44.08978" lon="7.05743">
        <ele>1187.2</ele>
        <time>2022-06-11T11:12:31Z</time>
      </trkpt>
      <trkpt lat="44.0898" lon="7.05742">
        <ele>1186.9</ele>
        <time>2022-06-11T11:12:32Z</time>
      </trkpt>
      <trkpt lat="44.08982" lon="7.05741">
        <ele>1187</ele>
        <time>2022-06-11T11:12:33Z</time>
      </trkpt>
      <trkpt lat="44.08984" lon="7.05739">
        <ele>1187.1</ele>
        <time>2022-06-11T11:12:34Z</time>
      </trkpt>
      <trkpt lat="44.08986" lon="7.05738">
        <ele>1186.9</ele>
        <time>2022-06-11T11:12:35Z</time>
      </trkpt>
      <trkpt lat="44.08987" lon="7.05736">
        <ele>1186.9</ele>
        <time>2022-06-11T11:12:36Z</time>
      </trkpt>
      <trkpt lat="44.0899" lon="7.05736">
        <ele>1186</ele>
        <time>2022-06-11T11:12:37Z</time>
      </trkpt>
      <trkpt lat="44.08992" lon="7.05736">
        <ele>1185</ele>
        <time>2022-06-11T11:12:38Z</time>
      </trkpt>
      <trkpt lat="44.08994" lon="7.05736">
        <ele>1183.7</ele>
        <time>2022-06-11T11:12:39Z</time>
      </trkpt>
      <trkpt lat="44.08997" lon="7.05737">
        <ele>1182.4</ele>
        <time>2022-06-11T11:12:40Z</time>
      </trkpt>
      <trkpt lat="44.08999" lon="7.05735">
        <ele>1182.1</ele>
        <time>2022-06-11T11:12:41Z</time>
      </trkpt>
      <trkpt lat="44.09001" lon="7.05734">
        <ele>1181.7</ele>
        <time>2022-06-11T11:12:42Z</time>
      </trkpt>
      <trkpt lat="44.09004" lon="7.05733">
        <ele>1181</ele>
        <time>2022-06-11T11:12:43Z</time>
      </trkpt>
      <trkpt lat="44.09007" lon="7.05733">
        <ele>1179.9</ele>
        <time>2022-06-11T11:12:44Z</time>
      </trkpt>
      <trkpt lat="44.09009" lon="7.05733">
        <ele>1178.5</ele>
        <time>2022-06-11T11:12:45Z</time>
      </trkpt>
      <trkpt lat="44.09012" lon="7.05732">
        <ele>1177.8</ele>
        <time>2022-06-11T11:12:46Z</time>
      </trkpt>
      <trkpt lat="44.09014" lon="7.05732">
        <ele>1176.8</ele>
        <time>2022-06-11T11:12:47Z</time>
      </trkpt>
      <trkpt lat="44.09016" lon="7.05732">
        <ele>1175.9</ele>
        <time>2022-06-11T11:12:48Z</time>
      </trkpt>
      <trkpt lat="44.09019" lon="7.05731">
        <ele>1175.3</ele>
        <time>2022-06-11T11:12:49Z</time>
      </trkpt>
      <trkpt lat="44.09021" lon="7.0573">
        <ele>1175.1</ele>
        <time>2022-06-11T11:12:50Z</time>
      </trkpt>
      <trkpt lat="44.09022" lon="7.05728">
        <ele>1174.9</ele>
        <time>2022-06-11T11:12:51Z</time>
      </trkpt>
      <trkpt lat="44.09024" lon="7.05727">
        <ele>1174.8</ele>
        <time>2022-06-11T11:12:52Z</time>
      </trkpt>
      <trkpt lat="44.09026" lon="7.05725">
        <ele>1174.5</ele>
        <time>2022-06-11T11:12:53Z</time>
      </trkpt>
      <trkpt lat="44.09028" lon="7.05723">
        <ele>1174.5</ele>
        <time>2022-06-11T11:12:54Z</time>
      </trkpt>
      <trkpt lat="44.0903" lon="7.0572">
        <ele>1174.5</ele>
        <time>2022-06-11T11:12:55Z</time>
      </trkpt>
      <trkpt lat="44.09031" lon="7.05718">
        <ele>1174.5</ele>
        <time>2022-06-11T11:12:56Z</time>
      </trkpt>
      <trkpt lat="44.09033" lon="7.05715">
        <ele>1174.6</ele>
        <time>2022-06-11T11:12:57Z</time>
      </trkpt>
      <trkpt lat="44.09034" lon="7.05712">
        <ele>1174.8</ele>
        <time>2022-06-11T11:12:58Z</time>
      </trkpt>
      <trkpt lat="44.09035" lon="7.05709">
        <ele>1174.9</ele>
        <time>2022-06-11T11:12:59Z</time>
      </trkpt>
      <trkpt lat="44.09036" lon="7.05706">
        <ele>1175.2</ele>
        <time>2022-06-11T11:13:00Z</time>
      </trkpt>
      <trkpt lat="44.09036" lon="7.05704">
        <ele>1175.5</ele>
        <time>2022-06-11T11:13:01Z</time>
      </trkpt>
      <trkpt lat="44.09037" lon="7.05701">
        <ele>1175.9</ele>
        <time>2022-06-11T11:13:02Z</time>
      </trkpt>
      <trkpt lat="44.09037" lon="7.05698">
        <ele>1176.6</ele>
        <time>2022-06-11T11:13:03Z</time>
      </trkpt>
      <trkpt lat="44.09037" lon="7.05695">
        <ele>1177.6</ele>
        <time>2022-06-11T11:13:04Z</time>
      </trkpt>
      <trkpt lat="44.09037" lon="7.05692">
        <ele>1178</ele>
        <time>2022-06-11T11:13:05Z</time>
      </trkpt>
      <trkpt lat="44.09036" lon="7.05689">
        <ele>1178.7</ele>
        <time>2022-06-11T11:13:06Z</time>
      </trkpt>
      <trkpt lat="44.09036" lon="7.05687">
        <ele>1179.1</ele>
        <time>2022-06-11T11:13:07Z</time>
      </trkpt>
      <trkpt lat="44.09035" lon="7.05685">
        <ele>1179.5</ele>
        <time>2022-06-11T11:13:08Z</time>
      </trkpt>
      <trkpt lat="44.09034" lon="7.05681">
        <ele>1180.7</ele>
        <time>2022-06-11T11:13:09Z</time>
      </trkpt>
      <trkpt lat="44.09033" lon="7.05678">
        <ele>1181.8</ele>
        <time>2022-06-11T11:13:10Z</time>
      </trkpt>
      <trkpt lat="44.09032" lon="7.05676">
        <ele>1182.6</ele>
        <time>2022-06-11T11:13:11Z</time>
      </trkpt>
      <trkpt lat="44.09032" lon="7.05672">
        <ele>1183.5</ele>
        <time>2022-06-11T11:13:12Z</time>
      </trkpt>
      <trkpt lat="44.09032" lon="7.05669">
        <ele>1183.9</ele>
        <time>2022-06-11T11:13:13Z</time>
      </trkpt>
      <trkpt lat="44.09031" lon="7.05666">
        <ele>1184.6</ele>
        <time>2022-06-11T11:13:14Z</time>
      </trkpt>
      <trkpt lat="44.09031" lon="7.05663">
        <ele>1185</ele>
        <time>2022-06-11T11:13:15Z</time>
      </trkpt>
      <trkpt lat="44.09031" lon="7.05659">
        <ele>1185.1</ele>
        <time>2022-06-11T11:13:16Z</time>
      </trkpt>
      <trkpt lat="44.0903" lon="7.05657">
        <ele>1185.5</ele>
        <time>2022-06-11T11:13:17Z</time>
      </trkpt>
      <trkpt lat="44.0903" lon="7.05654">
        <ele>1185.8</ele>
        <time>2022-06-11T11:13:18Z</time>
      </trkpt>
      <trkpt lat="44.0903" lon="7.05651">
        <ele>1185.9</ele>
        <time>2022-06-11T11:13:19Z</time>
      </trkpt>
      <trkpt lat="44.0903" lon="7.05649">
        <ele>1185.9</ele>
        <time>2022-06-11T11:13:20Z</time>
      </trkpt>
      <trkpt lat="44.0903" lon="7.05646">
        <ele>1186.4</ele>
        <time>2022-06-11T11:13:21Z</time>
      </trkpt>
      <trkpt lat="44.09029" lon="7.05643">
        <ele>1186.9</ele>
        <time>2022-06-11T11:13:22Z</time>
      </trkpt>
      <trkpt lat="44.09029" lon="7.05641">
        <ele>1186.9</ele>
        <time>2022-06-11T11:13:23Z</time>
      </trkpt>
      <trkpt lat="44.09029" lon="7.05638">
        <ele>1187</ele>
        <time>2022-06-11T11:13:24Z</time>
      </trkpt>
      <trkpt lat="44.0903" lon="7.05635">
        <ele>1186.7</ele>
        <time>2022-06-11T11:13:25Z</time>
      </trkpt>
      <trkpt lat="44.09029" lon="7.05633">
        <ele>1186.8</ele>
        <time>2022-06-11T11:13:26Z</time>
      </trkpt>
      <trkpt lat="44.09029" lon="7.0563">
        <ele>1187</ele>
        <time>2022-06-11T11:13:27Z</time>
      </trkpt>
      <trkpt lat="44.09029" lon="7.05628">
        <ele>1187.2</ele>
        <time>2022-06-11T11:13:28Z</time>
      </trkpt>
      <trkpt lat="44.09029" lon="7.05626">
        <ele>1187.2</ele>
        <time>2022-06-11T11:13:29Z</time>
      </trkpt>
      <trkpt lat="44.09029" lon="7.05624">
        <ele>1187.2</ele>
        <time>2022-06-11T11:13:30Z</time>
      </trkpt>
      <trkpt lat="44.09029" lon="7.05622">
        <ele>1186.8</ele>
        <time>2022-06-11T11:13:31Z</time>
      </trkpt>
      <trkpt lat="44.0903" lon="7.05619">
        <ele>1186.6</ele>
        <time>2022-06-11T11:13:32Z</time>
      </trkpt>
      <trkpt lat="44.0903" lon="7.05617">
        <ele>1186.3</ele>
        <time>2022-06-11T11:13:33Z</time>
      </trkpt>
      <trkpt lat="44.09031" lon="7.05615">
        <ele>1185.7</ele>
        <time>2022-06-11T11:13:34Z</time>
      </trkpt>
      <trkpt lat="44.09031" lon="7.05613">
        <ele>1185.3</ele>
        <time>2022-06-11T11:13:35Z</time>
      </trkpt>
      <trkpt lat="44.09032" lon="7.0561">
        <ele>1185.3</ele>
        <time>2022-06-11T11:13:36Z</time>
      </trkpt>
      <trkpt lat="44.09032" lon="7.05608">
        <ele>1185.5</ele>
        <time>2022-06-11T11:13:37Z</time>
      </trkpt>
      <trkpt lat="44.09031" lon="7.05605">
        <ele>1186</ele>
        <time>2022-06-11T11:13:38Z</time>
      </trkpt>
      <trkpt lat="44.09031" lon="7.05603">
        <ele>1186.4</ele>
        <time>2022-06-11T11:13:39Z</time>
      </trkpt>
      <trkpt lat="44.09032" lon="7.05601">
        <ele>1186.3</ele>
        <time>2022-06-11T11:13:40Z</time>
      </trkpt>
      <trkpt lat="44.09032" lon="7.05599">
        <ele>1186.2</ele>
        <time>2022-06-11T11:13:41Z</time>
      </trkpt>
      <trkpt lat="44.09033" lon="7.05596">
        <ele>1186</ele>
        <time>2022-06-11T11:13:42Z</time>
      </trkpt>
      <trkpt lat="44.09033" lon="7.05594">
        <ele>1185.9</ele>
        <time>2022-06-11T11:13:43Z</time>
      </trkpt>
      <trkpt lat="44.09034" lon="7.05592">
        <ele>1185.7</ele>
        <time>2022-06-11T11:13:44Z</time>
      </trkpt>
      <trkpt lat="44.09034" lon="7.05589">
        <ele>1185.6</ele>
        <time>2022-06-11T11:13:45Z</time>
      </trkpt>
      <trkpt lat="44.09035" lon="7.05586">
        <ele>1185.5</ele>
        <time>2022-06-11T11:13:46Z</time>
      </trkpt>
      <trkpt lat="44.09035" lon="7.05584">
        <ele>1185.4</ele>
        <time>2022-06-11T11:13:47Z</time>
      </trkpt>
      <trkpt lat="44.09035" lon="7.0558">
        <ele>1185.7</ele>
        <time>2022-06-11T11:13:48Z</time>
      </trkpt>
      <trkpt lat="44.09035" lon="7.05577">
        <ele>1186</ele>
        <time>2022-06-11T11:13:49Z</time>
      </trkpt>
      <trkpt lat="44.09035" lon="7.05574">
        <ele>1186.4</ele>
        <time>2022-06-11T11:13:50Z</time>
      </trkpt>
      <trkpt lat="44.09034" lon="7.05572">
        <ele>1187.1</ele>
        <time>2022-06-11T11:13:51Z</time>
      </trkpt>
      <trkpt lat="44.09034" lon="7.0557">
        <ele>1187.3</ele>
        <time>2022-06-11T11:13:52Z</time>
      </trkpt>
      <trkpt lat="44.09035" lon="7.05567">
        <ele>1187.2</ele>
        <time>2022-06-11T11:13:53Z</time>
      </trkpt>
      <trkpt lat="44.09034" lon="7.05565">
        <ele>1187.6</ele>
        <time>2022-06-11T11:13:54Z</time>
      </trkpt>
      <trkpt lat="44.09034" lon="7.05563">
        <ele>1187.9</ele>
        <time>2022-06-11T11:13:55Z</time>
      </trkpt>
      <trkpt lat="44.09034" lon="7.05561">
        <ele>1188.1</ele>
        <time>2022-06-11T11:13:56Z</time>
      </trkpt>
      <trkpt lat="44.09034" lon="7.05559">
        <ele>1188.6</ele>
        <time>2022-06-11T11:13:57Z</time>
      </trkpt>
      <trkpt lat="44.09033" lon="7.05556">
        <ele>1189.3</ele>
        <time>2022-06-11T11:13:58Z</time>
      </trkpt>
      <trkpt lat="44.09033" lon="7.05554">
        <ele>1189.8</ele>
        <time>2022-06-11T11:13:59Z</time>
      </trkpt>
      <trkpt lat="44.09033" lon="7.05551">
        <ele>1189.9</ele>
        <time>2022-06-11T11:14:00Z</time>
      </trkpt>
      <trkpt lat="44.09032" lon="7.05548">
        <ele>1190.6</ele>
        <time>2022-06-11T11:14:01Z</time>
      </trkpt>
      <trkpt lat="44.09033" lon="7.05546">
        <ele>1190.7</ele>
        <time>2022-06-11T11:14:02Z</time>
      </trkpt>
      <trkpt lat="44.09033" lon="7.05543">
        <ele>1190.7</ele>
        <time>2022-06-11T11:14:03Z</time>
      </trkpt>
      <trkpt lat="44.09033" lon="7.0554">
        <ele>1191</ele>
        <time>2022-06-11T11:14:04Z</time>
      </trkpt>
      <trkpt lat="44.09033" lon="7.05537">
        <ele>1191.4</ele>
        <time>2022-06-11T11:14:05Z</time>
      </trkpt>
      <trkpt lat="44.09033" lon="7.05535">
        <ele>1191.4</ele>
        <time>2022-06-11T11:14:06Z</time>
      </trkpt>
      <trkpt lat="44.09034" lon="7.05532">
        <ele>1191.5</ele>
        <time>2022-06-11T11:14:07Z</time>
      </trkpt>
      <trkpt lat="44.09034" lon="7.0553">
        <ele>1191.5</ele>
        <time>2022-06-11T11:14:08Z</time>
      </trkpt>
      <trkpt lat="44.09034" lon="7.05528">
        <ele>1191.7</ele>
        <time>2022-06-11T11:14:09Z</time>
      </trkpt>
      <trkpt lat="44.09035" lon="7.05525">
        <ele>1191.7</ele>
        <time>2022-06-11T11:14:10Z</time>
      </trkpt>
      <trkpt lat="44.09034" lon="7.05522">
        <ele>1192.1</ele>
        <time>2022-06-11T11:14:11Z</time>
      </trkpt>
      <trkpt lat="44.09035" lon="7.05519">
        <ele>1192.3</ele>
        <time>2022-06-11T11:14:12Z</time>
      </trkpt>
      <trkpt lat="44.09035" lon="7.05517">
        <ele>1192.2</ele>
        <time>2022-06-11T11:14:13Z</time>
      </trkpt>
      <trkpt lat="44.09035" lon="7.05514">
        <ele>1192.5</ele>
        <time>2022-06-11T11:14:14Z</time>
      </trkpt>
      <trkpt lat="44.09035" lon="7.05511">
        <ele>1192.8</ele>
        <time>2022-06-11T11:14:15Z</time>
      </trkpt>
      <trkpt lat="44.09035" lon="7.05509">
        <ele>1192.9</ele>
        <time>2022-06-11T11:14:16Z</time>
      </trkpt>
      <trkpt lat="44.09036" lon="7.05506">
        <ele>1193.1</ele>
        <time>2022-06-11T11:14:17Z</time>
      </trkpt>
      <trkpt lat="44.09035" lon="7.05503">
        <ele>1193.7</ele>
        <time>2022-06-11T11:14:18Z</time>
      </trkpt>
      <trkpt lat="44.09036" lon="7.055">
        <ele>1193.6</ele>
        <time>2022-06-11T11:14:19Z</time>
      </trkpt>
      <trkpt lat="44.09037" lon="7.05498">
        <ele>1193.4</ele>
        <time>2022-06-11T11:14:20Z</time>
      </trkpt>
      <trkpt lat="44.09037" lon="7.05495">
        <ele>1193.4</ele>
        <time>2022-06-11T11:14:21Z</time>
      </trkpt>
      <trkpt lat="44.09037" lon="7.05493">
        <ele>1193.6</ele>
        <time>2022-06-11T11:14:22Z</time>
      </trkpt>
      <trkpt lat="44.09037" lon="7.0549">
        <ele>1193.9</ele>
        <time>2022-06-11T11:14:23Z</time>
      </trkpt>
      <trkpt lat="44.09037" lon="7.05488">
        <ele>1194.1</ele>
        <time>2022-06-11T11:14:24Z</time>
      </trkpt>
      <trkpt lat="44.09037" lon="7.05485">
        <ele>1194.7</ele>
        <time>2022-06-11T11:14:25Z</time>
      </trkpt>
      <trkpt lat="44.09037" lon="7.05482">
        <ele>1194.9</ele>
        <time>2022-06-11T11:14:26Z</time>
      </trkpt>
      <trkpt lat="44.09038" lon="7.05479">
        <ele>1195</ele>
        <time>2022-06-11T11:14:27Z</time>
      </trkpt>
      <trkpt lat="44.09038" lon="7.05476">
        <ele>1195.2</ele>
        <time>2022-06-11T11:14:28Z</time>
      </trkpt>
      <trkpt lat="44.09039" lon="7.05473">
        <ele>1195.3</ele>
        <time>2022-06-11T11:14:29Z</time>
      </trkpt>
      <trkpt lat="44.09039" lon="7.0547">
        <ele>1195.6</ele>
        <time>2022-06-11T11:14:30Z</time>
      </trkpt>
      <trkpt lat="44.09039" lon="7.05467">
        <ele>1195.9</ele>
        <time>2022-06-11T11:14:31Z</time>
      </trkpt>
      <trkpt lat="44.09039" lon="7.05464">
        <ele>1196.2</ele>
        <time>2022-06-11T11:14:32Z</time>
      </trkpt>
      <trkpt lat="44.09039" lon="7.05461">
        <ele>1196.7</ele>
        <time>2022-06-11T11:14:33Z</time>
      </trkpt>
      <trkpt lat="44.09039" lon="7.05459">
        <ele>1196.8</ele>
        <time>2022-06-11T11:14:34Z</time>
      </trkpt>
      <trkpt lat="44.09039" lon="7.05456">
        <ele>1197</ele>
        <time>2022-06-11T11:14:35Z</time>
      </trkpt>
      <trkpt lat="44.09039" lon="7.05454">
        <ele>1197.4</ele>
        <time>2022-06-11T11:14:36Z</time>
      </trkpt>
      <trkpt lat="44.0904" lon="7.05452">
        <ele>1197.3</ele>
        <time>2022-06-11T11:14:37Z</time>
      </trkpt>
      <trkpt lat="44.0904" lon="7.05449">
        <ele>1197.2</ele>
        <time>2022-06-11T11:14:38Z</time>
      </trkpt>
      <trkpt lat="44.09041" lon="7.05446">
        <ele>1197.1</ele>
        <time>2022-06-11T11:14:39Z</time>
      </trkpt>
      <trkpt lat="44.09041" lon="7.05443">
        <ele>1197.5</ele>
        <time>2022-06-11T11:14:40Z</time>
      </trkpt>
      <trkpt lat="44.09041" lon="7.0544">
        <ele>1198</ele>
        <time>2022-06-11T11:14:41Z</time>
      </trkpt>
      <trkpt lat="44.09041" lon="7.05437">
        <ele>1198.1</ele>
        <time>2022-06-11T11:14:42Z</time>
      </trkpt>
      <trkpt lat="44.09041" lon="7.05434">
        <ele>1198.3</ele>
        <time>2022-06-11T11:14:43Z</time>
      </trkpt>
      <trkpt lat="44.09042" lon="7.05432">
        <ele>1198.4</ele>
        <time>2022-06-11T11:14:44Z</time>
      </trkpt>
      <trkpt lat="44.09043" lon="7.05429">
        <ele>1198.2</ele>
        <time>2022-06-11T11:14:45Z</time>
      </trkpt>
      <trkpt lat="44.09043" lon="7.05426">
        <ele>1198.4</ele>
        <time>2022-06-11T11:14:46Z</time>
      </trkpt>
      <trkpt lat="44.09043" lon="7.05424">
        <ele>1198.4</ele>
        <time>2022-06-11T11:14:47Z</time>
      </trkpt>
      <trkpt lat="44.09044" lon="7.05421">
        <ele>1198.5</ele>
        <time>2022-06-11T11:14:48Z</time>
      </trkpt>
      <trkpt lat="44.09044" lon="7.05418">
        <ele>1198.7</ele>
        <time>2022-06-11T11:14:49Z</time>
      </trkpt>
      <trkpt lat="44.09044" lon="7.05416">
        <ele>1198.7</ele>
        <time>2022-06-11T11:14:50Z</time>
      </trkpt>
      <trkpt lat="44.09045" lon="7.05413">
        <ele>1198.6</ele>
        <time>2022-06-11T11:14:51Z</time>
      </trkpt>
      <trkpt lat="44.09044" lon="7.0541">
        <ele>1199</ele>
        <time>2022-06-11T11:14:52Z</time>
      </trkpt>
      <trkpt lat="44.09045" lon="7.05407">
        <ele>1198.8</ele>
        <time>2022-06-11T11:14:53Z</time>
      </trkpt>
      <trkpt lat="44.09046" lon="7.05405">
        <ele>1198.3</ele>
        <time>2022-06-11T11:14:54Z</time>
      </trkpt>
      <trkpt lat="44.09047" lon="7.05403">
        <ele>1198</ele>
        <time>2022-06-11T11:14:55Z</time>
      </trkpt>
      <trkpt lat="44.09047" lon="7.05401">
        <ele>1197.9</ele>
        <time>2022-06-11T11:14:56Z</time>
      </trkpt>
      <trkpt lat="44.09048" lon="7.05397">
        <ele>1197.7</ele>
        <time>2022-06-11T11:14:57Z</time>
      </trkpt>
      <trkpt lat="44.09049" lon="7.05394">
        <ele>1197.4</ele>
        <time>2022-06-11T11:14:58Z</time>
      </trkpt>
      <trkpt lat="44.09049" lon="7.05391">
        <ele>1197.4</ele>
        <time>2022-06-11T11:14:59Z</time>
      </trkpt>
      <trkpt lat="44.09049" lon="7.05388">
        <ele>1197.6</ele>
        <time>2022-06-11T11:15:00Z</time>
      </trkpt>
      <trkpt lat="44.09049" lon="7.05385">
        <ele>1197.7</ele>
        <time>2022-06-11T11:15:01Z</time>
      </trkpt>
      <trkpt lat="44.09049" lon="7.05381">
        <ele>1198.2</ele>
        <time>2022-06-11T11:15:02Z</time>
      </trkpt>
      <trkpt lat="44.09049" lon="7.05378">
        <ele>1198.6</ele>
        <time>2022-06-11T11:15:03Z</time>
      </trkpt>
      <trkpt lat="44.09049" lon="7.05375">
        <ele>1198.4</ele>
        <time>2022-06-11T11:15:04Z</time>
      </trkpt>
      <trkpt lat="44.0905" lon="7.05372">
        <ele>1198.5</ele>
        <time>2022-06-11T11:15:05Z</time>
      </trkpt>
      <trkpt lat="44.09051" lon="7.05369">
        <ele>1198.2</ele>
        <time>2022-06-11T11:15:06Z</time>
      </trkpt>
      <trkpt lat="44.09051" lon="7.05366">
        <ele>1198.4</ele>
        <time>2022-06-11T11:15:07Z</time>
      </trkpt>
      <trkpt lat="44.09051" lon="7.05362">
        <ele>1198.5</ele>
        <time>2022-06-11T11:15:08Z</time>
      </trkpt>
      <trkpt lat="44.09051" lon="7.05359">
        <ele>1198.8</ele>
        <time>2022-06-11T11:15:09Z</time>
      </trkpt>
      <trkpt lat="44.09051" lon="7.05357">
        <ele>1198.9</ele>
        <time>2022-06-11T11:15:10Z</time>
      </trkpt>
      <trkpt lat="44.09052" lon="7.05355">
        <ele>1198.7</ele>
        <time>2022-06-11T11:15:11Z</time>
      </trkpt>
      <trkpt lat="44.09053" lon="7.05352">
        <ele>1198.6</ele>
        <time>2022-06-11T11:15:12Z</time>
      </trkpt>
      <trkpt lat="44.09053" lon="7.05349">
        <ele>1198.9</ele>
        <time>2022-06-11T11:15:13Z</time>
      </trkpt>
      <trkpt lat="44.09053" lon="7.05346">
        <ele>1198.8</ele>
        <time>2022-06-11T11:15:14Z</time>
      </trkpt>
      <trkpt lat="44.09054" lon="7.05344">
        <ele>1198.7</ele>
        <time>2022-06-11T11:15:15Z</time>
      </trkpt>
      <trkpt lat="44.09055" lon="7.0534">
        <ele>1198.6</ele>
        <time>2022-06-11T11:15:16Z</time>
      </trkpt>
      <trkpt lat="44.09056" lon="7.05337">
        <ele>1198.3</ele>
        <time>2022-06-11T11:15:17Z</time>
      </trkpt>
      <trkpt lat="44.09056" lon="7.05335">
        <ele>1198.6</ele>
        <time>2022-06-11T11:15:18Z</time>
      </trkpt>
      <trkpt lat="44.09056" lon="7.05331">
        <ele>1198.9</ele>
        <time>2022-06-11T11:15:19Z</time>
      </trkpt>
      <trkpt lat="44.09056" lon="7.05328">
        <ele>1199.4</ele>
        <time>2022-06-11T11:15:20Z</time>
      </trkpt>
      <trkpt lat="44.09056" lon="7.05325">
        <ele>1199.8</ele>
        <time>2022-06-11T11:15:21Z</time>
      </trkpt>
      <trkpt lat="44.09056" lon="7.05322">
        <ele>1200.2</ele>
        <time>2022-06-11T11:15:22Z</time>
      </trkpt>
      <trkpt lat="44.09056" lon="7.05319">
        <ele>1200.4</ele>
        <time>2022-06-11T11:15:23Z</time>
      </trkpt>
      <trkpt lat="44.09056" lon="7.05316">
        <ele>1200.6</ele>
        <time>2022-06-11T11:15:24Z</time>
      </trkpt>
      <trkpt lat="44.09057" lon="7.05314">
        <ele>1200.5</ele>
        <time>2022-06-11T11:15:25Z</time>
      </trkpt>
      <trkpt lat="44.09056" lon="7.05311">
        <ele>1201.1</ele>
        <time>2022-06-11T11:15:26Z</time>
      </trkpt>
      <trkpt lat="44.09056" lon="7.05308">
        <ele>1201.8</ele>
        <time>2022-06-11T11:15:27Z</time>
      </trkpt>
      <trkpt lat="44.09056" lon="7.05304">
        <ele>1202</ele>
        <time>2022-06-11T11:15:28Z</time>
      </trkpt>
      <trkpt lat="44.09056" lon="7.05301">
        <ele>1202.4</ele>
        <time>2022-06-11T11:15:29Z</time>
      </trkpt>
      <trkpt lat="44.09056" lon="7.05297">
        <ele>1202.5</ele>
        <time>2022-06-11T11:15:30Z</time>
      </trkpt>
      <trkpt lat="44.09057" lon="7.05294">
        <ele>1202.7</ele>
        <time>2022-06-11T11:15:31Z</time>
      </trkpt>
      <trkpt lat="44.09057" lon="7.0529">
        <ele>1203.1</ele>
        <time>2022-06-11T11:15:32Z</time>
      </trkpt>
      <trkpt lat="44.09057" lon="7.05287">
        <ele>1203.4</ele>
        <time>2022-06-11T11:15:33Z</time>
      </trkpt>
      <trkpt lat="44.09057" lon="7.05283">
        <ele>1203.5</ele>
        <time>2022-06-11T11:15:34Z</time>
      </trkpt>
      <trkpt lat="44.09058" lon="7.0528">
        <ele>1203.5</ele>
        <time>2022-06-11T11:15:35Z</time>
      </trkpt>
      <trkpt lat="44.09059" lon="7.05277">
        <ele>1203.5</ele>
        <time>2022-06-11T11:15:36Z</time>
      </trkpt>
      <trkpt lat="44.09059" lon="7.05274">
        <ele>1203.8</ele>
        <time>2022-06-11T11:15:37Z</time>
      </trkpt>
      <trkpt lat="44.09059" lon="7.05271">
        <ele>1204.1</ele>
        <time>2022-06-11T11:15:38Z</time>
      </trkpt>
      <trkpt lat="44.09059" lon="7.05268">
        <ele>1204.7</ele>
        <time>2022-06-11T11:15:39Z</time>
      </trkpt>
      <trkpt lat="44.09058" lon="7.05265">
        <ele>1205.3</ele>
        <time>2022-06-11T11:15:40Z</time>
      </trkpt>
      <trkpt lat="44.09059" lon="7.05262">
        <ele>1205.4</ele>
        <time>2022-06-11T11:15:41Z</time>
      </trkpt>
      <trkpt lat="44.09059" lon="7.05259">
        <ele>1205.4</ele>
        <time>2022-06-11T11:15:42Z</time>
      </trkpt>
      <trkpt lat="44.0906" lon="7.05255">
        <ele>1205.4</ele>
        <time>2022-06-11T11:15:43Z</time>
      </trkpt>
      <trkpt lat="44.09061" lon="7.05252">
        <ele>1205.6</ele>
        <time>2022-06-11T11:15:44Z</time>
      </trkpt>
      <trkpt lat="44.09061" lon="7.05249">
        <ele>1205.8</ele>
        <time>2022-06-11T11:15:45Z</time>
      </trkpt>
      <trkpt lat="44.09062" lon="7.05246">
        <ele>1205.9</ele>
        <time>2022-06-11T11:15:46Z</time>
      </trkpt>
      <trkpt lat="44.09062" lon="7.05243">
        <ele>1206</ele>
        <time>2022-06-11T11:15:47Z</time>
      </trkpt>
      <trkpt lat="44.09063" lon="7.0524">
        <ele>1206.2</ele>
        <time>2022-06-11T11:15:48Z</time>
      </trkpt>
      <trkpt lat="44.09063" lon="7.05237">
        <ele>1206.3</ele>
        <time>2022-06-11T11:15:49Z</time>
      </trkpt>
      <trkpt lat="44.09064" lon="7.05234">
        <ele>1206.5</ele>
        <time>2022-06-11T11:15:50Z</time>
      </trkpt>
      <trkpt lat="44.09064" lon="7.05231">
        <ele>1206.8</ele>
        <time>2022-06-11T11:15:51Z</time>
      </trkpt>
      <trkpt lat="44.09064" lon="7.05228">
        <ele>1207.1</ele>
        <time>2022-06-11T11:15:52Z</time>
      </trkpt>
      <trkpt lat="44.09064" lon="7.05225">
        <ele>1207.3</ele>
        <time>2022-06-11T11:15:53Z</time>
      </trkpt>
      <trkpt lat="44.09065" lon="7.05221">
        <ele>1207.4</ele>
        <time>2022-06-11T11:15:54Z</time>
      </trkpt>
      <trkpt lat="44.09065" lon="7.05218">
        <ele>1207</ele>
        <time>2022-06-11T11:15:55Z</time>
      </trkpt>
      <trkpt lat="44.09066" lon="7.05215">
        <ele>1206.5</ele>
        <time>2022-06-11T11:15:56Z</time>
      </trkpt>
      <trkpt lat="44.09067" lon="7.05212">
        <ele>1206.1</ele>
        <time>2022-06-11T11:15:57Z</time>
      </trkpt>
      <trkpt lat="44.09067" lon="7.0521">
        <ele>1205.7</ele>
        <time>2022-06-11T11:15:58Z</time>
      </trkpt>
      <trkpt lat="44.09068" lon="7.05207">
        <ele>1205.4</ele>
        <time>2022-06-11T11:15:59Z</time>
      </trkpt>
      <trkpt lat="44.09069" lon="7.05204">
        <ele>1204.9</ele>
        <time>2022-06-11T11:16:00Z</time>
      </trkpt>
      <trkpt lat="44.0907" lon="7.05201">
        <ele>1204.3</ele>
        <time>2022-06-11T11:16:01Z</time>
      </trkpt>
      <trkpt lat="44.09071" lon="7.05198">
        <ele>1203.7</ele>
        <time>2022-06-11T11:16:02Z</time>
      </trkpt>
      <trkpt lat="44.09072" lon="7.05195">
        <ele>1203.1</ele>
        <time>2022-06-11T11:16:03Z</time>
      </trkpt>
      <trkpt lat="44.09072" lon="7.05192">
        <ele>1202.8</ele>
        <time>2022-06-11T11:16:04Z</time>
      </trkpt>
      <trkpt lat="44.09073" lon="7.05189">
        <ele>1202.5</ele>
        <time>2022-06-11T11:16:05Z</time>
      </trkpt>
      <trkpt lat="44.09073" lon="7.05186">
        <ele>1202.3</ele>
        <time>2022-06-11T11:16:06Z</time>
      </trkpt>
      <trkpt lat="44.09073" lon="7.05182">
        <ele>1202.3</ele>
        <time>2022-06-11T11:16:07Z</time>
      </trkpt>
      <trkpt lat="44.09073" lon="7.05179">
        <ele>1202.2</ele>
        <time>2022-06-11T11:16:08Z</time>
      </trkpt>
      <trkpt lat="44.09073" lon="7.05177">
        <ele>1202.1</ele>
        <time>2022-06-11T11:16:09Z</time>
      </trkpt>
      <trkpt lat="44.09073" lon="7.05174">
        <ele>1202.1</ele>
        <time>2022-06-11T11:16:10Z</time>
      </trkpt>
      <trkpt lat="44.09073" lon="7.05171">
        <ele>1202.1</ele>
        <time>2022-06-11T11:16:11Z</time>
      </trkpt>
      <trkpt lat="44.09073" lon="7.05168">
        <ele>1202.2</ele>
        <time>2022-06-11T11:16:12Z</time>
      </trkpt>
      <trkpt lat="44.09073" lon="7.05165">
        <ele>1202.4</ele>
        <time>2022-06-11T11:16:13Z</time>
      </trkpt>
      <trkpt lat="44.09072" lon="7.05162">
        <ele>1202.9</ele>
        <time>2022-06-11T11:16:14Z</time>
      </trkpt>
      <trkpt lat="44.09071" lon="7.0516">
        <ele>1203.3</ele>
        <time>2022-06-11T11:16:15Z</time>
      </trkpt>
      <trkpt lat="44.0907" lon="7.05157">
        <ele>1203.7</ele>
        <time>2022-06-11T11:16:16Z</time>
      </trkpt>
      <trkpt lat="44.09069" lon="7.05154">
        <ele>1204.3</ele>
        <time>2022-06-11T11:16:17Z</time>
      </trkpt>
      <trkpt lat="44.09068" lon="7.05151">
        <ele>1204.8</ele>
        <time>2022-06-11T11:16:18Z</time>
      </trkpt>
      <trkpt lat="44.09067" lon="7.05148">
        <ele>1205.4</ele>
        <time>2022-06-11T11:16:19Z</time>
      </trkpt>
      <trkpt lat="44.09066" lon="7.05145">
        <ele>1205.9</ele>
        <time>2022-06-11T11:16:20Z</time>
      </trkpt>
      <trkpt lat="44.09065" lon="7.05142">
        <ele>1206.3</ele>
        <time>2022-06-11T11:16:21Z</time>
      </trkpt>
      <trkpt lat="44.09063" lon="7.05139">
        <ele>1206.8</ele>
        <time>2022-06-11T11:16:22Z</time>
      </trkpt>
      <trkpt lat="44.09062" lon="7.05136">
        <ele>1207.4</ele>
        <time>2022-06-11T11:16:23Z</time>
      </trkpt>
      <trkpt lat="44.09061" lon="7.05134">
        <ele>1208</ele>
        <time>2022-06-11T11:16:24Z</time>
      </trkpt>
      <trkpt lat="44.0906" lon="7.05131">
        <ele>1208.5</ele>
        <time>2022-06-11T11:16:25Z</time>
      </trkpt>
      <trkpt lat="44.09059" lon="7.05128">
        <ele>1209.1</ele>
        <time>2022-06-11T11:16:26Z</time>
      </trkpt>
      <trkpt lat="44.09058" lon="7.05126">
        <ele>1209.5</ele>
        <time>2022-06-11T11:16:27Z</time>
      </trkpt>
      <trkpt lat="44.09056" lon="7.05123">
        <ele>1210</ele>
        <time>2022-06-11T11:16:28Z</time>
      </trkpt>
      <trkpt lat="44.09055" lon="7.05121">
        <ele>1210.8</ele>
        <time>2022-06-11T11:16:29Z</time>
      </trkpt>
      <trkpt lat="44.09053" lon="7.05118">
        <ele>1211.5</ele>
        <time>2022-06-11T11:16:30Z</time>
      </trkpt>
      <trkpt lat="44.09052" lon="7.05116">
        <ele>1212.4</ele>
        <time>2022-06-11T11:16:31Z</time>
      </trkpt>
      <trkpt lat="44.09051" lon="7.05113">
        <ele>1213</ele>
        <time>2022-06-11T11:16:32Z</time>
      </trkpt>
      <trkpt lat="44.09049" lon="7.05111">
        <ele>1213.7</ele>
        <time>2022-06-11T11:16:33Z</time>
      </trkpt>
      <trkpt lat="44.09048" lon="7.05109">
        <ele>1214.4</ele>
        <time>2022-06-11T11:16:34Z</time>
      </trkpt>
      <trkpt lat="44.09047" lon="7.05106">
        <ele>1215.1</ele>
        <time>2022-06-11T11:16:35Z</time>
      </trkpt>
      <trkpt lat="44.09045" lon="7.05103">
        <ele>1215.8</ele>
        <time>2022-06-11T11:16:36Z</time>
      </trkpt>
      <trkpt lat="44.09044" lon="7.05099">
        <ele>1216.3</ele>
        <time>2022-06-11T11:16:37Z</time>
      </trkpt>
      <trkpt lat="44.09043" lon="7.05097">
        <ele>1216.5</ele>
        <time>2022-06-11T11:16:38Z</time>
      </trkpt>
      <trkpt lat="44.09043" lon="7.05095">
        <ele>1216.7</ele>
        <time>2022-06-11T11:16:39Z</time>
      </trkpt>
      <trkpt lat="44.09043" lon="7.05093">
        <ele>1216.7</ele>
        <time>2022-06-11T11:16:40Z</time>
      </trkpt>
      <trkpt lat="44.09043" lon="7.0509">
        <ele>1216.6</ele>
        <time>2022-06-11T11:16:41Z</time>
      </trkpt>
      <trkpt lat="44.09044" lon="7.05088">
        <ele>1216.5</ele>
        <time>2022-06-11T11:16:42Z</time>
      </trkpt>
      <trkpt lat="44.09044" lon="7.05084">
        <ele>1216.5</ele>
        <time>2022-06-11T11:16:43Z</time>
      </trkpt>
      <trkpt lat="44.09045" lon="7.05081">
        <ele>1216.8</ele>
        <time>2022-06-11T11:16:44Z</time>
      </trkpt>
      <trkpt lat="44.09047" lon="7.05077">
        <ele>1217.2</ele>
        <time>2022-06-11T11:16:45Z</time>
      </trkpt>
      <trkpt lat="44.09049" lon="7.05075">
        <ele>1217.4</ele>
        <time>2022-06-11T11:16:46Z</time>
      </trkpt>
      <trkpt lat="44.09051" lon="7.05072">
        <ele>1217.8</ele>
        <time>2022-06-11T11:16:47Z</time>
      </trkpt>
      <trkpt lat="44.09053" lon="7.0507">
        <ele>1218.3</ele>
        <time>2022-06-11T11:16:48Z</time>
      </trkpt>
      <trkpt lat="44.09055" lon="7.05067">
        <ele>1218.7</ele>
        <time>2022-06-11T11:16:49Z</time>
      </trkpt>
      <trkpt lat="44.09057" lon="7.05066">
        <ele>1219.2</ele>
        <time>2022-06-11T11:16:50Z</time>
      </trkpt>
      <trkpt lat="44.0906" lon="7.05065">
        <ele>1220.4</ele>
        <time>2022-06-11T11:16:51Z</time>
      </trkpt>
      <trkpt lat="44.09062" lon="7.05064">
        <ele>1221.5</ele>
        <time>2022-06-11T11:16:52Z</time>
      </trkpt>
      <trkpt lat="44.09065" lon="7.05064">
        <ele>1222</ele>
        <time>2022-06-11T11:16:53Z</time>
      </trkpt>
      <trkpt lat="44.09068" lon="7.05065">
        <ele>1222.6</ele>
        <time>2022-06-11T11:16:54Z</time>
      </trkpt>
      <trkpt lat="44.0907" lon="7.05066">
        <ele>1222.7</ele>
        <time>2022-06-11T11:16:55Z</time>
      </trkpt>
      <trkpt lat="44.09073" lon="7.05067">
        <ele>1222.9</ele>
        <time>2022-06-11T11:16:56Z</time>
      </trkpt>
      <trkpt lat="44.09075" lon="7.05069">
        <ele>1222.8</ele>
        <time>2022-06-11T11:16:57Z</time>
      </trkpt>
      <trkpt lat="44.09077" lon="7.0507">
        <ele>1222.8</ele>
        <time>2022-06-11T11:16:58Z</time>
      </trkpt>
      <trkpt lat="44.09079" lon="7.05072">
        <ele>1222.5</ele>
        <time>2022-06-11T11:16:59Z</time>
      </trkpt>
      <trkpt lat="44.09081" lon="7.05073">
        <ele>1222.2</ele>
        <time>2022-06-11T11:17:00Z</time>
      </trkpt>
      <trkpt lat="44.09083" lon="7.05074">
        <ele>1222.2</ele>
        <time>2022-06-11T11:17:01Z</time>
      </trkpt>
      <trkpt lat="44.09086" lon="7.05075">
        <ele>1222.8</ele>
        <time>2022-06-11T11:17:02Z</time>
      </trkpt>
      <trkpt lat="44.09088" lon="7.05076">
        <ele>1223.6</ele>
        <time>2022-06-11T11:17:03Z</time>
      </trkpt>
      <trkpt lat="44.0909" lon="7.05077">
        <ele>1223.8</ele>
        <time>2022-06-11T11:17:04Z</time>
      </trkpt>
      <trkpt lat="44.09092" lon="7.05079">
        <ele>1223.9</ele>
        <time>2022-06-11T11:17:05Z</time>
      </trkpt>
      <trkpt lat="44.09094" lon="7.0508">
        <ele>1224.4</ele>
        <time>2022-06-11T11:17:06Z</time>
      </trkpt>
      <trkpt lat="44.09096" lon="7.05082">
        <ele>1224.6</ele>
        <time>2022-06-11T11:17:07Z</time>
      </trkpt>
      <trkpt lat="44.09098" lon="7.05082">
        <ele>1225.2</ele>
        <time>2022-06-11T11:17:08Z</time>
      </trkpt>
      <trkpt lat="44.091" lon="7.05083">
        <ele>1225.9</ele>
        <time>2022-06-11T11:17:09Z</time>
      </trkpt>
      <trkpt lat="44.09102" lon="7.05084">
        <ele>1226.5</ele>
        <time>2022-06-11T11:17:10Z</time>
      </trkpt>
      <trkpt lat="44.09104" lon="7.05085">
        <ele>1227.2</ele>
        <time>2022-06-11T11:17:11Z</time>
      </trkpt>
      <trkpt lat="44.09106" lon="7.05086">
        <ele>1227.5</ele>
        <time>2022-06-11T11:17:12Z</time>
      </trkpt>
      <trkpt lat="44.09108" lon="7.05089">
        <ele>1227.4</ele>
        <time>2022-06-11T11:17:13Z</time>
      </trkpt>
      <trkpt lat="44.0911" lon="7.05091">
        <ele>1227.3</ele>
        <time>2022-06-11T11:17:14Z</time>
      </trkpt>
      <trkpt lat="44.09112" lon="7.05093">
        <ele>1227.8</ele>
        <time>2022-06-11T11:17:15Z</time>
      </trkpt>
      <trkpt lat="44.09114" lon="7.05095">
        <ele>1228.1</ele>
        <time>2022-06-11T11:17:16Z</time>
      </trkpt>
      <trkpt lat="44.09116" lon="7.05097">
        <ele>1227.9</ele>
        <time>2022-06-11T11:17:17Z</time>
      </trkpt>
      <trkpt lat="44.09118" lon="7.05099">
        <ele>1227.9</ele>
        <time>2022-06-11T11:17:18Z</time>
      </trkpt>
      <trkpt lat="44.09118" lon="7.05101">
        <ele>1227.5</ele>
        <time>2022-06-11T11:17:19Z</time>
      </trkpt>
      <trkpt lat="44.0912" lon="7.05103">
        <ele>1227</ele>
        <time>2022-06-11T11:17:20Z</time>
      </trkpt>
      <trkpt lat="44.09121" lon="7.05106">
        <ele>1226.5</ele>
        <time>2022-06-11T11:17:21Z</time>
      </trkpt>
      <trkpt lat="44.09122" lon="7.05108">
        <ele>1226.3</ele>
        <time>2022-06-11T11:17:22Z</time>
      </trkpt>
      <trkpt lat="44.09124" lon="7.0511">
        <ele>1225.8</ele>
        <time>2022-06-11T11:17:23Z</time>
      </trkpt>
      <trkpt lat="44.09125" lon="7.05113">
        <ele>1225.4</ele>
        <time>2022-06-11T11:17:24Z</time>
      </trkpt>
      <trkpt lat="44.09126" lon="7.05115">
        <ele>1224.9</ele>
        <time>2022-06-11T11:17:25Z</time>
      </trkpt>
      <trkpt lat="44.09127" lon="7.05116">
        <ele>1224.6</ele>
        <time>2022-06-11T11:17:26Z</time>
      </trkpt>
      <trkpt lat="44.09129" lon="7.05119">
        <ele>1224.2</ele>
        <time>2022-06-11T11:17:27Z</time>
      </trkpt>
      <trkpt lat="44.0913" lon="7.0512">
        <ele>1224.3</ele>
        <time>2022-06-11T11:17:28Z</time>
      </trkpt>
      <trkpt lat="44.09132" lon="7.05121">
        <ele>1224.4</ele>
        <time>2022-06-11T11:17:29Z</time>
      </trkpt>
      <trkpt lat="44.09134" lon="7.05123">
        <ele>1224.5</ele>
        <time>2022-06-11T11:17:30Z</time>
      </trkpt>
      <trkpt lat="44.09136" lon="7.05124">
        <ele>1224.5</ele>
        <time>2022-06-11T11:17:31Z</time>
      </trkpt>
      <trkpt lat="44.09137" lon="7.05126">
        <ele>1224.5</ele>
        <time>2022-06-11T11:17:32Z</time>
      </trkpt>
      <trkpt lat="44.09139" lon="7.05127">
        <ele>1224.5</ele>
        <time>2022-06-11T11:17:33Z</time>
      </trkpt>
      <trkpt lat="44.09141" lon="7.05128">
        <ele>1224.6</ele>
        <time>2022-06-11T11:17:34Z</time>
      </trkpt>
      <trkpt lat="44.09143" lon="7.05129">
        <ele>1224.5</ele>
        <time>2022-06-11T11:17:35Z</time>
      </trkpt>
      <trkpt lat="44.09145" lon="7.0513">
        <ele>1224.5</ele>
        <time>2022-06-11T11:17:36Z</time>
      </trkpt>
      <trkpt lat="44.09147" lon="7.05131">
        <ele>1224.4</ele>
        <time>2022-06-11T11:17:37Z</time>
      </trkpt>
      <trkpt lat="44.09149" lon="7.05132">
        <ele>1224.2</ele>
        <time>2022-06-11T11:17:38Z</time>
      </trkpt>
      <trkpt lat="44.09151" lon="7.05134">
        <ele>1223.7</ele>
        <time>2022-06-11T11:17:39Z</time>
      </trkpt>
      <trkpt lat="44.09154" lon="7.05135">
        <ele>1223.4</ele>
        <time>2022-06-11T11:17:40Z</time>
      </trkpt>
      <trkpt lat="44.09156" lon="7.05137">
        <ele>1223.2</ele>
        <time>2022-06-11T11:17:41Z</time>
      </trkpt>
      <trkpt lat="44.09158" lon="7.05138">
        <ele>1222.8</ele>
        <time>2022-06-11T11:17:42Z</time>
      </trkpt>
      <trkpt lat="44.0916" lon="7.05139">
        <ele>1222.2</ele>
        <time>2022-06-11T11:17:43Z</time>
      </trkpt>
      <trkpt lat="44.09162" lon="7.05141">
        <ele>1221.6</ele>
        <time>2022-06-11T11:17:44Z</time>
      </trkpt>
      <trkpt lat="44.09164" lon="7.05143">
        <ele>1221.3</ele>
        <time>2022-06-11T11:17:45Z</time>
      </trkpt>
      <trkpt lat="44.09166" lon="7.05144">
        <ele>1221.1</ele>
        <time>2022-06-11T11:17:46Z</time>
      </trkpt>
      <trkpt lat="44.09168" lon="7.05145">
        <ele>1221</ele>
        <time>2022-06-11T11:17:47Z</time>
      </trkpt>
      <trkpt lat="44.0917" lon="7.05146">
        <ele>1220.7</ele>
        <time>2022-06-11T11:17:48Z</time>
      </trkpt>
      <trkpt lat="44.09172" lon="7.05148">
        <ele>1220.7</ele>
        <time>2022-06-11T11:17:49Z</time>
      </trkpt>
      <trkpt lat="44.09174" lon="7.05149">
        <ele>1220.9</ele>
        <time>2022-06-11T11:17:50Z</time>
      </trkpt>
      <trkpt lat="44.09176" lon="7.0515">
        <ele>1221</ele>
        <time>2022-06-11T11:17:51Z</time>
      </trkpt>
      <trkpt lat="44.09178" lon="7.05151">
        <ele>1221.2</ele>
        <time>2022-06-11T11:17:52Z</time>
      </trkpt>
      <trkpt lat="44.0918" lon="7.05152">
        <ele>1221.3</ele>
        <time>2022-06-11T11:17:53Z</time>
      </trkpt>
      <trkpt lat="44.09182" lon="7.05154">
        <ele>1221.2</ele>
        <time>2022-06-11T11:17:54Z</time>
      </trkpt>
      <trkpt lat="44.09184" lon="7.05156">
        <ele>1221</ele>
        <time>2022-06-11T11:17:55Z</time>
      </trkpt>
      <trkpt lat="44.09185" lon="7.05158">
        <ele>1220.8</ele>
        <time>2022-06-11T11:17:56Z</time>
      </trkpt>
      <trkpt lat="44.09187" lon="7.0516">
        <ele>1220.6</ele>
        <time>2022-06-11T11:17:57Z</time>
      </trkpt>
      <trkpt lat="44.09189" lon="7.05162">
        <ele>1220.3</ele>
        <time>2022-06-11T11:17:58Z</time>
      </trkpt>
      <trkpt lat="44.0919" lon="7.05165">
        <ele>1219.8</ele>
        <time>2022-06-11T11:17:59Z</time>
      </trkpt>
      <trkpt lat="44.09192" lon="7.05167">
        <ele>1219.6</ele>
        <time>2022-06-11T11:18:00Z</time>
      </trkpt>
      <trkpt lat="44.09193" lon="7.05169">
        <ele>1219.8</ele>
        <time>2022-06-11T11:18:01Z</time>
      </trkpt>
      <trkpt lat="44.09194" lon="7.05172">
        <ele>1220.1</ele>
        <time>2022-06-11T11:18:02Z</time>
      </trkpt>
      <trkpt lat="44.09195" lon="7.05175">
        <ele>1220.4</ele>
        <time>2022-06-11T11:18:03Z</time>
      </trkpt>
      <trkpt lat="44.09196" lon="7.05179">
        <ele>1220.6</ele>
        <time>2022-06-11T11:18:04Z</time>
      </trkpt>
      <trkpt lat="44.09196" lon="7.05182">
        <ele>1220.9</ele>
        <time>2022-06-11T11:18:05Z</time>
      </trkpt>
      <trkpt lat="44.09197" lon="7.05185">
        <ele>1221</ele>
        <time>2022-06-11T11:18:06Z</time>
      </trkpt>
      <trkpt lat="44.09198" lon="7.05188">
        <ele>1221.3</ele>
        <time>2022-06-11T11:18:07Z</time>
      </trkpt>
      <trkpt lat="44.09198" lon="7.05191">
        <ele>1221.7</ele>
        <time>2022-06-11T11:18:08Z</time>
      </trkpt>
      <trkpt lat="44.09199" lon="7.05194">
        <ele>1222</ele>
        <time>2022-06-11T11:18:09Z</time>
      </trkpt>
      <trkpt lat="44.092" lon="7.05197">
        <ele>1222.2</ele>
        <time>2022-06-11T11:18:10Z</time>
      </trkpt>
      <trkpt lat="44.092" lon="7.052">
        <ele>1222.6</ele>
        <time>2022-06-11T11:18:11Z</time>
      </trkpt>
      <trkpt lat="44.09201" lon="7.05203">
        <ele>1223</ele>
        <time>2022-06-11T11:18:12Z</time>
      </trkpt>
      <trkpt lat="44.09201" lon="7.05206">
        <ele>1223</ele>
        <time>2022-06-11T11:18:13Z</time>
      </trkpt>
      <trkpt lat="44.09202" lon="7.05209">
        <ele>1223.3</ele>
        <time>2022-06-11T11:18:14Z</time>
      </trkpt>
      <trkpt lat="44.09203" lon="7.05212">
        <ele>1223.6</ele>
        <time>2022-06-11T11:18:15Z</time>
      </trkpt>
      <trkpt lat="44.09203" lon="7.05215">
        <ele>1224</ele>
        <time>2022-06-11T11:18:16Z</time>
      </trkpt>
      <trkpt lat="44.09204" lon="7.05218">
        <ele>1224.1</ele>
        <time>2022-06-11T11:18:17Z</time>
      </trkpt>
      <trkpt lat="44.09205" lon="7.0522">
        <ele>1224.5</ele>
        <time>2022-06-11T11:18:18Z</time>
      </trkpt>
      <trkpt lat="44.09206" lon="7.05222">
        <ele>1225.2</ele>
        <time>2022-06-11T11:18:19Z</time>
      </trkpt>
      <trkpt lat="44.09207" lon="7.05224">
        <ele>1226.2</ele>
        <time>2022-06-11T11:18:20Z</time>
      </trkpt>
      <trkpt lat="44.09208" lon="7.05227">
        <ele>1227.1</ele>
        <time>2022-06-11T11:18:21Z</time>
      </trkpt>
      <trkpt lat="44.0921" lon="7.05228">
        <ele>1228</ele>
        <time>2022-06-11T11:18:22Z</time>
      </trkpt>
      <trkpt lat="44.09211" lon="7.05231">
        <ele>1228.6</ele>
        <time>2022-06-11T11:18:23Z</time>
      </trkpt>
      <trkpt lat="44.09212" lon="7.05233">
        <ele>1229.5</ele>
        <time>2022-06-11T11:18:24Z</time>
      </trkpt>
      <trkpt lat="44.09214" lon="7.05235">
        <ele>1230.8</ele>
        <time>2022-06-11T11:18:25Z</time>
      </trkpt>
      <trkpt lat="44.09216" lon="7.05237">
        <ele>1231.9</ele>
        <time>2022-06-11T11:18:26Z</time>
      </trkpt>
      <trkpt lat="44.09217" lon="7.0524">
        <ele>1232.6</ele>
        <time>2022-06-11T11:18:27Z</time>
      </trkpt>
      <trkpt lat="44.09219" lon="7.05242">
        <ele>1233.4</ele>
        <time>2022-06-11T11:18:28Z</time>
      </trkpt>
      <trkpt lat="44.0922" lon="7.05244">
        <ele>1234.2</ele>
        <time>2022-06-11T11:18:29Z</time>
      </trkpt>
      <trkpt lat="44.09221" lon="7.05247">
        <ele>1234.8</ele>
        <time>2022-06-11T11:18:30Z</time>
      </trkpt>
      <trkpt lat="44.09223" lon="7.05249">
        <ele>1235.9</ele>
        <time>2022-06-11T11:18:31Z</time>
      </trkpt>
      <trkpt lat="44.09225" lon="7.05251">
        <ele>1236.5</ele>
        <time>2022-06-11T11:18:32Z</time>
      </trkpt>
      <trkpt lat="44.09226" lon="7.05252">
        <ele>1237</ele>
        <time>2022-06-11T11:18:33Z</time>
      </trkpt>
      <trkpt lat="44.09228" lon="7.05255">
        <ele>1237.6</ele>
        <time>2022-06-11T11:18:34Z</time>
      </trkpt>
      <trkpt lat="44.0923" lon="7.05257">
        <ele>1238</ele>
        <time>2022-06-11T11:18:35Z</time>
      </trkpt>
      <trkpt lat="44.09231" lon="7.05258">
        <ele>1238.5</ele>
        <time>2022-06-11T11:18:36Z</time>
      </trkpt>
      <trkpt lat="44.09233" lon="7.0526">
        <ele>1238.9</ele>
        <time>2022-06-11T11:18:37Z</time>
      </trkpt>
      <trkpt lat="44.09234" lon="7.05262">
        <ele>1239.3</ele>
        <time>2022-06-11T11:18:38Z</time>
      </trkpt>
      <trkpt lat="44.09236" lon="7.05264">
        <ele>1239.7</ele>
        <time>2022-06-11T11:18:39Z</time>
      </trkpt>
      <trkpt lat="44.09237" lon="7.05266">
        <ele>1239.9</ele>
        <time>2022-06-11T11:18:40Z</time>
      </trkpt>
      <trkpt lat="44.09239" lon="7.05268">
        <ele>1240.4</ele>
        <time>2022-06-11T11:18:41Z</time>
      </trkpt>
      <trkpt lat="44.0924" lon="7.0527">
        <ele>1240.6</ele>
        <time>2022-06-11T11:18:42Z</time>
      </trkpt>
      <trkpt lat="44.09242" lon="7.05271">
        <ele>1240.9</ele>
        <time>2022-06-11T11:18:43Z</time>
      </trkpt>
      <trkpt lat="44.09243" lon="7.05273">
        <ele>1241.2</ele>
        <time>2022-06-11T11:18:44Z</time>
      </trkpt>
      <trkpt lat="44.09245" lon="7.05274">
        <ele>1241.8</ele>
        <time>2022-06-11T11:18:45Z</time>
      </trkpt>
      <trkpt lat="44.09247" lon="7.05276">
        <ele>1242.2</ele>
        <time>2022-06-11T11:18:46Z</time>
      </trkpt>
      <trkpt lat="44.09248" lon="7.05277">
        <ele>1242.4</ele>
        <time>2022-06-11T11:18:47Z</time>
      </trkpt>
      <trkpt lat="44.0925" lon="7.05279">
        <ele>1242.6</ele>
        <time>2022-06-11T11:18:48Z</time>
      </trkpt>
      <trkpt lat="44.09252" lon="7.05281">
        <ele>1242.5</ele>
        <time>2022-06-11T11:18:49Z</time>
      </trkpt>
      <trkpt lat="44.09254" lon="7.05283">
        <ele>1242.7</ele>
        <time>2022-06-11T11:18:50Z</time>
      </trkpt>
      <trkpt lat="44.09256" lon="7.05284">
        <ele>1242.8</ele>
        <time>2022-06-11T11:18:51Z</time>
      </trkpt>
      <trkpt lat="44.09258" lon="7.05286">
        <ele>1242.8</ele>
        <time>2022-06-11T11:18:52Z</time>
      </trkpt>
      <trkpt lat="44.0926" lon="7.05287">
        <ele>1242.9</ele>
        <time>2022-06-11T11:18:53Z</time>
      </trkpt>
      <trkpt lat="44.09262" lon="7.05289">
        <ele>1243.1</ele>
        <time>2022-06-11T11:18:54Z</time>
      </trkpt>
      <trkpt lat="44.09264" lon="7.0529">
        <ele>1243.1</ele>
        <time>2022-06-11T11:18:55Z</time>
      </trkpt>
      <trkpt lat="44.09267" lon="7.05292">
        <ele>1243.1</ele>
        <time>2022-06-11T11:18:56Z</time>
      </trkpt>
      <trkpt lat="44.09268" lon="7.05294">
        <ele>1242.8</ele>
        <time>2022-06-11T11:18:57Z</time>
      </trkpt>
      <trkpt lat="44.09269" lon="7.05296">
        <ele>1242.4</ele>
        <time>2022-06-11T11:18:58Z</time>
      </trkpt>
      <trkpt lat="44.09271" lon="7.05298">
        <ele>1242.1</ele>
        <time>2022-06-11T11:18:59Z</time>
      </trkpt>
      <trkpt lat="44.09272" lon="7.053">
        <ele>1241.7</ele>
        <time>2022-06-11T11:19:00Z</time>
      </trkpt>
      <trkpt lat="44.09274" lon="7.05302">
        <ele>1241.4</ele>
        <time>2022-06-11T11:19:01Z</time>
      </trkpt>
      <trkpt lat="44.09276" lon="7.05304">
        <ele>1240.9</ele>
        <time>2022-06-11T11:19:02Z</time>
      </trkpt>
      <trkpt lat="44.09277" lon="7.05306">
        <ele>1240.5</ele>
        <time>2022-06-11T11:19:03Z</time>
      </trkpt>
      <trkpt lat="44.09279" lon="7.05308">
        <ele>1240</ele>
        <time>2022-06-11T11:19:04Z</time>
      </trkpt>
      <trkpt lat="44.09281" lon="7.05309">
        <ele>1239.3</ele>
        <time>2022-06-11T11:19:05Z</time>
      </trkpt>
      <trkpt lat="44.09283" lon="7.0531">
        <ele>1239.3</ele>
        <time>2022-06-11T11:19:06Z</time>
      </trkpt>
      <trkpt lat="44.09285" lon="7.0531">
        <ele>1239.3</ele>
        <time>2022-06-11T11:19:07Z</time>
      </trkpt>
      <trkpt lat="44.09287" lon="7.05308">
        <ele>1240</ele>
        <time>2022-06-11T11:19:08Z</time>
      </trkpt>
      <trkpt lat="44.09289" lon="7.05306">
        <ele>1241.1</ele>
        <time>2022-06-11T11:19:09Z</time>
      </trkpt>
      <trkpt lat="44.0929" lon="7.05305">
        <ele>1241.8</ele>
        <time>2022-06-11T11:19:10Z</time>
      </trkpt>
      <trkpt lat="44.09291" lon="7.05303">
        <ele>1243</ele>
        <time>2022-06-11T11:19:11Z</time>
      </trkpt>
      <trkpt lat="44.09291" lon="7.053">
        <ele>1244.4</ele>
        <time>2022-06-11T11:19:12Z</time>
      </trkpt>
      <trkpt lat="44.09291" lon="7.05296">
        <ele>1246.1</ele>
        <time>2022-06-11T11:19:13Z</time>
      </trkpt>
      <trkpt lat="44.0929" lon="7.05293">
        <ele>1247.5</ele>
        <time>2022-06-11T11:19:14Z</time>
      </trkpt>
      <trkpt lat="44.09289" lon="7.05291">
        <ele>1248.6</ele>
        <time>2022-06-11T11:19:15Z</time>
      </trkpt>
      <trkpt lat="44.09287" lon="7.05289">
        <ele>1249.3</ele>
        <time>2022-06-11T11:19:16Z</time>
      </trkpt>
      <trkpt lat="44.09285" lon="7.05287">
        <ele>1249.9</ele>
        <time>2022-06-11T11:19:17Z</time>
      </trkpt>
      <trkpt lat="44.09283" lon="7.05285">
        <ele>1250.6</ele>
        <time>2022-06-11T11:19:18Z</time>
      </trkpt>
      <trkpt lat="44.09281" lon="7.05283">
        <ele>1250.9</ele>
        <time>2022-06-11T11:19:19Z</time>
      </trkpt>
      <trkpt lat="44.09278" lon="7.05282">
        <ele>1251.3</ele>
        <time>2022-06-11T11:19:20Z</time>
      </trkpt>
      <trkpt lat="44.09276" lon="7.05281">
        <ele>1251.2</ele>
        <time>2022-06-11T11:19:21Z</time>
      </trkpt>
      <trkpt lat="44.09275" lon="7.05279">
        <ele>1251.3</ele>
        <time>2022-06-11T11:19:22Z</time>
      </trkpt>
      <trkpt lat="44.09273" lon="7.05277">
        <ele>1251.4</ele>
        <time>2022-06-11T11:19:23Z</time>
      </trkpt>
      <trkpt lat="44.0927" lon="7.05275">
        <ele>1251.6</ele>
        <time>2022-06-11T11:19:24Z</time>
      </trkpt>
      <trkpt lat="44.09269" lon="7.05273">
        <ele>1252</ele>
        <time>2022-06-11T11:19:25Z</time>
      </trkpt>
      <trkpt lat="44.09268" lon="7.0527">
        <ele>1252.8</ele>
        <time>2022-06-11T11:19:26Z</time>
      </trkpt>
      <trkpt lat="44.09266" lon="7.05267">
        <ele>1253.4</ele>
        <time>2022-06-11T11:19:27Z</time>
      </trkpt>
      <trkpt lat="44.09264" lon="7.05264">
        <ele>1254</ele>
        <time>2022-06-11T11:19:28Z</time>
      </trkpt>
      <trkpt lat="44.09263" lon="7.05261">
        <ele>1254.5</ele>
        <time>2022-06-11T11:19:29Z</time>
      </trkpt>
      <trkpt lat="44.09262" lon="7.05258">
        <ele>1255</ele>
        <time>2022-06-11T11:19:30Z</time>
      </trkpt>
      <trkpt lat="44.0926" lon="7.05255">
        <ele>1255.1</ele>
        <time>2022-06-11T11:19:31Z</time>
      </trkpt>
      <trkpt lat="44.09258" lon="7.05253">
        <ele>1254.9</ele>
        <time>2022-06-11T11:19:32Z</time>
      </trkpt>
      <trkpt lat="44.09256" lon="7.05251">
        <ele>1254.7</ele>
        <time>2022-06-11T11:19:33Z</time>
      </trkpt>
      <trkpt lat="44.09254" lon="7.05248">
        <ele>1254.5</ele>
        <time>2022-06-11T11:19:34Z</time>
      </trkpt>
      <trkpt lat="44.09252" lon="7.05246">
        <ele>1254.3</ele>
        <time>2022-06-11T11:19:35Z</time>
      </trkpt>
      <trkpt lat="44.09251" lon="7.05244">
        <ele>1254.3</ele>
        <time>2022-06-11T11:19:36Z</time>
      </trkpt>
      <trkpt lat="44.09249" lon="7.05241">
        <ele>1254.4</ele>
        <time>2022-06-11T11:19:37Z</time>
      </trkpt>
      <trkpt lat="44.09247" lon="7.05238">
        <ele>1254.1</ele>
        <time>2022-06-11T11:19:38Z</time>
      </trkpt>
      <trkpt lat="44.09246" lon="7.05236">
        <ele>1253.5</ele>
        <time>2022-06-11T11:19:39Z</time>
      </trkpt>
      <trkpt lat="44.09244" lon="7.05233">
        <ele>1253.3</ele>
        <time>2022-06-11T11:19:40Z</time>
      </trkpt>
      <trkpt lat="44.09243" lon="7.05231">
        <ele>1252.8</ele>
        <time>2022-06-11T11:19:41Z</time>
      </trkpt>
      <trkpt lat="44.09241" lon="7.05228">
        <ele>1252.4</ele>
        <time>2022-06-11T11:19:42Z</time>
      </trkpt>
      <trkpt lat="44.0924" lon="7.05225">
        <ele>1252</ele>
        <time>2022-06-11T11:19:43Z</time>
      </trkpt>
      <trkpt lat="44.09238" lon="7.05223">
        <ele>1251.4</ele>
        <time>2022-06-11T11:19:44Z</time>
      </trkpt>
      <trkpt lat="44.09237" lon="7.0522">
        <ele>1250.7</ele>
        <time>2022-06-11T11:19:45Z</time>
      </trkpt>
      <trkpt lat="44.09235" lon="7.05217">
        <ele>1250.1</ele>
        <time>2022-06-11T11:19:46Z</time>
      </trkpt>
      <trkpt lat="44.09234" lon="7.05215">
        <ele>1249.6</ele>
        <time>2022-06-11T11:19:47Z</time>
      </trkpt>
      <trkpt lat="44.09233" lon="7.05212">
        <ele>1249.4</ele>
        <time>2022-06-11T11:19:48Z</time>
      </trkpt>
      <trkpt lat="44.09233" lon="7.05209">
        <ele>1249.6</ele>
        <time>2022-06-11T11:19:49Z</time>
      </trkpt>
      <trkpt lat="44.09232" lon="7.05206">
        <ele>1249.4</ele>
        <time>2022-06-11T11:19:50Z</time>
      </trkpt>
      <trkpt lat="44.09232" lon="7.05204">
        <ele>1249.5</ele>
        <time>2022-06-11T11:19:51Z</time>
      </trkpt>
      <trkpt lat="44.09231" lon="7.05201">
        <ele>1249.2</ele>
        <time>2022-06-11T11:19:52Z</time>
      </trkpt>
      <trkpt lat="44.09231" lon="7.05199">
        <ele>1249.5</ele>
        <time>2022-06-11T11:19:53Z</time>
      </trkpt>
      <trkpt lat="44.09231" lon="7.05197">
        <ele>1249.1</ele>
        <time>2022-06-11T11:19:54Z</time>
      </trkpt>
      <trkpt lat="44.0923" lon="7.05194">
        <ele>1248.7</ele>
        <time>2022-06-11T11:19:55Z</time>
      </trkpt>
      <trkpt lat="44.09229" lon="7.05191">
        <ele>1248.4</ele>
        <time>2022-06-11T11:19:56Z</time>
      </trkpt>
      <trkpt lat="44.09228" lon="7.05188">
        <ele>1248</ele>
        <time>2022-06-11T11:19:57Z</time>
      </trkpt>
      <trkpt lat="44.09228" lon="7.05185">
        <ele>1247.7</ele>
        <time>2022-06-11T11:19:58Z</time>
      </trkpt>
      <trkpt lat="44.09227" lon="7.05182">
        <ele>1247.3</ele>
        <time>2022-06-11T11:19:59Z</time>
      </trkpt>
      <trkpt lat="44.09227" lon="7.05179">
        <ele>1247.2</ele>
        <time>2022-06-11T11:20:00Z</time>
      </trkpt>
      <trkpt lat="44.09227" lon="7.05176">
        <ele>1247.9</ele>
        <time>2022-06-11T11:20:01Z</time>
      </trkpt>
      <trkpt lat="44.09228" lon="7.05172">
        <ele>1248.3</ele>
        <time>2022-06-11T11:20:02Z</time>
      </trkpt>
      <trkpt lat="44.09228" lon="7.05169">
        <ele>1248.7</ele>
        <time>2022-06-11T11:20:03Z</time>
      </trkpt>
      <trkpt lat="44.09228" lon="7.05165">
        <ele>1249.5</ele>
        <time>2022-06-11T11:20:04Z</time>
      </trkpt>
      <trkpt lat="44.09228" lon="7.05162">
        <ele>1249.7</ele>
        <time>2022-06-11T11:20:05Z</time>
      </trkpt>
      <trkpt lat="44.09228" lon="7.05158">
        <ele>1250</ele>
        <time>2022-06-11T11:20:06Z</time>
      </trkpt>
      <trkpt lat="44.09228" lon="7.05155">
        <ele>1250.6</ele>
        <time>2022-06-11T11:20:07Z</time>
      </trkpt>
      <trkpt lat="44.09228" lon="7.05152">
        <ele>1250.7</ele>
        <time>2022-06-11T11:20:08Z</time>
      </trkpt>
      <trkpt lat="44.09227" lon="7.05149">
        <ele>1250.9</ele>
        <time>2022-06-11T11:20:09Z</time>
      </trkpt>
      <trkpt lat="44.09227" lon="7.05146">
        <ele>1251.3</ele>
        <time>2022-06-11T11:20:10Z</time>
      </trkpt>
      <trkpt lat="44.09227" lon="7.05142">
        <ele>1251.7</ele>
        <time>2022-06-11T11:20:11Z</time>
      </trkpt>
      <trkpt lat="44.09226" lon="7.05139">
        <ele>1251.3</ele>
        <time>2022-06-11T11:20:12Z</time>
      </trkpt>
      <trkpt lat="44.09226" lon="7.05136">
        <ele>1251.9</ele>
        <time>2022-06-11T11:20:13Z</time>
      </trkpt>
      <trkpt lat="44.09225" lon="7.05134">
        <ele>1252.1</ele>
        <time>2022-06-11T11:20:14Z</time>
      </trkpt>
      <trkpt lat="44.09224" lon="7.05131">
        <ele>1252.2</ele>
        <time>2022-06-11T11:20:15Z</time>
      </trkpt>
      <trkpt lat="44.09222" lon="7.05128">
        <ele>1252.4</ele>
        <time>2022-06-11T11:20:16Z</time>
      </trkpt>
      <trkpt lat="44.09221" lon="7.05126">
        <ele>1252.6</ele>
        <time>2022-06-11T11:20:17Z</time>
      </trkpt>
      <trkpt lat="44.09219" lon="7.05123">
        <ele>1253</ele>
        <time>2022-06-11T11:20:18Z</time>
      </trkpt>
      <trkpt lat="44.09217" lon="7.05121">
        <ele>1253.3</ele>
        <time>2022-06-11T11:20:19Z</time>
      </trkpt>
      <trkpt lat="44.09215" lon="7.0512">
        <ele>1253.5</ele>
        <time>2022-06-11T11:20:20Z</time>
      </trkpt>
      <trkpt lat="44.09212" lon="7.05118">
        <ele>1253.9</ele>
        <time>2022-06-11T11:20:21Z</time>
      </trkpt>
      <trkpt lat="44.0921" lon="7.05116">
        <ele>1254.6</ele>
        <time>2022-06-11T11:20:22Z</time>
      </trkpt>
      <trkpt lat="44.09208" lon="7.05114">
        <ele>1255</ele>
        <time>2022-06-11T11:20:23Z</time>
      </trkpt>
      <trkpt lat="44.09207" lon="7.05113">
        <ele>1255.8</ele>
        <time>2022-06-11T11:20:24Z</time>
      </trkpt>
      <trkpt lat="44.09205" lon="7.05111">
        <ele>1256.8</ele>
        <time>2022-06-11T11:20:25Z</time>
      </trkpt>
      <trkpt lat="44.09203" lon="7.05108">
        <ele>1258</ele>
        <time>2022-06-11T11:20:26Z</time>
      </trkpt>
      <trkpt lat="44.09201" lon="7.05106">
        <ele>1259</ele>
        <time>2022-06-11T11:20:27Z</time>
      </trkpt>
      <trkpt lat="44.09199" lon="7.05104">
        <ele>1259.8</ele>
        <time>2022-06-11T11:20:28Z</time>
      </trkpt>
      <trkpt lat="44.09197" lon="7.05102">
        <ele>1260.9</ele>
        <time>2022-06-11T11:20:29Z</time>
      </trkpt>
      <trkpt lat="44.09195" lon="7.051">
        <ele>1262.2</ele>
        <time>2022-06-11T11:20:30Z</time>
      </trkpt>
      <trkpt lat="44.09194" lon="7.05097">
        <ele>1263.2</ele>
        <time>2022-06-11T11:20:31Z</time>
      </trkpt>
      <trkpt lat="44.09192" lon="7.05095">
        <ele>1264</ele>
        <time>2022-06-11T11:20:32Z</time>
      </trkpt>
      <trkpt lat="44.09191" lon="7.05093">
        <ele>1264.5</ele>
        <time>2022-06-11T11:20:33Z</time>
      </trkpt>
      <trkpt lat="44.09189" lon="7.05092">
        <ele>1264.8</ele>
        <time>2022-06-11T11:20:34Z</time>
      </trkpt>
      <trkpt lat="44.09187" lon="7.0509">
        <ele>1265.1</ele>
        <time>2022-06-11T11:20:35Z</time>
      </trkpt>
      <trkpt lat="44.09185" lon="7.05089">
        <ele>1265.5</ele>
        <time>2022-06-11T11:20:36Z</time>
      </trkpt>
      <trkpt lat="44.09183" lon="7.05087">
        <ele>1265.7</ele>
        <time>2022-06-11T11:20:37Z</time>
      </trkpt>
      <trkpt lat="44.09181" lon="7.05086">
        <ele>1265.8</ele>
        <time>2022-06-11T11:20:38Z</time>
      </trkpt>
      <trkpt lat="44.09179" lon="7.05085">
        <ele>1266.1</ele>
        <time>2022-06-11T11:20:39Z</time>
      </trkpt>
      <trkpt lat="44.09177" lon="7.05083">
        <ele>1266.5</ele>
        <time>2022-06-11T11:20:40Z</time>
      </trkpt>
      <trkpt lat="44.09175" lon="7.05081">
        <ele>1266.6</ele>
        <time>2022-06-11T11:20:41Z</time>
      </trkpt>
      <trkpt lat="44.09173" lon="7.0508">
        <ele>1266.5</ele>
        <time>2022-06-11T11:20:42Z</time>
      </trkpt>
      <trkpt lat="44.09171" lon="7.05079">
        <ele>1266.7</ele>
        <time>2022-06-11T11:20:43Z</time>
      </trkpt>
      <trkpt lat="44.09169" lon="7.05078">
        <ele>1266.4</ele>
        <time>2022-06-11T11:20:44Z</time>
      </trkpt>
      <trkpt lat="44.09167" lon="7.05077">
        <ele>1266.3</ele>
        <time>2022-06-11T11:20:45Z</time>
      </trkpt>
      <trkpt lat="44.09165" lon="7.05076">
        <ele>1266</ele>
        <time>2022-06-11T11:20:46Z</time>
      </trkpt>
      <trkpt lat="44.09163" lon="7.05074">
        <ele>1265.8</ele>
        <time>2022-06-11T11:20:47Z</time>
      </trkpt>
      <trkpt lat="44.0916" lon="7.05072">
        <ele>1265.5</ele>
        <time>2022-06-11T11:20:48Z</time>
      </trkpt>
      <trkpt lat="44.09158" lon="7.05071">
        <ele>1264.9</ele>
        <time>2022-06-11T11:20:49Z</time>
      </trkpt>
      <trkpt lat="44.09156" lon="7.0507">
        <ele>1264.3</ele>
        <time>2022-06-11T11:20:50Z</time>
      </trkpt>
      <trkpt lat="44.09154" lon="7.05068">
        <ele>1264.2</ele>
        <time>2022-06-11T11:20:51Z</time>
      </trkpt>
      <trkpt lat="44.09153" lon="7.05066">
        <ele>1264.5</ele>
        <time>2022-06-11T11:20:52Z</time>
      </trkpt>
      <trkpt lat="44.09152" lon="7.05063">
        <ele>1265.2</ele>
        <time>2022-06-11T11:20:53Z</time>
      </trkpt>
      <trkpt lat="44.0915" lon="7.05061">
        <ele>1265.7</ele>
        <time>2022-06-11T11:20:54Z</time>
      </trkpt>
      <trkpt lat="44.09149" lon="7.05058">
        <ele>1266.4</ele>
        <time>2022-06-11T11:20:55Z</time>
      </trkpt>
      <trkpt lat="44.09148" lon="7.05055">
        <ele>1267.1</ele>
        <time>2022-06-11T11:20:56Z</time>
      </trkpt>
      <trkpt lat="44.09147" lon="7.05052">
        <ele>1267.8</ele>
        <time>2022-06-11T11:20:57Z</time>
      </trkpt>
      <trkpt lat="44.09147" lon="7.05049">
        <ele>1268.4</ele>
        <time>2022-06-11T11:20:58Z</time>
      </trkpt>
      <trkpt lat="44.09145" lon="7.05046">
        <ele>1268.8</ele>
        <time>2022-06-11T11:20:59Z</time>
      </trkpt>
      <trkpt lat="44.09145" lon="7.05043">
        <ele>1269.4</ele>
        <time>2022-06-11T11:21:00Z</time>
      </trkpt>
      <trkpt lat="44.09144" lon="7.0504">
        <ele>1270</ele>
        <time>2022-06-11T11:21:01Z</time>
      </trkpt>
      <trkpt lat="44.09143" lon="7.05038">
        <ele>1270.1</ele>
        <time>2022-06-11T11:21:02Z</time>
      </trkpt>
      <trkpt lat="44.09141" lon="7.05035">
        <ele>1270</ele>
        <time>2022-06-11T11:21:03Z</time>
      </trkpt>
      <trkpt lat="44.0914" lon="7.05033">
        <ele>1270</ele>
        <time>2022-06-11T11:21:04Z</time>
      </trkpt>
      <trkpt lat="44.09139" lon="7.0503">
        <ele>1270.1</ele>
        <time>2022-06-11T11:21:05Z</time>
      </trkpt>
      <trkpt lat="44.09137" lon="7.05027">
        <ele>1270.3</ele>
        <time>2022-06-11T11:21:06Z</time>
      </trkpt>
      <trkpt lat="44.09136" lon="7.05025">
        <ele>1270.5</ele>
        <time>2022-06-11T11:21:07Z</time>
      </trkpt>
      <trkpt lat="44.09135" lon="7.05022">
        <ele>1270.5</ele>
        <time>2022-06-11T11:21:08Z</time>
      </trkpt>
      <trkpt lat="44.09133" lon="7.05019">
        <ele>1270.7</ele>
        <time>2022-06-11T11:21:09Z</time>
      </trkpt>
      <trkpt lat="44.09132" lon="7.05017">
        <ele>1270.8</ele>
        <time>2022-06-11T11:21:10Z</time>
      </trkpt>
      <trkpt lat="44.09131" lon="7.05014">
        <ele>1270.9</ele>
        <time>2022-06-11T11:21:11Z</time>
      </trkpt>
      <trkpt lat="44.0913" lon="7.05012">
        <ele>1271.1</ele>
        <time>2022-06-11T11:21:12Z</time>
      </trkpt>
      <trkpt lat="44.09128" lon="7.05009">
        <ele>1271.2</ele>
        <time>2022-06-11T11:21:13Z</time>
      </trkpt>
      <trkpt lat="44.09127" lon="7.05006">
        <ele>1271.6</ele>
        <time>2022-06-11T11:21:14Z</time>
      </trkpt>
      <trkpt lat="44.09126" lon="7.05004">
        <ele>1271.9</ele>
        <time>2022-06-11T11:21:15Z</time>
      </trkpt>
      <trkpt lat="44.09125" lon="7.05001">
        <ele>1272.1</ele>
        <time>2022-06-11T11:21:16Z</time>
      </trkpt>
      <trkpt lat="44.09124" lon="7.04998">
        <ele>1272.3</ele>
        <time>2022-06-11T11:21:17Z</time>
      </trkpt>
      <trkpt lat="44.09123" lon="7.04996">
        <ele>1272.3</ele>
        <time>2022-06-11T11:21:18Z</time>
      </trkpt>
      <trkpt lat="44.09121" lon="7.04993">
        <ele>1272.3</ele>
        <time>2022-06-11T11:21:19Z</time>
      </trkpt>
      <trkpt lat="44.0912" lon="7.0499">
        <ele>1272.4</ele>
        <time>2022-06-11T11:21:20Z</time>
      </trkpt>
      <trkpt lat="44.09119" lon="7.04987">
        <ele>1272.6</ele>
        <time>2022-06-11T11:21:21Z</time>
      </trkpt>
      <trkpt lat="44.09118" lon="7.04985">
        <ele>1272.6</ele>
        <time>2022-06-11T11:21:22Z</time>
      </trkpt>
      <trkpt lat="44.09117" lon="7.04982">
        <ele>1272.6</ele>
        <time>2022-06-11T11:21:23Z</time>
      </trkpt>
      <trkpt lat="44.09116" lon="7.04979">
        <ele>1272.7</ele>
        <time>2022-06-11T11:21:24Z</time>
      </trkpt>
      <trkpt lat="44.09115" lon="7.04977">
        <ele>1272.7</ele>
        <time>2022-06-11T11:21:25Z</time>
      </trkpt>
      <trkpt lat="44.09114" lon="7.04974">
        <ele>1272.8</ele>
        <time>2022-06-11T11:21:26Z</time>
      </trkpt>
      <trkpt lat="44.09113" lon="7.04971">
        <ele>1273</ele>
        <time>2022-06-11T11:21:27Z</time>
      </trkpt>
      <trkpt lat="44.09112" lon="7.04968">
        <ele>1273.2</ele>
        <time>2022-06-11T11:21:28Z</time>
      </trkpt>
      <trkpt lat="44.09112" lon="7.04965">
        <ele>1273.3</ele>
        <time>2022-06-11T11:21:29Z</time>
      </trkpt>
      <trkpt lat="44.09111" lon="7.04963">
        <ele>1273.3</ele>
        <time>2022-06-11T11:21:30Z</time>
      </trkpt>
      <trkpt lat="44.0911" lon="7.0496">
        <ele>1273.4</ele>
        <time>2022-06-11T11:21:31Z</time>
      </trkpt>
      <trkpt lat="44.0911" lon="7.04958">
        <ele>1273.5</ele>
        <time>2022-06-11T11:21:32Z</time>
      </trkpt>
      <trkpt lat="44.09109" lon="7.04955">
        <ele>1273.5</ele>
        <time>2022-06-11T11:21:33Z</time>
      </trkpt>
      <trkpt lat="44.09108" lon="7.04952">
        <ele>1273.8</ele>
        <time>2022-06-11T11:21:34Z</time>
      </trkpt>
      <trkpt lat="44.09107" lon="7.04949">
        <ele>1273.9</ele>
        <time>2022-06-11T11:21:35Z</time>
      </trkpt>
      <trkpt lat="44.09107" lon="7.04946">
        <ele>1274</ele>
        <time>2022-06-11T11:21:36Z</time>
      </trkpt>
      <trkpt lat="44.09106" lon="7.04943">
        <ele>1274.2</ele>
        <time>2022-06-11T11:21:37Z</time>
      </trkpt>
      <trkpt lat="44.09105" lon="7.04939">
        <ele>1274.6</ele>
        <time>2022-06-11T11:21:38Z</time>
      </trkpt>
      <trkpt lat="44.09105" lon="7.04936">
        <ele>1275</ele>
        <time>2022-06-11T11:21:39Z</time>
      </trkpt>
      <trkpt lat="44.09105" lon="7.04933">
        <ele>1275.2</ele>
        <time>2022-06-11T11:21:40Z</time>
      </trkpt>
      <trkpt lat="44.09104" lon="7.0493">
        <ele>1275.5</ele>
        <time>2022-06-11T11:21:41Z</time>
      </trkpt>
      <trkpt lat="44.09103" lon="7.04927">
        <ele>1275.7</ele>
        <time>2022-06-11T11:21:42Z</time>
      </trkpt>
      <trkpt lat="44.09103" lon="7.04924">
        <ele>1275.8</ele>
        <time>2022-06-11T11:21:43Z</time>
      </trkpt>
      <trkpt lat="44.09102" lon="7.04921">
        <ele>1275.9</ele>
        <time>2022-06-11T11:21:44Z</time>
      </trkpt>
      <trkpt lat="44.09101" lon="7.04918">
        <ele>1276.2</ele>
        <time>2022-06-11T11:21:45Z</time>
      </trkpt>
      <trkpt lat="44.09101" lon="7.04916">
        <ele>1276.4</ele>
        <time>2022-06-11T11:21:46Z</time>
      </trkpt>
      <trkpt lat="44.09101" lon="7.04913">
        <ele>1276.7</ele>
        <time>2022-06-11T11:21:47Z</time>
      </trkpt>
      <trkpt lat="44.091" lon="7.0491">
        <ele>1276.9</ele>
        <time>2022-06-11T11:21:48Z</time>
      </trkpt>
      <trkpt lat="44.091" lon="7.04907">
        <ele>1277.1</ele>
        <time>2022-06-11T11:21:49Z</time>
      </trkpt>
      <trkpt lat="44.09099" lon="7.04904">
        <ele>1277.3</ele>
        <time>2022-06-11T11:21:50Z</time>
      </trkpt>
      <trkpt lat="44.09098" lon="7.04901">
        <ele>1277.4</ele>
        <time>2022-06-11T11:21:51Z</time>
      </trkpt>
      <trkpt lat="44.09097" lon="7.04898">
        <ele>1277.5</ele>
        <time>2022-06-11T11:21:52Z</time>
      </trkpt>
      <trkpt lat="44.09097" lon="7.04895">
        <ele>1277.7</ele>
        <time>2022-06-11T11:21:53Z</time>
      </trkpt>
      <trkpt lat="44.09096" lon="7.04892">
        <ele>1277.8</ele>
        <time>2022-06-11T11:21:54Z</time>
      </trkpt>
      <trkpt lat="44.09095" lon="7.04889">
        <ele>1278</ele>
        <time>2022-06-11T11:21:55Z</time>
      </trkpt>
      <trkpt lat="44.09095" lon="7.04887">
        <ele>1278.2</ele>
        <time>2022-06-11T11:21:56Z</time>
      </trkpt>
      <trkpt lat="44.09094" lon="7.04884">
        <ele>1278.5</ele>
        <time>2022-06-11T11:21:57Z</time>
      </trkpt>
      <trkpt lat="44.09094" lon="7.04881">
        <ele>1278.9</ele>
        <time>2022-06-11T11:21:58Z</time>
      </trkpt>
      <trkpt lat="44.09093" lon="7.04878">
        <ele>1279.3</ele>
        <time>2022-06-11T11:21:59Z</time>
      </trkpt>
      <trkpt lat="44.09092" lon="7.04875">
        <ele>1279.4</ele>
        <time>2022-06-11T11:22:00Z</time>
      </trkpt>
      <trkpt lat="44.09091" lon="7.04872">
        <ele>1279.5</ele>
        <time>2022-06-11T11:22:01Z</time>
      </trkpt>
      <trkpt lat="44.09091" lon="7.04869">
        <ele>1279.8</ele>
        <time>2022-06-11T11:22:02Z</time>
      </trkpt>
      <trkpt lat="44.0909" lon="7.04866">
        <ele>1280</ele>
        <time>2022-06-11T11:22:03Z</time>
      </trkpt>
      <trkpt lat="44.0909" lon="7.04863">
        <ele>1280.4</ele>
        <time>2022-06-11T11:22:04Z</time>
      </trkpt>
      <trkpt lat="44.09089" lon="7.0486">
        <ele>1280.6</ele>
        <time>2022-06-11T11:22:05Z</time>
      </trkpt>
      <trkpt lat="44.09089" lon="7.04857">
        <ele>1280.7</ele>
        <time>2022-06-11T11:22:06Z</time>
      </trkpt>
      <trkpt lat="44.09088" lon="7.04854">
        <ele>1280.9</ele>
        <time>2022-06-11T11:22:07Z</time>
      </trkpt>
      <trkpt lat="44.09088" lon="7.04851">
        <ele>1281.2</ele>
        <time>2022-06-11T11:22:08Z</time>
      </trkpt>
      <trkpt lat="44.09088" lon="7.04848">
        <ele>1281.5</ele>
        <time>2022-06-11T11:22:09Z</time>
      </trkpt>
      <trkpt lat="44.09088" lon="7.04846">
        <ele>1281.7</ele>
        <time>2022-06-11T11:22:10Z</time>
      </trkpt>
      <trkpt lat="44.09087" lon="7.04843">
        <ele>1281.8</ele>
        <time>2022-06-11T11:22:11Z</time>
      </trkpt>
      <trkpt lat="44.09087" lon="7.0484">
        <ele>1281.9</ele>
        <time>2022-06-11T11:22:12Z</time>
      </trkpt>
      <trkpt lat="44.09087" lon="7.04837">
        <ele>1282.1</ele>
        <time>2022-06-11T11:22:13Z</time>
      </trkpt>
      <trkpt lat="44.09086" lon="7.04834">
        <ele>1282.2</ele>
        <time>2022-06-11T11:22:14Z</time>
      </trkpt>
      <trkpt lat="44.09086" lon="7.04831">
        <ele>1282.4</ele>
        <time>2022-06-11T11:22:15Z</time>
      </trkpt>
      <trkpt lat="44.09085" lon="7.04828">
        <ele>1282.5</ele>
        <time>2022-06-11T11:22:16Z</time>
      </trkpt>
      <trkpt lat="44.09085" lon="7.04825">
        <ele>1282.6</ele>
        <time>2022-06-11T11:22:17Z</time>
      </trkpt>
      <trkpt lat="44.09084" lon="7.04822">
        <ele>1282.6</ele>
        <time>2022-06-11T11:22:18Z</time>
      </trkpt>
      <trkpt lat="44.09084" lon="7.04819">
        <ele>1282.6</ele>
        <time>2022-06-11T11:22:19Z</time>
      </trkpt>
      <trkpt lat="44.09083" lon="7.04816">
        <ele>1282.8</ele>
        <time>2022-06-11T11:22:20Z</time>
      </trkpt>
      <trkpt lat="44.09083" lon="7.04813">
        <ele>1282.9</ele>
        <time>2022-06-11T11:22:21Z</time>
      </trkpt>
      <trkpt lat="44.09082" lon="7.0481">
        <ele>1283</ele>
        <time>2022-06-11T11:22:22Z</time>
      </trkpt>
      <trkpt lat="44.09082" lon="7.04807">
        <ele>1283.1</ele>
        <time>2022-06-11T11:22:23Z</time>
      </trkpt>
      <trkpt lat="44.09081" lon="7.04804">
        <ele>1283.1</ele>
        <time>2022-06-11T11:22:24Z</time>
      </trkpt>
      <trkpt lat="44.0908" lon="7.04801">
        <ele>1282.8</ele>
        <time>2022-06-11T11:22:25Z</time>
      </trkpt>
      <trkpt lat="44.0908" lon="7.04798">
        <ele>1282.6</ele>
        <time>2022-06-11T11:22:26Z</time>
      </trkpt>
      <trkpt lat="44.09079" lon="7.04795">
        <ele>1282.5</ele>
        <time>2022-06-11T11:22:27Z</time>
      </trkpt>
      <trkpt lat="44.09079" lon="7.04792">
        <ele>1282.4</ele>
        <time>2022-06-11T11:22:28Z</time>
      </trkpt>
      <trkpt lat="44.09078" lon="7.04789">
        <ele>1282.3</ele>
        <time>2022-06-11T11:22:29Z</time>
      </trkpt>
      <trkpt lat="44.09078" lon="7.04786">
        <ele>1282.3</ele>
        <time>2022-06-11T11:22:30Z</time>
      </trkpt>
      <trkpt lat="44.09078" lon="7.04783">
        <ele>1282.3</ele>
        <time>2022-06-11T11:22:31Z</time>
      </trkpt>
      <trkpt lat="44.09078" lon="7.04781">
        <ele>1282.3</ele>
        <time>2022-06-11T11:22:32Z</time>
      </trkpt>
      <trkpt lat="44.09078" lon="7.04778">
        <ele>1282.5</ele>
        <time>2022-06-11T11:22:33Z</time>
      </trkpt>
      <trkpt lat="44.09078" lon="7.04775">
        <ele>1282.5</ele>
        <time>2022-06-11T11:22:34Z</time>
      </trkpt>
      <trkpt lat="44.09078" lon="7.04772">
        <ele>1282.5</ele>
        <time>2022-06-11T11:22:35Z</time>
      </trkpt>
      <trkpt lat="44.09078" lon="7.04769">
        <ele>1282.3</ele>
        <time>2022-06-11T11:22:36Z</time>
      </trkpt>
      <trkpt lat="44.09078" lon="7.04766">
        <ele>1282.4</ele>
        <time>2022-06-11T11:22:37Z</time>
      </trkpt>
      <trkpt lat="44.09078" lon="7.04763">
        <ele>1282.4</ele>
        <time>2022-06-11T11:22:38Z</time>
      </trkpt>
      <trkpt lat="44.09078" lon="7.0476">
        <ele>1282.3</ele>
        <time>2022-06-11T11:22:39Z</time>
      </trkpt>
      <trkpt lat="44.09078" lon="7.04757">
        <ele>1282.3</ele>
        <time>2022-06-11T11:22:40Z</time>
      </trkpt>
      <trkpt lat="44.09078" lon="7.04754">
        <ele>1282.2</ele>
        <time>2022-06-11T11:22:41Z</time>
      </trkpt>
      <trkpt lat="44.09078" lon="7.04751">
        <ele>1282.1</ele>
        <time>2022-06-11T11:22:42Z</time>
      </trkpt>
      <trkpt lat="44.09078" lon="7.04748">
        <ele>1282.2</ele>
        <time>2022-06-11T11:22:43Z</time>
      </trkpt>
      <trkpt lat="44.09078" lon="7.04745">
        <ele>1282.1</ele>
        <time>2022-06-11T11:22:44Z</time>
      </trkpt>
      <trkpt lat="44.09078" lon="7.04742">
        <ele>1282.1</ele>
        <time>2022-06-11T11:22:45Z</time>
      </trkpt>
      <trkpt lat="44.09078" lon="7.04739">
        <ele>1282</ele>
        <time>2022-06-11T11:22:46Z</time>
      </trkpt>
      <trkpt lat="44.09078" lon="7.04736">
        <ele>1282</ele>
        <time>2022-06-11T11:22:47Z</time>
      </trkpt>
      <trkpt lat="44.09078" lon="7.04733">
        <ele>1282</ele>
        <time>2022-06-11T11:22:48Z</time>
      </trkpt>
      <trkpt lat="44.09078" lon="7.0473">
        <ele>1282.2</ele>
        <time>2022-06-11T11:22:49Z</time>
      </trkpt>
      <trkpt lat="44.09078" lon="7.04727">
        <ele>1282.1</ele>
        <time>2022-06-11T11:22:50Z</time>
      </trkpt>
      <trkpt lat="44.09079" lon="7.04723">
        <ele>1282.3</ele>
        <time>2022-06-11T11:22:51Z</time>
      </trkpt>
      <trkpt lat="44.09079" lon="7.0472">
        <ele>1282.3</ele>
        <time>2022-06-11T11:22:52Z</time>
      </trkpt>
      <trkpt lat="44.09079" lon="7.04717">
        <ele>1282.4</ele>
        <time>2022-06-11T11:22:53Z</time>
      </trkpt>
      <trkpt lat="44.09079" lon="7.04714">
        <ele>1282.4</ele>
        <time>2022-06-11T11:22:54Z</time>
      </trkpt>
      <trkpt lat="44.09079" lon="7.04711">
        <ele>1282.8</ele>
        <time>2022-06-11T11:22:55Z</time>
      </trkpt>
      <trkpt lat="44.0908" lon="7.04708">
        <ele>1283.2</ele>
        <time>2022-06-11T11:22:56Z</time>
      </trkpt>
      <trkpt lat="44.0908" lon="7.04705">
        <ele>1283.5</ele>
        <time>2022-06-11T11:22:57Z</time>
      </trkpt>
      <trkpt lat="44.0908" lon="7.04702">
        <ele>1283.7</ele>
        <time>2022-06-11T11:22:58Z</time>
      </trkpt>
      <trkpt lat="44.0908" lon="7.04699">
        <ele>1283.8</ele>
        <time>2022-06-11T11:22:59Z</time>
      </trkpt>
      <trkpt lat="44.09081" lon="7.04697">
        <ele>1284</ele>
        <time>2022-06-11T11:23:00Z</time>
      </trkpt>
      <trkpt lat="44.09081" lon="7.04694">
        <ele>1284.1</ele>
        <time>2022-06-11T11:23:01Z</time>
      </trkpt>
      <trkpt lat="44.09081" lon="7.04692">
        <ele>1284.3</ele>
        <time>2022-06-11T11:23:02Z</time>
      </trkpt>
      <trkpt lat="44.09082" lon="7.0469">
        <ele>1284.8</ele>
        <time>2022-06-11T11:23:03Z</time>
      </trkpt>
      <trkpt lat="44.09083" lon="7.04687">
        <ele>1285.5</ele>
        <time>2022-06-11T11:23:04Z</time>
      </trkpt>
      <trkpt lat="44.09084" lon="7.04684">
        <ele>1286.1</ele>
        <time>2022-06-11T11:23:05Z</time>
      </trkpt>
      <trkpt lat="44.09084" lon="7.04681">
        <ele>1286.7</ele>
        <time>2022-06-11T11:23:06Z</time>
      </trkpt>
      <trkpt lat="44.09085" lon="7.04678">
        <ele>1286.9</ele>
        <time>2022-06-11T11:23:07Z</time>
      </trkpt>
      <trkpt lat="44.09085" lon="7.04675">
        <ele>1287</ele>
        <time>2022-06-11T11:23:08Z</time>
      </trkpt>
      <trkpt lat="44.09084" lon="7.04671">
        <ele>1286.7</ele>
        <time>2022-06-11T11:23:09Z</time>
      </trkpt>
      <trkpt lat="44.09084" lon="7.04668">
        <ele>1286.6</ele>
        <time>2022-06-11T11:23:10Z</time>
      </trkpt>
      <trkpt lat="44.09084" lon="7.04665">
        <ele>1286.4</ele>
        <time>2022-06-11T11:23:11Z</time>
      </trkpt>
      <trkpt lat="44.09083" lon="7.04661">
        <ele>1286.2</ele>
        <time>2022-06-11T11:23:12Z</time>
      </trkpt>
      <trkpt lat="44.09083" lon="7.04658">
        <ele>1285.8</ele>
        <time>2022-06-11T11:23:13Z</time>
      </trkpt>
      <trkpt lat="44.09082" lon="7.04655">
        <ele>1285.7</ele>
        <time>2022-06-11T11:23:14Z</time>
      </trkpt>
      <trkpt lat="44.09082" lon="7.04652">
        <ele>1285.2</ele>
        <time>2022-06-11T11:23:15Z</time>
      </trkpt>
      <trkpt lat="44.09081" lon="7.04649">
        <ele>1284.8</ele>
        <time>2022-06-11T11:23:16Z</time>
      </trkpt>
      <trkpt lat="44.09081" lon="7.04646">
        <ele>1284.8</ele>
        <time>2022-06-11T11:23:17Z</time>
      </trkpt>
      <trkpt lat="44.09081" lon="7.04642">
        <ele>1284.9</ele>
        <time>2022-06-11T11:23:18Z</time>
      </trkpt>
      <trkpt lat="44.09081" lon="7.04639">
        <ele>1285</ele>
        <time>2022-06-11T11:23:19Z</time>
      </trkpt>
      <trkpt lat="44.09081" lon="7.04636">
        <ele>1285.1</ele>
        <time>2022-06-11T11:23:20Z</time>
      </trkpt>
      <trkpt lat="44.09081" lon="7.04632">
        <ele>1285.1</ele>
        <time>2022-06-11T11:23:21Z</time>
      </trkpt>
      <trkpt lat="44.09081" lon="7.04629">
        <ele>1285.1</ele>
        <time>2022-06-11T11:23:22Z</time>
      </trkpt>
      <trkpt lat="44.09081" lon="7.04626">
        <ele>1285.1</ele>
        <time>2022-06-11T11:23:23Z</time>
      </trkpt>
      <trkpt lat="44.09081" lon="7.04623">
        <ele>1285.2</ele>
        <time>2022-06-11T11:23:24Z</time>
      </trkpt>
      <trkpt lat="44.09081" lon="7.0462">
        <ele>1285.4</ele>
        <time>2022-06-11T11:23:25Z</time>
      </trkpt>
      <trkpt lat="44.09081" lon="7.04617">
        <ele>1285.5</ele>
        <time>2022-06-11T11:23:26Z</time>
      </trkpt>
      <trkpt lat="44.09082" lon="7.04614">
        <ele>1285.9</ele>
        <time>2022-06-11T11:23:27Z</time>
      </trkpt>
      <trkpt lat="44.09082" lon="7.0461">
        <ele>1286</ele>
        <time>2022-06-11T11:23:28Z</time>
      </trkpt>
      <trkpt lat="44.09082" lon="7.04607">
        <ele>1286.3</ele>
        <time>2022-06-11T11:23:29Z</time>
      </trkpt>
      <trkpt lat="44.09083" lon="7.04604">
        <ele>1286.5</ele>
        <time>2022-06-11T11:23:30Z</time>
      </trkpt>
      <trkpt lat="44.09083" lon="7.046">
        <ele>1286.6</ele>
        <time>2022-06-11T11:23:31Z</time>
      </trkpt>
      <trkpt lat="44.09083" lon="7.04597">
        <ele>1286.7</ele>
        <time>2022-06-11T11:23:32Z</time>
      </trkpt>
      <trkpt lat="44.09084" lon="7.04594">
        <ele>1287.1</ele>
        <time>2022-06-11T11:23:33Z</time>
      </trkpt>
      <trkpt lat="44.09084" lon="7.0459">
        <ele>1287.4</ele>
        <time>2022-06-11T11:23:34Z</time>
      </trkpt>
      <trkpt lat="44.09084" lon="7.04587">
        <ele>1287.6</ele>
        <time>2022-06-11T11:23:35Z</time>
      </trkpt>
      <trkpt lat="44.09085" lon="7.04584">
        <ele>1288.1</ele>
        <time>2022-06-11T11:23:36Z</time>
      </trkpt>
      <trkpt lat="44.09085" lon="7.0458">
        <ele>1288.5</ele>
        <time>2022-06-11T11:23:37Z</time>
      </trkpt>
      <trkpt lat="44.09085" lon="7.04577">
        <ele>1288.6</ele>
        <time>2022-06-11T11:23:38Z</time>
      </trkpt>
      <trkpt lat="44.09085" lon="7.04574">
        <ele>1288.4</ele>
        <time>2022-06-11T11:23:39Z</time>
      </trkpt>
      <trkpt lat="44.09084" lon="7.04571">
        <ele>1288.1</ele>
        <time>2022-06-11T11:23:40Z</time>
      </trkpt>
      <trkpt lat="44.09084" lon="7.04567">
        <ele>1287.8</ele>
        <time>2022-06-11T11:23:41Z</time>
      </trkpt>
      <trkpt lat="44.09083" lon="7.04564">
        <ele>1287.7</ele>
        <time>2022-06-11T11:23:42Z</time>
      </trkpt>
      <trkpt lat="44.09083" lon="7.04561">
        <ele>1287.7</ele>
        <time>2022-06-11T11:23:43Z</time>
      </trkpt>
      <trkpt lat="44.09084" lon="7.04558">
        <ele>1288.1</ele>
        <time>2022-06-11T11:23:44Z</time>
      </trkpt>
      <trkpt lat="44.09085" lon="7.04555">
        <ele>1289</ele>
        <time>2022-06-11T11:23:45Z</time>
      </trkpt>
      <trkpt lat="44.09086" lon="7.04552">
        <ele>1290.1</ele>
        <time>2022-06-11T11:23:46Z</time>
      </trkpt>
      <trkpt lat="44.09088" lon="7.0455">
        <ele>1291.5</ele>
        <time>2022-06-11T11:23:47Z</time>
      </trkpt>
      <trkpt lat="44.09089" lon="7.04549">
        <ele>1292.9</ele>
        <time>2022-06-11T11:23:48Z</time>
      </trkpt>
      <trkpt lat="44.09092" lon="7.04549">
        <ele>1294.6</ele>
        <time>2022-06-11T11:23:49Z</time>
      </trkpt>
      <trkpt lat="44.09093" lon="7.04551">
        <ele>1295.8</ele>
        <time>2022-06-11T11:23:50Z</time>
      </trkpt>
      <trkpt lat="44.09095" lon="7.04554">
        <ele>1297</ele>
        <time>2022-06-11T11:23:51Z</time>
      </trkpt>
      <trkpt lat="44.09096" lon="7.04556">
        <ele>1297.6</ele>
        <time>2022-06-11T11:23:52Z</time>
      </trkpt>
      <trkpt lat="44.09095" lon="7.0456">
        <ele>1297.5</ele>
        <time>2022-06-11T11:23:53Z</time>
      </trkpt>
      <trkpt lat="44.09095" lon="7.04563">
        <ele>1297.2</ele>
        <time>2022-06-11T11:23:54Z</time>
      </trkpt>
      <trkpt lat="44.09094" lon="7.04566">
        <ele>1296.6</ele>
        <time>2022-06-11T11:23:55Z</time>
      </trkpt>
      <trkpt lat="44.09094" lon="7.04569">
        <ele>1296</ele>
        <time>2022-06-11T11:23:56Z</time>
      </trkpt>
      <trkpt lat="44.09093" lon="7.04571">
        <ele>1295.5</ele>
        <time>2022-06-11T11:23:57Z</time>
      </trkpt>
      <trkpt lat="44.09092" lon="7.04574">
        <ele>1294.9</ele>
        <time>2022-06-11T11:23:58Z</time>
      </trkpt>
      <trkpt lat="44.09092" lon="7.04578">
        <ele>1294.4</ele>
        <time>2022-06-11T11:23:59Z</time>
      </trkpt>
      <trkpt lat="44.09091" lon="7.04581">
        <ele>1293.9</ele>
        <time>2022-06-11T11:24:00Z</time>
      </trkpt>
      <trkpt lat="44.09091" lon="7.04585">
        <ele>1293.5</ele>
        <time>2022-06-11T11:24:01Z</time>
      </trkpt>
      <trkpt lat="44.0909" lon="7.04588">
        <ele>1293</ele>
        <time>2022-06-11T11:24:02Z</time>
      </trkpt>
      <trkpt lat="44.0909" lon="7.04592">
        <ele>1292.6</ele>
        <time>2022-06-11T11:24:03Z</time>
      </trkpt>
      <trkpt lat="44.0909" lon="7.04595">
        <ele>1292.4</ele>
        <time>2022-06-11T11:24:04Z</time>
      </trkpt>
      <trkpt lat="44.0909" lon="7.04598">
        <ele>1292.4</ele>
        <time>2022-06-11T11:24:05Z</time>
      </trkpt>
      <trkpt lat="44.0909" lon="7.04602">
        <ele>1292.8</ele>
        <time>2022-06-11T11:24:06Z</time>
      </trkpt>
      <trkpt lat="44.0909" lon="7.04605">
        <ele>1292.8</ele>
        <time>2022-06-11T11:24:07Z</time>
      </trkpt>
      <trkpt lat="44.0909" lon="7.04608">
        <ele>1292.8</ele>
        <time>2022-06-11T11:24:08Z</time>
      </trkpt>
      <trkpt lat="44.09091" lon="7.04612">
        <ele>1293.2</ele>
        <time>2022-06-11T11:24:09Z</time>
      </trkpt>
      <trkpt lat="44.09091" lon="7.04615">
        <ele>1293.2</ele>
        <time>2022-06-11T11:24:10Z</time>
      </trkpt>
      <trkpt lat="44.09091" lon="7.04618">
        <ele>1293.6</ele>
        <time>2022-06-11T11:24:11Z</time>
      </trkpt>
      <trkpt lat="44.09092" lon="7.04621">
        <ele>1294</ele>
        <time>2022-06-11T11:24:12Z</time>
      </trkpt>
      <trkpt lat="44.09092" lon="7.04624">
        <ele>1294.2</ele>
        <time>2022-06-11T11:24:13Z</time>
      </trkpt>
      <trkpt lat="44.09092" lon="7.04627">
        <ele>1294.6</ele>
        <time>2022-06-11T11:24:14Z</time>
      </trkpt>
      <trkpt lat="44.09093" lon="7.0463">
        <ele>1295.1</ele>
        <time>2022-06-11T11:24:15Z</time>
      </trkpt>
      <trkpt lat="44.09094" lon="7.04633">
        <ele>1295.5</ele>
        <time>2022-06-11T11:24:16Z</time>
      </trkpt>
      <trkpt lat="44.09094" lon="7.04636">
        <ele>1295.7</ele>
        <time>2022-06-11T11:24:17Z</time>
      </trkpt>
      <trkpt lat="44.09094" lon="7.04639">
        <ele>1295.9</ele>
        <time>2022-06-11T11:24:18Z</time>
      </trkpt>
      <trkpt lat="44.09095" lon="7.04642">
        <ele>1296.2</ele>
        <time>2022-06-11T11:24:19Z</time>
      </trkpt>
      <trkpt lat="44.09095" lon="7.04645">
        <ele>1296.6</ele>
        <time>2022-06-11T11:24:20Z</time>
      </trkpt>
      <trkpt lat="44.09096" lon="7.04648">
        <ele>1297.1</ele>
        <time>2022-06-11T11:24:21Z</time>
      </trkpt>
      <trkpt lat="44.09097" lon="7.04651">
        <ele>1297.7</ele>
        <time>2022-06-11T11:24:22Z</time>
      </trkpt>
      <trkpt lat="44.09098" lon="7.04654">
        <ele>1298</ele>
        <time>2022-06-11T11:24:23Z</time>
      </trkpt>
      <trkpt lat="44.09099" lon="7.04657">
        <ele>1298.6</ele>
        <time>2022-06-11T11:24:24Z</time>
      </trkpt>
      <trkpt lat="44.091" lon="7.0466">
        <ele>1299.2</ele>
        <time>2022-06-11T11:24:25Z</time>
      </trkpt>
      <trkpt lat="44.091" lon="7.04663">
        <ele>1299.7</ele>
        <time>2022-06-11T11:24:26Z</time>
      </trkpt>
      <trkpt lat="44.09101" lon="7.04666">
        <ele>1300.1</ele>
        <time>2022-06-11T11:24:27Z</time>
      </trkpt>
      <trkpt lat="44.09102" lon="7.04669">
        <ele>1300.6</ele>
        <time>2022-06-11T11:24:28Z</time>
      </trkpt>
      <trkpt lat="44.09103" lon="7.04672">
        <ele>1301.2</ele>
        <time>2022-06-11T11:24:29Z</time>
      </trkpt>
      <trkpt lat="44.09104" lon="7.04675">
        <ele>1301.4</ele>
        <time>2022-06-11T11:24:30Z</time>
      </trkpt>
      <trkpt lat="44.09104" lon="7.04677">
        <ele>1301.7</ele>
        <time>2022-06-11T11:24:31Z</time>
      </trkpt>
      <trkpt lat="44.09105" lon="7.0468">
        <ele>1302.3</ele>
        <time>2022-06-11T11:24:32Z</time>
      </trkpt>
      <trkpt lat="44.09106" lon="7.04683">
        <ele>1302.6</ele>
        <time>2022-06-11T11:24:33Z</time>
      </trkpt>
      <trkpt lat="44.09107" lon="7.04686">
        <ele>1303</ele>
        <time>2022-06-11T11:24:34Z</time>
      </trkpt>
      <trkpt lat="44.09108" lon="7.04688">
        <ele>1303.5</ele>
        <time>2022-06-11T11:24:35Z</time>
      </trkpt>
      <trkpt lat="44.09109" lon="7.04691">
        <ele>1303.8</ele>
        <time>2022-06-11T11:24:36Z</time>
      </trkpt>
      <trkpt lat="44.0911" lon="7.04694">
        <ele>1304.1</ele>
        <time>2022-06-11T11:24:37Z</time>
      </trkpt>
      <trkpt lat="44.0911" lon="7.04697">
        <ele>1304.4</ele>
        <time>2022-06-11T11:24:38Z</time>
      </trkpt>
      <trkpt lat="44.09111" lon="7.04699">
        <ele>1304.7</ele>
        <time>2022-06-11T11:24:39Z</time>
      </trkpt>
      <trkpt lat="44.09112" lon="7.04702">
        <ele>1305</ele>
        <time>2022-06-11T11:24:40Z</time>
      </trkpt>
      <trkpt lat="44.09112" lon="7.04705">
        <ele>1305.4</ele>
        <time>2022-06-11T11:24:41Z</time>
      </trkpt>
      <trkpt lat="44.09113" lon="7.04708">
        <ele>1305.7</ele>
        <time>2022-06-11T11:24:42Z</time>
      </trkpt>
      <trkpt lat="44.09114" lon="7.04711">
        <ele>1306.1</ele>
        <time>2022-06-11T11:24:43Z</time>
      </trkpt>
      <trkpt lat="44.09115" lon="7.04713">
        <ele>1306.4</ele>
        <time>2022-06-11T11:24:44Z</time>
      </trkpt>
      <trkpt lat="44.09115" lon="7.04716">
        <ele>1306.7</ele>
        <time>2022-06-11T11:24:45Z</time>
      </trkpt>
      <trkpt lat="44.09116" lon="7.04719">
        <ele>1306.9</ele>
        <time>2022-06-11T11:24:46Z</time>
      </trkpt>
      <trkpt lat="44.09116" lon="7.04722">
        <ele>1307.1</ele>
        <time>2022-06-11T11:24:47Z</time>
      </trkpt>
      <trkpt lat="44.09117" lon="7.04725">
        <ele>1307.2</ele>
        <time>2022-06-11T11:24:48Z</time>
      </trkpt>
      <trkpt lat="44.09117" lon="7.04728">
        <ele>1307.4</ele>
        <time>2022-06-11T11:24:49Z</time>
      </trkpt>
      <trkpt lat="44.09118" lon="7.04731">
        <ele>1307.6</ele>
        <time>2022-06-11T11:24:50Z</time>
      </trkpt>
      <trkpt lat="44.09119" lon="7.04734">
        <ele>1307.9</ele>
        <time>2022-06-11T11:24:51Z</time>
      </trkpt>
      <trkpt lat="44.0912" lon="7.04737">
        <ele>1308.1</ele>
        <time>2022-06-11T11:24:52Z</time>
      </trkpt>
      <trkpt lat="44.0912" lon="7.0474">
        <ele>1308.4</ele>
        <time>2022-06-11T11:24:53Z</time>
      </trkpt>
      <trkpt lat="44.09121" lon="7.04743">
        <ele>1308.6</ele>
        <time>2022-06-11T11:24:54Z</time>
      </trkpt>
      <trkpt lat="44.09122" lon="7.04746">
        <ele>1308.8</ele>
        <time>2022-06-11T11:24:55Z</time>
      </trkpt>
      <trkpt lat="44.09122" lon="7.04749">
        <ele>1308.9</ele>
        <time>2022-06-11T11:24:56Z</time>
      </trkpt>
      <trkpt lat="44.09123" lon="7.04752">
        <ele>1309.1</ele>
        <time>2022-06-11T11:24:57Z</time>
      </trkpt>
      <trkpt lat="44.09124" lon="7.04754">
        <ele>1309.3</ele>
        <time>2022-06-11T11:24:58Z</time>
      </trkpt>
      <trkpt lat="44.09125" lon="7.04757">
        <ele>1309.5</ele>
        <time>2022-06-11T11:24:59Z</time>
      </trkpt>
      <trkpt lat="44.09126" lon="7.0476">
        <ele>1309.8</ele>
        <time>2022-06-11T11:25:00Z</time>
      </trkpt>
      <trkpt lat="44.09127" lon="7.04762">
        <ele>1310</ele>
        <time>2022-06-11T11:25:01Z</time>
      </trkpt>
      <trkpt lat="44.09128" lon="7.04765">
        <ele>1310.3</ele>
        <time>2022-06-11T11:25:02Z</time>
      </trkpt>
      <trkpt lat="44.09129" lon="7.04768">
        <ele>1310.6</ele>
        <time>2022-06-11T11:25:03Z</time>
      </trkpt>
      <trkpt lat="44.0913" lon="7.04771">
        <ele>1310.8</ele>
        <time>2022-06-11T11:25:04Z</time>
      </trkpt>
      <trkpt lat="44.0913" lon="7.04774">
        <ele>1310.9</ele>
        <time>2022-06-11T11:25:05Z</time>
      </trkpt>
      <trkpt lat="44.09131" lon="7.04776">
        <ele>1311.1</ele>
        <time>2022-06-11T11:25:06Z</time>
      </trkpt>
      <trkpt lat="44.09132" lon="7.04779">
        <ele>1311.2</ele>
        <time>2022-06-11T11:25:07Z</time>
      </trkpt>
      <trkpt lat="44.09133" lon="7.04782">
        <ele>1311.5</ele>
        <time>2022-06-11T11:25:08Z</time>
      </trkpt>
      <trkpt lat="44.09134" lon="7.04784">
        <ele>1311.8</ele>
        <time>2022-06-11T11:25:09Z</time>
      </trkpt>
      <trkpt lat="44.09136" lon="7.04787">
        <ele>1312.2</ele>
        <time>2022-06-11T11:25:10Z</time>
      </trkpt>
      <trkpt lat="44.09137" lon="7.0479">
        <ele>1312.4</ele>
        <time>2022-06-11T11:25:11Z</time>
      </trkpt>
      <trkpt lat="44.09138" lon="7.04792">
        <ele>1312.7</ele>
        <time>2022-06-11T11:25:12Z</time>
      </trkpt>
      <trkpt lat="44.09138" lon="7.04795">
        <ele>1312.8</ele>
        <time>2022-06-11T11:25:13Z</time>
      </trkpt>
      <trkpt lat="44.09139" lon="7.04798">
        <ele>1313.1</ele>
        <time>2022-06-11T11:25:14Z</time>
      </trkpt>
      <trkpt lat="44.09141" lon="7.048">
        <ele>1313.5</ele>
        <time>2022-06-11T11:25:15Z</time>
      </trkpt>
      <trkpt lat="44.09142" lon="7.04803">
        <ele>1313.7</ele>
        <time>2022-06-11T11:25:16Z</time>
      </trkpt>
      <trkpt lat="44.09142" lon="7.04806">
        <ele>1313.7</ele>
        <time>2022-06-11T11:25:17Z</time>
      </trkpt>
      <trkpt lat="44.09143" lon="7.04809">
        <ele>1313.7</ele>
        <time>2022-06-11T11:25:18Z</time>
      </trkpt>
      <trkpt lat="44.09144" lon="7.04811">
        <ele>1313.8</ele>
        <time>2022-06-11T11:25:19Z</time>
      </trkpt>
      <trkpt lat="44.09145" lon="7.04814">
        <ele>1314</ele>
        <time>2022-06-11T11:25:20Z</time>
      </trkpt>
      <trkpt lat="44.09146" lon="7.04817">
        <ele>1314.2</ele>
        <time>2022-06-11T11:25:21Z</time>
      </trkpt>
      <trkpt lat="44.09147" lon="7.04819">
        <ele>1314.5</ele>
        <time>2022-06-11T11:25:22Z</time>
      </trkpt>
      <trkpt lat="44.09148" lon="7.04822">
        <ele>1314.7</ele>
        <time>2022-06-11T11:25:23Z</time>
      </trkpt>
      <trkpt lat="44.09149" lon="7.04825">
        <ele>1314.9</ele>
        <time>2022-06-11T11:25:24Z</time>
      </trkpt>
      <trkpt lat="44.09151" lon="7.04827">
        <ele>1315.2</ele>
        <time>2022-06-11T11:25:25Z</time>
      </trkpt>
      <trkpt lat="44.09152" lon="7.0483">
        <ele>1315.3</ele>
        <time>2022-06-11T11:25:26Z</time>
      </trkpt>
      <trkpt lat="44.09153" lon="7.04832">
        <ele>1315.5</ele>
        <time>2022-06-11T11:25:27Z</time>
      </trkpt>
      <trkpt lat="44.09153" lon="7.04835">
        <ele>1315.5</ele>
        <time>2022-06-11T11:25:28Z</time>
      </trkpt>
      <trkpt lat="44.09154" lon="7.04838">
        <ele>1315.5</ele>
        <time>2022-06-11T11:25:29Z</time>
      </trkpt>
      <trkpt lat="44.09155" lon="7.04841">
        <ele>1315.5</ele>
        <time>2022-06-11T11:25:30Z</time>
      </trkpt>
      <trkpt lat="44.09156" lon="7.04844">
        <ele>1315.7</ele>
        <time>2022-06-11T11:25:31Z</time>
      </trkpt>
      <trkpt lat="44.09157" lon="7.04846">
        <ele>1315.8</ele>
        <time>2022-06-11T11:25:32Z</time>
      </trkpt>
      <trkpt lat="44.09158" lon="7.04849">
        <ele>1315.9</ele>
        <time>2022-06-11T11:25:33Z</time>
      </trkpt>
      <trkpt lat="44.09159" lon="7.04852">
        <ele>1316.1</ele>
        <time>2022-06-11T11:25:34Z</time>
      </trkpt>
      <trkpt lat="44.0916" lon="7.04855">
        <ele>1316.2</ele>
        <time>2022-06-11T11:25:35Z</time>
      </trkpt>
      <trkpt lat="44.09161" lon="7.04858">
        <ele>1316.4</ele>
        <time>2022-06-11T11:25:36Z</time>
      </trkpt>
      <trkpt lat="44.09162" lon="7.0486">
        <ele>1316.5</ele>
        <time>2022-06-11T11:25:37Z</time>
      </trkpt>
      <trkpt lat="44.09163" lon="7.04863">
        <ele>1316.6</ele>
        <time>2022-06-11T11:25:38Z</time>
      </trkpt>
      <trkpt lat="44.09164" lon="7.04866">
        <ele>1316.6</ele>
        <time>2022-06-11T11:25:39Z</time>
      </trkpt>
      <trkpt lat="44.09164" lon="7.04869">
        <ele>1316.4</ele>
        <time>2022-06-11T11:25:40Z</time>
      </trkpt>
      <trkpt lat="44.09164" lon="7.04872">
        <ele>1316.1</ele>
        <time>2022-06-11T11:25:41Z</time>
      </trkpt>
      <trkpt lat="44.09165" lon="7.04875">
        <ele>1315.9</ele>
        <time>2022-06-11T11:25:42Z</time>
      </trkpt>
      <trkpt lat="44.09165" lon="7.04878">
        <ele>1315.8</ele>
        <time>2022-06-11T11:25:43Z</time>
      </trkpt>
      <trkpt lat="44.09166" lon="7.04881">
        <ele>1315.8</ele>
        <time>2022-06-11T11:25:44Z</time>
      </trkpt>
      <trkpt lat="44.09167" lon="7.04884">
        <ele>1315.8</ele>
        <time>2022-06-11T11:25:45Z</time>
      </trkpt>
      <trkpt lat="44.09168" lon="7.04887">
        <ele>1315.8</ele>
        <time>2022-06-11T11:25:46Z</time>
      </trkpt>
      <trkpt lat="44.09168" lon="7.0489">
        <ele>1315.7</ele>
        <time>2022-06-11T11:25:47Z</time>
      </trkpt>
      <trkpt lat="44.09169" lon="7.04893">
        <ele>1315.5</ele>
        <time>2022-06-11T11:25:48Z</time>
      </trkpt>
      <trkpt lat="44.0917" lon="7.04896">
        <ele>1315.1</ele>
        <time>2022-06-11T11:25:49Z</time>
      </trkpt>
      <trkpt lat="44.09171" lon="7.04899">
        <ele>1315.1</ele>
        <time>2022-06-11T11:25:50Z</time>
      </trkpt>
      <trkpt lat="44.09172" lon="7.04901">
        <ele>1315.2</ele>
        <time>2022-06-11T11:25:51Z</time>
      </trkpt>
      <trkpt lat="44.09173" lon="7.04903">
        <ele>1315.7</ele>
        <time>2022-06-11T11:25:52Z</time>
      </trkpt>
      <trkpt lat="44.09175" lon="7.04905">
        <ele>1316.4</ele>
        <time>2022-06-11T11:25:53Z</time>
      </trkpt>
      <trkpt lat="44.09177" lon="7.04907">
        <ele>1317.3</ele>
        <time>2022-06-11T11:25:54Z</time>
      </trkpt>
      <trkpt lat="44.09179" lon="7.04907">
        <ele>1318.3</ele>
        <time>2022-06-11T11:25:55Z</time>
      </trkpt>
      <trkpt lat="44.0918" lon="7.04905">
        <ele>1319.3</ele>
        <time>2022-06-11T11:25:56Z</time>
      </trkpt>
      <trkpt lat="44.09182" lon="7.04904">
        <ele>1320.3</ele>
        <time>2022-06-11T11:25:57Z</time>
      </trkpt>
      <trkpt lat="44.09183" lon="7.04903">
        <ele>1321.5</ele>
        <time>2022-06-11T11:25:58Z</time>
      </trkpt>
      <trkpt lat="44.09185" lon="7.04901">
        <ele>1322.6</ele>
        <time>2022-06-11T11:25:59Z</time>
      </trkpt>
      <trkpt lat="44.09186" lon="7.049">
        <ele>1323.5</ele>
        <time>2022-06-11T11:26:00Z</time>
      </trkpt>
      <trkpt lat="44.09186" lon="7.04897">
        <ele>1324.3</ele>
        <time>2022-06-11T11:26:01Z</time>
      </trkpt>
      <trkpt lat="44.09186" lon="7.04893">
        <ele>1324.8</ele>
        <time>2022-06-11T11:26:02Z</time>
      </trkpt>
      <trkpt lat="44.09185" lon="7.0489">
        <ele>1325</ele>
        <time>2022-06-11T11:26:03Z</time>
      </trkpt>
      <trkpt lat="44.09184" lon="7.04886">
        <ele>1324.6</ele>
        <time>2022-06-11T11:26:04Z</time>
      </trkpt>
      <trkpt lat="44.09182" lon="7.04883">
        <ele>1324.5</ele>
        <time>2022-06-11T11:26:05Z</time>
      </trkpt>
      <trkpt lat="44.09181" lon="7.04879">
        <ele>1324.2</ele>
        <time>2022-06-11T11:26:06Z</time>
      </trkpt>
      <trkpt lat="44.0918" lon="7.04876">
        <ele>1324.1</ele>
        <time>2022-06-11T11:26:07Z</time>
      </trkpt>
      <trkpt lat="44.09178" lon="7.04872">
        <ele>1323.9</ele>
        <time>2022-06-11T11:26:08Z</time>
      </trkpt>
      <trkpt lat="44.09177" lon="7.04868">
        <ele>1323.7</ele>
        <time>2022-06-11T11:26:09Z</time>
      </trkpt>
      <trkpt lat="44.09176" lon="7.04865">
        <ele>1323.7</ele>
        <time>2022-06-11T11:26:10Z</time>
      </trkpt>
      <trkpt lat="44.09175" lon="7.04861">
        <ele>1323.6</ele>
        <time>2022-06-11T11:26:11Z</time>
      </trkpt>
      <trkpt lat="44.09174" lon="7.04858">
        <ele>1323.5</ele>
        <time>2022-06-11T11:26:12Z</time>
      </trkpt>
      <trkpt lat="44.09173" lon="7.04854">
        <ele>1323.5</ele>
        <time>2022-06-11T11:26:13Z</time>
      </trkpt>
      <trkpt lat="44.09172" lon="7.04851">
        <ele>1323.5</ele>
        <time>2022-06-11T11:26:14Z</time>
      </trkpt>
      <trkpt lat="44.09171" lon="7.04847">
        <ele>1323.5</ele>
        <time>2022-06-11T11:26:15Z</time>
      </trkpt>
      <trkpt lat="44.0917" lon="7.04844">
        <ele>1323.4</ele>
        <time>2022-06-11T11:26:16Z</time>
      </trkpt>
      <trkpt lat="44.09169" lon="7.04841">
        <ele>1323.3</ele>
        <time>2022-06-11T11:26:17Z</time>
      </trkpt>
      <trkpt lat="44.09168" lon="7.04837">
        <ele>1323.4</ele>
        <time>2022-06-11T11:26:18Z</time>
      </trkpt>
      <trkpt lat="44.09168" lon="7.04834">
        <ele>1323.7</ele>
        <time>2022-06-11T11:26:19Z</time>
      </trkpt>
      <trkpt lat="44.09168" lon="7.0483">
        <ele>1323.9</ele>
        <time>2022-06-11T11:26:20Z</time>
      </trkpt>
      <trkpt lat="44.09167" lon="7.04827">
        <ele>1324.1</ele>
        <time>2022-06-11T11:26:21Z</time>
      </trkpt>
      <trkpt lat="44.09167" lon="7.04823">
        <ele>1324.5</ele>
        <time>2022-06-11T11:26:22Z</time>
      </trkpt>
      <trkpt lat="44.09167" lon="7.0482">
        <ele>1324.9</ele>
        <time>2022-06-11T11:26:23Z</time>
      </trkpt>
      <trkpt lat="44.09167" lon="7.04817">
        <ele>1325.3</ele>
        <time>2022-06-11T11:26:24Z</time>
      </trkpt>
      <trkpt lat="44.09166" lon="7.04813">
        <ele>1325.8</ele>
        <time>2022-06-11T11:26:25Z</time>
      </trkpt>
      <trkpt lat="44.09166" lon="7.0481">
        <ele>1326.1</ele>
        <time>2022-06-11T11:26:26Z</time>
      </trkpt>
      <trkpt lat="44.09166" lon="7.04806">
        <ele>1326.6</ele>
        <time>2022-06-11T11:26:27Z</time>
      </trkpt>
      <trkpt lat="44.09166" lon="7.04803">
        <ele>1326.8</ele>
        <time>2022-06-11T11:26:28Z</time>
      </trkpt>
      <trkpt lat="44.09165" lon="7.048">
        <ele>1326.9</ele>
        <time>2022-06-11T11:26:29Z</time>
      </trkpt>
      <trkpt lat="44.09165" lon="7.04796">
        <ele>1327.1</ele>
        <time>2022-06-11T11:26:30Z</time>
      </trkpt>
      <trkpt lat="44.09165" lon="7.04793">
        <ele>1327.2</ele>
        <time>2022-06-11T11:26:31Z</time>
      </trkpt>
      <trkpt lat="44.09164" lon="7.04789">
        <ele>1327.3</ele>
        <time>2022-06-11T11:26:32Z</time>
      </trkpt>
      <trkpt lat="44.09164" lon="7.04786">
        <ele>1327.4</ele>
        <time>2022-06-11T11:26:33Z</time>
      </trkpt>
      <trkpt lat="44.09163" lon="7.04782">
        <ele>1327.6</ele>
        <time>2022-06-11T11:26:34Z</time>
      </trkpt>
      <trkpt lat="44.09163" lon="7.04779">
        <ele>1327.7</ele>
        <time>2022-06-11T11:26:35Z</time>
      </trkpt>
      <trkpt lat="44.09162" lon="7.04775">
        <ele>1328</ele>
        <time>2022-06-11T11:26:36Z</time>
      </trkpt>
      <trkpt lat="44.09162" lon="7.04772">
        <ele>1328.3</ele>
        <time>2022-06-11T11:26:37Z</time>
      </trkpt>
      <trkpt lat="44.09162" lon="7.04768">
        <ele>1328.6</ele>
        <time>2022-06-11T11:26:38Z</time>
      </trkpt>
      <trkpt lat="44.09161" lon="7.04765">
        <ele>1328.8</ele>
        <time>2022-06-11T11:26:39Z</time>
      </trkpt>
      <trkpt lat="44.09161" lon="7.04761">
        <ele>1329.1</ele>
        <time>2022-06-11T11:26:40Z</time>
      </trkpt>
      <trkpt lat="44.0916" lon="7.04758">
        <ele>1329.5</ele>
        <time>2022-06-11T11:26:41Z</time>
      </trkpt>
      <trkpt lat="44.0916" lon="7.04754">
        <ele>1329.8</ele>
        <time>2022-06-11T11:26:42Z</time>
      </trkpt>
      <trkpt lat="44.0916" lon="7.04751">
        <ele>1330.3</ele>
        <time>2022-06-11T11:26:43Z</time>
      </trkpt>
      <trkpt lat="44.0916" lon="7.04748">
        <ele>1330.4</ele>
        <time>2022-06-11T11:26:44Z</time>
      </trkpt>
      <trkpt lat="44.09159" lon="7.04744">
        <ele>1330.2</ele>
        <time>2022-06-11T11:26:45Z</time>
      </trkpt>
      <trkpt lat="44.09158" lon="7.04741">
        <ele>1330</ele>
        <time>2022-06-11T11:26:46Z</time>
      </trkpt>
      <trkpt lat="44.09157" lon="7.04738">
        <ele>1329.7</ele>
        <time>2022-06-11T11:26:47Z</time>
      </trkpt>
      <trkpt lat="44.09156" lon="7.04735">
        <ele>1329.8</ele>
        <time>2022-06-11T11:26:48Z</time>
      </trkpt>
      <trkpt lat="44.09156" lon="7.04731">
        <ele>1329.9</ele>
        <time>2022-06-11T11:26:49Z</time>
      </trkpt>
      <trkpt lat="44.09156" lon="7.04727">
        <ele>1330.2</ele>
        <time>2022-06-11T11:26:50Z</time>
      </trkpt>
      <trkpt lat="44.09156" lon="7.04724">
        <ele>1330.5</ele>
        <time>2022-06-11T11:26:51Z</time>
      </trkpt>
      <trkpt lat="44.09156" lon="7.0472">
        <ele>1330.8</ele>
        <time>2022-06-11T11:26:52Z</time>
      </trkpt>
      <trkpt lat="44.09156" lon="7.04717">
        <ele>1330.9</ele>
        <time>2022-06-11T11:26:53Z</time>
      </trkpt>
      <trkpt lat="44.09156" lon="7.04714">
        <ele>1331</ele>
        <time>2022-06-11T11:26:54Z</time>
      </trkpt>
      <trkpt lat="44.09156" lon="7.0471">
        <ele>1331</ele>
        <time>2022-06-11T11:26:55Z</time>
      </trkpt>
      <trkpt lat="44.09156" lon="7.04707">
        <ele>1331.1</ele>
        <time>2022-06-11T11:26:56Z</time>
      </trkpt>
      <trkpt lat="44.09156" lon="7.04704">
        <ele>1331.2</ele>
        <time>2022-06-11T11:26:57Z</time>
      </trkpt>
      <trkpt lat="44.09156" lon="7.047">
        <ele>1331.2</ele>
        <time>2022-06-11T11:26:58Z</time>
      </trkpt>
      <trkpt lat="44.09156" lon="7.04697">
        <ele>1331.4</ele>
        <time>2022-06-11T11:26:59Z</time>
      </trkpt>
      <trkpt lat="44.09157" lon="7.04694">
        <ele>1331.6</ele>
        <time>2022-06-11T11:27:00Z</time>
      </trkpt>
      <trkpt lat="44.09157" lon="7.0469">
        <ele>1331.8</ele>
        <time>2022-06-11T11:27:01Z</time>
      </trkpt>
      <trkpt lat="44.09157" lon="7.04687">
        <ele>1332</ele>
        <time>2022-06-11T11:27:02Z</time>
      </trkpt>
      <trkpt lat="44.09157" lon="7.04684">
        <ele>1332.3</ele>
        <time>2022-06-11T11:27:03Z</time>
      </trkpt>
      <trkpt lat="44.09157" lon="7.04681">
        <ele>1332.6</ele>
        <time>2022-06-11T11:27:04Z</time>
      </trkpt>
      <trkpt lat="44.09157" lon="7.04678">
        <ele>1333</ele>
        <time>2022-06-11T11:27:05Z</time>
      </trkpt>
      <trkpt lat="44.09158" lon="7.04675">
        <ele>1333.5</ele>
        <time>2022-06-11T11:27:06Z</time>
      </trkpt>
      <trkpt lat="44.09158" lon="7.04672">
        <ele>1334</ele>
        <time>2022-06-11T11:27:07Z</time>
      </trkpt>
      <trkpt lat="44.09158" lon="7.04668">
        <ele>1334.4</ele>
        <time>2022-06-11T11:27:08Z</time>
      </trkpt>
      <trkpt lat="44.09159" lon="7.04665">
        <ele>1334.7</ele>
        <time>2022-06-11T11:27:09Z</time>
      </trkpt>
      <trkpt lat="44.09159" lon="7.04662">
        <ele>1335.1</ele>
        <time>2022-06-11T11:27:10Z</time>
      </trkpt>
      <trkpt lat="44.09159" lon="7.04658">
        <ele>1335.5</ele>
        <time>2022-06-11T11:27:11Z</time>
      </trkpt>
      <trkpt lat="44.0916" lon="7.04655">
        <ele>1335.9</ele>
        <time>2022-06-11T11:27:12Z</time>
      </trkpt>
      <trkpt lat="44.0916" lon="7.04652">
        <ele>1336.2</ele>
        <time>2022-06-11T11:27:13Z</time>
      </trkpt>
      <trkpt lat="44.0916" lon="7.04649">
        <ele>1336.4</ele>
        <time>2022-06-11T11:27:14Z</time>
      </trkpt>
      <trkpt lat="44.09159" lon="7.04645">
        <ele>1336.5</ele>
        <time>2022-06-11T11:27:15Z</time>
      </trkpt>
      <trkpt lat="44.09159" lon="7.04642">
        <ele>1336.7</ele>
        <time>2022-06-11T11:27:16Z</time>
      </trkpt>
      <trkpt lat="44.09159" lon="7.04639">
        <ele>1336.9</ele>
        <time>2022-06-11T11:27:17Z</time>
      </trkpt>
      <trkpt lat="44.09159" lon="7.04636">
        <ele>1336.9</ele>
        <time>2022-06-11T11:27:18Z</time>
      </trkpt>
      <trkpt lat="44.09159" lon="7.04632">
        <ele>1337</ele>
        <time>2022-06-11T11:27:19Z</time>
      </trkpt>
      <trkpt lat="44.09159" lon="7.04629">
        <ele>1337.2</ele>
        <time>2022-06-11T11:27:20Z</time>
      </trkpt>
      <trkpt lat="44.09159" lon="7.04626">
        <ele>1337.4</ele>
        <time>2022-06-11T11:27:21Z</time>
      </trkpt>
      <trkpt lat="44.0916" lon="7.04623">
        <ele>1337.6</ele>
        <time>2022-06-11T11:27:22Z</time>
      </trkpt>
      <trkpt lat="44.09159" lon="7.04619">
        <ele>1337.5</ele>
        <time>2022-06-11T11:27:23Z</time>
      </trkpt>
      <trkpt lat="44.09159" lon="7.04616">
        <ele>1337.6</ele>
        <time>2022-06-11T11:27:24Z</time>
      </trkpt>
      <trkpt lat="44.09159" lon="7.04613">
        <ele>1337.6</ele>
        <time>2022-06-11T11:27:25Z</time>
      </trkpt>
      <trkpt lat="44.09159" lon="7.0461">
        <ele>1337.5</ele>
        <time>2022-06-11T11:27:26Z</time>
      </trkpt>
      <trkpt lat="44.09159" lon="7.04607">
        <ele>1337.5</ele>
        <time>2022-06-11T11:27:27Z</time>
      </trkpt>
      <trkpt lat="44.09159" lon="7.04604">
        <ele>1337.6</ele>
        <time>2022-06-11T11:27:28Z</time>
      </trkpt>
      <trkpt lat="44.0916" lon="7.04601">
        <ele>1337.6</ele>
        <time>2022-06-11T11:27:29Z</time>
      </trkpt>
      <trkpt lat="44.0916" lon="7.04598">
        <ele>1337.8</ele>
        <time>2022-06-11T11:27:30Z</time>
      </trkpt>
      <trkpt lat="44.0916" lon="7.04594">
        <ele>1337.9</ele>
        <time>2022-06-11T11:27:31Z</time>
      </trkpt>
      <trkpt lat="44.09161" lon="7.04591">
        <ele>1337.9</ele>
        <time>2022-06-11T11:27:32Z</time>
      </trkpt>
      <trkpt lat="44.09161" lon="7.04588">
        <ele>1338</ele>
        <time>2022-06-11T11:27:33Z</time>
      </trkpt>
      <trkpt lat="44.09161" lon="7.04585">
        <ele>1338</ele>
        <time>2022-06-11T11:27:34Z</time>
      </trkpt>
      <trkpt lat="44.09162" lon="7.04582">
        <ele>1338.3</ele>
        <time>2022-06-11T11:27:35Z</time>
      </trkpt>
      <trkpt lat="44.09162" lon="7.04579">
        <ele>1338.7</ele>
        <time>2022-06-11T11:27:36Z</time>
      </trkpt>
      <trkpt lat="44.09162" lon="7.04575">
        <ele>1338.9</ele>
        <time>2022-06-11T11:27:37Z</time>
      </trkpt>
      <trkpt lat="44.09163" lon="7.04572">
        <ele>1339.1</ele>
        <time>2022-06-11T11:27:38Z</time>
      </trkpt>
      <trkpt lat="44.09163" lon="7.04569">
        <ele>1339.4</ele>
        <time>2022-06-11T11:27:39Z</time>
      </trkpt>
      <trkpt lat="44.09163" lon="7.04566">
        <ele>1339.6</ele>
        <time>2022-06-11T11:27:40Z</time>
      </trkpt>
      <trkpt lat="44.09163" lon="7.04563">
        <ele>1339.8</ele>
        <time>2022-06-11T11:27:41Z</time>
      </trkpt>
      <trkpt lat="44.09164" lon="7.04559">
        <ele>1340.1</ele>
        <time>2022-06-11T11:27:42Z</time>
      </trkpt>
      <trkpt lat="44.09164" lon="7.04556">
        <ele>1340.2</ele>
        <time>2022-06-11T11:27:43Z</time>
      </trkpt>
      <trkpt lat="44.09164" lon="7.04553">
        <ele>1340.4</ele>
        <time>2022-06-11T11:27:44Z</time>
      </trkpt>
      <trkpt lat="44.09164" lon="7.04549">
        <ele>1340.6</ele>
        <time>2022-06-11T11:27:45Z</time>
      </trkpt>
      <trkpt lat="44.09164" lon="7.04546">
        <ele>1340.9</ele>
        <time>2022-06-11T11:27:46Z</time>
      </trkpt>
      <trkpt lat="44.09165" lon="7.04543">
        <ele>1341.3</ele>
        <time>2022-06-11T11:27:47Z</time>
      </trkpt>
      <trkpt lat="44.09165" lon="7.0454">
        <ele>1341.7</ele>
        <time>2022-06-11T11:27:48Z</time>
      </trkpt>
      <trkpt lat="44.09165" lon="7.04537">
        <ele>1341.8</ele>
        <time>2022-06-11T11:27:49Z</time>
      </trkpt>
      <trkpt lat="44.09165" lon="7.04534">
        <ele>1341.9</ele>
        <time>2022-06-11T11:27:50Z</time>
      </trkpt>
      <trkpt lat="44.09165" lon="7.04531">
        <ele>1342</ele>
        <time>2022-06-11T11:27:51Z</time>
      </trkpt>
      <trkpt lat="44.09165" lon="7.04527">
        <ele>1341.9</ele>
        <time>2022-06-11T11:27:52Z</time>
      </trkpt>
      <trkpt lat="44.09165" lon="7.04524">
        <ele>1342.1</ele>
        <time>2022-06-11T11:27:53Z</time>
      </trkpt>
      <trkpt lat="44.09164" lon="7.04521">
        <ele>1342.2</ele>
        <time>2022-06-11T11:27:54Z</time>
      </trkpt>
      <trkpt lat="44.09164" lon="7.04518">
        <ele>1342.4</ele>
        <time>2022-06-11T11:27:55Z</time>
      </trkpt>
      <trkpt lat="44.09164" lon="7.04514">
        <ele>1342.6</ele>
        <time>2022-06-11T11:27:56Z</time>
      </trkpt>
      <trkpt lat="44.09164" lon="7.04511">
        <ele>1342.9</ele>
        <time>2022-06-11T11:27:57Z</time>
      </trkpt>
      <trkpt lat="44.09165" lon="7.04508">
        <ele>1343.3</ele>
        <time>2022-06-11T11:27:58Z</time>
      </trkpt>
      <trkpt lat="44.09165" lon="7.04505">
        <ele>1343.8</ele>
        <time>2022-06-11T11:27:59Z</time>
      </trkpt>
      <trkpt lat="44.09166" lon="7.04502">
        <ele>1344.2</ele>
        <time>2022-06-11T11:28:00Z</time>
      </trkpt>
      <trkpt lat="44.09166" lon="7.04499">
        <ele>1344.5</ele>
        <time>2022-06-11T11:28:01Z</time>
      </trkpt>
      <trkpt lat="44.09166" lon="7.04496">
        <ele>1344.7</ele>
        <time>2022-06-11T11:28:02Z</time>
      </trkpt>
      <trkpt lat="44.09167" lon="7.04492">
        <ele>1344.9</ele>
        <time>2022-06-11T11:28:03Z</time>
      </trkpt>
      <trkpt lat="44.09167" lon="7.04489">
        <ele>1344.9</ele>
        <time>2022-06-11T11:28:04Z</time>
      </trkpt>
      <trkpt lat="44.09167" lon="7.04486">
        <ele>1345</ele>
        <time>2022-06-11T11:28:05Z</time>
      </trkpt>
      <trkpt lat="44.09167" lon="7.04482">
        <ele>1345</ele>
        <time>2022-06-11T11:28:06Z</time>
      </trkpt>
      <trkpt lat="44.09167" lon="7.04479">
        <ele>1345.1</ele>
        <time>2022-06-11T11:28:07Z</time>
      </trkpt>
      <trkpt lat="44.09167" lon="7.04475">
        <ele>1345.2</ele>
        <time>2022-06-11T11:28:08Z</time>
      </trkpt>
      <trkpt lat="44.09167" lon="7.04472">
        <ele>1345.2</ele>
        <time>2022-06-11T11:28:09Z</time>
      </trkpt>
      <trkpt lat="44.09167" lon="7.04469">
        <ele>1345.2</ele>
        <time>2022-06-11T11:28:10Z</time>
      </trkpt>
      <trkpt lat="44.09167" lon="7.04466">
        <ele>1345.1</ele>
        <time>2022-06-11T11:28:11Z</time>
      </trkpt>
      <trkpt lat="44.09167" lon="7.04462">
        <ele>1345.1</ele>
        <time>2022-06-11T11:28:12Z</time>
      </trkpt>
      <trkpt lat="44.09167" lon="7.04459">
        <ele>1345.1</ele>
        <time>2022-06-11T11:28:13Z</time>
      </trkpt>
      <trkpt lat="44.09167" lon="7.04456">
        <ele>1345.1</ele>
        <time>2022-06-11T11:28:14Z</time>
      </trkpt>
      <trkpt lat="44.09167" lon="7.04452">
        <ele>1345.1</ele>
        <time>2022-06-11T11:28:15Z</time>
      </trkpt>
      <trkpt lat="44.09167" lon="7.04449">
        <ele>1345.2</ele>
        <time>2022-06-11T11:28:16Z</time>
      </trkpt>
      <trkpt lat="44.09167" lon="7.04446">
        <ele>1345.3</ele>
        <time>2022-06-11T11:28:17Z</time>
      </trkpt>
      <trkpt lat="44.09167" lon="7.04442">
        <ele>1345.4</ele>
        <time>2022-06-11T11:28:18Z</time>
      </trkpt>
      <trkpt lat="44.09168" lon="7.04439">
        <ele>1345.6</ele>
        <time>2022-06-11T11:28:19Z</time>
      </trkpt>
      <trkpt lat="44.09168" lon="7.04436">
        <ele>1345.8</ele>
        <time>2022-06-11T11:28:20Z</time>
      </trkpt>
      <trkpt lat="44.09168" lon="7.04433">
        <ele>1346</ele>
        <time>2022-06-11T11:28:21Z</time>
      </trkpt>
      <trkpt lat="44.09169" lon="7.0443">
        <ele>1346.2</ele>
        <time>2022-06-11T11:28:22Z</time>
      </trkpt>
      <trkpt lat="44.09169" lon="7.04427">
        <ele>1346.3</ele>
        <time>2022-06-11T11:28:23Z</time>
      </trkpt>
      <trkpt lat="44.09169" lon="7.04423">
        <ele>1346.3</ele>
        <time>2022-06-11T11:28:24Z</time>
      </trkpt>
      <trkpt lat="44.09169" lon="7.0442">
        <ele>1346.4</ele>
        <time>2022-06-11T11:28:25Z</time>
      </trkpt>
      <trkpt lat="44.09169" lon="7.04417">
        <ele>1346.5</ele>
        <time>2022-06-11T11:28:26Z</time>
      </trkpt>
      <trkpt lat="44.0917" lon="7.04414">
        <ele>1346.9</ele>
        <time>2022-06-11T11:28:27Z</time>
      </trkpt>
      <trkpt lat="44.09171" lon="7.0441">
        <ele>1347.3</ele>
        <time>2022-06-11T11:28:28Z</time>
      </trkpt>
      <trkpt lat="44.09172" lon="7.04407">
        <ele>1347.6</ele>
        <time>2022-06-11T11:28:29Z</time>
      </trkpt>
      <trkpt lat="44.09173" lon="7.04404">
        <ele>1348</ele>
        <time>2022-06-11T11:28:30Z</time>
      </trkpt>
      <trkpt lat="44.09174" lon="7.04401">
        <ele>1348.4</ele>
        <time>2022-06-11T11:28:31Z</time>
      </trkpt>
      <trkpt lat="44.09175" lon="7.04398">
        <ele>1348.9</ele>
        <time>2022-06-11T11:28:32Z</time>
      </trkpt>
      <trkpt lat="44.09176" lon="7.04395">
        <ele>1349.3</ele>
        <time>2022-06-11T11:28:33Z</time>
      </trkpt>
      <trkpt lat="44.09176" lon="7.04392">
        <ele>1349.7</ele>
        <time>2022-06-11T11:28:34Z</time>
      </trkpt>
      <trkpt lat="44.09177" lon="7.04389">
        <ele>1350</ele>
        <time>2022-06-11T11:28:35Z</time>
      </trkpt>
      <trkpt lat="44.09178" lon="7.04386">
        <ele>1350.2</ele>
        <time>2022-06-11T11:28:36Z</time>
      </trkpt>
      <trkpt lat="44.09179" lon="7.04383">
        <ele>1350.4</ele>
        <time>2022-06-11T11:28:37Z</time>
      </trkpt>
      <trkpt lat="44.0918" lon="7.0438">
        <ele>1350.7</ele>
        <time>2022-06-11T11:28:38Z</time>
      </trkpt>
      <trkpt lat="44.09181" lon="7.04377">
        <ele>1351</ele>
        <time>2022-06-11T11:28:39Z</time>
      </trkpt>
      <trkpt lat="44.09182" lon="7.04374">
        <ele>1351</ele>
        <time>2022-06-11T11:28:40Z</time>
      </trkpt>
      <trkpt lat="44.09182" lon="7.04371">
        <ele>1351</ele>
        <time>2022-06-11T11:28:41Z</time>
      </trkpt>
      <trkpt lat="44.09183" lon="7.04367">
        <ele>1351.2</ele>
        <time>2022-06-11T11:28:42Z</time>
      </trkpt>
      <trkpt lat="44.09184" lon="7.04365">
        <ele>1351.5</ele>
        <time>2022-06-11T11:28:43Z</time>
      </trkpt>
      <trkpt lat="44.09184" lon="7.04362">
        <ele>1351.7</ele>
        <time>2022-06-11T11:28:44Z</time>
      </trkpt>
      <trkpt lat="44.09185" lon="7.04358">
        <ele>1352</ele>
        <time>2022-06-11T11:28:45Z</time>
      </trkpt>
      <trkpt lat="44.09186" lon="7.04355">
        <ele>1352.1</ele>
        <time>2022-06-11T11:28:46Z</time>
      </trkpt>
      <trkpt lat="44.09186" lon="7.04352">
        <ele>1352.3</ele>
        <time>2022-06-11T11:28:47Z</time>
      </trkpt>
      <trkpt lat="44.09187" lon="7.04349">
        <ele>1352.5</ele>
        <time>2022-06-11T11:28:48Z</time>
      </trkpt>
      <trkpt lat="44.09187" lon="7.04345">
        <ele>1352.7</ele>
        <time>2022-06-11T11:28:49Z</time>
      </trkpt>
      <trkpt lat="44.09188" lon="7.04342">
        <ele>1353</ele>
        <time>2022-06-11T11:28:50Z</time>
      </trkpt>
      <trkpt lat="44.09188" lon="7.04338">
        <ele>1353.2</ele>
        <time>2022-06-11T11:28:51Z</time>
      </trkpt>
      <trkpt lat="44.09189" lon="7.04335">
        <ele>1353.4</ele>
        <time>2022-06-11T11:28:52Z</time>
      </trkpt>
      <trkpt lat="44.09189" lon="7.04332">
        <ele>1353.6</ele>
        <time>2022-06-11T11:28:53Z</time>
      </trkpt>
      <trkpt lat="44.0919" lon="7.04328">
        <ele>1353.6</ele>
        <time>2022-06-11T11:28:54Z</time>
      </trkpt>
      <trkpt lat="44.09191" lon="7.04325">
        <ele>1354</ele>
        <time>2022-06-11T11:28:55Z</time>
      </trkpt>
      <trkpt lat="44.09192" lon="7.04322">
        <ele>1354.6</ele>
        <time>2022-06-11T11:28:56Z</time>
      </trkpt>
      <trkpt lat="44.09193" lon="7.04319">
        <ele>1355</ele>
        <time>2022-06-11T11:28:57Z</time>
      </trkpt>
      <trkpt lat="44.09193" lon="7.04316">
        <ele>1355.3</ele>
        <time>2022-06-11T11:28:58Z</time>
      </trkpt>
      <trkpt lat="44.09194" lon="7.04313">
        <ele>1355.5</ele>
        <time>2022-06-11T11:28:59Z</time>
      </trkpt>
      <trkpt lat="44.09195" lon="7.0431">
        <ele>1355.8</ele>
        <time>2022-06-11T11:29:00Z</time>
      </trkpt>
      <trkpt lat="44.09196" lon="7.04306">
        <ele>1355.8</ele>
        <time>2022-06-11T11:29:01Z</time>
      </trkpt>
      <trkpt lat="44.09196" lon="7.04303">
        <ele>1356</ele>
        <time>2022-06-11T11:29:02Z</time>
      </trkpt>
      <trkpt lat="44.09197" lon="7.043">
        <ele>1356.3</ele>
        <time>2022-06-11T11:29:03Z</time>
      </trkpt>
      <trkpt lat="44.09197" lon="7.04297">
        <ele>1356.6</ele>
        <time>2022-06-11T11:29:04Z</time>
      </trkpt>
      <trkpt lat="44.09198" lon="7.04294">
        <ele>1357.1</ele>
        <time>2022-06-11T11:29:05Z</time>
      </trkpt>
      <trkpt lat="44.09199" lon="7.0429">
        <ele>1357.6</ele>
        <time>2022-06-11T11:29:06Z</time>
      </trkpt>
      <trkpt lat="44.09199" lon="7.04287">
        <ele>1357.8</ele>
        <time>2022-06-11T11:29:07Z</time>
      </trkpt>
      <trkpt lat="44.092" lon="7.04284">
        <ele>1358.1</ele>
        <time>2022-06-11T11:29:08Z</time>
      </trkpt>
      <trkpt lat="44.092" lon="7.0428">
        <ele>1358.3</ele>
        <time>2022-06-11T11:29:09Z</time>
      </trkpt>
      <trkpt lat="44.09201" lon="7.04277">
        <ele>1358.5</ele>
        <time>2022-06-11T11:29:10Z</time>
      </trkpt>
      <trkpt lat="44.09201" lon="7.04274">
        <ele>1358.8</ele>
        <time>2022-06-11T11:29:11Z</time>
      </trkpt>
      <trkpt lat="44.09202" lon="7.0427">
        <ele>1359</ele>
        <time>2022-06-11T11:29:12Z</time>
      </trkpt>
      <trkpt lat="44.09202" lon="7.04267">
        <ele>1359</ele>
        <time>2022-06-11T11:29:13Z</time>
      </trkpt>
      <trkpt lat="44.09202" lon="7.04264">
        <ele>1358.9</ele>
        <time>2022-06-11T11:29:14Z</time>
      </trkpt>
      <trkpt lat="44.09202" lon="7.0426">
        <ele>1358.9</ele>
        <time>2022-06-11T11:29:15Z</time>
      </trkpt>
      <trkpt lat="44.09203" lon="7.04257">
        <ele>1359</ele>
        <time>2022-06-11T11:29:16Z</time>
      </trkpt>
      <trkpt lat="44.09203" lon="7.04254">
        <ele>1359.3</ele>
        <time>2022-06-11T11:29:17Z</time>
      </trkpt>
      <trkpt lat="44.09203" lon="7.0425">
        <ele>1359.2</ele>
        <time>2022-06-11T11:29:18Z</time>
      </trkpt>
      <trkpt lat="44.09203" lon="7.04247">
        <ele>1359.3</ele>
        <time>2022-06-11T11:29:19Z</time>
      </trkpt>
      <trkpt lat="44.09203" lon="7.04244">
        <ele>1359.2</ele>
        <time>2022-06-11T11:29:20Z</time>
      </trkpt>
      <trkpt lat="44.09203" lon="7.0424">
        <ele>1359.1</ele>
        <time>2022-06-11T11:29:21Z</time>
      </trkpt>
      <trkpt lat="44.09203" lon="7.04237">
        <ele>1359.2</ele>
        <time>2022-06-11T11:29:22Z</time>
      </trkpt>
      <trkpt lat="44.09203" lon="7.04234">
        <ele>1359</ele>
        <time>2022-06-11T11:29:23Z</time>
      </trkpt>
      <trkpt lat="44.09203" lon="7.0423">
        <ele>1359</ele>
        <time>2022-06-11T11:29:24Z</time>
      </trkpt>
      <trkpt lat="44.09202" lon="7.04227">
        <ele>1358.7</ele>
        <time>2022-06-11T11:29:25Z</time>
      </trkpt>
      <trkpt lat="44.09202" lon="7.04224">
        <ele>1358.5</ele>
        <time>2022-06-11T11:29:26Z</time>
      </trkpt>
      <trkpt lat="44.09202" lon="7.04221">
        <ele>1358.4</ele>
        <time>2022-06-11T11:29:27Z</time>
      </trkpt>
      <trkpt lat="44.09202" lon="7.04218">
        <ele>1358.4</ele>
        <time>2022-06-11T11:29:28Z</time>
      </trkpt>
      <trkpt lat="44.09201" lon="7.04214">
        <ele>1358.3</ele>
        <time>2022-06-11T11:29:29Z</time>
      </trkpt>
      <trkpt lat="44.09201" lon="7.04211">
        <ele>1358.2</ele>
        <time>2022-06-11T11:29:30Z</time>
      </trkpt>
      <trkpt lat="44.09201" lon="7.04208">
        <ele>1358.2</ele>
        <time>2022-06-11T11:29:31Z</time>
      </trkpt>
      <trkpt lat="44.09201" lon="7.04205">
        <ele>1358.1</ele>
        <time>2022-06-11T11:29:32Z</time>
      </trkpt>
      <trkpt lat="44.09201" lon="7.04201">
        <ele>1358</ele>
        <time>2022-06-11T11:29:33Z</time>
      </trkpt>
      <trkpt lat="44.09201" lon="7.04198">
        <ele>1358</ele>
        <time>2022-06-11T11:29:34Z</time>
      </trkpt>
      <trkpt lat="44.09201" lon="7.04195">
        <ele>1358.1</ele>
        <time>2022-06-11T11:29:35Z</time>
      </trkpt>
      <trkpt lat="44.09201" lon="7.04192">
        <ele>1358.4</ele>
        <time>2022-06-11T11:29:36Z</time>
      </trkpt>
      <trkpt lat="44.09201" lon="7.04189">
        <ele>1358.6</ele>
        <time>2022-06-11T11:29:37Z</time>
      </trkpt>
      <trkpt lat="44.09202" lon="7.04186">
        <ele>1358.8</ele>
        <time>2022-06-11T11:29:38Z</time>
      </trkpt>
      <trkpt lat="44.09202" lon="7.04183">
        <ele>1359.3</ele>
        <time>2022-06-11T11:29:39Z</time>
      </trkpt>
      <trkpt lat="44.09203" lon="7.0418">
        <ele>1359.6</ele>
        <time>2022-06-11T11:29:40Z</time>
      </trkpt>
      <trkpt lat="44.09203" lon="7.04177">
        <ele>1359.9</ele>
        <time>2022-06-11T11:29:41Z</time>
      </trkpt>
      <trkpt lat="44.09204" lon="7.04174">
        <ele>1360.4</ele>
        <time>2022-06-11T11:29:42Z</time>
      </trkpt>
      <trkpt lat="44.09205" lon="7.0417">
        <ele>1360.8</ele>
        <time>2022-06-11T11:29:43Z</time>
      </trkpt>
      <trkpt lat="44.09206" lon="7.04167">
        <ele>1361.4</ele>
        <time>2022-06-11T11:29:44Z</time>
      </trkpt>
      <trkpt lat="44.09206" lon="7.04164">
        <ele>1361.6</ele>
        <time>2022-06-11T11:29:45Z</time>
      </trkpt>
      <trkpt lat="44.09206" lon="7.04161">
        <ele>1361.5</ele>
        <time>2022-06-11T11:29:46Z</time>
      </trkpt>
      <trkpt lat="44.09206" lon="7.04158">
        <ele>1361.4</ele>
        <time>2022-06-11T11:29:47Z</time>
      </trkpt>
      <trkpt lat="44.09206" lon="7.04155">
        <ele>1361.3</ele>
        <time>2022-06-11T11:29:48Z</time>
      </trkpt>
      <trkpt lat="44.09207" lon="7.04151">
        <ele>1361.3</ele>
        <time>2022-06-11T11:29:49Z</time>
      </trkpt>
      <trkpt lat="44.09207" lon="7.04148">
        <ele>1361.3</ele>
        <time>2022-06-11T11:29:50Z</time>
      </trkpt>
      <trkpt lat="44.09207" lon="7.04144">
        <ele>1361.4</ele>
        <time>2022-06-11T11:29:51Z</time>
      </trkpt>
      <trkpt lat="44.09207" lon="7.04141">
        <ele>1361</ele>
        <time>2022-06-11T11:29:52Z</time>
      </trkpt>
      <trkpt lat="44.09207" lon="7.04138">
        <ele>1360.9</ele>
        <time>2022-06-11T11:29:53Z</time>
      </trkpt>
      <trkpt lat="44.09207" lon="7.04134">
        <ele>1361</ele>
        <time>2022-06-11T11:29:54Z</time>
      </trkpt>
      <trkpt lat="44.09208" lon="7.04131">
        <ele>1361.1</ele>
        <time>2022-06-11T11:29:55Z</time>
      </trkpt>
      <trkpt lat="44.09208" lon="7.04128">
        <ele>1361.1</ele>
        <time>2022-06-11T11:29:56Z</time>
      </trkpt>
      <trkpt lat="44.09208" lon="7.04125">
        <ele>1361</ele>
        <time>2022-06-11T11:29:57Z</time>
      </trkpt>
      <trkpt lat="44.09208" lon="7.04121">
        <ele>1360.8</ele>
        <time>2022-06-11T11:29:58Z</time>
      </trkpt>
      <trkpt lat="44.09207" lon="7.04118">
        <ele>1360.4</ele>
        <time>2022-06-11T11:29:59Z</time>
      </trkpt>
      <trkpt lat="44.09207" lon="7.04114">
        <ele>1360.2</ele>
        <time>2022-06-11T11:30:00Z</time>
      </trkpt>
      <trkpt lat="44.09207" lon="7.0411">
        <ele>1360</ele>
        <time>2022-06-11T11:30:01Z</time>
      </trkpt>
      <trkpt lat="44.09207" lon="7.04107">
        <ele>1360</ele>
        <time>2022-06-11T11:30:02Z</time>
      </trkpt>
      <trkpt lat="44.09207" lon="7.04104">
        <ele>1360</ele>
        <time>2022-06-11T11:30:03Z</time>
      </trkpt>
      <trkpt lat="44.09207" lon="7.04101">
        <ele>1360</ele>
        <time>2022-06-11T11:30:04Z</time>
      </trkpt>
      <trkpt lat="44.09207" lon="7.04098">
        <ele>1360.1</ele>
        <time>2022-06-11T11:30:05Z</time>
      </trkpt>
      <trkpt lat="44.09207" lon="7.04094">
        <ele>1360.2</ele>
        <time>2022-06-11T11:30:06Z</time>
      </trkpt>
      <trkpt lat="44.09207" lon="7.04091">
        <ele>1360.4</ele>
        <time>2022-06-11T11:30:07Z</time>
      </trkpt>
      <trkpt lat="44.09208" lon="7.04088">
        <ele>1360.7</ele>
        <time>2022-06-11T11:30:08Z</time>
      </trkpt>
      <trkpt lat="44.09208" lon="7.04085">
        <ele>1360.8</ele>
        <time>2022-06-11T11:30:09Z</time>
      </trkpt>
      <trkpt lat="44.09208" lon="7.04082">
        <ele>1361.1</ele>
        <time>2022-06-11T11:30:10Z</time>
      </trkpt>
      <trkpt lat="44.09209" lon="7.04078">
        <ele>1361.4</ele>
        <time>2022-06-11T11:30:11Z</time>
      </trkpt>
      <trkpt lat="44.09209" lon="7.04075">
        <ele>1361.7</ele>
        <time>2022-06-11T11:30:12Z</time>
      </trkpt>
      <trkpt lat="44.0921" lon="7.04072">
        <ele>1362.2</ele>
        <time>2022-06-11T11:30:13Z</time>
      </trkpt>
      <trkpt lat="44.0921" lon="7.04069">
        <ele>1362.7</ele>
        <time>2022-06-11T11:30:14Z</time>
      </trkpt>
      <trkpt lat="44.09211" lon="7.04066">
        <ele>1363.2</ele>
        <time>2022-06-11T11:30:15Z</time>
      </trkpt>
      <trkpt lat="44.09211" lon="7.04062">
        <ele>1363.5</ele>
        <time>2022-06-11T11:30:16Z</time>
      </trkpt>
      <trkpt lat="44.09211" lon="7.04059">
        <ele>1363.8</ele>
        <time>2022-06-11T11:30:17Z</time>
      </trkpt>
      <trkpt lat="44.09212" lon="7.04056">
        <ele>1364</ele>
        <time>2022-06-11T11:30:18Z</time>
      </trkpt>
      <trkpt lat="44.09212" lon="7.04053">
        <ele>1364.5</ele>
        <time>2022-06-11T11:30:19Z</time>
      </trkpt>
      <trkpt lat="44.09213" lon="7.0405">
        <ele>1364.9</ele>
        <time>2022-06-11T11:30:20Z</time>
      </trkpt>
      <trkpt lat="44.09213" lon="7.04047">
        <ele>1365.2</ele>
        <time>2022-06-11T11:30:21Z</time>
      </trkpt>
      <trkpt lat="44.09213" lon="7.04043">
        <ele>1365.6</ele>
        <time>2022-06-11T11:30:22Z</time>
      </trkpt>
      <trkpt lat="44.09214" lon="7.0404">
        <ele>1366.1</ele>
        <time>2022-06-11T11:30:23Z</time>
      </trkpt>
      <trkpt lat="44.09214" lon="7.04037">
        <ele>1366.6</ele>
        <time>2022-06-11T11:30:24Z</time>
      </trkpt>
      <trkpt lat="44.09215" lon="7.04033">
        <ele>1367.1</ele>
        <time>2022-06-11T11:30:25Z</time>
      </trkpt>
      <trkpt lat="44.09216" lon="7.0403">
        <ele>1367.6</ele>
        <time>2022-06-11T11:30:26Z</time>
      </trkpt>
      <trkpt lat="44.09217" lon="7.04026">
        <ele>1368.2</ele>
        <time>2022-06-11T11:30:27Z</time>
      </trkpt>
      <trkpt lat="44.09218" lon="7.04023">
        <ele>1368.7</ele>
        <time>2022-06-11T11:30:28Z</time>
      </trkpt>
      <trkpt lat="44.09219" lon="7.0402">
        <ele>1369.2</ele>
        <time>2022-06-11T11:30:29Z</time>
      </trkpt>
      <trkpt lat="44.09219" lon="7.04017">
        <ele>1369.6</ele>
        <time>2022-06-11T11:30:30Z</time>
      </trkpt>
      <trkpt lat="44.0922" lon="7.04014">
        <ele>1369.9</ele>
        <time>2022-06-11T11:30:31Z</time>
      </trkpt>
      <trkpt lat="44.09221" lon="7.0401">
        <ele>1370.2</ele>
        <time>2022-06-11T11:30:32Z</time>
      </trkpt>
      <trkpt lat="44.09222" lon="7.04007">
        <ele>1370.6</ele>
        <time>2022-06-11T11:30:33Z</time>
      </trkpt>
      <trkpt lat="44.09222" lon="7.04004">
        <ele>1370.8</ele>
        <time>2022-06-11T11:30:34Z</time>
      </trkpt>
      <trkpt lat="44.09223" lon="7.04001">
        <ele>1371.5</ele>
        <time>2022-06-11T11:30:35Z</time>
      </trkpt>
      <trkpt lat="44.09224" lon="7.03998">
        <ele>1372</ele>
        <time>2022-06-11T11:30:36Z</time>
      </trkpt>
      <trkpt lat="44.09224" lon="7.03995">
        <ele>1372.2</ele>
        <time>2022-06-11T11:30:37Z</time>
      </trkpt>
      <trkpt lat="44.09224" lon="7.03991">
        <ele>1372.4</ele>
        <time>2022-06-11T11:30:38Z</time>
      </trkpt>
      <trkpt lat="44.09224" lon="7.03988">
        <ele>1372.6</ele>
        <time>2022-06-11T11:30:39Z</time>
      </trkpt>
      <trkpt lat="44.09224" lon="7.03984">
        <ele>1372.5</ele>
        <time>2022-06-11T11:30:40Z</time>
      </trkpt>
      <trkpt lat="44.09224" lon="7.0398">
        <ele>1372.5</ele>
        <time>2022-06-11T11:30:41Z</time>
      </trkpt>
      <trkpt lat="44.09223" lon="7.03977">
        <ele>1372.5</ele>
        <time>2022-06-11T11:30:42Z</time>
      </trkpt>
      <trkpt lat="44.09223" lon="7.03974">
        <ele>1372.4</ele>
        <time>2022-06-11T11:30:43Z</time>
      </trkpt>
      <trkpt lat="44.09223" lon="7.03971">
        <ele>1372.6</ele>
        <time>2022-06-11T11:30:44Z</time>
      </trkpt>
      <trkpt lat="44.09224" lon="7.03968">
        <ele>1372.9</ele>
        <time>2022-06-11T11:30:45Z</time>
      </trkpt>
      <trkpt lat="44.09225" lon="7.03965">
        <ele>1373.2</ele>
        <time>2022-06-11T11:30:46Z</time>
      </trkpt>
      <trkpt lat="44.09225" lon="7.03962">
        <ele>1373.3</ele>
        <time>2022-06-11T11:30:47Z</time>
      </trkpt>
      <trkpt lat="44.09226" lon="7.03958">
        <ele>1373.5</ele>
        <time>2022-06-11T11:30:48Z</time>
      </trkpt>
      <trkpt lat="44.09226" lon="7.03955">
        <ele>1373.6</ele>
        <time>2022-06-11T11:30:49Z</time>
      </trkpt>
      <trkpt lat="44.09226" lon="7.03952">
        <ele>1373.4</ele>
        <time>2022-06-11T11:30:50Z</time>
      </trkpt>
      <trkpt lat="44.09225" lon="7.03948">
        <ele>1373</ele>
        <time>2022-06-11T11:30:51Z</time>
      </trkpt>
      <trkpt lat="44.09224" lon="7.03945">
        <ele>1372.5</ele>
        <time>2022-06-11T11:30:52Z</time>
      </trkpt>
      <trkpt lat="44.09222" lon="7.03942">
        <ele>1372.5</ele>
        <time>2022-06-11T11:30:53Z</time>
      </trkpt>
      <trkpt lat="44.09219" lon="7.0394">
        <ele>1373.6</ele>
        <time>2022-06-11T11:30:54Z</time>
      </trkpt>
      <trkpt lat="44.09216" lon="7.03938">
        <ele>1374.7</ele>
        <time>2022-06-11T11:30:55Z</time>
      </trkpt>
      <trkpt lat="44.09213" lon="7.03936">
        <ele>1375.8</ele>
        <time>2022-06-11T11:30:56Z</time>
      </trkpt>
      <trkpt lat="44.0921" lon="7.03936">
        <ele>1376.6</ele>
        <time>2022-06-11T11:30:57Z</time>
      </trkpt>
      <trkpt lat="44.09208" lon="7.03936">
        <ele>1377.4</ele>
        <time>2022-06-11T11:30:58Z</time>
      </trkpt>
      <trkpt lat="44.09205" lon="7.03937">
        <ele>1377.9</ele>
        <time>2022-06-11T11:30:59Z</time>
      </trkpt>
      <trkpt lat="44.09203" lon="7.03939">
        <ele>1378.3</ele>
        <time>2022-06-11T11:31:00Z</time>
      </trkpt>
      <trkpt lat="44.092" lon="7.0394">
        <ele>1378.6</ele>
        <time>2022-06-11T11:31:01Z</time>
      </trkpt>
      <trkpt lat="44.09198" lon="7.03942">
        <ele>1378.7</ele>
        <time>2022-06-11T11:31:02Z</time>
      </trkpt>
      <trkpt lat="44.09196" lon="7.03944">
        <ele>1378.8</ele>
        <time>2022-06-11T11:31:03Z</time>
      </trkpt>
      <trkpt lat="44.09193" lon="7.03946">
        <ele>1379.5</ele>
        <time>2022-06-11T11:31:04Z</time>
      </trkpt>
      <trkpt lat="44.09191" lon="7.03949">
        <ele>1380.1</ele>
        <time>2022-06-11T11:31:05Z</time>
      </trkpt>
      <trkpt lat="44.09189" lon="7.03952">
        <ele>1380.5</ele>
        <time>2022-06-11T11:31:06Z</time>
      </trkpt>
      <trkpt lat="44.09187" lon="7.03956">
        <ele>1380.4</ele>
        <time>2022-06-11T11:31:07Z</time>
      </trkpt>
      <trkpt lat="44.09186" lon="7.03961">
        <ele>1380.3</ele>
        <time>2022-06-11T11:31:08Z</time>
      </trkpt>
      <trkpt lat="44.09184" lon="7.03964">
        <ele>1380.5</ele>
        <time>2022-06-11T11:31:09Z</time>
      </trkpt>
      <trkpt lat="44.09182" lon="7.03968">
        <ele>1380.6</ele>
        <time>2022-06-11T11:31:10Z</time>
      </trkpt>
      <trkpt lat="44.0918" lon="7.03972">
        <ele>1380.8</ele>
        <time>2022-06-11T11:31:11Z</time>
      </trkpt>
      <trkpt lat="44.09179" lon="7.03976">
        <ele>1380.6</ele>
        <time>2022-06-11T11:31:12Z</time>
      </trkpt>
      <trkpt lat="44.09177" lon="7.0398">
        <ele>1380.3</ele>
        <time>2022-06-11T11:31:13Z</time>
      </trkpt>
      <trkpt lat="44.09176" lon="7.03983">
        <ele>1380.1</ele>
        <time>2022-06-11T11:31:14Z</time>
      </trkpt>
      <trkpt lat="44.09174" lon="7.03986">
        <ele>1380</ele>
        <time>2022-06-11T11:31:15Z</time>
      </trkpt>
      <trkpt lat="44.09173" lon="7.0399">
        <ele>1379.6</ele>
        <time>2022-06-11T11:31:16Z</time>
      </trkpt>
      <trkpt lat="44.09173" lon="7.03993">
        <ele>1379.1</ele>
        <time>2022-06-11T11:31:17Z</time>
      </trkpt>
      <trkpt lat="44.09171" lon="7.03996">
        <ele>1378.8</ele>
        <time>2022-06-11T11:31:18Z</time>
      </trkpt>
      <trkpt lat="44.0917" lon="7.03999">
        <ele>1378.6</ele>
        <time>2022-06-11T11:31:19Z</time>
      </trkpt>
      <trkpt lat="44.09169" lon="7.04002">
        <ele>1378.6</ele>
        <time>2022-06-11T11:31:20Z</time>
      </trkpt>
      <trkpt lat="44.09168" lon="7.04005">
        <ele>1378.3</ele>
        <time>2022-06-11T11:31:21Z</time>
      </trkpt>
      <trkpt lat="44.09166" lon="7.04007">
        <ele>1378.2</ele>
        <time>2022-06-11T11:31:22Z</time>
      </trkpt>
      <trkpt lat="44.09165" lon="7.0401">
        <ele>1378.1</ele>
        <time>2022-06-11T11:31:23Z</time>
      </trkpt>
      <trkpt lat="44.09164" lon="7.04013">
        <ele>1378</ele>
        <time>2022-06-11T11:31:24Z</time>
      </trkpt>
      <trkpt lat="44.09163" lon="7.04016">
        <ele>1378</ele>
        <time>2022-06-11T11:31:25Z</time>
      </trkpt>
      <trkpt lat="44.09162" lon="7.04019">
        <ele>1377.9</ele>
        <time>2022-06-11T11:31:26Z</time>
      </trkpt>
      <trkpt lat="44.09161" lon="7.04022">
        <ele>1378</ele>
        <time>2022-06-11T11:31:27Z</time>
      </trkpt>
      <trkpt lat="44.0916" lon="7.04025">
        <ele>1378.1</ele>
        <time>2022-06-11T11:31:28Z</time>
      </trkpt>
      <trkpt lat="44.09159" lon="7.04027">
        <ele>1378.3</ele>
        <time>2022-06-11T11:31:29Z</time>
      </trkpt>
      <trkpt lat="44.09158" lon="7.0403">
        <ele>1378.3</ele>
        <time>2022-06-11T11:31:30Z</time>
      </trkpt>
      <trkpt lat="44.09156" lon="7.04033">
        <ele>1378.4</ele>
        <time>2022-06-11T11:31:31Z</time>
      </trkpt>
      <trkpt lat="44.09155" lon="7.04036">
        <ele>1378.3</ele>
        <time>2022-06-11T11:31:32Z</time>
      </trkpt>
      <trkpt lat="44.09154" lon="7.04039">
        <ele>1378.3</ele>
        <time>2022-06-11T11:31:33Z</time>
      </trkpt>
      <trkpt lat="44.09153" lon="7.04042">
        <ele>1378</ele>
        <time>2022-06-11T11:31:34Z</time>
      </trkpt>
      <trkpt lat="44.09152" lon="7.04044">
        <ele>1378.3</ele>
        <time>2022-06-11T11:31:35Z</time>
      </trkpt>
      <trkpt lat="44.09151" lon="7.04048">
        <ele>1378.1</ele>
        <time>2022-06-11T11:31:36Z</time>
      </trkpt>
      <trkpt lat="44.09151" lon="7.04051">
        <ele>1377.2</ele>
        <time>2022-06-11T11:31:37Z</time>
      </trkpt>
      <trkpt lat="44.0915" lon="7.04054">
        <ele>1377</ele>
        <time>2022-06-11T11:31:38Z</time>
      </trkpt>
      <trkpt lat="44.09149" lon="7.04057">
        <ele>1377.4</ele>
        <time>2022-06-11T11:31:39Z</time>
      </trkpt>
      <trkpt lat="44.09148" lon="7.0406">
        <ele>1377.4</ele>
        <time>2022-06-11T11:31:40Z</time>
      </trkpt>
      <trkpt lat="44.09146" lon="7.04062">
        <ele>1377.8</ele>
        <time>2022-06-11T11:31:41Z</time>
      </trkpt>
      <trkpt lat="44.09145" lon="7.04065">
        <ele>1377.7</ele>
        <time>2022-06-11T11:31:42Z</time>
      </trkpt>
      <trkpt lat="44.09144" lon="7.04068">
        <ele>1377.7</ele>
        <time>2022-06-11T11:31:43Z</time>
      </trkpt>
      <trkpt lat="44.09144" lon="7.04071">
        <ele>1377.5</ele>
        <time>2022-06-11T11:31:44Z</time>
      </trkpt>
      <trkpt lat="44.09143" lon="7.04073">
        <ele>1377.3</ele>
        <time>2022-06-11T11:31:45Z</time>
      </trkpt>
      <trkpt lat="44.09142" lon="7.04076">
        <ele>1377.1</ele>
        <time>2022-06-11T11:31:46Z</time>
      </trkpt>
      <trkpt lat="44.09141" lon="7.04078">
        <ele>1377</ele>
        <time>2022-06-11T11:31:47Z</time>
      </trkpt>
      <trkpt lat="44.0914" lon="7.04082">
        <ele>1376.6</ele>
        <time>2022-06-11T11:31:48Z</time>
      </trkpt>
      <trkpt lat="44.09139" lon="7.04084">
        <ele>1376.7</ele>
        <time>2022-06-11T11:31:49Z</time>
      </trkpt>
      <trkpt lat="44.09138" lon="7.04086">
        <ele>1377</ele>
        <time>2022-06-11T11:31:50Z</time>
      </trkpt>
      <trkpt lat="44.09137" lon="7.04089">
        <ele>1377.4</ele>
        <time>2022-06-11T11:31:51Z</time>
      </trkpt>
      <trkpt lat="44.09136" lon="7.04091">
        <ele>1378</ele>
        <time>2022-06-11T11:31:52Z</time>
      </trkpt>
      <trkpt lat="44.09135" lon="7.04093">
        <ele>1378.3</ele>
        <time>2022-06-11T11:31:53Z</time>
      </trkpt>
      <trkpt lat="44.09133" lon="7.04095">
        <ele>1378.7</ele>
        <time>2022-06-11T11:31:54Z</time>
      </trkpt>
      <trkpt lat="44.09132" lon="7.04098">
        <ele>1379.1</ele>
        <time>2022-06-11T11:31:55Z</time>
      </trkpt>
      <trkpt lat="44.09131" lon="7.041">
        <ele>1379.6</ele>
        <time>2022-06-11T11:31:56Z</time>
      </trkpt>
      <trkpt lat="44.0913" lon="7.04103">
        <ele>1379.7</ele>
        <time>2022-06-11T11:31:57Z</time>
      </trkpt>
      <trkpt lat="44.09128" lon="7.04106">
        <ele>1380.1</ele>
        <time>2022-06-11T11:31:58Z</time>
      </trkpt>
      <trkpt lat="44.09127" lon="7.04108">
        <ele>1380.6</ele>
        <time>2022-06-11T11:31:59Z</time>
      </trkpt>
      <trkpt lat="44.09125" lon="7.04111">
        <ele>1381</ele>
        <time>2022-06-11T11:32:00Z</time>
      </trkpt>
      <trkpt lat="44.09124" lon="7.04114">
        <ele>1381</ele>
        <time>2022-06-11T11:32:01Z</time>
      </trkpt>
      <trkpt lat="44.09123" lon="7.04117">
        <ele>1381.3</ele>
        <time>2022-06-11T11:32:02Z</time>
      </trkpt>
      <trkpt lat="44.09121" lon="7.04119">
        <ele>1381.5</ele>
        <time>2022-06-11T11:32:03Z</time>
      </trkpt>
      <trkpt lat="44.0912" lon="7.04122">
        <ele>1382</ele>
        <time>2022-06-11T11:32:04Z</time>
      </trkpt>
      <trkpt lat="44.09118" lon="7.04124">
        <ele>1382.3</ele>
        <time>2022-06-11T11:32:05Z</time>
      </trkpt>
      <trkpt lat="44.09117" lon="7.04127">
        <ele>1382.3</ele>
        <time>2022-06-11T11:32:06Z</time>
      </trkpt>
      <trkpt lat="44.09116" lon="7.0413">
        <ele>1382.2</ele>
        <time>2022-06-11T11:32:07Z</time>
      </trkpt>
      <trkpt lat="44.09115" lon="7.04133">
        <ele>1382.1</ele>
        <time>2022-06-11T11:32:08Z</time>
      </trkpt>
      <trkpt lat="44.09114" lon="7.04136">
        <ele>1382.3</ele>
        <time>2022-06-11T11:32:09Z</time>
      </trkpt>
      <trkpt lat="44.09112" lon="7.04138">
        <ele>1382.5</ele>
        <time>2022-06-11T11:32:10Z</time>
      </trkpt>
      <trkpt lat="44.09111" lon="7.04141">
        <ele>1382.7</ele>
        <time>2022-06-11T11:32:11Z</time>
      </trkpt>
      <trkpt lat="44.09109" lon="7.04144">
        <ele>1383.1</ele>
        <time>2022-06-11T11:32:12Z</time>
      </trkpt>
      <trkpt lat="44.09108" lon="7.04147">
        <ele>1383.3</ele>
        <time>2022-06-11T11:32:13Z</time>
      </trkpt>
      <trkpt lat="44.09107" lon="7.0415">
        <ele>1383.1</ele>
        <time>2022-06-11T11:32:14Z</time>
      </trkpt>
      <trkpt lat="44.09106" lon="7.04153">
        <ele>1383.1</ele>
        <time>2022-06-11T11:32:15Z</time>
      </trkpt>
      <trkpt lat="44.09104" lon="7.04156">
        <ele>1383.6</ele>
        <time>2022-06-11T11:32:16Z</time>
      </trkpt>
      <trkpt lat="44.09103" lon="7.04159">
        <ele>1383.7</ele>
        <time>2022-06-11T11:32:17Z</time>
      </trkpt>
      <trkpt lat="44.09102" lon="7.04162">
        <ele>1383.7</ele>
        <time>2022-06-11T11:32:18Z</time>
      </trkpt>
      <trkpt lat="44.09101" lon="7.04165">
        <ele>1383.5</ele>
        <time>2022-06-11T11:32:19Z</time>
      </trkpt>
      <trkpt lat="44.091" lon="7.04168">
        <ele>1383.2</ele>
        <time>2022-06-11T11:32:20Z</time>
      </trkpt>
      <trkpt lat="44.09099" lon="7.04171">
        <ele>1383.2</ele>
        <time>2022-06-11T11:32:21Z</time>
      </trkpt>
      <trkpt lat="44.09098" lon="7.04174">
        <ele>1383.3</ele>
        <time>2022-06-11T11:32:22Z</time>
      </trkpt>
      <trkpt lat="44.09097" lon="7.04177">
        <ele>1383.4</ele>
        <time>2022-06-11T11:32:23Z</time>
      </trkpt>
      <trkpt lat="44.09096" lon="7.0418">
        <ele>1383.3</ele>
        <time>2022-06-11T11:32:24Z</time>
      </trkpt>
      <trkpt lat="44.09095" lon="7.04183">
        <ele>1383.2</ele>
        <time>2022-06-11T11:32:25Z</time>
      </trkpt>
      <trkpt lat="44.09093" lon="7.04186">
        <ele>1383.3</ele>
        <time>2022-06-11T11:32:26Z</time>
      </trkpt>
      <trkpt lat="44.09092" lon="7.04189">
        <ele>1383.2</ele>
        <time>2022-06-11T11:32:27Z</time>
      </trkpt>
      <trkpt lat="44.09091" lon="7.04192">
        <ele>1383.1</ele>
        <time>2022-06-11T11:32:28Z</time>
      </trkpt>
      <trkpt lat="44.0909" lon="7.04195">
        <ele>1382.9</ele>
        <time>2022-06-11T11:32:29Z</time>
      </trkpt>
      <trkpt lat="44.09089" lon="7.04197">
        <ele>1383</ele>
        <time>2022-06-11T11:32:30Z</time>
      </trkpt>
      <trkpt lat="44.09088" lon="7.042">
        <ele>1382.9</ele>
        <time>2022-06-11T11:32:31Z</time>
      </trkpt>
      <trkpt lat="44.09087" lon="7.04203">
        <ele>1382.8</ele>
        <time>2022-06-11T11:32:32Z</time>
      </trkpt>
      <trkpt lat="44.09085" lon="7.04205">
        <ele>1383</ele>
        <time>2022-06-11T11:32:33Z</time>
      </trkpt>
      <trkpt lat="44.09083" lon="7.04207">
        <ele>1383.4</ele>
        <time>2022-06-11T11:32:34Z</time>
      </trkpt>
      <trkpt lat="44.09082" lon="7.0421">
        <ele>1383.8</ele>
        <time>2022-06-11T11:32:35Z</time>
      </trkpt>
      <trkpt lat="44.0908" lon="7.04212">
        <ele>1384.1</ele>
        <time>2022-06-11T11:32:36Z</time>
      </trkpt>
      <trkpt lat="44.09078" lon="7.04214">
        <ele>1384.4</ele>
        <time>2022-06-11T11:32:37Z</time>
      </trkpt>
      <trkpt lat="44.09076" lon="7.04216">
        <ele>1385.1</ele>
        <time>2022-06-11T11:32:38Z</time>
      </trkpt>
      <trkpt lat="44.09075" lon="7.04218">
        <ele>1385.5</ele>
        <time>2022-06-11T11:32:39Z</time>
      </trkpt>
      <trkpt lat="44.09073" lon="7.04219">
        <ele>1385.9</ele>
        <time>2022-06-11T11:32:40Z</time>
      </trkpt>
      <trkpt lat="44.09071" lon="7.04221">
        <ele>1386.5</ele>
        <time>2022-06-11T11:32:41Z</time>
      </trkpt>
      <trkpt lat="44.09069" lon="7.04222">
        <ele>1387.3</ele>
        <time>2022-06-11T11:32:42Z</time>
      </trkpt>
      <trkpt lat="44.09068" lon="7.04223">
        <ele>1387.9</ele>
        <time>2022-06-11T11:32:43Z</time>
      </trkpt>
      <trkpt lat="44.09066" lon="7.04224">
        <ele>1388.3</ele>
        <time>2022-06-11T11:32:44Z</time>
      </trkpt>
      <trkpt lat="44.09065" lon="7.04226">
        <ele>1388.7</ele>
        <time>2022-06-11T11:32:45Z</time>
      </trkpt>
      <trkpt lat="44.09063" lon="7.04227">
        <ele>1389.4</ele>
        <time>2022-06-11T11:32:46Z</time>
      </trkpt>
      <trkpt lat="44.09061" lon="7.04229">
        <ele>1390.1</ele>
        <time>2022-06-11T11:32:47Z</time>
      </trkpt>
      <trkpt lat="44.09059" lon="7.04231">
        <ele>1390.7</ele>
        <time>2022-06-11T11:32:48Z</time>
      </trkpt>
      <trkpt lat="44.09057" lon="7.04232">
        <ele>1391.2</ele>
        <time>2022-06-11T11:32:49Z</time>
      </trkpt>
      <trkpt lat="44.09055" lon="7.04233">
        <ele>1392.1</ele>
        <time>2022-06-11T11:32:50Z</time>
      </trkpt>
      <trkpt lat="44.09053" lon="7.04235">
        <ele>1392.7</ele>
        <time>2022-06-11T11:32:51Z</time>
      </trkpt>
      <trkpt lat="44.09051" lon="7.04236">
        <ele>1393.3</ele>
        <time>2022-06-11T11:32:52Z</time>
      </trkpt>
      <trkpt lat="44.09049" lon="7.04237">
        <ele>1394.2</ele>
        <time>2022-06-11T11:32:53Z</time>
      </trkpt>
      <trkpt lat="44.09047" lon="7.04239">
        <ele>1394.7</ele>
        <time>2022-06-11T11:32:54Z</time>
      </trkpt>
      <trkpt lat="44.09045" lon="7.04241">
        <ele>1395.4</ele>
        <time>2022-06-11T11:32:55Z</time>
      </trkpt>
      <trkpt lat="44.09043" lon="7.04242">
        <ele>1395.9</ele>
        <time>2022-06-11T11:32:56Z</time>
      </trkpt>
      <trkpt lat="44.09041" lon="7.04244">
        <ele>1396.3</ele>
        <time>2022-06-11T11:32:57Z</time>
      </trkpt>
      <trkpt lat="44.09039" lon="7.04246">
        <ele>1396.8</ele>
        <time>2022-06-11T11:32:58Z</time>
      </trkpt>
      <trkpt lat="44.09037" lon="7.04248">
        <ele>1397.1</ele>
        <time>2022-06-11T11:32:59Z</time>
      </trkpt>
      <trkpt lat="44.09035" lon="7.0425">
        <ele>1397.8</ele>
        <time>2022-06-11T11:33:00Z</time>
      </trkpt>
      <trkpt lat="44.09033" lon="7.04251">
        <ele>1398.6</ele>
        <time>2022-06-11T11:33:01Z</time>
      </trkpt>
      <trkpt lat="44.09031" lon="7.04253">
        <ele>1399.2</ele>
        <time>2022-06-11T11:33:02Z</time>
      </trkpt>
      <trkpt lat="44.09029" lon="7.04254">
        <ele>1399.6</ele>
        <time>2022-06-11T11:33:03Z</time>
      </trkpt>
      <trkpt lat="44.09028" lon="7.04257">
        <ele>1399.8</ele>
        <time>2022-06-11T11:33:04Z</time>
      </trkpt>
      <trkpt lat="44.09026" lon="7.04259">
        <ele>1399.9</ele>
        <time>2022-06-11T11:33:05Z</time>
      </trkpt>
      <trkpt lat="44.09024" lon="7.0426">
        <ele>1400.5</ele>
        <time>2022-06-11T11:33:06Z</time>
      </trkpt>
      <trkpt lat="44.09022" lon="7.04262">
        <ele>1400.8</ele>
        <time>2022-06-11T11:33:07Z</time>
      </trkpt>
      <trkpt lat="44.09021" lon="7.04264">
        <ele>1401.3</ele>
        <time>2022-06-11T11:33:08Z</time>
      </trkpt>
      <trkpt lat="44.09019" lon="7.04266">
        <ele>1401.3</ele>
        <time>2022-06-11T11:33:09Z</time>
      </trkpt>
      <trkpt lat="44.09018" lon="7.04268">
        <ele>1401.2</ele>
        <time>2022-06-11T11:33:10Z</time>
      </trkpt>
      <trkpt lat="44.09017" lon="7.04271">
        <ele>1400.7</ele>
        <time>2022-06-11T11:33:11Z</time>
      </trkpt>
      <trkpt lat="44.09016" lon="7.04274">
        <ele>1400.4</ele>
        <time>2022-06-11T11:33:12Z</time>
      </trkpt>
      <trkpt lat="44.09014" lon="7.04276">
        <ele>1400.7</ele>
        <time>2022-06-11T11:33:13Z</time>
      </trkpt>
      <trkpt lat="44.09012" lon="7.04278">
        <ele>1400.9</ele>
        <time>2022-06-11T11:33:14Z</time>
      </trkpt>
      <trkpt lat="44.09011" lon="7.04281">
        <ele>1401</ele>
        <time>2022-06-11T11:33:15Z</time>
      </trkpt>
      <trkpt lat="44.09009" lon="7.04283">
        <ele>1401.3</ele>
        <time>2022-06-11T11:33:16Z</time>
      </trkpt>
      <trkpt lat="44.09007" lon="7.04285">
        <ele>1401.5</ele>
        <time>2022-06-11T11:33:17Z</time>
      </trkpt>
      <trkpt lat="44.09006" lon="7.04287">
        <ele>1402</ele>
        <time>2022-06-11T11:33:18Z</time>
      </trkpt>
      <trkpt lat="44.09004" lon="7.04289">
        <ele>1402.2</ele>
        <time>2022-06-11T11:33:19Z</time>
      </trkpt>
      <trkpt lat="44.09002" lon="7.04291">
        <ele>1402.4</ele>
        <time>2022-06-11T11:33:20Z</time>
      </trkpt>
      <trkpt lat="44.09001" lon="7.04294">
        <ele>1402.4</ele>
        <time>2022-06-11T11:33:21Z</time>
      </trkpt>
      <trkpt lat="44.08999" lon="7.04296">
        <ele>1402.6</ele>
        <time>2022-06-11T11:33:22Z</time>
      </trkpt>
      <trkpt lat="44.08998" lon="7.04298">
        <ele>1402.4</ele>
        <time>2022-06-11T11:33:23Z</time>
      </trkpt>
      <trkpt lat="44.08996" lon="7.04301">
        <ele>1402</ele>
        <time>2022-06-11T11:33:24Z</time>
      </trkpt>
      <trkpt lat="44.08995" lon="7.04304">
        <ele>1401.7</ele>
        <time>2022-06-11T11:33:25Z</time>
      </trkpt>
      <trkpt lat="44.08993" lon="7.04307">
        <ele>1401.3</ele>
        <time>2022-06-11T11:33:26Z</time>
      </trkpt>
      <trkpt lat="44.08992" lon="7.0431">
        <ele>1401.1</ele>
        <time>2022-06-11T11:33:27Z</time>
      </trkpt>
      <trkpt lat="44.0899" lon="7.04312">
        <ele>1400.8</ele>
        <time>2022-06-11T11:33:28Z</time>
      </trkpt>
      <trkpt lat="44.08989" lon="7.04315">
        <ele>1400.5</ele>
        <time>2022-06-11T11:33:29Z</time>
      </trkpt>
      <trkpt lat="44.08987" lon="7.04317">
        <ele>1400.3</ele>
        <time>2022-06-11T11:33:30Z</time>
      </trkpt>
      <trkpt lat="44.08985" lon="7.04319">
        <ele>1400.2</ele>
        <time>2022-06-11T11:33:31Z</time>
      </trkpt>
      <trkpt lat="44.08984" lon="7.04321">
        <ele>1400.1</ele>
        <time>2022-06-11T11:33:32Z</time>
      </trkpt>
      <trkpt lat="44.08981" lon="7.04323">
        <ele>1400.2</ele>
        <time>2022-06-11T11:33:33Z</time>
      </trkpt>
      <trkpt lat="44.08979" lon="7.04324">
        <ele>1400.4</ele>
        <time>2022-06-11T11:33:34Z</time>
      </trkpt>
      <trkpt lat="44.08977" lon="7.04326">
        <ele>1400.6</ele>
        <time>2022-06-11T11:33:35Z</time>
      </trkpt>
      <trkpt lat="44.08975" lon="7.04327">
        <ele>1401</ele>
        <time>2022-06-11T11:33:36Z</time>
      </trkpt>
      <trkpt lat="44.08972" lon="7.04327">
        <ele>1401.5</ele>
        <time>2022-06-11T11:33:37Z</time>
      </trkpt>
      <trkpt lat="44.0897" lon="7.04328">
        <ele>1401.3</ele>
        <time>2022-06-11T11:33:38Z</time>
      </trkpt>
      <trkpt lat="44.08967" lon="7.04328">
        <ele>1401.1</ele>
        <time>2022-06-11T11:33:39Z</time>
      </trkpt>
      <trkpt lat="44.08965" lon="7.04328">
        <ele>1401</ele>
        <time>2022-06-11T11:33:40Z</time>
      </trkpt>
      <trkpt lat="44.08962" lon="7.04328">
        <ele>1401.2</ele>
        <time>2022-06-11T11:33:41Z</time>
      </trkpt>
      <trkpt lat="44.0896" lon="7.04327">
        <ele>1401.5</ele>
        <time>2022-06-11T11:33:42Z</time>
      </trkpt>
      <trkpt lat="44.08958" lon="7.04327">
        <ele>1401.7</ele>
        <time>2022-06-11T11:33:43Z</time>
      </trkpt>
      <trkpt lat="44.08956" lon="7.04326">
        <ele>1401.9</ele>
        <time>2022-06-11T11:33:44Z</time>
      </trkpt>
      <trkpt lat="44.08954" lon="7.04325">
        <ele>1402.5</ele>
        <time>2022-06-11T11:33:45Z</time>
      </trkpt>
      <trkpt lat="44.08952" lon="7.04324">
        <ele>1403.2</ele>
        <time>2022-06-11T11:33:46Z</time>
      </trkpt>
      <trkpt lat="44.0895" lon="7.04323">
        <ele>1403.7</ele>
        <time>2022-06-11T11:33:47Z</time>
      </trkpt>
      <trkpt lat="44.08948" lon="7.04321">
        <ele>1404.5</ele>
        <time>2022-06-11T11:33:48Z</time>
      </trkpt>
      <trkpt lat="44.08945" lon="7.0432">
        <ele>1405.3</ele>
        <time>2022-06-11T11:33:49Z</time>
      </trkpt>
      <trkpt lat="44.08943" lon="7.04319">
        <ele>1405.4</ele>
        <time>2022-06-11T11:33:50Z</time>
      </trkpt>
      <trkpt lat="44.08941" lon="7.04318">
        <ele>1405.3</ele>
        <time>2022-06-11T11:33:51Z</time>
      </trkpt>
      <trkpt lat="44.08938" lon="7.04317">
        <ele>1405.2</ele>
        <time>2022-06-11T11:33:52Z</time>
      </trkpt>
      <trkpt lat="44.08936" lon="7.04317">
        <ele>1405.1</ele>
        <time>2022-06-11T11:33:53Z</time>
      </trkpt>
      <trkpt lat="44.08934" lon="7.04316">
        <ele>1405</ele>
        <time>2022-06-11T11:33:54Z</time>
      </trkpt>
      <trkpt lat="44.08932" lon="7.04315">
        <ele>1404.8</ele>
        <time>2022-06-11T11:33:55Z</time>
      </trkpt>
      <trkpt lat="44.0893" lon="7.04315">
        <ele>1404.6</ele>
        <time>2022-06-11T11:33:56Z</time>
      </trkpt>
      <trkpt lat="44.08927" lon="7.04314">
        <ele>1404.5</ele>
        <time>2022-06-11T11:33:57Z</time>
      </trkpt>
      <trkpt lat="44.08925" lon="7.04313">
        <ele>1404.5</ele>
        <time>2022-06-11T11:33:58Z</time>
      </trkpt>
      <trkpt lat="44.08923" lon="7.04312">
        <ele>1404.6</ele>
        <time>2022-06-11T11:33:59Z</time>
      </trkpt>
      <trkpt lat="44.08921" lon="7.04311">
        <ele>1404.6</ele>
        <time>2022-06-11T11:34:00Z</time>
      </trkpt>
      <trkpt lat="44.08919" lon="7.04309">
        <ele>1404.6</ele>
        <time>2022-06-11T11:34:01Z</time>
      </trkpt>
      <trkpt lat="44.08917" lon="7.04308">
        <ele>1404.8</ele>
        <time>2022-06-11T11:34:02Z</time>
      </trkpt>
      <trkpt lat="44.08915" lon="7.04307">
        <ele>1404.7</ele>
        <time>2022-06-11T11:34:03Z</time>
      </trkpt>
      <trkpt lat="44.08913" lon="7.04305">
        <ele>1404.5</ele>
        <time>2022-06-11T11:34:04Z</time>
      </trkpt>
      <trkpt lat="44.0891" lon="7.04304">
        <ele>1404.2</ele>
        <time>2022-06-11T11:34:05Z</time>
      </trkpt>
      <trkpt lat="44.08908" lon="7.04303">
        <ele>1404</ele>
        <time>2022-06-11T11:34:06Z</time>
      </trkpt>
      <trkpt lat="44.08906" lon="7.04301">
        <ele>1403.9</ele>
        <time>2022-06-11T11:34:07Z</time>
      </trkpt>
      <trkpt lat="44.08904" lon="7.04299">
        <ele>1403.9</ele>
        <time>2022-06-11T11:34:08Z</time>
      </trkpt>
      <trkpt lat="44.08902" lon="7.04298">
        <ele>1403.6</ele>
        <time>2022-06-11T11:34:09Z</time>
      </trkpt>
      <trkpt lat="44.089" lon="7.04296">
        <ele>1403.4</ele>
        <time>2022-06-11T11:34:10Z</time>
      </trkpt>
      <trkpt lat="44.08897" lon="7.04295">
        <ele>1403.2</ele>
        <time>2022-06-11T11:34:11Z</time>
      </trkpt>
      <trkpt lat="44.08896" lon="7.04293">
        <ele>1403.4</ele>
        <time>2022-06-11T11:34:12Z</time>
      </trkpt>
      <trkpt lat="44.08894" lon="7.04291">
        <ele>1403.5</ele>
        <time>2022-06-11T11:34:13Z</time>
      </trkpt>
      <trkpt lat="44.08892" lon="7.04289">
        <ele>1403.5</ele>
        <time>2022-06-11T11:34:14Z</time>
      </trkpt>
      <trkpt lat="44.0889" lon="7.04286">
        <ele>1403.8</ele>
        <time>2022-06-11T11:34:15Z</time>
      </trkpt>
      <trkpt lat="44.08888" lon="7.04284">
        <ele>1404.1</ele>
        <time>2022-06-11T11:34:16Z</time>
      </trkpt>
      <trkpt lat="44.08887" lon="7.04282">
        <ele>1404.5</ele>
        <time>2022-06-11T11:34:17Z</time>
      </trkpt>
      <trkpt lat="44.08885" lon="7.04279">
        <ele>1404.9</ele>
        <time>2022-06-11T11:34:18Z</time>
      </trkpt>
      <trkpt lat="44.08883" lon="7.04277">
        <ele>1405.2</ele>
        <time>2022-06-11T11:34:19Z</time>
      </trkpt>
      <trkpt lat="44.08881" lon="7.04274">
        <ele>1405.3</ele>
        <time>2022-06-11T11:34:20Z</time>
      </trkpt>
      <trkpt lat="44.0888" lon="7.04272">
        <ele>1405.3</ele>
        <time>2022-06-11T11:34:21Z</time>
      </trkpt>
      <trkpt lat="44.08878" lon="7.0427">
        <ele>1405.3</ele>
        <time>2022-06-11T11:34:22Z</time>
      </trkpt>
      <trkpt lat="44.08876" lon="7.04268">
        <ele>1405.4</ele>
        <time>2022-06-11T11:34:23Z</time>
      </trkpt>
      <trkpt lat="44.08874" lon="7.04265">
        <ele>1405.4</ele>
        <time>2022-06-11T11:34:24Z</time>
      </trkpt>
      <trkpt lat="44.08873" lon="7.04263">
        <ele>1405.5</ele>
        <time>2022-06-11T11:34:25Z</time>
      </trkpt>
      <trkpt lat="44.08871" lon="7.04261">
        <ele>1405.7</ele>
        <time>2022-06-11T11:34:26Z</time>
      </trkpt>
      <trkpt lat="44.0887" lon="7.04259">
        <ele>1405.6</ele>
        <time>2022-06-11T11:34:27Z</time>
      </trkpt>
      <trkpt lat="44.08869" lon="7.04256">
        <ele>1405.9</ele>
        <time>2022-06-11T11:34:28Z</time>
      </trkpt>
      <trkpt lat="44.08868" lon="7.04253">
        <ele>1406.2</ele>
        <time>2022-06-11T11:34:29Z</time>
      </trkpt>
      <trkpt lat="44.08866" lon="7.04251">
        <ele>1406.5</ele>
        <time>2022-06-11T11:34:30Z</time>
      </trkpt>
      <trkpt lat="44.08865" lon="7.04248">
        <ele>1406.8</ele>
        <time>2022-06-11T11:34:31Z</time>
      </trkpt>
      <trkpt lat="44.08864" lon="7.04245">
        <ele>1407</ele>
        <time>2022-06-11T11:34:32Z</time>
      </trkpt>
      <trkpt lat="44.08863" lon="7.04241">
        <ele>1407.4</ele>
        <time>2022-06-11T11:34:33Z</time>
      </trkpt>
      <trkpt lat="44.08863" lon="7.04238">
        <ele>1407.8</ele>
        <time>2022-06-11T11:34:34Z</time>
      </trkpt>
      <trkpt lat="44.08862" lon="7.04235">
        <ele>1408.2</ele>
        <time>2022-06-11T11:34:35Z</time>
      </trkpt>
      <trkpt lat="44.08861" lon="7.04232">
        <ele>1408.6</ele>
        <time>2022-06-11T11:34:36Z</time>
      </trkpt>
      <trkpt lat="44.0886" lon="7.04229">
        <ele>1409.5</ele>
        <time>2022-06-11T11:34:37Z</time>
      </trkpt>
      <trkpt lat="44.08859" lon="7.04227">
        <ele>1410.5</ele>
        <time>2022-06-11T11:34:38Z</time>
      </trkpt>
      <trkpt lat="44.08858" lon="7.04224">
        <ele>1411.4</ele>
        <time>2022-06-11T11:34:39Z</time>
      </trkpt>
      <trkpt lat="44.08857" lon="7.04222">
        <ele>1412.5</ele>
        <time>2022-06-11T11:34:40Z</time>
      </trkpt>
      <trkpt lat="44.08855" lon="7.04219">
        <ele>1413.8</ele>
        <time>2022-06-11T11:34:41Z</time>
      </trkpt>
      <trkpt lat="44.08853" lon="7.04217">
        <ele>1415.1</ele>
        <time>2022-06-11T11:34:42Z</time>
      </trkpt>
      <trkpt lat="44.0885" lon="7.04216">
        <ele>1416.2</ele>
        <time>2022-06-11T11:34:43Z</time>
      </trkpt>
      <trkpt lat="44.08848" lon="7.04215">
        <ele>1417.2</ele>
        <time>2022-06-11T11:34:44Z</time>
      </trkpt>
      <trkpt lat="44.08846" lon="7.04215">
        <ele>1417.9</ele>
        <time>2022-06-11T11:34:45Z</time>
      </trkpt>
      <trkpt lat="44.08843" lon="7.04215">
        <ele>1418.4</ele>
        <time>2022-06-11T11:34:46Z</time>
      </trkpt>
      <trkpt lat="44.08841" lon="7.04216">
        <ele>1419</ele>
        <time>2022-06-11T11:34:47Z</time>
      </trkpt>
      <trkpt lat="44.08839" lon="7.04217">
        <ele>1419.2</ele>
        <time>2022-06-11T11:34:48Z</time>
      </trkpt>
      <trkpt lat="44.08837" lon="7.04219">
        <ele>1419.2</ele>
        <time>2022-06-11T11:34:49Z</time>
      </trkpt>
      <trkpt lat="44.08835" lon="7.0422">
        <ele>1419.2</ele>
        <time>2022-06-11T11:34:50Z</time>
      </trkpt>
      <trkpt lat="44.08833" lon="7.04222">
        <ele>1419.3</ele>
        <time>2022-06-11T11:34:51Z</time>
      </trkpt>
      <trkpt lat="44.08831" lon="7.04224">
        <ele>1420.2</ele>
        <time>2022-06-11T11:34:52Z</time>
      </trkpt>
      <trkpt lat="44.0883" lon="7.04226">
        <ele>1420.8</ele>
        <time>2022-06-11T11:34:53Z</time>
      </trkpt>
      <trkpt lat="44.08828" lon="7.04228">
        <ele>1421.2</ele>
        <time>2022-06-11T11:34:54Z</time>
      </trkpt>
      <trkpt lat="44.08827" lon="7.0423">
        <ele>1421.7</ele>
        <time>2022-06-11T11:34:55Z</time>
      </trkpt>
      <trkpt lat="44.08826" lon="7.04232">
        <ele>1422.2</ele>
        <time>2022-06-11T11:34:56Z</time>
      </trkpt>
      <trkpt lat="44.08824" lon="7.04235">
        <ele>1422.8</ele>
        <time>2022-06-11T11:34:57Z</time>
      </trkpt>
      <trkpt lat="44.08823" lon="7.04237">
        <ele>1423.3</ele>
        <time>2022-06-11T11:34:58Z</time>
      </trkpt>
      <trkpt lat="44.08821" lon="7.0424">
        <ele>1423.5</ele>
        <time>2022-06-11T11:34:59Z</time>
      </trkpt>
      <trkpt lat="44.0882" lon="7.04243">
        <ele>1423.5</ele>
        <time>2022-06-11T11:35:00Z</time>
      </trkpt>
      <trkpt lat="44.08819" lon="7.04245">
        <ele>1423.9</ele>
        <time>2022-06-11T11:35:01Z</time>
      </trkpt>
      <trkpt lat="44.08818" lon="7.04248">
        <ele>1423.9</ele>
        <time>2022-06-11T11:35:02Z</time>
      </trkpt>
      <trkpt lat="44.08817" lon="7.04252">
        <ele>1424.1</ele>
        <time>2022-06-11T11:35:03Z</time>
      </trkpt>
      <trkpt lat="44.08816" lon="7.04255">
        <ele>1424.4</ele>
        <time>2022-06-11T11:35:04Z</time>
      </trkpt>
      <trkpt lat="44.08815" lon="7.04257">
        <ele>1424.8</ele>
        <time>2022-06-11T11:35:05Z</time>
      </trkpt>
      <trkpt lat="44.08814" lon="7.04261">
        <ele>1424.7</ele>
        <time>2022-06-11T11:35:06Z</time>
      </trkpt>
      <trkpt lat="44.08813" lon="7.04264">
        <ele>1424.9</ele>
        <time>2022-06-11T11:35:07Z</time>
      </trkpt>
      <trkpt lat="44.08812" lon="7.04267">
        <ele>1425.5</ele>
        <time>2022-06-11T11:35:08Z</time>
      </trkpt>
      <trkpt lat="44.0881" lon="7.04269">
        <ele>1426</ele>
        <time>2022-06-11T11:35:09Z</time>
      </trkpt>
      <trkpt lat="44.0881" lon="7.04272">
        <ele>1426</ele>
        <time>2022-06-11T11:35:10Z</time>
      </trkpt>
      <trkpt lat="44.08809" lon="7.04276">
        <ele>1425.9</ele>
        <time>2022-06-11T11:35:11Z</time>
      </trkpt>
      <trkpt lat="44.08808" lon="7.04279">
        <ele>1426.2</ele>
        <time>2022-06-11T11:35:12Z</time>
      </trkpt>
      <trkpt lat="44.08807" lon="7.04282">
        <ele>1426.5</ele>
        <time>2022-06-11T11:35:13Z</time>
      </trkpt>
      <trkpt lat="44.08805" lon="7.04285">
        <ele>1426.9</ele>
        <time>2022-06-11T11:35:14Z</time>
      </trkpt>
      <trkpt lat="44.08804" lon="7.04288">
        <ele>1427.2</ele>
        <time>2022-06-11T11:35:15Z</time>
      </trkpt>
      <trkpt lat="44.08803" lon="7.04291">
        <ele>1427.2</ele>
        <time>2022-06-11T11:35:16Z</time>
      </trkpt>
      <trkpt lat="44.08803" lon="7.04294">
        <ele>1427.2</ele>
        <time>2022-06-11T11:35:17Z</time>
      </trkpt>
      <trkpt lat="44.08802" lon="7.04297">
        <ele>1427.2</ele>
        <time>2022-06-11T11:35:18Z</time>
      </trkpt>
      <trkpt lat="44.08801" lon="7.043">
        <ele>1427.1</ele>
        <time>2022-06-11T11:35:19Z</time>
      </trkpt>
      <trkpt lat="44.08801" lon="7.04303">
        <ele>1426.7</ele>
        <time>2022-06-11T11:35:20Z</time>
      </trkpt>
      <trkpt lat="44.088" lon="7.04306">
        <ele>1426.7</ele>
        <time>2022-06-11T11:35:21Z</time>
      </trkpt>
      <trkpt lat="44.088" lon="7.04309">
        <ele>1426.3</ele>
        <time>2022-06-11T11:35:22Z</time>
      </trkpt>
      <trkpt lat="44.088" lon="7.04313">
        <ele>1425.9</ele>
        <time>2022-06-11T11:35:23Z</time>
      </trkpt>
      <trkpt lat="44.08799" lon="7.04316">
        <ele>1425.6</ele>
        <time>2022-06-11T11:35:24Z</time>
      </trkpt>
      <trkpt lat="44.08799" lon="7.04319">
        <ele>1425.4</ele>
        <time>2022-06-11T11:35:25Z</time>
      </trkpt>
      <trkpt lat="44.08798" lon="7.04322">
        <ele>1425.4</ele>
        <time>2022-06-11T11:35:26Z</time>
      </trkpt>
      <trkpt lat="44.08797" lon="7.04325">
        <ele>1425.3</ele>
        <time>2022-06-11T11:35:27Z</time>
      </trkpt>
      <trkpt lat="44.08796" lon="7.04328">
        <ele>1425.1</ele>
        <time>2022-06-11T11:35:28Z</time>
      </trkpt>
      <trkpt lat="44.08796" lon="7.04331">
        <ele>1424.8</ele>
        <time>2022-06-11T11:35:29Z</time>
      </trkpt>
      <trkpt lat="44.08795" lon="7.04334">
        <ele>1424.6</ele>
        <time>2022-06-11T11:35:30Z</time>
      </trkpt>
      <trkpt lat="44.08795" lon="7.04337">
        <ele>1424.4</ele>
        <time>2022-06-11T11:35:31Z</time>
      </trkpt>
      <trkpt lat="44.08794" lon="7.04341">
        <ele>1424.1</ele>
        <time>2022-06-11T11:35:32Z</time>
      </trkpt>
      <trkpt lat="44.08793" lon="7.04344">
        <ele>1423.9</ele>
        <time>2022-06-11T11:35:33Z</time>
      </trkpt>
      <trkpt lat="44.08793" lon="7.04348">
        <ele>1423.5</ele>
        <time>2022-06-11T11:35:34Z</time>
      </trkpt>
      <trkpt lat="44.08793" lon="7.04351">
        <ele>1423.3</ele>
        <time>2022-06-11T11:35:35Z</time>
      </trkpt>
      <trkpt lat="44.08792" lon="7.04354">
        <ele>1423</ele>
        <time>2022-06-11T11:35:36Z</time>
      </trkpt>
      <trkpt lat="44.08792" lon="7.04357">
        <ele>1422.8</ele>
        <time>2022-06-11T11:35:37Z</time>
      </trkpt>
      <trkpt lat="44.08791" lon="7.0436">
        <ele>1422.4</ele>
        <time>2022-06-11T11:35:38Z</time>
      </trkpt>
      <trkpt lat="44.08791" lon="7.04364">
        <ele>1422.1</ele>
        <time>2022-06-11T11:35:39Z</time>
      </trkpt>
      <trkpt lat="44.0879" lon="7.04368">
        <ele>1421.8</ele>
        <time>2022-06-11T11:35:40Z</time>
      </trkpt>
      <trkpt lat="44.08789" lon="7.04371">
        <ele>1421.6</ele>
        <time>2022-06-11T11:35:41Z</time>
      </trkpt>
      <trkpt lat="44.08788" lon="7.04375">
        <ele>1421.5</ele>
        <time>2022-06-11T11:35:42Z</time>
      </trkpt>
      <trkpt lat="44.08787" lon="7.04378">
        <ele>1421.4</ele>
        <time>2022-06-11T11:35:43Z</time>
      </trkpt>
      <trkpt lat="44.08786" lon="7.04382">
        <ele>1421.3</ele>
        <time>2022-06-11T11:35:44Z</time>
      </trkpt>
      <trkpt lat="44.08784" lon="7.04385">
        <ele>1421.6</ele>
        <time>2022-06-11T11:35:45Z</time>
      </trkpt>
      <trkpt lat="44.08781" lon="7.04386">
        <ele>1422.3</ele>
        <time>2022-06-11T11:35:46Z</time>
      </trkpt>
      <trkpt lat="44.08779" lon="7.04386">
        <ele>1423.3</ele>
        <time>2022-06-11T11:35:47Z</time>
      </trkpt>
      <trkpt lat="44.08776" lon="7.04384">
        <ele>1423.8</ele>
        <time>2022-06-11T11:35:48Z</time>
      </trkpt>
      <trkpt lat="44.08774" lon="7.04381">
        <ele>1424.3</ele>
        <time>2022-06-11T11:35:49Z</time>
      </trkpt>
      <trkpt lat="44.08774" lon="7.04377">
        <ele>1424.9</ele>
        <time>2022-06-11T11:35:50Z</time>
      </trkpt>
      <trkpt lat="44.08774" lon="7.04374">
        <ele>1425.7</ele>
        <time>2022-06-11T11:35:51Z</time>
      </trkpt>
      <trkpt lat="44.08775" lon="7.0437">
        <ele>1426.4</ele>
        <time>2022-06-11T11:35:52Z</time>
      </trkpt>
      <trkpt lat="44.08777" lon="7.04367">
        <ele>1427</ele>
        <time>2022-06-11T11:35:53Z</time>
      </trkpt>
      <trkpt lat="44.08778" lon="7.04364">
        <ele>1427.4</ele>
        <time>2022-06-11T11:35:54Z</time>
      </trkpt>
      <trkpt lat="44.08779" lon="7.0436">
        <ele>1427.6</ele>
        <time>2022-06-11T11:35:55Z</time>
      </trkpt>
      <trkpt lat="44.0878" lon="7.04356">
        <ele>1428.1</ele>
        <time>2022-06-11T11:35:56Z</time>
      </trkpt>
      <trkpt lat="44.08781" lon="7.04353">
        <ele>1428.5</ele>
        <time>2022-06-11T11:35:57Z</time>
      </trkpt>
      <trkpt lat="44.08782" lon="7.04349">
        <ele>1428.9</ele>
        <time>2022-06-11T11:35:58Z</time>
      </trkpt>
      <trkpt lat="44.08783" lon="7.04345">
        <ele>1429.2</ele>
        <time>2022-06-11T11:35:59Z</time>
      </trkpt>
      <trkpt lat="44.08784" lon="7.04341">
        <ele>1429.5</ele>
        <time>2022-06-11T11:36:00Z</time>
      </trkpt>
      <trkpt lat="44.08785" lon="7.04337">
        <ele>1429.7</ele>
        <time>2022-06-11T11:36:01Z</time>
      </trkpt>
      <trkpt lat="44.08786" lon="7.04333">
        <ele>1430</ele>
        <time>2022-06-11T11:36:02Z</time>
      </trkpt>
      <trkpt lat="44.08787" lon="7.04329">
        <ele>1430.4</ele>
        <time>2022-06-11T11:36:03Z</time>
      </trkpt>
      <trkpt lat="44.08787" lon="7.04324">
        <ele>1431</ele>
        <time>2022-06-11T11:36:04Z</time>
      </trkpt>
      <trkpt lat="44.08788" lon="7.0432">
        <ele>1431.7</ele>
        <time>2022-06-11T11:36:05Z</time>
      </trkpt>
      <trkpt lat="44.08788" lon="7.04316">
        <ele>1432.4</ele>
        <time>2022-06-11T11:36:06Z</time>
      </trkpt>
      <trkpt lat="44.08789" lon="7.04312">
        <ele>1432.9</ele>
        <time>2022-06-11T11:36:07Z</time>
      </trkpt>
      <trkpt lat="44.0879" lon="7.04308">
        <ele>1433.2</ele>
        <time>2022-06-11T11:36:08Z</time>
      </trkpt>
      <trkpt lat="44.0879" lon="7.04305">
        <ele>1433.6</ele>
        <time>2022-06-11T11:36:09Z</time>
      </trkpt>
      <trkpt lat="44.08791" lon="7.04302">
        <ele>1433.7</ele>
        <time>2022-06-11T11:36:10Z</time>
      </trkpt>
      <trkpt lat="44.08792" lon="7.04298">
        <ele>1434</ele>
        <time>2022-06-11T11:36:11Z</time>
      </trkpt>
      <trkpt lat="44.08792" lon="7.04294">
        <ele>1434.5</ele>
        <time>2022-06-11T11:36:12Z</time>
      </trkpt>
      <trkpt lat="44.08792" lon="7.0429">
        <ele>1434.8</ele>
        <time>2022-06-11T11:36:13Z</time>
      </trkpt>
      <trkpt lat="44.08793" lon="7.04287">
        <ele>1435.1</ele>
        <time>2022-06-11T11:36:14Z</time>
      </trkpt>
      <trkpt lat="44.08794" lon="7.04283">
        <ele>1435.3</ele>
        <time>2022-06-11T11:36:15Z</time>
      </trkpt>
      <trkpt lat="44.08794" lon="7.04279">
        <ele>1435.7</ele>
        <time>2022-06-11T11:36:16Z</time>
      </trkpt>
      <trkpt lat="44.08794" lon="7.04275">
        <ele>1436.2</ele>
        <time>2022-06-11T11:36:17Z</time>
      </trkpt>
      <trkpt lat="44.08795" lon="7.04272">
        <ele>1436.8</ele>
        <time>2022-06-11T11:36:18Z</time>
      </trkpt>
      <trkpt lat="44.08795" lon="7.04268">
        <ele>1437.3</ele>
        <time>2022-06-11T11:36:19Z</time>
      </trkpt>
      <trkpt lat="44.08795" lon="7.04265">
        <ele>1437.6</ele>
        <time>2022-06-11T11:36:20Z</time>
      </trkpt>
      <trkpt lat="44.08796" lon="7.04261">
        <ele>1437.9</ele>
        <time>2022-06-11T11:36:21Z</time>
      </trkpt>
      <trkpt lat="44.08796" lon="7.04258">
        <ele>1438.2</ele>
        <time>2022-06-11T11:36:22Z</time>
      </trkpt>
      <trkpt lat="44.08797" lon="7.04254">
        <ele>1438.6</ele>
        <time>2022-06-11T11:36:23Z</time>
      </trkpt>
      <trkpt lat="44.08797" lon="7.04251">
        <ele>1438.7</ele>
        <time>2022-06-11T11:36:24Z</time>
      </trkpt>
      <trkpt lat="44.08798" lon="7.04248">
        <ele>1438.8</ele>
        <time>2022-06-11T11:36:25Z</time>
      </trkpt>
      <trkpt lat="44.08799" lon="7.04246">
        <ele>1438.8</ele>
        <time>2022-06-11T11:36:26Z</time>
      </trkpt>
      <trkpt lat="44.08799" lon="7.04243">
        <ele>1439</ele>
        <time>2022-06-11T11:36:27Z</time>
      </trkpt>
      <trkpt lat="44.088" lon="7.0424">
        <ele>1439.4</ele>
        <time>2022-06-11T11:36:28Z</time>
      </trkpt>
      <trkpt lat="44.088" lon="7.04237">
        <ele>1439.7</ele>
        <time>2022-06-11T11:36:29Z</time>
      </trkpt>
      <trkpt lat="44.08801" lon="7.04234">
        <ele>1439.9</ele>
        <time>2022-06-11T11:36:30Z</time>
      </trkpt>
      <trkpt lat="44.08801" lon="7.04231">
        <ele>1440.3</ele>
        <time>2022-06-11T11:36:31Z</time>
      </trkpt>
      <trkpt lat="44.08802" lon="7.04228">
        <ele>1440.8</ele>
        <time>2022-06-11T11:36:32Z</time>
      </trkpt>
      <trkpt lat="44.08802" lon="7.04224">
        <ele>1441.4</ele>
        <time>2022-06-11T11:36:33Z</time>
      </trkpt>
      <trkpt lat="44.08802" lon="7.04221">
        <ele>1441.9</ele>
        <time>2022-06-11T11:36:34Z</time>
      </trkpt>
      <trkpt lat="44.08803" lon="7.04219">
        <ele>1442.1</ele>
        <time>2022-06-11T11:36:35Z</time>
      </trkpt>
      <trkpt lat="44.08803" lon="7.04217">
        <ele>1442.4</ele>
        <time>2022-06-11T11:36:36Z</time>
      </trkpt>
      <trkpt lat="44.08804" lon="7.04214">
        <ele>1442.8</ele>
        <time>2022-06-11T11:36:37Z</time>
      </trkpt>
      <trkpt lat="44.08805" lon="7.04211">
        <ele>1443.3</ele>
        <time>2022-06-11T11:36:38Z</time>
      </trkpt>
      <trkpt lat="44.08805" lon="7.04209">
        <ele>1443.7</ele>
        <time>2022-06-11T11:36:39Z</time>
      </trkpt>
      <trkpt lat="44.08806" lon="7.04207">
        <ele>1443.7</ele>
        <time>2022-06-11T11:36:40Z</time>
      </trkpt>
      <trkpt lat="44.08806" lon="7.04205">
        <ele>1444.1</ele>
        <time>2022-06-11T11:36:41Z</time>
      </trkpt>
      <trkpt lat="44.08807" lon="7.04202">
        <ele>1444.6</ele>
        <time>2022-06-11T11:36:42Z</time>
      </trkpt>
      <trkpt lat="44.08808" lon="7.04199">
        <ele>1444.5</ele>
        <time>2022-06-11T11:36:43Z</time>
      </trkpt>
      <trkpt lat="44.08809" lon="7.04196">
        <ele>1444.8</ele>
        <time>2022-06-11T11:36:44Z</time>
      </trkpt>
      <trkpt lat="44.08811" lon="7.04193">
        <ele>1444.8</ele>
        <time>2022-06-11T11:36:45Z</time>
      </trkpt>
      <trkpt lat="44.08812" lon="7.04191">
        <ele>1444.6</ele>
        <time>2022-06-11T11:36:46Z</time>
      </trkpt>
      <trkpt lat="44.08813" lon="7.04189">
        <ele>1444.4</ele>
        <time>2022-06-11T11:36:47Z</time>
      </trkpt>
      <trkpt lat="44.08813" lon="7.04187">
        <ele>1444.6</ele>
        <time>2022-06-11T11:36:48Z</time>
      </trkpt>
      <trkpt lat="44.08814" lon="7.04184">
        <ele>1444.8</ele>
        <time>2022-06-11T11:36:49Z</time>
      </trkpt>
      <trkpt lat="44.08815" lon="7.04181">
        <ele>1445.2</ele>
        <time>2022-06-11T11:36:50Z</time>
      </trkpt>
      <trkpt lat="44.08815" lon="7.04178">
        <ele>1445.5</ele>
        <time>2022-06-11T11:36:51Z</time>
      </trkpt>
      <trkpt lat="44.08816" lon="7.04175">
        <ele>1445.6</ele>
        <time>2022-06-11T11:36:52Z</time>
      </trkpt>
      <trkpt lat="44.08817" lon="7.04173">
        <ele>1445.9</ele>
        <time>2022-06-11T11:36:53Z</time>
      </trkpt>
      <trkpt lat="44.08818" lon="7.0417">
        <ele>1446.1</ele>
        <time>2022-06-11T11:36:54Z</time>
      </trkpt>
      <trkpt lat="44.08819" lon="7.04167">
        <ele>1446.5</ele>
        <time>2022-06-11T11:36:55Z</time>
      </trkpt>
      <trkpt lat="44.08819" lon="7.04164">
        <ele>1446.8</ele>
        <time>2022-06-11T11:36:56Z</time>
      </trkpt>
      <trkpt lat="44.08819" lon="7.04161">
        <ele>1447.1</ele>
        <time>2022-06-11T11:36:57Z</time>
      </trkpt>
      <trkpt lat="44.0882" lon="7.04159">
        <ele>1447.2</ele>
        <time>2022-06-11T11:36:58Z</time>
      </trkpt>
      <trkpt lat="44.0882" lon="7.04156">
        <ele>1447.5</ele>
        <time>2022-06-11T11:36:59Z</time>
      </trkpt>
      <trkpt lat="44.08821" lon="7.04153">
        <ele>1447.6</ele>
        <time>2022-06-11T11:37:00Z</time>
      </trkpt>
      <trkpt lat="44.08822" lon="7.0415">
        <ele>1447.7</ele>
        <time>2022-06-11T11:37:01Z</time>
      </trkpt>
      <trkpt lat="44.08822" lon="7.04147">
        <ele>1447.7</ele>
        <time>2022-06-11T11:37:02Z</time>
      </trkpt>
      <trkpt lat="44.08823" lon="7.04144">
        <ele>1448.1</ele>
        <time>2022-06-11T11:37:03Z</time>
      </trkpt>
      <trkpt lat="44.08823" lon="7.04141">
        <ele>1448.5</ele>
        <time>2022-06-11T11:37:04Z</time>
      </trkpt>
      <trkpt lat="44.08824" lon="7.04135">
        <ele>1448.7</ele>
        <time>2022-06-11T11:37:05Z</time>
      </trkpt>
      <trkpt lat="44.08825" lon="7.04131">
        <ele>1448.2</ele>
        <time>2022-06-11T11:37:06Z</time>
      </trkpt>
      <trkpt lat="44.08826" lon="7.04127">
        <ele>1448.2</ele>
        <time>2022-06-11T11:37:07Z</time>
      </trkpt>
      <trkpt lat="44.08827" lon="7.04124">
        <ele>1448.1</ele>
        <time>2022-06-11T11:37:08Z</time>
      </trkpt>
      <trkpt lat="44.08828" lon="7.04121">
        <ele>1448</ele>
        <time>2022-06-11T11:37:09Z</time>
      </trkpt>
      <trkpt lat="44.08828" lon="7.04118">
        <ele>1448</ele>
        <time>2022-06-11T11:37:10Z</time>
      </trkpt>
      <trkpt lat="44.08829" lon="7.04116">
        <ele>1448.1</ele>
        <time>2022-06-11T11:37:11Z</time>
      </trkpt>
      <trkpt lat="44.08829" lon="7.04113">
        <ele>1448.1</ele>
        <time>2022-06-11T11:37:12Z</time>
      </trkpt>
      <trkpt lat="44.08831" lon="7.0411">
        <ele>1447.6</ele>
        <time>2022-06-11T11:37:13Z</time>
      </trkpt>
      <trkpt lat="44.08832" lon="7.04108">
        <ele>1447.1</ele>
        <time>2022-06-11T11:37:14Z</time>
      </trkpt>
      <trkpt lat="44.08833" lon="7.04105">
        <ele>1447.1</ele>
        <time>2022-06-11T11:37:15Z</time>
      </trkpt>
      <trkpt lat="44.08833" lon="7.04102">
        <ele>1447.2</ele>
        <time>2022-06-11T11:37:16Z</time>
      </trkpt>
      <trkpt lat="44.08834" lon="7.04098">
        <ele>1447.4</ele>
        <time>2022-06-11T11:37:17Z</time>
      </trkpt>
      <trkpt lat="44.08834" lon="7.04095">
        <ele>1447.4</ele>
        <time>2022-06-11T11:37:18Z</time>
      </trkpt>
      <trkpt lat="44.08835" lon="7.04092">
        <ele>1447.2</ele>
        <time>2022-06-11T11:37:19Z</time>
      </trkpt>
      <trkpt lat="44.08835" lon="7.04089">
        <ele>1447.3</ele>
        <time>2022-06-11T11:37:20Z</time>
      </trkpt>
      <trkpt lat="44.08836" lon="7.04086">
        <ele>1447.5</ele>
        <time>2022-06-11T11:37:21Z</time>
      </trkpt>
      <trkpt lat="44.08837" lon="7.04083">
        <ele>1447.4</ele>
        <time>2022-06-11T11:37:22Z</time>
      </trkpt>
      <trkpt lat="44.08838" lon="7.04079">
        <ele>1447.2</ele>
        <time>2022-06-11T11:37:23Z</time>
      </trkpt>
      <trkpt lat="44.08839" lon="7.04077">
        <ele>1447</ele>
        <time>2022-06-11T11:37:24Z</time>
      </trkpt>
      <trkpt lat="44.08839" lon="7.04075">
        <ele>1446.8</ele>
        <time>2022-06-11T11:37:25Z</time>
      </trkpt>
      <trkpt lat="44.0884" lon="7.04071">
        <ele>1446.8</ele>
        <time>2022-06-11T11:37:26Z</time>
      </trkpt>
      <trkpt lat="44.08842" lon="7.04067">
        <ele>1446.5</ele>
        <time>2022-06-11T11:37:27Z</time>
      </trkpt>
      <trkpt lat="44.08843" lon="7.04064">
        <ele>1446.4</ele>
        <time>2022-06-11T11:37:28Z</time>
      </trkpt>
      <trkpt lat="44.08844" lon="7.04061">
        <ele>1446.1</ele>
        <time>2022-06-11T11:37:29Z</time>
      </trkpt>
      <trkpt lat="44.08846" lon="7.04058">
        <ele>1445.6</ele>
        <time>2022-06-11T11:37:30Z</time>
      </trkpt>
      <trkpt lat="44.08847" lon="7.04055">
        <ele>1445.4</ele>
        <time>2022-06-11T11:37:31Z</time>
      </trkpt>
      <trkpt lat="44.08847" lon="7.04051">
        <ele>1445.4</ele>
        <time>2022-06-11T11:37:32Z</time>
      </trkpt>
      <trkpt lat="44.08848" lon="7.04048">
        <ele>1445.4</ele>
        <time>2022-06-11T11:37:33Z</time>
      </trkpt>
      <trkpt lat="44.08849" lon="7.04044">
        <ele>1445.4</ele>
        <time>2022-06-11T11:37:34Z</time>
      </trkpt>
      <trkpt lat="44.0885" lon="7.04041">
        <ele>1445.2</ele>
        <time>2022-06-11T11:37:35Z</time>
      </trkpt>
      <trkpt lat="44.0885" lon="7.04038">
        <ele>1445.3</ele>
        <time>2022-06-11T11:37:36Z</time>
      </trkpt>
      <trkpt lat="44.08851" lon="7.04035">
        <ele>1445.3</ele>
        <time>2022-06-11T11:37:37Z</time>
      </trkpt>
      <trkpt lat="44.08852" lon="7.04032">
        <ele>1445.1</ele>
        <time>2022-06-11T11:37:38Z</time>
      </trkpt>
      <trkpt lat="44.08853" lon="7.0403">
        <ele>1444.9</ele>
        <time>2022-06-11T11:37:39Z</time>
      </trkpt>
      <trkpt lat="44.08854" lon="7.04026">
        <ele>1444.6</ele>
        <time>2022-06-11T11:37:40Z</time>
      </trkpt>
      <trkpt lat="44.08855" lon="7.04023">
        <ele>1444.5</ele>
        <time>2022-06-11T11:37:41Z</time>
      </trkpt>
      <trkpt lat="44.08856" lon="7.0402">
        <ele>1444.2</ele>
        <time>2022-06-11T11:37:42Z</time>
      </trkpt>
      <trkpt lat="44.08858" lon="7.04018">
        <ele>1443.6</ele>
        <time>2022-06-11T11:37:43Z</time>
      </trkpt>
      <trkpt lat="44.0886" lon="7.04014">
        <ele>1443.3</ele>
        <time>2022-06-11T11:37:44Z</time>
      </trkpt>
      <trkpt lat="44.08861" lon="7.04011">
        <ele>1443.2</ele>
        <time>2022-06-11T11:37:45Z</time>
      </trkpt>
      <trkpt lat="44.08861" lon="7.04008">
        <ele>1443.2</ele>
        <time>2022-06-11T11:37:46Z</time>
      </trkpt>
      <trkpt lat="44.08862" lon="7.04004">
        <ele>1443.6</ele>
        <time>2022-06-11T11:37:47Z</time>
      </trkpt>
      <trkpt lat="44.08862" lon="7.04">
        <ele>1444</ele>
        <time>2022-06-11T11:37:48Z</time>
      </trkpt>
      <trkpt lat="44.08863" lon="7.03996">
        <ele>1444.4</ele>
        <time>2022-06-11T11:37:49Z</time>
      </trkpt>
      <trkpt lat="44.08863" lon="7.03993">
        <ele>1444.7</ele>
        <time>2022-06-11T11:37:50Z</time>
      </trkpt>
      <trkpt lat="44.08864" lon="7.03989">
        <ele>1445</ele>
        <time>2022-06-11T11:37:51Z</time>
      </trkpt>
      <trkpt lat="44.08864" lon="7.03986">
        <ele>1445.3</ele>
        <time>2022-06-11T11:37:52Z</time>
      </trkpt>
      <trkpt lat="44.08865" lon="7.03982">
        <ele>1445.6</ele>
        <time>2022-06-11T11:37:53Z</time>
      </trkpt>
      <trkpt lat="44.08865" lon="7.03979">
        <ele>1446</ele>
        <time>2022-06-11T11:37:54Z</time>
      </trkpt>
      <trkpt lat="44.08865" lon="7.03975">
        <ele>1446.3</ele>
        <time>2022-06-11T11:37:55Z</time>
      </trkpt>
      <trkpt lat="44.08866" lon="7.03971">
        <ele>1446.7</ele>
        <time>2022-06-11T11:37:56Z</time>
      </trkpt>
      <trkpt lat="44.08866" lon="7.03967">
        <ele>1447</ele>
        <time>2022-06-11T11:37:57Z</time>
      </trkpt>
      <trkpt lat="44.08867" lon="7.03964">
        <ele>1447.3</ele>
        <time>2022-06-11T11:37:58Z</time>
      </trkpt>
      <trkpt lat="44.08867" lon="7.03961">
        <ele>1447.4</ele>
        <time>2022-06-11T11:37:59Z</time>
      </trkpt>
      <trkpt lat="44.08868" lon="7.03958">
        <ele>1447.8</ele>
        <time>2022-06-11T11:38:00Z</time>
      </trkpt>
      <trkpt lat="44.08868" lon="7.03954">
        <ele>1448.1</ele>
        <time>2022-06-11T11:38:01Z</time>
      </trkpt>
      <trkpt lat="44.08868" lon="7.03951">
        <ele>1448.3</ele>
        <time>2022-06-11T11:38:02Z</time>
      </trkpt>
      <trkpt lat="44.08868" lon="7.03948">
        <ele>1448.7</ele>
        <time>2022-06-11T11:38:03Z</time>
      </trkpt>
      <trkpt lat="44.08868" lon="7.03946">
        <ele>1448.9</ele>
        <time>2022-06-11T11:38:04Z</time>
      </trkpt>
      <trkpt lat="44.08868" lon="7.03943">
        <ele>1449.2</ele>
        <time>2022-06-11T11:38:05Z</time>
      </trkpt>
      <trkpt lat="44.08868" lon="7.0394">
        <ele>1449.6</ele>
        <time>2022-06-11T11:38:06Z</time>
      </trkpt>
      <trkpt lat="44.08868" lon="7.03937">
        <ele>1450</ele>
        <time>2022-06-11T11:38:07Z</time>
      </trkpt>
      <trkpt lat="44.08868" lon="7.03933">
        <ele>1450.4</ele>
        <time>2022-06-11T11:38:08Z</time>
      </trkpt>
      <trkpt lat="44.08869" lon="7.0393">
        <ele>1450.8</ele>
        <time>2022-06-11T11:38:09Z</time>
      </trkpt>
      <trkpt lat="44.08869" lon="7.03927">
        <ele>1451.1</ele>
        <time>2022-06-11T11:38:10Z</time>
      </trkpt>
      <trkpt lat="44.08869" lon="7.03924">
        <ele>1451.5</ele>
        <time>2022-06-11T11:38:11Z</time>
      </trkpt>
      <trkpt lat="44.08869" lon="7.03921">
        <ele>1451.8</ele>
        <time>2022-06-11T11:38:12Z</time>
      </trkpt>
      <trkpt lat="44.0887" lon="7.03919">
        <ele>1452</ele>
        <time>2022-06-11T11:38:13Z</time>
      </trkpt>
      <trkpt lat="44.08871" lon="7.03917">
        <ele>1452.3</ele>
        <time>2022-06-11T11:38:14Z</time>
      </trkpt>
      <trkpt lat="44.08871" lon="7.03913">
        <ele>1452.8</ele>
        <time>2022-06-11T11:38:15Z</time>
      </trkpt>
      <trkpt lat="44.08871" lon="7.0391">
        <ele>1453.2</ele>
        <time>2022-06-11T11:38:16Z</time>
      </trkpt>
      <trkpt lat="44.08871" lon="7.03907">
        <ele>1453.6</ele>
        <time>2022-06-11T11:38:17Z</time>
      </trkpt>
      <trkpt lat="44.08871" lon="7.03903">
        <ele>1454.1</ele>
        <time>2022-06-11T11:38:18Z</time>
      </trkpt>
      <trkpt lat="44.08871" lon="7.039">
        <ele>1454.5</ele>
        <time>2022-06-11T11:38:19Z</time>
      </trkpt>
      <trkpt lat="44.08871" lon="7.03897">
        <ele>1454.9</ele>
        <time>2022-06-11T11:38:20Z</time>
      </trkpt>
      <trkpt lat="44.08871" lon="7.03894">
        <ele>1455.3</ele>
        <time>2022-06-11T11:38:21Z</time>
      </trkpt>
      <trkpt lat="44.08871" lon="7.03891">
        <ele>1455.7</ele>
        <time>2022-06-11T11:38:22Z</time>
      </trkpt>
      <trkpt lat="44.08871" lon="7.03887">
        <ele>1456.2</ele>
        <time>2022-06-11T11:38:23Z</time>
      </trkpt>
      <trkpt lat="44.08871" lon="7.03884">
        <ele>1456.6</ele>
        <time>2022-06-11T11:38:24Z</time>
      </trkpt>
      <trkpt lat="44.08871" lon="7.0388">
        <ele>1457</ele>
        <time>2022-06-11T11:38:25Z</time>
      </trkpt>
      <trkpt lat="44.08871" lon="7.03876">
        <ele>1457.5</ele>
        <time>2022-06-11T11:38:26Z</time>
      </trkpt>
      <trkpt lat="44.08872" lon="7.03871">
        <ele>1458</ele>
        <time>2022-06-11T11:38:27Z</time>
      </trkpt>
      <trkpt lat="44.08872" lon="7.03867">
        <ele>1458.4</ele>
        <time>2022-06-11T11:38:28Z</time>
      </trkpt>
      <trkpt lat="44.08872" lon="7.03863">
        <ele>1458.8</ele>
        <time>2022-06-11T11:38:29Z</time>
      </trkpt>
      <trkpt lat="44.08873" lon="7.03859">
        <ele>1459.2</ele>
        <time>2022-06-11T11:38:30Z</time>
      </trkpt>
      <trkpt lat="44.08874" lon="7.03856">
        <ele>1459.5</ele>
        <time>2022-06-11T11:38:31Z</time>
      </trkpt>
      <trkpt lat="44.08875" lon="7.03852">
        <ele>1459.8</ele>
        <time>2022-06-11T11:38:32Z</time>
      </trkpt>
      <trkpt lat="44.08875" lon="7.03849">
        <ele>1460.2</ele>
        <time>2022-06-11T11:38:33Z</time>
      </trkpt>
      <trkpt lat="44.08875" lon="7.03846">
        <ele>1460.6</ele>
        <time>2022-06-11T11:38:34Z</time>
      </trkpt>
      <trkpt lat="44.08876" lon="7.03843">
        <ele>1460.8</ele>
        <time>2022-06-11T11:38:35Z</time>
      </trkpt>
      <trkpt lat="44.08878" lon="7.0384">
        <ele>1460.9</ele>
        <time>2022-06-11T11:38:36Z</time>
      </trkpt>
      <trkpt lat="44.0888" lon="7.03837">
        <ele>1460.8</ele>
        <time>2022-06-11T11:38:37Z</time>
      </trkpt>
      <trkpt lat="44.08882" lon="7.03834">
        <ele>1460.8</ele>
        <time>2022-06-11T11:38:38Z</time>
      </trkpt>
      <trkpt lat="44.08884" lon="7.03831">
        <ele>1460.6</ele>
        <time>2022-06-11T11:38:39Z</time>
      </trkpt>
      <trkpt lat="44.08886" lon="7.0383">
        <ele>1460.1</ele>
        <time>2022-06-11T11:38:40Z</time>
      </trkpt>
      <trkpt lat="44.08889" lon="7.03828">
        <ele>1459.6</ele>
        <time>2022-06-11T11:38:41Z</time>
      </trkpt>
      <trkpt lat="44.08892" lon="7.03827">
        <ele>1460.1</ele>
        <time>2022-06-11T11:38:42Z</time>
      </trkpt>
      <trkpt lat="44.08895" lon="7.03828">
        <ele>1460.5</ele>
        <time>2022-06-11T11:38:43Z</time>
      </trkpt>
      <trkpt lat="44.08897" lon="7.0383">
        <ele>1460.8</ele>
        <time>2022-06-11T11:38:44Z</time>
      </trkpt>
      <trkpt lat="44.08899" lon="7.03832">
        <ele>1461</ele>
        <time>2022-06-11T11:38:45Z</time>
      </trkpt>
      <trkpt lat="44.08901" lon="7.03836">
        <ele>1461</ele>
        <time>2022-06-11T11:38:46Z</time>
      </trkpt>
      <trkpt lat="44.08902" lon="7.03839">
        <ele>1461</ele>
        <time>2022-06-11T11:38:47Z</time>
      </trkpt>
      <trkpt lat="44.08903" lon="7.03843">
        <ele>1461</ele>
        <time>2022-06-11T11:38:48Z</time>
      </trkpt>
      <trkpt lat="44.08903" lon="7.03847">
        <ele>1460.9</ele>
        <time>2022-06-11T11:38:49Z</time>
      </trkpt>
      <trkpt lat="44.08904" lon="7.0385">
        <ele>1460.8</ele>
        <time>2022-06-11T11:38:50Z</time>
      </trkpt>
      <trkpt lat="44.08904" lon="7.03854">
        <ele>1460.6</ele>
        <time>2022-06-11T11:38:51Z</time>
      </trkpt>
      <trkpt lat="44.08904" lon="7.03857">
        <ele>1460.5</ele>
        <time>2022-06-11T11:38:52Z</time>
      </trkpt>
      <trkpt lat="44.08905" lon="7.03861">
        <ele>1460.5</ele>
        <time>2022-06-11T11:38:53Z</time>
      </trkpt>
      <trkpt lat="44.08905" lon="7.03864">
        <ele>1460.5</ele>
        <time>2022-06-11T11:38:54Z</time>
      </trkpt>
      <trkpt lat="44.08906" lon="7.03867">
        <ele>1460.6</ele>
        <time>2022-06-11T11:38:55Z</time>
      </trkpt>
      <trkpt lat="44.08906" lon="7.03871">
        <ele>1460.7</ele>
        <time>2022-06-11T11:38:56Z</time>
      </trkpt>
      <trkpt lat="44.08907" lon="7.03874">
        <ele>1460.7</ele>
        <time>2022-06-11T11:38:57Z</time>
      </trkpt>
      <trkpt lat="44.08907" lon="7.03877">
        <ele>1460.8</ele>
        <time>2022-06-11T11:38:58Z</time>
      </trkpt>
      <trkpt lat="44.08908" lon="7.0388">
        <ele>1461.1</ele>
        <time>2022-06-11T11:38:59Z</time>
      </trkpt>
      <trkpt lat="44.08909" lon="7.03884">
        <ele>1461.3</ele>
        <time>2022-06-11T11:39:00Z</time>
      </trkpt>
      <trkpt lat="44.0891" lon="7.03887">
        <ele>1461.5</ele>
        <time>2022-06-11T11:39:01Z</time>
      </trkpt>
      <trkpt lat="44.0891" lon="7.03889">
        <ele>1461.7</ele>
        <time>2022-06-11T11:39:02Z</time>
      </trkpt>
      <trkpt lat="44.08911" lon="7.03892">
        <ele>1461.6</ele>
        <time>2022-06-11T11:39:03Z</time>
      </trkpt>
      <trkpt lat="44.08912" lon="7.03895">
        <ele>1461.7</ele>
        <time>2022-06-11T11:39:04Z</time>
      </trkpt>
      <trkpt lat="44.08913" lon="7.03898">
        <ele>1461.8</ele>
        <time>2022-06-11T11:39:05Z</time>
      </trkpt>
      <trkpt lat="44.08914" lon="7.039">
        <ele>1461.9</ele>
        <time>2022-06-11T11:39:06Z</time>
      </trkpt>
      <trkpt lat="44.08916" lon="7.03903">
        <ele>1462.1</ele>
        <time>2022-06-11T11:39:07Z</time>
      </trkpt>
      <trkpt lat="44.08917" lon="7.03905">
        <ele>1462.3</ele>
        <time>2022-06-11T11:39:08Z</time>
      </trkpt>
      <trkpt lat="44.08919" lon="7.03908">
        <ele>1462.4</ele>
        <time>2022-06-11T11:39:09Z</time>
      </trkpt>
      <trkpt lat="44.08921" lon="7.0391">
        <ele>1462.6</ele>
        <time>2022-06-11T11:39:10Z</time>
      </trkpt>
      <trkpt lat="44.08923" lon="7.03911">
        <ele>1462.9</ele>
        <time>2022-06-11T11:39:11Z</time>
      </trkpt>
      <trkpt lat="44.08925" lon="7.03912">
        <ele>1463.3</ele>
        <time>2022-06-11T11:39:12Z</time>
      </trkpt>
      <trkpt lat="44.08927" lon="7.03913">
        <ele>1463.7</ele>
        <time>2022-06-11T11:39:13Z</time>
      </trkpt>
      <trkpt lat="44.08929" lon="7.03913">
        <ele>1464.1</ele>
        <time>2022-06-11T11:39:14Z</time>
      </trkpt>
      <trkpt lat="44.08932" lon="7.03913">
        <ele>1464.7</ele>
        <time>2022-06-11T11:39:15Z</time>
      </trkpt>
      <trkpt lat="44.08935" lon="7.03913">
        <ele>1465.4</ele>
        <time>2022-06-11T11:39:16Z</time>
      </trkpt>
      <trkpt lat="44.08937" lon="7.03913">
        <ele>1465.9</ele>
        <time>2022-06-11T11:39:17Z</time>
      </trkpt>
      <trkpt lat="44.08939" lon="7.03913">
        <ele>1466.4</ele>
        <time>2022-06-11T11:39:18Z</time>
      </trkpt>
      <trkpt lat="44.08942" lon="7.03913">
        <ele>1466.9</ele>
        <time>2022-06-11T11:39:19Z</time>
      </trkpt>
      <trkpt lat="44.08944" lon="7.03914">
        <ele>1467.4</ele>
        <time>2022-06-11T11:39:20Z</time>
      </trkpt>
      <trkpt lat="44.08946" lon="7.03914">
        <ele>1467.7</ele>
        <time>2022-06-11T11:39:21Z</time>
      </trkpt>
      <trkpt lat="44.08948" lon="7.03914">
        <ele>1467.9</ele>
        <time>2022-06-11T11:39:22Z</time>
      </trkpt>
      <trkpt lat="44.0895" lon="7.03914">
        <ele>1468.2</ele>
        <time>2022-06-11T11:39:23Z</time>
      </trkpt>
      <trkpt lat="44.08953" lon="7.03915">
        <ele>1468.4</ele>
        <time>2022-06-11T11:39:24Z</time>
      </trkpt>
      <trkpt lat="44.08955" lon="7.03916">
        <ele>1468.5</ele>
        <time>2022-06-11T11:39:25Z</time>
      </trkpt>
      <trkpt lat="44.08957" lon="7.03917">
        <ele>1468.8</ele>
        <time>2022-06-11T11:39:26Z</time>
      </trkpt>
      <trkpt lat="44.08959" lon="7.03917">
        <ele>1469</ele>
        <time>2022-06-11T11:39:27Z</time>
      </trkpt>
      <trkpt lat="44.08961" lon="7.03918">
        <ele>1469.3</ele>
        <time>2022-06-11T11:39:28Z</time>
      </trkpt>
      <trkpt lat="44.08963" lon="7.03919">
        <ele>1469.6</ele>
        <time>2022-06-11T11:39:29Z</time>
      </trkpt>
      <trkpt lat="44.08965" lon="7.0392">
        <ele>1469.9</ele>
        <time>2022-06-11T11:39:30Z</time>
      </trkpt>
      <trkpt lat="44.08967" lon="7.03921">
        <ele>1470.2</ele>
        <time>2022-06-11T11:39:31Z</time>
      </trkpt>
      <trkpt lat="44.08969" lon="7.03921">
        <ele>1470.5</ele>
        <time>2022-06-11T11:39:32Z</time>
      </trkpt>
      <trkpt lat="44.08971" lon="7.03921">
        <ele>1470.8</ele>
        <time>2022-06-11T11:39:33Z</time>
      </trkpt>
      <trkpt lat="44.08973" lon="7.03921">
        <ele>1471</ele>
        <time>2022-06-11T11:39:34Z</time>
      </trkpt>
      <trkpt lat="44.08976" lon="7.03921">
        <ele>1470.9</ele>
        <time>2022-06-11T11:39:35Z</time>
      </trkpt>
      <trkpt lat="44.08978" lon="7.03921">
        <ele>1470.8</ele>
        <time>2022-06-11T11:39:36Z</time>
      </trkpt>
      <trkpt lat="44.0898" lon="7.0392">
        <ele>1470.7</ele>
        <time>2022-06-11T11:39:37Z</time>
      </trkpt>
      <trkpt lat="44.08982" lon="7.03919">
        <ele>1470.6</ele>
        <time>2022-06-11T11:39:38Z</time>
      </trkpt>
      <trkpt lat="44.08985" lon="7.03918">
        <ele>1470.6</ele>
        <time>2022-06-11T11:39:39Z</time>
      </trkpt>
      <trkpt lat="44.08987" lon="7.03916">
        <ele>1470.5</ele>
        <time>2022-06-11T11:39:40Z</time>
      </trkpt>
      <trkpt lat="44.08989" lon="7.03915">
        <ele>1470.6</ele>
        <time>2022-06-11T11:39:41Z</time>
      </trkpt>
      <trkpt lat="44.08991" lon="7.03913">
        <ele>1470.7</ele>
        <time>2022-06-11T11:39:42Z</time>
      </trkpt>
      <trkpt lat="44.08993" lon="7.03911">
        <ele>1470.9</ele>
        <time>2022-06-11T11:39:43Z</time>
      </trkpt>
      <trkpt lat="44.08995" lon="7.03909">
        <ele>1471.1</ele>
        <time>2022-06-11T11:39:44Z</time>
      </trkpt>
      <trkpt lat="44.08996" lon="7.03907">
        <ele>1471.2</ele>
        <time>2022-06-11T11:39:45Z</time>
      </trkpt>
      <trkpt lat="44.08998" lon="7.03904">
        <ele>1471.4</ele>
        <time>2022-06-11T11:39:46Z</time>
      </trkpt>
      <trkpt lat="44.08999" lon="7.03902">
        <ele>1471.7</ele>
        <time>2022-06-11T11:39:47Z</time>
      </trkpt>
      <trkpt lat="44.09001" lon="7.03899">
        <ele>1471.8</ele>
        <time>2022-06-11T11:39:48Z</time>
      </trkpt>
      <trkpt lat="44.09002" lon="7.03897">
        <ele>1471.8</ele>
        <time>2022-06-11T11:39:49Z</time>
      </trkpt>
      <trkpt lat="44.09003" lon="7.03894">
        <ele>1471.9</ele>
        <time>2022-06-11T11:39:50Z</time>
      </trkpt>
      <trkpt lat="44.09004" lon="7.03891">
        <ele>1471.9</ele>
        <time>2022-06-11T11:39:51Z</time>
      </trkpt>
      <trkpt lat="44.09005" lon="7.03888">
        <ele>1472</ele>
        <time>2022-06-11T11:39:52Z</time>
      </trkpt>
      <trkpt lat="44.09007" lon="7.03886">
        <ele>1472.2</ele>
        <time>2022-06-11T11:39:53Z</time>
      </trkpt>
      <trkpt lat="44.09008" lon="7.03883">
        <ele>1472.5</ele>
        <time>2022-06-11T11:39:54Z</time>
      </trkpt>
      <trkpt lat="44.09009" lon="7.0388">
        <ele>1472.8</ele>
        <time>2022-06-11T11:39:55Z</time>
      </trkpt>
      <trkpt lat="44.0901" lon="7.03878">
        <ele>1473.1</ele>
        <time>2022-06-11T11:39:56Z</time>
      </trkpt>
      <trkpt lat="44.09011" lon="7.03875">
        <ele>1473.3</ele>
        <time>2022-06-11T11:39:57Z</time>
      </trkpt>
      <trkpt lat="44.09012" lon="7.03872">
        <ele>1473.7</ele>
        <time>2022-06-11T11:39:58Z</time>
      </trkpt>
      <trkpt lat="44.09013" lon="7.0387">
        <ele>1473.9</ele>
        <time>2022-06-11T11:39:59Z</time>
      </trkpt>
      <trkpt lat="44.09014" lon="7.03867">
        <ele>1474.2</ele>
        <time>2022-06-11T11:40:00Z</time>
      </trkpt>
      <trkpt lat="44.09016" lon="7.03865">
        <ele>1474.5</ele>
        <time>2022-06-11T11:40:01Z</time>
      </trkpt>
      <trkpt lat="44.09017" lon="7.03862">
        <ele>1474.8</ele>
        <time>2022-06-11T11:40:02Z</time>
      </trkpt>
      <trkpt lat="44.09018" lon="7.03859">
        <ele>1475.1</ele>
        <time>2022-06-11T11:40:03Z</time>
      </trkpt>
      <trkpt lat="44.0902" lon="7.03857">
        <ele>1475.2</ele>
        <time>2022-06-11T11:40:04Z</time>
      </trkpt>
      <trkpt lat="44.09021" lon="7.03855">
        <ele>1475.5</ele>
        <time>2022-06-11T11:40:05Z</time>
      </trkpt>
      <trkpt lat="44.09022" lon="7.03852">
        <ele>1476</ele>
        <time>2022-06-11T11:40:06Z</time>
      </trkpt>
      <trkpt lat="44.09023" lon="7.03849">
        <ele>1476.2</ele>
        <time>2022-06-11T11:40:07Z</time>
      </trkpt>
      <trkpt lat="44.09025" lon="7.03847">
        <ele>1476.5</ele>
        <time>2022-06-11T11:40:08Z</time>
      </trkpt>
      <trkpt lat="44.09027" lon="7.03845">
        <ele>1476.7</ele>
        <time>2022-06-11T11:40:09Z</time>
      </trkpt>
      <trkpt lat="44.09028" lon="7.03843">
        <ele>1477</ele>
        <time>2022-06-11T11:40:10Z</time>
      </trkpt>
      <trkpt lat="44.0903" lon="7.0384">
        <ele>1477.1</ele>
        <time>2022-06-11T11:40:11Z</time>
      </trkpt>
      <trkpt lat="44.09031" lon="7.03838">
        <ele>1477.2</ele>
        <time>2022-06-11T11:40:12Z</time>
      </trkpt>
      <trkpt lat="44.09033" lon="7.03836">
        <ele>1477.3</ele>
        <time>2022-06-11T11:40:13Z</time>
      </trkpt>
      <trkpt lat="44.09034" lon="7.03833">
        <ele>1477.4</ele>
        <time>2022-06-11T11:40:14Z</time>
      </trkpt>
      <trkpt lat="44.09036" lon="7.03831">
        <ele>1477.4</ele>
        <time>2022-06-11T11:40:15Z</time>
      </trkpt>
      <trkpt lat="44.09037" lon="7.03829">
        <ele>1477.4</ele>
        <time>2022-06-11T11:40:16Z</time>
      </trkpt>
      <trkpt lat="44.09039" lon="7.03827">
        <ele>1477.3</ele>
        <time>2022-06-11T11:40:17Z</time>
      </trkpt>
      <trkpt lat="44.09041" lon="7.03825">
        <ele>1477.2</ele>
        <time>2022-06-11T11:40:18Z</time>
      </trkpt>
      <trkpt lat="44.09043" lon="7.03823">
        <ele>1477.2</ele>
        <time>2022-06-11T11:40:19Z</time>
      </trkpt>
      <trkpt lat="44.09044" lon="7.03821">
        <ele>1477.3</ele>
        <time>2022-06-11T11:40:20Z</time>
      </trkpt>
      <trkpt lat="44.09046" lon="7.03819">
        <ele>1477.4</ele>
        <time>2022-06-11T11:40:21Z</time>
      </trkpt>
      <trkpt lat="44.09048" lon="7.03816">
        <ele>1477.6</ele>
        <time>2022-06-11T11:40:22Z</time>
      </trkpt>
      <trkpt lat="44.09049" lon="7.03814">
        <ele>1477.8</ele>
        <time>2022-06-11T11:40:23Z</time>
      </trkpt>
      <trkpt lat="44.09051" lon="7.03812">
        <ele>1478</ele>
        <time>2022-06-11T11:40:24Z</time>
      </trkpt>
      <trkpt lat="44.09053" lon="7.0381">
        <ele>1478.3</ele>
        <time>2022-06-11T11:40:25Z</time>
      </trkpt>
      <trkpt lat="44.09054" lon="7.03808">
        <ele>1478.6</ele>
        <time>2022-06-11T11:40:26Z</time>
      </trkpt>
      <trkpt lat="44.09056" lon="7.03806">
        <ele>1478.8</ele>
        <time>2022-06-11T11:40:27Z</time>
      </trkpt>
      <trkpt lat="44.09057" lon="7.03804">
        <ele>1479</ele>
        <time>2022-06-11T11:40:28Z</time>
      </trkpt>
      <trkpt lat="44.09059" lon="7.03801">
        <ele>1479.2</ele>
        <time>2022-06-11T11:40:29Z</time>
      </trkpt>
      <trkpt lat="44.0906" lon="7.03799">
        <ele>1479.2</ele>
        <time>2022-06-11T11:40:30Z</time>
      </trkpt>
      <trkpt lat="44.09062" lon="7.03797">
        <ele>1479.3</ele>
        <time>2022-06-11T11:40:31Z</time>
      </trkpt>
      <trkpt lat="44.09063" lon="7.03794">
        <ele>1479.6</ele>
        <time>2022-06-11T11:40:32Z</time>
      </trkpt>
      <trkpt lat="44.09064" lon="7.03792">
        <ele>1479.8</ele>
        <time>2022-06-11T11:40:33Z</time>
      </trkpt>
      <trkpt lat="44.09065" lon="7.0379">
        <ele>1480</ele>
        <time>2022-06-11T11:40:34Z</time>
      </trkpt>
      <trkpt lat="44.09066" lon="7.03788">
        <ele>1480.2</ele>
        <time>2022-06-11T11:40:35Z</time>
      </trkpt>
      <trkpt lat="44.09067" lon="7.03785">
        <ele>1480.5</ele>
        <time>2022-06-11T11:40:36Z</time>
      </trkpt>
      <trkpt lat="44.09068" lon="7.03783">
        <ele>1480.8</ele>
        <time>2022-06-11T11:40:37Z</time>
      </trkpt>
      <trkpt lat="44.0907" lon="7.0378">
        <ele>1481</ele>
        <time>2022-06-11T11:40:38Z</time>
      </trkpt>
      <trkpt lat="44.09071" lon="7.03778">
        <ele>1481.3</ele>
        <time>2022-06-11T11:40:39Z</time>
      </trkpt>
      <trkpt lat="44.09072" lon="7.03775">
        <ele>1481.5</ele>
        <time>2022-06-11T11:40:40Z</time>
      </trkpt>
      <trkpt lat="44.09074" lon="7.03772">
        <ele>1481.8</ele>
        <time>2022-06-11T11:40:41Z</time>
      </trkpt>
      <trkpt lat="44.09075" lon="7.0377">
        <ele>1482</ele>
        <time>2022-06-11T11:40:42Z</time>
      </trkpt>
      <trkpt lat="44.09076" lon="7.03767">
        <ele>1482.2</ele>
        <time>2022-06-11T11:40:43Z</time>
      </trkpt>
      <trkpt lat="44.09078" lon="7.03765">
        <ele>1482.4</ele>
        <time>2022-06-11T11:40:44Z</time>
      </trkpt>
      <trkpt lat="44.09079" lon="7.03762">
        <ele>1482.6</ele>
        <time>2022-06-11T11:40:45Z</time>
      </trkpt>
      <trkpt lat="44.0908" lon="7.03759">
        <ele>1482.9</ele>
        <time>2022-06-11T11:40:46Z</time>
      </trkpt>
      <trkpt lat="44.09082" lon="7.03757">
        <ele>1483.1</ele>
        <time>2022-06-11T11:40:47Z</time>
      </trkpt>
      <trkpt lat="44.09083" lon="7.03755">
        <ele>1483.3</ele>
        <time>2022-06-11T11:40:48Z</time>
      </trkpt>
      <trkpt lat="44.09084" lon="7.03754">
        <ele>1483.2</ele>
        <time>2022-06-11T11:40:49Z</time>
      </trkpt>
      <trkpt lat="44.09085" lon="7.03752">
        <ele>1483.3</ele>
        <time>2022-06-11T11:40:50Z</time>
      </trkpt>
      <trkpt lat="44.09087" lon="7.0375">
        <ele>1483.4</ele>
        <time>2022-06-11T11:40:51Z</time>
      </trkpt>
      <trkpt lat="44.09088" lon="7.03747">
        <ele>1483.5</ele>
        <time>2022-06-11T11:40:52Z</time>
      </trkpt>
      <trkpt lat="44.09089" lon="7.03745">
        <ele>1483.7</ele>
        <time>2022-06-11T11:40:53Z</time>
      </trkpt>
      <trkpt lat="44.09091" lon="7.03742">
        <ele>1483.8</ele>
        <time>2022-06-11T11:40:54Z</time>
      </trkpt>
      <trkpt lat="44.09093" lon="7.0374">
        <ele>1484</ele>
        <time>2022-06-11T11:40:55Z</time>
      </trkpt>
      <trkpt lat="44.09094" lon="7.03737">
        <ele>1484.1</ele>
        <time>2022-06-11T11:40:56Z</time>
      </trkpt>
      <trkpt lat="44.09096" lon="7.03735">
        <ele>1484.4</ele>
        <time>2022-06-11T11:40:57Z</time>
      </trkpt>
      <trkpt lat="44.09097" lon="7.03732">
        <ele>1484.6</ele>
        <time>2022-06-11T11:40:58Z</time>
      </trkpt>
      <trkpt lat="44.09099" lon="7.03729">
        <ele>1484.8</ele>
        <time>2022-06-11T11:40:59Z</time>
      </trkpt>
      <trkpt lat="44.09101" lon="7.03727">
        <ele>1484.9</ele>
        <time>2022-06-11T11:41:00Z</time>
      </trkpt>
      <trkpt lat="44.09103" lon="7.03725">
        <ele>1485</ele>
        <time>2022-06-11T11:41:01Z</time>
      </trkpt>
      <trkpt lat="44.09105" lon="7.03722">
        <ele>1485.2</ele>
        <time>2022-06-11T11:41:02Z</time>
      </trkpt>
      <trkpt lat="44.09106" lon="7.0372">
        <ele>1485.5</ele>
        <time>2022-06-11T11:41:03Z</time>
      </trkpt>
      <trkpt lat="44.09108" lon="7.03717">
        <ele>1485.8</ele>
        <time>2022-06-11T11:41:04Z</time>
      </trkpt>
      <trkpt lat="44.09109" lon="7.03715">
        <ele>1486.1</ele>
        <time>2022-06-11T11:41:05Z</time>
      </trkpt>
      <trkpt lat="44.0911" lon="7.03713">
        <ele>1486.5</ele>
        <time>2022-06-11T11:41:06Z</time>
      </trkpt>
      <trkpt lat="44.09112" lon="7.0371">
        <ele>1486.9</ele>
        <time>2022-06-11T11:41:07Z</time>
      </trkpt>
      <trkpt lat="44.09113" lon="7.03708">
        <ele>1487.3</ele>
        <time>2022-06-11T11:41:08Z</time>
      </trkpt>
      <trkpt lat="44.09115" lon="7.03706">
        <ele>1487.5</ele>
        <time>2022-06-11T11:41:09Z</time>
      </trkpt>
      <trkpt lat="44.09117" lon="7.03703">
        <ele>1487.7</ele>
        <time>2022-06-11T11:41:10Z</time>
      </trkpt>
      <trkpt lat="44.09118" lon="7.03701">
        <ele>1488</ele>
        <time>2022-06-11T11:41:11Z</time>
      </trkpt>
      <trkpt lat="44.0912" lon="7.03699">
        <ele>1488.2</ele>
        <time>2022-06-11T11:41:12Z</time>
      </trkpt>
      <trkpt lat="44.09122" lon="7.03698">
        <ele>1488.3</ele>
        <time>2022-06-11T11:41:13Z</time>
      </trkpt>
      <trkpt lat="44.09123" lon="7.03696">
        <ele>1488.5</ele>
        <time>2022-06-11T11:41:14Z</time>
      </trkpt>
      <trkpt lat="44.09124" lon="7.03694">
        <ele>1488.7</ele>
        <time>2022-06-11T11:41:15Z</time>
      </trkpt>
      <trkpt lat="44.09126" lon="7.03692">
        <ele>1489</ele>
        <time>2022-06-11T11:41:16Z</time>
      </trkpt>
      <trkpt lat="44.09127" lon="7.03691">
        <ele>1489.1</ele>
        <time>2022-06-11T11:41:17Z</time>
      </trkpt>
      <trkpt lat="44.09129" lon="7.03689">
        <ele>1489.3</ele>
        <time>2022-06-11T11:41:18Z</time>
      </trkpt>
      <trkpt lat="44.09131" lon="7.03687">
        <ele>1489.5</ele>
        <time>2022-06-11T11:41:19Z</time>
      </trkpt>
      <trkpt lat="44.09132" lon="7.03686">
        <ele>1489.6</ele>
        <time>2022-06-11T11:41:20Z</time>
      </trkpt>
      <trkpt lat="44.09134" lon="7.03684">
        <ele>1489.8</ele>
        <time>2022-06-11T11:41:21Z</time>
      </trkpt>
      <trkpt lat="44.09136" lon="7.03682">
        <ele>1490.2</ele>
        <time>2022-06-11T11:41:22Z</time>
      </trkpt>
      <trkpt lat="44.09138" lon="7.03681">
        <ele>1490.2</ele>
        <time>2022-06-11T11:41:23Z</time>
      </trkpt>
      <trkpt lat="44.0914" lon="7.0368">
        <ele>1490.2</ele>
        <time>2022-06-11T11:41:24Z</time>
      </trkpt>
      <trkpt lat="44.09142" lon="7.03678">
        <ele>1490.1</ele>
        <time>2022-06-11T11:41:25Z</time>
      </trkpt>
      <trkpt lat="44.09144" lon="7.03677">
        <ele>1490.2</ele>
        <time>2022-06-11T11:41:26Z</time>
      </trkpt>
      <trkpt lat="44.09146" lon="7.03676">
        <ele>1490.3</ele>
        <time>2022-06-11T11:41:27Z</time>
      </trkpt>
      <trkpt lat="44.09148" lon="7.03675">
        <ele>1490.3</ele>
        <time>2022-06-11T11:41:28Z</time>
      </trkpt>
      <trkpt lat="44.0915" lon="7.03673">
        <ele>1490.4</ele>
        <time>2022-06-11T11:41:29Z</time>
      </trkpt>
      <trkpt lat="44.09152" lon="7.03672">
        <ele>1490.5</ele>
        <time>2022-06-11T11:41:30Z</time>
      </trkpt>
      <trkpt lat="44.09154" lon="7.03671">
        <ele>1490.4</ele>
        <time>2022-06-11T11:41:31Z</time>
      </trkpt>
      <trkpt lat="44.09156" lon="7.0367">
        <ele>1490.5</ele>
        <time>2022-06-11T11:41:32Z</time>
      </trkpt>
      <trkpt lat="44.09158" lon="7.03669">
        <ele>1490.6</ele>
        <time>2022-06-11T11:41:33Z</time>
      </trkpt>
      <trkpt lat="44.0916" lon="7.03668">
        <ele>1490.7</ele>
        <time>2022-06-11T11:41:34Z</time>
      </trkpt>
      <trkpt lat="44.09162" lon="7.03666">
        <ele>1490.8</ele>
        <time>2022-06-11T11:41:35Z</time>
      </trkpt>
      <trkpt lat="44.09164" lon="7.03665">
        <ele>1490.9</ele>
        <time>2022-06-11T11:41:36Z</time>
      </trkpt>
      <trkpt lat="44.09166" lon="7.03663">
        <ele>1491.2</ele>
        <time>2022-06-11T11:41:37Z</time>
      </trkpt>
      <trkpt lat="44.09168" lon="7.03662">
        <ele>1491.3</ele>
        <time>2022-06-11T11:41:38Z</time>
      </trkpt>
      <trkpt lat="44.09171" lon="7.03661">
        <ele>1491.3</ele>
        <time>2022-06-11T11:41:39Z</time>
      </trkpt>
      <trkpt lat="44.09173" lon="7.0366">
        <ele>1491.1</ele>
        <time>2022-06-11T11:41:40Z</time>
      </trkpt>
      <trkpt lat="44.09175" lon="7.03659">
        <ele>1491</ele>
        <time>2022-06-11T11:41:41Z</time>
      </trkpt>
      <trkpt lat="44.09177" lon="7.03659">
        <ele>1490.9</ele>
        <time>2022-06-11T11:41:42Z</time>
      </trkpt>
      <trkpt lat="44.09179" lon="7.03658">
        <ele>1490.7</ele>
        <time>2022-06-11T11:41:43Z</time>
      </trkpt>
      <trkpt lat="44.09182" lon="7.03657">
        <ele>1490.6</ele>
        <time>2022-06-11T11:41:44Z</time>
      </trkpt>
      <trkpt lat="44.09184" lon="7.03657">
        <ele>1490.4</ele>
        <time>2022-06-11T11:41:45Z</time>
      </trkpt>
      <trkpt lat="44.09186" lon="7.03656">
        <ele>1490.2</ele>
        <time>2022-06-11T11:41:46Z</time>
      </trkpt>
      <trkpt lat="44.09188" lon="7.03656">
        <ele>1490.1</ele>
        <time>2022-06-11T11:41:47Z</time>
      </trkpt>
      <trkpt lat="44.0919" lon="7.03655">
        <ele>1490.1</ele>
        <time>2022-06-11T11:41:48Z</time>
      </trkpt>
      <trkpt lat="44.09192" lon="7.03654">
        <ele>1490.1</ele>
        <time>2022-06-11T11:41:49Z</time>
      </trkpt>
      <trkpt lat="44.09194" lon="7.03653">
        <ele>1490.2</ele>
        <time>2022-06-11T11:41:50Z</time>
      </trkpt>
      <trkpt lat="44.09196" lon="7.03651">
        <ele>1490.3</ele>
        <time>2022-06-11T11:41:51Z</time>
      </trkpt>
      <trkpt lat="44.09198" lon="7.0365">
        <ele>1490.3</ele>
        <time>2022-06-11T11:41:52Z</time>
      </trkpt>
      <trkpt lat="44.092" lon="7.03648">
        <ele>1490.5</ele>
        <time>2022-06-11T11:41:53Z</time>
      </trkpt>
      <trkpt lat="44.09202" lon="7.03646">
        <ele>1490.9</ele>
        <time>2022-06-11T11:41:54Z</time>
      </trkpt>
      <trkpt lat="44.09204" lon="7.03644">
        <ele>1491.3</ele>
        <time>2022-06-11T11:41:55Z</time>
      </trkpt>
      <trkpt lat="44.09205" lon="7.03642">
        <ele>1491.7</ele>
        <time>2022-06-11T11:41:56Z</time>
      </trkpt>
      <trkpt lat="44.09207" lon="7.0364">
        <ele>1491.9</ele>
        <time>2022-06-11T11:41:57Z</time>
      </trkpt>
      <trkpt lat="44.09209" lon="7.03638">
        <ele>1492.2</ele>
        <time>2022-06-11T11:41:58Z</time>
      </trkpt>
      <trkpt lat="44.0921" lon="7.03636">
        <ele>1492.5</ele>
        <time>2022-06-11T11:41:59Z</time>
      </trkpt>
      <trkpt lat="44.09212" lon="7.03634">
        <ele>1492.8</ele>
        <time>2022-06-11T11:42:00Z</time>
      </trkpt>
      <trkpt lat="44.09213" lon="7.03632">
        <ele>1493</ele>
        <time>2022-06-11T11:42:01Z</time>
      </trkpt>
      <trkpt lat="44.09215" lon="7.0363">
        <ele>1493.3</ele>
        <time>2022-06-11T11:42:02Z</time>
      </trkpt>
      <trkpt lat="44.09216" lon="7.03628">
        <ele>1493.7</ele>
        <time>2022-06-11T11:42:03Z</time>
      </trkpt>
      <trkpt lat="44.09217" lon="7.03626">
        <ele>1494.3</ele>
        <time>2022-06-11T11:42:04Z</time>
      </trkpt>
      <trkpt lat="44.09218" lon="7.03623">
        <ele>1494.9</ele>
        <time>2022-06-11T11:42:05Z</time>
      </trkpt>
      <trkpt lat="44.09219" lon="7.03621">
        <ele>1495.4</ele>
        <time>2022-06-11T11:42:06Z</time>
      </trkpt>
      <trkpt lat="44.0922" lon="7.03619">
        <ele>1495.8</ele>
        <time>2022-06-11T11:42:07Z</time>
      </trkpt>
      <trkpt lat="44.09222" lon="7.03617">
        <ele>1496.2</ele>
        <time>2022-06-11T11:42:08Z</time>
      </trkpt>
      <trkpt lat="44.09224" lon="7.03615">
        <ele>1496.6</ele>
        <time>2022-06-11T11:42:09Z</time>
      </trkpt>
      <trkpt lat="44.09225" lon="7.03614">
        <ele>1496.7</ele>
        <time>2022-06-11T11:42:10Z</time>
      </trkpt>
      <trkpt lat="44.09226" lon="7.03612">
        <ele>1497.1</ele>
        <time>2022-06-11T11:42:11Z</time>
      </trkpt>
      <trkpt lat="44.09228" lon="7.0361">
        <ele>1497.5</ele>
        <time>2022-06-11T11:42:12Z</time>
      </trkpt>
      <trkpt lat="44.09229" lon="7.03608">
        <ele>1497.9</ele>
        <time>2022-06-11T11:42:13Z</time>
      </trkpt>
      <trkpt lat="44.0923" lon="7.03607">
        <ele>1498.1</ele>
        <time>2022-06-11T11:42:14Z</time>
      </trkpt>
      <trkpt lat="44.09231" lon="7.03605">
        <ele>1498.5</ele>
        <time>2022-06-11T11:42:15Z</time>
      </trkpt>
      <trkpt lat="44.09233" lon="7.03604">
        <ele>1498.8</ele>
        <time>2022-06-11T11:42:16Z</time>
      </trkpt>
      <trkpt lat="44.09235" lon="7.03602">
        <ele>1499.2</ele>
        <time>2022-06-11T11:42:17Z</time>
      </trkpt>
      <trkpt lat="44.09237" lon="7.036">
        <ele>1499.4</ele>
        <time>2022-06-11T11:42:18Z</time>
      </trkpt>
      <trkpt lat="44.09238" lon="7.03599">
        <ele>1499.6</ele>
        <time>2022-06-11T11:42:19Z</time>
      </trkpt>
      <trkpt lat="44.0924" lon="7.03598">
        <ele>1499.7</ele>
        <time>2022-06-11T11:42:20Z</time>
      </trkpt>
      <trkpt lat="44.09241" lon="7.03596">
        <ele>1500</ele>
        <time>2022-06-11T11:42:21Z</time>
      </trkpt>
      <trkpt lat="44.09243" lon="7.03595">
        <ele>1500.2</ele>
        <time>2022-06-11T11:42:22Z</time>
      </trkpt>
      <trkpt lat="44.09246" lon="7.03594">
        <ele>1500</ele>
        <time>2022-06-11T11:42:23Z</time>
      </trkpt>
      <trkpt lat="44.09248" lon="7.03593">
        <ele>1500.1</ele>
        <time>2022-06-11T11:42:24Z</time>
      </trkpt>
      <trkpt lat="44.0925" lon="7.03591">
        <ele>1500.3</ele>
        <time>2022-06-11T11:42:25Z</time>
      </trkpt>
      <trkpt lat="44.09251" lon="7.0359">
        <ele>1500.5</ele>
        <time>2022-06-11T11:42:26Z</time>
      </trkpt>
      <trkpt lat="44.09253" lon="7.03589">
        <ele>1500.6</ele>
        <time>2022-06-11T11:42:27Z</time>
      </trkpt>
      <trkpt lat="44.09254" lon="7.03588">
        <ele>1500.6</ele>
        <time>2022-06-11T11:42:28Z</time>
      </trkpt>
      <trkpt lat="44.09256" lon="7.03587">
        <ele>1500.5</ele>
        <time>2022-06-11T11:42:29Z</time>
      </trkpt>
      <trkpt lat="44.09258" lon="7.03585">
        <ele>1500.5</ele>
        <time>2022-06-11T11:42:30Z</time>
      </trkpt>
      <trkpt lat="44.09261" lon="7.03584">
        <ele>1500.4</ele>
        <time>2022-06-11T11:42:31Z</time>
      </trkpt>
      <trkpt lat="44.09263" lon="7.03583">
        <ele>1500.4</ele>
        <time>2022-06-11T11:42:32Z</time>
      </trkpt>
      <trkpt lat="44.09264" lon="7.03582">
        <ele>1500.6</ele>
        <time>2022-06-11T11:42:33Z</time>
      </trkpt>
      <trkpt lat="44.09266" lon="7.0358">
        <ele>1500.6</ele>
        <time>2022-06-11T11:42:34Z</time>
      </trkpt>
      <trkpt lat="44.09269" lon="7.03579">
        <ele>1500.5</ele>
        <time>2022-06-11T11:42:35Z</time>
      </trkpt>
      <trkpt lat="44.09271" lon="7.03578">
        <ele>1500.5</ele>
        <time>2022-06-11T11:42:36Z</time>
      </trkpt>
      <trkpt lat="44.09273" lon="7.03577">
        <ele>1500.6</ele>
        <time>2022-06-11T11:42:37Z</time>
      </trkpt>
      <trkpt lat="44.09275" lon="7.03575">
        <ele>1500.7</ele>
        <time>2022-06-11T11:42:38Z</time>
      </trkpt>
      <trkpt lat="44.09277" lon="7.03574">
        <ele>1500.7</ele>
        <time>2022-06-11T11:42:39Z</time>
      </trkpt>
      <trkpt lat="44.09279" lon="7.03572">
        <ele>1500.9</ele>
        <time>2022-06-11T11:42:40Z</time>
      </trkpt>
      <trkpt lat="44.09281" lon="7.0357">
        <ele>1501</ele>
        <time>2022-06-11T11:42:41Z</time>
      </trkpt>
      <trkpt lat="44.09283" lon="7.03569">
        <ele>1501.2</ele>
        <time>2022-06-11T11:42:42Z</time>
      </trkpt>
      <trkpt lat="44.09285" lon="7.03567">
        <ele>1501.4</ele>
        <time>2022-06-11T11:42:43Z</time>
      </trkpt>
      <trkpt lat="44.09287" lon="7.03565">
        <ele>1501.7</ele>
        <time>2022-06-11T11:42:44Z</time>
      </trkpt>
      <trkpt lat="44.09288" lon="7.03563">
        <ele>1502</ele>
        <time>2022-06-11T11:42:45Z</time>
      </trkpt>
      <trkpt lat="44.0929" lon="7.03561">
        <ele>1502.5</ele>
        <time>2022-06-11T11:42:46Z</time>
      </trkpt>
      <trkpt lat="44.09292" lon="7.03559">
        <ele>1502.7</ele>
        <time>2022-06-11T11:42:47Z</time>
      </trkpt>
      <trkpt lat="44.09293" lon="7.03557">
        <ele>1503</ele>
        <time>2022-06-11T11:42:48Z</time>
      </trkpt>
      <trkpt lat="44.09295" lon="7.03556">
        <ele>1503.4</ele>
        <time>2022-06-11T11:42:49Z</time>
      </trkpt>
      <trkpt lat="44.09296" lon="7.03554">
        <ele>1503.5</ele>
        <time>2022-06-11T11:42:50Z</time>
      </trkpt>
      <trkpt lat="44.09298" lon="7.03553">
        <ele>1503.7</ele>
        <time>2022-06-11T11:42:51Z</time>
      </trkpt>
      <trkpt lat="44.09299" lon="7.03551">
        <ele>1503.9</ele>
        <time>2022-06-11T11:42:52Z</time>
      </trkpt>
      <trkpt lat="44.093" lon="7.0355">
        <ele>1504</ele>
        <time>2022-06-11T11:42:53Z</time>
      </trkpt>
      <trkpt lat="44.09302" lon="7.03549">
        <ele>1504</ele>
        <time>2022-06-11T11:42:54Z</time>
      </trkpt>
      <trkpt lat="44.09303" lon="7.03548">
        <ele>1504.1</ele>
        <time>2022-06-11T11:42:55Z</time>
      </trkpt>
      <trkpt lat="44.09305" lon="7.03547">
        <ele>1504</ele>
        <time>2022-06-11T11:42:56Z</time>
      </trkpt>
      <trkpt lat="44.09307" lon="7.03546">
        <ele>1503.8</ele>
        <time>2022-06-11T11:42:57Z</time>
      </trkpt>
      <trkpt lat="44.09309" lon="7.03545">
        <ele>1503.6</ele>
        <time>2022-06-11T11:42:58Z</time>
      </trkpt>
      <trkpt lat="44.09311" lon="7.03543">
        <ele>1503.4</ele>
        <time>2022-06-11T11:42:59Z</time>
      </trkpt>
      <trkpt lat="44.09313" lon="7.03542">
        <ele>1503.2</ele>
        <time>2022-06-11T11:43:00Z</time>
      </trkpt>
      <trkpt lat="44.09315" lon="7.0354">
        <ele>1502.9</ele>
        <time>2022-06-11T11:43:01Z</time>
      </trkpt>
      <trkpt lat="44.09317" lon="7.03538">
        <ele>1502.9</ele>
        <time>2022-06-11T11:43:02Z</time>
      </trkpt>
      <trkpt lat="44.09319" lon="7.03537">
        <ele>1502.7</ele>
        <time>2022-06-11T11:43:03Z</time>
      </trkpt>
      <trkpt lat="44.09322" lon="7.03535">
        <ele>1502.5</ele>
        <time>2022-06-11T11:43:04Z</time>
      </trkpt>
      <trkpt lat="44.09324" lon="7.03534">
        <ele>1502.3</ele>
        <time>2022-06-11T11:43:05Z</time>
      </trkpt>
      <trkpt lat="44.09326" lon="7.03532">
        <ele>1502.2</ele>
        <time>2022-06-11T11:43:06Z</time>
      </trkpt>
      <trkpt lat="44.09328" lon="7.0353">
        <ele>1502.1</ele>
        <time>2022-06-11T11:43:07Z</time>
      </trkpt>
      <trkpt lat="44.0933" lon="7.03528">
        <ele>1501.9</ele>
        <time>2022-06-11T11:43:08Z</time>
      </trkpt>
      <trkpt lat="44.09333" lon="7.03526">
        <ele>1501.7</ele>
        <time>2022-06-11T11:43:09Z</time>
      </trkpt>
      <trkpt lat="44.09335" lon="7.03524">
        <ele>1501.4</ele>
        <time>2022-06-11T11:43:10Z</time>
      </trkpt>
      <trkpt lat="44.09337" lon="7.03522">
        <ele>1501.3</ele>
        <time>2022-06-11T11:43:11Z</time>
      </trkpt>
      <trkpt lat="44.09338" lon="7.03519">
        <ele>1501.3</ele>
        <time>2022-06-11T11:43:12Z</time>
      </trkpt>
      <trkpt lat="44.0934" lon="7.03515">
        <ele>1501.4</ele>
        <time>2022-06-11T11:43:13Z</time>
      </trkpt>
      <trkpt lat="44.09342" lon="7.03512">
        <ele>1501.6</ele>
        <time>2022-06-11T11:43:14Z</time>
      </trkpt>
      <trkpt lat="44.09343" lon="7.03509">
        <ele>1501.8</ele>
        <time>2022-06-11T11:43:15Z</time>
      </trkpt>
      <trkpt lat="44.09344" lon="7.03506">
        <ele>1501.9</ele>
        <time>2022-06-11T11:43:16Z</time>
      </trkpt>
      <trkpt lat="44.09346" lon="7.03503">
        <ele>1502.1</ele>
        <time>2022-06-11T11:43:17Z</time>
      </trkpt>
      <trkpt lat="44.09347" lon="7.035">
        <ele>1502.2</ele>
        <time>2022-06-11T11:43:18Z</time>
      </trkpt>
      <trkpt lat="44.09348" lon="7.03496">
        <ele>1502.2</ele>
        <time>2022-06-11T11:43:19Z</time>
      </trkpt>
      <trkpt lat="44.09349" lon="7.03493">
        <ele>1502.4</ele>
        <time>2022-06-11T11:43:20Z</time>
      </trkpt>
      <trkpt lat="44.0935" lon="7.03489">
        <ele>1502.7</ele>
        <time>2022-06-11T11:43:21Z</time>
      </trkpt>
      <trkpt lat="44.09351" lon="7.03486">
        <ele>1503.2</ele>
        <time>2022-06-11T11:43:22Z</time>
      </trkpt>
      <trkpt lat="44.09351" lon="7.03482">
        <ele>1503.9</ele>
        <time>2022-06-11T11:43:23Z</time>
      </trkpt>
      <trkpt lat="44.0935" lon="7.03478">
        <ele>1504.9</ele>
        <time>2022-06-11T11:43:24Z</time>
      </trkpt>
      <trkpt lat="44.09348" lon="7.03475">
        <ele>1506.3</ele>
        <time>2022-06-11T11:43:25Z</time>
      </trkpt>
      <trkpt lat="44.09345" lon="7.03473">
        <ele>1507.8</ele>
        <time>2022-06-11T11:43:26Z</time>
      </trkpt>
      <trkpt lat="44.09343" lon="7.03472">
        <ele>1508.9</ele>
        <time>2022-06-11T11:43:27Z</time>
      </trkpt>
      <trkpt lat="44.0934" lon="7.03472">
        <ele>1510.1</ele>
        <time>2022-06-11T11:43:28Z</time>
      </trkpt>
      <trkpt lat="44.09338" lon="7.03473">
        <ele>1510.8</ele>
        <time>2022-06-11T11:43:29Z</time>
      </trkpt>
      <trkpt lat="44.09336" lon="7.03475">
        <ele>1511.4</ele>
        <time>2022-06-11T11:43:30Z</time>
      </trkpt>
      <trkpt lat="44.09334" lon="7.03477">
        <ele>1511.8</ele>
        <time>2022-06-11T11:43:31Z</time>
      </trkpt>
      <trkpt lat="44.09332" lon="7.0348">
        <ele>1512.1</ele>
        <time>2022-06-11T11:43:32Z</time>
      </trkpt>
      <trkpt lat="44.0933" lon="7.03482">
        <ele>1512.5</ele>
        <time>2022-06-11T11:43:33Z</time>
      </trkpt>
      <trkpt lat="44.09328" lon="7.03485">
        <ele>1512.6</ele>
        <time>2022-06-11T11:43:34Z</time>
      </trkpt>
      <trkpt lat="44.09327" lon="7.03487">
        <ele>1512.8</ele>
        <time>2022-06-11T11:43:35Z</time>
      </trkpt>
      <trkpt lat="44.09325" lon="7.03489">
        <ele>1512.9</ele>
        <time>2022-06-11T11:43:36Z</time>
      </trkpt>
      <trkpt lat="44.09324" lon="7.03492">
        <ele>1512.8</ele>
        <time>2022-06-11T11:43:37Z</time>
      </trkpt>
      <trkpt lat="44.09322" lon="7.03495">
        <ele>1512.6</ele>
        <time>2022-06-11T11:43:38Z</time>
      </trkpt>
      <trkpt lat="44.09321" lon="7.03498">
        <ele>1512.4</ele>
        <time>2022-06-11T11:43:39Z</time>
      </trkpt>
      <trkpt lat="44.0932" lon="7.03501">
        <ele>1512.2</ele>
        <time>2022-06-11T11:43:40Z</time>
      </trkpt>
      <trkpt lat="44.09318" lon="7.03503">
        <ele>1512.3</ele>
        <time>2022-06-11T11:43:41Z</time>
      </trkpt>
      <trkpt lat="44.09316" lon="7.03505">
        <ele>1512.3</ele>
        <time>2022-06-11T11:43:42Z</time>
      </trkpt>
      <trkpt lat="44.09314" lon="7.03507">
        <ele>1512.6</ele>
        <time>2022-06-11T11:43:43Z</time>
      </trkpt>
      <trkpt lat="44.09312" lon="7.03508">
        <ele>1512.9</ele>
        <time>2022-06-11T11:43:44Z</time>
      </trkpt>
      <trkpt lat="44.09311" lon="7.0351">
        <ele>1513</ele>
        <time>2022-06-11T11:43:45Z</time>
      </trkpt>
      <trkpt lat="44.09309" lon="7.03511">
        <ele>1513.2</ele>
        <time>2022-06-11T11:43:46Z</time>
      </trkpt>
      <trkpt lat="44.09307" lon="7.03513">
        <ele>1513.4</ele>
        <time>2022-06-11T11:43:47Z</time>
      </trkpt>
      <trkpt lat="44.09305" lon="7.03515">
        <ele>1513.6</ele>
        <time>2022-06-11T11:43:48Z</time>
      </trkpt>
      <trkpt lat="44.09303" lon="7.03516">
        <ele>1513.7</ele>
        <time>2022-06-11T11:43:49Z</time>
      </trkpt>
      <trkpt lat="44.09301" lon="7.03517">
        <ele>1513.9</ele>
        <time>2022-06-11T11:43:50Z</time>
      </trkpt>
      <trkpt lat="44.09298" lon="7.03518">
        <ele>1514.2</ele>
        <time>2022-06-11T11:43:51Z</time>
      </trkpt>
      <trkpt lat="44.09296" lon="7.03519">
        <ele>1514.4</ele>
        <time>2022-06-11T11:43:52Z</time>
      </trkpt>
      <trkpt lat="44.09294" lon="7.0352">
        <ele>1514.7</ele>
        <time>2022-06-11T11:43:53Z</time>
      </trkpt>
      <trkpt lat="44.09292" lon="7.03521">
        <ele>1515</ele>
        <time>2022-06-11T11:43:54Z</time>
      </trkpt>
      <trkpt lat="44.09289" lon="7.03522">
        <ele>1515.2</ele>
        <time>2022-06-11T11:43:55Z</time>
      </trkpt>
      <trkpt lat="44.09287" lon="7.03523">
        <ele>1515.6</ele>
        <time>2022-06-11T11:43:56Z</time>
      </trkpt>
      <trkpt lat="44.09285" lon="7.03523">
        <ele>1515.9</ele>
        <time>2022-06-11T11:43:57Z</time>
      </trkpt>
      <trkpt lat="44.09283" lon="7.03524">
        <ele>1516.3</ele>
        <time>2022-06-11T11:43:58Z</time>
      </trkpt>
      <trkpt lat="44.09281" lon="7.03525">
        <ele>1516.4</ele>
        <time>2022-06-11T11:43:59Z</time>
      </trkpt>
      <trkpt lat="44.09279" lon="7.03526">
        <ele>1516.5</ele>
        <time>2022-06-11T11:44:00Z</time>
      </trkpt>
      <trkpt lat="44.09276" lon="7.03527">
        <ele>1516.6</ele>
        <time>2022-06-11T11:44:01Z</time>
      </trkpt>
      <trkpt lat="44.09274" lon="7.03528">
        <ele>1516.8</ele>
        <time>2022-06-11T11:44:02Z</time>
      </trkpt>
      <trkpt lat="44.09272" lon="7.03529">
        <ele>1517.1</ele>
        <time>2022-06-11T11:44:03Z</time>
      </trkpt>
      <trkpt lat="44.0927" lon="7.03529">
        <ele>1517.4</ele>
        <time>2022-06-11T11:44:04Z</time>
      </trkpt>
      <trkpt lat="44.09267" lon="7.03529">
        <ele>1517.9</ele>
        <time>2022-06-11T11:44:05Z</time>
      </trkpt>
      <trkpt lat="44.09265" lon="7.0353">
        <ele>1518.1</ele>
        <time>2022-06-11T11:44:06Z</time>
      </trkpt>
      <trkpt lat="44.09262" lon="7.03531">
        <ele>1518.4</ele>
        <time>2022-06-11T11:44:07Z</time>
      </trkpt>
      <trkpt lat="44.0926" lon="7.03531">
        <ele>1518.7</ele>
        <time>2022-06-11T11:44:08Z</time>
      </trkpt>
      <trkpt lat="44.09258" lon="7.03532">
        <ele>1519.1</ele>
        <time>2022-06-11T11:44:09Z</time>
      </trkpt>
      <trkpt lat="44.09255" lon="7.03533">
        <ele>1519.3</ele>
        <time>2022-06-11T11:44:10Z</time>
      </trkpt>
      <trkpt lat="44.09253" lon="7.03533">
        <ele>1519.6</ele>
        <time>2022-06-11T11:44:11Z</time>
      </trkpt>
      <trkpt lat="44.09251" lon="7.03534">
        <ele>1519.9</ele>
        <time>2022-06-11T11:44:12Z</time>
      </trkpt>
      <trkpt lat="44.09248" lon="7.03535">
        <ele>1519.9</ele>
        <time>2022-06-11T11:44:13Z</time>
      </trkpt>
      <trkpt lat="44.09246" lon="7.03536">
        <ele>1519.9</ele>
        <time>2022-06-11T11:44:14Z</time>
      </trkpt>
      <trkpt lat="44.09244" lon="7.03537">
        <ele>1519.9</ele>
        <time>2022-06-11T11:44:15Z</time>
      </trkpt>
      <trkpt lat="44.09241" lon="7.03537">
        <ele>1520</ele>
        <time>2022-06-11T11:44:16Z</time>
      </trkpt>
      <trkpt lat="44.09239" lon="7.03538">
        <ele>1520.1</ele>
        <time>2022-06-11T11:44:17Z</time>
      </trkpt>
      <trkpt lat="44.09237" lon="7.03538">
        <ele>1520.2</ele>
        <time>2022-06-11T11:44:18Z</time>
      </trkpt>
      <trkpt lat="44.09235" lon="7.03539">
        <ele>1520.3</ele>
        <time>2022-06-11T11:44:19Z</time>
      </trkpt>
      <trkpt lat="44.09233" lon="7.03539">
        <ele>1520.5</ele>
        <time>2022-06-11T11:44:20Z</time>
      </trkpt>
      <trkpt lat="44.09231" lon="7.0354">
        <ele>1520.6</ele>
        <time>2022-06-11T11:44:21Z</time>
      </trkpt>
      <trkpt lat="44.09229" lon="7.0354">
        <ele>1520.7</ele>
        <time>2022-06-11T11:44:22Z</time>
      </trkpt>
      <trkpt lat="44.09226" lon="7.03541">
        <ele>1520.7</ele>
        <time>2022-06-11T11:44:23Z</time>
      </trkpt>
      <trkpt lat="44.09224" lon="7.03542">
        <ele>1520.7</ele>
        <time>2022-06-11T11:44:24Z</time>
      </trkpt>
      <trkpt lat="44.09222" lon="7.03543">
        <ele>1520.6</ele>
        <time>2022-06-11T11:44:25Z</time>
      </trkpt>
      <trkpt lat="44.0922" lon="7.03544">
        <ele>1520.6</ele>
        <time>2022-06-11T11:44:26Z</time>
      </trkpt>
      <trkpt lat="44.09218" lon="7.03545">
        <ele>1520.5</ele>
        <time>2022-06-11T11:44:27Z</time>
      </trkpt>
      <trkpt lat="44.09216" lon="7.03546">
        <ele>1520.4</ele>
        <time>2022-06-11T11:44:28Z</time>
      </trkpt>
      <trkpt lat="44.09214" lon="7.03547">
        <ele>1520.3</ele>
        <time>2022-06-11T11:44:29Z</time>
      </trkpt>
      <trkpt lat="44.09211" lon="7.03547">
        <ele>1520.3</ele>
        <time>2022-06-11T11:44:30Z</time>
      </trkpt>
      <trkpt lat="44.09209" lon="7.03548">
        <ele>1520.4</ele>
        <time>2022-06-11T11:44:31Z</time>
      </trkpt>
      <trkpt lat="44.09207" lon="7.03548">
        <ele>1520.5</ele>
        <time>2022-06-11T11:44:32Z</time>
      </trkpt>
      <trkpt lat="44.09205" lon="7.03548">
        <ele>1520.7</ele>
        <time>2022-06-11T11:44:33Z</time>
      </trkpt>
      <trkpt lat="44.09202" lon="7.03549">
        <ele>1520.8</ele>
        <time>2022-06-11T11:44:34Z</time>
      </trkpt>
      <trkpt lat="44.092" lon="7.03549">
        <ele>1521</ele>
        <time>2022-06-11T11:44:35Z</time>
      </trkpt>
      <trkpt lat="44.09198" lon="7.03549">
        <ele>1521.1</ele>
        <time>2022-06-11T11:44:36Z</time>
      </trkpt>
      <trkpt lat="44.09196" lon="7.0355">
        <ele>1521.2</ele>
        <time>2022-06-11T11:44:37Z</time>
      </trkpt>
      <trkpt lat="44.09193" lon="7.0355">
        <ele>1521.2</ele>
        <time>2022-06-11T11:44:38Z</time>
      </trkpt>
      <trkpt lat="44.09191" lon="7.03551">
        <ele>1521</ele>
        <time>2022-06-11T11:44:39Z</time>
      </trkpt>
      <trkpt lat="44.09189" lon="7.03551">
        <ele>1520.9</ele>
        <time>2022-06-11T11:44:40Z</time>
      </trkpt>
      <trkpt lat="44.09186" lon="7.03552">
        <ele>1520.7</ele>
        <time>2022-06-11T11:44:41Z</time>
      </trkpt>
      <trkpt lat="44.09184" lon="7.03552">
        <ele>1520.7</ele>
        <time>2022-06-11T11:44:42Z</time>
      </trkpt>
      <trkpt lat="44.09182" lon="7.03552">
        <ele>1520.6</ele>
        <time>2022-06-11T11:44:43Z</time>
      </trkpt>
      <trkpt lat="44.0918" lon="7.03552">
        <ele>1520.6</ele>
        <time>2022-06-11T11:44:44Z</time>
      </trkpt>
      <trkpt lat="44.09177" lon="7.03552">
        <ele>1520.7</ele>
        <time>2022-06-11T11:44:45Z</time>
      </trkpt>
      <trkpt lat="44.09175" lon="7.03551">
        <ele>1520.8</ele>
        <time>2022-06-11T11:44:46Z</time>
      </trkpt>
      <trkpt lat="44.09173" lon="7.03551">
        <ele>1520.8</ele>
        <time>2022-06-11T11:44:47Z</time>
      </trkpt>
      <trkpt lat="44.0917" lon="7.03551">
        <ele>1520.8</ele>
        <time>2022-06-11T11:44:48Z</time>
      </trkpt>
      <trkpt lat="44.09168" lon="7.0355">
        <ele>1520.8</ele>
        <time>2022-06-11T11:44:49Z</time>
      </trkpt>
      <trkpt lat="44.09166" lon="7.03549">
        <ele>1520.8</ele>
        <time>2022-06-11T11:44:50Z</time>
      </trkpt>
      <trkpt lat="44.09163" lon="7.03548">
        <ele>1520.8</ele>
        <time>2022-06-11T11:44:51Z</time>
      </trkpt>
      <trkpt lat="44.09161" lon="7.03547">
        <ele>1520.8</ele>
        <time>2022-06-11T11:44:52Z</time>
      </trkpt>
      <trkpt lat="44.09159" lon="7.03545">
        <ele>1520.8</ele>
        <time>2022-06-11T11:44:53Z</time>
      </trkpt>
      <trkpt lat="44.09157" lon="7.03544">
        <ele>1520.9</ele>
        <time>2022-06-11T11:44:54Z</time>
      </trkpt>
      <trkpt lat="44.09155" lon="7.03542">
        <ele>1521</ele>
        <time>2022-06-11T11:44:55Z</time>
      </trkpt>
      <trkpt lat="44.09154" lon="7.03539">
        <ele>1521.2</ele>
        <time>2022-06-11T11:44:56Z</time>
      </trkpt>
      <trkpt lat="44.09152" lon="7.03537">
        <ele>1521.4</ele>
        <time>2022-06-11T11:44:57Z</time>
      </trkpt>
      <trkpt lat="44.09151" lon="7.03534">
        <ele>1521.5</ele>
        <time>2022-06-11T11:44:58Z</time>
      </trkpt>
      <trkpt lat="44.0915" lon="7.03531">
        <ele>1521.7</ele>
        <time>2022-06-11T11:44:59Z</time>
      </trkpt>
      <trkpt lat="44.09149" lon="7.03529">
        <ele>1522</ele>
        <time>2022-06-11T11:45:00Z</time>
      </trkpt>
      <trkpt lat="44.09149" lon="7.03526">
        <ele>1522.2</ele>
        <time>2022-06-11T11:45:01Z</time>
      </trkpt>
      <trkpt lat="44.09148" lon="7.03522">
        <ele>1522.3</ele>
        <time>2022-06-11T11:45:02Z</time>
      </trkpt>
      <trkpt lat="44.09148" lon="7.03519">
        <ele>1522.5</ele>
        <time>2022-06-11T11:45:03Z</time>
      </trkpt>
      <trkpt lat="44.09148" lon="7.03516">
        <ele>1522.7</ele>
        <time>2022-06-11T11:45:04Z</time>
      </trkpt>
      <trkpt lat="44.09149" lon="7.03514">
        <ele>1522.9</ele>
        <time>2022-06-11T11:45:05Z</time>
      </trkpt>
      <trkpt lat="44.09149" lon="7.0351">
        <ele>1523.2</ele>
        <time>2022-06-11T11:45:06Z</time>
      </trkpt>
      <trkpt lat="44.0915" lon="7.03507">
        <ele>1523.5</ele>
        <time>2022-06-11T11:45:07Z</time>
      </trkpt>
      <trkpt lat="44.09151" lon="7.03504">
        <ele>1523.8</ele>
        <time>2022-06-11T11:45:08Z</time>
      </trkpt>
      <trkpt lat="44.09151" lon="7.03501">
        <ele>1524.1</ele>
        <time>2022-06-11T11:45:09Z</time>
      </trkpt>
      <trkpt lat="44.09152" lon="7.03499">
        <ele>1524.4</ele>
        <time>2022-06-11T11:45:10Z</time>
      </trkpt>
      <trkpt lat="44.09153" lon="7.03496">
        <ele>1524.8</ele>
        <time>2022-06-11T11:45:11Z</time>
      </trkpt>
      <trkpt lat="44.09154" lon="7.03494">
        <ele>1525.1</ele>
        <time>2022-06-11T11:45:12Z</time>
      </trkpt>
      <trkpt lat="44.09156" lon="7.03491">
        <ele>1525.6</ele>
        <time>2022-06-11T11:45:13Z</time>
      </trkpt>
      <trkpt lat="44.09157" lon="7.03489">
        <ele>1525.9</ele>
        <time>2022-06-11T11:45:14Z</time>
      </trkpt>
      <trkpt lat="44.09158" lon="7.03486">
        <ele>1526.4</ele>
        <time>2022-06-11T11:45:15Z</time>
      </trkpt>
      <trkpt lat="44.0916" lon="7.03483">
        <ele>1526.8</ele>
        <time>2022-06-11T11:45:16Z</time>
      </trkpt>
      <trkpt lat="44.0916" lon="7.0348">
        <ele>1527.1</ele>
        <time>2022-06-11T11:45:17Z</time>
      </trkpt>
      <trkpt lat="44.09162" lon="7.03477">
        <ele>1527.6</ele>
        <time>2022-06-11T11:45:18Z</time>
      </trkpt>
      <trkpt lat="44.09163" lon="7.03474">
        <ele>1528.2</ele>
        <time>2022-06-11T11:45:19Z</time>
      </trkpt>
      <trkpt lat="44.09165" lon="7.03471">
        <ele>1528.8</ele>
        <time>2022-06-11T11:45:20Z</time>
      </trkpt>
      <trkpt lat="44.09167" lon="7.03468">
        <ele>1529.5</ele>
        <time>2022-06-11T11:45:21Z</time>
      </trkpt>
      <trkpt lat="44.09168" lon="7.03465">
        <ele>1530</ele>
        <time>2022-06-11T11:45:22Z</time>
      </trkpt>
      <trkpt lat="44.0917" lon="7.03462">
        <ele>1530.6</ele>
        <time>2022-06-11T11:45:23Z</time>
      </trkpt>
      <trkpt lat="44.09171" lon="7.03459">
        <ele>1531.2</ele>
        <time>2022-06-11T11:45:24Z</time>
      </trkpt>
      <trkpt lat="44.09172" lon="7.03455">
        <ele>1531.8</ele>
        <time>2022-06-11T11:45:25Z</time>
      </trkpt>
      <trkpt lat="44.09172" lon="7.03451">
        <ele>1532.3</ele>
        <time>2022-06-11T11:45:26Z</time>
      </trkpt>
      <trkpt lat="44.09172" lon="7.03447">
        <ele>1532.6</ele>
        <time>2022-06-11T11:45:27Z</time>
      </trkpt>
      <trkpt lat="44.09172" lon="7.03443">
        <ele>1533.1</ele>
        <time>2022-06-11T11:45:28Z</time>
      </trkpt>
      <trkpt lat="44.09171" lon="7.03439">
        <ele>1533.5</ele>
        <time>2022-06-11T11:45:29Z</time>
      </trkpt>
      <trkpt lat="44.0917" lon="7.03435">
        <ele>1533.9</ele>
        <time>2022-06-11T11:45:30Z</time>
      </trkpt>
      <trkpt lat="44.09169" lon="7.03431">
        <ele>1534.2</ele>
        <time>2022-06-11T11:45:31Z</time>
      </trkpt>
      <trkpt lat="44.09167" lon="7.03428">
        <ele>1534.4</ele>
        <time>2022-06-11T11:45:32Z</time>
      </trkpt>
      <trkpt lat="44.09165" lon="7.03426">
        <ele>1534.5</ele>
        <time>2022-06-11T11:45:33Z</time>
      </trkpt>
      <trkpt lat="44.09163" lon="7.03423">
        <ele>1534.7</ele>
        <time>2022-06-11T11:45:34Z</time>
      </trkpt>
      <trkpt lat="44.09161" lon="7.03421">
        <ele>1534.8</ele>
        <time>2022-06-11T11:45:35Z</time>
      </trkpt>
      <trkpt lat="44.0916" lon="7.03418">
        <ele>1535</ele>
        <time>2022-06-11T11:45:36Z</time>
      </trkpt>
      <trkpt lat="44.09158" lon="7.03416">
        <ele>1535.1</ele>
        <time>2022-06-11T11:45:37Z</time>
      </trkpt>
      <trkpt lat="44.09156" lon="7.03414">
        <ele>1535.2</ele>
        <time>2022-06-11T11:45:38Z</time>
      </trkpt>
      <trkpt lat="44.09154" lon="7.03413">
        <ele>1535.2</ele>
        <time>2022-06-11T11:45:39Z</time>
      </trkpt>
      <trkpt lat="44.09151" lon="7.03412">
        <ele>1535.1</ele>
        <time>2022-06-11T11:45:40Z</time>
      </trkpt>
      <trkpt lat="44.09149" lon="7.03412">
        <ele>1534.9</ele>
        <time>2022-06-11T11:45:41Z</time>
      </trkpt>
      <trkpt lat="44.09147" lon="7.03411">
        <ele>1534.8</ele>
        <time>2022-06-11T11:45:42Z</time>
      </trkpt>
      <trkpt lat="44.09145" lon="7.0341">
        <ele>1534.8</ele>
        <time>2022-06-11T11:45:43Z</time>
      </trkpt>
      <trkpt lat="44.09143" lon="7.03409">
        <ele>1534.7</ele>
        <time>2022-06-11T11:45:44Z</time>
      </trkpt>
      <trkpt lat="44.09141" lon="7.03408">
        <ele>1534.8</ele>
        <time>2022-06-11T11:45:45Z</time>
      </trkpt>
      <trkpt lat="44.09139" lon="7.03407">
        <ele>1534.8</ele>
        <time>2022-06-11T11:45:46Z</time>
      </trkpt>
      <trkpt lat="44.09136" lon="7.03406">
        <ele>1534.8</ele>
        <time>2022-06-11T11:45:47Z</time>
      </trkpt>
      <trkpt lat="44.09134" lon="7.03405">
        <ele>1534.8</ele>
        <time>2022-06-11T11:45:48Z</time>
      </trkpt>
      <trkpt lat="44.09132" lon="7.03405">
        <ele>1534.9</ele>
        <time>2022-06-11T11:45:49Z</time>
      </trkpt>
      <trkpt lat="44.0913" lon="7.03404">
        <ele>1534.9</ele>
        <time>2022-06-11T11:45:50Z</time>
      </trkpt>
      <trkpt lat="44.09128" lon="7.03403">
        <ele>1535.1</ele>
        <time>2022-06-11T11:45:51Z</time>
      </trkpt>
      <trkpt lat="44.09126" lon="7.03402">
        <ele>1535.2</ele>
        <time>2022-06-11T11:45:52Z</time>
      </trkpt>
      <trkpt lat="44.09124" lon="7.03401">
        <ele>1535.5</ele>
        <time>2022-06-11T11:45:53Z</time>
      </trkpt>
      <trkpt lat="44.09122" lon="7.03399">
        <ele>1535.7</ele>
        <time>2022-06-11T11:45:54Z</time>
      </trkpt>
      <trkpt lat="44.0912" lon="7.03398">
        <ele>1536</ele>
        <time>2022-06-11T11:45:55Z</time>
      </trkpt>
      <trkpt lat="44.09118" lon="7.03397">
        <ele>1536.1</ele>
        <time>2022-06-11T11:45:56Z</time>
      </trkpt>
      <trkpt lat="44.09115" lon="7.03396">
        <ele>1536.3</ele>
        <time>2022-06-11T11:45:57Z</time>
      </trkpt>
      <trkpt lat="44.09113" lon="7.03395">
        <ele>1536.6</ele>
        <time>2022-06-11T11:45:58Z</time>
      </trkpt>
      <trkpt lat="44.09111" lon="7.03394">
        <ele>1536.8</ele>
        <time>2022-06-11T11:45:59Z</time>
      </trkpt>
      <trkpt lat="44.09108" lon="7.03393">
        <ele>1536.9</ele>
        <time>2022-06-11T11:46:00Z</time>
      </trkpt>
      <trkpt lat="44.09106" lon="7.03392">
        <ele>1537</ele>
        <time>2022-06-11T11:46:01Z</time>
      </trkpt>
      <trkpt lat="44.09104" lon="7.03391">
        <ele>1537.1</ele>
        <time>2022-06-11T11:46:02Z</time>
      </trkpt>
      <trkpt lat="44.09101" lon="7.03391">
        <ele>1537.2</ele>
        <time>2022-06-11T11:46:03Z</time>
      </trkpt>
      <trkpt lat="44.09099" lon="7.0339">
        <ele>1537.3</ele>
        <time>2022-06-11T11:46:04Z</time>
      </trkpt>
      <trkpt lat="44.09097" lon="7.0339">
        <ele>1537.3</ele>
        <time>2022-06-11T11:46:05Z</time>
      </trkpt>
      <trkpt lat="44.09094" lon="7.0339">
        <ele>1537.2</ele>
        <time>2022-06-11T11:46:06Z</time>
      </trkpt>
      <trkpt lat="44.09092" lon="7.0339">
        <ele>1537.1</ele>
        <time>2022-06-11T11:46:07Z</time>
      </trkpt>
      <trkpt lat="44.0909" lon="7.03389">
        <ele>1537.1</ele>
        <time>2022-06-11T11:46:08Z</time>
      </trkpt>
      <trkpt lat="44.09088" lon="7.03389">
        <ele>1537.1</ele>
        <time>2022-06-11T11:46:09Z</time>
      </trkpt>
      <trkpt lat="44.09085" lon="7.03389">
        <ele>1537</ele>
        <time>2022-06-11T11:46:10Z</time>
      </trkpt>
      <trkpt lat="44.09083" lon="7.03389">
        <ele>1536.9</ele>
        <time>2022-06-11T11:46:11Z</time>
      </trkpt>
      <trkpt lat="44.0908" lon="7.03389">
        <ele>1537</ele>
        <time>2022-06-11T11:46:12Z</time>
      </trkpt>
      <trkpt lat="44.09078" lon="7.03388">
        <ele>1537</ele>
        <time>2022-06-11T11:46:13Z</time>
      </trkpt>
      <trkpt lat="44.09076" lon="7.03388">
        <ele>1537</ele>
        <time>2022-06-11T11:46:14Z</time>
      </trkpt>
      <trkpt lat="44.09073" lon="7.03387">
        <ele>1537.1</ele>
        <time>2022-06-11T11:46:15Z</time>
      </trkpt>
      <trkpt lat="44.09071" lon="7.03386">
        <ele>1537.2</ele>
        <time>2022-06-11T11:46:16Z</time>
      </trkpt>
      <trkpt lat="44.09068" lon="7.03385">
        <ele>1537.2</ele>
        <time>2022-06-11T11:46:17Z</time>
      </trkpt>
      <trkpt lat="44.09066" lon="7.03385">
        <ele>1537.2</ele>
        <time>2022-06-11T11:46:18Z</time>
      </trkpt>
      <trkpt lat="44.09064" lon="7.03384">
        <ele>1537.2</ele>
        <time>2022-06-11T11:46:19Z</time>
      </trkpt>
      <trkpt lat="44.09063" lon="7.03384">
        <ele>1537.2</ele>
        <time>2022-06-11T11:46:20Z</time>
      </trkpt>
      <trkpt lat="44.09061" lon="7.03384">
        <ele>1537.1</ele>
        <time>2022-06-11T11:46:21Z</time>
      </trkpt>
      <trkpt lat="44.09059" lon="7.03384">
        <ele>1537</ele>
        <time>2022-06-11T11:46:22Z</time>
      </trkpt>
      <trkpt lat="44.09056" lon="7.03384">
        <ele>1537</ele>
        <time>2022-06-11T11:46:23Z</time>
      </trkpt>
      <trkpt lat="44.09054" lon="7.03382">
        <ele>1537</ele>
        <time>2022-06-11T11:46:24Z</time>
      </trkpt>
      <trkpt lat="44.09053" lon="7.03379">
        <ele>1537.3</ele>
        <time>2022-06-11T11:46:25Z</time>
      </trkpt>
      <trkpt lat="44.09052" lon="7.03376">
        <ele>1537.8</ele>
        <time>2022-06-11T11:46:26Z</time>
      </trkpt>
      <trkpt lat="44.09052" lon="7.03372">
        <ele>1538.5</ele>
        <time>2022-06-11T11:46:27Z</time>
      </trkpt>
      <trkpt lat="44.09053" lon="7.03368">
        <ele>1539.3</ele>
        <time>2022-06-11T11:46:28Z</time>
      </trkpt>
      <trkpt lat="44.09055" lon="7.03365">
        <ele>1540.1</ele>
        <time>2022-06-11T11:46:29Z</time>
      </trkpt>
      <trkpt lat="44.09057" lon="7.03364">
        <ele>1540.6</ele>
        <time>2022-06-11T11:46:30Z</time>
      </trkpt>
      <trkpt lat="44.09059" lon="7.03363">
        <ele>1540.9</ele>
        <time>2022-06-11T11:46:31Z</time>
      </trkpt>
      <trkpt lat="44.09062" lon="7.03363">
        <ele>1541.1</ele>
        <time>2022-06-11T11:46:32Z</time>
      </trkpt>
      <trkpt lat="44.09065" lon="7.03363">
        <ele>1541.3</ele>
        <time>2022-06-11T11:46:33Z</time>
      </trkpt>
      <trkpt lat="44.09067" lon="7.03363">
        <ele>1541.4</ele>
        <time>2022-06-11T11:46:34Z</time>
      </trkpt>
      <trkpt lat="44.09069" lon="7.03363">
        <ele>1541.6</ele>
        <time>2022-06-11T11:46:35Z</time>
      </trkpt>
      <trkpt lat="44.09071" lon="7.03363">
        <ele>1541.7</ele>
        <time>2022-06-11T11:46:36Z</time>
      </trkpt>
      <trkpt lat="44.09073" lon="7.03363">
        <ele>1542</ele>
        <time>2022-06-11T11:46:37Z</time>
      </trkpt>
      <trkpt lat="44.09076" lon="7.03362">
        <ele>1542.2</ele>
        <time>2022-06-11T11:46:38Z</time>
      </trkpt>
      <trkpt lat="44.09078" lon="7.03362">
        <ele>1542.5</ele>
        <time>2022-06-11T11:46:39Z</time>
      </trkpt>
      <trkpt lat="44.0908" lon="7.03361">
        <ele>1542.8</ele>
        <time>2022-06-11T11:46:40Z</time>
      </trkpt>
      <trkpt lat="44.09082" lon="7.0336">
        <ele>1543</ele>
        <time>2022-06-11T11:46:41Z</time>
      </trkpt>
      <trkpt lat="44.09084" lon="7.0336">
        <ele>1543.2</ele>
        <time>2022-06-11T11:46:42Z</time>
      </trkpt>
      <trkpt lat="44.09086" lon="7.03359">
        <ele>1543.4</ele>
        <time>2022-06-11T11:46:43Z</time>
      </trkpt>
      <trkpt lat="44.09088" lon="7.03357">
        <ele>1543.6</ele>
        <time>2022-06-11T11:46:44Z</time>
      </trkpt>
      <trkpt lat="44.0909" lon="7.03355">
        <ele>1543.8</ele>
        <time>2022-06-11T11:46:45Z</time>
      </trkpt>
      <trkpt lat="44.09092" lon="7.03354">
        <ele>1544.1</ele>
        <time>2022-06-11T11:46:46Z</time>
      </trkpt>
      <trkpt lat="44.09093" lon="7.03352">
        <ele>1544.3</ele>
        <time>2022-06-11T11:46:47Z</time>
      </trkpt>
      <trkpt lat="44.09095" lon="7.03351">
        <ele>1544.5</ele>
        <time>2022-06-11T11:46:48Z</time>
      </trkpt>
      <trkpt lat="44.09097" lon="7.03349">
        <ele>1544.8</ele>
        <time>2022-06-11T11:46:49Z</time>
      </trkpt>
      <trkpt lat="44.09098" lon="7.03346">
        <ele>1545.1</ele>
        <time>2022-06-11T11:46:50Z</time>
      </trkpt>
      <trkpt lat="44.091" lon="7.03344">
        <ele>1545.4</ele>
        <time>2022-06-11T11:46:51Z</time>
      </trkpt>
      <trkpt lat="44.09101" lon="7.03342">
        <ele>1545.7</ele>
        <time>2022-06-11T11:46:52Z</time>
      </trkpt>
      <trkpt lat="44.09103" lon="7.0334">
        <ele>1546</ele>
        <time>2022-06-11T11:46:53Z</time>
      </trkpt>
      <trkpt lat="44.09105" lon="7.03338">
        <ele>1546.3</ele>
        <time>2022-06-11T11:46:54Z</time>
      </trkpt>
      <trkpt lat="44.09106" lon="7.03336">
        <ele>1546.6</ele>
        <time>2022-06-11T11:46:55Z</time>
      </trkpt>
      <trkpt lat="44.09108" lon="7.03335">
        <ele>1546.8</ele>
        <time>2022-06-11T11:46:56Z</time>
      </trkpt>
      <trkpt lat="44.0911" lon="7.03332">
        <ele>1547.2</ele>
        <time>2022-06-11T11:46:57Z</time>
      </trkpt>
      <trkpt lat="44.09111" lon="7.0333">
        <ele>1547.5</ele>
        <time>2022-06-11T11:46:58Z</time>
      </trkpt>
      <trkpt lat="44.09113" lon="7.03328">
        <ele>1547.8</ele>
        <time>2022-06-11T11:46:59Z</time>
      </trkpt>
      <trkpt lat="44.09115" lon="7.03326">
        <ele>1548</ele>
        <time>2022-06-11T11:47:00Z</time>
      </trkpt>
      <trkpt lat="44.09117" lon="7.03324">
        <ele>1548.2</ele>
        <time>2022-06-11T11:47:01Z</time>
      </trkpt>
      <trkpt lat="44.09118" lon="7.03322">
        <ele>1548.5</ele>
        <time>2022-06-11T11:47:02Z</time>
      </trkpt>
      <trkpt lat="44.0912" lon="7.0332">
        <ele>1548.7</ele>
        <time>2022-06-11T11:47:03Z</time>
      </trkpt>
      <trkpt lat="44.09122" lon="7.03318">
        <ele>1548.9</ele>
        <time>2022-06-11T11:47:04Z</time>
      </trkpt>
      <trkpt lat="44.09123" lon="7.03316">
        <ele>1549.1</ele>
        <time>2022-06-11T11:47:05Z</time>
      </trkpt>
      <trkpt lat="44.09125" lon="7.03315">
        <ele>1549.2</ele>
        <time>2022-06-11T11:47:06Z</time>
      </trkpt>
      <trkpt lat="44.09127" lon="7.03313">
        <ele>1549.4</ele>
        <time>2022-06-11T11:47:07Z</time>
      </trkpt>
      <trkpt lat="44.09129" lon="7.03311">
        <ele>1549.5</ele>
        <time>2022-06-11T11:47:08Z</time>
      </trkpt>
      <trkpt lat="44.0913" lon="7.03309">
        <ele>1549.8</ele>
        <time>2022-06-11T11:47:09Z</time>
      </trkpt>
      <trkpt lat="44.09132" lon="7.03307">
        <ele>1550.1</ele>
        <time>2022-06-11T11:47:10Z</time>
      </trkpt>
      <trkpt lat="44.09134" lon="7.03304">
        <ele>1550.4</ele>
        <time>2022-06-11T11:47:11Z</time>
      </trkpt>
      <trkpt lat="44.09136" lon="7.03302">
        <ele>1550.6</ele>
        <time>2022-06-11T11:47:12Z</time>
      </trkpt>
      <trkpt lat="44.09137" lon="7.033">
        <ele>1550.8</ele>
        <time>2022-06-11T11:47:13Z</time>
      </trkpt>
      <trkpt lat="44.09139" lon="7.03298">
        <ele>1551.1</ele>
        <time>2022-06-11T11:47:14Z</time>
      </trkpt>
      <trkpt lat="44.0914" lon="7.03296">
        <ele>1551.4</ele>
        <time>2022-06-11T11:47:15Z</time>
      </trkpt>
      <trkpt lat="44.09142" lon="7.03294">
        <ele>1551.8</ele>
        <time>2022-06-11T11:47:16Z</time>
      </trkpt>
      <trkpt lat="44.09144" lon="7.03292">
        <ele>1552</ele>
        <time>2022-06-11T11:47:17Z</time>
      </trkpt>
      <trkpt lat="44.09146" lon="7.0329">
        <ele>1552.2</ele>
        <time>2022-06-11T11:47:18Z</time>
      </trkpt>
      <trkpt lat="44.09148" lon="7.03288">
        <ele>1552.5</ele>
        <time>2022-06-11T11:47:19Z</time>
      </trkpt>
      <trkpt lat="44.09149" lon="7.03285">
        <ele>1552.8</ele>
        <time>2022-06-11T11:47:20Z</time>
      </trkpt>
      <trkpt lat="44.09151" lon="7.03282">
        <ele>1553.1</ele>
        <time>2022-06-11T11:47:21Z</time>
      </trkpt>
      <trkpt lat="44.09153" lon="7.03279">
        <ele>1553.4</ele>
        <time>2022-06-11T11:47:22Z</time>
      </trkpt>
      <trkpt lat="44.09154" lon="7.03276">
        <ele>1553.8</ele>
        <time>2022-06-11T11:47:23Z</time>
      </trkpt>
      <trkpt lat="44.09156" lon="7.03273">
        <ele>1554.2</ele>
        <time>2022-06-11T11:47:24Z</time>
      </trkpt>
      <trkpt lat="44.09158" lon="7.03271">
        <ele>1554.6</ele>
        <time>2022-06-11T11:47:25Z</time>
      </trkpt>
      <trkpt lat="44.09159" lon="7.03268">
        <ele>1555.1</ele>
        <time>2022-06-11T11:47:26Z</time>
      </trkpt>
      <trkpt lat="44.09161" lon="7.03265">
        <ele>1555.5</ele>
        <time>2022-06-11T11:47:27Z</time>
      </trkpt>
      <trkpt lat="44.09163" lon="7.03263">
        <ele>1555.9</ele>
        <time>2022-06-11T11:47:28Z</time>
      </trkpt>
      <trkpt lat="44.09165" lon="7.0326">
        <ele>1556.3</ele>
        <time>2022-06-11T11:47:29Z</time>
      </trkpt>
      <trkpt lat="44.09166" lon="7.03258">
        <ele>1556.6</ele>
        <time>2022-06-11T11:47:30Z</time>
      </trkpt>
      <trkpt lat="44.09168" lon="7.03256">
        <ele>1556.8</ele>
        <time>2022-06-11T11:47:31Z</time>
      </trkpt>
      <trkpt lat="44.09171" lon="7.03255">
        <ele>1557</ele>
        <time>2022-06-11T11:47:32Z</time>
      </trkpt>
      <trkpt lat="44.09172" lon="7.03253">
        <ele>1557.2</ele>
        <time>2022-06-11T11:47:33Z</time>
      </trkpt>
      <trkpt lat="44.09174" lon="7.03251">
        <ele>1557.4</ele>
        <time>2022-06-11T11:47:34Z</time>
      </trkpt>
      <trkpt lat="44.09175" lon="7.03248">
        <ele>1557.7</ele>
        <time>2022-06-11T11:47:35Z</time>
      </trkpt>
      <trkpt lat="44.09176" lon="7.03246">
        <ele>1558.1</ele>
        <time>2022-06-11T11:47:36Z</time>
      </trkpt>
      <trkpt lat="44.09177" lon="7.03244">
        <ele>1558.4</ele>
        <time>2022-06-11T11:47:37Z</time>
      </trkpt>
      <trkpt lat="44.09178" lon="7.03241">
        <ele>1558.7</ele>
        <time>2022-06-11T11:47:38Z</time>
      </trkpt>
      <trkpt lat="44.0918" lon="7.03239">
        <ele>1559</ele>
        <time>2022-06-11T11:47:39Z</time>
      </trkpt>
      <trkpt lat="44.09182" lon="7.03238">
        <ele>1559.2</ele>
        <time>2022-06-11T11:47:40Z</time>
      </trkpt>
      <trkpt lat="44.09183" lon="7.03236">
        <ele>1559.4</ele>
        <time>2022-06-11T11:47:41Z</time>
      </trkpt>
      <trkpt lat="44.09185" lon="7.03234">
        <ele>1559.7</ele>
        <time>2022-06-11T11:47:42Z</time>
      </trkpt>
      <trkpt lat="44.09186" lon="7.03232">
        <ele>1559.8</ele>
        <time>2022-06-11T11:47:43Z</time>
      </trkpt>
      <trkpt lat="44.09188" lon="7.0323">
        <ele>1560</ele>
        <time>2022-06-11T11:47:44Z</time>
      </trkpt>
      <trkpt lat="44.09189" lon="7.03229">
        <ele>1560.2</ele>
        <time>2022-06-11T11:47:45Z</time>
      </trkpt>
      <trkpt lat="44.09191" lon="7.03227">
        <ele>1560.4</ele>
        <time>2022-06-11T11:47:46Z</time>
      </trkpt>
      <trkpt lat="44.09192" lon="7.03225">
        <ele>1560.6</ele>
        <time>2022-06-11T11:47:47Z</time>
      </trkpt>
      <trkpt lat="44.09194" lon="7.03223">
        <ele>1560.9</ele>
        <time>2022-06-11T11:47:48Z</time>
      </trkpt>
      <trkpt lat="44.09195" lon="7.03221">
        <ele>1561.1</ele>
        <time>2022-06-11T11:47:49Z</time>
      </trkpt>
      <trkpt lat="44.09196" lon="7.03219">
        <ele>1561.5</ele>
        <time>2022-06-11T11:47:50Z</time>
      </trkpt>
      <trkpt lat="44.09197" lon="7.03217">
        <ele>1561.8</ele>
        <time>2022-06-11T11:47:51Z</time>
      </trkpt>
      <trkpt lat="44.09198" lon="7.03214">
        <ele>1562.1</ele>
        <time>2022-06-11T11:47:52Z</time>
      </trkpt>
      <trkpt lat="44.09199" lon="7.03212">
        <ele>1562.4</ele>
        <time>2022-06-11T11:47:53Z</time>
      </trkpt>
      <trkpt lat="44.09201" lon="7.0321">
        <ele>1562.7</ele>
        <time>2022-06-11T11:47:54Z</time>
      </trkpt>
      <trkpt lat="44.09202" lon="7.03208">
        <ele>1562.9</ele>
        <time>2022-06-11T11:47:55Z</time>
      </trkpt>
      <trkpt lat="44.09204" lon="7.03205">
        <ele>1563.2</ele>
        <time>2022-06-11T11:47:56Z</time>
      </trkpt>
      <trkpt lat="44.09205" lon="7.03204">
        <ele>1563.3</ele>
        <time>2022-06-11T11:47:57Z</time>
      </trkpt>
      <trkpt lat="44.09207" lon="7.03202">
        <ele>1563.4</ele>
        <time>2022-06-11T11:47:58Z</time>
      </trkpt>
      <trkpt lat="44.09208" lon="7.03201">
        <ele>1563.4</ele>
        <time>2022-06-11T11:47:59Z</time>
      </trkpt>
      <trkpt lat="44.0921" lon="7.032">
        <ele>1563.4</ele>
        <time>2022-06-11T11:48:00Z</time>
      </trkpt>
      <trkpt lat="44.09212" lon="7.032">
        <ele>1563.3</ele>
        <time>2022-06-11T11:48:01Z</time>
      </trkpt>
      <trkpt lat="44.09214" lon="7.03199">
        <ele>1563.3</ele>
        <time>2022-06-11T11:48:02Z</time>
      </trkpt>
      <trkpt lat="44.09216" lon="7.03197">
        <ele>1563.3</ele>
        <time>2022-06-11T11:48:03Z</time>
      </trkpt>
      <trkpt lat="44.09218" lon="7.03196">
        <ele>1563.3</ele>
        <time>2022-06-11T11:48:04Z</time>
      </trkpt>
      <trkpt lat="44.0922" lon="7.03195">
        <ele>1563.2</ele>
        <time>2022-06-11T11:48:05Z</time>
      </trkpt>
      <trkpt lat="44.09223" lon="7.03194">
        <ele>1563.1</ele>
        <time>2022-06-11T11:48:06Z</time>
      </trkpt>
      <trkpt lat="44.09225" lon="7.03192">
        <ele>1563</ele>
        <time>2022-06-11T11:48:07Z</time>
      </trkpt>
      <trkpt lat="44.09227" lon="7.0319">
        <ele>1562.9</ele>
        <time>2022-06-11T11:48:08Z</time>
      </trkpt>
      <trkpt lat="44.0923" lon="7.03188">
        <ele>1562.8</ele>
        <time>2022-06-11T11:48:09Z</time>
      </trkpt>
      <trkpt lat="44.09232" lon="7.03186">
        <ele>1562.8</ele>
        <time>2022-06-11T11:48:10Z</time>
      </trkpt>
      <trkpt lat="44.09234" lon="7.03183">
        <ele>1562.8</ele>
        <time>2022-06-11T11:48:11Z</time>
      </trkpt>
      <trkpt lat="44.09236" lon="7.03181">
        <ele>1562.7</ele>
        <time>2022-06-11T11:48:12Z</time>
      </trkpt>
      <trkpt lat="44.09238" lon="7.03178">
        <ele>1562.8</ele>
        <time>2022-06-11T11:48:13Z</time>
      </trkpt>
      <trkpt lat="44.09239" lon="7.03176">
        <ele>1562.9</ele>
        <time>2022-06-11T11:48:14Z</time>
      </trkpt>
      <trkpt lat="44.09241" lon="7.03173">
        <ele>1562.9</ele>
        <time>2022-06-11T11:48:15Z</time>
      </trkpt>
      <trkpt lat="44.09242" lon="7.03171">
        <ele>1563</ele>
        <time>2022-06-11T11:48:16Z</time>
      </trkpt>
      <trkpt lat="44.09243" lon="7.03168">
        <ele>1563</ele>
        <time>2022-06-11T11:48:17Z</time>
      </trkpt>
      <trkpt lat="44.09245" lon="7.03166">
        <ele>1563</ele>
        <time>2022-06-11T11:48:18Z</time>
      </trkpt>
      <trkpt lat="44.09247" lon="7.03164">
        <ele>1563.2</ele>
        <time>2022-06-11T11:48:19Z</time>
      </trkpt>
      <trkpt lat="44.09248" lon="7.03162">
        <ele>1563.4</ele>
        <time>2022-06-11T11:48:20Z</time>
      </trkpt>
      <trkpt lat="44.09249" lon="7.03159">
        <ele>1563.6</ele>
        <time>2022-06-11T11:48:21Z</time>
      </trkpt>
      <trkpt lat="44.0925" lon="7.03157">
        <ele>1563.7</ele>
        <time>2022-06-11T11:48:22Z</time>
      </trkpt>
      <trkpt lat="44.09252" lon="7.03154">
        <ele>1563.8</ele>
        <time>2022-06-11T11:48:23Z</time>
      </trkpt>
      <trkpt lat="44.09254" lon="7.03152">
        <ele>1563.9</ele>
        <time>2022-06-11T11:48:24Z</time>
      </trkpt>
      <trkpt lat="44.09256" lon="7.03149">
        <ele>1563.9</ele>
        <time>2022-06-11T11:48:25Z</time>
      </trkpt>
      <trkpt lat="44.09257" lon="7.03146">
        <ele>1564.1</ele>
        <time>2022-06-11T11:48:26Z</time>
      </trkpt>
      <trkpt lat="44.09258" lon="7.03144">
        <ele>1564.2</ele>
        <time>2022-06-11T11:48:27Z</time>
      </trkpt>
      <trkpt lat="44.09259" lon="7.03141">
        <ele>1564.3</ele>
        <time>2022-06-11T11:48:28Z</time>
      </trkpt>
      <trkpt lat="44.09261" lon="7.03139">
        <ele>1564.4</ele>
        <time>2022-06-11T11:48:29Z</time>
      </trkpt>
      <trkpt lat="44.09262" lon="7.03136">
        <ele>1564.6</ele>
        <time>2022-06-11T11:48:30Z</time>
      </trkpt>
      <trkpt lat="44.09263" lon="7.03134">
        <ele>1564.8</ele>
        <time>2022-06-11T11:48:31Z</time>
      </trkpt>
      <trkpt lat="44.09264" lon="7.03131">
        <ele>1565</ele>
        <time>2022-06-11T11:48:32Z</time>
      </trkpt>
      <trkpt lat="44.09265" lon="7.03128">
        <ele>1565.3</ele>
        <time>2022-06-11T11:48:33Z</time>
      </trkpt>
      <trkpt lat="44.09265" lon="7.03125">
        <ele>1565.7</ele>
        <time>2022-06-11T11:48:34Z</time>
      </trkpt>
      <trkpt lat="44.09266" lon="7.03123">
        <ele>1566</ele>
        <time>2022-06-11T11:48:35Z</time>
      </trkpt>
      <trkpt lat="44.09267" lon="7.0312">
        <ele>1566.2</ele>
        <time>2022-06-11T11:48:36Z</time>
      </trkpt>
      <trkpt lat="44.09268" lon="7.03118">
        <ele>1566.4</ele>
        <time>2022-06-11T11:48:37Z</time>
      </trkpt>
      <trkpt lat="44.09269" lon="7.03115">
        <ele>1566.6</ele>
        <time>2022-06-11T11:48:38Z</time>
      </trkpt>
      <trkpt lat="44.0927" lon="7.03113">
        <ele>1566.8</ele>
        <time>2022-06-11T11:48:39Z</time>
      </trkpt>
      <trkpt lat="44.09271" lon="7.0311">
        <ele>1566.9</ele>
        <time>2022-06-11T11:48:40Z</time>
      </trkpt>
      <trkpt lat="44.09272" lon="7.03107">
        <ele>1567.1</ele>
        <time>2022-06-11T11:48:41Z</time>
      </trkpt>
      <trkpt lat="44.09273" lon="7.03105">
        <ele>1567.3</ele>
        <time>2022-06-11T11:48:42Z</time>
      </trkpt>
      <trkpt lat="44.09274" lon="7.03102">
        <ele>1567.5</ele>
        <time>2022-06-11T11:48:43Z</time>
      </trkpt>
      <trkpt lat="44.09275" lon="7.03099">
        <ele>1567.5</ele>
        <time>2022-06-11T11:48:44Z</time>
      </trkpt>
      <trkpt lat="44.09276" lon="7.03097">
        <ele>1567.6</ele>
        <time>2022-06-11T11:48:45Z</time>
      </trkpt>
      <trkpt lat="44.09277" lon="7.03094">
        <ele>1567.8</ele>
        <time>2022-06-11T11:48:46Z</time>
      </trkpt>
      <trkpt lat="44.09278" lon="7.03091">
        <ele>1567.8</ele>
        <time>2022-06-11T11:48:47Z</time>
      </trkpt>
      <trkpt lat="44.09279" lon="7.03089">
        <ele>1567.9</ele>
        <time>2022-06-11T11:48:48Z</time>
      </trkpt>
      <trkpt lat="44.09281" lon="7.03086">
        <ele>1567.8</ele>
        <time>2022-06-11T11:48:49Z</time>
      </trkpt>
      <trkpt lat="44.09282" lon="7.03084">
        <ele>1567.8</ele>
        <time>2022-06-11T11:48:50Z</time>
      </trkpt>
      <trkpt lat="44.09283" lon="7.03081">
        <ele>1568</ele>
        <time>2022-06-11T11:48:51Z</time>
      </trkpt>
      <trkpt lat="44.09283" lon="7.03078">
        <ele>1568.3</ele>
        <time>2022-06-11T11:48:52Z</time>
      </trkpt>
      <trkpt lat="44.09284" lon="7.03075">
        <ele>1568.6</ele>
        <time>2022-06-11T11:48:53Z</time>
      </trkpt>
      <trkpt lat="44.09285" lon="7.03073">
        <ele>1568.9</ele>
        <time>2022-06-11T11:48:54Z</time>
      </trkpt>
      <trkpt lat="44.09285" lon="7.0307">
        <ele>1569.3</ele>
        <time>2022-06-11T11:48:55Z</time>
      </trkpt>
      <trkpt lat="44.09285" lon="7.03067">
        <ele>1569.7</ele>
        <time>2022-06-11T11:48:56Z</time>
      </trkpt>
      <trkpt lat="44.09286" lon="7.03064">
        <ele>1570</ele>
        <time>2022-06-11T11:48:57Z</time>
      </trkpt>
      <trkpt lat="44.09286" lon="7.03061">
        <ele>1570.4</ele>
        <time>2022-06-11T11:48:58Z</time>
      </trkpt>
      <trkpt lat="44.09286" lon="7.03058">
        <ele>1570.9</ele>
        <time>2022-06-11T11:48:59Z</time>
      </trkpt>
      <trkpt lat="44.09286" lon="7.03056">
        <ele>1571.4</ele>
        <time>2022-06-11T11:49:00Z</time>
      </trkpt>
      <trkpt lat="44.09286" lon="7.03053">
        <ele>1571.8</ele>
        <time>2022-06-11T11:49:01Z</time>
      </trkpt>
      <trkpt lat="44.09287" lon="7.0305">
        <ele>1572</ele>
        <time>2022-06-11T11:49:02Z</time>
      </trkpt>
      <trkpt lat="44.09288" lon="7.03048">
        <ele>1572</ele>
        <time>2022-06-11T11:49:03Z</time>
      </trkpt>
      <trkpt lat="44.09289" lon="7.03045">
        <ele>1572.1</ele>
        <time>2022-06-11T11:49:04Z</time>
      </trkpt>
      <trkpt lat="44.0929" lon="7.03043">
        <ele>1572</ele>
        <time>2022-06-11T11:49:05Z</time>
      </trkpt>
      <trkpt lat="44.09291" lon="7.03041">
        <ele>1572.1</ele>
        <time>2022-06-11T11:49:06Z</time>
      </trkpt>
      <trkpt lat="44.09292" lon="7.03038">
        <ele>1572.1</ele>
        <time>2022-06-11T11:49:07Z</time>
      </trkpt>
      <trkpt lat="44.09294" lon="7.03036">
        <ele>1572.1</ele>
        <time>2022-06-11T11:49:08Z</time>
      </trkpt>
      <trkpt lat="44.09294" lon="7.03033">
        <ele>1572.3</ele>
        <time>2022-06-11T11:49:09Z</time>
      </trkpt>
      <trkpt lat="44.09295" lon="7.03031">
        <ele>1572.5</ele>
        <time>2022-06-11T11:49:10Z</time>
      </trkpt>
      <trkpt lat="44.09295" lon="7.03028">
        <ele>1572.7</ele>
        <time>2022-06-11T11:49:11Z</time>
      </trkpt>
      <trkpt lat="44.09296" lon="7.03026">
        <ele>1572.7</ele>
        <time>2022-06-11T11:49:12Z</time>
      </trkpt>
      <trkpt lat="44.09297" lon="7.03023">
        <ele>1572.8</ele>
        <time>2022-06-11T11:49:13Z</time>
      </trkpt>
      <trkpt lat="44.09297" lon="7.03021">
        <ele>1573.1</ele>
        <time>2022-06-11T11:49:14Z</time>
      </trkpt>
      <trkpt lat="44.09298" lon="7.03018">
        <ele>1573.3</ele>
        <time>2022-06-11T11:49:15Z</time>
      </trkpt>
      <trkpt lat="44.09298" lon="7.03016">
        <ele>1573.4</ele>
        <time>2022-06-11T11:49:16Z</time>
      </trkpt>
      <trkpt lat="44.09299" lon="7.03013">
        <ele>1573.6</ele>
        <time>2022-06-11T11:49:17Z</time>
      </trkpt>
      <trkpt lat="44.09299" lon="7.0301">
        <ele>1573.9</ele>
        <time>2022-06-11T11:49:18Z</time>
      </trkpt>
      <trkpt lat="44.093" lon="7.03007">
        <ele>1573.9</ele>
        <time>2022-06-11T11:49:19Z</time>
      </trkpt>
      <trkpt lat="44.09301" lon="7.03005">
        <ele>1574.2</ele>
        <time>2022-06-11T11:49:20Z</time>
      </trkpt>
      <trkpt lat="44.09301" lon="7.03002">
        <ele>1574.4</ele>
        <time>2022-06-11T11:49:21Z</time>
      </trkpt>
      <trkpt lat="44.09302" lon="7.02999">
        <ele>1574.5</ele>
        <time>2022-06-11T11:49:22Z</time>
      </trkpt>
      <trkpt lat="44.09302" lon="7.02997">
        <ele>1574.7</ele>
        <time>2022-06-11T11:49:23Z</time>
      </trkpt>
      <trkpt lat="44.09303" lon="7.02994">
        <ele>1574.8</ele>
        <time>2022-06-11T11:49:24Z</time>
      </trkpt>
      <trkpt lat="44.09303" lon="7.0299">
        <ele>1575</ele>
        <time>2022-06-11T11:49:25Z</time>
      </trkpt>
      <trkpt lat="44.09304" lon="7.02987">
        <ele>1575.1</ele>
        <time>2022-06-11T11:49:26Z</time>
      </trkpt>
      <trkpt lat="44.09304" lon="7.02984">
        <ele>1575.4</ele>
        <time>2022-06-11T11:49:27Z</time>
      </trkpt>
      <trkpt lat="44.09304" lon="7.02982">
        <ele>1575.6</ele>
        <time>2022-06-11T11:49:28Z</time>
      </trkpt>
      <trkpt lat="44.09305" lon="7.02979">
        <ele>1575.6</ele>
        <time>2022-06-11T11:49:29Z</time>
      </trkpt>
      <trkpt lat="44.09305" lon="7.02976">
        <ele>1575.7</ele>
        <time>2022-06-11T11:49:30Z</time>
      </trkpt>
      <trkpt lat="44.09305" lon="7.02974">
        <ele>1576</ele>
        <time>2022-06-11T11:49:31Z</time>
      </trkpt>
      <trkpt lat="44.09305" lon="7.02971">
        <ele>1576.2</ele>
        <time>2022-06-11T11:49:32Z</time>
      </trkpt>
      <trkpt lat="44.09305" lon="7.02969">
        <ele>1576.4</ele>
        <time>2022-06-11T11:49:33Z</time>
      </trkpt>
      <trkpt lat="44.09306" lon="7.02966">
        <ele>1576.4</ele>
        <time>2022-06-11T11:49:34Z</time>
      </trkpt>
      <trkpt lat="44.09306" lon="7.02963">
        <ele>1576.7</ele>
        <time>2022-06-11T11:49:35Z</time>
      </trkpt>
      <trkpt lat="44.09305" lon="7.0296">
        <ele>1577</ele>
        <time>2022-06-11T11:49:36Z</time>
      </trkpt>
      <trkpt lat="44.09305" lon="7.02957">
        <ele>1577.2</ele>
        <time>2022-06-11T11:49:37Z</time>
      </trkpt>
      <trkpt lat="44.09305" lon="7.02955">
        <ele>1577.4</ele>
        <time>2022-06-11T11:49:38Z</time>
      </trkpt>
      <trkpt lat="44.09305" lon="7.02952">
        <ele>1577.7</ele>
        <time>2022-06-11T11:49:39Z</time>
      </trkpt>
      <trkpt lat="44.09305" lon="7.02949">
        <ele>1578.1</ele>
        <time>2022-06-11T11:49:40Z</time>
      </trkpt>
      <trkpt lat="44.09305" lon="7.02946">
        <ele>1578.3</ele>
        <time>2022-06-11T11:49:41Z</time>
      </trkpt>
      <trkpt lat="44.09304" lon="7.02943">
        <ele>1578.5</ele>
        <time>2022-06-11T11:49:42Z</time>
      </trkpt>
      <trkpt lat="44.09304" lon="7.0294">
        <ele>1578.7</ele>
        <time>2022-06-11T11:49:43Z</time>
      </trkpt>
      <trkpt lat="44.09304" lon="7.02937">
        <ele>1579</ele>
        <time>2022-06-11T11:49:44Z</time>
      </trkpt>
      <trkpt lat="44.09303" lon="7.02934">
        <ele>1579.3</ele>
        <time>2022-06-11T11:49:45Z</time>
      </trkpt>
      <trkpt lat="44.09303" lon="7.02931">
        <ele>1579.6</ele>
        <time>2022-06-11T11:49:46Z</time>
      </trkpt>
      <trkpt lat="44.09302" lon="7.02928">
        <ele>1579.8</ele>
        <time>2022-06-11T11:49:47Z</time>
      </trkpt>
      <trkpt lat="44.09302" lon="7.02926">
        <ele>1580</ele>
        <time>2022-06-11T11:49:48Z</time>
      </trkpt>
      <trkpt lat="44.09302" lon="7.02923">
        <ele>1580.2</ele>
        <time>2022-06-11T11:49:49Z</time>
      </trkpt>
      <trkpt lat="44.09301" lon="7.0292">
        <ele>1580.5</ele>
        <time>2022-06-11T11:49:50Z</time>
      </trkpt>
      <trkpt lat="44.09301" lon="7.02918">
        <ele>1580.8</ele>
        <time>2022-06-11T11:49:51Z</time>
      </trkpt>
      <trkpt lat="44.093" lon="7.02915">
        <ele>1581</ele>
        <time>2022-06-11T11:49:52Z</time>
      </trkpt>
      <trkpt lat="44.09299" lon="7.02912">
        <ele>1581.3</ele>
        <time>2022-06-11T11:49:53Z</time>
      </trkpt>
      <trkpt lat="44.09299" lon="7.0291">
        <ele>1581.4</ele>
        <time>2022-06-11T11:49:54Z</time>
      </trkpt>
      <trkpt lat="44.09299" lon="7.02907">
        <ele>1581.6</ele>
        <time>2022-06-11T11:49:55Z</time>
      </trkpt>
      <trkpt lat="44.09298" lon="7.02905">
        <ele>1581.8</ele>
        <time>2022-06-11T11:49:56Z</time>
      </trkpt>
      <trkpt lat="44.09297" lon="7.02902">
        <ele>1582.2</ele>
        <time>2022-06-11T11:49:57Z</time>
      </trkpt>
      <trkpt lat="44.09297" lon="7.02899">
        <ele>1582.4</ele>
        <time>2022-06-11T11:49:58Z</time>
      </trkpt>
      <trkpt lat="44.09296" lon="7.02896">
        <ele>1582.6</ele>
        <time>2022-06-11T11:49:59Z</time>
      </trkpt>
      <trkpt lat="44.09296" lon="7.02893">
        <ele>1582.8</ele>
        <time>2022-06-11T11:50:00Z</time>
      </trkpt>
      <trkpt lat="44.09295" lon="7.0289">
        <ele>1583</ele>
        <time>2022-06-11T11:50:01Z</time>
      </trkpt>
      <trkpt lat="44.09295" lon="7.02888">
        <ele>1583.2</ele>
        <time>2022-06-11T11:50:02Z</time>
      </trkpt>
      <trkpt lat="44.09294" lon="7.02885">
        <ele>1583.5</ele>
        <time>2022-06-11T11:50:03Z</time>
      </trkpt>
      <trkpt lat="44.09294" lon="7.02882">
        <ele>1583.8</ele>
        <time>2022-06-11T11:50:04Z</time>
      </trkpt>
      <trkpt lat="44.09293" lon="7.0288">
        <ele>1584.1</ele>
        <time>2022-06-11T11:50:05Z</time>
      </trkpt>
      <trkpt lat="44.09292" lon="7.02878">
        <ele>1584.2</ele>
        <time>2022-06-11T11:50:06Z</time>
      </trkpt>
      <trkpt lat="44.09291" lon="7.02875">
        <ele>1584.6</ele>
        <time>2022-06-11T11:50:07Z</time>
      </trkpt>
      <trkpt lat="44.09291" lon="7.02872">
        <ele>1585</ele>
        <time>2022-06-11T11:50:08Z</time>
      </trkpt>
      <trkpt lat="44.0929" lon="7.02869">
        <ele>1585.1</ele>
        <time>2022-06-11T11:50:09Z</time>
      </trkpt>
      <trkpt lat="44.0929" lon="7.02866">
        <ele>1585.2</ele>
        <time>2022-06-11T11:50:10Z</time>
      </trkpt>
      <trkpt lat="44.0929" lon="7.02864">
        <ele>1585.2</ele>
        <time>2022-06-11T11:50:11Z</time>
      </trkpt>
      <trkpt lat="44.0929" lon="7.02861">
        <ele>1585.3</ele>
        <time>2022-06-11T11:50:12Z</time>
      </trkpt>
      <trkpt lat="44.0929" lon="7.02858">
        <ele>1585.3</ele>
        <time>2022-06-11T11:50:13Z</time>
      </trkpt>
      <trkpt lat="44.0929" lon="7.02856">
        <ele>1585.6</ele>
        <time>2022-06-11T11:50:14Z</time>
      </trkpt>
      <trkpt lat="44.0929" lon="7.02853">
        <ele>1585.8</ele>
        <time>2022-06-11T11:50:15Z</time>
      </trkpt>
      <trkpt lat="44.0929" lon="7.02851">
        <ele>1585.7</ele>
        <time>2022-06-11T11:50:16Z</time>
      </trkpt>
      <trkpt lat="44.09291" lon="7.02848">
        <ele>1585.7</ele>
        <time>2022-06-11T11:50:17Z</time>
      </trkpt>
      <trkpt lat="44.0929" lon="7.02846">
        <ele>1585.9</ele>
        <time>2022-06-11T11:50:18Z</time>
      </trkpt>
      <trkpt lat="44.0929" lon="7.02843">
        <ele>1586.1</ele>
        <time>2022-06-11T11:50:19Z</time>
      </trkpt>
      <trkpt lat="44.09291" lon="7.02841">
        <ele>1586</ele>
        <time>2022-06-11T11:50:20Z</time>
      </trkpt>
      <trkpt lat="44.09291" lon="7.02838">
        <ele>1585.9</ele>
        <time>2022-06-11T11:50:21Z</time>
      </trkpt>
      <trkpt lat="44.09292" lon="7.02835">
        <ele>1585.9</ele>
        <time>2022-06-11T11:50:22Z</time>
      </trkpt>
      <trkpt lat="44.09292" lon="7.02832">
        <ele>1586</ele>
        <time>2022-06-11T11:50:23Z</time>
      </trkpt>
      <trkpt lat="44.09292" lon="7.0283">
        <ele>1586.1</ele>
        <time>2022-06-11T11:50:24Z</time>
      </trkpt>
      <trkpt lat="44.09293" lon="7.02827">
        <ele>1586</ele>
        <time>2022-06-11T11:50:25Z</time>
      </trkpt>
      <trkpt lat="44.09293" lon="7.02823">
        <ele>1586</ele>
        <time>2022-06-11T11:50:26Z</time>
      </trkpt>
      <trkpt lat="44.09294" lon="7.0282">
        <ele>1586</ele>
        <time>2022-06-11T11:50:27Z</time>
      </trkpt>
      <trkpt lat="44.09295" lon="7.02817">
        <ele>1585.9</ele>
        <time>2022-06-11T11:50:28Z</time>
      </trkpt>
      <trkpt lat="44.09295" lon="7.02813">
        <ele>1586</ele>
        <time>2022-06-11T11:50:29Z</time>
      </trkpt>
      <trkpt lat="44.09296" lon="7.0281">
        <ele>1585.9</ele>
        <time>2022-06-11T11:50:30Z</time>
      </trkpt>
      <trkpt lat="44.09296" lon="7.02807">
        <ele>1585.9</ele>
        <time>2022-06-11T11:50:31Z</time>
      </trkpt>
      <trkpt lat="44.09297" lon="7.02804">
        <ele>1586</ele>
        <time>2022-06-11T11:50:32Z</time>
      </trkpt>
      <trkpt lat="44.09297" lon="7.02801">
        <ele>1586.1</ele>
        <time>2022-06-11T11:50:33Z</time>
      </trkpt>
      <trkpt lat="44.09298" lon="7.02797">
        <ele>1586.1</ele>
        <time>2022-06-11T11:50:34Z</time>
      </trkpt>
      <trkpt lat="44.09298" lon="7.02794">
        <ele>1586.2</ele>
        <time>2022-06-11T11:50:35Z</time>
      </trkpt>
      <trkpt lat="44.09299" lon="7.02791">
        <ele>1586.3</ele>
        <time>2022-06-11T11:50:36Z</time>
      </trkpt>
      <trkpt lat="44.09299" lon="7.02788">
        <ele>1586.6</ele>
        <time>2022-06-11T11:50:37Z</time>
      </trkpt>
      <trkpt lat="44.09299" lon="7.02785">
        <ele>1586.8</ele>
        <time>2022-06-11T11:50:38Z</time>
      </trkpt>
      <trkpt lat="44.09299" lon="7.02782">
        <ele>1586.9</ele>
        <time>2022-06-11T11:50:39Z</time>
      </trkpt>
      <trkpt lat="44.093" lon="7.02779">
        <ele>1586.8</ele>
        <time>2022-06-11T11:50:40Z</time>
      </trkpt>
      <trkpt lat="44.09301" lon="7.02776">
        <ele>1586.8</ele>
        <time>2022-06-11T11:50:41Z</time>
      </trkpt>
      <trkpt lat="44.09301" lon="7.02773">
        <ele>1586.9</ele>
        <time>2022-06-11T11:50:42Z</time>
      </trkpt>
      <trkpt lat="44.09302" lon="7.02769">
        <ele>1587</ele>
        <time>2022-06-11T11:50:43Z</time>
      </trkpt>
      <trkpt lat="44.09302" lon="7.02767">
        <ele>1587</ele>
        <time>2022-06-11T11:50:44Z</time>
      </trkpt>
      <trkpt lat="44.09303" lon="7.02764">
        <ele>1586.8</ele>
        <time>2022-06-11T11:50:45Z</time>
      </trkpt>
      <trkpt lat="44.09303" lon="7.02762">
        <ele>1586.9</ele>
        <time>2022-06-11T11:50:46Z</time>
      </trkpt>
      <trkpt lat="44.09304" lon="7.02759">
        <ele>1586.9</ele>
        <time>2022-06-11T11:50:47Z</time>
      </trkpt>
      <trkpt lat="44.09304" lon="7.02757">
        <ele>1586.9</ele>
        <time>2022-06-11T11:50:48Z</time>
      </trkpt>
      <trkpt lat="44.09305" lon="7.02754">
        <ele>1586.9</ele>
        <time>2022-06-11T11:50:49Z</time>
      </trkpt>
      <trkpt lat="44.09306" lon="7.02751">
        <ele>1586.9</ele>
        <time>2022-06-11T11:50:50Z</time>
      </trkpt>
      <trkpt lat="44.09306" lon="7.02749">
        <ele>1586.7</ele>
        <time>2022-06-11T11:50:51Z</time>
      </trkpt>
      <trkpt lat="44.09307" lon="7.02747">
        <ele>1586.9</ele>
        <time>2022-06-11T11:50:52Z</time>
      </trkpt>
      <trkpt lat="44.09307" lon="7.02744">
        <ele>1587</ele>
        <time>2022-06-11T11:50:53Z</time>
      </trkpt>
      <trkpt lat="44.09307" lon="7.02741">
        <ele>1587</ele>
        <time>2022-06-11T11:50:54Z</time>
      </trkpt>
      <trkpt lat="44.09308" lon="7.02739">
        <ele>1587.1</ele>
        <time>2022-06-11T11:50:55Z</time>
      </trkpt>
      <trkpt lat="44.09308" lon="7.02736">
        <ele>1587.2</ele>
        <time>2022-06-11T11:50:56Z</time>
      </trkpt>
      <trkpt lat="44.09309" lon="7.02734">
        <ele>1587.2</ele>
        <time>2022-06-11T11:50:57Z</time>
      </trkpt>
      <trkpt lat="44.09309" lon="7.02731">
        <ele>1587.4</ele>
        <time>2022-06-11T11:50:58Z</time>
      </trkpt>
      <trkpt lat="44.09309" lon="7.02728">
        <ele>1587.5</ele>
        <time>2022-06-11T11:50:59Z</time>
      </trkpt>
      <trkpt lat="44.09309" lon="7.02725">
        <ele>1587.8</ele>
        <time>2022-06-11T11:51:00Z</time>
      </trkpt>
      <trkpt lat="44.09309" lon="7.02722">
        <ele>1588</ele>
        <time>2022-06-11T11:51:01Z</time>
      </trkpt>
      <trkpt lat="44.0931" lon="7.02719">
        <ele>1588.1</ele>
        <time>2022-06-11T11:51:02Z</time>
      </trkpt>
      <trkpt lat="44.09311" lon="7.02716">
        <ele>1588.1</ele>
        <time>2022-06-11T11:51:03Z</time>
      </trkpt>
      <trkpt lat="44.09311" lon="7.02713">
        <ele>1588.2</ele>
        <time>2022-06-11T11:51:04Z</time>
      </trkpt>
      <trkpt lat="44.09311" lon="7.0271">
        <ele>1588.7</ele>
        <time>2022-06-11T11:51:05Z</time>
      </trkpt>
      <trkpt lat="44.09311" lon="7.02708">
        <ele>1588.9</ele>
        <time>2022-06-11T11:51:06Z</time>
      </trkpt>
      <trkpt lat="44.09311" lon="7.02705">
        <ele>1589</ele>
        <time>2022-06-11T11:51:07Z</time>
      </trkpt>
      <trkpt lat="44.09311" lon="7.02702">
        <ele>1589.5</ele>
        <time>2022-06-11T11:51:08Z</time>
      </trkpt>
      <trkpt lat="44.09311" lon="7.027">
        <ele>1589.7</ele>
        <time>2022-06-11T11:51:09Z</time>
      </trkpt>
      <trkpt lat="44.09311" lon="7.02697">
        <ele>1589.9</ele>
        <time>2022-06-11T11:51:10Z</time>
      </trkpt>
      <trkpt lat="44.09312" lon="7.02693">
        <ele>1590.1</ele>
        <time>2022-06-11T11:51:11Z</time>
      </trkpt>
      <trkpt lat="44.09311" lon="7.0269">
        <ele>1590.5</ele>
        <time>2022-06-11T11:51:12Z</time>
      </trkpt>
      <trkpt lat="44.09311" lon="7.02687">
        <ele>1590.7</ele>
        <time>2022-06-11T11:51:13Z</time>
      </trkpt>
      <trkpt lat="44.09311" lon="7.02684">
        <ele>1591.1</ele>
        <time>2022-06-11T11:51:14Z</time>
      </trkpt>
      <trkpt lat="44.09311" lon="7.02681">
        <ele>1591.4</ele>
        <time>2022-06-11T11:51:15Z</time>
      </trkpt>
      <trkpt lat="44.09311" lon="7.02678">
        <ele>1591.6</ele>
        <time>2022-06-11T11:51:16Z</time>
      </trkpt>
      <trkpt lat="44.09311" lon="7.02675">
        <ele>1591.9</ele>
        <time>2022-06-11T11:51:17Z</time>
      </trkpt>
      <trkpt lat="44.09311" lon="7.02672">
        <ele>1592.1</ele>
        <time>2022-06-11T11:51:18Z</time>
      </trkpt>
      <trkpt lat="44.09311" lon="7.02669">
        <ele>1592.4</ele>
        <time>2022-06-11T11:51:19Z</time>
      </trkpt>
      <trkpt lat="44.09311" lon="7.02666">
        <ele>1592.9</ele>
        <time>2022-06-11T11:51:20Z</time>
      </trkpt>
      <trkpt lat="44.09311" lon="7.02663">
        <ele>1593.4</ele>
        <time>2022-06-11T11:51:21Z</time>
      </trkpt>
      <trkpt lat="44.0931" lon="7.0266">
        <ele>1593.8</ele>
        <time>2022-06-11T11:51:22Z</time>
      </trkpt>
      <trkpt lat="44.0931" lon="7.02657">
        <ele>1594.2</ele>
        <time>2022-06-11T11:51:23Z</time>
      </trkpt>
      <trkpt lat="44.0931" lon="7.02654">
        <ele>1594.5</ele>
        <time>2022-06-11T11:51:24Z</time>
      </trkpt>
      <trkpt lat="44.0931" lon="7.02651">
        <ele>1595</ele>
        <time>2022-06-11T11:51:25Z</time>
      </trkpt>
      <trkpt lat="44.09311" lon="7.02648">
        <ele>1595.2</ele>
        <time>2022-06-11T11:51:26Z</time>
      </trkpt>
      <trkpt lat="44.09311" lon="7.02645">
        <ele>1595.5</ele>
        <time>2022-06-11T11:51:27Z</time>
      </trkpt>
      <trkpt lat="44.09311" lon="7.02642">
        <ele>1595.8</ele>
        <time>2022-06-11T11:51:28Z</time>
      </trkpt>
      <trkpt lat="44.09311" lon="7.02639">
        <ele>1596.2</ele>
        <time>2022-06-11T11:51:29Z</time>
      </trkpt>
      <trkpt lat="44.0931" lon="7.02636">
        <ele>1596.7</ele>
        <time>2022-06-11T11:51:30Z</time>
      </trkpt>
      <trkpt lat="44.0931" lon="7.02633">
        <ele>1597.3</ele>
        <time>2022-06-11T11:51:31Z</time>
      </trkpt>
      <trkpt lat="44.0931" lon="7.0263">
        <ele>1597.7</ele>
        <time>2022-06-11T11:51:32Z</time>
      </trkpt>
      <trkpt lat="44.0931" lon="7.02627">
        <ele>1598.1</ele>
        <time>2022-06-11T11:51:33Z</time>
      </trkpt>
      <trkpt lat="44.09309" lon="7.02624">
        <ele>1598.5</ele>
        <time>2022-06-11T11:51:34Z</time>
      </trkpt>
      <trkpt lat="44.09309" lon="7.02621">
        <ele>1598.9</ele>
        <time>2022-06-11T11:51:35Z</time>
      </trkpt>
      <trkpt lat="44.09309" lon="7.02618">
        <ele>1599.2</ele>
        <time>2022-06-11T11:51:36Z</time>
      </trkpt>
      <trkpt lat="44.0931" lon="7.02616">
        <ele>1599.4</ele>
        <time>2022-06-11T11:51:37Z</time>
      </trkpt>
      <trkpt lat="44.0931" lon="7.02613">
        <ele>1599.6</ele>
        <time>2022-06-11T11:51:38Z</time>
      </trkpt>
      <trkpt lat="44.09311" lon="7.02611">
        <ele>1599.7</ele>
        <time>2022-06-11T11:51:39Z</time>
      </trkpt>
      <trkpt lat="44.09311" lon="7.02609">
        <ele>1600</ele>
        <time>2022-06-11T11:51:40Z</time>
      </trkpt>
      <trkpt lat="44.09312" lon="7.02607">
        <ele>1600.3</ele>
        <time>2022-06-11T11:51:41Z</time>
      </trkpt>
      <trkpt lat="44.09313" lon="7.02604">
        <ele>1600.6</ele>
        <time>2022-06-11T11:51:42Z</time>
      </trkpt>
      <trkpt lat="44.09315" lon="7.02602">
        <ele>1600.6</ele>
        <time>2022-06-11T11:51:43Z</time>
      </trkpt>
      <trkpt lat="44.09317" lon="7.026">
        <ele>1600.6</ele>
        <time>2022-06-11T11:51:44Z</time>
      </trkpt>
      <trkpt lat="44.09319" lon="7.02598">
        <ele>1600.4</ele>
        <time>2022-06-11T11:51:45Z</time>
      </trkpt>
      <trkpt lat="44.09321" lon="7.02599">
        <ele>1599.9</ele>
        <time>2022-06-11T11:51:46Z</time>
      </trkpt>
      <trkpt lat="44.09323" lon="7.02599">
        <ele>1599.3</ele>
        <time>2022-06-11T11:51:47Z</time>
      </trkpt>
      <trkpt lat="44.09325" lon="7.026">
        <ele>1598.5</ele>
        <time>2022-06-11T11:51:48Z</time>
      </trkpt>
      <trkpt lat="44.09328" lon="7.02602">
        <ele>1597.7</ele>
        <time>2022-06-11T11:51:49Z</time>
      </trkpt>
      <trkpt lat="44.0933" lon="7.02603">
        <ele>1597</ele>
        <time>2022-06-11T11:51:50Z</time>
      </trkpt>
      <trkpt lat="44.09332" lon="7.02604">
        <ele>1596.3</ele>
        <time>2022-06-11T11:51:51Z</time>
      </trkpt>
      <trkpt lat="44.09334" lon="7.02605">
        <ele>1595.7</ele>
        <time>2022-06-11T11:51:52Z</time>
      </trkpt>
      <trkpt lat="44.09336" lon="7.02606">
        <ele>1596</ele>
        <time>2022-06-11T11:51:53Z</time>
      </trkpt>
      <trkpt lat="44.09338" lon="7.02607">
        <ele>1596.2</ele>
        <time>2022-06-11T11:51:54Z</time>
      </trkpt>
      <trkpt lat="44.0934" lon="7.02608">
        <ele>1596.4</ele>
        <time>2022-06-11T11:51:55Z</time>
      </trkpt>
      <trkpt lat="44.09342" lon="7.02609">
        <ele>1596.6</ele>
        <time>2022-06-11T11:51:56Z</time>
      </trkpt>
      <trkpt lat="44.09344" lon="7.02611">
        <ele>1596.7</ele>
        <time>2022-06-11T11:51:57Z</time>
      </trkpt>
      <trkpt lat="44.09346" lon="7.02613">
        <ele>1596.8</ele>
        <time>2022-06-11T11:51:58Z</time>
      </trkpt>
      <trkpt lat="44.09348" lon="7.02614">
        <ele>1596.9</ele>
        <time>2022-06-11T11:51:59Z</time>
      </trkpt>
      <trkpt lat="44.0935" lon="7.02615">
        <ele>1597.1</ele>
        <time>2022-06-11T11:52:00Z</time>
      </trkpt>
      <trkpt lat="44.09352" lon="7.02616">
        <ele>1597.4</ele>
        <time>2022-06-11T11:52:01Z</time>
      </trkpt>
      <trkpt lat="44.09354" lon="7.02616">
        <ele>1597.6</ele>
        <time>2022-06-11T11:52:02Z</time>
      </trkpt>
      <trkpt lat="44.09357" lon="7.02617">
        <ele>1597.9</ele>
        <time>2022-06-11T11:52:03Z</time>
      </trkpt>
      <trkpt lat="44.09359" lon="7.02618">
        <ele>1598.3</ele>
        <time>2022-06-11T11:52:04Z</time>
      </trkpt>
      <trkpt lat="44.09362" lon="7.02618">
        <ele>1598.6</ele>
        <time>2022-06-11T11:52:05Z</time>
      </trkpt>
      <trkpt lat="44.09364" lon="7.02619">
        <ele>1599</ele>
        <time>2022-06-11T11:52:06Z</time>
      </trkpt>
      <trkpt lat="44.09366" lon="7.0262">
        <ele>1599.3</ele>
        <time>2022-06-11T11:52:07Z</time>
      </trkpt>
      <trkpt lat="44.09368" lon="7.02621">
        <ele>1599.7</ele>
        <time>2022-06-11T11:52:08Z</time>
      </trkpt>
      <trkpt lat="44.0937" lon="7.02622">
        <ele>1600</ele>
        <time>2022-06-11T11:52:09Z</time>
      </trkpt>
      <trkpt lat="44.09372" lon="7.02623">
        <ele>1600.2</ele>
        <time>2022-06-11T11:52:10Z</time>
      </trkpt>
      <trkpt lat="44.09374" lon="7.02624">
        <ele>1600.7</ele>
        <time>2022-06-11T11:52:11Z</time>
      </trkpt>
      <trkpt lat="44.09377" lon="7.02625">
        <ele>1601.1</ele>
        <time>2022-06-11T11:52:12Z</time>
      </trkpt>
      <trkpt lat="44.09379" lon="7.02626">
        <ele>1601.4</ele>
        <time>2022-06-11T11:52:13Z</time>
      </trkpt>
      <trkpt lat="44.09381" lon="7.02627">
        <ele>1601.7</ele>
        <time>2022-06-11T11:52:14Z</time>
      </trkpt>
      <trkpt lat="44.09383" lon="7.02628">
        <ele>1601.9</ele>
        <time>2022-06-11T11:52:15Z</time>
      </trkpt>
      <trkpt lat="44.09385" lon="7.02629">
        <ele>1602.2</ele>
        <time>2022-06-11T11:52:16Z</time>
      </trkpt>
      <trkpt lat="44.09387" lon="7.02629">
        <ele>1602.7</ele>
        <time>2022-06-11T11:52:17Z</time>
      </trkpt>
      <trkpt lat="44.09389" lon="7.0263">
        <ele>1603.1</ele>
        <time>2022-06-11T11:52:18Z</time>
      </trkpt>
      <trkpt lat="44.09391" lon="7.0263">
        <ele>1603.6</ele>
        <time>2022-06-11T11:52:19Z</time>
      </trkpt>
      <trkpt lat="44.09393" lon="7.0263">
        <ele>1604</ele>
        <time>2022-06-11T11:52:20Z</time>
      </trkpt>
      <trkpt lat="44.09395" lon="7.02631">
        <ele>1604.3</ele>
        <time>2022-06-11T11:52:21Z</time>
      </trkpt>
      <trkpt lat="44.09397" lon="7.02632">
        <ele>1604.7</ele>
        <time>2022-06-11T11:52:22Z</time>
      </trkpt>
      <trkpt lat="44.09399" lon="7.02632">
        <ele>1605.1</ele>
        <time>2022-06-11T11:52:23Z</time>
      </trkpt>
      <trkpt lat="44.09401" lon="7.02632">
        <ele>1605.5</ele>
        <time>2022-06-11T11:52:24Z</time>
      </trkpt>
      <trkpt lat="44.09403" lon="7.02633">
        <ele>1605.9</ele>
        <time>2022-06-11T11:52:25Z</time>
      </trkpt>
      <trkpt lat="44.09405" lon="7.02633">
        <ele>1606.3</ele>
        <time>2022-06-11T11:52:26Z</time>
      </trkpt>
      <trkpt lat="44.09407" lon="7.02633">
        <ele>1606.8</ele>
        <time>2022-06-11T11:52:27Z</time>
      </trkpt>
      <trkpt lat="44.09409" lon="7.02634">
        <ele>1607.2</ele>
        <time>2022-06-11T11:52:28Z</time>
      </trkpt>
      <trkpt lat="44.09411" lon="7.02634">
        <ele>1607.7</ele>
        <time>2022-06-11T11:52:29Z</time>
      </trkpt>
      <trkpt lat="44.09414" lon="7.02634">
        <ele>1608.4</ele>
        <time>2022-06-11T11:52:30Z</time>
      </trkpt>
      <trkpt lat="44.09416" lon="7.02635">
        <ele>1608.7</ele>
        <time>2022-06-11T11:52:31Z</time>
      </trkpt>
      <trkpt lat="44.09418" lon="7.02635">
        <ele>1609</ele>
        <time>2022-06-11T11:52:32Z</time>
      </trkpt>
      <trkpt lat="44.0942" lon="7.02635">
        <ele>1609.2</ele>
        <time>2022-06-11T11:52:33Z</time>
      </trkpt>
      <trkpt lat="44.09422" lon="7.02636">
        <ele>1609.2</ele>
        <time>2022-06-11T11:52:34Z</time>
      </trkpt>
      <trkpt lat="44.09424" lon="7.02636">
        <ele>1609.4</ele>
        <time>2022-06-11T11:52:35Z</time>
      </trkpt>
      <trkpt lat="44.09426" lon="7.02636">
        <ele>1609.6</ele>
        <time>2022-06-11T11:52:36Z</time>
      </trkpt>
      <trkpt lat="44.09428" lon="7.02636">
        <ele>1609.8</ele>
        <time>2022-06-11T11:52:37Z</time>
      </trkpt>
      <trkpt lat="44.0943" lon="7.02637">
        <ele>1610</ele>
        <time>2022-06-11T11:52:38Z</time>
      </trkpt>
      <trkpt lat="44.09433" lon="7.02637">
        <ele>1610.4</ele>
        <time>2022-06-11T11:52:39Z</time>
      </trkpt>
      <trkpt lat="44.09435" lon="7.02637">
        <ele>1610.6</ele>
        <time>2022-06-11T11:52:40Z</time>
      </trkpt>
      <trkpt lat="44.09437" lon="7.02636">
        <ele>1611.1</ele>
        <time>2022-06-11T11:52:41Z</time>
      </trkpt>
      <trkpt lat="44.09439" lon="7.02636">
        <ele>1611.7</ele>
        <time>2022-06-11T11:52:42Z</time>
      </trkpt>
      <trkpt lat="44.09441" lon="7.02635">
        <ele>1612.4</ele>
        <time>2022-06-11T11:52:43Z</time>
      </trkpt>
      <trkpt lat="44.09444" lon="7.02634">
        <ele>1613.1</ele>
        <time>2022-06-11T11:52:44Z</time>
      </trkpt>
      <trkpt lat="44.09446" lon="7.02634">
        <ele>1613.2</ele>
        <time>2022-06-11T11:52:45Z</time>
      </trkpt>
      <trkpt lat="44.09448" lon="7.02633">
        <ele>1613.2</ele>
        <time>2022-06-11T11:52:46Z</time>
      </trkpt>
      <trkpt lat="44.09451" lon="7.02632">
        <ele>1613.4</ele>
        <time>2022-06-11T11:52:47Z</time>
      </trkpt>
      <trkpt lat="44.09453" lon="7.02631">
        <ele>1613.5</ele>
        <time>2022-06-11T11:52:48Z</time>
      </trkpt>
      <trkpt lat="44.09455" lon="7.0263">
        <ele>1613.8</ele>
        <time>2022-06-11T11:52:49Z</time>
      </trkpt>
      <trkpt lat="44.09457" lon="7.02628">
        <ele>1614.1</ele>
        <time>2022-06-11T11:52:50Z</time>
      </trkpt>
      <trkpt lat="44.09459" lon="7.02627">
        <ele>1614.5</ele>
        <time>2022-06-11T11:52:51Z</time>
      </trkpt>
      <trkpt lat="44.09461" lon="7.02625">
        <ele>1614.9</ele>
        <time>2022-06-11T11:52:52Z</time>
      </trkpt>
      <trkpt lat="44.09464" lon="7.02624">
        <ele>1615</ele>
        <time>2022-06-11T11:52:53Z</time>
      </trkpt>
      <trkpt lat="44.09466" lon="7.02623">
        <ele>1615.2</ele>
        <time>2022-06-11T11:52:54Z</time>
      </trkpt>
      <trkpt lat="44.09468" lon="7.02621">
        <ele>1615.7</ele>
        <time>2022-06-11T11:52:55Z</time>
      </trkpt>
      <trkpt lat="44.0947" lon="7.0262">
        <ele>1616</ele>
        <time>2022-06-11T11:52:56Z</time>
      </trkpt>
      <trkpt lat="44.09472" lon="7.02618">
        <ele>1616.3</ele>
        <time>2022-06-11T11:52:57Z</time>
      </trkpt>
      <trkpt lat="44.09474" lon="7.02617">
        <ele>1616.4</ele>
        <time>2022-06-11T11:52:58Z</time>
      </trkpt>
      <trkpt lat="44.09475" lon="7.02615">
        <ele>1616.5</ele>
        <time>2022-06-11T11:52:59Z</time>
      </trkpt>
      <trkpt lat="44.09477" lon="7.02613">
        <ele>1616.7</ele>
        <time>2022-06-11T11:53:00Z</time>
      </trkpt>
      <trkpt lat="44.09479" lon="7.02612">
        <ele>1616.7</ele>
        <time>2022-06-11T11:53:01Z</time>
      </trkpt>
      <trkpt lat="44.09481" lon="7.0261">
        <ele>1616.9</ele>
        <time>2022-06-11T11:53:02Z</time>
      </trkpt>
      <trkpt lat="44.09482" lon="7.02608">
        <ele>1617</ele>
        <time>2022-06-11T11:53:03Z</time>
      </trkpt>
      <trkpt lat="44.09484" lon="7.02606">
        <ele>1617.3</ele>
        <time>2022-06-11T11:53:04Z</time>
      </trkpt>
      <trkpt lat="44.09486" lon="7.02605">
        <ele>1617.4</ele>
        <time>2022-06-11T11:53:05Z</time>
      </trkpt>
      <trkpt lat="44.09487" lon="7.02603">
        <ele>1617.7</ele>
        <time>2022-06-11T11:53:06Z</time>
      </trkpt>
      <trkpt lat="44.09489" lon="7.02601">
        <ele>1617.8</ele>
        <time>2022-06-11T11:53:07Z</time>
      </trkpt>
      <trkpt lat="44.09491" lon="7.02599">
        <ele>1618</ele>
        <time>2022-06-11T11:53:08Z</time>
      </trkpt>
      <trkpt lat="44.09492" lon="7.02597">
        <ele>1618.3</ele>
        <time>2022-06-11T11:53:09Z</time>
      </trkpt>
      <trkpt lat="44.09494" lon="7.02595">
        <ele>1618.5</ele>
        <time>2022-06-11T11:53:10Z</time>
      </trkpt>
      <trkpt lat="44.09496" lon="7.02594">
        <ele>1618.5</ele>
        <time>2022-06-11T11:53:11Z</time>
      </trkpt>
      <trkpt lat="44.09497" lon="7.02592">
        <ele>1618.6</ele>
        <time>2022-06-11T11:53:12Z</time>
      </trkpt>
      <trkpt lat="44.09499" lon="7.0259">
        <ele>1618.8</ele>
        <time>2022-06-11T11:53:13Z</time>
      </trkpt>
      <trkpt lat="44.09501" lon="7.02588">
        <ele>1618.7</ele>
        <time>2022-06-11T11:53:14Z</time>
      </trkpt>
      <trkpt lat="44.09503" lon="7.02586">
        <ele>1618.7</ele>
        <time>2022-06-11T11:53:15Z</time>
      </trkpt>
      <trkpt lat="44.09505" lon="7.02584">
        <ele>1618.8</ele>
        <time>2022-06-11T11:53:16Z</time>
      </trkpt>
      <trkpt lat="44.09507" lon="7.02582">
        <ele>1618.9</ele>
        <time>2022-06-11T11:53:17Z</time>
      </trkpt>
      <trkpt lat="44.09508" lon="7.0258">
        <ele>1619.3</ele>
        <time>2022-06-11T11:53:18Z</time>
      </trkpt>
      <trkpt lat="44.09509" lon="7.02578">
        <ele>1619.6</ele>
        <time>2022-06-11T11:53:19Z</time>
      </trkpt>
      <trkpt lat="44.09511" lon="7.02575">
        <ele>1619.9</ele>
        <time>2022-06-11T11:53:20Z</time>
      </trkpt>
      <trkpt lat="44.09512" lon="7.02573">
        <ele>1620.3</ele>
        <time>2022-06-11T11:53:21Z</time>
      </trkpt>
      <trkpt lat="44.09514" lon="7.0257">
        <ele>1620.5</ele>
        <time>2022-06-11T11:53:22Z</time>
      </trkpt>
      <trkpt lat="44.09516" lon="7.02568">
        <ele>1620.6</ele>
        <time>2022-06-11T11:53:23Z</time>
      </trkpt>
      <trkpt lat="44.09517" lon="7.02566">
        <ele>1620.7</ele>
        <time>2022-06-11T11:53:24Z</time>
      </trkpt>
      <trkpt lat="44.09519" lon="7.02564">
        <ele>1620.6</ele>
        <time>2022-06-11T11:53:25Z</time>
      </trkpt>
      <trkpt lat="44.09521" lon="7.02563">
        <ele>1620.5</ele>
        <time>2022-06-11T11:53:26Z</time>
      </trkpt>
      <trkpt lat="44.09522" lon="7.02561">
        <ele>1620.5</ele>
        <time>2022-06-11T11:53:27Z</time>
      </trkpt>
      <trkpt lat="44.09524" lon="7.02559">
        <ele>1620.3</ele>
        <time>2022-06-11T11:53:28Z</time>
      </trkpt>
      <trkpt lat="44.09526" lon="7.02557">
        <ele>1620.3</ele>
        <time>2022-06-11T11:53:29Z</time>
      </trkpt>
      <trkpt lat="44.09528" lon="7.02554">
        <ele>1620.4</ele>
        <time>2022-06-11T11:53:30Z</time>
      </trkpt>
      <trkpt lat="44.0953" lon="7.02552">
        <ele>1620.3</ele>
        <time>2022-06-11T11:53:31Z</time>
      </trkpt>
      <trkpt lat="44.09532" lon="7.0255">
        <ele>1620.3</ele>
        <time>2022-06-11T11:53:32Z</time>
      </trkpt>
      <trkpt lat="44.09533" lon="7.02548">
        <ele>1620.5</ele>
        <time>2022-06-11T11:53:33Z</time>
      </trkpt>
      <trkpt lat="44.09535" lon="7.02546">
        <ele>1620.6</ele>
        <time>2022-06-11T11:53:34Z</time>
      </trkpt>
      <trkpt lat="44.09537" lon="7.02543">
        <ele>1620.8</ele>
        <time>2022-06-11T11:53:35Z</time>
      </trkpt>
      <trkpt lat="44.09538" lon="7.02541">
        <ele>1621.1</ele>
        <time>2022-06-11T11:53:36Z</time>
      </trkpt>
      <trkpt lat="44.09539" lon="7.02539">
        <ele>1621.4</ele>
        <time>2022-06-11T11:53:37Z</time>
      </trkpt>
      <trkpt lat="44.09541" lon="7.02537">
        <ele>1621.5</ele>
        <time>2022-06-11T11:53:38Z</time>
      </trkpt>
      <trkpt lat="44.09542" lon="7.02535">
        <ele>1621.7</ele>
        <time>2022-06-11T11:53:39Z</time>
      </trkpt>
      <trkpt lat="44.09544" lon="7.02532">
        <ele>1622.1</ele>
        <time>2022-06-11T11:53:40Z</time>
      </trkpt>
      <trkpt lat="44.09545" lon="7.0253">
        <ele>1622.6</ele>
        <time>2022-06-11T11:53:41Z</time>
      </trkpt>
      <trkpt lat="44.09546" lon="7.02527">
        <ele>1623</ele>
        <time>2022-06-11T11:53:42Z</time>
      </trkpt>
      <trkpt lat="44.09547" lon="7.02525">
        <ele>1623.3</ele>
        <time>2022-06-11T11:53:43Z</time>
      </trkpt>
      <trkpt lat="44.09549" lon="7.02523">
        <ele>1623.6</ele>
        <time>2022-06-11T11:53:44Z</time>
      </trkpt>
      <trkpt lat="44.0955" lon="7.02521">
        <ele>1623.8</ele>
        <time>2022-06-11T11:53:45Z</time>
      </trkpt>
      <trkpt lat="44.09552" lon="7.02519">
        <ele>1624</ele>
        <time>2022-06-11T11:53:46Z</time>
      </trkpt>
      <trkpt lat="44.09554" lon="7.02516">
        <ele>1624.4</ele>
        <time>2022-06-11T11:53:47Z</time>
      </trkpt>
      <trkpt lat="44.09555" lon="7.02514">
        <ele>1624.7</ele>
        <time>2022-06-11T11:53:48Z</time>
      </trkpt>
      <trkpt lat="44.09556" lon="7.02512">
        <ele>1625.1</ele>
        <time>2022-06-11T11:53:49Z</time>
      </trkpt>
      <trkpt lat="44.09558" lon="7.02509">
        <ele>1625.4</ele>
        <time>2022-06-11T11:53:50Z</time>
      </trkpt>
      <trkpt lat="44.09559" lon="7.02507">
        <ele>1625.8</ele>
        <time>2022-06-11T11:53:51Z</time>
      </trkpt>
      <trkpt lat="44.09561" lon="7.02505">
        <ele>1626.3</ele>
        <time>2022-06-11T11:53:52Z</time>
      </trkpt>
      <trkpt lat="44.09562" lon="7.02502">
        <ele>1626.8</ele>
        <time>2022-06-11T11:53:53Z</time>
      </trkpt>
      <trkpt lat="44.09563" lon="7.025">
        <ele>1627.3</ele>
        <time>2022-06-11T11:53:54Z</time>
      </trkpt>
      <trkpt lat="44.09564" lon="7.02498">
        <ele>1627.6</ele>
        <time>2022-06-11T11:53:55Z</time>
      </trkpt>
      <trkpt lat="44.09565" lon="7.02496">
        <ele>1628.1</ele>
        <time>2022-06-11T11:53:56Z</time>
      </trkpt>
      <trkpt lat="44.09566" lon="7.02494">
        <ele>1628.7</ele>
        <time>2022-06-11T11:53:57Z</time>
      </trkpt>
      <trkpt lat="44.09568" lon="7.02491">
        <ele>1629.1</ele>
        <time>2022-06-11T11:53:58Z</time>
      </trkpt>
      <trkpt lat="44.09569" lon="7.02489">
        <ele>1629.6</ele>
        <time>2022-06-11T11:53:59Z</time>
      </trkpt>
      <trkpt lat="44.0957" lon="7.02487">
        <ele>1630.2</ele>
        <time>2022-06-11T11:54:00Z</time>
      </trkpt>
      <trkpt lat="44.09571" lon="7.02485">
        <ele>1630.6</ele>
        <time>2022-06-11T11:54:01Z</time>
      </trkpt>
      <trkpt lat="44.09573" lon="7.02483">
        <ele>1630.7</ele>
        <time>2022-06-11T11:54:02Z</time>
      </trkpt>
      <trkpt lat="44.09574" lon="7.02482">
        <ele>1630.8</ele>
        <time>2022-06-11T11:54:03Z</time>
      </trkpt>
      <trkpt lat="44.09576" lon="7.0248">
        <ele>1630.9</ele>
        <time>2022-06-11T11:54:04Z</time>
      </trkpt>
      <trkpt lat="44.09578" lon="7.02479">
        <ele>1630.8</ele>
        <time>2022-06-11T11:54:05Z</time>
      </trkpt>
      <trkpt lat="44.0958" lon="7.02478">
        <ele>1630.7</ele>
        <time>2022-06-11T11:54:06Z</time>
      </trkpt>
      <trkpt lat="44.09582" lon="7.02477">
        <ele>1630.4</ele>
        <time>2022-06-11T11:54:07Z</time>
      </trkpt>
      <trkpt lat="44.09584" lon="7.02476">
        <ele>1630.3</ele>
        <time>2022-06-11T11:54:08Z</time>
      </trkpt>
      <trkpt lat="44.09586" lon="7.02475">
        <ele>1630.3</ele>
        <time>2022-06-11T11:54:09Z</time>
      </trkpt>
      <trkpt lat="44.09588" lon="7.02474">
        <ele>1630.1</ele>
        <time>2022-06-11T11:54:10Z</time>
      </trkpt>
      <trkpt lat="44.0959" lon="7.02473">
        <ele>1629.8</ele>
        <time>2022-06-11T11:54:11Z</time>
      </trkpt>
      <trkpt lat="44.09592" lon="7.02473">
        <ele>1629.4</ele>
        <time>2022-06-11T11:54:12Z</time>
      </trkpt>
      <trkpt lat="44.09594" lon="7.02473">
        <ele>1629.1</ele>
        <time>2022-06-11T11:54:13Z</time>
      </trkpt>
      <trkpt lat="44.09597" lon="7.02472">
        <ele>1628.7</ele>
        <time>2022-06-11T11:54:14Z</time>
      </trkpt>
      <trkpt lat="44.09599" lon="7.02472">
        <ele>1628.5</ele>
        <time>2022-06-11T11:54:15Z</time>
      </trkpt>
      <trkpt lat="44.09601" lon="7.02471">
        <ele>1628.4</ele>
        <time>2022-06-11T11:54:16Z</time>
      </trkpt>
      <trkpt lat="44.09603" lon="7.02471">
        <ele>1627.8</ele>
        <time>2022-06-11T11:54:17Z</time>
      </trkpt>
      <trkpt lat="44.09605" lon="7.0247">
        <ele>1627.4</ele>
        <time>2022-06-11T11:54:18Z</time>
      </trkpt>
      <trkpt lat="44.09607" lon="7.0247">
        <ele>1627.1</ele>
        <time>2022-06-11T11:54:19Z</time>
      </trkpt>
      <trkpt lat="44.09609" lon="7.02469">
        <ele>1627</ele>
        <time>2022-06-11T11:54:20Z</time>
      </trkpt>
      <trkpt lat="44.09611" lon="7.02468">
        <ele>1626.8</ele>
        <time>2022-06-11T11:54:21Z</time>
      </trkpt>
      <trkpt lat="44.09613" lon="7.02467">
        <ele>1626.8</ele>
        <time>2022-06-11T11:54:22Z</time>
      </trkpt>
      <trkpt lat="44.09615" lon="7.02467">
        <ele>1626.6</ele>
        <time>2022-06-11T11:54:23Z</time>
      </trkpt>
      <trkpt lat="44.09617" lon="7.02466">
        <ele>1626.6</ele>
        <time>2022-06-11T11:54:24Z</time>
      </trkpt>
      <trkpt lat="44.09619" lon="7.02464">
        <ele>1626.8</ele>
        <time>2022-06-11T11:54:25Z</time>
      </trkpt>
      <trkpt lat="44.09621" lon="7.02462">
        <ele>1627.3</ele>
        <time>2022-06-11T11:54:26Z</time>
      </trkpt>
      <trkpt lat="44.09623" lon="7.0246">
        <ele>1627.9</ele>
        <time>2022-06-11T11:54:27Z</time>
      </trkpt>
      <trkpt lat="44.09624" lon="7.02458">
        <ele>1628.5</ele>
        <time>2022-06-11T11:54:28Z</time>
      </trkpt>
      <trkpt lat="44.09625" lon="7.02456">
        <ele>1629.1</ele>
        <time>2022-06-11T11:54:29Z</time>
      </trkpt>
      <trkpt lat="44.09627" lon="7.02454">
        <ele>1629.8</ele>
        <time>2022-06-11T11:54:30Z</time>
      </trkpt>
      <trkpt lat="44.09628" lon="7.02451">
        <ele>1630.5</ele>
        <time>2022-06-11T11:54:31Z</time>
      </trkpt>
      <trkpt lat="44.0963" lon="7.02449">
        <ele>1631.1</ele>
        <time>2022-06-11T11:54:32Z</time>
      </trkpt>
      <trkpt lat="44.09631" lon="7.02448">
        <ele>1631.5</ele>
        <time>2022-06-11T11:54:33Z</time>
      </trkpt>
      <trkpt lat="44.09632" lon="7.02446">
        <ele>1632</ele>
        <time>2022-06-11T11:54:34Z</time>
      </trkpt>
      <trkpt lat="44.09634" lon="7.02444">
        <ele>1632.4</ele>
        <time>2022-06-11T11:54:35Z</time>
      </trkpt>
      <trkpt lat="44.09635" lon="7.02442">
        <ele>1632.8</ele>
        <time>2022-06-11T11:54:36Z</time>
      </trkpt>
      <trkpt lat="44.09637" lon="7.0244">
        <ele>1633</ele>
        <time>2022-06-11T11:54:37Z</time>
      </trkpt>
      <trkpt lat="44.09638" lon="7.02439">
        <ele>1633.3</ele>
        <time>2022-06-11T11:54:38Z</time>
      </trkpt>
      <trkpt lat="44.0964" lon="7.02437">
        <ele>1633.6</ele>
        <time>2022-06-11T11:54:39Z</time>
      </trkpt>
      <trkpt lat="44.09641" lon="7.02434">
        <ele>1633.9</ele>
        <time>2022-06-11T11:54:40Z</time>
      </trkpt>
      <trkpt lat="44.09642" lon="7.02432">
        <ele>1634.2</ele>
        <time>2022-06-11T11:54:41Z</time>
      </trkpt>
      <trkpt lat="44.09643" lon="7.0243">
        <ele>1634.5</ele>
        <time>2022-06-11T11:54:42Z</time>
      </trkpt>
      <trkpt lat="44.09644" lon="7.02428">
        <ele>1634.9</ele>
        <time>2022-06-11T11:54:43Z</time>
      </trkpt>
      <trkpt lat="44.09645" lon="7.02425">
        <ele>1635.6</ele>
        <time>2022-06-11T11:54:44Z</time>
      </trkpt>
      <trkpt lat="44.09646" lon="7.02423">
        <ele>1636.4</ele>
        <time>2022-06-11T11:54:45Z</time>
      </trkpt>
      <trkpt lat="44.09646" lon="7.02421">
        <ele>1637</ele>
        <time>2022-06-11T11:54:46Z</time>
      </trkpt>
      <trkpt lat="44.09647" lon="7.02418">
        <ele>1637.4</ele>
        <time>2022-06-11T11:54:47Z</time>
      </trkpt>
      <trkpt lat="44.09648" lon="7.02416">
        <ele>1637.8</ele>
        <time>2022-06-11T11:54:48Z</time>
      </trkpt>
      <trkpt lat="44.0965" lon="7.02414">
        <ele>1638</ele>
        <time>2022-06-11T11:54:49Z</time>
      </trkpt>
      <trkpt lat="44.09651" lon="7.02412">
        <ele>1638.2</ele>
        <time>2022-06-11T11:54:50Z</time>
      </trkpt>
      <trkpt lat="44.09653" lon="7.0241">
        <ele>1638.3</ele>
        <time>2022-06-11T11:54:51Z</time>
      </trkpt>
      <trkpt lat="44.09654" lon="7.02409">
        <ele>1638.4</ele>
        <time>2022-06-11T11:54:52Z</time>
      </trkpt>
      <trkpt lat="44.09655" lon="7.02407">
        <ele>1638.5</ele>
        <time>2022-06-11T11:54:53Z</time>
      </trkpt>
      <trkpt lat="44.09657" lon="7.02405">
        <ele>1638.5</ele>
        <time>2022-06-11T11:54:54Z</time>
      </trkpt>
      <trkpt lat="44.09659" lon="7.02404">
        <ele>1638.3</ele>
        <time>2022-06-11T11:54:55Z</time>
      </trkpt>
      <trkpt lat="44.09661" lon="7.02402">
        <ele>1638.3</ele>
        <time>2022-06-11T11:54:56Z</time>
      </trkpt>
      <trkpt lat="44.09663" lon="7.024">
        <ele>1638.5</ele>
        <time>2022-06-11T11:54:57Z</time>
      </trkpt>
      <trkpt lat="44.09664" lon="7.02398">
        <ele>1638.6</ele>
        <time>2022-06-11T11:54:58Z</time>
      </trkpt>
      <trkpt lat="44.09666" lon="7.02396">
        <ele>1638.7</ele>
        <time>2022-06-11T11:54:59Z</time>
      </trkpt>
      <trkpt lat="44.09668" lon="7.02394">
        <ele>1638.8</ele>
        <time>2022-06-11T11:55:00Z</time>
      </trkpt>
      <trkpt lat="44.09669" lon="7.02392">
        <ele>1638.8</ele>
        <time>2022-06-11T11:55:01Z</time>
      </trkpt>
      <trkpt lat="44.09671" lon="7.02391">
        <ele>1638.6</ele>
        <time>2022-06-11T11:55:02Z</time>
      </trkpt>
      <trkpt lat="44.09672" lon="7.02389">
        <ele>1638.7</ele>
        <time>2022-06-11T11:55:03Z</time>
      </trkpt>
      <trkpt lat="44.09674" lon="7.02387">
        <ele>1638.5</ele>
        <time>2022-06-11T11:55:04Z</time>
      </trkpt>
      <trkpt lat="44.09676" lon="7.02385">
        <ele>1638.4</ele>
        <time>2022-06-11T11:55:05Z</time>
      </trkpt>
      <trkpt lat="44.09677" lon="7.02383">
        <ele>1638.3</ele>
        <time>2022-06-11T11:55:06Z</time>
      </trkpt>
      <trkpt lat="44.09679" lon="7.02381">
        <ele>1638.1</ele>
        <time>2022-06-11T11:55:07Z</time>
      </trkpt>
      <trkpt lat="44.09681" lon="7.0238">
        <ele>1637.8</ele>
        <time>2022-06-11T11:55:08Z</time>
      </trkpt>
      <trkpt lat="44.09683" lon="7.02378">
        <ele>1637.6</ele>
        <time>2022-06-11T11:55:09Z</time>
      </trkpt>
      <trkpt lat="44.09685" lon="7.02376">
        <ele>1637.5</ele>
        <time>2022-06-11T11:55:10Z</time>
      </trkpt>
      <trkpt lat="44.09686" lon="7.02374">
        <ele>1637.5</ele>
        <time>2022-06-11T11:55:11Z</time>
      </trkpt>
      <trkpt lat="44.09687" lon="7.02372">
        <ele>1637.7</ele>
        <time>2022-06-11T11:55:12Z</time>
      </trkpt>
      <trkpt lat="44.09689" lon="7.0237">
        <ele>1637.7</ele>
        <time>2022-06-11T11:55:13Z</time>
      </trkpt>
      <trkpt lat="44.0969" lon="7.02368">
        <ele>1637.6</ele>
        <time>2022-06-11T11:55:14Z</time>
      </trkpt>
      <trkpt lat="44.09692" lon="7.02366">
        <ele>1637.7</ele>
        <time>2022-06-11T11:55:15Z</time>
      </trkpt>
      <trkpt lat="44.09693" lon="7.02364">
        <ele>1637.8</ele>
        <time>2022-06-11T11:55:16Z</time>
      </trkpt>
      <trkpt lat="44.09694" lon="7.02362">
        <ele>1638</ele>
        <time>2022-06-11T11:55:17Z</time>
      </trkpt>
      <trkpt lat="44.09696" lon="7.02359">
        <ele>1638.3</ele>
        <time>2022-06-11T11:55:18Z</time>
      </trkpt>
      <trkpt lat="44.09697" lon="7.02357">
        <ele>1638.6</ele>
        <time>2022-06-11T11:55:19Z</time>
      </trkpt>
      <trkpt lat="44.09698" lon="7.02354">
        <ele>1639.1</ele>
        <time>2022-06-11T11:55:20Z</time>
      </trkpt>
      <trkpt lat="44.09698" lon="7.02352">
        <ele>1639.5</ele>
        <time>2022-06-11T11:55:21Z</time>
      </trkpt>
      <trkpt lat="44.09699" lon="7.02349">
        <ele>1640</ele>
        <time>2022-06-11T11:55:22Z</time>
      </trkpt>
      <trkpt lat="44.097" lon="7.02346">
        <ele>1640.6</ele>
        <time>2022-06-11T11:55:23Z</time>
      </trkpt>
      <trkpt lat="44.09701" lon="7.02343">
        <ele>1641.2</ele>
        <time>2022-06-11T11:55:24Z</time>
      </trkpt>
      <trkpt lat="44.09702" lon="7.0234">
        <ele>1641.8</ele>
        <time>2022-06-11T11:55:25Z</time>
      </trkpt>
      <trkpt lat="44.09702" lon="7.02337">
        <ele>1642.4</ele>
        <time>2022-06-11T11:55:26Z</time>
      </trkpt>
      <trkpt lat="44.09703" lon="7.02334">
        <ele>1643</ele>
        <time>2022-06-11T11:55:27Z</time>
      </trkpt>
      <trkpt lat="44.09703" lon="7.02332">
        <ele>1643.6</ele>
        <time>2022-06-11T11:55:28Z</time>
      </trkpt>
      <trkpt lat="44.09704" lon="7.02329">
        <ele>1644.2</ele>
        <time>2022-06-11T11:55:29Z</time>
      </trkpt>
      <trkpt lat="44.09704" lon="7.02326">
        <ele>1644.8</ele>
        <time>2022-06-11T11:55:30Z</time>
      </trkpt>
      <trkpt lat="44.09705" lon="7.02323">
        <ele>1645.3</ele>
        <time>2022-06-11T11:55:31Z</time>
      </trkpt>
      <trkpt lat="44.09705" lon="7.0232">
        <ele>1645.9</ele>
        <time>2022-06-11T11:55:32Z</time>
      </trkpt>
      <trkpt lat="44.09706" lon="7.02317">
        <ele>1646.5</ele>
        <time>2022-06-11T11:55:33Z</time>
      </trkpt>
      <trkpt lat="44.09706" lon="7.02314">
        <ele>1647</ele>
        <time>2022-06-11T11:55:34Z</time>
      </trkpt>
      <trkpt lat="44.09707" lon="7.02311">
        <ele>1647.4</ele>
        <time>2022-06-11T11:55:35Z</time>
      </trkpt>
      <trkpt lat="44.09708" lon="7.02309">
        <ele>1647.9</ele>
        <time>2022-06-11T11:55:36Z</time>
      </trkpt>
      <trkpt lat="44.09709" lon="7.02306">
        <ele>1648.3</ele>
        <time>2022-06-11T11:55:37Z</time>
      </trkpt>
      <trkpt lat="44.0971" lon="7.02304">
        <ele>1648.6</ele>
        <time>2022-06-11T11:55:38Z</time>
      </trkpt>
      <trkpt lat="44.09711" lon="7.02302">
        <ele>1649.2</ele>
        <time>2022-06-11T11:55:39Z</time>
      </trkpt>
      <trkpt lat="44.09712" lon="7.023">
        <ele>1649.9</ele>
        <time>2022-06-11T11:55:40Z</time>
      </trkpt>
      <trkpt lat="44.09713" lon="7.02297">
        <ele>1650.6</ele>
        <time>2022-06-11T11:55:41Z</time>
      </trkpt>
      <trkpt lat="44.09715" lon="7.02294">
        <ele>1651.3</ele>
        <time>2022-06-11T11:55:42Z</time>
      </trkpt>
      <trkpt lat="44.09717" lon="7.02292">
        <ele>1652</ele>
        <time>2022-06-11T11:55:43Z</time>
      </trkpt>
      <trkpt lat="44.09718" lon="7.0229">
        <ele>1652.3</ele>
        <time>2022-06-11T11:55:44Z</time>
      </trkpt>
      <trkpt lat="44.09721" lon="7.02289">
        <ele>1652.3</ele>
        <time>2022-06-11T11:55:45Z</time>
      </trkpt>
      <trkpt lat="44.09723" lon="7.0229">
        <ele>1652</ele>
        <time>2022-06-11T11:55:46Z</time>
      </trkpt>
      <trkpt lat="44.09725" lon="7.02291">
        <ele>1652.1</ele>
        <time>2022-06-11T11:55:47Z</time>
      </trkpt>
      <trkpt lat="44.09727" lon="7.02292">
        <ele>1652</ele>
        <time>2022-06-11T11:55:48Z</time>
      </trkpt>
      <trkpt lat="44.09729" lon="7.02292">
        <ele>1652.2</ele>
        <time>2022-06-11T11:55:49Z</time>
      </trkpt>
      <trkpt lat="44.09731" lon="7.02293">
        <ele>1652.5</ele>
        <time>2022-06-11T11:55:50Z</time>
      </trkpt>
      <trkpt lat="44.09733" lon="7.02293">
        <ele>1652.8</ele>
        <time>2022-06-11T11:55:51Z</time>
      </trkpt>
      <trkpt lat="44.09736" lon="7.02293">
        <ele>1653.1</ele>
        <time>2022-06-11T11:55:52Z</time>
      </trkpt>
      <trkpt lat="44.09738" lon="7.02294">
        <ele>1653.3</ele>
        <time>2022-06-11T11:55:53Z</time>
      </trkpt>
      <trkpt lat="44.0974" lon="7.02295">
        <ele>1653.4</ele>
        <time>2022-06-11T11:55:54Z</time>
      </trkpt>
      <trkpt lat="44.09742" lon="7.02295">
        <ele>1653.7</ele>
        <time>2022-06-11T11:55:55Z</time>
      </trkpt>
      <trkpt lat="44.09744" lon="7.02296">
        <ele>1653.7</ele>
        <time>2022-06-11T11:55:56Z</time>
      </trkpt>
      <trkpt lat="44.09746" lon="7.02296">
        <ele>1653.9</ele>
        <time>2022-06-11T11:55:57Z</time>
      </trkpt>
      <trkpt lat="44.09748" lon="7.02297">
        <ele>1653.9</ele>
        <time>2022-06-11T11:55:58Z</time>
      </trkpt>
      <trkpt lat="44.0975" lon="7.02298">
        <ele>1654</ele>
        <time>2022-06-11T11:55:59Z</time>
      </trkpt>
      <trkpt lat="44.09752" lon="7.02298">
        <ele>1653.8</ele>
        <time>2022-06-11T11:56:00Z</time>
      </trkpt>
      <trkpt lat="44.09754" lon="7.02299">
        <ele>1653.7</ele>
        <time>2022-06-11T11:56:01Z</time>
      </trkpt>
      <trkpt lat="44.09756" lon="7.02299">
        <ele>1653.6</ele>
        <time>2022-06-11T11:56:02Z</time>
      </trkpt>
      <trkpt lat="44.09758" lon="7.023">
        <ele>1653.6</ele>
        <time>2022-06-11T11:56:03Z</time>
      </trkpt>
      <trkpt lat="44.09761" lon="7.023">
        <ele>1653.7</ele>
        <time>2022-06-11T11:56:04Z</time>
      </trkpt>
      <trkpt lat="44.09763" lon="7.023">
        <ele>1653.8</ele>
        <time>2022-06-11T11:56:05Z</time>
      </trkpt>
      <trkpt lat="44.09765" lon="7.023">
        <ele>1654.1</ele>
        <time>2022-06-11T11:56:06Z</time>
      </trkpt>
      <trkpt lat="44.09767" lon="7.02299">
        <ele>1654.4</ele>
        <time>2022-06-11T11:56:07Z</time>
      </trkpt>
      <trkpt lat="44.09769" lon="7.02299">
        <ele>1654.7</ele>
        <time>2022-06-11T11:56:08Z</time>
      </trkpt>
      <trkpt lat="44.09771" lon="7.02299">
        <ele>1655</ele>
        <time>2022-06-11T11:56:09Z</time>
      </trkpt>
      <trkpt lat="44.09773" lon="7.02298">
        <ele>1655.4</ele>
        <time>2022-06-11T11:56:10Z</time>
      </trkpt>
      <trkpt lat="44.09775" lon="7.02297">
        <ele>1656</ele>
        <time>2022-06-11T11:56:11Z</time>
      </trkpt>
      <trkpt lat="44.09777" lon="7.02296">
        <ele>1656.6</ele>
        <time>2022-06-11T11:56:12Z</time>
      </trkpt>
      <trkpt lat="44.09779" lon="7.02295">
        <ele>1656.9</ele>
        <time>2022-06-11T11:56:13Z</time>
      </trkpt>
      <trkpt lat="44.09781" lon="7.02294">
        <ele>1657.2</ele>
        <time>2022-06-11T11:56:14Z</time>
      </trkpt>
      <trkpt lat="44.09783" lon="7.02293">
        <ele>1657.4</ele>
        <time>2022-06-11T11:56:15Z</time>
      </trkpt>
      <trkpt lat="44.09785" lon="7.02291">
        <ele>1657.6</ele>
        <time>2022-06-11T11:56:16Z</time>
      </trkpt>
      <trkpt lat="44.09786" lon="7.0229">
        <ele>1658</ele>
        <time>2022-06-11T11:56:17Z</time>
      </trkpt>
      <trkpt lat="44.09788" lon="7.02288">
        <ele>1658.2</ele>
        <time>2022-06-11T11:56:18Z</time>
      </trkpt>
      <trkpt lat="44.0979" lon="7.02287">
        <ele>1658.4</ele>
        <time>2022-06-11T11:56:19Z</time>
      </trkpt>
      <trkpt lat="44.09792" lon="7.02285">
        <ele>1658.7</ele>
        <time>2022-06-11T11:56:20Z</time>
      </trkpt>
      <trkpt lat="44.09794" lon="7.02284">
        <ele>1658.9</ele>
        <time>2022-06-11T11:56:21Z</time>
      </trkpt>
      <trkpt lat="44.09795" lon="7.02282">
        <ele>1659.1</ele>
        <time>2022-06-11T11:56:22Z</time>
      </trkpt>
      <trkpt lat="44.09797" lon="7.02281">
        <ele>1659.3</ele>
        <time>2022-06-11T11:56:23Z</time>
      </trkpt>
      <trkpt lat="44.09799" lon="7.02279">
        <ele>1659.4</ele>
        <time>2022-06-11T11:56:24Z</time>
      </trkpt>
      <trkpt lat="44.09801" lon="7.02278">
        <ele>1659.5</ele>
        <time>2022-06-11T11:56:25Z</time>
      </trkpt>
      <trkpt lat="44.09803" lon="7.02276">
        <ele>1659.7</ele>
        <time>2022-06-11T11:56:26Z</time>
      </trkpt>
      <trkpt lat="44.09804" lon="7.02275">
        <ele>1659.8</ele>
        <time>2022-06-11T11:56:27Z</time>
      </trkpt>
      <trkpt lat="44.09807" lon="7.02274">
        <ele>1660.2</ele>
        <time>2022-06-11T11:56:28Z</time>
      </trkpt>
      <trkpt lat="44.09809" lon="7.02273">
        <ele>1660.9</ele>
        <time>2022-06-11T11:56:29Z</time>
      </trkpt>
      <trkpt lat="44.09811" lon="7.02272">
        <ele>1661.8</ele>
        <time>2022-06-11T11:56:30Z</time>
      </trkpt>
      <trkpt lat="44.09813" lon="7.02272">
        <ele>1662.3</ele>
        <time>2022-06-11T11:56:31Z</time>
      </trkpt>
      <trkpt lat="44.09815" lon="7.02272">
        <ele>1662.8</ele>
        <time>2022-06-11T11:56:32Z</time>
      </trkpt>
      <trkpt lat="44.09817" lon="7.02272">
        <ele>1663.1</ele>
        <time>2022-06-11T11:56:33Z</time>
      </trkpt>
      <trkpt lat="44.09819" lon="7.02274">
        <ele>1663.1</ele>
        <time>2022-06-11T11:56:34Z</time>
      </trkpt>
      <trkpt lat="44.09821" lon="7.02276">
        <ele>1662.6</ele>
        <time>2022-06-11T11:56:35Z</time>
      </trkpt>
      <trkpt lat="44.09822" lon="7.02278">
        <ele>1662.1</ele>
        <time>2022-06-11T11:56:36Z</time>
      </trkpt>
      <trkpt lat="44.09824" lon="7.0228">
        <ele>1662</ele>
        <time>2022-06-11T11:56:37Z</time>
      </trkpt>
      <trkpt lat="44.09825" lon="7.02282">
        <ele>1662</ele>
        <time>2022-06-11T11:56:38Z</time>
      </trkpt>
      <trkpt lat="44.09827" lon="7.02284">
        <ele>1661.9</ele>
        <time>2022-06-11T11:56:39Z</time>
      </trkpt>
      <trkpt lat="44.09829" lon="7.02285">
        <ele>1661.9</ele>
        <time>2022-06-11T11:56:40Z</time>
      </trkpt>
      <trkpt lat="44.0983" lon="7.02287">
        <ele>1662</ele>
        <time>2022-06-11T11:56:41Z</time>
      </trkpt>
      <trkpt lat="44.09832" lon="7.02289">
        <ele>1662</ele>
        <time>2022-06-11T11:56:42Z</time>
      </trkpt>
      <trkpt lat="44.09833" lon="7.02292">
        <ele>1661.9</ele>
        <time>2022-06-11T11:56:43Z</time>
      </trkpt>
      <trkpt lat="44.09834" lon="7.02294">
        <ele>1661.8</ele>
        <time>2022-06-11T11:56:44Z</time>
      </trkpt>
      <trkpt lat="44.09836" lon="7.02296">
        <ele>1661.7</ele>
        <time>2022-06-11T11:56:45Z</time>
      </trkpt>
      <trkpt lat="44.09837" lon="7.02299">
        <ele>1661.6</ele>
        <time>2022-06-11T11:56:46Z</time>
      </trkpt>
      <trkpt lat="44.09838" lon="7.02301">
        <ele>1661.6</ele>
        <time>2022-06-11T11:56:47Z</time>
      </trkpt>
      <trkpt lat="44.0984" lon="7.02303">
        <ele>1661.4</ele>
        <time>2022-06-11T11:56:48Z</time>
      </trkpt>
      <trkpt lat="44.09841" lon="7.02305">
        <ele>1661.5</ele>
        <time>2022-06-11T11:56:49Z</time>
      </trkpt>
      <trkpt lat="44.09843" lon="7.02306">
        <ele>1661.7</ele>
        <time>2022-06-11T11:56:50Z</time>
      </trkpt>
      <trkpt lat="44.09845" lon="7.02308">
        <ele>1662</ele>
        <time>2022-06-11T11:56:51Z</time>
      </trkpt>
      <trkpt lat="44.09847" lon="7.02309">
        <ele>1662.2</ele>
        <time>2022-06-11T11:56:52Z</time>
      </trkpt>
      <trkpt lat="44.09849" lon="7.0231">
        <ele>1662.6</ele>
        <time>2022-06-11T11:56:53Z</time>
      </trkpt>
      <trkpt lat="44.09851" lon="7.0231">
        <ele>1663</ele>
        <time>2022-06-11T11:56:54Z</time>
      </trkpt>
      <trkpt lat="44.09853" lon="7.02311">
        <ele>1663.4</ele>
        <time>2022-06-11T11:56:55Z</time>
      </trkpt>
      <trkpt lat="44.09855" lon="7.02311">
        <ele>1663.9</ele>
        <time>2022-06-11T11:56:56Z</time>
      </trkpt>
      <trkpt lat="44.09858" lon="7.02312">
        <ele>1664.4</ele>
        <time>2022-06-11T11:56:57Z</time>
      </trkpt>
      <trkpt lat="44.0986" lon="7.02312">
        <ele>1665</ele>
        <time>2022-06-11T11:56:58Z</time>
      </trkpt>
      <trkpt lat="44.09862" lon="7.02312">
        <ele>1665.5</ele>
        <time>2022-06-11T11:56:59Z</time>
      </trkpt>
      <trkpt lat="44.09865" lon="7.02313">
        <ele>1665.6</ele>
        <time>2022-06-11T11:57:00Z</time>
      </trkpt>
      <trkpt lat="44.09867" lon="7.02313">
        <ele>1665.8</ele>
        <time>2022-06-11T11:57:01Z</time>
      </trkpt>
      <trkpt lat="44.0987" lon="7.02313">
        <ele>1666</ele>
        <time>2022-06-11T11:57:02Z</time>
      </trkpt>
      <trkpt lat="44.09872" lon="7.02313">
        <ele>1666.2</ele>
        <time>2022-06-11T11:57:03Z</time>
      </trkpt>
      <trkpt lat="44.09875" lon="7.02313">
        <ele>1666.5</ele>
        <time>2022-06-11T11:57:04Z</time>
      </trkpt>
      <trkpt lat="44.09877" lon="7.02313">
        <ele>1666.7</ele>
        <time>2022-06-11T11:57:05Z</time>
      </trkpt>
      <trkpt lat="44.0988" lon="7.02313">
        <ele>1666.9</ele>
        <time>2022-06-11T11:57:06Z</time>
      </trkpt>
      <trkpt lat="44.09882" lon="7.02313">
        <ele>1667.2</ele>
        <time>2022-06-11T11:57:07Z</time>
      </trkpt>
      <trkpt lat="44.09885" lon="7.02313">
        <ele>1667.4</ele>
        <time>2022-06-11T11:57:08Z</time>
      </trkpt>
      <trkpt lat="44.09888" lon="7.02314">
        <ele>1667.6</ele>
        <time>2022-06-11T11:57:09Z</time>
      </trkpt>
      <trkpt lat="44.09891" lon="7.02315">
        <ele>1667.8</ele>
        <time>2022-06-11T11:57:10Z</time>
      </trkpt>
      <trkpt lat="44.09893" lon="7.02316">
        <ele>1668.2</ele>
        <time>2022-06-11T11:57:11Z</time>
      </trkpt>
      <trkpt lat="44.09896" lon="7.02318">
        <ele>1668.2</ele>
        <time>2022-06-11T11:57:12Z</time>
      </trkpt>
      <trkpt lat="44.09898" lon="7.0232">
        <ele>1668.3</ele>
        <time>2022-06-11T11:57:13Z</time>
      </trkpt>
      <trkpt lat="44.09901" lon="7.02322">
        <ele>1668.3</ele>
        <time>2022-06-11T11:57:14Z</time>
      </trkpt>
      <trkpt lat="44.09903" lon="7.02324">
        <ele>1668.3</ele>
        <time>2022-06-11T11:57:15Z</time>
      </trkpt>
      <trkpt lat="44.09905" lon="7.02326">
        <ele>1668.2</ele>
        <time>2022-06-11T11:57:16Z</time>
      </trkpt>
      <trkpt lat="44.09907" lon="7.02328">
        <ele>1668</ele>
        <time>2022-06-11T11:57:17Z</time>
      </trkpt>
      <trkpt lat="44.09908" lon="7.0233">
        <ele>1667.9</ele>
        <time>2022-06-11T11:57:18Z</time>
      </trkpt>
      <trkpt lat="44.0991" lon="7.02332">
        <ele>1667.8</ele>
        <time>2022-06-11T11:57:19Z</time>
      </trkpt>
      <trkpt lat="44.09912" lon="7.02334">
        <ele>1667.7</ele>
        <time>2022-06-11T11:57:20Z</time>
      </trkpt>
      <trkpt lat="44.09914" lon="7.02336">
        <ele>1667.5</ele>
        <time>2022-06-11T11:57:21Z</time>
      </trkpt>
      <trkpt lat="44.09916" lon="7.02337">
        <ele>1667.4</ele>
        <time>2022-06-11T11:57:22Z</time>
      </trkpt>
      <trkpt lat="44.09918" lon="7.02338">
        <ele>1667.3</ele>
        <time>2022-06-11T11:57:23Z</time>
      </trkpt>
      <trkpt lat="44.09921" lon="7.0234">
        <ele>1667.1</ele>
        <time>2022-06-11T11:57:24Z</time>
      </trkpt>
      <trkpt lat="44.09923" lon="7.02341">
        <ele>1667</ele>
        <time>2022-06-11T11:57:25Z</time>
      </trkpt>
      <trkpt lat="44.09926" lon="7.02342">
        <ele>1666.9</ele>
        <time>2022-06-11T11:57:26Z</time>
      </trkpt>
      <trkpt lat="44.09928" lon="7.02342">
        <ele>1666.9</ele>
        <time>2022-06-11T11:57:27Z</time>
      </trkpt>
      <trkpt lat="44.0993" lon="7.02343">
        <ele>1667.1</ele>
        <time>2022-06-11T11:57:28Z</time>
      </trkpt>
      <trkpt lat="44.09933" lon="7.02343">
        <ele>1667.3</ele>
        <time>2022-06-11T11:57:29Z</time>
      </trkpt>
      <trkpt lat="44.09935" lon="7.02343">
        <ele>1667.6</ele>
        <time>2022-06-11T11:57:30Z</time>
      </trkpt>
      <trkpt lat="44.09938" lon="7.02343">
        <ele>1668</ele>
        <time>2022-06-11T11:57:31Z</time>
      </trkpt>
      <trkpt lat="44.09941" lon="7.02343">
        <ele>1668.4</ele>
        <time>2022-06-11T11:57:32Z</time>
      </trkpt>
      <trkpt lat="44.09943" lon="7.02343">
        <ele>1668.6</ele>
        <time>2022-06-11T11:57:33Z</time>
      </trkpt>
      <trkpt lat="44.09946" lon="7.02343">
        <ele>1668.9</ele>
        <time>2022-06-11T11:57:34Z</time>
      </trkpt>
      <trkpt lat="44.09948" lon="7.02343">
        <ele>1669.1</ele>
        <time>2022-06-11T11:57:35Z</time>
      </trkpt>
      <trkpt lat="44.0995" lon="7.02342">
        <ele>1669.3</ele>
        <time>2022-06-11T11:57:36Z</time>
      </trkpt>
      <trkpt lat="44.09953" lon="7.02342">
        <ele>1669.4</ele>
        <time>2022-06-11T11:57:37Z</time>
      </trkpt>
      <trkpt lat="44.09955" lon="7.02342">
        <ele>1669.7</ele>
        <time>2022-06-11T11:57:38Z</time>
      </trkpt>
      <trkpt lat="44.09958" lon="7.02341">
        <ele>1669.9</ele>
        <time>2022-06-11T11:57:39Z</time>
      </trkpt>
      <trkpt lat="44.0996" lon="7.02341">
        <ele>1670.2</ele>
        <time>2022-06-11T11:57:40Z</time>
      </trkpt>
      <trkpt lat="44.09962" lon="7.0234">
        <ele>1670.4</ele>
        <time>2022-06-11T11:57:41Z</time>
      </trkpt>
      <trkpt lat="44.09965" lon="7.02339">
        <ele>1670.7</ele>
        <time>2022-06-11T11:57:42Z</time>
      </trkpt>
      <trkpt lat="44.09967" lon="7.02338">
        <ele>1671.1</ele>
        <time>2022-06-11T11:57:43Z</time>
      </trkpt>
      <trkpt lat="44.0997" lon="7.02338">
        <ele>1671.5</ele>
        <time>2022-06-11T11:57:44Z</time>
      </trkpt>
      <trkpt lat="44.09972" lon="7.02337">
        <ele>1671.8</ele>
        <time>2022-06-11T11:57:45Z</time>
      </trkpt>
      <trkpt lat="44.09974" lon="7.02336">
        <ele>1672.1</ele>
        <time>2022-06-11T11:57:46Z</time>
      </trkpt>
      <trkpt lat="44.09977" lon="7.02335">
        <ele>1672.3</ele>
        <time>2022-06-11T11:57:47Z</time>
      </trkpt>
      <trkpt lat="44.09979" lon="7.02335">
        <ele>1672.6</ele>
        <time>2022-06-11T11:57:48Z</time>
      </trkpt>
      <trkpt lat="44.09982" lon="7.02334">
        <ele>1672.9</ele>
        <time>2022-06-11T11:57:49Z</time>
      </trkpt>
      <trkpt lat="44.09984" lon="7.02333">
        <ele>1673</ele>
        <time>2022-06-11T11:57:50Z</time>
      </trkpt>
      <trkpt lat="44.09986" lon="7.02332">
        <ele>1673.3</ele>
        <time>2022-06-11T11:57:51Z</time>
      </trkpt>
      <trkpt lat="44.09986" lon="7.02331">
        <ele>1673.5</ele>
        <time>2022-06-11T11:57:52Z</time>
      </trkpt>
      <trkpt lat="44.09986" lon="7.0233">
        <ele>1673.7</ele>
        <time>2022-06-11T11:57:53Z</time>
      </trkpt>
      <trkpt lat="44.09986" lon="7.02329">
        <ele>1673.9</ele>
        <time>2022-06-11T11:58:11Z</time>
      </trkpt>
      <trkpt lat="44.09986" lon="7.02329">
        <ele>1674</ele>
        <time>2022-06-11T11:58:12Z</time>
      </trkpt>
      <trkpt lat="44.09986" lon="7.02328">
        <ele>1674.2</ele>
        <time>2022-06-11T11:58:13Z</time>
      </trkpt>
      <trkpt lat="44.09986" lon="7.02327">
        <ele>1674.4</ele>
        <time>2022-06-11T11:58:14Z</time>
      </trkpt>
      <trkpt lat="44.09986" lon="7.02326">
        <ele>1674.6</ele>
        <time>2022-06-11T11:58:15Z</time>
      </trkpt>
      <trkpt lat="44.09986" lon="7.02325">
        <ele>1674.7</ele>
        <time>2022-06-11T11:58:16Z</time>
      </trkpt>
      <trkpt lat="44.09987" lon="7.02324">
        <ele>1674.9</ele>
        <time>2022-06-11T11:58:17Z</time>
      </trkpt>
      <trkpt lat="44.09987" lon="7.02324">
        <ele>1675.1</ele>
        <time>2022-06-11T11:58:18Z</time>
      </trkpt>
      <trkpt lat="44.09987" lon="7.02323">
        <ele>1675.3</ele>
        <time>2022-06-11T11:58:19Z</time>
      </trkpt>
      <trkpt lat="44.09987" lon="7.02322">
        <ele>1675.5</ele>
        <time>2022-06-11T11:58:20Z</time>
      </trkpt>
      <trkpt lat="44.09987" lon="7.02321">
        <ele>1675.6</ele>
        <time>2022-06-11T12:03:48Z</time>
      </trkpt>
      <trkpt lat="44.09987" lon="7.0232">
        <ele>1675.8</ele>
        <time>2022-06-11T12:03:49Z</time>
      </trkpt>
      <trkpt lat="44.09987" lon="7.02319">
        <ele>1676</ele>
        <time>2022-06-11T12:03:50Z</time>
      </trkpt>
      <trkpt lat="44.09987" lon="7.02319">
        <ele>1676.1</ele>
        <time>2022-06-11T12:03:51Z</time>
      </trkpt>
      <trkpt lat="44.09987" lon="7.02318">
        <ele>1676.3</ele>
        <time>2022-06-11T12:03:52Z</time>
      </trkpt>
      <trkpt lat="44.09987" lon="7.02317">
        <ele>1676.5</ele>
        <time>2022-06-11T12:03:53Z</time>
      </trkpt>
      <trkpt lat="44.09987" lon="7.02316">
        <ele>1676.6</ele>
        <time>2022-06-11T12:03:54Z</time>
      </trkpt>
      <trkpt lat="44.09987" lon="7.02315">
        <ele>1676.8</ele>
        <time>2022-06-11T12:03:55Z</time>
      </trkpt>
      <trkpt lat="44.09988" lon="7.02314">
        <ele>1677</ele>
        <time>2022-06-11T12:03:56Z</time>
      </trkpt>
      <trkpt lat="44.09988" lon="7.02313">
        <ele>1677.2</ele>
        <time>2022-06-11T12:03:57Z</time>
      </trkpt>
      <trkpt lat="44.09988" lon="7.02313">
        <ele>1677.3</ele>
        <time>2022-06-11T12:03:58Z</time>
      </trkpt>
      <trkpt lat="44.09988" lon="7.02312">
        <ele>1677.5</ele>
        <time>2022-06-11T12:03:59Z</time>
      </trkpt>
      <trkpt lat="44.09988" lon="7.02311">
        <ele>1677.6</ele>
        <time>2022-06-11T12:04:00Z</time>
      </trkpt>
      <trkpt lat="44.09988" lon="7.0231">
        <ele>1677.8</ele>
        <time>2022-06-11T12:04:01Z</time>
      </trkpt>
      <trkpt lat="44.09988" lon="7.02309">
        <ele>1678</ele>
        <time>2022-06-11T12:04:02Z</time>
      </trkpt>
      <trkpt lat="44.09988" lon="7.02308">
        <ele>1678.1</ele>
        <time>2022-06-11T12:04:03Z</time>
      </trkpt>
      <trkpt lat="44.09988" lon="7.02308">
        <ele>1678.3</ele>
        <time>2022-06-11T12:04:04Z</time>
      </trkpt>
      <trkpt lat="44.09988" lon="7.02307">
        <ele>1678.5</ele>
        <time>2022-06-11T12:04:05Z</time>
      </trkpt>
      <trkpt lat="44.09988" lon="7.02306">
        <ele>1678.6</ele>
        <time>2022-06-11T12:04:06Z</time>
      </trkpt>
      <trkpt lat="44.09989" lon="7.02305">
        <ele>1678.7</ele>
        <time>2022-06-11T12:04:07Z</time>
      </trkpt>
      <trkpt lat="44.09989" lon="7.02304">
        <ele>1678.7</ele>
        <time>2022-06-11T12:04:08Z</time>
      </trkpt>
      <trkpt lat="44.09989" lon="7.02303">
        <ele>1678.8</ele>
        <time>2022-06-11T12:04:09Z</time>
      </trkpt>
      <trkpt lat="44.09989" lon="7.02303">
        <ele>1678.8</ele>
        <time>2022-06-11T12:04:10Z</time>
      </trkpt>
      <trkpt lat="44.09989" lon="7.02302">
        <ele>1678.8</ele>
        <time>2022-06-11T12:04:11Z</time>
      </trkpt>
      <trkpt lat="44.09989" lon="7.02301">
        <ele>1678.9</ele>
        <time>2022-06-11T12:04:12Z</time>
      </trkpt>
      <trkpt lat="44.09989" lon="7.023">
        <ele>1678.9</ele>
        <time>2022-06-11T12:04:13Z</time>
      </trkpt>
      <trkpt lat="44.09989" lon="7.02299">
        <ele>1678.9</ele>
        <time>2022-06-11T12:04:14Z</time>
      </trkpt>
      <trkpt lat="44.09989" lon="7.02298">
        <ele>1679</ele>
        <time>2022-06-11T12:04:15Z</time>
      </trkpt>
      <trkpt lat="44.09989" lon="7.02297">
        <ele>1679</ele>
        <time>2022-06-11T12:04:16Z</time>
      </trkpt>
      <trkpt lat="44.09989" lon="7.02297">
        <ele>1679</ele>
        <time>2022-06-11T12:04:17Z</time>
      </trkpt>
      <trkpt lat="44.0999" lon="7.02296">
        <ele>1679.1</ele>
        <time>2022-06-11T12:04:18Z</time>
      </trkpt>
      <trkpt lat="44.0999" lon="7.02295">
        <ele>1679.1</ele>
        <time>2022-06-11T12:04:19Z</time>
      </trkpt>
      <trkpt lat="44.0999" lon="7.02294">
        <ele>1679.2</ele>
        <time>2022-06-11T12:04:20Z</time>
      </trkpt>
      <trkpt lat="44.0999" lon="7.02293">
        <ele>1679.2</ele>
        <time>2022-06-11T12:04:21Z</time>
      </trkpt>
      <trkpt lat="44.0999" lon="7.02292">
        <ele>1679.2</ele>
        <time>2022-06-11T12:04:22Z</time>
      </trkpt>
      <trkpt lat="44.0999" lon="7.02292">
        <ele>1679.3</ele>
        <time>2022-06-11T12:04:23Z</time>
      </trkpt>
      <trkpt lat="44.0999" lon="7.02291">
        <ele>1679.3</ele>
        <time>2022-06-11T12:04:24Z</time>
      </trkpt>
      <trkpt lat="44.0999" lon="7.0229">
        <ele>1679.4</ele>
        <time>2022-06-11T12:04:25Z</time>
      </trkpt>
      <trkpt lat="44.0999" lon="7.02289">
        <ele>1679.4</ele>
        <time>2022-06-11T12:04:26Z</time>
      </trkpt>
      <trkpt lat="44.0999" lon="7.02288">
        <ele>1679.4</ele>
        <time>2022-06-11T12:04:27Z</time>
      </trkpt>
      <trkpt lat="44.0999" lon="7.02287">
        <ele>1679.5</ele>
        <time>2022-06-11T12:04:28Z</time>
      </trkpt>
      <trkpt lat="44.0999" lon="7.02287">
        <ele>1679.5</ele>
        <time>2022-06-11T12:04:29Z</time>
      </trkpt>
      <trkpt lat="44.09991" lon="7.02286">
        <ele>1679.6</ele>
        <time>2022-06-11T12:04:30Z</time>
      </trkpt>
      <trkpt lat="44.09991" lon="7.02285">
        <ele>1679.6</ele>
        <time>2022-06-11T12:04:31Z</time>
      </trkpt>
      <trkpt lat="44.09991" lon="7.02284">
        <ele>1679.6</ele>
        <time>2022-06-11T12:04:32Z</time>
      </trkpt>
      <trkpt lat="44.09991" lon="7.02283">
        <ele>1679.7</ele>
        <time>2022-06-11T12:04:33Z</time>
      </trkpt>
      <trkpt lat="44.09991" lon="7.02282">
        <ele>1679.7</ele>
        <time>2022-06-11T12:04:34Z</time>
      </trkpt>
      <trkpt lat="44.09991" lon="7.02281">
        <ele>1679.8</ele>
        <time>2022-06-11T12:04:35Z</time>
      </trkpt>
      <trkpt lat="44.09991" lon="7.02281">
        <ele>1679.8</ele>
        <time>2022-06-11T12:04:36Z</time>
      </trkpt>
      <trkpt lat="44.09991" lon="7.0228">
        <ele>1679.8</ele>
        <time>2022-06-11T12:04:37Z</time>
      </trkpt>
      <trkpt lat="44.09991" lon="7.02279">
        <ele>1679.9</ele>
        <time>2022-06-11T12:04:38Z</time>
      </trkpt>
      <trkpt lat="44.09991" lon="7.02278">
        <ele>1679.9</ele>
        <time>2022-06-11T12:04:39Z</time>
      </trkpt>
      <trkpt lat="44.09991" lon="7.02277">
        <ele>1679.9</ele>
        <time>2022-06-11T12:04:40Z</time>
      </trkpt>
      <trkpt lat="44.09992" lon="7.02276">
        <ele>1679.8</ele>
        <time>2022-06-11T12:04:41Z</time>
      </trkpt>
      <trkpt lat="44.09992" lon="7.02276">
        <ele>1679.8</ele>
        <time>2022-06-11T12:04:42Z</time>
      </trkpt>
      <trkpt lat="44.09992" lon="7.02275">
        <ele>1679.7</ele>
        <time>2022-06-11T12:04:49Z</time>
      </trkpt>
      <trkpt lat="44.09992" lon="7.02274">
        <ele>1679.6</ele>
        <time>2022-06-11T12:04:50Z</time>
      </trkpt>
      <trkpt lat="44.09992" lon="7.02273">
        <ele>1679.6</ele>
        <time>2022-06-11T12:04:51Z</time>
      </trkpt>
      <trkpt lat="44.09992" lon="7.02272">
        <ele>1679.5</ele>
        <time>2022-06-11T12:04:52Z</time>
      </trkpt>
      <trkpt lat="44.09992" lon="7.02271">
        <ele>1679.5</ele>
        <time>2022-06-11T12:04:53Z</time>
      </trkpt>
      <trkpt lat="44.09992" lon="7.02271">
        <ele>1679.4</ele>
        <time>2022-06-11T12:04:54Z</time>
      </trkpt>
      <trkpt lat="44.09992" lon="7.0227">
        <ele>1679.3</ele>
        <time>2022-06-11T12:07:25Z</time>
      </trkpt>
      <trkpt lat="44.09992" lon="7.02269">
        <ele>1679.3</ele>
        <time>2022-06-11T12:07:26Z</time>
      </trkpt>
      <trkpt lat="44.09997" lon="7.0227">
        <ele>1678.8</ele>
        <time>2022-06-11T12:07:27Z</time>
      </trkpt>
      <trkpt lat="44.10003" lon="7.02271">
        <ele>1678.2</ele>
        <time>2022-06-11T12:07:28Z</time>
      </trkpt>
      <trkpt lat="44.10009" lon="7.02274">
        <ele>1677.7</ele>
        <time>2022-06-11T12:07:29Z</time>
      </trkpt>
      <trkpt lat="44.10015" lon="7.02278">
        <ele>1677.4</ele>
        <time>2022-06-11T12:07:30Z</time>
      </trkpt>
      <trkpt lat="44.1002" lon="7.02282">
        <ele>1676.9</ele>
        <time>2022-06-11T12:07:31Z</time>
      </trkpt>
      <trkpt lat="44.10025" lon="7.02287">
        <ele>1676.6</ele>
        <time>2022-06-11T12:07:32Z</time>
      </trkpt>
      <trkpt lat="44.10029" lon="7.0229">
        <ele>1676.6</ele>
        <time>2022-06-11T12:07:33Z</time>
      </trkpt>
      <trkpt lat="44.10034" lon="7.02291">
        <ele>1677.1</ele>
        <time>2022-06-11T12:07:34Z</time>
      </trkpt>
      <trkpt lat="44.10039" lon="7.0229">
        <ele>1677.5</ele>
        <time>2022-06-11T12:07:35Z</time>
      </trkpt>
      <trkpt lat="44.10044" lon="7.02288">
        <ele>1677.6</ele>
        <time>2022-06-11T12:07:36Z</time>
      </trkpt>
      <trkpt lat="44.10049" lon="7.02286">
        <ele>1677.6</ele>
        <time>2022-06-11T12:07:37Z</time>
      </trkpt>
      <trkpt lat="44.10055" lon="7.02284">
        <ele>1677.4</ele>
        <time>2022-06-11T12:07:38Z</time>
      </trkpt>
      <trkpt lat="44.10062" lon="7.02281">
        <ele>1677.2</ele>
        <time>2022-06-11T12:07:39Z</time>
      </trkpt>
      <trkpt lat="44.10068" lon="7.02278">
        <ele>1677</ele>
        <time>2022-06-11T12:07:40Z</time>
      </trkpt>
      <trkpt lat="44.10076" lon="7.02275">
        <ele>1676.7</ele>
        <time>2022-06-11T12:07:41Z</time>
      </trkpt>
      <trkpt lat="44.10084" lon="7.02273">
        <ele>1676.1</ele>
        <time>2022-06-11T12:07:42Z</time>
      </trkpt>
      <trkpt lat="44.10093" lon="7.0227">
        <ele>1675.6</ele>
        <time>2022-06-11T12:07:43Z</time>
      </trkpt>
      <trkpt lat="44.10101" lon="7.02266">
        <ele>1674.9</ele>
        <time>2022-06-11T12:07:44Z</time>
      </trkpt>
      <trkpt lat="44.1011" lon="7.02262">
        <ele>1673.6</ele>
        <time>2022-06-11T12:07:45Z</time>
      </trkpt>
      <trkpt lat="44.10119" lon="7.02255">
        <ele>1672.6</ele>
        <time>2022-06-11T12:07:46Z</time>
      </trkpt>
      <trkpt lat="44.10127" lon="7.02245">
        <ele>1671.1</ele>
        <time>2022-06-11T12:07:47Z</time>
      </trkpt>
      <trkpt lat="44.10133" lon="7.02234">
        <ele>1669.1</ele>
        <time>2022-06-11T12:07:48Z</time>
      </trkpt>
      <trkpt lat="44.10138" lon="7.02222">
        <ele>1666.6</ele>
        <time>2022-06-11T12:07:49Z</time>
      </trkpt>
      <trkpt lat="44.10144" lon="7.02211">
        <ele>1665.4</ele>
        <time>2022-06-11T12:07:50Z</time>
      </trkpt>
      <trkpt lat="44.10152" lon="7.02204">
        <ele>1664.6</ele>
        <time>2022-06-11T12:07:51Z</time>
      </trkpt>
      <trkpt lat="44.10162" lon="7.02199">
        <ele>1664.1</ele>
        <time>2022-06-11T12:07:52Z</time>
      </trkpt>
      <trkpt lat="44.10173" lon="7.02196">
        <ele>1664</ele>
        <time>2022-06-11T12:07:53Z</time>
      </trkpt>
      <trkpt lat="44.10185" lon="7.02193">
        <ele>1663.6</ele>
        <time>2022-06-11T12:07:54Z</time>
      </trkpt>
      <trkpt lat="44.10196" lon="7.02189">
        <ele>1662.9</ele>
        <time>2022-06-11T12:07:55Z</time>
      </trkpt>
      <trkpt lat="44.10208" lon="7.02185">
        <ele>1661.6</ele>
        <time>2022-06-11T12:07:56Z</time>
      </trkpt>
      <trkpt lat="44.10219" lon="7.02179">
        <ele>1660.4</ele>
        <time>2022-06-11T12:07:57Z</time>
      </trkpt>
      <trkpt lat="44.10229" lon="7.02173">
        <ele>1658.3</ele>
        <time>2022-06-11T12:07:58Z</time>
      </trkpt>
      <trkpt lat="44.10239" lon="7.02168">
        <ele>1656</ele>
        <time>2022-06-11T12:07:59Z</time>
      </trkpt>
      <trkpt lat="44.10248" lon="7.02162">
        <ele>1654.2</ele>
        <time>2022-06-11T12:08:00Z</time>
      </trkpt>
      <trkpt lat="44.10256" lon="7.02155">
        <ele>1653.3</ele>
        <time>2022-06-11T12:08:01Z</time>
      </trkpt>
      <trkpt lat="44.10263" lon="7.02147">
        <ele>1652.7</ele>
        <time>2022-06-11T12:08:02Z</time>
      </trkpt>
      <trkpt lat="44.10267" lon="7.02136">
        <ele>1652.5</ele>
        <time>2022-06-11T12:08:03Z</time>
      </trkpt>
      <trkpt lat="44.10269" lon="7.02124">
        <ele>1652.9</ele>
        <time>2022-06-11T12:08:04Z</time>
      </trkpt>
      <trkpt lat="44.10268" lon="7.02111">
        <ele>1652.8</ele>
        <time>2022-06-11T12:08:05Z</time>
      </trkpt>
      <trkpt lat="44.10264" lon="7.02101">
        <ele>1653.6</ele>
        <time>2022-06-11T12:08:06Z</time>
      </trkpt>
      <trkpt lat="44.10258" lon="7.02093">
        <ele>1653.1</ele>
        <time>2022-06-11T12:08:07Z</time>
      </trkpt>
      <trkpt lat="44.1025" lon="7.02087">
        <ele>1651.6</ele>
        <time>2022-06-11T12:08:08Z</time>
      </trkpt>
      <trkpt lat="44.10242" lon="7.02084">
        <ele>1650.8</ele>
        <time>2022-06-11T12:08:09Z</time>
      </trkpt>
      <trkpt lat="44.10233" lon="7.02081">
        <ele>1650.1</ele>
        <time>2022-06-11T12:08:10Z</time>
      </trkpt>
      <trkpt lat="44.10224" lon="7.0208">
        <ele>1649.1</ele>
        <time>2022-06-11T12:08:11Z</time>
      </trkpt>
      <trkpt lat="44.10215" lon="7.02081">
        <ele>1648.8</ele>
        <time>2022-06-11T12:08:12Z</time>
      </trkpt>
      <trkpt lat="44.10205" lon="7.02081">
        <ele>1648.5</ele>
        <time>2022-06-11T12:08:13Z</time>
      </trkpt>
      <trkpt lat="44.10195" lon="7.02082">
        <ele>1648.5</ele>
        <time>2022-06-11T12:08:14Z</time>
      </trkpt>
      <trkpt lat="44.10185" lon="7.0208">
        <ele>1647.2</ele>
        <time>2022-06-11T12:08:15Z</time>
      </trkpt>
      <trkpt lat="44.10175" lon="7.02077">
        <ele>1646.1</ele>
        <time>2022-06-11T12:08:16Z</time>
      </trkpt>
      <trkpt lat="44.10166" lon="7.02071">
        <ele>1645.3</ele>
        <time>2022-06-11T12:08:17Z</time>
      </trkpt>
      <trkpt lat="44.10156" lon="7.02063">
        <ele>1644.2</ele>
        <time>2022-06-11T12:08:18Z</time>
      </trkpt>
      <trkpt lat="44.10147" lon="7.02054">
        <ele>1643</ele>
        <time>2022-06-11T12:08:19Z</time>
      </trkpt>
      <trkpt lat="44.10139" lon="7.02042">
        <ele>1642</ele>
        <time>2022-06-11T12:08:20Z</time>
      </trkpt>
      <trkpt lat="44.10132" lon="7.02029">
        <ele>1641.2</ele>
        <time>2022-06-11T12:08:21Z</time>
      </trkpt>
      <trkpt lat="44.10126" lon="7.02014">
        <ele>1639.8</ele>
        <time>2022-06-11T12:08:22Z</time>
      </trkpt>
      <trkpt lat="44.1012" lon="7.01999">
        <ele>1639</ele>
        <time>2022-06-11T12:08:23Z</time>
      </trkpt>
      <trkpt lat="44.10114" lon="7.01984">
        <ele>1638.1</ele>
        <time>2022-06-11T12:08:24Z</time>
      </trkpt>
      <trkpt lat="44.10107" lon="7.0197">
        <ele>1637.4</ele>
        <time>2022-06-11T12:08:25Z</time>
      </trkpt>
      <trkpt lat="44.101" lon="7.01956">
        <ele>1637.5</ele>
        <time>2022-06-11T12:08:26Z</time>
      </trkpt>
      <trkpt lat="44.10092" lon="7.01942">
        <ele>1637</ele>
        <time>2022-06-11T12:08:27Z</time>
      </trkpt>
      <trkpt lat="44.10084" lon="7.01929">
        <ele>1636.6</ele>
        <time>2022-06-11T12:08:28Z</time>
      </trkpt>
      <trkpt lat="44.10075" lon="7.01915">
        <ele>1635.8</ele>
        <time>2022-06-11T12:08:29Z</time>
      </trkpt>
      <trkpt lat="44.10066" lon="7.01903">
        <ele>1634.3</ele>
        <time>2022-06-11T12:08:30Z</time>
      </trkpt>
      <trkpt lat="44.10057" lon="7.01891">
        <ele>1632.1</ele>
        <time>2022-06-11T12:08:31Z</time>
      </trkpt>
      <trkpt lat="44.10046" lon="7.01879">
        <ele>1630.2</ele>
        <time>2022-06-11T12:08:32Z</time>
      </trkpt>
      <trkpt lat="44.10035" lon="7.01869">
        <ele>1628.1</ele>
        <time>2022-06-11T12:08:33Z</time>
      </trkpt>
      <trkpt lat="44.10023" lon="7.01861">
        <ele>1626.3</ele>
        <time>2022-06-11T12:08:34Z</time>
      </trkpt>
      <trkpt lat="44.10011" lon="7.01855">
        <ele>1626</ele>
        <time>2022-06-11T12:08:35Z</time>
      </trkpt>
      <trkpt lat="44.09998" lon="7.01849">
        <ele>1626.2</ele>
        <time>2022-06-11T12:08:36Z</time>
      </trkpt>
      <trkpt lat="44.09987" lon="7.0184">
        <ele>1626.5</ele>
        <time>2022-06-11T12:08:37Z</time>
      </trkpt>
      <trkpt lat="44.09977" lon="7.01829">
        <ele>1627.4</ele>
        <time>2022-06-11T12:08:38Z</time>
      </trkpt>
      <trkpt lat="44.09968" lon="7.01818">
        <ele>1628.6</ele>
        <time>2022-06-11T12:08:39Z</time>
      </trkpt>
      <trkpt lat="44.09959" lon="7.01809">
        <ele>1628.3</ele>
        <time>2022-06-11T12:08:40Z</time>
      </trkpt>
      <trkpt lat="44.09949" lon="7.01801">
        <ele>1627.6</ele>
        <time>2022-06-11T12:08:41Z</time>
      </trkpt>
      <trkpt lat="44.09939" lon="7.01794">
        <ele>1627.1</ele>
        <time>2022-06-11T12:08:42Z</time>
      </trkpt>
      <trkpt lat="44.09929" lon="7.01788">
        <ele>1626.8</ele>
        <time>2022-06-11T12:08:43Z</time>
      </trkpt>
      <trkpt lat="44.09919" lon="7.01782">
        <ele>1626.2</ele>
        <time>2022-06-11T12:08:44Z</time>
      </trkpt>
      <trkpt lat="44.0991" lon="7.01776">
        <ele>1625.7</ele>
        <time>2022-06-11T12:08:45Z</time>
      </trkpt>
      <trkpt lat="44.09901" lon="7.0177">
        <ele>1625.2</ele>
        <time>2022-06-11T12:08:46Z</time>
      </trkpt>
      <trkpt lat="44.09892" lon="7.01764">
        <ele>1625</ele>
        <time>2022-06-11T12:08:47Z</time>
      </trkpt>
      <trkpt lat="44.09884" lon="7.01757">
        <ele>1624.9</ele>
        <time>2022-06-11T12:08:48Z</time>
      </trkpt>
      <trkpt lat="44.09876" lon="7.01749">
        <ele>1624.7</ele>
        <time>2022-06-11T12:08:49Z</time>
      </trkpt>
      <trkpt lat="44.09868" lon="7.01741">
        <ele>1624.9</ele>
        <time>2022-06-11T12:08:50Z</time>
      </trkpt>
      <trkpt lat="44.0986" lon="7.01733">
        <ele>1624.9</ele>
        <time>2022-06-11T12:08:51Z</time>
      </trkpt>
      <trkpt lat="44.09853" lon="7.01725">
        <ele>1625.3</ele>
        <time>2022-06-11T12:08:52Z</time>
      </trkpt>
      <trkpt lat="44.09847" lon="7.01716">
        <ele>1625.7</ele>
        <time>2022-06-11T12:08:53Z</time>
      </trkpt>
      <trkpt lat="44.09841" lon="7.01708">
        <ele>1625.8</ele>
        <time>2022-06-11T12:08:54Z</time>
      </trkpt>
      <trkpt lat="44.09834" lon="7.017">
        <ele>1625.3</ele>
        <time>2022-06-11T12:08:55Z</time>
      </trkpt>
      <trkpt lat="44.09827" lon="7.01693">
        <ele>1624.9</ele>
        <time>2022-06-11T12:08:56Z</time>
      </trkpt>
      <trkpt lat="44.09821" lon="7.01687">
        <ele>1624.6</ele>
        <time>2022-06-11T12:08:57Z</time>
      </trkpt>
      <trkpt lat="44.09814" lon="7.0168">
        <ele>1624.1</ele>
        <time>2022-06-11T12:08:58Z</time>
      </trkpt>
      <trkpt lat="44.09808" lon="7.01672">
        <ele>1623.5</ele>
        <time>2022-06-11T12:08:59Z</time>
      </trkpt>
      <trkpt lat="44.09802" lon="7.01665">
        <ele>1622.9</ele>
        <time>2022-06-11T12:09:00Z</time>
      </trkpt>
      <trkpt lat="44.09798" lon="7.01656">
        <ele>1622.5</ele>
        <time>2022-06-11T12:09:01Z</time>
      </trkpt>
      <trkpt lat="44.09794" lon="7.01647">
        <ele>1622.6</ele>
        <time>2022-06-11T12:09:02Z</time>
      </trkpt>
      <trkpt lat="44.09791" lon="7.01637">
        <ele>1623.1</ele>
        <time>2022-06-11T12:09:03Z</time>
      </trkpt>
      <trkpt lat="44.09789" lon="7.01627">
        <ele>1623.3</ele>
        <time>2022-06-11T12:09:04Z</time>
      </trkpt>
      <trkpt lat="44.09786" lon="7.01618">
        <ele>1623.3</ele>
        <time>2022-06-11T12:09:05Z</time>
      </trkpt>
      <trkpt lat="44.09784" lon="7.01608">
        <ele>1623.2</ele>
        <time>2022-06-11T12:09:06Z</time>
      </trkpt>
      <trkpt lat="44.09782" lon="7.01599">
        <ele>1623.2</ele>
        <time>2022-06-11T12:09:07Z</time>
      </trkpt>
      <trkpt lat="44.0978" lon="7.0159">
        <ele>1623.2</ele>
        <time>2022-06-11T12:09:08Z</time>
      </trkpt>
      <trkpt lat="44.09777" lon="7.01581">
        <ele>1623</ele>
        <time>2022-06-11T12:09:09Z</time>
      </trkpt>
      <trkpt lat="44.09775" lon="7.01572">
        <ele>1623.1</ele>
        <time>2022-06-11T12:09:10Z</time>
      </trkpt>
      <trkpt lat="44.09773" lon="7.01563">
        <ele>1623.4</ele>
        <time>2022-06-11T12:09:11Z</time>
      </trkpt>
      <trkpt lat="44.09771" lon="7.01554">
        <ele>1623.3</ele>
        <time>2022-06-11T12:09:12Z</time>
      </trkpt>
      <trkpt lat="44.09768" lon="7.01546">
        <ele>1623.3</ele>
        <time>2022-06-11T12:09:13Z</time>
      </trkpt>
      <trkpt lat="44.09766" lon="7.01537">
        <ele>1623.4</ele>
        <time>2022-06-11T12:09:14Z</time>
      </trkpt>
      <trkpt lat="44.09764" lon="7.01528">
        <ele>1623.6</ele>
        <time>2022-06-11T12:09:15Z</time>
      </trkpt>
      <trkpt lat="44.09762" lon="7.01519">
        <ele>1623.6</ele>
        <time>2022-06-11T12:09:16Z</time>
      </trkpt>
      <trkpt lat="44.0976" lon="7.0151">
        <ele>1623.5</ele>
        <time>2022-06-11T12:09:17Z</time>
      </trkpt>
      <trkpt lat="44.09758" lon="7.01502">
        <ele>1623.5</ele>
        <time>2022-06-11T12:09:18Z</time>
      </trkpt>
      <trkpt lat="44.09757" lon="7.01493">
        <ele>1623.3</ele>
        <time>2022-06-11T12:09:19Z</time>
      </trkpt>
      <trkpt lat="44.09756" lon="7.01484">
        <ele>1623.5</ele>
        <time>2022-06-11T12:09:20Z</time>
      </trkpt>
      <trkpt lat="44.09754" lon="7.01476">
        <ele>1623.6</ele>
        <time>2022-06-11T12:09:21Z</time>
      </trkpt>
      <trkpt lat="44.09753" lon="7.01467">
        <ele>1623.7</ele>
        <time>2022-06-11T12:09:22Z</time>
      </trkpt>
      <trkpt lat="44.09752" lon="7.01459">
        <ele>1623.9</ele>
        <time>2022-06-11T12:09:23Z</time>
      </trkpt>
      <trkpt lat="44.09751" lon="7.0145">
        <ele>1624.1</ele>
        <time>2022-06-11T12:09:24Z</time>
      </trkpt>
      <trkpt lat="44.0975" lon="7.01442">
        <ele>1624.2</ele>
        <time>2022-06-11T12:09:25Z</time>
      </trkpt>
      <trkpt lat="44.09749" lon="7.01433">
        <ele>1623.7</ele>
        <time>2022-06-11T12:09:26Z</time>
      </trkpt>
      <trkpt lat="44.09747" lon="7.01425">
        <ele>1623.4</ele>
        <time>2022-06-11T12:09:27Z</time>
      </trkpt>
      <trkpt lat="44.09746" lon="7.01415">
        <ele>1623</ele>
        <time>2022-06-11T12:09:28Z</time>
      </trkpt>
      <trkpt lat="44.09745" lon="7.01406">
        <ele>1622.7</ele>
        <time>2022-06-11T12:09:29Z</time>
      </trkpt>
      <trkpt lat="44.09744" lon="7.01397">
        <ele>1622.5</ele>
        <time>2022-06-11T12:09:30Z</time>
      </trkpt>
      <trkpt lat="44.09743" lon="7.01388">
        <ele>1622</ele>
        <time>2022-06-11T12:09:31Z</time>
      </trkpt>
      <trkpt lat="44.09741" lon="7.01378">
        <ele>1621.2</ele>
        <time>2022-06-11T12:09:32Z</time>
      </trkpt>
      <trkpt lat="44.0974" lon="7.01369">
        <ele>1620.5</ele>
        <time>2022-06-11T12:09:33Z</time>
      </trkpt>
      <trkpt lat="44.09738" lon="7.0136">
        <ele>1619.7</ele>
        <time>2022-06-11T12:09:34Z</time>
      </trkpt>
      <trkpt lat="44.09736" lon="7.0135">
        <ele>1618.8</ele>
        <time>2022-06-11T12:09:35Z</time>
      </trkpt>
      <trkpt lat="44.09735" lon="7.01341">
        <ele>1618</ele>
        <time>2022-06-11T12:09:36Z</time>
      </trkpt>
      <trkpt lat="44.09732" lon="7.01332">
        <ele>1617.2</ele>
        <time>2022-06-11T12:09:37Z</time>
      </trkpt>
      <trkpt lat="44.0973" lon="7.01323">
        <ele>1617.1</ele>
        <time>2022-06-11T12:09:38Z</time>
      </trkpt>
      <trkpt lat="44.09727" lon="7.01315">
        <ele>1616.9</ele>
        <time>2022-06-11T12:09:39Z</time>
      </trkpt>
      <trkpt lat="44.09724" lon="7.01307">
        <ele>1616.5</ele>
        <time>2022-06-11T12:09:40Z</time>
      </trkpt>
      <trkpt lat="44.0972" lon="7.01299">
        <ele>1616.7</ele>
        <time>2022-06-11T12:09:41Z</time>
      </trkpt>
      <trkpt lat="44.09716" lon="7.01291">
        <ele>1616.6</ele>
        <time>2022-06-11T12:09:42Z</time>
      </trkpt>
      <trkpt lat="44.09711" lon="7.01283">
        <ele>1616.5</ele>
        <time>2022-06-11T12:09:43Z</time>
      </trkpt>
      <trkpt lat="44.09707" lon="7.01276">
        <ele>1616.6</ele>
        <time>2022-06-11T12:09:44Z</time>
      </trkpt>
      <trkpt lat="44.09703" lon="7.01268">
        <ele>1616.9</ele>
        <time>2022-06-11T12:09:45Z</time>
      </trkpt>
      <trkpt lat="44.09699" lon="7.0126">
        <ele>1617.4</ele>
        <time>2022-06-11T12:09:46Z</time>
      </trkpt>
      <trkpt lat="44.09696" lon="7.01253">
        <ele>1617.9</ele>
        <time>2022-06-11T12:09:47Z</time>
      </trkpt>
      <trkpt lat="44.09693" lon="7.01245">
        <ele>1618.2</ele>
        <time>2022-06-11T12:09:48Z</time>
      </trkpt>
      <trkpt lat="44.0969" lon="7.01237">
        <ele>1618.3</ele>
        <time>2022-06-11T12:09:49Z</time>
      </trkpt>
      <trkpt lat="44.09687" lon="7.01229">
        <ele>1618.6</ele>
        <time>2022-06-11T12:09:50Z</time>
      </trkpt>
      <trkpt lat="44.09684" lon="7.01221">
        <ele>1618.9</ele>
        <time>2022-06-11T12:09:51Z</time>
      </trkpt>
      <trkpt lat="44.09681" lon="7.01212">
        <ele>1619.1</ele>
        <time>2022-06-11T12:09:52Z</time>
      </trkpt>
      <trkpt lat="44.09679" lon="7.01204">
        <ele>1619.5</ele>
        <time>2022-06-11T12:09:53Z</time>
      </trkpt>
      <trkpt lat="44.09676" lon="7.01194">
        <ele>1619.8</ele>
        <time>2022-06-11T12:09:54Z</time>
      </trkpt>
      <trkpt lat="44.09674" lon="7.01185">
        <ele>1619.9</ele>
        <time>2022-06-11T12:09:55Z</time>
      </trkpt>
      <trkpt lat="44.09671" lon="7.01176">
        <ele>1619.7</ele>
        <time>2022-06-11T12:09:56Z</time>
      </trkpt>
      <trkpt lat="44.09668" lon="7.01167">
        <ele>1619.5</ele>
        <time>2022-06-11T12:09:57Z</time>
      </trkpt>
      <trkpt lat="44.09664" lon="7.01157">
        <ele>1619.4</ele>
        <time>2022-06-11T12:09:58Z</time>
      </trkpt>
      <trkpt lat="44.0966" lon="7.01148">
        <ele>1619</ele>
        <time>2022-06-11T12:09:59Z</time>
      </trkpt>
      <trkpt lat="44.09656" lon="7.01139">
        <ele>1618.4</ele>
        <time>2022-06-11T12:10:00Z</time>
      </trkpt>
      <trkpt lat="44.09652" lon="7.01131">
        <ele>1617.8</ele>
        <time>2022-06-11T12:10:01Z</time>
      </trkpt>
      <trkpt lat="44.09647" lon="7.01123">
        <ele>1617.2</ele>
        <time>2022-06-11T12:10:02Z</time>
      </trkpt>
      <trkpt lat="44.09643" lon="7.01115">
        <ele>1616.7</ele>
        <time>2022-06-11T12:10:03Z</time>
      </trkpt>
      <trkpt lat="44.09639" lon="7.01106">
        <ele>1616.8</ele>
        <time>2022-06-11T12:10:04Z</time>
      </trkpt>
      <trkpt lat="44.09636" lon="7.01098">
        <ele>1617</ele>
        <time>2022-06-11T12:10:05Z</time>
      </trkpt>
      <trkpt lat="44.09632" lon="7.0109">
        <ele>1617.1</ele>
        <time>2022-06-11T12:10:06Z</time>
      </trkpt>
      <trkpt lat="44.09628" lon="7.01082">
        <ele>1617.1</ele>
        <time>2022-06-11T12:10:07Z</time>
      </trkpt>
      <trkpt lat="44.09625" lon="7.01074">
        <ele>1617.1</ele>
        <time>2022-06-11T12:10:08Z</time>
      </trkpt>
      <trkpt lat="44.09622" lon="7.01067">
        <ele>1617</ele>
        <time>2022-06-11T12:10:09Z</time>
      </trkpt>
      <trkpt lat="44.09619" lon="7.01059">
        <ele>1617.2</ele>
        <time>2022-06-11T12:10:10Z</time>
      </trkpt>
      <trkpt lat="44.09615" lon="7.0105">
        <ele>1616.8</ele>
        <time>2022-06-11T12:10:11Z</time>
      </trkpt>
      <trkpt lat="44.09612" lon="7.01043">
        <ele>1616</ele>
        <time>2022-06-11T12:10:12Z</time>
      </trkpt>
      <trkpt lat="44.09609" lon="7.01035">
        <ele>1615.6</ele>
        <time>2022-06-11T12:10:13Z</time>
      </trkpt>
      <trkpt lat="44.09607" lon="7.01027">
        <ele>1615.2</ele>
        <time>2022-06-11T12:10:14Z</time>
      </trkpt>
      <trkpt lat="44.09604" lon="7.01019">
        <ele>1615.2</ele>
        <time>2022-06-11T12:10:15Z</time>
      </trkpt>
      <trkpt lat="44.09602" lon="7.01012">
        <ele>1615.1</ele>
        <time>2022-06-11T12:10:16Z</time>
      </trkpt>
      <trkpt lat="44.096" lon="7.01004">
        <ele>1615.3</ele>
        <time>2022-06-11T12:10:17Z</time>
      </trkpt>
      <trkpt lat="44.09598" lon="7.00996">
        <ele>1615.4</ele>
        <time>2022-06-11T12:10:18Z</time>
      </trkpt>
      <trkpt lat="44.09596" lon="7.00989">
        <ele>1615.4</ele>
        <time>2022-06-11T12:10:19Z</time>
      </trkpt>
      <trkpt lat="44.09594" lon="7.00981">
        <ele>1615.4</ele>
        <time>2022-06-11T12:10:20Z</time>
      </trkpt>
      <trkpt lat="44.09592" lon="7.00974">
        <ele>1615.4</ele>
        <time>2022-06-11T12:10:21Z</time>
      </trkpt>
      <trkpt lat="44.0959" lon="7.00966">
        <ele>1615.3</ele>
        <time>2022-06-11T12:10:22Z</time>
      </trkpt>
      <trkpt lat="44.09588" lon="7.00958">
        <ele>1615.4</ele>
        <time>2022-06-11T12:10:23Z</time>
      </trkpt>
      <trkpt lat="44.09587" lon="7.0095">
        <ele>1615.4</ele>
        <time>2022-06-11T12:10:24Z</time>
      </trkpt>
      <trkpt lat="44.09585" lon="7.00942">
        <ele>1615.6</ele>
        <time>2022-06-11T12:10:25Z</time>
      </trkpt>
      <trkpt lat="44.09583" lon="7.00934">
        <ele>1615.8</ele>
        <time>2022-06-11T12:10:26Z</time>
      </trkpt>
      <trkpt lat="44.09582" lon="7.00926">
        <ele>1616</ele>
        <time>2022-06-11T12:10:27Z</time>
      </trkpt>
      <trkpt lat="44.09579" lon="7.00919">
        <ele>1615.5</ele>
        <time>2022-06-11T12:10:28Z</time>
      </trkpt>
      <trkpt lat="44.09576" lon="7.00911">
        <ele>1615.1</ele>
        <time>2022-06-11T12:10:29Z</time>
      </trkpt>
      <trkpt lat="44.09572" lon="7.00904">
        <ele>1614.7</ele>
        <time>2022-06-11T12:10:30Z</time>
      </trkpt>
      <trkpt lat="44.09568" lon="7.00897">
        <ele>1614.2</ele>
        <time>2022-06-11T12:10:31Z</time>
      </trkpt>
      <trkpt lat="44.09564" lon="7.00891">
        <ele>1613.7</ele>
        <time>2022-06-11T12:10:32Z</time>
      </trkpt>
      <trkpt lat="44.0956" lon="7.00884">
        <ele>1613.4</ele>
        <time>2022-06-11T12:10:33Z</time>
      </trkpt>
      <trkpt lat="44.09557" lon="7.00877">
        <ele>1613.4</ele>
        <time>2022-06-11T12:10:34Z</time>
      </trkpt>
      <trkpt lat="44.09553" lon="7.00871">
        <ele>1613.2</ele>
        <time>2022-06-11T12:10:35Z</time>
      </trkpt>
      <trkpt lat="44.09549" lon="7.00864">
        <ele>1612.9</ele>
        <time>2022-06-11T12:10:36Z</time>
      </trkpt>
      <trkpt lat="44.09545" lon="7.00858">
        <ele>1612.8</ele>
        <time>2022-06-11T12:10:37Z</time>
      </trkpt>
      <trkpt lat="44.09542" lon="7.00851">
        <ele>1612.9</ele>
        <time>2022-06-11T12:10:38Z</time>
      </trkpt>
      <trkpt lat="44.09538" lon="7.00845">
        <ele>1613.2</ele>
        <time>2022-06-11T12:10:39Z</time>
      </trkpt>
      <trkpt lat="44.09535" lon="7.00838">
        <ele>1613.6</ele>
        <time>2022-06-11T12:10:40Z</time>
      </trkpt>
      <trkpt lat="44.09531" lon="7.00831">
        <ele>1613.4</ele>
        <time>2022-06-11T12:10:41Z</time>
      </trkpt>
      <trkpt lat="44.09527" lon="7.00824">
        <ele>1612.9</ele>
        <time>2022-06-11T12:10:42Z</time>
      </trkpt>
      <trkpt lat="44.09524" lon="7.00817">
        <ele>1612.5</ele>
        <time>2022-06-11T12:10:43Z</time>
      </trkpt>
      <trkpt lat="44.0952" lon="7.00809">
        <ele>1612.3</ele>
        <time>2022-06-11T12:10:44Z</time>
      </trkpt>
      <trkpt lat="44.09516" lon="7.00801">
        <ele>1612.3</ele>
        <time>2022-06-11T12:10:45Z</time>
      </trkpt>
      <trkpt lat="44.09513" lon="7.00792">
        <ele>1612.4</ele>
        <time>2022-06-11T12:10:46Z</time>
      </trkpt>
      <trkpt lat="44.0951" lon="7.00784">
        <ele>1612.5</ele>
        <time>2022-06-11T12:10:47Z</time>
      </trkpt>
      <trkpt lat="44.09507" lon="7.00775">
        <ele>1612.6</ele>
        <time>2022-06-11T12:10:48Z</time>
      </trkpt>
      <trkpt lat="44.09505" lon="7.00766">
        <ele>1612.8</ele>
        <time>2022-06-11T12:10:49Z</time>
      </trkpt>
      <trkpt lat="44.09503" lon="7.00757">
        <ele>1612.8</ele>
        <time>2022-06-11T12:10:50Z</time>
      </trkpt>
      <trkpt lat="44.095" lon="7.00748">
        <ele>1612.6</ele>
        <time>2022-06-11T12:10:51Z</time>
      </trkpt>
      <trkpt lat="44.09497" lon="7.00739">
        <ele>1612.3</ele>
        <time>2022-06-11T12:10:52Z</time>
      </trkpt>
      <trkpt lat="44.09494" lon="7.00731">
        <ele>1611.9</ele>
        <time>2022-06-11T12:10:53Z</time>
      </trkpt>
      <trkpt lat="44.09489" lon="7.00724">
        <ele>1611.2</ele>
        <time>2022-06-11T12:10:54Z</time>
      </trkpt>
      <trkpt lat="44.09484" lon="7.00717">
        <ele>1610.9</ele>
        <time>2022-06-11T12:10:55Z</time>
      </trkpt>
      <trkpt lat="44.09479" lon="7.0071">
        <ele>1610.5</ele>
        <time>2022-06-11T12:10:56Z</time>
      </trkpt>
      <trkpt lat="44.09474" lon="7.00704">
        <ele>1610</ele>
        <time>2022-06-11T12:10:57Z</time>
      </trkpt>
      <trkpt lat="44.09469" lon="7.00698">
        <ele>1609.4</ele>
        <time>2022-06-11T12:10:58Z</time>
      </trkpt>
      <trkpt lat="44.09464" lon="7.00691">
        <ele>1609.1</ele>
        <time>2022-06-11T12:10:59Z</time>
      </trkpt>
      <trkpt lat="44.09459" lon="7.00685">
        <ele>1609.1</ele>
        <time>2022-06-11T12:11:00Z</time>
      </trkpt>
      <trkpt lat="44.09454" lon="7.00678">
        <ele>1609.4</ele>
        <time>2022-06-11T12:11:01Z</time>
      </trkpt>
      <trkpt lat="44.0945" lon="7.00671">
        <ele>1609.8</ele>
        <time>2022-06-11T12:11:02Z</time>
      </trkpt>
      <trkpt lat="44.09445" lon="7.00664">
        <ele>1610.2</ele>
        <time>2022-06-11T12:11:03Z</time>
      </trkpt>
      <trkpt lat="44.09441" lon="7.00657">
        <ele>1610.1</ele>
        <time>2022-06-11T12:11:04Z</time>
      </trkpt>
      <trkpt lat="44.09436" lon="7.00649">
        <ele>1610.1</ele>
        <time>2022-06-11T12:11:05Z</time>
      </trkpt>
      <trkpt lat="44.09432" lon="7.00641">
        <ele>1610.4</ele>
        <time>2022-06-11T12:11:06Z</time>
      </trkpt>
      <trkpt lat="44.09427" lon="7.00634">
        <ele>1610</ele>
        <time>2022-06-11T12:11:07Z</time>
      </trkpt>
      <trkpt lat="44.09423" lon="7.00627">
        <ele>1609.7</ele>
        <time>2022-06-11T12:11:08Z</time>
      </trkpt>
      <trkpt lat="44.09418" lon="7.00619">
        <ele>1609.6</ele>
        <time>2022-06-11T12:11:09Z</time>
      </trkpt>
      <trkpt lat="44.09414" lon="7.00612">
        <ele>1609.4</ele>
        <time>2022-06-11T12:11:10Z</time>
      </trkpt>
      <trkpt lat="44.0941" lon="7.00604">
        <ele>1608.9</ele>
        <time>2022-06-11T12:11:11Z</time>
      </trkpt>
      <trkpt lat="44.09405" lon="7.00597">
        <ele>1608.4</ele>
        <time>2022-06-11T12:11:12Z</time>
      </trkpt>
      <trkpt lat="44.09401" lon="7.0059">
        <ele>1607.9</ele>
        <time>2022-06-11T12:11:13Z</time>
      </trkpt>
      <trkpt lat="44.09397" lon="7.00582">
        <ele>1607.3</ele>
        <time>2022-06-11T12:11:14Z</time>
      </trkpt>
      <trkpt lat="44.09393" lon="7.00575">
        <ele>1606.8</ele>
        <time>2022-06-11T12:11:15Z</time>
      </trkpt>
      <trkpt lat="44.09389" lon="7.00568">
        <ele>1606.6</ele>
        <time>2022-06-11T12:11:16Z</time>
      </trkpt>
      <trkpt lat="44.09385" lon="7.0056">
        <ele>1606.1</ele>
        <time>2022-06-11T12:11:17Z</time>
      </trkpt>
      <trkpt lat="44.09381" lon="7.00552">
        <ele>1605.7</ele>
        <time>2022-06-11T12:11:18Z</time>
      </trkpt>
      <trkpt lat="44.09378" lon="7.00544">
        <ele>1605.6</ele>
        <time>2022-06-11T12:11:19Z</time>
      </trkpt>
      <trkpt lat="44.09375" lon="7.00536">
        <ele>1605.5</ele>
        <time>2022-06-11T12:11:20Z</time>
      </trkpt>
      <trkpt lat="44.09371" lon="7.00528">
        <ele>1605.6</ele>
        <time>2022-06-11T12:11:21Z</time>
      </trkpt>
      <trkpt lat="44.09368" lon="7.00519">
        <ele>1605.5</ele>
        <time>2022-06-11T12:11:22Z</time>
      </trkpt>
      <trkpt lat="44.09364" lon="7.00511">
        <ele>1605.4</ele>
        <time>2022-06-11T12:11:23Z</time>
      </trkpt>
      <trkpt lat="44.09361" lon="7.00502">
        <ele>1605.2</ele>
        <time>2022-06-11T12:11:24Z</time>
      </trkpt>
      <trkpt lat="44.09357" lon="7.00493">
        <ele>1605.2</ele>
        <time>2022-06-11T12:11:25Z</time>
      </trkpt>
      <trkpt lat="44.09354" lon="7.00484">
        <ele>1605.2</ele>
        <time>2022-06-11T12:11:26Z</time>
      </trkpt>
      <trkpt lat="44.09351" lon="7.00476">
        <ele>1605</ele>
        <time>2022-06-11T12:11:27Z</time>
      </trkpt>
      <trkpt lat="44.09348" lon="7.00467">
        <ele>1604.8</ele>
        <time>2022-06-11T12:11:28Z</time>
      </trkpt>
      <trkpt lat="44.09344" lon="7.00459">
        <ele>1604.2</ele>
        <time>2022-06-11T12:11:29Z</time>
      </trkpt>
      <trkpt lat="44.09342" lon="7.0045">
        <ele>1604.2</ele>
        <time>2022-06-11T12:11:30Z</time>
      </trkpt>
      <trkpt lat="44.0934" lon="7.00441">
        <ele>1604.8</ele>
        <time>2022-06-11T12:11:31Z</time>
      </trkpt>
      <trkpt lat="44.09338" lon="7.00433">
        <ele>1606.1</ele>
        <time>2022-06-11T12:11:32Z</time>
      </trkpt>
      <trkpt lat="44.09336" lon="7.00424">
        <ele>1607</ele>
        <time>2022-06-11T12:11:33Z</time>
      </trkpt>
      <trkpt lat="44.09334" lon="7.00416">
        <ele>1607.7</ele>
        <time>2022-06-11T12:11:34Z</time>
      </trkpt>
      <trkpt lat="44.09331" lon="7.00408">
        <ele>1608</ele>
        <time>2022-06-11T12:11:35Z</time>
      </trkpt>
      <trkpt lat="44.09327" lon="7.004">
        <ele>1607.7</ele>
        <time>2022-06-11T12:11:36Z</time>
      </trkpt>
      <trkpt lat="44.09322" lon="7.00394">
        <ele>1607</ele>
        <time>2022-06-11T12:11:37Z</time>
      </trkpt>
      <trkpt lat="44.09318" lon="7.00388">
        <ele>1606.3</ele>
        <time>2022-06-11T12:11:38Z</time>
      </trkpt>
      <trkpt lat="44.09313" lon="7.00382">
        <ele>1605.6</ele>
        <time>2022-06-11T12:11:39Z</time>
      </trkpt>
      <trkpt lat="44.09308" lon="7.00377">
        <ele>1604.9</ele>
        <time>2022-06-11T12:11:40Z</time>
      </trkpt>
      <trkpt lat="44.09303" lon="7.00371">
        <ele>1604.6</ele>
        <time>2022-06-11T12:11:41Z</time>
      </trkpt>
      <trkpt lat="44.09298" lon="7.00366">
        <ele>1604</ele>
        <time>2022-06-11T12:11:42Z</time>
      </trkpt>
      <trkpt lat="44.09293" lon="7.0036">
        <ele>1603.7</ele>
        <time>2022-06-11T12:11:43Z</time>
      </trkpt>
      <trkpt lat="44.09289" lon="7.00353">
        <ele>1603.8</ele>
        <time>2022-06-11T12:11:44Z</time>
      </trkpt>
      <trkpt lat="44.09284" lon="7.00346">
        <ele>1604</ele>
        <time>2022-06-11T12:11:45Z</time>
      </trkpt>
      <trkpt lat="44.0928" lon="7.00339">
        <ele>1604.2</ele>
        <time>2022-06-11T12:11:46Z</time>
      </trkpt>
      <trkpt lat="44.09275" lon="7.00332">
        <ele>1604.3</ele>
        <time>2022-06-11T12:11:47Z</time>
      </trkpt>
      <trkpt lat="44.09271" lon="7.00324">
        <ele>1604.5</ele>
        <time>2022-06-11T12:11:48Z</time>
      </trkpt>
      <trkpt lat="44.09266" lon="7.00317">
        <ele>1604.7</ele>
        <time>2022-06-11T12:11:49Z</time>
      </trkpt>
      <trkpt lat="44.09262" lon="7.0031">
        <ele>1604.8</ele>
        <time>2022-06-11T12:11:50Z</time>
      </trkpt>
      <trkpt lat="44.09257" lon="7.00302">
        <ele>1604.9</ele>
        <time>2022-06-11T12:11:51Z</time>
      </trkpt>
      <trkpt lat="44.09254" lon="7.00295">
        <ele>1604.9</ele>
        <time>2022-06-11T12:11:52Z</time>
      </trkpt>
      <trkpt lat="44.09249" lon="7.00287">
        <ele>1604.7</ele>
        <time>2022-06-11T12:11:53Z</time>
      </trkpt>
      <trkpt lat="44.09246" lon="7.0028">
        <ele>1604.3</ele>
        <time>2022-06-11T12:11:54Z</time>
      </trkpt>
      <trkpt lat="44.09242" lon="7.00275">
        <ele>1603.4</ele>
        <time>2022-06-11T12:11:55Z</time>
      </trkpt>
      <trkpt lat="44.09239" lon="7.00271">
        <ele>1602.3</ele>
        <time>2022-06-11T12:11:56Z</time>
      </trkpt>
      <trkpt lat="44.09236" lon="7.00268">
        <ele>1601.1</ele>
        <time>2022-06-11T12:11:57Z</time>
      </trkpt>
      <trkpt lat="44.09233" lon="7.00265">
        <ele>1599.8</ele>
        <time>2022-06-11T12:11:58Z</time>
      </trkpt>
      <trkpt lat="44.09231" lon="7.00262">
        <ele>1599.4</ele>
        <time>2022-06-11T12:11:59Z</time>
      </trkpt>
      <trkpt lat="44.09231" lon="7.0026">
        <ele>1599.2</ele>
        <time>2022-06-11T12:12:00Z</time>
      </trkpt>
      <trkpt lat="44.0923" lon="7.00258">
        <ele>1599.1</ele>
        <time>2022-06-11T12:12:01Z</time>
      </trkpt>
      <trkpt lat="44.0923" lon="7.00256">
        <ele>1599.2</ele>
        <time>2022-06-11T12:12:02Z</time>
      </trkpt>
      <trkpt lat="44.0923" lon="7.00253">
        <ele>1599.3</ele>
        <time>2022-06-11T12:12:03Z</time>
      </trkpt>
      <trkpt lat="44.0923" lon="7.0025">
        <ele>1599.5</ele>
        <time>2022-06-11T12:12:04Z</time>
      </trkpt>
      <trkpt lat="44.0923" lon="7.00249">
        <ele>1599.4</ele>
        <time>2022-06-11T12:12:05Z</time>
      </trkpt>
      <trkpt lat="44.0923" lon="7.00248">
        <ele>1599.3</ele>
        <time>2022-06-11T12:12:06Z</time>
      </trkpt>
      <trkpt lat="44.0923" lon="7.00248">
        <ele>1599.3</ele>
        <time>2022-06-11T12:12:07Z</time>
      </trkpt>
      <trkpt lat="44.0923" lon="7.00248">
        <ele>1599.3</ele>
        <time>2022-06-11T12:12:08Z</time>
      </trkpt>
      <trkpt lat="44.0923" lon="7.00241">
        <ele>1599.3</ele>
        <time>2022-06-11T12:14:10Z</time>
      </trkpt>
      <trkpt lat="44.09232" lon="7.00239">
        <ele>1599.9</ele>
        <time>2022-06-11T12:14:11Z</time>
      </trkpt>
      <trkpt lat="44.09234" lon="7.00236">
        <ele>1600.5</ele>
        <time>2022-06-11T12:14:12Z</time>
      </trkpt>
      <trkpt lat="44.09236" lon="7.00231">
        <ele>1601.1</ele>
        <time>2022-06-11T12:14:13Z</time>
      </trkpt>
      <trkpt lat="44.09238" lon="7.00227">
        <ele>1601.7</ele>
        <time>2022-06-11T12:14:14Z</time>
      </trkpt>
      <trkpt lat="44.09241" lon="7.00222">
        <ele>1602.3</ele>
        <time>2022-06-11T12:14:15Z</time>
      </trkpt>
      <trkpt lat="44.09244" lon="7.00216">
        <ele>1602.6</ele>
        <time>2022-06-11T12:14:16Z</time>
      </trkpt>
      <trkpt lat="44.09248" lon="7.0021">
        <ele>1602.9</ele>
        <time>2022-06-11T12:14:17Z</time>
      </trkpt>
      <trkpt lat="44.09252" lon="7.00205">
        <ele>1603.3</ele>
        <time>2022-06-11T12:14:18Z</time>
      </trkpt>
      <trkpt lat="44.09256" lon="7.00199">
        <ele>1603.6</ele>
        <time>2022-06-11T12:14:19Z</time>
      </trkpt>
      <trkpt lat="44.0926" lon="7.00193">
        <ele>1603.8</ele>
        <time>2022-06-11T12:14:20Z</time>
      </trkpt>
      <trkpt lat="44.09264" lon="7.00187">
        <ele>1603.8</ele>
        <time>2022-06-11T12:14:21Z</time>
      </trkpt>
      <trkpt lat="44.09269" lon="7.00182">
        <ele>1604.1</ele>
        <time>2022-06-11T12:14:22Z</time>
      </trkpt>
      <trkpt lat="44.09274" lon="7.00177">
        <ele>1604.4</ele>
        <time>2022-06-11T12:14:23Z</time>
      </trkpt>
      <trkpt lat="44.0928" lon="7.00172">
        <ele>1604.8</ele>
        <time>2022-06-11T12:14:24Z</time>
      </trkpt>
      <trkpt lat="44.09285" lon="7.00167">
        <ele>1604.9</ele>
        <time>2022-06-11T12:14:25Z</time>
      </trkpt>
      <trkpt lat="44.0929" lon="7.00163">
        <ele>1604.8</ele>
        <time>2022-06-11T12:14:26Z</time>
      </trkpt>
      <trkpt lat="44.09296" lon="7.00158">
        <ele>1604.8</ele>
        <time>2022-06-11T12:14:27Z</time>
      </trkpt>
      <trkpt lat="44.09301" lon="7.00154">
        <ele>1604.8</ele>
        <time>2022-06-11T12:14:28Z</time>
      </trkpt>
      <trkpt lat="44.09307" lon="7.00149">
        <ele>1604.7</ele>
        <time>2022-06-11T12:14:29Z</time>
      </trkpt>
      <trkpt lat="44.09313" lon="7.00145">
        <ele>1604.8</ele>
        <time>2022-06-11T12:14:30Z</time>
      </trkpt>
      <trkpt lat="44.09318" lon="7.00141">
        <ele>1604.8</ele>
        <time>2022-06-11T12:14:31Z</time>
      </trkpt>
      <trkpt lat="44.09324" lon="7.00136">
        <ele>1604.6</ele>
        <time>2022-06-11T12:14:32Z</time>
      </trkpt>
      <trkpt lat="44.0933" lon="7.00131">
        <ele>1604.1</ele>
        <time>2022-06-11T12:14:33Z</time>
      </trkpt>
      <trkpt lat="44.09336" lon="7.00127">
        <ele>1603.4</ele>
        <time>2022-06-11T12:14:34Z</time>
      </trkpt>
      <trkpt lat="44.09341" lon="7.00122">
        <ele>1602.6</ele>
        <time>2022-06-11T12:14:35Z</time>
      </trkpt>
      <trkpt lat="44.09347" lon="7.00119">
        <ele>1602.1</ele>
        <time>2022-06-11T12:14:36Z</time>
      </trkpt>
      <trkpt lat="44.09353" lon="7.00116">
        <ele>1601.8</ele>
        <time>2022-06-11T12:14:37Z</time>
      </trkpt>
      <trkpt lat="44.09358" lon="7.00114">
        <ele>1601.7</ele>
        <time>2022-06-11T12:14:38Z</time>
      </trkpt>
      <trkpt lat="44.09364" lon="7.00112">
        <ele>1601.6</ele>
        <time>2022-06-11T12:14:39Z</time>
      </trkpt>
      <trkpt lat="44.09371" lon="7.0011">
        <ele>1601.2</ele>
        <time>2022-06-11T12:14:40Z</time>
      </trkpt>
      <trkpt lat="44.09377" lon="7.00109">
        <ele>1601.2</ele>
        <time>2022-06-11T12:14:41Z</time>
      </trkpt>
      <trkpt lat="44.09384" lon="7.00109">
        <ele>1601.4</ele>
        <time>2022-06-11T12:14:42Z</time>
      </trkpt>
      <trkpt lat="44.09391" lon="7.00108">
        <ele>1601.6</ele>
        <time>2022-06-11T12:14:43Z</time>
      </trkpt>
      <trkpt lat="44.09398" lon="7.00109">
        <ele>1601.7</ele>
        <time>2022-06-11T12:14:44Z</time>
      </trkpt>
      <trkpt lat="44.09404" lon="7.0011">
        <ele>1602.1</ele>
        <time>2022-06-11T12:14:45Z</time>
      </trkpt>
      <trkpt lat="44.0941" lon="7.00112">
        <ele>1602.6</ele>
        <time>2022-06-11T12:14:46Z</time>
      </trkpt>
      <trkpt lat="44.09416" lon="7.00114">
        <ele>1603.2</ele>
        <time>2022-06-11T12:14:47Z</time>
      </trkpt>
      <trkpt lat="44.09421" lon="7.00114">
        <ele>1603.2</ele>
        <time>2022-06-11T12:14:48Z</time>
      </trkpt>
      <trkpt lat="44.09427" lon="7.00116">
        <ele>1603.4</ele>
        <time>2022-06-11T12:14:49Z</time>
      </trkpt>
      <trkpt lat="44.09433" lon="7.00118">
        <ele>1603.9</ele>
        <time>2022-06-11T12:14:50Z</time>
      </trkpt>
      <trkpt lat="44.0944" lon="7.00119">
        <ele>1604.3</ele>
        <time>2022-06-11T12:14:51Z</time>
      </trkpt>
      <trkpt lat="44.09446" lon="7.0012">
        <ele>1604.5</ele>
        <time>2022-06-11T12:14:52Z</time>
      </trkpt>
      <trkpt lat="44.09453" lon="7.00121">
        <ele>1604.7</ele>
        <time>2022-06-11T12:14:53Z</time>
      </trkpt>
      <trkpt lat="44.09459" lon="7.0012">
        <ele>1604.5</ele>
        <time>2022-06-11T12:14:54Z</time>
      </trkpt>
      <trkpt lat="44.09466" lon="7.0012">
        <ele>1604.2</ele>
        <time>2022-06-11T12:14:55Z</time>
      </trkpt>
      <trkpt lat="44.09472" lon="7.00117">
        <ele>1603.1</ele>
        <time>2022-06-11T12:14:56Z</time>
      </trkpt>
      <trkpt lat="44.09477" lon="7.00114">
        <ele>1601.9</ele>
        <time>2022-06-11T12:14:57Z</time>
      </trkpt>
      <trkpt lat="44.09483" lon="7.00111">
        <ele>1600.7</ele>
        <time>2022-06-11T12:14:58Z</time>
      </trkpt>
      <trkpt lat="44.09488" lon="7.00107">
        <ele>1598.8</ele>
        <time>2022-06-11T12:14:59Z</time>
      </trkpt>
      <trkpt lat="44.09493" lon="7.00101">
        <ele>1596.4</ele>
        <time>2022-06-11T12:15:00Z</time>
      </trkpt>
      <trkpt lat="44.09497" lon="7.00097">
        <ele>1594.3</ele>
        <time>2022-06-11T12:15:01Z</time>
      </trkpt>
      <trkpt lat="44.095" lon="7.00095">
        <ele>1593.1</ele>
        <time>2022-06-11T12:15:02Z</time>
      </trkpt>
      <trkpt lat="44.09502" lon="7.00094">
        <ele>1592.5</ele>
        <time>2022-06-11T12:15:03Z</time>
      </trkpt>
      <trkpt lat="44.09502" lon="7.00093">
        <ele>1592.1</ele>
        <time>2022-06-11T12:15:04Z</time>
      </trkpt>
      <trkpt lat="44.09502" lon="7.00093">
        <ele>1592.1</ele>
        <time>2022-06-11T12:15:05Z</time>
      </trkpt>
      <trkpt lat="44.09502" lon="7.00093">
        <ele>1592.1</ele>
        <time>2022-06-11T12:15:06Z</time>
      </trkpt>
      <trkpt lat="44.09507" lon="7.00093">
        <ele>1592.3</ele>
        <time>2022-06-11T12:16:17Z</time>
      </trkpt>
      <trkpt lat="44.09509" lon="7.00094">
        <ele>1592.8</ele>
        <time>2022-06-11T12:16:18Z</time>
      </trkpt>
      <trkpt lat="44.09511" lon="7.00095">
        <ele>1593.2</ele>
        <time>2022-06-11T12:16:19Z</time>
      </trkpt>
      <trkpt lat="44.09513" lon="7.00096">
        <ele>1593.9</ele>
        <time>2022-06-11T12:16:20Z</time>
      </trkpt>
      <trkpt lat="44.09517" lon="7.00098">
        <ele>1594.7</ele>
        <time>2022-06-11T12:16:21Z</time>
      </trkpt>
      <trkpt lat="44.09521" lon="7.00099">
        <ele>1595.5</ele>
        <time>2022-06-11T12:16:22Z</time>
      </trkpt>
      <trkpt lat="44.09525" lon="7.001">
        <ele>1595.8</ele>
        <time>2022-06-11T12:16:23Z</time>
      </trkpt>
      <trkpt lat="44.09529" lon="7.001">
        <ele>1596.1</ele>
        <time>2022-06-11T12:16:24Z</time>
      </trkpt>
      <trkpt lat="44.09534" lon="7.00101">
        <ele>1596.2</ele>
        <time>2022-06-11T12:16:25Z</time>
      </trkpt>
      <trkpt lat="44.09539" lon="7.00102">
        <ele>1596.5</ele>
        <time>2022-06-11T12:16:26Z</time>
      </trkpt>
      <trkpt lat="44.09543" lon="7.00104">
        <ele>1597.1</ele>
        <time>2022-06-11T12:16:27Z</time>
      </trkpt>
      <trkpt lat="44.09548" lon="7.00106">
        <ele>1597.8</ele>
        <time>2022-06-11T12:16:28Z</time>
      </trkpt>
      <trkpt lat="44.09553" lon="7.00108">
        <ele>1598.7</ele>
        <time>2022-06-11T12:16:29Z</time>
      </trkpt>
      <trkpt lat="44.09558" lon="7.00111">
        <ele>1599.6</ele>
        <time>2022-06-11T12:16:30Z</time>
      </trkpt>
      <trkpt lat="44.09563" lon="7.00114">
        <ele>1600</ele>
        <time>2022-06-11T12:16:31Z</time>
      </trkpt>
      <trkpt lat="44.09568" lon="7.00117">
        <ele>1600.4</ele>
        <time>2022-06-11T12:16:32Z</time>
      </trkpt>
      <trkpt lat="44.09573" lon="7.00119">
        <ele>1600.6</ele>
        <time>2022-06-11T12:16:33Z</time>
      </trkpt>
      <trkpt lat="44.09578" lon="7.00121">
        <ele>1600.7</ele>
        <time>2022-06-11T12:16:34Z</time>
      </trkpt>
      <trkpt lat="44.09584" lon="7.00124">
        <ele>1601</ele>
        <time>2022-06-11T12:16:35Z</time>
      </trkpt>
      <trkpt lat="44.09589" lon="7.00127">
        <ele>1601.2</ele>
        <time>2022-06-11T12:16:36Z</time>
      </trkpt>
      <trkpt lat="44.09595" lon="7.0013">
        <ele>1601.3</ele>
        <time>2022-06-11T12:16:37Z</time>
      </trkpt>
      <trkpt lat="44.096" lon="7.00133">
        <ele>1601.4</ele>
        <time>2022-06-11T12:16:38Z</time>
      </trkpt>
      <trkpt lat="44.09606" lon="7.00136">
        <ele>1601.6</ele>
        <time>2022-06-11T12:16:39Z</time>
      </trkpt>
      <trkpt lat="44.09612" lon="7.00139">
        <ele>1601.9</ele>
        <time>2022-06-11T12:16:40Z</time>
      </trkpt>
      <trkpt lat="44.09618" lon="7.00142">
        <ele>1601.8</ele>
        <time>2022-06-11T12:16:41Z</time>
      </trkpt>
      <trkpt lat="44.09624" lon="7.00144">
        <ele>1601.7</ele>
        <time>2022-06-11T12:16:42Z</time>
      </trkpt>
      <trkpt lat="44.0963" lon="7.00147">
        <ele>1601.4</ele>
        <time>2022-06-11T12:16:43Z</time>
      </trkpt>
      <trkpt lat="44.09636" lon="7.00148">
        <ele>1600.6</ele>
        <time>2022-06-11T12:16:44Z</time>
      </trkpt>
      <trkpt lat="44.09643" lon="7.0015">
        <ele>1599.8</ele>
        <time>2022-06-11T12:16:45Z</time>
      </trkpt>
      <trkpt lat="44.0965" lon="7.00151">
        <ele>1598.8</ele>
        <time>2022-06-11T12:16:46Z</time>
      </trkpt>
      <trkpt lat="44.09656" lon="7.00152">
        <ele>1597.6</ele>
        <time>2022-06-11T12:16:47Z</time>
      </trkpt>
      <trkpt lat="44.09663" lon="7.00152">
        <ele>1596.3</ele>
        <time>2022-06-11T12:16:48Z</time>
      </trkpt>
      <trkpt lat="44.09669" lon="7.00153">
        <ele>1594.9</ele>
        <time>2022-06-11T12:16:49Z</time>
      </trkpt>
      <trkpt lat="44.09674" lon="7.00153">
        <ele>1593.6</ele>
        <time>2022-06-11T12:16:50Z</time>
      </trkpt>
      <trkpt lat="44.09679" lon="7.00152">
        <ele>1591.9</ele>
        <time>2022-06-11T12:16:51Z</time>
      </trkpt>
      <trkpt lat="44.09684" lon="7.00149">
        <ele>1589.8</ele>
        <time>2022-06-11T12:16:52Z</time>
      </trkpt>
      <trkpt lat="44.09688" lon="7.00149">
        <ele>1588.5</ele>
        <time>2022-06-11T12:16:53Z</time>
      </trkpt>
      <trkpt lat="44.09691" lon="7.00149">
        <ele>1588</ele>
        <time>2022-06-11T12:16:54Z</time>
      </trkpt>
      <trkpt lat="44.09694" lon="7.00151">
        <ele>1587.8</ele>
        <time>2022-06-11T12:16:55Z</time>
      </trkpt>
      <trkpt lat="44.09696" lon="7.00152">
        <ele>1587.4</ele>
        <time>2022-06-11T12:16:56Z</time>
      </trkpt>
      <trkpt lat="44.09699" lon="7.00152">
        <ele>1586.9</ele>
        <time>2022-06-11T12:16:57Z</time>
      </trkpt>
      <trkpt lat="44.09701" lon="7.00153">
        <ele>1586.4</ele>
        <time>2022-06-11T12:16:58Z</time>
      </trkpt>
      <trkpt lat="44.09702" lon="7.00153">
        <ele>1586.1</ele>
        <time>2022-06-11T12:16:59Z</time>
      </trkpt>
      <trkpt lat="44.09702" lon="7.00153">
        <ele>1585.9</ele>
        <time>2022-06-11T12:17:00Z</time>
      </trkpt>
      <trkpt lat="44.09702" lon="7.00153">
        <ele>1585.9</ele>
        <time>2022-06-11T12:17:01Z</time>
      </trkpt>
      <trkpt lat="44.09706" lon="7.0016">
        <ele>1587.3</ele>
        <time>2022-06-11T12:17:53Z</time>
      </trkpt>
      <trkpt lat="44.09708" lon="7.00163">
        <ele>1587.8</ele>
        <time>2022-06-11T12:17:54Z</time>
      </trkpt>
      <trkpt lat="44.09709" lon="7.00166">
        <ele>1588.4</ele>
        <time>2022-06-11T12:17:55Z</time>
      </trkpt>
      <trkpt lat="44.09711" lon="7.0017">
        <ele>1589.3</ele>
        <time>2022-06-11T12:17:56Z</time>
      </trkpt>
      <trkpt lat="44.09713" lon="7.00174">
        <ele>1590.2</ele>
        <time>2022-06-11T12:17:57Z</time>
      </trkpt>
      <trkpt lat="44.09716" lon="7.00178">
        <ele>1591.1</ele>
        <time>2022-06-11T12:17:58Z</time>
      </trkpt>
      <trkpt lat="44.09719" lon="7.00181">
        <ele>1591.6</ele>
        <time>2022-06-11T12:17:59Z</time>
      </trkpt>
      <trkpt lat="44.09722" lon="7.00185">
        <ele>1592.1</ele>
        <time>2022-06-11T12:18:00Z</time>
      </trkpt>
      <trkpt lat="44.09725" lon="7.00188">
        <ele>1592.1</ele>
        <time>2022-06-11T12:18:01Z</time>
      </trkpt>
      <trkpt lat="44.09729" lon="7.00192">
        <ele>1592.2</ele>
        <time>2022-06-11T12:18:02Z</time>
      </trkpt>
      <trkpt lat="44.09733" lon="7.00196">
        <ele>1592.4</ele>
        <time>2022-06-11T12:18:03Z</time>
      </trkpt>
      <trkpt lat="44.09736" lon="7.00199">
        <ele>1592.5</ele>
        <time>2022-06-11T12:18:04Z</time>
      </trkpt>
      <trkpt lat="44.09741" lon="7.00202">
        <ele>1592.3</ele>
        <time>2022-06-11T12:18:05Z</time>
      </trkpt>
      <trkpt lat="44.09745" lon="7.00206">
        <ele>1592.1</ele>
        <time>2022-06-11T12:18:06Z</time>
      </trkpt>
      <trkpt lat="44.0975" lon="7.00209">
        <ele>1592</ele>
        <time>2022-06-11T12:18:07Z</time>
      </trkpt>
      <trkpt lat="44.09754" lon="7.00213">
        <ele>1591.9</ele>
        <time>2022-06-11T12:18:08Z</time>
      </trkpt>
      <trkpt lat="44.09759" lon="7.00217">
        <ele>1591.6</ele>
        <time>2022-06-11T12:18:09Z</time>
      </trkpt>
      <trkpt lat="44.09763" lon="7.00221">
        <ele>1591.7</ele>
        <time>2022-06-11T12:18:10Z</time>
      </trkpt>
      <trkpt lat="44.09768" lon="7.00225">
        <ele>1591.4</ele>
        <time>2022-06-11T12:18:11Z</time>
      </trkpt>
      <trkpt lat="44.09774" lon="7.00229">
        <ele>1591.1</ele>
        <time>2022-06-11T12:18:12Z</time>
      </trkpt>
      <trkpt lat="44.09778" lon="7.00234">
        <ele>1591.2</ele>
        <time>2022-06-11T12:18:13Z</time>
      </trkpt>
      <trkpt lat="44.09784" lon="7.00238">
        <ele>1590.9</ele>
        <time>2022-06-11T12:18:14Z</time>
      </trkpt>
      <trkpt lat="44.09789" lon="7.00242">
        <ele>1590.4</ele>
        <time>2022-06-11T12:18:15Z</time>
      </trkpt>
      <trkpt lat="44.09795" lon="7.00247">
        <ele>1590.2</ele>
        <time>2022-06-11T12:18:16Z</time>
      </trkpt>
      <trkpt lat="44.09801" lon="7.00251">
        <ele>1589.7</ele>
        <time>2022-06-11T12:18:17Z</time>
      </trkpt>
      <trkpt lat="44.09807" lon="7.00256">
        <ele>1589.2</ele>
        <time>2022-06-11T12:18:18Z</time>
      </trkpt>
      <trkpt lat="44.09813" lon="7.00262">
        <ele>1588.8</ele>
        <time>2022-06-11T12:18:19Z</time>
      </trkpt>
      <trkpt lat="44.09819" lon="7.00267">
        <ele>1588.3</ele>
        <time>2022-06-11T12:18:20Z</time>
      </trkpt>
      <trkpt lat="44.09825" lon="7.00272">
        <ele>1587.7</ele>
        <time>2022-06-11T12:18:21Z</time>
      </trkpt>
      <trkpt lat="44.09831" lon="7.00278">
        <ele>1587.2</ele>
        <time>2022-06-11T12:18:22Z</time>
      </trkpt>
      <trkpt lat="44.09837" lon="7.00283">
        <ele>1586.7</ele>
        <time>2022-06-11T12:18:23Z</time>
      </trkpt>
      <trkpt lat="44.09843" lon="7.00288">
        <ele>1586.1</ele>
        <time>2022-06-11T12:18:24Z</time>
      </trkpt>
      <trkpt lat="44.09849" lon="7.00293">
        <ele>1585.6</ele>
        <time>2022-06-11T12:18:25Z</time>
      </trkpt>
      <trkpt lat="44.09855" lon="7.00298">
        <ele>1585.2</ele>
        <time>2022-06-11T12:18:26Z</time>
      </trkpt>
      <trkpt lat="44.09861" lon="7.00304">
        <ele>1585.1</ele>
        <time>2022-06-11T12:18:27Z</time>
      </trkpt>
      <trkpt lat="44.09866" lon="7.00309">
        <ele>1585.2</ele>
        <time>2022-06-11T12:18:28Z</time>
      </trkpt>
      <trkpt lat="44.09872" lon="7.00315">
        <ele>1585.2</ele>
        <time>2022-06-11T12:18:29Z</time>
      </trkpt>
      <trkpt lat="44.09878" lon="7.00321">
        <ele>1585.2</ele>
        <time>2022-06-11T12:18:30Z</time>
      </trkpt>
      <trkpt lat="44.09884" lon="7.00327">
        <ele>1585.2</ele>
        <time>2022-06-11T12:18:31Z</time>
      </trkpt>
      <trkpt lat="44.0989" lon="7.00333">
        <ele>1585.4</ele>
        <time>2022-06-11T12:18:32Z</time>
      </trkpt>
      <trkpt lat="44.09896" lon="7.0034">
        <ele>1585.2</ele>
        <time>2022-06-11T12:18:33Z</time>
      </trkpt>
      <trkpt lat="44.09902" lon="7.00346">
        <ele>1585</ele>
        <time>2022-06-11T12:18:34Z</time>
      </trkpt>
      <trkpt lat="44.09908" lon="7.00353">
        <ele>1585.4</ele>
        <time>2022-06-11T12:18:35Z</time>
      </trkpt>
      <trkpt lat="44.09914" lon="7.0036">
        <ele>1586</ele>
        <time>2022-06-11T12:18:36Z</time>
      </trkpt>
      <trkpt lat="44.09919" lon="7.00368">
        <ele>1586.5</ele>
        <time>2022-06-11T12:18:37Z</time>
      </trkpt>
      <trkpt lat="44.09925" lon="7.00376">
        <ele>1586.9</ele>
        <time>2022-06-11T12:18:38Z</time>
      </trkpt>
      <trkpt lat="44.09931" lon="7.00384">
        <ele>1587.2</ele>
        <time>2022-06-11T12:18:39Z</time>
      </trkpt>
      <trkpt lat="44.09937" lon="7.00391">
        <ele>1587.3</ele>
        <time>2022-06-11T12:18:40Z</time>
      </trkpt>
      <trkpt lat="44.09943" lon="7.00398">
        <ele>1587.3</ele>
        <time>2022-06-11T12:18:41Z</time>
      </trkpt>
      <trkpt lat="44.09949" lon="7.00404">
        <ele>1587</ele>
        <time>2022-06-11T12:18:42Z</time>
      </trkpt>
      <trkpt lat="44.09955" lon="7.0041">
        <ele>1586.5</ele>
        <time>2022-06-11T12:18:43Z</time>
      </trkpt>
      <trkpt lat="44.09961" lon="7.00415">
        <ele>1585.8</ele>
        <time>2022-06-11T12:18:44Z</time>
      </trkpt>
      <trkpt lat="44.09967" lon="7.0042">
        <ele>1585.2</ele>
        <time>2022-06-11T12:18:45Z</time>
      </trkpt>
      <trkpt lat="44.09973" lon="7.00426">
        <ele>1584.6</ele>
        <time>2022-06-11T12:18:46Z</time>
      </trkpt>
      <trkpt lat="44.09979" lon="7.0043">
        <ele>1583.7</ele>
        <time>2022-06-11T12:18:47Z</time>
      </trkpt>
      <trkpt lat="44.09985" lon="7.00436">
        <ele>1583</ele>
        <time>2022-06-11T12:18:48Z</time>
      </trkpt>
      <trkpt lat="44.09991" lon="7.00441">
        <ele>1582.9</ele>
        <time>2022-06-11T12:18:49Z</time>
      </trkpt>
      <trkpt lat="44.09996" lon="7.00447">
        <ele>1582.7</ele>
        <time>2022-06-11T12:18:50Z</time>
      </trkpt>
      <trkpt lat="44.10003" lon="7.00453">
        <ele>1582.3</ele>
        <time>2022-06-11T12:18:51Z</time>
      </trkpt>
      <trkpt lat="44.10009" lon="7.00459">
        <ele>1581.8</ele>
        <time>2022-06-11T12:18:52Z</time>
      </trkpt>
      <trkpt lat="44.10015" lon="7.00465">
        <ele>1582</ele>
        <time>2022-06-11T12:18:53Z</time>
      </trkpt>
      <trkpt lat="44.10022" lon="7.00472">
        <ele>1582.6</ele>
        <time>2022-06-11T12:18:54Z</time>
      </trkpt>
      <trkpt lat="44.10028" lon="7.0048">
        <ele>1582.9</ele>
        <time>2022-06-11T12:18:55Z</time>
      </trkpt>
      <trkpt lat="44.10035" lon="7.00487">
        <ele>1582.6</ele>
        <time>2022-06-11T12:18:56Z</time>
      </trkpt>
      <trkpt lat="44.10042" lon="7.00494">
        <ele>1582.3</ele>
        <time>2022-06-11T12:18:57Z</time>
      </trkpt>
      <trkpt lat="44.1005" lon="7.005">
        <ele>1581.9</ele>
        <time>2022-06-11T12:18:58Z</time>
      </trkpt>
      <trkpt lat="44.10057" lon="7.00506">
        <ele>1580.7</ele>
        <time>2022-06-11T12:18:59Z</time>
      </trkpt>
      <trkpt lat="44.10065" lon="7.00513">
        <ele>1579.7</ele>
        <time>2022-06-11T12:19:00Z</time>
      </trkpt>
      <trkpt lat="44.10072" lon="7.00519">
        <ele>1579</ele>
        <time>2022-06-11T12:19:01Z</time>
      </trkpt>
      <trkpt lat="44.1008" lon="7.00525">
        <ele>1578.3</ele>
        <time>2022-06-11T12:19:02Z</time>
      </trkpt>
      <trkpt lat="44.10088" lon="7.00531">
        <ele>1577.5</ele>
        <time>2022-06-11T12:19:03Z</time>
      </trkpt>
      <trkpt lat="44.10096" lon="7.00537">
        <ele>1576.4</ele>
        <time>2022-06-11T12:19:04Z</time>
      </trkpt>
      <trkpt lat="44.10104" lon="7.00542">
        <ele>1575.3</ele>
        <time>2022-06-11T12:19:05Z</time>
      </trkpt>
      <trkpt lat="44.10112" lon="7.00548">
        <ele>1574.3</ele>
        <time>2022-06-11T12:19:06Z</time>
      </trkpt>
      <trkpt lat="44.1012" lon="7.00554">
        <ele>1573.9</ele>
        <time>2022-06-11T12:19:07Z</time>
      </trkpt>
      <trkpt lat="44.10129" lon="7.00559">
        <ele>1573.1</ele>
        <time>2022-06-11T12:19:08Z</time>
      </trkpt>
      <trkpt lat="44.10137" lon="7.00564">
        <ele>1572.1</ele>
        <time>2022-06-11T12:19:09Z</time>
      </trkpt>
      <trkpt lat="44.10145" lon="7.00568">
        <ele>1571.9</ele>
        <time>2022-06-11T12:19:10Z</time>
      </trkpt>
      <trkpt lat="44.10154" lon="7.00572">
        <ele>1571.5</ele>
        <time>2022-06-11T12:19:11Z</time>
      </trkpt>
      <trkpt lat="44.10162" lon="7.00576">
        <ele>1570.6</ele>
        <time>2022-06-11T12:19:12Z</time>
      </trkpt>
      <trkpt lat="44.1017" lon="7.0058">
        <ele>1569.8</ele>
        <time>2022-06-11T12:19:13Z</time>
      </trkpt>
      <trkpt lat="44.10178" lon="7.0058">
        <ele>1569</ele>
        <time>2022-06-11T12:19:14Z</time>
      </trkpt>
      <trkpt lat="44.10185" lon="7.00578">
        <ele>1568</ele>
        <time>2022-06-11T12:19:15Z</time>
      </trkpt>
      <trkpt lat="44.10192" lon="7.00571">
        <ele>1567.5</ele>
        <time>2022-06-11T12:19:16Z</time>
      </trkpt>
      <trkpt lat="44.10196" lon="7.00563">
        <ele>1568.3</ele>
        <time>2022-06-11T12:19:17Z</time>
      </trkpt>
      <trkpt lat="44.10198" lon="7.00553">
        <ele>1570</ele>
        <time>2022-06-11T12:19:18Z</time>
      </trkpt>
      <trkpt lat="44.10197" lon="7.00544">
        <ele>1572</ele>
        <time>2022-06-11T12:19:19Z</time>
      </trkpt>
      <trkpt lat="44.10193" lon="7.00535">
        <ele>1572.8</ele>
        <time>2022-06-11T12:19:20Z</time>
      </trkpt>
      <trkpt lat="44.10188" lon="7.00528">
        <ele>1572.7</ele>
        <time>2022-06-11T12:19:21Z</time>
      </trkpt>
      <trkpt lat="44.10182" lon="7.00522">
        <ele>1572.6</ele>
        <time>2022-06-11T12:19:22Z</time>
      </trkpt>
      <trkpt lat="44.10177" lon="7.00516">
        <ele>1572.4</ele>
        <time>2022-06-11T12:19:23Z</time>
      </trkpt>
      <trkpt lat="44.1017" lon="7.00511">
        <ele>1571.4</ele>
        <time>2022-06-11T12:19:24Z</time>
      </trkpt>
      <trkpt lat="44.10164" lon="7.00505">
        <ele>1570.6</ele>
        <time>2022-06-11T12:19:25Z</time>
      </trkpt>
      <trkpt lat="44.10159" lon="7.005">
        <ele>1569.8</ele>
        <time>2022-06-11T12:19:26Z</time>
      </trkpt>
      <trkpt lat="44.10153" lon="7.00494">
        <ele>1569.4</ele>
        <time>2022-06-11T12:19:27Z</time>
      </trkpt>
      <trkpt lat="44.10147" lon="7.00489">
        <ele>1568.8</ele>
        <time>2022-06-11T12:19:28Z</time>
      </trkpt>
      <trkpt lat="44.10142" lon="7.00483">
        <ele>1568.1</ele>
        <time>2022-06-11T12:19:29Z</time>
      </trkpt>
      <trkpt lat="44.10137" lon="7.00477">
        <ele>1567.7</ele>
        <time>2022-06-11T12:19:30Z</time>
      </trkpt>
      <trkpt lat="44.10132" lon="7.00471">
        <ele>1567.4</ele>
        <time>2022-06-11T12:19:31Z</time>
      </trkpt>
      <trkpt lat="44.10127" lon="7.00465">
        <ele>1567.2</ele>
        <time>2022-06-11T12:19:32Z</time>
      </trkpt>
      <trkpt lat="44.10123" lon="7.00458">
        <ele>1567</ele>
        <time>2022-06-11T12:19:33Z</time>
      </trkpt>
      <trkpt lat="44.10119" lon="7.00451">
        <ele>1566.8</ele>
        <time>2022-06-11T12:19:34Z</time>
      </trkpt>
      <trkpt lat="44.10116" lon="7.00444">
        <ele>1566.8</ele>
        <time>2022-06-11T12:19:35Z</time>
      </trkpt>
      <trkpt lat="44.10112" lon="7.00436">
        <ele>1567</ele>
        <time>2022-06-11T12:19:36Z</time>
      </trkpt>
      <trkpt lat="44.10109" lon="7.00429">
        <ele>1567.3</ele>
        <time>2022-06-11T12:19:37Z</time>
      </trkpt>
      <trkpt lat="44.10106" lon="7.00421">
        <ele>1567.5</ele>
        <time>2022-06-11T12:19:38Z</time>
      </trkpt>
      <trkpt lat="44.10103" lon="7.00413">
        <ele>1567.4</ele>
        <time>2022-06-11T12:19:39Z</time>
      </trkpt>
      <trkpt lat="44.101" lon="7.00406">
        <ele>1567.8</ele>
        <time>2022-06-11T12:19:40Z</time>
      </trkpt>
      <trkpt lat="44.10097" lon="7.00399">
        <ele>1568</ele>
        <time>2022-06-11T12:19:41Z</time>
      </trkpt>
      <trkpt lat="44.10095" lon="7.00391">
        <ele>1568.2</ele>
        <time>2022-06-11T12:19:42Z</time>
      </trkpt>
      <trkpt lat="44.10092" lon="7.00384">
        <ele>1568.2</ele>
        <time>2022-06-11T12:19:43Z</time>
      </trkpt>
      <trkpt lat="44.1009" lon="7.00377">
        <ele>1568.3</ele>
        <time>2022-06-11T12:19:44Z</time>
      </trkpt>
      <trkpt lat="44.10087" lon="7.0037">
        <ele>1568.1</ele>
        <time>2022-06-11T12:19:45Z</time>
      </trkpt>
      <trkpt lat="44.10084" lon="7.00363">
        <ele>1568.1</ele>
        <time>2022-06-11T12:19:46Z</time>
      </trkpt>
      <trkpt lat="44.10082" lon="7.00356">
        <ele>1568.4</ele>
        <time>2022-06-11T12:19:47Z</time>
      </trkpt>
      <trkpt lat="44.1008" lon="7.00349">
        <ele>1568.9</ele>
        <time>2022-06-11T12:19:48Z</time>
      </trkpt>
      <trkpt lat="44.10079" lon="7.00342">
        <ele>1569.4</ele>
        <time>2022-06-11T12:19:49Z</time>
      </trkpt>
      <trkpt lat="44.10077" lon="7.00335">
        <ele>1569.9</ele>
        <time>2022-06-11T12:19:50Z</time>
      </trkpt>
      <trkpt lat="44.10075" lon="7.00329">
        <ele>1570.2</ele>
        <time>2022-06-11T12:19:51Z</time>
      </trkpt>
      <trkpt lat="44.10074" lon="7.00322">
        <ele>1570.6</ele>
        <time>2022-06-11T12:19:52Z</time>
      </trkpt>
      <trkpt lat="44.10072" lon="7.00315">
        <ele>1571.1</ele>
        <time>2022-06-11T12:19:53Z</time>
      </trkpt>
      <trkpt lat="44.10071" lon="7.00309">
        <ele>1571.6</ele>
        <time>2022-06-11T12:19:54Z</time>
      </trkpt>
      <trkpt lat="44.10069" lon="7.00302">
        <ele>1572.1</ele>
        <time>2022-06-11T12:19:55Z</time>
      </trkpt>
      <trkpt lat="44.10068" lon="7.00295">
        <ele>1572.5</ele>
        <time>2022-06-11T12:19:56Z</time>
      </trkpt>
      <trkpt lat="44.10067" lon="7.00288">
        <ele>1572.8</ele>
        <time>2022-06-11T12:19:57Z</time>
      </trkpt>
      <trkpt lat="44.10065" lon="7.00282">
        <ele>1572.9</ele>
        <time>2022-06-11T12:19:58Z</time>
      </trkpt>
      <trkpt lat="44.10064" lon="7.00275">
        <ele>1573</ele>
        <time>2022-06-11T12:19:59Z</time>
      </trkpt>
      <trkpt lat="44.10062" lon="7.00268">
        <ele>1573.5</ele>
        <time>2022-06-11T12:20:00Z</time>
      </trkpt>
      <trkpt lat="44.10061" lon="7.00262">
        <ele>1574.1</ele>
        <time>2022-06-11T12:20:01Z</time>
      </trkpt>
      <trkpt lat="44.1006" lon="7.00255">
        <ele>1574.7</ele>
        <time>2022-06-11T12:20:02Z</time>
      </trkpt>
      <trkpt lat="44.10058" lon="7.00248">
        <ele>1575.1</ele>
        <time>2022-06-11T12:20:03Z</time>
      </trkpt>
      <trkpt lat="44.10057" lon="7.00241">
        <ele>1575.4</ele>
        <time>2022-06-11T12:20:04Z</time>
      </trkpt>
      <trkpt lat="44.10056" lon="7.00235">
        <ele>1575.7</ele>
        <time>2022-06-11T12:20:05Z</time>
      </trkpt>
      <trkpt lat="44.10054" lon="7.00228">
        <ele>1575.9</ele>
        <time>2022-06-11T12:20:06Z</time>
      </trkpt>
      <trkpt lat="44.10053" lon="7.00222">
        <ele>1576</ele>
        <time>2022-06-11T12:20:07Z</time>
      </trkpt>
      <trkpt lat="44.10051" lon="7.00216">
        <ele>1576.3</ele>
        <time>2022-06-11T12:20:08Z</time>
      </trkpt>
      <trkpt lat="44.10049" lon="7.00209">
        <ele>1576.2</ele>
        <time>2022-06-11T12:20:09Z</time>
      </trkpt>
      <trkpt lat="44.10047" lon="7.00203">
        <ele>1576.3</ele>
        <time>2022-06-11T12:20:10Z</time>
      </trkpt>
      <trkpt lat="44.10045" lon="7.00197">
        <ele>1576.1</ele>
        <time>2022-06-11T12:20:11Z</time>
      </trkpt>
      <trkpt lat="44.10043" lon="7.00192">
        <ele>1575.7</ele>
        <time>2022-06-11T12:20:12Z</time>
      </trkpt>
      <trkpt lat="44.10041" lon="7.00186">
        <ele>1575.3</ele>
        <time>2022-06-11T12:20:13Z</time>
      </trkpt>
      <trkpt lat="44.1004" lon="7.00181">
        <ele>1574.9</ele>
        <time>2022-06-11T12:20:14Z</time>
      </trkpt>
      <trkpt lat="44.10038" lon="7.00175">
        <ele>1574.6</ele>
        <time>2022-06-11T12:20:15Z</time>
      </trkpt>
      <trkpt lat="44.10036" lon="7.00169">
        <ele>1574.6</ele>
        <time>2022-06-11T12:20:16Z</time>
      </trkpt>
      <trkpt lat="44.10035" lon="7.00164">
        <ele>1574.6</ele>
        <time>2022-06-11T12:20:17Z</time>
      </trkpt>
      <trkpt lat="44.10034" lon="7.00158">
        <ele>1575.1</ele>
        <time>2022-06-11T12:20:18Z</time>
      </trkpt>
      <trkpt lat="44.10033" lon="7.00152">
        <ele>1575.6</ele>
        <time>2022-06-11T12:20:19Z</time>
      </trkpt>
      <trkpt lat="44.10033" lon="7.00146">
        <ele>1576.3</ele>
        <time>2022-06-11T12:20:20Z</time>
      </trkpt>
      <trkpt lat="44.10032" lon="7.00139">
        <ele>1577</ele>
        <time>2022-06-11T12:20:21Z</time>
      </trkpt>
      <trkpt lat="44.10031" lon="7.00133">
        <ele>1577.7</ele>
        <time>2022-06-11T12:20:22Z</time>
      </trkpt>
      <trkpt lat="44.1003" lon="7.00127">
        <ele>1578.3</ele>
        <time>2022-06-11T12:20:23Z</time>
      </trkpt>
      <trkpt lat="44.10029" lon="7.00121">
        <ele>1579</ele>
        <time>2022-06-11T12:20:24Z</time>
      </trkpt>
      <trkpt lat="44.10028" lon="7.00115">
        <ele>1579.1</ele>
        <time>2022-06-11T12:20:25Z</time>
      </trkpt>
      <trkpt lat="44.10025" lon="7.00109">
        <ele>1578.8</ele>
        <time>2022-06-11T12:20:26Z</time>
      </trkpt>
      <trkpt lat="44.10023" lon="7.00103">
        <ele>1578.6</ele>
        <time>2022-06-11T12:20:27Z</time>
      </trkpt>
      <trkpt lat="44.1002" lon="7.00097">
        <ele>1578.4</ele>
        <time>2022-06-11T12:20:28Z</time>
      </trkpt>
      <trkpt lat="44.10018" lon="7.00092">
        <ele>1578.2</ele>
        <time>2022-06-11T12:20:29Z</time>
      </trkpt>
      <trkpt lat="44.10015" lon="7.00087">
        <ele>1577.8</ele>
        <time>2022-06-11T12:20:30Z</time>
      </trkpt>
      <trkpt lat="44.10012" lon="7.00082">
        <ele>1577.5</ele>
        <time>2022-06-11T12:20:31Z</time>
      </trkpt>
      <trkpt lat="44.1001" lon="7.00077">
        <ele>1577.7</ele>
        <time>2022-06-11T12:20:32Z</time>
      </trkpt>
      <trkpt lat="44.10007" lon="7.00072">
        <ele>1577.9</ele>
        <time>2022-06-11T12:20:33Z</time>
      </trkpt>
      <trkpt lat="44.10004" lon="7.00066">
        <ele>1578.2</ele>
        <time>2022-06-11T12:20:34Z</time>
      </trkpt>
      <trkpt lat="44.10002" lon="7.00062">
        <ele>1578.6</ele>
        <time>2022-06-11T12:20:35Z</time>
      </trkpt>
      <trkpt lat="44.09999" lon="7.00057">
        <ele>1578.9</ele>
        <time>2022-06-11T12:20:36Z</time>
      </trkpt>
      <trkpt lat="44.09996" lon="7.00051">
        <ele>1578.9</ele>
        <time>2022-06-11T12:20:37Z</time>
      </trkpt>
      <trkpt lat="44.09993" lon="7.00046">
        <ele>1578.8</ele>
        <time>2022-06-11T12:20:38Z</time>
      </trkpt>
      <trkpt lat="44.0999" lon="7.00041">
        <ele>1578.8</ele>
        <time>2022-06-11T12:20:39Z</time>
      </trkpt>
      <trkpt lat="44.09986" lon="7.00037">
        <ele>1578.6</ele>
        <time>2022-06-11T12:20:40Z</time>
      </trkpt>
      <trkpt lat="44.09983" lon="7.00032">
        <ele>1578.6</ele>
        <time>2022-06-11T12:20:41Z</time>
      </trkpt>
      <trkpt lat="44.0998" lon="7.00027">
        <ele>1578.6</ele>
        <time>2022-06-11T12:20:42Z</time>
      </trkpt>
      <trkpt lat="44.09977" lon="7.00021">
        <ele>1578.5</ele>
        <time>2022-06-11T12:20:43Z</time>
      </trkpt>
      <trkpt lat="44.09974" lon="7.00016">
        <ele>1578</ele>
        <time>2022-06-11T12:20:44Z</time>
      </trkpt>
      <trkpt lat="44.0997" lon="7.00012">
        <ele>1577.6</ele>
        <time>2022-06-11T12:20:45Z</time>
      </trkpt>
      <trkpt lat="44.09967" lon="7.00008">
        <ele>1577.2</ele>
        <time>2022-06-11T12:20:46Z</time>
      </trkpt>
      <trkpt lat="44.09964" lon="7.00003">
        <ele>1577.3</ele>
        <time>2022-06-11T12:20:47Z</time>
      </trkpt>
      <trkpt lat="44.09961" lon="6.99998">
        <ele>1577.2</ele>
        <time>2022-06-11T12:20:48Z</time>
      </trkpt>
      <trkpt lat="44.09957" lon="6.99993">
        <ele>1577</ele>
        <time>2022-06-11T12:20:49Z</time>
      </trkpt>
      <trkpt lat="44.09954" lon="6.99987">
        <ele>1576.9</ele>
        <time>2022-06-11T12:20:50Z</time>
      </trkpt>
      <trkpt lat="44.09951" lon="6.99982">
        <ele>1576.7</ele>
        <time>2022-06-11T12:20:51Z</time>
      </trkpt>
      <trkpt lat="44.09948" lon="6.99976">
        <ele>1576.8</ele>
        <time>2022-06-11T12:20:52Z</time>
      </trkpt>
      <trkpt lat="44.09945" lon="6.99971">
        <ele>1576.6</ele>
        <time>2022-06-11T12:20:53Z</time>
      </trkpt>
      <trkpt lat="44.09942" lon="6.99965">
        <ele>1576.1</ele>
        <time>2022-06-11T12:20:54Z</time>
      </trkpt>
      <trkpt lat="44.0994" lon="6.99958">
        <ele>1575.9</ele>
        <time>2022-06-11T12:20:55Z</time>
      </trkpt>
      <trkpt lat="44.09938" lon="6.99952">
        <ele>1575.5</ele>
        <time>2022-06-11T12:20:56Z</time>
      </trkpt>
      <trkpt lat="44.09935" lon="6.99945">
        <ele>1575.3</ele>
        <time>2022-06-11T12:20:57Z</time>
      </trkpt>
      <trkpt lat="44.09933" lon="6.99937">
        <ele>1575.1</ele>
        <time>2022-06-11T12:20:58Z</time>
      </trkpt>
      <trkpt lat="44.09931" lon="6.9993">
        <ele>1575</ele>
        <time>2022-06-11T12:20:59Z</time>
      </trkpt>
      <trkpt lat="44.09928" lon="6.99922">
        <ele>1574.4</ele>
        <time>2022-06-11T12:21:00Z</time>
      </trkpt>
      <trkpt lat="44.09926" lon="6.99913">
        <ele>1573.9</ele>
        <time>2022-06-11T12:21:01Z</time>
      </trkpt>
      <trkpt lat="44.09922" lon="6.99904">
        <ele>1573</ele>
        <time>2022-06-11T12:21:02Z</time>
      </trkpt>
      <trkpt lat="44.09918" lon="6.99895">
        <ele>1572.1</ele>
        <time>2022-06-11T12:21:03Z</time>
      </trkpt>
      <trkpt lat="44.09914" lon="6.99885">
        <ele>1571.3</ele>
        <time>2022-06-11T12:21:04Z</time>
      </trkpt>
      <trkpt lat="44.0991" lon="6.99875">
        <ele>1570.6</ele>
        <time>2022-06-11T12:21:05Z</time>
      </trkpt>
      <trkpt lat="44.09905" lon="6.99865">
        <ele>1569.8</ele>
        <time>2022-06-11T12:21:06Z</time>
      </trkpt>
      <trkpt lat="44.099" lon="6.99854">
        <ele>1569.6</ele>
        <time>2022-06-11T12:21:07Z</time>
      </trkpt>
      <trkpt lat="44.09894" lon="6.99844">
        <ele>1569.2</ele>
        <time>2022-06-11T12:21:08Z</time>
      </trkpt>
      <trkpt lat="44.09886" lon="6.99834">
        <ele>1568.5</ele>
        <time>2022-06-11T12:21:09Z</time>
      </trkpt>
      <trkpt lat="44.09879" lon="6.99825">
        <ele>1567.6</ele>
        <time>2022-06-11T12:21:10Z</time>
      </trkpt>
      <trkpt lat="44.09871" lon="6.99816">
        <ele>1566.7</ele>
        <time>2022-06-11T12:21:11Z</time>
      </trkpt>
      <trkpt lat="44.09864" lon="6.99806">
        <ele>1565.9</ele>
        <time>2022-06-11T12:21:12Z</time>
      </trkpt>
      <trkpt lat="44.09856" lon="6.99797">
        <ele>1565.3</ele>
        <time>2022-06-11T12:21:13Z</time>
      </trkpt>
      <trkpt lat="44.09847" lon="6.99788">
        <ele>1564.8</ele>
        <time>2022-06-11T12:21:14Z</time>
      </trkpt>
      <trkpt lat="44.09839" lon="6.99778">
        <ele>1564.6</ele>
        <time>2022-06-11T12:21:15Z</time>
      </trkpt>
      <trkpt lat="44.0983" lon="6.99769">
        <ele>1563.1</ele>
        <time>2022-06-11T12:21:16Z</time>
      </trkpt>
      <trkpt lat="44.09821" lon="6.9976">
        <ele>1561.3</ele>
        <time>2022-06-11T12:21:17Z</time>
      </trkpt>
      <trkpt lat="44.09812" lon="6.99752">
        <ele>1559.9</ele>
        <time>2022-06-11T12:21:18Z</time>
      </trkpt>
      <trkpt lat="44.09803" lon="6.99746">
        <ele>1557.7</ele>
        <time>2022-06-11T12:21:19Z</time>
      </trkpt>
      <trkpt lat="44.09794" lon="6.99741">
        <ele>1555.2</ele>
        <time>2022-06-11T12:21:20Z</time>
      </trkpt>
      <trkpt lat="44.09785" lon="6.99735">
        <ele>1553.4</ele>
        <time>2022-06-11T12:21:21Z</time>
      </trkpt>
      <trkpt lat="44.09777" lon="6.99727">
        <ele>1553.1</ele>
        <time>2022-06-11T12:21:22Z</time>
      </trkpt>
      <trkpt lat="44.0977" lon="6.99716">
        <ele>1552.4</ele>
        <time>2022-06-11T12:21:23Z</time>
      </trkpt>
      <trkpt lat="44.09765" lon="6.99705">
        <ele>1552</ele>
        <time>2022-06-11T12:21:24Z</time>
      </trkpt>
      <trkpt lat="44.0976" lon="6.99694">
        <ele>1552.6</ele>
        <time>2022-06-11T12:21:25Z</time>
      </trkpt>
      <trkpt lat="44.09758" lon="6.99683">
        <ele>1552.2</ele>
        <time>2022-06-11T12:21:26Z</time>
      </trkpt>
      <trkpt lat="44.09758" lon="6.99671">
        <ele>1552.9</ele>
        <time>2022-06-11T12:21:27Z</time>
      </trkpt>
      <trkpt lat="44.09761" lon="6.99659">
        <ele>1552.2</ele>
        <time>2022-06-11T12:21:28Z</time>
      </trkpt>
      <trkpt lat="44.09766" lon="6.99647">
        <ele>1551</ele>
        <time>2022-06-11T12:21:29Z</time>
      </trkpt>
      <trkpt lat="44.09772" lon="6.99636">
        <ele>1550</ele>
        <time>2022-06-11T12:21:30Z</time>
      </trkpt>
      <trkpt lat="44.0978" lon="6.99627">
        <ele>1549.3</ele>
        <time>2022-06-11T12:21:31Z</time>
      </trkpt>
      <trkpt lat="44.09789" lon="6.99618">
        <ele>1549</ele>
        <time>2022-06-11T12:21:32Z</time>
      </trkpt>
      <trkpt lat="44.09799" lon="6.99611">
        <ele>1548.8</ele>
        <time>2022-06-11T12:21:33Z</time>
      </trkpt>
      <trkpt lat="44.09809" lon="6.99605">
        <ele>1549</ele>
        <time>2022-06-11T12:21:34Z</time>
      </trkpt>
      <trkpt lat="44.09819" lon="6.99598">
        <ele>1549.7</ele>
        <time>2022-06-11T12:21:35Z</time>
      </trkpt>
      <trkpt lat="44.0983" lon="6.9959">
        <ele>1550</ele>
        <time>2022-06-11T12:21:36Z</time>
      </trkpt>
      <trkpt lat="44.0984" lon="6.99579">
        <ele>1549.6</ele>
        <time>2022-06-11T12:21:37Z</time>
      </trkpt>
      <trkpt lat="44.09849" lon="6.99567">
        <ele>1548.2</ele>
        <time>2022-06-11T12:21:38Z</time>
      </trkpt>
      <trkpt lat="44.09858" lon="6.99555">
        <ele>1546.6</ele>
        <time>2022-06-11T12:21:39Z</time>
      </trkpt>
      <trkpt lat="44.09868" lon="6.99544">
        <ele>1545.2</ele>
        <time>2022-06-11T12:21:40Z</time>
      </trkpt>
      <trkpt lat="44.09879" lon="6.99537">
        <ele>1544</ele>
        <time>2022-06-11T12:21:41Z</time>
      </trkpt>
      <trkpt lat="44.09892" lon="6.99533">
        <ele>1543.5</ele>
        <time>2022-06-11T12:21:42Z</time>
      </trkpt>
      <trkpt lat="44.09904" lon="6.99533">
        <ele>1541.6</ele>
        <time>2022-06-11T12:21:43Z</time>
      </trkpt>
      <trkpt lat="44.09917" lon="6.99536">
        <ele>1540.7</ele>
        <time>2022-06-11T12:21:44Z</time>
      </trkpt>
      <trkpt lat="44.0993" lon="6.9954">
        <ele>1539.9</ele>
        <time>2022-06-11T12:21:45Z</time>
      </trkpt>
      <trkpt lat="44.09944" lon="6.99545">
        <ele>1539.4</ele>
        <time>2022-06-11T12:21:46Z</time>
      </trkpt>
      <trkpt lat="44.09957" lon="6.99551">
        <ele>1538.7</ele>
        <time>2022-06-11T12:21:47Z</time>
      </trkpt>
      <trkpt lat="44.09971" lon="6.99556">
        <ele>1537.6</ele>
        <time>2022-06-11T12:21:48Z</time>
      </trkpt>
      <trkpt lat="44.09985" lon="6.99561">
        <ele>1535.6</ele>
        <time>2022-06-11T12:21:49Z</time>
      </trkpt>
      <trkpt lat="44.09999" lon="6.99564">
        <ele>1533</ele>
        <time>2022-06-11T12:21:50Z</time>
      </trkpt>
      <trkpt lat="44.10014" lon="6.99568">
        <ele>1530</ele>
        <time>2022-06-11T12:21:51Z</time>
      </trkpt>
      <trkpt lat="44.10029" lon="6.99574">
        <ele>1527.7</ele>
        <time>2022-06-11T12:21:52Z</time>
      </trkpt>
      <trkpt lat="44.10042" lon="6.99582">
        <ele>1526</ele>
        <time>2022-06-11T12:21:53Z</time>
      </trkpt>
      <trkpt lat="44.10054" lon="6.99591">
        <ele>1525</ele>
        <time>2022-06-11T12:21:54Z</time>
      </trkpt>
      <trkpt lat="44.10067" lon="6.99601">
        <ele>1524.1</ele>
        <time>2022-06-11T12:21:55Z</time>
      </trkpt>
      <trkpt lat="44.1008" lon="6.99611">
        <ele>1523</ele>
        <time>2022-06-11T12:21:56Z</time>
      </trkpt>
      <trkpt lat="44.10094" lon="6.9962">
        <ele>1522.4</ele>
        <time>2022-06-11T12:21:57Z</time>
      </trkpt>
      <trkpt lat="44.10108" lon="6.99626">
        <ele>1521.7</ele>
        <time>2022-06-11T12:21:58Z</time>
      </trkpt>
      <trkpt lat="44.10121" lon="6.9963">
        <ele>1521.1</ele>
        <time>2022-06-11T12:21:59Z</time>
      </trkpt>
      <trkpt lat="44.10136" lon="6.99634">
        <ele>1520.3</ele>
        <time>2022-06-11T12:22:00Z</time>
      </trkpt>
      <trkpt lat="44.10149" lon="6.99636">
        <ele>1520.1</ele>
        <time>2022-06-11T12:22:01Z</time>
      </trkpt>
      <trkpt lat="44.10162" lon="6.99638">
        <ele>1519.8</ele>
        <time>2022-06-11T12:22:02Z</time>
      </trkpt>
      <trkpt lat="44.10175" lon="6.99639">
        <ele>1519.2</ele>
        <time>2022-06-11T12:22:03Z</time>
      </trkpt>
      <trkpt lat="44.10188" lon="6.99639">
        <ele>1518.5</ele>
        <time>2022-06-11T12:22:04Z</time>
      </trkpt>
      <trkpt lat="44.10201" lon="6.99638">
        <ele>1517.1</ele>
        <time>2022-06-11T12:22:05Z</time>
      </trkpt>
      <trkpt lat="44.10214" lon="6.99635">
        <ele>1515</ele>
        <time>2022-06-11T12:22:06Z</time>
      </trkpt>
      <trkpt lat="44.10225" lon="6.99631">
        <ele>1513.1</ele>
        <time>2022-06-11T12:22:07Z</time>
      </trkpt>
      <trkpt lat="44.10236" lon="6.99627">
        <ele>1511.5</ele>
        <time>2022-06-11T12:22:08Z</time>
      </trkpt>
      <trkpt lat="44.10245" lon="6.99621">
        <ele>1509.8</ele>
        <time>2022-06-11T12:22:09Z</time>
      </trkpt>
      <trkpt lat="44.10252" lon="6.99614">
        <ele>1508.3</ele>
        <time>2022-06-11T12:22:10Z</time>
      </trkpt>
      <trkpt lat="44.10257" lon="6.99605">
        <ele>1508</ele>
        <time>2022-06-11T12:22:11Z</time>
      </trkpt>
      <trkpt lat="44.10259" lon="6.99593">
        <ele>1508</ele>
        <time>2022-06-11T12:22:12Z</time>
      </trkpt>
      <trkpt lat="44.10258" lon="6.99581">
        <ele>1507.9</ele>
        <time>2022-06-11T12:22:13Z</time>
      </trkpt>
      <trkpt lat="44.10254" lon="6.9957">
        <ele>1509</ele>
        <time>2022-06-11T12:22:14Z</time>
      </trkpt>
      <trkpt lat="44.10247" lon="6.99561">
        <ele>1508.8</ele>
        <time>2022-06-11T12:22:15Z</time>
      </trkpt>
      <trkpt lat="44.1024" lon="6.99552">
        <ele>1507.8</ele>
        <time>2022-06-11T12:22:16Z</time>
      </trkpt>
      <trkpt lat="44.10233" lon="6.99542">
        <ele>1506.7</ele>
        <time>2022-06-11T12:22:17Z</time>
      </trkpt>
      <trkpt lat="44.10227" lon="6.99532">
        <ele>1505.5</ele>
        <time>2022-06-11T12:22:18Z</time>
      </trkpt>
      <trkpt lat="44.1022" lon="6.9952">
        <ele>1504.3</ele>
        <time>2022-06-11T12:22:19Z</time>
      </trkpt>
      <trkpt lat="44.10214" lon="6.99508">
        <ele>1503.1</ele>
        <time>2022-06-11T12:22:20Z</time>
      </trkpt>
      <trkpt lat="44.10208" lon="6.99495">
        <ele>1501.6</ele>
        <time>2022-06-11T12:22:21Z</time>
      </trkpt>
      <trkpt lat="44.10202" lon="6.99484">
        <ele>1499.9</ele>
        <time>2022-06-11T12:22:22Z</time>
      </trkpt>
      <trkpt lat="44.10197" lon="6.99472">
        <ele>1499.1</ele>
        <time>2022-06-11T12:22:23Z</time>
      </trkpt>
      <trkpt lat="44.10195" lon="6.9946">
        <ele>1497.8</ele>
        <time>2022-06-11T12:22:24Z</time>
      </trkpt>
      <trkpt lat="44.10196" lon="6.99447">
        <ele>1497.5</ele>
        <time>2022-06-11T12:22:25Z</time>
      </trkpt>
      <trkpt lat="44.10197" lon="6.99433">
        <ele>1497.2</ele>
        <time>2022-06-11T12:22:26Z</time>
      </trkpt>
      <trkpt lat="44.10198" lon="6.99418">
        <ele>1496.6</ele>
        <time>2022-06-11T12:22:27Z</time>
      </trkpt>
      <trkpt lat="44.10199" lon="6.99403">
        <ele>1495.2</ele>
        <time>2022-06-11T12:22:28Z</time>
      </trkpt>
      <trkpt lat="44.10199" lon="6.99387">
        <ele>1493.6</ele>
        <time>2022-06-11T12:22:29Z</time>
      </trkpt>
      <trkpt lat="44.10198" lon="6.99371">
        <ele>1493.2</ele>
        <time>2022-06-11T12:22:30Z</time>
      </trkpt>
      <trkpt lat="44.10196" lon="6.99355">
        <ele>1492.6</ele>
        <time>2022-06-11T12:22:31Z</time>
      </trkpt>
      <trkpt lat="44.10192" lon="6.99341">
        <ele>1492.1</ele>
        <time>2022-06-11T12:22:32Z</time>
      </trkpt>
      <trkpt lat="44.10186" lon="6.99328">
        <ele>1491.4</ele>
        <time>2022-06-11T12:22:33Z</time>
      </trkpt>
      <trkpt lat="44.10178" lon="6.99319">
        <ele>1490.2</ele>
        <time>2022-06-11T12:22:34Z</time>
      </trkpt>
      <trkpt lat="44.10167" lon="6.99313">
        <ele>1488.6</ele>
        <time>2022-06-11T12:22:35Z</time>
      </trkpt>
      <trkpt lat="44.10158" lon="6.99312">
        <ele>1488.2</ele>
        <time>2022-06-11T12:22:36Z</time>
      </trkpt>
      <trkpt lat="44.10148" lon="6.99315">
        <ele>1487.7</ele>
        <time>2022-06-11T12:22:37Z</time>
      </trkpt>
      <trkpt lat="44.10139" lon="6.9932">
        <ele>1487</ele>
        <time>2022-06-11T12:22:38Z</time>
      </trkpt>
      <trkpt lat="44.1013" lon="6.99327">
        <ele>1486.5</ele>
        <time>2022-06-11T12:22:39Z</time>
      </trkpt>
      <trkpt lat="44.10122" lon="6.99333">
        <ele>1486</ele>
        <time>2022-06-11T12:22:40Z</time>
      </trkpt>
      <trkpt lat="44.10113" lon="6.99337">
        <ele>1485.6</ele>
        <time>2022-06-11T12:22:41Z</time>
      </trkpt>
      <trkpt lat="44.10105" lon="6.99338">
        <ele>1484.3</ele>
        <time>2022-06-11T12:22:42Z</time>
      </trkpt>
      <trkpt lat="44.10096" lon="6.99335">
        <ele>1483.1</ele>
        <time>2022-06-11T12:22:43Z</time>
      </trkpt>
      <trkpt lat="44.1009" lon="6.99328">
        <ele>1482.7</ele>
        <time>2022-06-11T12:22:44Z</time>
      </trkpt>
      <trkpt lat="44.10085" lon="6.99318">
        <ele>1482.8</ele>
        <time>2022-06-11T12:22:45Z</time>
      </trkpt>
      <trkpt lat="44.10081" lon="6.99307">
        <ele>1483</ele>
        <time>2022-06-11T12:22:46Z</time>
      </trkpt>
      <trkpt lat="44.1008" lon="6.99296">
        <ele>1483</ele>
        <time>2022-06-11T12:22:47Z</time>
      </trkpt>
      <trkpt lat="44.1008" lon="6.99283">
        <ele>1483.6</ele>
        <time>2022-06-11T12:22:48Z</time>
      </trkpt>
      <trkpt lat="44.10084" lon="6.99272">
        <ele>1484.4</ele>
        <time>2022-06-11T12:22:49Z</time>
      </trkpt>
      <trkpt lat="44.10089" lon="6.99262">
        <ele>1484</ele>
        <time>2022-06-11T12:22:50Z</time>
      </trkpt>
      <trkpt lat="44.10096" lon="6.99254">
        <ele>1483.8</ele>
        <time>2022-06-11T12:22:51Z</time>
      </trkpt>
      <trkpt lat="44.10103" lon="6.99248">
        <ele>1483.7</ele>
        <time>2022-06-11T12:22:52Z</time>
      </trkpt>
      <trkpt lat="44.10111" lon="6.99241">
        <ele>1483.1</ele>
        <time>2022-06-11T12:22:53Z</time>
      </trkpt>
      <trkpt lat="44.1012" lon="6.99234">
        <ele>1482</ele>
        <time>2022-06-11T12:22:54Z</time>
      </trkpt>
      <trkpt lat="44.10128" lon="6.99227">
        <ele>1481.1</ele>
        <time>2022-06-11T12:22:55Z</time>
      </trkpt>
      <trkpt lat="44.10137" lon="6.99219">
        <ele>1480.2</ele>
        <time>2022-06-11T12:22:56Z</time>
      </trkpt>
      <trkpt lat="44.10146" lon="6.99211">
        <ele>1479.7</ele>
        <time>2022-06-11T12:22:57Z</time>
      </trkpt>
      <trkpt lat="44.10156" lon="6.99203">
        <ele>1479.2</ele>
        <time>2022-06-11T12:22:58Z</time>
      </trkpt>
      <trkpt lat="44.10165" lon="6.99193">
        <ele>1478.4</ele>
        <time>2022-06-11T12:22:59Z</time>
      </trkpt>
      <trkpt lat="44.10173" lon="6.99182">
        <ele>1477.8</ele>
        <time>2022-06-11T12:23:00Z</time>
      </trkpt>
      <trkpt lat="44.10182" lon="6.99171">
        <ele>1477.3</ele>
        <time>2022-06-11T12:23:01Z</time>
      </trkpt>
      <trkpt lat="44.10191" lon="6.99159">
        <ele>1476.1</ele>
        <time>2022-06-11T12:23:02Z</time>
      </trkpt>
      <trkpt lat="44.10199" lon="6.99146">
        <ele>1474.9</ele>
        <time>2022-06-11T12:23:03Z</time>
      </trkpt>
      <trkpt lat="44.10207" lon="6.99132">
        <ele>1474</ele>
        <time>2022-06-11T12:23:04Z</time>
      </trkpt>
      <trkpt lat="44.10216" lon="6.99119">
        <ele>1472.9</ele>
        <time>2022-06-11T12:23:05Z</time>
      </trkpt>
      <trkpt lat="44.10224" lon="6.99104">
        <ele>1471.7</ele>
        <time>2022-06-11T12:23:06Z</time>
      </trkpt>
      <trkpt lat="44.10232" lon="6.99089">
        <ele>1470.5</ele>
        <time>2022-06-11T12:23:07Z</time>
      </trkpt>
      <trkpt lat="44.1024" lon="6.99074">
        <ele>1469.1</ele>
        <time>2022-06-11T12:23:08Z</time>
      </trkpt>
      <trkpt lat="44.10248" lon="6.99059">
        <ele>1467.3</ele>
        <time>2022-06-11T12:23:09Z</time>
      </trkpt>
      <trkpt lat="44.10257" lon="6.99044">
        <ele>1466</ele>
        <time>2022-06-11T12:23:10Z</time>
      </trkpt>
      <trkpt lat="44.10266" lon="6.99028">
        <ele>1464.6</ele>
        <time>2022-06-11T12:23:11Z</time>
      </trkpt>
      <trkpt lat="44.10275" lon="6.99012">
        <ele>1463.3</ele>
        <time>2022-06-11T12:23:12Z</time>
      </trkpt>
      <trkpt lat="44.10284" lon="6.98996">
        <ele>1461.4</ele>
        <time>2022-06-11T12:23:13Z</time>
      </trkpt>
      <trkpt lat="44.10293" lon="6.98979">
        <ele>1460.1</ele>
        <time>2022-06-11T12:23:14Z</time>
      </trkpt>
      <trkpt lat="44.10301" lon="6.98964">
        <ele>1459.6</ele>
        <time>2022-06-11T12:23:15Z</time>
      </trkpt>
      <trkpt lat="44.10309" lon="6.98947">
        <ele>1459.3</ele>
        <time>2022-06-11T12:23:16Z</time>
      </trkpt>
      <trkpt lat="44.10317" lon="6.98931">
        <ele>1459.2</ele>
        <time>2022-06-11T12:23:17Z</time>
      </trkpt>
      <trkpt lat="44.10324" lon="6.98914">
        <ele>1458.8</ele>
        <time>2022-06-11T12:23:18Z</time>
      </trkpt>
      <trkpt lat="44.10331" lon="6.98898">
        <ele>1458</ele>
        <time>2022-06-11T12:23:19Z</time>
      </trkpt>
      <trkpt lat="44.10338" lon="6.98882">
        <ele>1457.2</ele>
        <time>2022-06-11T12:23:20Z</time>
      </trkpt>
      <trkpt lat="44.10344" lon="6.98867">
        <ele>1456.7</ele>
        <time>2022-06-11T12:23:21Z</time>
      </trkpt>
      <trkpt lat="44.10351" lon="6.98852">
        <ele>1455.7</ele>
        <time>2022-06-11T12:23:22Z</time>
      </trkpt>
      <trkpt lat="44.10358" lon="6.98839">
        <ele>1454.4</ele>
        <time>2022-06-11T12:23:23Z</time>
      </trkpt>
      <trkpt lat="44.10365" lon="6.98826">
        <ele>1452.9</ele>
        <time>2022-06-11T12:23:24Z</time>
      </trkpt>
      <trkpt lat="44.10372" lon="6.98813">
        <ele>1451</ele>
        <time>2022-06-11T12:23:25Z</time>
      </trkpt>
      <trkpt lat="44.1038" lon="6.98802">
        <ele>1448.9</ele>
        <time>2022-06-11T12:23:26Z</time>
      </trkpt>
      <trkpt lat="44.10389" lon="6.98794">
        <ele>1446.7</ele>
        <time>2022-06-11T12:23:27Z</time>
      </trkpt>
      <trkpt lat="44.104" lon="6.98787">
        <ele>1444.4</ele>
        <time>2022-06-11T12:23:28Z</time>
      </trkpt>
      <trkpt lat="44.10412" lon="6.98782">
        <ele>1442.6</ele>
        <time>2022-06-11T12:23:29Z</time>
      </trkpt>
      <trkpt lat="44.10424" lon="6.9878">
        <ele>1442</ele>
        <time>2022-06-11T12:23:30Z</time>
      </trkpt>
      <trkpt lat="44.10436" lon="6.98779">
        <ele>1442.3</ele>
        <time>2022-06-11T12:23:31Z</time>
      </trkpt>
      <trkpt lat="44.10447" lon="6.98778">
        <ele>1442.4</ele>
        <time>2022-06-11T12:23:32Z</time>
      </trkpt>
      <trkpt lat="44.10458" lon="6.98776">
        <ele>1442.6</ele>
        <time>2022-06-11T12:23:33Z</time>
      </trkpt>
      <trkpt lat="44.10467" lon="6.98774">
        <ele>1442.6</ele>
        <time>2022-06-11T12:23:34Z</time>
      </trkpt>
      <trkpt lat="44.10477" lon="6.9877">
        <ele>1442.3</ele>
        <time>2022-06-11T12:23:35Z</time>
      </trkpt>
      <trkpt lat="44.10485" lon="6.98764">
        <ele>1441.5</ele>
        <time>2022-06-11T12:23:36Z</time>
      </trkpt>
      <trkpt lat="44.10491" lon="6.98756">
        <ele>1440.2</ele>
        <time>2022-06-11T12:23:37Z</time>
      </trkpt>
      <trkpt lat="44.10496" lon="6.98745">
        <ele>1439.4</ele>
        <time>2022-06-11T12:23:38Z</time>
      </trkpt>
      <trkpt lat="44.10499" lon="6.98734">
        <ele>1439.2</ele>
        <time>2022-06-11T12:23:39Z</time>
      </trkpt>
      <trkpt lat="44.105" lon="6.98722">
        <ele>1439</ele>
        <time>2022-06-11T12:23:40Z</time>
      </trkpt>
      <trkpt lat="44.105" lon="6.98711">
        <ele>1439.4</ele>
        <time>2022-06-11T12:23:41Z</time>
      </trkpt>
      <trkpt lat="44.105" lon="6.987">
        <ele>1439.8</ele>
        <time>2022-06-11T12:23:42Z</time>
      </trkpt>
      <trkpt lat="44.10497" lon="6.9869">
        <ele>1440</ele>
        <time>2022-06-11T12:23:43Z</time>
      </trkpt>
      <trkpt lat="44.10492" lon="6.98682">
        <ele>1439.9</ele>
        <time>2022-06-11T12:23:44Z</time>
      </trkpt>
      <trkpt lat="44.10485" lon="6.98675">
        <ele>1439.3</ele>
        <time>2022-06-11T12:23:45Z</time>
      </trkpt>
      <trkpt lat="44.10477" lon="6.9867">
        <ele>1438.5</ele>
        <time>2022-06-11T12:23:46Z</time>
      </trkpt>
      <trkpt lat="44.10469" lon="6.98666">
        <ele>1437.8</ele>
        <time>2022-06-11T12:23:47Z</time>
      </trkpt>
      <trkpt lat="44.1046" lon="6.98663">
        <ele>1437.1</ele>
        <time>2022-06-11T12:23:48Z</time>
      </trkpt>
      <trkpt lat="44.10451" lon="6.9866">
        <ele>1436.5</ele>
        <time>2022-06-11T12:23:49Z</time>
      </trkpt>
      <trkpt lat="44.10442" lon="6.98657">
        <ele>1435.8</ele>
        <time>2022-06-11T12:23:50Z</time>
      </trkpt>
      <trkpt lat="44.10433" lon="6.98654">
        <ele>1434.9</ele>
        <time>2022-06-11T12:23:51Z</time>
      </trkpt>
      <trkpt lat="44.10423" lon="6.98651">
        <ele>1434.1</ele>
        <time>2022-06-11T12:23:52Z</time>
      </trkpt>
      <trkpt lat="44.10414" lon="6.98649">
        <ele>1433.3</ele>
        <time>2022-06-11T12:23:53Z</time>
      </trkpt>
      <trkpt lat="44.10404" lon="6.98647">
        <ele>1432.3</ele>
        <time>2022-06-11T12:23:54Z</time>
      </trkpt>
      <trkpt lat="44.10394" lon="6.98645">
        <ele>1431.3</ele>
        <time>2022-06-11T12:23:55Z</time>
      </trkpt>
      <trkpt lat="44.10383" lon="6.98644">
        <ele>1430.6</ele>
        <time>2022-06-11T12:23:56Z</time>
      </trkpt>
      <trkpt lat="44.10373" lon="6.98642">
        <ele>1430.2</ele>
        <time>2022-06-11T12:23:57Z</time>
      </trkpt>
      <trkpt lat="44.10363" lon="6.98641">
        <ele>1429.9</ele>
        <time>2022-06-11T12:23:58Z</time>
      </trkpt>
      <trkpt lat="44.10353" lon="6.98641">
        <ele>1429.6</ele>
        <time>2022-06-11T12:23:59Z</time>
      </trkpt>
      <trkpt lat="44.10342" lon="6.98641">
        <ele>1429.2</ele>
        <time>2022-06-11T12:24:00Z</time>
      </trkpt>
      <trkpt lat="44.10332" lon="6.98641">
        <ele>1428.7</ele>
        <time>2022-06-11T12:24:01Z</time>
      </trkpt>
      <trkpt lat="44.10322" lon="6.98641">
        <ele>1428.3</ele>
        <time>2022-06-11T12:24:02Z</time>
      </trkpt>
      <trkpt lat="44.10312" lon="6.98642">
        <ele>1427.9</ele>
        <time>2022-06-11T12:24:03Z</time>
      </trkpt>
      <trkpt lat="44.10302" lon="6.98642">
        <ele>1427.5</ele>
        <time>2022-06-11T12:24:04Z</time>
      </trkpt>
      <trkpt lat="44.10291" lon="6.98642">
        <ele>1427.1</ele>
        <time>2022-06-11T12:24:05Z</time>
      </trkpt>
      <trkpt lat="44.10281" lon="6.98643">
        <ele>1426.6</ele>
        <time>2022-06-11T12:24:06Z</time>
      </trkpt>
      <trkpt lat="44.10271" lon="6.98644">
        <ele>1426</ele>
        <time>2022-06-11T12:24:07Z</time>
      </trkpt>
      <trkpt lat="44.10261" lon="6.98646">
        <ele>1425.4</ele>
        <time>2022-06-11T12:24:08Z</time>
      </trkpt>
      <trkpt lat="44.1025" lon="6.98648">
        <ele>1424.7</ele>
        <time>2022-06-11T12:24:09Z</time>
      </trkpt>
      <trkpt lat="44.1024" lon="6.9865">
        <ele>1423.8</ele>
        <time>2022-06-11T12:24:10Z</time>
      </trkpt>
      <trkpt lat="44.1023" lon="6.98654">
        <ele>1422.8</ele>
        <time>2022-06-11T12:24:11Z</time>
      </trkpt>
      <trkpt lat="44.1022" lon="6.98657">
        <ele>1421.7</ele>
        <time>2022-06-11T12:24:12Z</time>
      </trkpt>
      <trkpt lat="44.1021" lon="6.9866">
        <ele>1420.9</ele>
        <time>2022-06-11T12:24:13Z</time>
      </trkpt>
      <trkpt lat="44.10199" lon="6.98663">
        <ele>1420</ele>
        <time>2022-06-11T12:24:14Z</time>
      </trkpt>
      <trkpt lat="44.10189" lon="6.98665">
        <ele>1419.2</ele>
        <time>2022-06-11T12:24:15Z</time>
      </trkpt>
      <trkpt lat="44.10179" lon="6.98668">
        <ele>1418.3</ele>
        <time>2022-06-11T12:24:16Z</time>
      </trkpt>
      <trkpt lat="44.10168" lon="6.98672">
        <ele>1417.4</ele>
        <time>2022-06-11T12:24:17Z</time>
      </trkpt>
      <trkpt lat="44.10158" lon="6.98675">
        <ele>1417.3</ele>
        <time>2022-06-11T12:24:18Z</time>
      </trkpt>
      <trkpt lat="44.10148" lon="6.98678">
        <ele>1417.1</ele>
        <time>2022-06-11T12:24:19Z</time>
      </trkpt>
      <trkpt lat="44.10138" lon="6.98683">
        <ele>1416.6</ele>
        <time>2022-06-11T12:24:20Z</time>
      </trkpt>
      <trkpt lat="44.10128" lon="6.98688">
        <ele>1416</ele>
        <time>2022-06-11T12:24:21Z</time>
      </trkpt>
      <trkpt lat="44.10118" lon="6.98693">
        <ele>1415.1</ele>
        <time>2022-06-11T12:24:22Z</time>
      </trkpt>
      <trkpt lat="44.10109" lon="6.98699">
        <ele>1414.6</ele>
        <time>2022-06-11T12:24:23Z</time>
      </trkpt>
      <trkpt lat="44.10099" lon="6.98704">
        <ele>1414.5</ele>
        <time>2022-06-11T12:24:24Z</time>
      </trkpt>
      <trkpt lat="44.1009" lon="6.98709">
        <ele>1414</ele>
        <time>2022-06-11T12:24:25Z</time>
      </trkpt>
      <trkpt lat="44.1008" lon="6.98714">
        <ele>1413.3</ele>
        <time>2022-06-11T12:24:26Z</time>
      </trkpt>
      <trkpt lat="44.10071" lon="6.98719">
        <ele>1412.7</ele>
        <time>2022-06-11T12:24:27Z</time>
      </trkpt>
      <trkpt lat="44.10062" lon="6.98724">
        <ele>1412.4</ele>
        <time>2022-06-11T12:24:28Z</time>
      </trkpt>
      <trkpt lat="44.10053" lon="6.98726">
        <ele>1412.7</ele>
        <time>2022-06-11T12:24:29Z</time>
      </trkpt>
      <trkpt lat="44.10045" lon="6.98729">
        <ele>1413.1</ele>
        <time>2022-06-11T12:24:30Z</time>
      </trkpt>
      <trkpt lat="44.10037" lon="6.9873">
        <ele>1413.6</ele>
        <time>2022-06-11T12:24:31Z</time>
      </trkpt>
      <trkpt lat="44.1003" lon="6.98731">
        <ele>1414</ele>
        <time>2022-06-11T12:24:32Z</time>
      </trkpt>
      <trkpt lat="44.10024" lon="6.98732">
        <ele>1414.4</ele>
        <time>2022-06-11T12:24:33Z</time>
      </trkpt>
      <trkpt lat="44.1002" lon="6.98735">
        <ele>1414.4</ele>
        <time>2022-06-11T12:24:34Z</time>
      </trkpt>
      <trkpt lat="44.10018" lon="6.98738">
        <ele>1413.9</ele>
        <time>2022-06-11T12:24:35Z</time>
      </trkpt>
      <trkpt lat="44.10017" lon="6.9874">
        <ele>1413.6</ele>
        <time>2022-06-11T12:24:36Z</time>
      </trkpt>
      <trkpt lat="44.10016" lon="6.98741">
        <ele>1413.5</ele>
        <time>2022-06-11T12:24:37Z</time>
      </trkpt>
      <trkpt lat="44.10016" lon="6.98741">
        <ele>1413.6</ele>
        <time>2022-06-11T12:24:38Z</time>
      </trkpt>
      <trkpt lat="44.10015" lon="6.9874">
        <ele>1414</ele>
        <time>2022-06-11T12:24:39Z</time>
      </trkpt>
      <trkpt lat="44.10014" lon="6.98737">
        <ele>1414.5</ele>
        <time>2022-06-11T12:24:40Z</time>
      </trkpt>
      <trkpt lat="44.10013" lon="6.98734">
        <ele>1415.2</ele>
        <time>2022-06-11T12:24:41Z</time>
      </trkpt>
      <trkpt lat="44.10011" lon="6.98731">
        <ele>1416.1</ele>
        <time>2022-06-11T12:24:42Z</time>
      </trkpt>
      <trkpt lat="44.10009" lon="6.98729">
        <ele>1416.8</ele>
        <time>2022-06-11T12:24:43Z</time>
      </trkpt>
      <trkpt lat="44.10006" lon="6.98728">
        <ele>1417.3</ele>
        <time>2022-06-11T12:24:44Z</time>
      </trkpt>
      <trkpt lat="44.10003" lon="6.98728">
        <ele>1417.7</ele>
        <time>2022-06-11T12:24:45Z</time>
      </trkpt>
      <trkpt lat="44.1" lon="6.98728">
        <ele>1418.1</ele>
        <time>2022-06-11T12:24:46Z</time>
      </trkpt>
      <trkpt lat="44.09997" lon="6.98727">
        <ele>1418.2</ele>
        <time>2022-06-11T12:24:47Z</time>
      </trkpt>
      <trkpt lat="44.09994" lon="6.98726">
        <ele>1418.4</ele>
        <time>2022-06-11T12:24:48Z</time>
      </trkpt>
      <trkpt lat="44.0999" lon="6.98725">
        <ele>1418.5</ele>
        <time>2022-06-11T12:24:49Z</time>
      </trkpt>
      <trkpt lat="44.09987" lon="6.98724">
        <ele>1418.8</ele>
        <time>2022-06-11T12:24:50Z</time>
      </trkpt>
      <trkpt lat="44.09983" lon="6.98723">
        <ele>1419</ele>
        <time>2022-06-11T12:24:51Z</time>
      </trkpt>
      <trkpt lat="44.09979" lon="6.98722">
        <ele>1419.1</ele>
        <time>2022-06-11T12:24:52Z</time>
      </trkpt>
      <trkpt lat="44.09976" lon="6.98721">
        <ele>1419.2</ele>
        <time>2022-06-11T12:24:53Z</time>
      </trkpt>
      <trkpt lat="44.09972" lon="6.9872">
        <ele>1419.4</ele>
        <time>2022-06-11T12:24:54Z</time>
      </trkpt>
      <trkpt lat="44.09968" lon="6.98719">
        <ele>1419.6</ele>
        <time>2022-06-11T12:24:55Z</time>
      </trkpt>
      <trkpt lat="44.09964" lon="6.98719">
        <ele>1419.8</ele>
        <time>2022-06-11T12:24:56Z</time>
      </trkpt>
      <trkpt lat="44.09961" lon="6.98718">
        <ele>1420</ele>
        <time>2022-06-11T12:24:57Z</time>
      </trkpt>
      <trkpt lat="44.09957" lon="6.98717">
        <ele>1420.2</ele>
        <time>2022-06-11T12:24:58Z</time>
      </trkpt>
      <trkpt lat="44.09954" lon="6.98717">
        <ele>1420.4</ele>
        <time>2022-06-11T12:24:59Z</time>
      </trkpt>
      <trkpt lat="44.0995" lon="6.98716">
        <ele>1420.7</ele>
        <time>2022-06-11T12:25:00Z</time>
      </trkpt>
      <trkpt lat="44.09947" lon="6.98715">
        <ele>1420.9</ele>
        <time>2022-06-11T12:25:01Z</time>
      </trkpt>
      <trkpt lat="44.09944" lon="6.98714">
        <ele>1421.2</ele>
        <time>2022-06-11T12:25:02Z</time>
      </trkpt>
      <trkpt lat="44.09941" lon="6.98714">
        <ele>1421.3</ele>
        <time>2022-06-11T12:25:03Z</time>
      </trkpt>
      <trkpt lat="44.09937" lon="6.98714">
        <ele>1421.3</ele>
        <time>2022-06-11T12:25:04Z</time>
      </trkpt>
      <trkpt lat="44.09934" lon="6.98714">
        <ele>1421.4</ele>
        <time>2022-06-11T12:25:05Z</time>
      </trkpt>
      <trkpt lat="44.09931" lon="6.98714">
        <ele>1421.4</ele>
        <time>2022-06-11T12:25:06Z</time>
      </trkpt>
      <trkpt lat="44.09928" lon="6.98714">
        <ele>1421.4</ele>
        <time>2022-06-11T12:25:07Z</time>
      </trkpt>
      <trkpt lat="44.09924" lon="6.98714">
        <ele>1421.5</ele>
        <time>2022-06-11T12:25:08Z</time>
      </trkpt>
      <trkpt lat="44.09921" lon="6.98714">
        <ele>1421.5</ele>
        <time>2022-06-11T12:25:09Z</time>
      </trkpt>
      <trkpt lat="44.09918" lon="6.98714">
        <ele>1421.6</ele>
        <time>2022-06-11T12:25:10Z</time>
      </trkpt>
      <trkpt lat="44.09915" lon="6.98714">
        <ele>1421.6</ele>
        <time>2022-06-11T12:25:11Z</time>
      </trkpt>
      <trkpt lat="44.09912" lon="6.98714">
        <ele>1421.7</ele>
        <time>2022-06-11T12:25:12Z</time>
      </trkpt>
      <trkpt lat="44.09909" lon="6.98714">
        <ele>1421.8</ele>
        <time>2022-06-11T12:25:13Z</time>
      </trkpt>
      <trkpt lat="44.09906" lon="6.98714">
        <ele>1421.8</ele>
        <time>2022-06-11T12:25:14Z</time>
      </trkpt>
      <trkpt lat="44.09903" lon="6.98714">
        <ele>1422</ele>
        <time>2022-06-11T12:25:15Z</time>
      </trkpt>
      <trkpt lat="44.09901" lon="6.98714">
        <ele>1422.1</ele>
        <time>2022-06-11T12:25:16Z</time>
      </trkpt>
      <trkpt lat="44.09898" lon="6.98714">
        <ele>1422.2</ele>
        <time>2022-06-11T12:25:17Z</time>
      </trkpt>
      <trkpt lat="44.09895" lon="6.98714">
        <ele>1422.3</ele>
        <time>2022-06-11T12:25:18Z</time>
      </trkpt>
      <trkpt lat="44.09892" lon="6.98714">
        <ele>1422.4</ele>
        <time>2022-06-11T12:25:19Z</time>
      </trkpt>
      <trkpt lat="44.09889" lon="6.98714">
        <ele>1422.5</ele>
        <time>2022-06-11T12:25:20Z</time>
      </trkpt>
      <trkpt lat="44.09886" lon="6.98714">
        <ele>1422.6</ele>
        <time>2022-06-11T12:25:21Z</time>
      </trkpt>
      <trkpt lat="44.09883" lon="6.98714">
        <ele>1422.8</ele>
        <time>2022-06-11T12:25:22Z</time>
      </trkpt>
      <trkpt lat="44.0988" lon="6.98714">
        <ele>1423</ele>
        <time>2022-06-11T12:25:23Z</time>
      </trkpt>
      <trkpt lat="44.09877" lon="6.98714">
        <ele>1423.1</ele>
        <time>2022-06-11T12:25:24Z</time>
      </trkpt>
      <trkpt lat="44.09874" lon="6.98714">
        <ele>1423.2</ele>
        <time>2022-06-11T12:25:25Z</time>
      </trkpt>
      <trkpt lat="44.0987" lon="6.98714">
        <ele>1423.3</ele>
        <time>2022-06-11T12:25:26Z</time>
      </trkpt>
      <trkpt lat="44.09867" lon="6.98714">
        <ele>1423.5</ele>
        <time>2022-06-11T12:25:27Z</time>
      </trkpt>
      <trkpt lat="44.09864" lon="6.98714">
        <ele>1423.6</ele>
        <time>2022-06-11T12:25:28Z</time>
      </trkpt>
      <trkpt lat="44.09862" lon="6.98714">
        <ele>1423.7</ele>
        <time>2022-06-11T12:25:29Z</time>
      </trkpt>
      <trkpt lat="44.09862" lon="6.98713">
        <ele>1423.9</ele>
        <time>2022-06-11T12:25:30Z</time>
      </trkpt>
      <trkpt lat="44.09863" lon="6.98713">
        <ele>1424</ele>
        <time>2022-06-11T12:25:31Z</time>
      </trkpt>
      <trkpt lat="44.09864" lon="6.98712">
        <ele>1424.1</ele>
        <time>2022-06-11T12:25:32Z</time>
      </trkpt>
      <trkpt lat="44.09866" lon="6.98712">
        <ele>1424.1</ele>
        <time>2022-06-11T12:25:33Z</time>
      </trkpt>
      <trkpt lat="44.09868" lon="6.98711">
        <ele>1424.1</ele>
        <time>2022-06-11T12:25:34Z</time>
      </trkpt>
      <trkpt lat="44.09868" lon="6.98711">
        <ele>1424.1</ele>
        <time>2022-06-11T12:25:35Z</time>
      </trkpt>
      <trkpt lat="44.09868" lon="6.98711">
        <ele>1424.1</ele>
        <time>2022-06-11T12:25:36Z</time>
      </trkpt>
      <trkpt lat="44.09868" lon="6.98714">
        <ele>1423.5</ele>
        <time>2022-06-11T12:25:54Z</time>
      </trkpt>
      <trkpt lat="44.09866" lon="6.98715">
        <ele>1423.5</ele>
        <time>2022-06-11T12:25:55Z</time>
      </trkpt>
      <trkpt lat="44.09864" lon="6.98714">
        <ele>1423.7</ele>
        <time>2022-06-11T12:25:56Z</time>
      </trkpt>
      <trkpt lat="44.09862" lon="6.98712">
        <ele>1424.1</ele>
        <time>2022-06-11T12:25:57Z</time>
      </trkpt>
      <trkpt lat="44.0986" lon="6.98712">
        <ele>1424.3</ele>
        <time>2022-06-11T12:25:58Z</time>
      </trkpt>
      <trkpt lat="44.09857" lon="6.98712">
        <ele>1424.5</ele>
        <time>2022-06-11T12:25:59Z</time>
      </trkpt>
      <trkpt lat="44.09853" lon="6.98713">
        <ele>1424.7</ele>
        <time>2022-06-11T12:26:00Z</time>
      </trkpt>
      <trkpt lat="44.0985" lon="6.98713">
        <ele>1424.9</ele>
        <time>2022-06-11T12:26:01Z</time>
      </trkpt>
      <trkpt lat="44.09846" lon="6.98713">
        <ele>1425.1</ele>
        <time>2022-06-11T12:26:02Z</time>
      </trkpt>
      <trkpt lat="44.09843" lon="6.98713">
        <ele>1425.3</ele>
        <time>2022-06-11T12:26:03Z</time>
      </trkpt>
      <trkpt lat="44.09839" lon="6.98713">
        <ele>1425.6</ele>
        <time>2022-06-11T12:26:04Z</time>
      </trkpt>
      <trkpt lat="44.09836" lon="6.98713">
        <ele>1425.8</ele>
        <time>2022-06-11T12:26:05Z</time>
      </trkpt>
      <trkpt lat="44.09832" lon="6.98713">
        <ele>1426</ele>
        <time>2022-06-11T12:26:06Z</time>
      </trkpt>
      <trkpt lat="44.09829" lon="6.98713">
        <ele>1426.2</ele>
        <time>2022-06-11T12:26:07Z</time>
      </trkpt>
      <trkpt lat="44.09825" lon="6.98713">
        <ele>1426.4</ele>
        <time>2022-06-11T12:26:08Z</time>
      </trkpt>
      <trkpt lat="44.09822" lon="6.98713">
        <ele>1426.5</ele>
        <time>2022-06-11T12:26:09Z</time>
      </trkpt>
      <trkpt lat="44.09819" lon="6.98713">
        <ele>1426.6</ele>
        <time>2022-06-11T12:26:10Z</time>
      </trkpt>
      <trkpt lat="44.09815" lon="6.98713">
        <ele>1426.7</ele>
        <time>2022-06-11T12:26:11Z</time>
      </trkpt>
      <trkpt lat="44.09812" lon="6.98713">
        <ele>1426.8</ele>
        <time>2022-06-11T12:26:12Z</time>
      </trkpt>
      <trkpt lat="44.09808" lon="6.98713">
        <ele>1427</ele>
        <time>2022-06-11T12:26:13Z</time>
      </trkpt>
      <trkpt lat="44.09805" lon="6.98712">
        <ele>1427.3</ele>
        <time>2022-06-11T12:26:14Z</time>
      </trkpt>
      <trkpt lat="44.09802" lon="6.98711">
        <ele>1427.6</ele>
        <time>2022-06-11T12:26:15Z</time>
      </trkpt>
      <trkpt lat="44.09798" lon="6.98709">
        <ele>1427.9</ele>
        <time>2022-06-11T12:26:16Z</time>
      </trkpt>
      <trkpt lat="44.09795" lon="6.98708">
        <ele>1428.3</ele>
        <time>2022-06-11T12:26:17Z</time>
      </trkpt>
      <trkpt lat="44.09792" lon="6.98707">
        <ele>1428.5</ele>
        <time>2022-06-11T12:26:18Z</time>
      </trkpt>
      <trkpt lat="44.09789" lon="6.98706">
        <ele>1428.8</ele>
        <time>2022-06-11T12:26:19Z</time>
      </trkpt>
      <trkpt lat="44.09786" lon="6.98705">
        <ele>1429</ele>
        <time>2022-06-11T12:26:20Z</time>
      </trkpt>
      <trkpt lat="44.09783" lon="6.98704">
        <ele>1429.2</ele>
        <time>2022-06-11T12:26:21Z</time>
      </trkpt>
      <trkpt lat="44.0978" lon="6.98703">
        <ele>1429.4</ele>
        <time>2022-06-11T12:26:22Z</time>
      </trkpt>
      <trkpt lat="44.09777" lon="6.98702">
        <ele>1429.6</ele>
        <time>2022-06-11T12:26:23Z</time>
      </trkpt>
      <trkpt lat="44.09774" lon="6.98701">
        <ele>1429.8</ele>
        <time>2022-06-11T12:26:24Z</time>
      </trkpt>
      <trkpt lat="44.09771" lon="6.987">
        <ele>1430</ele>
        <time>2022-06-11T12:26:25Z</time>
      </trkpt>
      <trkpt lat="44.09768" lon="6.98699">
        <ele>1430.2</ele>
        <time>2022-06-11T12:26:26Z</time>
      </trkpt>
      <trkpt lat="44.09765" lon="6.98698">
        <ele>1430.4</ele>
        <time>2022-06-11T12:26:27Z</time>
      </trkpt>
      <trkpt lat="44.09762" lon="6.98697">
        <ele>1430.6</ele>
        <time>2022-06-11T12:26:28Z</time>
      </trkpt>
      <trkpt lat="44.09759" lon="6.98696">
        <ele>1430.8</ele>
        <time>2022-06-11T12:26:29Z</time>
      </trkpt>
      <trkpt lat="44.09756" lon="6.98695">
        <ele>1430.9</ele>
        <time>2022-06-11T12:26:30Z</time>
      </trkpt>
      <trkpt lat="44.09753" lon="6.98695">
        <ele>1431</ele>
        <time>2022-06-11T12:26:31Z</time>
      </trkpt>
      <trkpt lat="44.0975" lon="6.98694">
        <ele>1431.2</ele>
        <time>2022-06-11T12:26:32Z</time>
      </trkpt>
      <trkpt lat="44.09747" lon="6.98693">
        <ele>1431.4</ele>
        <time>2022-06-11T12:26:33Z</time>
      </trkpt>
      <trkpt lat="44.09744" lon="6.98693">
        <ele>1431.6</ele>
        <time>2022-06-11T12:26:34Z</time>
      </trkpt>
      <trkpt lat="44.09741" lon="6.98692">
        <ele>1431.8</ele>
        <time>2022-06-11T12:26:35Z</time>
      </trkpt>
      <trkpt lat="44.09739" lon="6.98692">
        <ele>1431.9</ele>
        <time>2022-06-11T12:26:36Z</time>
      </trkpt>
      <trkpt lat="44.09736" lon="6.98692">
        <ele>1432</ele>
        <time>2022-06-11T12:26:37Z</time>
      </trkpt>
      <trkpt lat="44.09733" lon="6.98691">
        <ele>1432.2</ele>
        <time>2022-06-11T12:26:38Z</time>
      </trkpt>
      <trkpt lat="44.0973" lon="6.9869">
        <ele>1432.4</ele>
        <time>2022-06-11T12:26:39Z</time>
      </trkpt>
      <trkpt lat="44.09727" lon="6.9869">
        <ele>1432.5</ele>
        <time>2022-06-11T12:26:40Z</time>
      </trkpt>
      <trkpt lat="44.09725" lon="6.9869">
        <ele>1432.6</ele>
        <time>2022-06-11T12:26:41Z</time>
      </trkpt>
      <trkpt lat="44.09722" lon="6.9869">
        <ele>1432.7</ele>
        <time>2022-06-11T12:26:42Z</time>
      </trkpt>
      <trkpt lat="44.09719" lon="6.9869">
        <ele>1432.9</ele>
        <time>2022-06-11T12:26:43Z</time>
      </trkpt>
      <trkpt lat="44.09717" lon="6.9869">
        <ele>1433.2</ele>
        <time>2022-06-11T12:26:44Z</time>
      </trkpt>
      <trkpt lat="44.09714" lon="6.98689">
        <ele>1433.5</ele>
        <time>2022-06-11T12:26:45Z</time>
      </trkpt>
      <trkpt lat="44.09712" lon="6.98689">
        <ele>1433.8</ele>
        <time>2022-06-11T12:26:46Z</time>
      </trkpt>
      <trkpt lat="44.09709" lon="6.98689">
        <ele>1434.1</ele>
        <time>2022-06-11T12:26:47Z</time>
      </trkpt>
      <trkpt lat="44.09706" lon="6.98688">
        <ele>1434.4</ele>
        <time>2022-06-11T12:26:48Z</time>
      </trkpt>
      <trkpt lat="44.09704" lon="6.98686">
        <ele>1434.8</ele>
        <time>2022-06-11T12:26:49Z</time>
      </trkpt>
      <trkpt lat="44.09702" lon="6.98685">
        <ele>1435.1</ele>
        <time>2022-06-11T12:26:50Z</time>
      </trkpt>
      <trkpt lat="44.097" lon="6.98684">
        <ele>1435.4</ele>
        <time>2022-06-11T12:26:51Z</time>
      </trkpt>
      <trkpt lat="44.09697" lon="6.98682">
        <ele>1435.7</ele>
        <time>2022-06-11T12:26:52Z</time>
      </trkpt>
      <trkpt lat="44.09695" lon="6.98681">
        <ele>1436</ele>
        <time>2022-06-11T12:26:53Z</time>
      </trkpt>
      <trkpt lat="44.09692" lon="6.98679">
        <ele>1436.4</ele>
        <time>2022-06-11T12:26:54Z</time>
      </trkpt>
      <trkpt lat="44.0969" lon="6.98678">
        <ele>1436.8</ele>
        <time>2022-06-11T12:26:55Z</time>
      </trkpt>
      <trkpt lat="44.09688" lon="6.98676">
        <ele>1437.2</ele>
        <time>2022-06-11T12:26:56Z</time>
      </trkpt>
      <trkpt lat="44.09685" lon="6.98675">
        <ele>1437.6</ele>
        <time>2022-06-11T12:26:57Z</time>
      </trkpt>
      <trkpt lat="44.09683" lon="6.98673">
        <ele>1438</ele>
        <time>2022-06-11T12:26:58Z</time>
      </trkpt>
      <trkpt lat="44.09681" lon="6.98672">
        <ele>1438.3</ele>
        <time>2022-06-11T12:26:59Z</time>
      </trkpt>
      <trkpt lat="44.09678" lon="6.9867">
        <ele>1438.7</ele>
        <time>2022-06-11T12:27:00Z</time>
      </trkpt>
      <trkpt lat="44.09676" lon="6.98669">
        <ele>1439</ele>
        <time>2022-06-11T12:27:01Z</time>
      </trkpt>
      <trkpt lat="44.09674" lon="6.98667">
        <ele>1439.2</ele>
        <time>2022-06-11T12:27:02Z</time>
      </trkpt>
      <trkpt lat="44.09672" lon="6.98665">
        <ele>1439.5</ele>
        <time>2022-06-11T12:27:03Z</time>
      </trkpt>
      <trkpt lat="44.0967" lon="6.98664">
        <ele>1439.8</ele>
        <time>2022-06-11T12:27:04Z</time>
      </trkpt>
      <trkpt lat="44.09667" lon="6.98662">
        <ele>1440.1</ele>
        <time>2022-06-11T12:27:05Z</time>
      </trkpt>
      <trkpt lat="44.09665" lon="6.98661">
        <ele>1440.4</ele>
        <time>2022-06-11T12:27:06Z</time>
      </trkpt>
      <trkpt lat="44.09663" lon="6.9866">
        <ele>1440.8</ele>
        <time>2022-06-11T12:27:07Z</time>
      </trkpt>
      <trkpt lat="44.0966" lon="6.98659">
        <ele>1441.2</ele>
        <time>2022-06-11T12:27:08Z</time>
      </trkpt>
      <trkpt lat="44.09658" lon="6.98658">
        <ele>1441.5</ele>
        <time>2022-06-11T12:27:09Z</time>
      </trkpt>
      <trkpt lat="44.09655" lon="6.98656">
        <ele>1441.9</ele>
        <time>2022-06-11T12:27:10Z</time>
      </trkpt>
      <trkpt lat="44.09653" lon="6.98654">
        <ele>1442.2</ele>
        <time>2022-06-11T12:27:11Z</time>
      </trkpt>
      <trkpt lat="44.09651" lon="6.98652">
        <ele>1442.5</ele>
        <time>2022-06-11T12:27:12Z</time>
      </trkpt>
      <trkpt lat="44.09649" lon="6.9865">
        <ele>1442.8</ele>
        <time>2022-06-11T12:27:13Z</time>
      </trkpt>
      <trkpt lat="44.09647" lon="6.98649">
        <ele>1443.1</ele>
        <time>2022-06-11T12:27:14Z</time>
      </trkpt>
      <trkpt lat="44.09644" lon="6.98647">
        <ele>1443.4</ele>
        <time>2022-06-11T12:27:15Z</time>
      </trkpt>
      <trkpt lat="44.09642" lon="6.98646">
        <ele>1443.6</ele>
        <time>2022-06-11T12:27:16Z</time>
      </trkpt>
      <trkpt lat="44.0964" lon="6.98645">
        <ele>1443.9</ele>
        <time>2022-06-11T12:27:17Z</time>
      </trkpt>
      <trkpt lat="44.09638" lon="6.98644">
        <ele>1444.1</ele>
        <time>2022-06-11T12:27:18Z</time>
      </trkpt>
      <trkpt lat="44.09635" lon="6.98643">
        <ele>1444.3</ele>
        <time>2022-06-11T12:27:19Z</time>
      </trkpt>
      <trkpt lat="44.09632" lon="6.98642">
        <ele>1444.5</ele>
        <time>2022-06-11T12:27:20Z</time>
      </trkpt>
      <trkpt lat="44.0963" lon="6.98641">
        <ele>1444.7</ele>
        <time>2022-06-11T12:27:21Z</time>
      </trkpt>
      <trkpt lat="44.09628" lon="6.9864">
        <ele>1444.8</ele>
        <time>2022-06-11T12:27:22Z</time>
      </trkpt>
      <trkpt lat="44.09625" lon="6.98639">
        <ele>1445</ele>
        <time>2022-06-11T12:27:23Z</time>
      </trkpt>
      <trkpt lat="44.09623" lon="6.98639">
        <ele>1445.1</ele>
        <time>2022-06-11T12:27:24Z</time>
      </trkpt>
      <trkpt lat="44.09621" lon="6.98638">
        <ele>1445.3</ele>
        <time>2022-06-11T12:27:25Z</time>
      </trkpt>
      <trkpt lat="44.09619" lon="6.98638">
        <ele>1445.4</ele>
        <time>2022-06-11T12:27:26Z</time>
      </trkpt>
      <trkpt lat="44.09617" lon="6.98637">
        <ele>1445.5</ele>
        <time>2022-06-11T12:27:27Z</time>
      </trkpt>
      <trkpt lat="44.09616" lon="6.98637">
        <ele>1445.5</ele>
        <time>2022-06-11T12:27:28Z</time>
      </trkpt>
      <trkpt lat="44.09615" lon="6.98636">
        <ele>1445.5</ele>
        <time>2022-06-11T12:27:29Z</time>
      </trkpt>
      <trkpt lat="44.09613" lon="6.98636">
        <ele>1445.6</ele>
        <time>2022-06-11T12:27:30Z</time>
      </trkpt>
      <trkpt lat="44.09612" lon="6.98636">
        <ele>1445.7</ele>
        <time>2022-06-11T12:27:31Z</time>
      </trkpt>
      <trkpt lat="44.09611" lon="6.98636">
        <ele>1445.8</ele>
        <time>2022-06-11T12:27:32Z</time>
      </trkpt>
      <trkpt lat="44.0961" lon="6.98636">
        <ele>1445.8</ele>
        <time>2022-06-11T12:27:33Z</time>
      </trkpt>
      <trkpt lat="44.0961" lon="6.98637">
        <ele>1445.9</ele>
        <time>2022-06-11T12:27:34Z</time>
      </trkpt>
      <trkpt lat="44.0961" lon="6.98637">
        <ele>1445.9</ele>
        <time>2022-06-11T12:27:35Z</time>
      </trkpt>
      <trkpt lat="44.0961" lon="6.98637">
        <ele>1445.9</ele>
        <time>2022-06-11T12:27:36Z</time>
      </trkpt>
      <trkpt lat="44.0961" lon="6.98643">
        <ele>1446.3</ele>
        <time>2022-06-11T12:27:40Z</time>
      </trkpt>
      <trkpt lat="44.0961" lon="6.98644">
        <ele>1446.4</ele>
        <time>2022-06-11T12:27:41Z</time>
      </trkpt>
      <trkpt lat="44.09611" lon="6.98645">
        <ele>1446.4</ele>
        <time>2022-06-11T12:27:42Z</time>
      </trkpt>
      <trkpt lat="44.09611" lon="6.98645">
        <ele>1446.5</ele>
        <time>2022-06-11T12:27:43Z</time>
      </trkpt>
      <trkpt lat="44.09611" lon="6.98646">
        <ele>1446.5</ele>
        <time>2022-06-11T12:27:44Z</time>
      </trkpt>
      <trkpt lat="44.09611" lon="6.98647">
        <ele>1446.6</ele>
        <time>2022-06-11T12:27:45Z</time>
      </trkpt>
      <trkpt lat="44.09611" lon="6.98648">
        <ele>1446.6</ele>
        <time>2022-06-11T12:27:46Z</time>
      </trkpt>
      <trkpt lat="44.09597" lon="6.98594">
        <ele>1441.6</ele>
        <time>2022-06-11T12:41:36Z</time>
      </trkpt>
      <trkpt lat="44.09597" lon="6.98594">
        <ele>1441.6</ele>
        <time>2022-06-11T12:41:37Z</time>
      </trkpt>
      <trkpt lat="44.09597" lon="6.98595">
        <ele>1441.8</ele>
        <time>2022-06-11T12:41:38Z</time>
      </trkpt>
      <trkpt lat="44.09597" lon="6.98595">
        <ele>1441.7</ele>
        <time>2022-06-11T12:41:39Z</time>
      </trkpt>
      <trkpt lat="44.09597" lon="6.98595">
        <ele>1441.7</ele>
        <time>2022-06-11T12:41:40Z</time>
      </trkpt>
      <trkpt lat="44.09597" lon="6.98595">
        <ele>1441.7</ele>
        <time>2022-06-11T12:41:41Z</time>
      </trkpt>
      <trkpt lat="44.09615" lon="6.98635">
        <ele>1445.5</ele>
        <time>2022-06-11T12:47:59Z</time>
      </trkpt>
      <trkpt lat="44.09616" lon="6.98632">
        <ele>1445.2</ele>
        <time>2022-06-11T12:48:00Z</time>
      </trkpt>
      <trkpt lat="44.09618" lon="6.98629">
        <ele>1445</ele>
        <time>2022-06-11T12:48:01Z</time>
      </trkpt>
      <trkpt lat="44.09619" lon="6.98626">
        <ele>1444.7</ele>
        <time>2022-06-11T12:48:02Z</time>
      </trkpt>
      <trkpt lat="44.09621" lon="6.98622">
        <ele>1444.5</ele>
        <time>2022-06-11T12:48:03Z</time>
      </trkpt>
      <trkpt lat="44.09624" lon="6.98619">
        <ele>1444.3</ele>
        <time>2022-06-11T12:48:04Z</time>
      </trkpt>
      <trkpt lat="44.09626" lon="6.98617">
        <ele>1444.2</ele>
        <time>2022-06-11T12:48:05Z</time>
      </trkpt>
      <trkpt lat="44.09628" lon="6.98614">
        <ele>1444.1</ele>
        <time>2022-06-11T12:48:06Z</time>
      </trkpt>
      <trkpt lat="44.09631" lon="6.98612">
        <ele>1444</ele>
        <time>2022-06-11T12:48:07Z</time>
      </trkpt>
      <trkpt lat="44.09633" lon="6.98609">
        <ele>1443.9</ele>
        <time>2022-06-11T12:48:08Z</time>
      </trkpt>
      <trkpt lat="44.09635" lon="6.98607">
        <ele>1443.8</ele>
        <time>2022-06-11T12:48:09Z</time>
      </trkpt>
      <trkpt lat="44.09637" lon="6.98604">
        <ele>1443.7</ele>
        <time>2022-06-11T12:48:10Z</time>
      </trkpt>
      <trkpt lat="44.0964" lon="6.98602">
        <ele>1443.7</ele>
        <time>2022-06-11T12:48:11Z</time>
      </trkpt>
      <trkpt lat="44.09642" lon="6.986">
        <ele>1443.6</ele>
        <time>2022-06-11T12:48:12Z</time>
      </trkpt>
      <trkpt lat="44.09645" lon="6.98598">
        <ele>1443.6</ele>
        <time>2022-06-11T12:48:13Z</time>
      </trkpt>
      <trkpt lat="44.09647" lon="6.98596">
        <ele>1443.6</ele>
        <time>2022-06-11T12:48:14Z</time>
      </trkpt>
      <trkpt lat="44.09649" lon="6.98594">
        <ele>1443.7</ele>
        <time>2022-06-11T12:48:15Z</time>
      </trkpt>
      <trkpt lat="44.09652" lon="6.98592">
        <ele>1443.8</ele>
        <time>2022-06-11T12:48:16Z</time>
      </trkpt>
      <trkpt lat="44.09654" lon="6.9859">
        <ele>1443.9</ele>
        <time>2022-06-11T12:48:17Z</time>
      </trkpt>
      <trkpt lat="44.09656" lon="6.98587">
        <ele>1444.1</ele>
        <time>2022-06-11T12:48:18Z</time>
      </trkpt>
      <trkpt lat="44.09658" lon="6.98585">
        <ele>1444.3</ele>
        <time>2022-06-11T12:48:19Z</time>
      </trkpt>
      <trkpt lat="44.0966" lon="6.98582">
        <ele>1444.6</ele>
        <time>2022-06-11T12:48:20Z</time>
      </trkpt>
      <trkpt lat="44.09662" lon="6.9858">
        <ele>1444.9</ele>
        <time>2022-06-11T12:48:21Z</time>
      </trkpt>
      <trkpt lat="44.09664" lon="6.98578">
        <ele>1445.2</ele>
        <time>2022-06-11T12:48:22Z</time>
      </trkpt>
      <trkpt lat="44.09666" lon="6.98575">
        <ele>1445.5</ele>
        <time>2022-06-11T12:48:23Z</time>
      </trkpt>
      <trkpt lat="44.09668" lon="6.98573">
        <ele>1445.9</ele>
        <time>2022-06-11T12:48:24Z</time>
      </trkpt>
      <trkpt lat="44.0967" lon="6.9857">
        <ele>1446.4</ele>
        <time>2022-06-11T12:48:25Z</time>
      </trkpt>
      <trkpt lat="44.09671" lon="6.98567">
        <ele>1446.8</ele>
        <time>2022-06-11T12:48:26Z</time>
      </trkpt>
      <trkpt lat="44.09672" lon="6.98564">
        <ele>1447.3</ele>
        <time>2022-06-11T12:48:27Z</time>
      </trkpt>
      <trkpt lat="44.09674" lon="6.98561">
        <ele>1447.7</ele>
        <time>2022-06-11T12:48:28Z</time>
      </trkpt>
      <trkpt lat="44.09675" lon="6.98558">
        <ele>1448.2</ele>
        <time>2022-06-11T12:48:29Z</time>
      </trkpt>
      <trkpt lat="44.09675" lon="6.98555">
        <ele>1448.6</ele>
        <time>2022-06-11T12:48:30Z</time>
      </trkpt>
      <trkpt lat="44.09676" lon="6.98551">
        <ele>1449</ele>
        <time>2022-06-11T12:48:31Z</time>
      </trkpt>
      <trkpt lat="44.09676" lon="6.98547">
        <ele>1449.5</ele>
        <time>2022-06-11T12:48:32Z</time>
      </trkpt>
      <trkpt lat="44.09676" lon="6.98544">
        <ele>1449.9</ele>
        <time>2022-06-11T12:48:33Z</time>
      </trkpt>
      <trkpt lat="44.09676" lon="6.9854">
        <ele>1450.2</ele>
        <time>2022-06-11T12:48:34Z</time>
      </trkpt>
      <trkpt lat="44.09676" lon="6.98537">
        <ele>1450.5</ele>
        <time>2022-06-11T12:48:35Z</time>
      </trkpt>
      <trkpt lat="44.09676" lon="6.98533">
        <ele>1450.8</ele>
        <time>2022-06-11T12:48:36Z</time>
      </trkpt>
      <trkpt lat="44.09676" lon="6.9853">
        <ele>1451</ele>
        <time>2022-06-11T12:48:37Z</time>
      </trkpt>
      <trkpt lat="44.09675" lon="6.98526">
        <ele>1451.2</ele>
        <time>2022-06-11T12:48:38Z</time>
      </trkpt>
      <trkpt lat="44.09674" lon="6.98523">
        <ele>1451.3</ele>
        <time>2022-06-11T12:48:39Z</time>
      </trkpt>
      <trkpt lat="44.09674" lon="6.98519">
        <ele>1451.5</ele>
        <time>2022-06-11T12:48:40Z</time>
      </trkpt>
      <trkpt lat="44.09674" lon="6.98516">
        <ele>1451.7</ele>
        <time>2022-06-11T12:48:41Z</time>
      </trkpt>
      <trkpt lat="44.09673" lon="6.98513">
        <ele>1451.8</ele>
        <time>2022-06-11T12:48:42Z</time>
      </trkpt>
      <trkpt lat="44.09672" lon="6.98509">
        <ele>1451.9</ele>
        <time>2022-06-11T12:48:43Z</time>
      </trkpt>
      <trkpt lat="44.09672" lon="6.98506">
        <ele>1452</ele>
        <time>2022-06-11T12:48:44Z</time>
      </trkpt>
      <trkpt lat="44.09671" lon="6.98503">
        <ele>1452.1</ele>
        <time>2022-06-11T12:48:45Z</time>
      </trkpt>
      <trkpt lat="44.09671" lon="6.985">
        <ele>1452.1</ele>
        <time>2022-06-11T12:48:46Z</time>
      </trkpt>
      <trkpt lat="44.0967" lon="6.98496">
        <ele>1452.2</ele>
        <time>2022-06-11T12:48:47Z</time>
      </trkpt>
      <trkpt lat="44.0967" lon="6.98493">
        <ele>1452.4</ele>
        <time>2022-06-11T12:48:48Z</time>
      </trkpt>
      <trkpt lat="44.09669" lon="6.98489">
        <ele>1452.5</ele>
        <time>2022-06-11T12:48:49Z</time>
      </trkpt>
      <trkpt lat="44.09669" lon="6.98486">
        <ele>1452.7</ele>
        <time>2022-06-11T12:48:50Z</time>
      </trkpt>
      <trkpt lat="44.09668" lon="6.98482">
        <ele>1452.7</ele>
        <time>2022-06-11T12:48:51Z</time>
      </trkpt>
      <trkpt lat="44.09667" lon="6.98479">
        <ele>1452.7</ele>
        <time>2022-06-11T12:48:52Z</time>
      </trkpt>
      <trkpt lat="44.09667" lon="6.98477">
        <ele>1452.7</ele>
        <time>2022-06-11T12:48:53Z</time>
      </trkpt>
      <trkpt lat="44.09666" lon="6.98474">
        <ele>1452.6</ele>
        <time>2022-06-11T12:48:54Z</time>
      </trkpt>
      <trkpt lat="44.09665" lon="6.9847">
        <ele>1452.6</ele>
        <time>2022-06-11T12:48:55Z</time>
      </trkpt>
      <trkpt lat="44.09665" lon="6.98467">
        <ele>1452.5</ele>
        <time>2022-06-11T12:48:56Z</time>
      </trkpt>
      <trkpt lat="44.09664" lon="6.98463">
        <ele>1452.5</ele>
        <time>2022-06-11T12:48:57Z</time>
      </trkpt>
      <trkpt lat="44.09664" lon="6.9846">
        <ele>1452.4</ele>
        <time>2022-06-11T12:48:58Z</time>
      </trkpt>
      <trkpt lat="44.09663" lon="6.98457">
        <ele>1452.3</ele>
        <time>2022-06-11T12:48:59Z</time>
      </trkpt>
      <trkpt lat="44.09663" lon="6.98454">
        <ele>1452.4</ele>
        <time>2022-06-11T12:49:00Z</time>
      </trkpt>
      <trkpt lat="44.09663" lon="6.98451">
        <ele>1452.5</ele>
        <time>2022-06-11T12:49:01Z</time>
      </trkpt>
      <trkpt lat="44.09663" lon="6.98448">
        <ele>1452.6</ele>
        <time>2022-06-11T12:49:02Z</time>
      </trkpt>
      <trkpt lat="44.09663" lon="6.98445">
        <ele>1452.6</ele>
        <time>2022-06-11T12:49:03Z</time>
      </trkpt>
      <trkpt lat="44.09663" lon="6.98442">
        <ele>1452.9</ele>
        <time>2022-06-11T12:49:04Z</time>
      </trkpt>
      <trkpt lat="44.09664" lon="6.98438">
        <ele>1453.3</ele>
        <time>2022-06-11T12:49:05Z</time>
      </trkpt>
      <trkpt lat="44.09664" lon="6.98435">
        <ele>1453.6</ele>
        <time>2022-06-11T12:49:06Z</time>
      </trkpt>
      <trkpt lat="44.09664" lon="6.98432">
        <ele>1453.8</ele>
        <time>2022-06-11T12:49:07Z</time>
      </trkpt>
      <trkpt lat="44.09664" lon="6.98429">
        <ele>1454</ele>
        <time>2022-06-11T12:49:08Z</time>
      </trkpt>
      <trkpt lat="44.09664" lon="6.98426">
        <ele>1454.3</ele>
        <time>2022-06-11T12:49:09Z</time>
      </trkpt>
      <trkpt lat="44.09664" lon="6.98423">
        <ele>1454.5</ele>
        <time>2022-06-11T12:49:10Z</time>
      </trkpt>
      <trkpt lat="44.09665" lon="6.9842">
        <ele>1454.9</ele>
        <time>2022-06-11T12:49:11Z</time>
      </trkpt>
      <trkpt lat="44.09665" lon="6.98417">
        <ele>1455.2</ele>
        <time>2022-06-11T12:49:12Z</time>
      </trkpt>
      <trkpt lat="44.09665" lon="6.98414">
        <ele>1455.3</ele>
        <time>2022-06-11T12:49:13Z</time>
      </trkpt>
      <trkpt lat="44.09665" lon="6.98411">
        <ele>1455.5</ele>
        <time>2022-06-11T12:49:14Z</time>
      </trkpt>
      <trkpt lat="44.09665" lon="6.98408">
        <ele>1455.6</ele>
        <time>2022-06-11T12:49:15Z</time>
      </trkpt>
      <trkpt lat="44.09665" lon="6.98404">
        <ele>1455.7</ele>
        <time>2022-06-11T12:49:16Z</time>
      </trkpt>
      <trkpt lat="44.09666" lon="6.98402">
        <ele>1456</ele>
        <time>2022-06-11T12:49:17Z</time>
      </trkpt>
      <trkpt lat="44.09666" lon="6.98399">
        <ele>1456.1</ele>
        <time>2022-06-11T12:49:18Z</time>
      </trkpt>
      <trkpt lat="44.09666" lon="6.98396">
        <ele>1456.5</ele>
        <time>2022-06-11T12:49:19Z</time>
      </trkpt>
      <trkpt lat="44.09667" lon="6.98393">
        <ele>1456.9</ele>
        <time>2022-06-11T12:49:20Z</time>
      </trkpt>
      <trkpt lat="44.09667" lon="6.9839">
        <ele>1457.1</ele>
        <time>2022-06-11T12:49:21Z</time>
      </trkpt>
      <trkpt lat="44.09667" lon="6.98387">
        <ele>1457.2</ele>
        <time>2022-06-11T12:49:22Z</time>
      </trkpt>
      <trkpt lat="44.09668" lon="6.98385">
        <ele>1457.3</ele>
        <time>2022-06-11T12:49:23Z</time>
      </trkpt>
      <trkpt lat="44.09668" lon="6.98382">
        <ele>1457.5</ele>
        <time>2022-06-11T12:49:24Z</time>
      </trkpt>
      <trkpt lat="44.09669" lon="6.98379">
        <ele>1457.7</ele>
        <time>2022-06-11T12:49:25Z</time>
      </trkpt>
      <trkpt lat="44.0967" lon="6.98376">
        <ele>1458</ele>
        <time>2022-06-11T12:49:26Z</time>
      </trkpt>
      <trkpt lat="44.0967" lon="6.98373">
        <ele>1458</ele>
        <time>2022-06-11T12:49:27Z</time>
      </trkpt>
      <trkpt lat="44.09671" lon="6.9837">
        <ele>1458.2</ele>
        <time>2022-06-11T12:49:28Z</time>
      </trkpt>
      <trkpt lat="44.09671" lon="6.98368">
        <ele>1458.2</ele>
        <time>2022-06-11T12:49:29Z</time>
      </trkpt>
      <trkpt lat="44.09672" lon="6.98365">
        <ele>1458.4</ele>
        <time>2022-06-11T12:49:30Z</time>
      </trkpt>
      <trkpt lat="44.09673" lon="6.98363">
        <ele>1458.6</ele>
        <time>2022-06-11T12:49:31Z</time>
      </trkpt>
      <trkpt lat="44.09674" lon="6.9836">
        <ele>1458.9</ele>
        <time>2022-06-11T12:49:32Z</time>
      </trkpt>
      <trkpt lat="44.09675" lon="6.98357">
        <ele>1459.3</ele>
        <time>2022-06-11T12:49:33Z</time>
      </trkpt>
      <trkpt lat="44.09675" lon="6.98354">
        <ele>1459.6</ele>
        <time>2022-06-11T12:49:34Z</time>
      </trkpt>
      <trkpt lat="44.09676" lon="6.98351">
        <ele>1459.8</ele>
        <time>2022-06-11T12:49:35Z</time>
      </trkpt>
      <trkpt lat="44.09677" lon="6.98348">
        <ele>1460.1</ele>
        <time>2022-06-11T12:49:36Z</time>
      </trkpt>
      <trkpt lat="44.09677" lon="6.98345">
        <ele>1460.3</ele>
        <time>2022-06-11T12:49:37Z</time>
      </trkpt>
      <trkpt lat="44.09678" lon="6.98343">
        <ele>1460.5</ele>
        <time>2022-06-11T12:49:38Z</time>
      </trkpt>
      <trkpt lat="44.09679" lon="6.9834">
        <ele>1461</ele>
        <time>2022-06-11T12:49:39Z</time>
      </trkpt>
      <trkpt lat="44.0968" lon="6.98337">
        <ele>1461.2</ele>
        <time>2022-06-11T12:49:40Z</time>
      </trkpt>
      <trkpt lat="44.09681" lon="6.98334">
        <ele>1461.5</ele>
        <time>2022-06-11T12:49:41Z</time>
      </trkpt>
      <trkpt lat="44.09681" lon="6.98332">
        <ele>1461.7</ele>
        <time>2022-06-11T12:49:42Z</time>
      </trkpt>
      <trkpt lat="44.09682" lon="6.98329">
        <ele>1461.9</ele>
        <time>2022-06-11T12:49:43Z</time>
      </trkpt>
      <trkpt lat="44.09682" lon="6.98326">
        <ele>1462.1</ele>
        <time>2022-06-11T12:49:44Z</time>
      </trkpt>
      <trkpt lat="44.09683" lon="6.98323">
        <ele>1462.4</ele>
        <time>2022-06-11T12:49:45Z</time>
      </trkpt>
      <trkpt lat="44.09683" lon="6.98321">
        <ele>1462.7</ele>
        <time>2022-06-11T12:49:46Z</time>
      </trkpt>
      <trkpt lat="44.09684" lon="6.98318">
        <ele>1463.1</ele>
        <time>2022-06-11T12:49:47Z</time>
      </trkpt>
      <trkpt lat="44.09686" lon="6.98315">
        <ele>1463.7</ele>
        <time>2022-06-11T12:49:48Z</time>
      </trkpt>
      <trkpt lat="44.09686" lon="6.98312">
        <ele>1463.9</ele>
        <time>2022-06-11T12:49:49Z</time>
      </trkpt>
      <trkpt lat="44.09686" lon="6.98308">
        <ele>1464</ele>
        <time>2022-06-11T12:49:50Z</time>
      </trkpt>
      <trkpt lat="44.09686" lon="6.98305">
        <ele>1464.2</ele>
        <time>2022-06-11T12:49:51Z</time>
      </trkpt>
      <trkpt lat="44.09687" lon="6.98302">
        <ele>1464.5</ele>
        <time>2022-06-11T12:49:52Z</time>
      </trkpt>
      <trkpt lat="44.09687" lon="6.98299">
        <ele>1464.8</ele>
        <time>2022-06-11T12:49:53Z</time>
      </trkpt>
      <trkpt lat="44.09688" lon="6.98297">
        <ele>1465.2</ele>
        <time>2022-06-11T12:49:54Z</time>
      </trkpt>
      <trkpt lat="44.09688" lon="6.98294">
        <ele>1465.3</ele>
        <time>2022-06-11T12:49:55Z</time>
      </trkpt>
      <trkpt lat="44.09688" lon="6.9829">
        <ele>1465.4</ele>
        <time>2022-06-11T12:49:56Z</time>
      </trkpt>
      <trkpt lat="44.09688" lon="6.98287">
        <ele>1465.6</ele>
        <time>2022-06-11T12:49:57Z</time>
      </trkpt>
      <trkpt lat="44.09688" lon="6.98284">
        <ele>1465.7</ele>
        <time>2022-06-11T12:49:58Z</time>
      </trkpt>
      <trkpt lat="44.09688" lon="6.98281">
        <ele>1465.9</ele>
        <time>2022-06-11T12:49:59Z</time>
      </trkpt>
      <trkpt lat="44.09688" lon="6.98278">
        <ele>1466</ele>
        <time>2022-06-11T12:50:00Z</time>
      </trkpt>
      <trkpt lat="44.09687" lon="6.98275">
        <ele>1466.1</ele>
        <time>2022-06-11T12:50:01Z</time>
      </trkpt>
      <trkpt lat="44.09688" lon="6.98272">
        <ele>1466.4</ele>
        <time>2022-06-11T12:50:02Z</time>
      </trkpt>
      <trkpt lat="44.09688" lon="6.98269">
        <ele>1466.6</ele>
        <time>2022-06-11T12:50:03Z</time>
      </trkpt>
      <trkpt lat="44.09688" lon="6.98266">
        <ele>1466.9</ele>
        <time>2022-06-11T12:50:04Z</time>
      </trkpt>
      <trkpt lat="44.09688" lon="6.98263">
        <ele>1467.1</ele>
        <time>2022-06-11T12:50:05Z</time>
      </trkpt>
      <trkpt lat="44.09688" lon="6.9826">
        <ele>1467.4</ele>
        <time>2022-06-11T12:50:06Z</time>
      </trkpt>
      <trkpt lat="44.09688" lon="6.98257">
        <ele>1467.7</ele>
        <time>2022-06-11T12:50:07Z</time>
      </trkpt>
      <trkpt lat="44.09688" lon="6.98254">
        <ele>1467.8</ele>
        <time>2022-06-11T12:50:08Z</time>
      </trkpt>
      <trkpt lat="44.09688" lon="6.98251">
        <ele>1468</ele>
        <time>2022-06-11T12:50:09Z</time>
      </trkpt>
      <trkpt lat="44.09688" lon="6.98248">
        <ele>1468.2</ele>
        <time>2022-06-11T12:50:10Z</time>
      </trkpt>
      <trkpt lat="44.09687" lon="6.98245">
        <ele>1468.2</ele>
        <time>2022-06-11T12:50:11Z</time>
      </trkpt>
      <trkpt lat="44.09687" lon="6.98242">
        <ele>1468.5</ele>
        <time>2022-06-11T12:50:12Z</time>
      </trkpt>
      <trkpt lat="44.09687" lon="6.98239">
        <ele>1468.6</ele>
        <time>2022-06-11T12:50:13Z</time>
      </trkpt>
      <trkpt lat="44.09687" lon="6.98236">
        <ele>1468.9</ele>
        <time>2022-06-11T12:50:14Z</time>
      </trkpt>
      <trkpt lat="44.09687" lon="6.98233">
        <ele>1469.2</ele>
        <time>2022-06-11T12:50:15Z</time>
      </trkpt>
      <trkpt lat="44.09687" lon="6.9823">
        <ele>1469.4</ele>
        <time>2022-06-11T12:50:16Z</time>
      </trkpt>
      <trkpt lat="44.09687" lon="6.98227">
        <ele>1469.8</ele>
        <time>2022-06-11T12:50:17Z</time>
      </trkpt>
      <trkpt lat="44.09688" lon="6.98224">
        <ele>1470.3</ele>
        <time>2022-06-11T12:50:18Z</time>
      </trkpt>
      <trkpt lat="44.09689" lon="6.98221">
        <ele>1470.8</ele>
        <time>2022-06-11T12:50:19Z</time>
      </trkpt>
      <trkpt lat="44.09689" lon="6.98218">
        <ele>1471.1</ele>
        <time>2022-06-11T12:50:20Z</time>
      </trkpt>
      <trkpt lat="44.09689" lon="6.98215">
        <ele>1471.5</ele>
        <time>2022-06-11T12:50:21Z</time>
      </trkpt>
      <trkpt lat="44.09689" lon="6.98212">
        <ele>1472</ele>
        <time>2022-06-11T12:50:22Z</time>
      </trkpt>
      <trkpt lat="44.09689" lon="6.98209">
        <ele>1472.1</ele>
        <time>2022-06-11T12:50:23Z</time>
      </trkpt>
      <trkpt lat="44.09689" lon="6.98206">
        <ele>1472.4</ele>
        <time>2022-06-11T12:50:24Z</time>
      </trkpt>
      <trkpt lat="44.09688" lon="6.98203">
        <ele>1472.4</ele>
        <time>2022-06-11T12:50:25Z</time>
      </trkpt>
      <trkpt lat="44.09687" lon="6.982">
        <ele>1472.5</ele>
        <time>2022-06-11T12:50:26Z</time>
      </trkpt>
      <trkpt lat="44.09687" lon="6.98198">
        <ele>1472.6</ele>
        <time>2022-06-11T12:50:27Z</time>
      </trkpt>
      <trkpt lat="44.09686" lon="6.98195">
        <ele>1472.6</ele>
        <time>2022-06-11T12:50:28Z</time>
      </trkpt>
      <trkpt lat="44.09686" lon="6.98193">
        <ele>1472.7</ele>
        <time>2022-06-11T12:50:29Z</time>
      </trkpt>
      <trkpt lat="44.09685" lon="6.9819">
        <ele>1472.8</ele>
        <time>2022-06-11T12:50:30Z</time>
      </trkpt>
      <trkpt lat="44.09684" lon="6.98187">
        <ele>1473</ele>
        <time>2022-06-11T12:50:31Z</time>
      </trkpt>
      <trkpt lat="44.09683" lon="6.98184">
        <ele>1473.1</ele>
        <time>2022-06-11T12:50:32Z</time>
      </trkpt>
      <trkpt lat="44.09682" lon="6.98182">
        <ele>1473.1</ele>
        <time>2022-06-11T12:50:33Z</time>
      </trkpt>
      <trkpt lat="44.09681" lon="6.98179">
        <ele>1473</ele>
        <time>2022-06-11T12:50:34Z</time>
      </trkpt>
      <trkpt lat="44.09679" lon="6.98177">
        <ele>1472.9</ele>
        <time>2022-06-11T12:50:35Z</time>
      </trkpt>
      <trkpt lat="44.09678" lon="6.98175">
        <ele>1472.8</ele>
        <time>2022-06-11T12:50:36Z</time>
      </trkpt>
      <trkpt lat="44.09677" lon="6.98173">
        <ele>1472.8</ele>
        <time>2022-06-11T12:50:37Z</time>
      </trkpt>
      <trkpt lat="44.09675" lon="6.9817">
        <ele>1472.8</ele>
        <time>2022-06-11T12:50:38Z</time>
      </trkpt>
      <trkpt lat="44.09674" lon="6.98168">
        <ele>1472.8</ele>
        <time>2022-06-11T12:50:39Z</time>
      </trkpt>
      <trkpt lat="44.09672" lon="6.98166">
        <ele>1473</ele>
        <time>2022-06-11T12:50:40Z</time>
      </trkpt>
      <trkpt lat="44.09671" lon="6.98164">
        <ele>1473.1</ele>
        <time>2022-06-11T12:50:41Z</time>
      </trkpt>
      <trkpt lat="44.09669" lon="6.98162">
        <ele>1473.1</ele>
        <time>2022-06-11T12:50:42Z</time>
      </trkpt>
      <trkpt lat="44.09667" lon="6.9816">
        <ele>1473.2</ele>
        <time>2022-06-11T12:50:43Z</time>
      </trkpt>
      <trkpt lat="44.09665" lon="6.98159">
        <ele>1473.2</ele>
        <time>2022-06-11T12:50:44Z</time>
      </trkpt>
      <trkpt lat="44.09664" lon="6.98157">
        <ele>1473.1</ele>
        <time>2022-06-11T12:50:45Z</time>
      </trkpt>
      <trkpt lat="44.09662" lon="6.98156">
        <ele>1473.1</ele>
        <time>2022-06-11T12:50:46Z</time>
      </trkpt>
      <trkpt lat="44.0966" lon="6.98154">
        <ele>1472.9</ele>
        <time>2022-06-11T12:50:47Z</time>
      </trkpt>
      <trkpt lat="44.09658" lon="6.98153">
        <ele>1472.6</ele>
        <time>2022-06-11T12:50:48Z</time>
      </trkpt>
      <trkpt lat="44.09656" lon="6.98151">
        <ele>1472.4</ele>
        <time>2022-06-11T12:50:49Z</time>
      </trkpt>
      <trkpt lat="44.09654" lon="6.9815">
        <ele>1472.1</ele>
        <time>2022-06-11T12:50:50Z</time>
      </trkpt>
      <trkpt lat="44.09652" lon="6.98149">
        <ele>1471.9</ele>
        <time>2022-06-11T12:50:51Z</time>
      </trkpt>
      <trkpt lat="44.0965" lon="6.98147">
        <ele>1471.7</ele>
        <time>2022-06-11T12:50:52Z</time>
      </trkpt>
      <trkpt lat="44.09648" lon="6.98145">
        <ele>1471.6</ele>
        <time>2022-06-11T12:50:53Z</time>
      </trkpt>
      <trkpt lat="44.09647" lon="6.98143">
        <ele>1471.6</ele>
        <time>2022-06-11T12:50:54Z</time>
      </trkpt>
      <trkpt lat="44.09645" lon="6.98141">
        <ele>1471.6</ele>
        <time>2022-06-11T12:50:55Z</time>
      </trkpt>
      <trkpt lat="44.09643" lon="6.98138">
        <ele>1471.8</ele>
        <time>2022-06-11T12:50:56Z</time>
      </trkpt>
      <trkpt lat="44.09642" lon="6.98136">
        <ele>1471.9</ele>
        <time>2022-06-11T12:50:57Z</time>
      </trkpt>
      <trkpt lat="44.09641" lon="6.98133">
        <ele>1472.1</ele>
        <time>2022-06-11T12:50:58Z</time>
      </trkpt>
      <trkpt lat="44.09639" lon="6.98131">
        <ele>1472.3</ele>
        <time>2022-06-11T12:50:59Z</time>
      </trkpt>
      <trkpt lat="44.09638" lon="6.98128">
        <ele>1472.5</ele>
        <time>2022-06-11T12:51:00Z</time>
      </trkpt>
      <trkpt lat="44.09637" lon="6.98125">
        <ele>1472.8</ele>
        <time>2022-06-11T12:51:01Z</time>
      </trkpt>
      <trkpt lat="44.09637" lon="6.98123">
        <ele>1473.1</ele>
        <time>2022-06-11T12:51:02Z</time>
      </trkpt>
      <trkpt lat="44.09636" lon="6.9812">
        <ele>1473.4</ele>
        <time>2022-06-11T12:51:03Z</time>
      </trkpt>
      <trkpt lat="44.09635" lon="6.98118">
        <ele>1473.7</ele>
        <time>2022-06-11T12:51:04Z</time>
      </trkpt>
      <trkpt lat="44.09634" lon="6.98115">
        <ele>1474</ele>
        <time>2022-06-11T12:51:05Z</time>
      </trkpt>
      <trkpt lat="44.09633" lon="6.98113">
        <ele>1474.3</ele>
        <time>2022-06-11T12:51:06Z</time>
      </trkpt>
      <trkpt lat="44.09632" lon="6.9811">
        <ele>1474.7</ele>
        <time>2022-06-11T12:51:07Z</time>
      </trkpt>
      <trkpt lat="44.09632" lon="6.98107">
        <ele>1475.2</ele>
        <time>2022-06-11T12:51:08Z</time>
      </trkpt>
      <trkpt lat="44.09631" lon="6.98105">
        <ele>1475.5</ele>
        <time>2022-06-11T12:51:09Z</time>
      </trkpt>
      <trkpt lat="44.09631" lon="6.98102">
        <ele>1475.9</ele>
        <time>2022-06-11T12:51:10Z</time>
      </trkpt>
      <trkpt lat="44.0963" lon="6.981">
        <ele>1476.2</ele>
        <time>2022-06-11T12:51:11Z</time>
      </trkpt>
      <trkpt lat="44.09629" lon="6.98097">
        <ele>1476.7</ele>
        <time>2022-06-11T12:51:12Z</time>
      </trkpt>
      <trkpt lat="44.09629" lon="6.98094">
        <ele>1477</ele>
        <time>2022-06-11T12:51:13Z</time>
      </trkpt>
      <trkpt lat="44.09628" lon="6.98092">
        <ele>1477.2</ele>
        <time>2022-06-11T12:51:14Z</time>
      </trkpt>
      <trkpt lat="44.09627" lon="6.98089">
        <ele>1477.6</ele>
        <time>2022-06-11T12:51:15Z</time>
      </trkpt>
      <trkpt lat="44.09626" lon="6.98086">
        <ele>1477.9</ele>
        <time>2022-06-11T12:51:16Z</time>
      </trkpt>
      <trkpt lat="44.09626" lon="6.98084">
        <ele>1478.2</ele>
        <time>2022-06-11T12:51:17Z</time>
      </trkpt>
      <trkpt lat="44.09625" lon="6.98081">
        <ele>1478.3</ele>
        <time>2022-06-11T12:51:18Z</time>
      </trkpt>
      <trkpt lat="44.09624" lon="6.98078">
        <ele>1478.4</ele>
        <time>2022-06-11T12:51:19Z</time>
      </trkpt>
      <trkpt lat="44.09624" lon="6.98075">
        <ele>1478.7</ele>
        <time>2022-06-11T12:51:20Z</time>
      </trkpt>
      <trkpt lat="44.09623" lon="6.98073">
        <ele>1478.9</ele>
        <time>2022-06-11T12:51:21Z</time>
      </trkpt>
      <trkpt lat="44.09622" lon="6.9807">
        <ele>1479</ele>
        <time>2022-06-11T12:51:22Z</time>
      </trkpt>
      <trkpt lat="44.09622" lon="6.98067">
        <ele>1479.2</ele>
        <time>2022-06-11T12:51:23Z</time>
      </trkpt>
      <trkpt lat="44.09621" lon="6.98064">
        <ele>1479.4</ele>
        <time>2022-06-11T12:51:24Z</time>
      </trkpt>
      <trkpt lat="44.09621" lon="6.98061">
        <ele>1479.6</ele>
        <time>2022-06-11T12:51:25Z</time>
      </trkpt>
      <trkpt lat="44.0962" lon="6.98058">
        <ele>1480</ele>
        <time>2022-06-11T12:51:26Z</time>
      </trkpt>
      <trkpt lat="44.0962" lon="6.98055">
        <ele>1480.2</ele>
        <time>2022-06-11T12:51:27Z</time>
      </trkpt>
      <trkpt lat="44.0962" lon="6.98052">
        <ele>1480.4</ele>
        <time>2022-06-11T12:51:28Z</time>
      </trkpt>
      <trkpt lat="44.09619" lon="6.98049">
        <ele>1480.4</ele>
        <time>2022-06-11T12:51:29Z</time>
      </trkpt>
      <trkpt lat="44.09618" lon="6.98046">
        <ele>1480.3</ele>
        <time>2022-06-11T12:51:30Z</time>
      </trkpt>
      <trkpt lat="44.09618" lon="6.98043">
        <ele>1480.5</ele>
        <time>2022-06-11T12:51:31Z</time>
      </trkpt>
      <trkpt lat="44.09618" lon="6.9804">
        <ele>1480.8</ele>
        <time>2022-06-11T12:51:32Z</time>
      </trkpt>
      <trkpt lat="44.09618" lon="6.98037">
        <ele>1480.8</ele>
        <time>2022-06-11T12:51:33Z</time>
      </trkpt>
      <trkpt lat="44.09618" lon="6.98034">
        <ele>1481.2</ele>
        <time>2022-06-11T12:51:34Z</time>
      </trkpt>
      <trkpt lat="44.09617" lon="6.98031">
        <ele>1481.3</ele>
        <time>2022-06-11T12:51:35Z</time>
      </trkpt>
      <trkpt lat="44.09617" lon="6.98028">
        <ele>1481.6</ele>
        <time>2022-06-11T12:51:36Z</time>
      </trkpt>
      <trkpt lat="44.09617" lon="6.98025">
        <ele>1481.9</ele>
        <time>2022-06-11T12:51:37Z</time>
      </trkpt>
      <trkpt lat="44.09617" lon="6.98022">
        <ele>1482.1</ele>
        <time>2022-06-11T12:51:38Z</time>
      </trkpt>
      <trkpt lat="44.09617" lon="6.98019">
        <ele>1482.3</ele>
        <time>2022-06-11T12:51:39Z</time>
      </trkpt>
      <trkpt lat="44.09617" lon="6.98016">
        <ele>1482.5</ele>
        <time>2022-06-11T12:51:40Z</time>
      </trkpt>
      <trkpt lat="44.09617" lon="6.98014">
        <ele>1482.6</ele>
        <time>2022-06-11T12:51:41Z</time>
      </trkpt>
      <trkpt lat="44.09617" lon="6.98011">
        <ele>1482.9</ele>
        <time>2022-06-11T12:51:42Z</time>
      </trkpt>
      <trkpt lat="44.09617" lon="6.98008">
        <ele>1483.2</ele>
        <time>2022-06-11T12:51:43Z</time>
      </trkpt>
      <trkpt lat="44.09617" lon="6.98005">
        <ele>1483.3</ele>
        <time>2022-06-11T12:51:44Z</time>
      </trkpt>
      <trkpt lat="44.09617" lon="6.98002">
        <ele>1483.2</ele>
        <time>2022-06-11T12:51:45Z</time>
      </trkpt>
      <trkpt lat="44.09617" lon="6.97999">
        <ele>1483.7</ele>
        <time>2022-06-11T12:51:46Z</time>
      </trkpt>
      <trkpt lat="44.09617" lon="6.97996">
        <ele>1484</ele>
        <time>2022-06-11T12:51:47Z</time>
      </trkpt>
      <trkpt lat="44.09618" lon="6.97993">
        <ele>1484.4</ele>
        <time>2022-06-11T12:51:48Z</time>
      </trkpt>
      <trkpt lat="44.09618" lon="6.9799">
        <ele>1484.6</ele>
        <time>2022-06-11T12:51:49Z</time>
      </trkpt>
      <trkpt lat="44.09618" lon="6.97987">
        <ele>1485.1</ele>
        <time>2022-06-11T12:51:50Z</time>
      </trkpt>
      <trkpt lat="44.09618" lon="6.97985">
        <ele>1485.3</ele>
        <time>2022-06-11T12:51:51Z</time>
      </trkpt>
      <trkpt lat="44.09618" lon="6.97982">
        <ele>1485.5</ele>
        <time>2022-06-11T12:51:52Z</time>
      </trkpt>
      <trkpt lat="44.09619" lon="6.97979">
        <ele>1485.8</ele>
        <time>2022-06-11T12:51:53Z</time>
      </trkpt>
      <trkpt lat="44.09619" lon="6.97977">
        <ele>1486</ele>
        <time>2022-06-11T12:51:54Z</time>
      </trkpt>
      <trkpt lat="44.09619" lon="6.97974">
        <ele>1486.5</ele>
        <time>2022-06-11T12:51:55Z</time>
      </trkpt>
      <trkpt lat="44.09619" lon="6.97971">
        <ele>1486.7</ele>
        <time>2022-06-11T12:51:56Z</time>
      </trkpt>
      <trkpt lat="44.0962" lon="6.97967">
        <ele>1487.2</ele>
        <time>2022-06-11T12:51:57Z</time>
      </trkpt>
      <trkpt lat="44.0962" lon="6.97964">
        <ele>1487.6</ele>
        <time>2022-06-11T12:51:58Z</time>
      </trkpt>
      <trkpt lat="44.0962" lon="6.97961">
        <ele>1487.8</ele>
        <time>2022-06-11T12:51:59Z</time>
      </trkpt>
      <trkpt lat="44.09621" lon="6.97958">
        <ele>1488.3</ele>
        <time>2022-06-11T12:52:00Z</time>
      </trkpt>
      <trkpt lat="44.0962" lon="6.97955">
        <ele>1488.2</ele>
        <time>2022-06-11T12:52:01Z</time>
      </trkpt>
      <trkpt lat="44.0962" lon="6.97952">
        <ele>1488.4</ele>
        <time>2022-06-11T12:52:02Z</time>
      </trkpt>
      <trkpt lat="44.0962" lon="6.97949">
        <ele>1488.7</ele>
        <time>2022-06-11T12:52:03Z</time>
      </trkpt>
      <trkpt lat="44.0962" lon="6.97945">
        <ele>1488.8</ele>
        <time>2022-06-11T12:52:04Z</time>
      </trkpt>
      <trkpt lat="44.09621" lon="6.97942">
        <ele>1489.3</ele>
        <time>2022-06-11T12:52:05Z</time>
      </trkpt>
      <trkpt lat="44.0962" lon="6.97939">
        <ele>1489.4</ele>
        <time>2022-06-11T12:52:06Z</time>
      </trkpt>
      <trkpt lat="44.0962" lon="6.97936">
        <ele>1489.5</ele>
        <time>2022-06-11T12:52:07Z</time>
      </trkpt>
      <trkpt lat="44.09619" lon="6.97933">
        <ele>1489.6</ele>
        <time>2022-06-11T12:52:08Z</time>
      </trkpt>
      <trkpt lat="44.09619" lon="6.97929">
        <ele>1489.9</ele>
        <time>2022-06-11T12:52:09Z</time>
      </trkpt>
      <trkpt lat="44.09619" lon="6.97926">
        <ele>1490</ele>
        <time>2022-06-11T12:52:10Z</time>
      </trkpt>
      <trkpt lat="44.09618" lon="6.97924">
        <ele>1490.1</ele>
        <time>2022-06-11T12:52:11Z</time>
      </trkpt>
      <trkpt lat="44.09618" lon="6.97921">
        <ele>1490.4</ele>
        <time>2022-06-11T12:52:12Z</time>
      </trkpt>
      <trkpt lat="44.09618" lon="6.97918">
        <ele>1490.5</ele>
        <time>2022-06-11T12:52:13Z</time>
      </trkpt>
      <trkpt lat="44.09617" lon="6.97914">
        <ele>1490.6</ele>
        <time>2022-06-11T12:52:14Z</time>
      </trkpt>
      <trkpt lat="44.09617" lon="6.97911">
        <ele>1491</ele>
        <time>2022-06-11T12:52:15Z</time>
      </trkpt>
      <trkpt lat="44.09616" lon="6.97909">
        <ele>1490.9</ele>
        <time>2022-06-11T12:52:16Z</time>
      </trkpt>
      <trkpt lat="44.09615" lon="6.97906">
        <ele>1491</ele>
        <time>2022-06-11T12:52:17Z</time>
      </trkpt>
      <trkpt lat="44.09615" lon="6.97903">
        <ele>1491.6</ele>
        <time>2022-06-11T12:52:18Z</time>
      </trkpt>
      <trkpt lat="44.09615" lon="6.979">
        <ele>1491.8</ele>
        <time>2022-06-11T12:52:19Z</time>
      </trkpt>
      <trkpt lat="44.09614" lon="6.97898">
        <ele>1491.8</ele>
        <time>2022-06-11T12:52:20Z</time>
      </trkpt>
      <trkpt lat="44.09613" lon="6.97895">
        <ele>1491.8</ele>
        <time>2022-06-11T12:52:21Z</time>
      </trkpt>
      <trkpt lat="44.09612" lon="6.97893">
        <ele>1491.8</ele>
        <time>2022-06-11T12:52:22Z</time>
      </trkpt>
      <trkpt lat="44.09611" lon="6.9789">
        <ele>1491.7</ele>
        <time>2022-06-11T12:52:23Z</time>
      </trkpt>
      <trkpt lat="44.0961" lon="6.97887">
        <ele>1491.7</ele>
        <time>2022-06-11T12:52:24Z</time>
      </trkpt>
      <trkpt lat="44.09608" lon="6.97885">
        <ele>1491.7</ele>
        <time>2022-06-11T12:52:25Z</time>
      </trkpt>
      <trkpt lat="44.09607" lon="6.97883">
        <ele>1491.7</ele>
        <time>2022-06-11T12:52:26Z</time>
      </trkpt>
      <trkpt lat="44.09606" lon="6.9788">
        <ele>1491.7</ele>
        <time>2022-06-11T12:52:27Z</time>
      </trkpt>
      <trkpt lat="44.09604" lon="6.97878">
        <ele>1491.7</ele>
        <time>2022-06-11T12:52:28Z</time>
      </trkpt>
      <trkpt lat="44.09603" lon="6.97876">
        <ele>1491.7</ele>
        <time>2022-06-11T12:52:29Z</time>
      </trkpt>
      <trkpt lat="44.09602" lon="6.97873">
        <ele>1491.8</ele>
        <time>2022-06-11T12:52:30Z</time>
      </trkpt>
      <trkpt lat="44.09601" lon="6.97871">
        <ele>1491.8</ele>
        <time>2022-06-11T12:52:31Z</time>
      </trkpt>
      <trkpt lat="44.096" lon="6.97869">
        <ele>1492</ele>
        <time>2022-06-11T12:52:32Z</time>
      </trkpt>
      <trkpt lat="44.09599" lon="6.97867">
        <ele>1492.1</ele>
        <time>2022-06-11T12:52:33Z</time>
      </trkpt>
      <trkpt lat="44.09597" lon="6.97864">
        <ele>1492.2</ele>
        <time>2022-06-11T12:52:34Z</time>
      </trkpt>
      <trkpt lat="44.09596" lon="6.97862">
        <ele>1492.3</ele>
        <time>2022-06-11T12:52:35Z</time>
      </trkpt>
      <trkpt lat="44.09595" lon="6.9786">
        <ele>1492.3</ele>
        <time>2022-06-11T12:52:36Z</time>
      </trkpt>
      <trkpt lat="44.09593" lon="6.97857">
        <ele>1492.5</ele>
        <time>2022-06-11T12:52:37Z</time>
      </trkpt>
      <trkpt lat="44.09592" lon="6.97855">
        <ele>1492.5</ele>
        <time>2022-06-11T12:52:38Z</time>
      </trkpt>
      <trkpt lat="44.09591" lon="6.97853">
        <ele>1492.6</ele>
        <time>2022-06-11T12:52:39Z</time>
      </trkpt>
      <trkpt lat="44.0959" lon="6.97851">
        <ele>1493</ele>
        <time>2022-06-11T12:52:40Z</time>
      </trkpt>
      <trkpt lat="44.09589" lon="6.97848">
        <ele>1493.1</ele>
        <time>2022-06-11T12:52:41Z</time>
      </trkpt>
      <trkpt lat="44.09587" lon="6.97846">
        <ele>1493.1</ele>
        <time>2022-06-11T12:52:42Z</time>
      </trkpt>
      <trkpt lat="44.09586" lon="6.97844">
        <ele>1493.2</ele>
        <time>2022-06-11T12:52:43Z</time>
      </trkpt>
      <trkpt lat="44.09585" lon="6.97842">
        <ele>1493.2</ele>
        <time>2022-06-11T12:52:44Z</time>
      </trkpt>
      <trkpt lat="44.09584" lon="6.9784">
        <ele>1493.3</ele>
        <time>2022-06-11T12:52:45Z</time>
      </trkpt>
      <trkpt lat="44.09582" lon="6.97837">
        <ele>1493.3</ele>
        <time>2022-06-11T12:52:46Z</time>
      </trkpt>
      <trkpt lat="44.09581" lon="6.97835">
        <ele>1493.5</ele>
        <time>2022-06-11T12:52:47Z</time>
      </trkpt>
      <trkpt lat="44.09579" lon="6.97832">
        <ele>1493.6</ele>
        <time>2022-06-11T12:52:48Z</time>
      </trkpt>
      <trkpt lat="44.09578" lon="6.9783">
        <ele>1493.9</ele>
        <time>2022-06-11T12:52:49Z</time>
      </trkpt>
      <trkpt lat="44.09577" lon="6.97827">
        <ele>1494.2</ele>
        <time>2022-06-11T12:52:50Z</time>
      </trkpt>
      <trkpt lat="44.09576" lon="6.97825">
        <ele>1494.3</ele>
        <time>2022-06-11T12:52:51Z</time>
      </trkpt>
      <trkpt lat="44.09575" lon="6.97823">
        <ele>1494.7</ele>
        <time>2022-06-11T12:52:52Z</time>
      </trkpt>
      <trkpt lat="44.09574" lon="6.97821">
        <ele>1495</ele>
        <time>2022-06-11T12:52:53Z</time>
      </trkpt>
      <trkpt lat="44.09573" lon="6.97818">
        <ele>1495.3</ele>
        <time>2022-06-11T12:52:54Z</time>
      </trkpt>
      <trkpt lat="44.09571" lon="6.97816">
        <ele>1495.5</ele>
        <time>2022-06-11T12:52:55Z</time>
      </trkpt>
      <trkpt lat="44.0957" lon="6.97813">
        <ele>1495.7</ele>
        <time>2022-06-11T12:52:56Z</time>
      </trkpt>
      <trkpt lat="44.09569" lon="6.97811">
        <ele>1496.1</ele>
        <time>2022-06-11T12:52:57Z</time>
      </trkpt>
      <trkpt lat="44.09568" lon="6.97808">
        <ele>1496.4</ele>
        <time>2022-06-11T12:52:58Z</time>
      </trkpt>
      <trkpt lat="44.09566" lon="6.97806">
        <ele>1496.5</ele>
        <time>2022-06-11T12:52:59Z</time>
      </trkpt>
      <trkpt lat="44.09565" lon="6.97803">
        <ele>1496.6</ele>
        <time>2022-06-11T12:53:00Z</time>
      </trkpt>
      <trkpt lat="44.09564" lon="6.97801">
        <ele>1497</ele>
        <time>2022-06-11T12:53:01Z</time>
      </trkpt>
      <trkpt lat="44.09562" lon="6.97798">
        <ele>1497.2</ele>
        <time>2022-06-11T12:53:02Z</time>
      </trkpt>
      <trkpt lat="44.09561" lon="6.97796">
        <ele>1497.7</ele>
        <time>2022-06-11T12:53:03Z</time>
      </trkpt>
      <trkpt lat="44.0956" lon="6.97793">
        <ele>1498.1</ele>
        <time>2022-06-11T12:53:04Z</time>
      </trkpt>
      <trkpt lat="44.09559" lon="6.9779">
        <ele>1498.4</ele>
        <time>2022-06-11T12:53:05Z</time>
      </trkpt>
      <trkpt lat="44.09558" lon="6.97788">
        <ele>1498.7</ele>
        <time>2022-06-11T12:53:06Z</time>
      </trkpt>
      <trkpt lat="44.09556" lon="6.97785">
        <ele>1499</ele>
        <time>2022-06-11T12:53:07Z</time>
      </trkpt>
      <trkpt lat="44.09555" lon="6.97782">
        <ele>1499.4</ele>
        <time>2022-06-11T12:53:08Z</time>
      </trkpt>
      <trkpt lat="44.09554" lon="6.9778">
        <ele>1499.3</ele>
        <time>2022-06-11T12:53:09Z</time>
      </trkpt>
      <trkpt lat="44.09553" lon="6.97778">
        <ele>1499.6</ele>
        <time>2022-06-11T12:53:10Z</time>
      </trkpt>
      <trkpt lat="44.09552" lon="6.97775">
        <ele>1499.8</ele>
        <time>2022-06-11T12:53:11Z</time>
      </trkpt>
      <trkpt lat="44.09551" lon="6.97773">
        <ele>1499.9</ele>
        <time>2022-06-11T12:53:12Z</time>
      </trkpt>
      <trkpt lat="44.0955" lon="6.9777">
        <ele>1500.2</ele>
        <time>2022-06-11T12:53:13Z</time>
      </trkpt>
      <trkpt lat="44.09549" lon="6.97768">
        <ele>1500.3</ele>
        <time>2022-06-11T12:53:14Z</time>
      </trkpt>
      <trkpt lat="44.09547" lon="6.97766">
        <ele>1500.2</ele>
        <time>2022-06-11T12:53:15Z</time>
      </trkpt>
      <trkpt lat="44.09546" lon="6.97763">
        <ele>1500.2</ele>
        <time>2022-06-11T12:53:16Z</time>
      </trkpt>
      <trkpt lat="44.09545" lon="6.97761">
        <ele>1500.4</ele>
        <time>2022-06-11T12:53:17Z</time>
      </trkpt>
      <trkpt lat="44.09543" lon="6.97758">
        <ele>1500.5</ele>
        <time>2022-06-11T12:53:18Z</time>
      </trkpt>
      <trkpt lat="44.09542" lon="6.97755">
        <ele>1500.7</ele>
        <time>2022-06-11T12:53:19Z</time>
      </trkpt>
      <trkpt lat="44.09541" lon="6.97753">
        <ele>1500.8</ele>
        <time>2022-06-11T12:53:20Z</time>
      </trkpt>
      <trkpt lat="44.0954" lon="6.9775">
        <ele>1500.9</ele>
        <time>2022-06-11T12:53:21Z</time>
      </trkpt>
      <trkpt lat="44.09538" lon="6.97747">
        <ele>1501</ele>
        <time>2022-06-11T12:53:22Z</time>
      </trkpt>
      <trkpt lat="44.09537" lon="6.97745">
        <ele>1501.1</ele>
        <time>2022-06-11T12:53:23Z</time>
      </trkpt>
      <trkpt lat="44.09536" lon="6.97742">
        <ele>1501.1</ele>
        <time>2022-06-11T12:53:24Z</time>
      </trkpt>
      <trkpt lat="44.09534" lon="6.9774">
        <ele>1500.9</ele>
        <time>2022-06-11T12:53:25Z</time>
      </trkpt>
      <trkpt lat="44.09533" lon="6.97738">
        <ele>1500.9</ele>
        <time>2022-06-11T12:53:26Z</time>
      </trkpt>
      <trkpt lat="44.09532" lon="6.97735">
        <ele>1500.8</ele>
        <time>2022-06-11T12:53:27Z</time>
      </trkpt>
      <trkpt lat="44.09531" lon="6.97732">
        <ele>1501</ele>
        <time>2022-06-11T12:53:28Z</time>
      </trkpt>
      <trkpt lat="44.09529" lon="6.9773">
        <ele>1501</ele>
        <time>2022-06-11T12:53:29Z</time>
      </trkpt>
      <trkpt lat="44.09528" lon="6.97727">
        <ele>1501</ele>
        <time>2022-06-11T12:53:30Z</time>
      </trkpt>
      <trkpt lat="44.09527" lon="6.97724">
        <ele>1501.1</ele>
        <time>2022-06-11T12:53:31Z</time>
      </trkpt>
      <trkpt lat="44.09526" lon="6.97721">
        <ele>1501.2</ele>
        <time>2022-06-11T12:53:32Z</time>
      </trkpt>
      <trkpt lat="44.09525" lon="6.97718">
        <ele>1501.1</ele>
        <time>2022-06-11T12:53:33Z</time>
      </trkpt>
      <trkpt lat="44.09524" lon="6.97715">
        <ele>1501.3</ele>
        <time>2022-06-11T12:53:34Z</time>
      </trkpt>
      <trkpt lat="44.09523" lon="6.97712">
        <ele>1501.6</ele>
        <time>2022-06-11T12:53:35Z</time>
      </trkpt>
      <trkpt lat="44.09523" lon="6.97709">
        <ele>1501.8</ele>
        <time>2022-06-11T12:53:36Z</time>
      </trkpt>
      <trkpt lat="44.09522" lon="6.97706">
        <ele>1501.9</ele>
        <time>2022-06-11T12:53:37Z</time>
      </trkpt>
      <trkpt lat="44.09521" lon="6.97703">
        <ele>1502.1</ele>
        <time>2022-06-11T12:53:38Z</time>
      </trkpt>
      <trkpt lat="44.0952" lon="6.977">
        <ele>1502.3</ele>
        <time>2022-06-11T12:53:39Z</time>
      </trkpt>
      <trkpt lat="44.0952" lon="6.97697">
        <ele>1502.4</ele>
        <time>2022-06-11T12:53:40Z</time>
      </trkpt>
      <trkpt lat="44.09519" lon="6.97694">
        <ele>1502.8</ele>
        <time>2022-06-11T12:53:41Z</time>
      </trkpt>
      <trkpt lat="44.09519" lon="6.9769">
        <ele>1503.2</ele>
        <time>2022-06-11T12:53:42Z</time>
      </trkpt>
      <trkpt lat="44.09518" lon="6.97687">
        <ele>1503.3</ele>
        <time>2022-06-11T12:53:43Z</time>
      </trkpt>
      <trkpt lat="44.09517" lon="6.97684">
        <ele>1503.6</ele>
        <time>2022-06-11T12:53:44Z</time>
      </trkpt>
      <trkpt lat="44.09517" lon="6.97682">
        <ele>1504</ele>
        <time>2022-06-11T12:53:45Z</time>
      </trkpt>
      <trkpt lat="44.09516" lon="6.97679">
        <ele>1504.3</ele>
        <time>2022-06-11T12:53:46Z</time>
      </trkpt>
      <trkpt lat="44.09516" lon="6.97676">
        <ele>1504.7</ele>
        <time>2022-06-11T12:53:47Z</time>
      </trkpt>
      <trkpt lat="44.09515" lon="6.97673">
        <ele>1505.1</ele>
        <time>2022-06-11T12:53:48Z</time>
      </trkpt>
      <trkpt lat="44.09515" lon="6.9767">
        <ele>1505.5</ele>
        <time>2022-06-11T12:53:49Z</time>
      </trkpt>
      <trkpt lat="44.09515" lon="6.97667">
        <ele>1505.8</ele>
        <time>2022-06-11T12:53:50Z</time>
      </trkpt>
      <trkpt lat="44.09514" lon="6.97664">
        <ele>1506</ele>
        <time>2022-06-11T12:53:51Z</time>
      </trkpt>
      <trkpt lat="44.09513" lon="6.97661">
        <ele>1506.1</ele>
        <time>2022-06-11T12:53:52Z</time>
      </trkpt>
      <trkpt lat="44.09513" lon="6.97658">
        <ele>1506.3</ele>
        <time>2022-06-11T12:53:53Z</time>
      </trkpt>
      <trkpt lat="44.09512" lon="6.97655">
        <ele>1506.5</ele>
        <time>2022-06-11T12:53:54Z</time>
      </trkpt>
      <trkpt lat="44.09512" lon="6.97653">
        <ele>1506.5</ele>
        <time>2022-06-11T12:53:55Z</time>
      </trkpt>
      <trkpt lat="44.09511" lon="6.9765">
        <ele>1506.6</ele>
        <time>2022-06-11T12:53:56Z</time>
      </trkpt>
      <trkpt lat="44.0951" lon="6.97647">
        <ele>1506.7</ele>
        <time>2022-06-11T12:53:57Z</time>
      </trkpt>
      <trkpt lat="44.09509" lon="6.97644">
        <ele>1506.7</ele>
        <time>2022-06-11T12:53:58Z</time>
      </trkpt>
      <trkpt lat="44.09508" lon="6.97642">
        <ele>1506.6</ele>
        <time>2022-06-11T12:53:59Z</time>
      </trkpt>
      <trkpt lat="44.09507" lon="6.97639">
        <ele>1506.6</ele>
        <time>2022-06-11T12:54:00Z</time>
      </trkpt>
      <trkpt lat="44.09506" lon="6.97636">
        <ele>1506.6</ele>
        <time>2022-06-11T12:54:01Z</time>
      </trkpt>
      <trkpt lat="44.09505" lon="6.97633">
        <ele>1506.8</ele>
        <time>2022-06-11T12:54:02Z</time>
      </trkpt>
      <trkpt lat="44.09504" lon="6.9763">
        <ele>1507</ele>
        <time>2022-06-11T12:54:03Z</time>
      </trkpt>
      <trkpt lat="44.09503" lon="6.97627">
        <ele>1507.3</ele>
        <time>2022-06-11T12:54:04Z</time>
      </trkpt>
      <trkpt lat="44.09502" lon="6.97624">
        <ele>1507.4</ele>
        <time>2022-06-11T12:54:05Z</time>
      </trkpt>
      <trkpt lat="44.09501" lon="6.97621">
        <ele>1507.4</ele>
        <time>2022-06-11T12:54:06Z</time>
      </trkpt>
      <trkpt lat="44.095" lon="6.97618">
        <ele>1507.5</ele>
        <time>2022-06-11T12:54:07Z</time>
      </trkpt>
      <trkpt lat="44.09499" lon="6.97616">
        <ele>1507.4</ele>
        <time>2022-06-11T12:54:08Z</time>
      </trkpt>
      <trkpt lat="44.09497" lon="6.97613">
        <ele>1507.3</ele>
        <time>2022-06-11T12:54:09Z</time>
      </trkpt>
      <trkpt lat="44.09496" lon="6.97611">
        <ele>1507.2</ele>
        <time>2022-06-11T12:54:10Z</time>
      </trkpt>
      <trkpt lat="44.09494" lon="6.97608">
        <ele>1507.2</ele>
        <time>2022-06-11T12:54:11Z</time>
      </trkpt>
      <trkpt lat="44.09493" lon="6.97606">
        <ele>1507.2</ele>
        <time>2022-06-11T12:54:12Z</time>
      </trkpt>
      <trkpt lat="44.09491" lon="6.97604">
        <ele>1507</ele>
        <time>2022-06-11T12:54:13Z</time>
      </trkpt>
      <trkpt lat="44.0949" lon="6.97602">
        <ele>1507</ele>
        <time>2022-06-11T12:54:14Z</time>
      </trkpt>
      <trkpt lat="44.09489" lon="6.976">
        <ele>1507</ele>
        <time>2022-06-11T12:54:15Z</time>
      </trkpt>
      <trkpt lat="44.09488" lon="6.97597">
        <ele>1507.2</ele>
        <time>2022-06-11T12:54:16Z</time>
      </trkpt>
      <trkpt lat="44.09486" lon="6.97594">
        <ele>1507.4</ele>
        <time>2022-06-11T12:54:17Z</time>
      </trkpt>
      <trkpt lat="44.09485" lon="6.97591">
        <ele>1507.5</ele>
        <time>2022-06-11T12:54:18Z</time>
      </trkpt>
      <trkpt lat="44.09484" lon="6.97589">
        <ele>1507.6</ele>
        <time>2022-06-11T12:54:19Z</time>
      </trkpt>
      <trkpt lat="44.09482" lon="6.97586">
        <ele>1507.7</ele>
        <time>2022-06-11T12:54:20Z</time>
      </trkpt>
      <trkpt lat="44.09481" lon="6.97583">
        <ele>1508</ele>
        <time>2022-06-11T12:54:21Z</time>
      </trkpt>
      <trkpt lat="44.0948" lon="6.9758">
        <ele>1508.2</ele>
        <time>2022-06-11T12:54:22Z</time>
      </trkpt>
      <trkpt lat="44.09479" lon="6.97577">
        <ele>1508.3</ele>
        <time>2022-06-11T12:54:23Z</time>
      </trkpt>
      <trkpt lat="44.09478" lon="6.97575">
        <ele>1508.6</ele>
        <time>2022-06-11T12:54:24Z</time>
      </trkpt>
      <trkpt lat="44.09477" lon="6.97572">
        <ele>1508.8</ele>
        <time>2022-06-11T12:54:25Z</time>
      </trkpt>
      <trkpt lat="44.09476" lon="6.97569">
        <ele>1508.9</ele>
        <time>2022-06-11T12:54:26Z</time>
      </trkpt>
      <trkpt lat="44.09475" lon="6.97566">
        <ele>1509.1</ele>
        <time>2022-06-11T12:54:27Z</time>
      </trkpt>
      <trkpt lat="44.09475" lon="6.97563">
        <ele>1509.4</ele>
        <time>2022-06-11T12:54:28Z</time>
      </trkpt>
      <trkpt lat="44.09474" lon="6.9756">
        <ele>1509.8</ele>
        <time>2022-06-11T12:54:29Z</time>
      </trkpt>
      <trkpt lat="44.09473" lon="6.97558">
        <ele>1510.1</ele>
        <time>2022-06-11T12:54:30Z</time>
      </trkpt>
      <trkpt lat="44.09473" lon="6.97555">
        <ele>1510.3</ele>
        <time>2022-06-11T12:54:31Z</time>
      </trkpt>
      <trkpt lat="44.09472" lon="6.97552">
        <ele>1510.6</ele>
        <time>2022-06-11T12:54:32Z</time>
      </trkpt>
      <trkpt lat="44.09471" lon="6.97549">
        <ele>1510.7</ele>
        <time>2022-06-11T12:54:33Z</time>
      </trkpt>
      <trkpt lat="44.09471" lon="6.97546">
        <ele>1511</ele>
        <time>2022-06-11T12:54:34Z</time>
      </trkpt>
      <trkpt lat="44.0947" lon="6.97543">
        <ele>1511.2</ele>
        <time>2022-06-11T12:54:35Z</time>
      </trkpt>
      <trkpt lat="44.0947" lon="6.97541">
        <ele>1511.4</ele>
        <time>2022-06-11T12:54:36Z</time>
      </trkpt>
      <trkpt lat="44.09469" lon="6.97538">
        <ele>1511.6</ele>
        <time>2022-06-11T12:54:37Z</time>
      </trkpt>
      <trkpt lat="44.09468" lon="6.97535">
        <ele>1512</ele>
        <time>2022-06-11T12:54:38Z</time>
      </trkpt>
      <trkpt lat="44.09468" lon="6.97532">
        <ele>1512.4</ele>
        <time>2022-06-11T12:54:39Z</time>
      </trkpt>
      <trkpt lat="44.09468" lon="6.97529">
        <ele>1512.7</ele>
        <time>2022-06-11T12:54:40Z</time>
      </trkpt>
      <trkpt lat="44.09467" lon="6.97525">
        <ele>1513</ele>
        <time>2022-06-11T12:54:41Z</time>
      </trkpt>
      <trkpt lat="44.09467" lon="6.97522">
        <ele>1513.1</ele>
        <time>2022-06-11T12:54:42Z</time>
      </trkpt>
      <trkpt lat="44.09466" lon="6.97519">
        <ele>1513.1</ele>
        <time>2022-06-11T12:54:43Z</time>
      </trkpt>
      <trkpt lat="44.09465" lon="6.97516">
        <ele>1513.2</ele>
        <time>2022-06-11T12:54:44Z</time>
      </trkpt>
      <trkpt lat="44.09465" lon="6.97512">
        <ele>1513.3</ele>
        <time>2022-06-11T12:54:45Z</time>
      </trkpt>
      <trkpt lat="44.09464" lon="6.97509">
        <ele>1513.5</ele>
        <time>2022-06-11T12:54:46Z</time>
      </trkpt>
      <trkpt lat="44.09464" lon="6.97506">
        <ele>1513.9</ele>
        <time>2022-06-11T12:54:47Z</time>
      </trkpt>
      <trkpt lat="44.09464" lon="6.97503">
        <ele>1514.1</ele>
        <time>2022-06-11T12:54:48Z</time>
      </trkpt>
      <trkpt lat="44.09463" lon="6.975">
        <ele>1514.1</ele>
        <time>2022-06-11T12:54:49Z</time>
      </trkpt>
      <trkpt lat="44.09463" lon="6.97497">
        <ele>1514.4</ele>
        <time>2022-06-11T12:54:50Z</time>
      </trkpt>
      <trkpt lat="44.09462" lon="6.97493">
        <ele>1514.7</ele>
        <time>2022-06-11T12:54:51Z</time>
      </trkpt>
      <trkpt lat="44.09462" lon="6.9749">
        <ele>1515.1</ele>
        <time>2022-06-11T12:54:52Z</time>
      </trkpt>
      <trkpt lat="44.09462" lon="6.97487">
        <ele>1515.4</ele>
        <time>2022-06-11T12:54:53Z</time>
      </trkpt>
      <trkpt lat="44.09461" lon="6.97484">
        <ele>1515.6</ele>
        <time>2022-06-11T12:54:54Z</time>
      </trkpt>
      <trkpt lat="44.0946" lon="6.97482">
        <ele>1515.7</ele>
        <time>2022-06-11T12:54:55Z</time>
      </trkpt>
      <trkpt lat="44.0946" lon="6.97479">
        <ele>1516.1</ele>
        <time>2022-06-11T12:54:56Z</time>
      </trkpt>
      <trkpt lat="44.09459" lon="6.97476">
        <ele>1516.3</ele>
        <time>2022-06-11T12:54:57Z</time>
      </trkpt>
      <trkpt lat="44.09459" lon="6.97473">
        <ele>1516.6</ele>
        <time>2022-06-11T12:54:58Z</time>
      </trkpt>
      <trkpt lat="44.09459" lon="6.9747">
        <ele>1516.7</ele>
        <time>2022-06-11T12:54:59Z</time>
      </trkpt>
      <trkpt lat="44.09458" lon="6.97467">
        <ele>1516.9</ele>
        <time>2022-06-11T12:55:00Z</time>
      </trkpt>
      <trkpt lat="44.09459" lon="6.97464">
        <ele>1517.1</ele>
        <time>2022-06-11T12:55:01Z</time>
      </trkpt>
      <trkpt lat="44.09458" lon="6.97462">
        <ele>1517.3</ele>
        <time>2022-06-11T12:55:02Z</time>
      </trkpt>
      <trkpt lat="44.09458" lon="6.97459">
        <ele>1517.3</ele>
        <time>2022-06-11T12:55:03Z</time>
      </trkpt>
      <trkpt lat="44.09458" lon="6.97455">
        <ele>1517.4</ele>
        <time>2022-06-11T12:55:04Z</time>
      </trkpt>
      <trkpt lat="44.09457" lon="6.97452">
        <ele>1517.5</ele>
        <time>2022-06-11T12:55:05Z</time>
      </trkpt>
      <trkpt lat="44.09458" lon="6.97449">
        <ele>1517.8</ele>
        <time>2022-06-11T12:55:06Z</time>
      </trkpt>
      <trkpt lat="44.09458" lon="6.97446">
        <ele>1518.1</ele>
        <time>2022-06-11T12:55:07Z</time>
      </trkpt>
      <trkpt lat="44.09458" lon="6.97443">
        <ele>1518.3</ele>
        <time>2022-06-11T12:55:08Z</time>
      </trkpt>
      <trkpt lat="44.09458" lon="6.9744">
        <ele>1518.4</ele>
        <time>2022-06-11T12:55:09Z</time>
      </trkpt>
      <trkpt lat="44.09459" lon="6.97437">
        <ele>1518.8</ele>
        <time>2022-06-11T12:55:10Z</time>
      </trkpt>
      <trkpt lat="44.09459" lon="6.97435">
        <ele>1519.1</ele>
        <time>2022-06-11T12:55:11Z</time>
      </trkpt>
      <trkpt lat="44.0946" lon="6.97432">
        <ele>1519.4</ele>
        <time>2022-06-11T12:55:12Z</time>
      </trkpt>
      <trkpt lat="44.0946" lon="6.97429">
        <ele>1519.7</ele>
        <time>2022-06-11T12:55:13Z</time>
      </trkpt>
      <trkpt lat="44.09461" lon="6.97426">
        <ele>1520.1</ele>
        <time>2022-06-11T12:55:14Z</time>
      </trkpt>
      <trkpt lat="44.09462" lon="6.97423">
        <ele>1520.5</ele>
        <time>2022-06-11T12:55:15Z</time>
      </trkpt>
      <trkpt lat="44.09462" lon="6.9742">
        <ele>1520.8</ele>
        <time>2022-06-11T12:55:16Z</time>
      </trkpt>
      <trkpt lat="44.09462" lon="6.97417">
        <ele>1520.9</ele>
        <time>2022-06-11T12:55:17Z</time>
      </trkpt>
      <trkpt lat="44.09462" lon="6.97414">
        <ele>1520.8</ele>
        <time>2022-06-11T12:55:18Z</time>
      </trkpt>
      <trkpt lat="44.09462" lon="6.97411">
        <ele>1520.8</ele>
        <time>2022-06-11T12:55:19Z</time>
      </trkpt>
      <trkpt lat="44.09462" lon="6.97408">
        <ele>1520.7</ele>
        <time>2022-06-11T12:55:20Z</time>
      </trkpt>
      <trkpt lat="44.09461" lon="6.97405">
        <ele>1520.4</ele>
        <time>2022-06-11T12:55:21Z</time>
      </trkpt>
      <trkpt lat="44.09461" lon="6.97402">
        <ele>1520.3</ele>
        <time>2022-06-11T12:55:22Z</time>
      </trkpt>
      <trkpt lat="44.09461" lon="6.97399">
        <ele>1520.1</ele>
        <time>2022-06-11T12:55:23Z</time>
      </trkpt>
      <trkpt lat="44.0946" lon="6.97396">
        <ele>1519.7</ele>
        <time>2022-06-11T12:55:24Z</time>
      </trkpt>
      <trkpt lat="44.09459" lon="6.97392">
        <ele>1519.3</ele>
        <time>2022-06-11T12:55:25Z</time>
      </trkpt>
      <trkpt lat="44.09458" lon="6.9739">
        <ele>1518.8</ele>
        <time>2022-06-11T12:55:26Z</time>
      </trkpt>
      <trkpt lat="44.09457" lon="6.97387">
        <ele>1518.6</ele>
        <time>2022-06-11T12:55:27Z</time>
      </trkpt>
      <trkpt lat="44.09455" lon="6.97385">
        <ele>1518.3</ele>
        <time>2022-06-11T12:55:28Z</time>
      </trkpt>
      <trkpt lat="44.09454" lon="6.97383">
        <ele>1518.1</ele>
        <time>2022-06-11T12:55:29Z</time>
      </trkpt>
      <trkpt lat="44.09452" lon="6.97381">
        <ele>1517.9</ele>
        <time>2022-06-11T12:55:30Z</time>
      </trkpt>
      <trkpt lat="44.0945" lon="6.97379">
        <ele>1517.6</ele>
        <time>2022-06-11T12:55:31Z</time>
      </trkpt>
      <trkpt lat="44.09448" lon="6.97377">
        <ele>1517.2</ele>
        <time>2022-06-11T12:55:32Z</time>
      </trkpt>
      <trkpt lat="44.09446" lon="6.97376">
        <ele>1516.9</ele>
        <time>2022-06-11T12:55:33Z</time>
      </trkpt>
      <trkpt lat="44.09445" lon="6.97375">
        <ele>1516.5</ele>
        <time>2022-06-11T12:55:34Z</time>
      </trkpt>
      <trkpt lat="44.09443" lon="6.97374">
        <ele>1516.8</ele>
        <time>2022-06-11T12:55:35Z</time>
      </trkpt>
      <trkpt lat="44.09442" lon="6.97373">
        <ele>1517.1</ele>
        <time>2022-06-11T12:55:36Z</time>
      </trkpt>
      <trkpt lat="44.09442" lon="6.97372">
        <ele>1517.5</ele>
        <time>2022-06-11T12:55:37Z</time>
      </trkpt>
      <trkpt lat="44.09442" lon="6.97371">
        <ele>1517.6</ele>
        <time>2022-06-11T12:55:38Z</time>
      </trkpt>
      <trkpt lat="44.09442" lon="6.97371">
        <ele>1517.6</ele>
        <time>2022-06-11T12:55:39Z</time>
      </trkpt>
      <trkpt lat="44.09436" lon="6.97372">
        <ele>1518.1</ele>
        <time>2022-06-11T12:58:42Z</time>
      </trkpt>
      <trkpt lat="44.09434" lon="6.97373">
        <ele>1518.3</ele>
        <time>2022-06-11T12:58:43Z</time>
      </trkpt>
      <trkpt lat="44.09432" lon="6.97373">
        <ele>1518.5</ele>
        <time>2022-06-11T12:58:44Z</time>
      </trkpt>
      <trkpt lat="44.09429" lon="6.97373">
        <ele>1518.8</ele>
        <time>2022-06-11T12:58:45Z</time>
      </trkpt>
      <trkpt lat="44.09427" lon="6.97373">
        <ele>1518.9</ele>
        <time>2022-06-11T12:58:46Z</time>
      </trkpt>
      <trkpt lat="44.09424" lon="6.97374">
        <ele>1518.9</ele>
        <time>2022-06-11T12:58:47Z</time>
      </trkpt>
      <trkpt lat="44.09422" lon="6.97376">
        <ele>1518.7</ele>
        <time>2022-06-11T12:58:48Z</time>
      </trkpt>
      <trkpt lat="44.0942" lon="6.97377">
        <ele>1518.6</ele>
        <time>2022-06-11T12:58:49Z</time>
      </trkpt>
      <trkpt lat="44.09417" lon="6.97378">
        <ele>1518.5</ele>
        <time>2022-06-11T12:58:50Z</time>
      </trkpt>
      <trkpt lat="44.09415" lon="6.97378">
        <ele>1518.6</ele>
        <time>2022-06-11T12:58:51Z</time>
      </trkpt>
      <trkpt lat="44.09413" lon="6.9738">
        <ele>1518.8</ele>
        <time>2022-06-11T12:58:52Z</time>
      </trkpt>
      <trkpt lat="44.09411" lon="6.97381">
        <ele>1518.8</ele>
        <time>2022-06-11T12:58:53Z</time>
      </trkpt>
      <trkpt lat="44.09409" lon="6.97382">
        <ele>1519.1</ele>
        <time>2022-06-11T12:58:54Z</time>
      </trkpt>
      <trkpt lat="44.09407" lon="6.97383">
        <ele>1519.3</ele>
        <time>2022-06-11T12:58:55Z</time>
      </trkpt>
      <trkpt lat="44.09404" lon="6.97384">
        <ele>1519.5</ele>
        <time>2022-06-11T12:58:56Z</time>
      </trkpt>
      <trkpt lat="44.09402" lon="6.97385">
        <ele>1519.8</ele>
        <time>2022-06-11T12:58:57Z</time>
      </trkpt>
      <trkpt lat="44.094" lon="6.97386">
        <ele>1520.2</ele>
        <time>2022-06-11T12:58:58Z</time>
      </trkpt>
      <trkpt lat="44.09398" lon="6.97386">
        <ele>1520.6</ele>
        <time>2022-06-11T12:58:59Z</time>
      </trkpt>
      <trkpt lat="44.09395" lon="6.97387">
        <ele>1521</ele>
        <time>2022-06-11T12:59:00Z</time>
      </trkpt>
      <trkpt lat="44.09393" lon="6.97388">
        <ele>1521.1</ele>
        <time>2022-06-11T12:59:01Z</time>
      </trkpt>
      <trkpt lat="44.09391" lon="6.97389">
        <ele>1521.4</ele>
        <time>2022-06-11T12:59:02Z</time>
      </trkpt>
      <trkpt lat="44.09389" lon="6.9739">
        <ele>1521.8</ele>
        <time>2022-06-11T12:59:03Z</time>
      </trkpt>
      <trkpt lat="44.09387" lon="6.9739">
        <ele>1521.7</ele>
        <time>2022-06-11T12:59:04Z</time>
      </trkpt>
      <trkpt lat="44.09384" lon="6.97391">
        <ele>1521.8</ele>
        <time>2022-06-11T12:59:05Z</time>
      </trkpt>
      <trkpt lat="44.09382" lon="6.97391">
        <ele>1522</ele>
        <time>2022-06-11T12:59:06Z</time>
      </trkpt>
      <trkpt lat="44.0938" lon="6.97391">
        <ele>1522</ele>
        <time>2022-06-11T12:59:07Z</time>
      </trkpt>
      <trkpt lat="44.09377" lon="6.97391">
        <ele>1522.2</ele>
        <time>2022-06-11T12:59:08Z</time>
      </trkpt>
      <trkpt lat="44.09375" lon="6.97391">
        <ele>1522.5</ele>
        <time>2022-06-11T12:59:09Z</time>
      </trkpt>
      <trkpt lat="44.09373" lon="6.9739">
        <ele>1522.8</ele>
        <time>2022-06-11T12:59:10Z</time>
      </trkpt>
      <trkpt lat="44.09371" lon="6.9739">
        <ele>1523</ele>
        <time>2022-06-11T12:59:11Z</time>
      </trkpt>
      <trkpt lat="44.09369" lon="6.9739">
        <ele>1523.3</ele>
        <time>2022-06-11T12:59:12Z</time>
      </trkpt>
      <trkpt lat="44.09367" lon="6.97389">
        <ele>1523.6</ele>
        <time>2022-06-11T12:59:13Z</time>
      </trkpt>
      <trkpt lat="44.09365" lon="6.97388">
        <ele>1524.1</ele>
        <time>2022-06-11T12:59:14Z</time>
      </trkpt>
      <trkpt lat="44.09363" lon="6.97387">
        <ele>1524.6</ele>
        <time>2022-06-11T12:59:15Z</time>
      </trkpt>
      <trkpt lat="44.09361" lon="6.97385">
        <ele>1525.1</ele>
        <time>2022-06-11T12:59:16Z</time>
      </trkpt>
      <trkpt lat="44.09359" lon="6.97383">
        <ele>1525.3</ele>
        <time>2022-06-11T12:59:17Z</time>
      </trkpt>
      <trkpt lat="44.09357" lon="6.97381">
        <ele>1525.5</ele>
        <time>2022-06-11T12:59:18Z</time>
      </trkpt>
      <trkpt lat="44.09355" lon="6.97379">
        <ele>1525.8</ele>
        <time>2022-06-11T12:59:19Z</time>
      </trkpt>
      <trkpt lat="44.09354" lon="6.97377">
        <ele>1526.1</ele>
        <time>2022-06-11T12:59:20Z</time>
      </trkpt>
      <trkpt lat="44.09352" lon="6.97375">
        <ele>1526.3</ele>
        <time>2022-06-11T12:59:21Z</time>
      </trkpt>
      <trkpt lat="44.09351" lon="6.97373">
        <ele>1526.8</ele>
        <time>2022-06-11T12:59:22Z</time>
      </trkpt>
      <trkpt lat="44.0935" lon="6.97371">
        <ele>1527.1</ele>
        <time>2022-06-11T12:59:23Z</time>
      </trkpt>
      <trkpt lat="44.09348" lon="6.97369">
        <ele>1527.4</ele>
        <time>2022-06-11T12:59:24Z</time>
      </trkpt>
      <trkpt lat="44.09347" lon="6.97367">
        <ele>1527.7</ele>
        <time>2022-06-11T12:59:25Z</time>
      </trkpt>
      <trkpt lat="44.09345" lon="6.97365">
        <ele>1527.8</ele>
        <time>2022-06-11T12:59:26Z</time>
      </trkpt>
      <trkpt lat="44.09344" lon="6.97363">
        <ele>1528</ele>
        <time>2022-06-11T12:59:27Z</time>
      </trkpt>
      <trkpt lat="44.09342" lon="6.97361">
        <ele>1528.3</ele>
        <time>2022-06-11T12:59:28Z</time>
      </trkpt>
      <trkpt lat="44.09341" lon="6.97359">
        <ele>1528.7</ele>
        <time>2022-06-11T12:59:29Z</time>
      </trkpt>
      <trkpt lat="44.09339" lon="6.97356">
        <ele>1529.1</ele>
        <time>2022-06-11T12:59:30Z</time>
      </trkpt>
      <trkpt lat="44.09338" lon="6.97354">
        <ele>1529.4</ele>
        <time>2022-06-11T12:59:31Z</time>
      </trkpt>
      <trkpt lat="44.09337" lon="6.97352">
        <ele>1529.9</ele>
        <time>2022-06-11T12:59:32Z</time>
      </trkpt>
      <trkpt lat="44.09335" lon="6.9735">
        <ele>1530.2</ele>
        <time>2022-06-11T12:59:33Z</time>
      </trkpt>
      <trkpt lat="44.09334" lon="6.97348">
        <ele>1530.5</ele>
        <time>2022-06-11T12:59:34Z</time>
      </trkpt>
      <trkpt lat="44.09332" lon="6.97346">
        <ele>1530.7</ele>
        <time>2022-06-11T12:59:35Z</time>
      </trkpt>
      <trkpt lat="44.09331" lon="6.97343">
        <ele>1531</ele>
        <time>2022-06-11T12:59:36Z</time>
      </trkpt>
      <trkpt lat="44.09329" lon="6.97341">
        <ele>1531.2</ele>
        <time>2022-06-11T12:59:37Z</time>
      </trkpt>
      <trkpt lat="44.09327" lon="6.97339">
        <ele>1531.4</ele>
        <time>2022-06-11T12:59:38Z</time>
      </trkpt>
      <trkpt lat="44.09326" lon="6.97337">
        <ele>1531.6</ele>
        <time>2022-06-11T12:59:39Z</time>
      </trkpt>
      <trkpt lat="44.09324" lon="6.97335">
        <ele>1531.8</ele>
        <time>2022-06-11T12:59:40Z</time>
      </trkpt>
      <trkpt lat="44.09323" lon="6.97333">
        <ele>1532</ele>
        <time>2022-06-11T12:59:41Z</time>
      </trkpt>
      <trkpt lat="44.09321" lon="6.97331">
        <ele>1532.2</ele>
        <time>2022-06-11T12:59:42Z</time>
      </trkpt>
      <trkpt lat="44.09319" lon="6.97329">
        <ele>1532.4</ele>
        <time>2022-06-11T12:59:43Z</time>
      </trkpt>
      <trkpt lat="44.09318" lon="6.97327">
        <ele>1532.8</ele>
        <time>2022-06-11T12:59:44Z</time>
      </trkpt>
      <trkpt lat="44.09316" lon="6.97325">
        <ele>1533</ele>
        <time>2022-06-11T12:59:45Z</time>
      </trkpt>
      <trkpt lat="44.09315" lon="6.97322">
        <ele>1533.2</ele>
        <time>2022-06-11T12:59:46Z</time>
      </trkpt>
      <trkpt lat="44.09313" lon="6.9732">
        <ele>1533.5</ele>
        <time>2022-06-11T12:59:47Z</time>
      </trkpt>
      <trkpt lat="44.09312" lon="6.97318">
        <ele>1533.7</ele>
        <time>2022-06-11T12:59:48Z</time>
      </trkpt>
      <trkpt lat="44.0931" lon="6.97316">
        <ele>1533.9</ele>
        <time>2022-06-11T12:59:49Z</time>
      </trkpt>
      <trkpt lat="44.09308" lon="6.97314">
        <ele>1534</ele>
        <time>2022-06-11T12:59:50Z</time>
      </trkpt>
      <trkpt lat="44.09307" lon="6.97312">
        <ele>1534.3</ele>
        <time>2022-06-11T12:59:51Z</time>
      </trkpt>
      <trkpt lat="44.09305" lon="6.9731">
        <ele>1534.6</ele>
        <time>2022-06-11T12:59:52Z</time>
      </trkpt>
      <trkpt lat="44.09304" lon="6.97308">
        <ele>1534.9</ele>
        <time>2022-06-11T12:59:53Z</time>
      </trkpt>
      <trkpt lat="44.09302" lon="6.97305">
        <ele>1535.1</ele>
        <time>2022-06-11T12:59:54Z</time>
      </trkpt>
      <trkpt lat="44.09301" lon="6.97303">
        <ele>1535.3</ele>
        <time>2022-06-11T12:59:55Z</time>
      </trkpt>
      <trkpt lat="44.09299" lon="6.97302">
        <ele>1535.5</ele>
        <time>2022-06-11T12:59:56Z</time>
      </trkpt>
      <trkpt lat="44.09297" lon="6.973">
        <ele>1535.5</ele>
        <time>2022-06-11T12:59:57Z</time>
      </trkpt>
      <trkpt lat="44.09296" lon="6.97298">
        <ele>1535.5</ele>
        <time>2022-06-11T12:59:58Z</time>
      </trkpt>
      <trkpt lat="44.09294" lon="6.97297">
        <ele>1535.7</ele>
        <time>2022-06-11T12:59:59Z</time>
      </trkpt>
      <trkpt lat="44.09292" lon="6.97295">
        <ele>1535.9</ele>
        <time>2022-06-11T13:00:00Z</time>
      </trkpt>
      <trkpt lat="44.0929" lon="6.97293">
        <ele>1535.9</ele>
        <time>2022-06-11T13:00:01Z</time>
      </trkpt>
      <trkpt lat="44.09288" lon="6.97292">
        <ele>1535.6</ele>
        <time>2022-06-11T13:00:02Z</time>
      </trkpt>
      <trkpt lat="44.09286" lon="6.97292">
        <ele>1535.3</ele>
        <time>2022-06-11T13:00:03Z</time>
      </trkpt>
      <trkpt lat="44.09284" lon="6.9729">
        <ele>1535.2</ele>
        <time>2022-06-11T13:00:04Z</time>
      </trkpt>
      <trkpt lat="44.09282" lon="6.97289">
        <ele>1535.2</ele>
        <time>2022-06-11T13:00:05Z</time>
      </trkpt>
      <trkpt lat="44.0928" lon="6.97287">
        <ele>1535.3</ele>
        <time>2022-06-11T13:00:06Z</time>
      </trkpt>
      <trkpt lat="44.09279" lon="6.97286">
        <ele>1535.4</ele>
        <time>2022-06-11T13:00:07Z</time>
      </trkpt>
      <trkpt lat="44.09277" lon="6.97284">
        <ele>1535.8</ele>
        <time>2022-06-11T13:00:08Z</time>
      </trkpt>
      <trkpt lat="44.09276" lon="6.97282">
        <ele>1536.1</ele>
        <time>2022-06-11T13:00:09Z</time>
      </trkpt>
      <trkpt lat="44.09274" lon="6.9728">
        <ele>1536.4</ele>
        <time>2022-06-11T13:00:10Z</time>
      </trkpt>
      <trkpt lat="44.09272" lon="6.97278">
        <ele>1536.6</ele>
        <time>2022-06-11T13:00:11Z</time>
      </trkpt>
      <trkpt lat="44.0927" lon="6.97277">
        <ele>1536.7</ele>
        <time>2022-06-11T13:00:12Z</time>
      </trkpt>
      <trkpt lat="44.09268" lon="6.97275">
        <ele>1536.7</ele>
        <time>2022-06-11T13:00:13Z</time>
      </trkpt>
      <trkpt lat="44.09266" lon="6.97274">
        <ele>1536.8</ele>
        <time>2022-06-11T13:00:14Z</time>
      </trkpt>
      <trkpt lat="44.09264" lon="6.97272">
        <ele>1536.9</ele>
        <time>2022-06-11T13:00:15Z</time>
      </trkpt>
      <trkpt lat="44.09262" lon="6.97271">
        <ele>1536.8</ele>
        <time>2022-06-11T13:00:16Z</time>
      </trkpt>
      <trkpt lat="44.0926" lon="6.9727">
        <ele>1536.7</ele>
        <time>2022-06-11T13:00:17Z</time>
      </trkpt>
      <trkpt lat="44.09258" lon="6.97269">
        <ele>1536.7</ele>
        <time>2022-06-11T13:00:18Z</time>
      </trkpt>
      <trkpt lat="44.09256" lon="6.97267">
        <ele>1536.8</ele>
        <time>2022-06-11T13:00:19Z</time>
      </trkpt>
      <trkpt lat="44.09254" lon="6.97266">
        <ele>1536.7</ele>
        <time>2022-06-11T13:00:20Z</time>
      </trkpt>
      <trkpt lat="44.09252" lon="6.97265">
        <ele>1536.7</ele>
        <time>2022-06-11T13:00:21Z</time>
      </trkpt>
      <trkpt lat="44.0925" lon="6.97264">
        <ele>1536.6</ele>
        <time>2022-06-11T13:00:22Z</time>
      </trkpt>
      <trkpt lat="44.09248" lon="6.97262">
        <ele>1536.7</ele>
        <time>2022-06-11T13:00:23Z</time>
      </trkpt>
      <trkpt lat="44.09246" lon="6.97262">
        <ele>1536.5</ele>
        <time>2022-06-11T13:00:24Z</time>
      </trkpt>
      <trkpt lat="44.09244" lon="6.97261">
        <ele>1536.4</ele>
        <time>2022-06-11T13:00:25Z</time>
      </trkpt>
      <trkpt lat="44.09242" lon="6.9726">
        <ele>1536.4</ele>
        <time>2022-06-11T13:00:26Z</time>
      </trkpt>
      <trkpt lat="44.09239" lon="6.97259">
        <ele>1536.3</ele>
        <time>2022-06-11T13:00:27Z</time>
      </trkpt>
      <trkpt lat="44.09237" lon="6.97257">
        <ele>1536.5</ele>
        <time>2022-06-11T13:00:28Z</time>
      </trkpt>
      <trkpt lat="44.09235" lon="6.97256">
        <ele>1536.6</ele>
        <time>2022-06-11T13:00:29Z</time>
      </trkpt>
      <trkpt lat="44.09233" lon="6.97255">
        <ele>1536.4</ele>
        <time>2022-06-11T13:00:30Z</time>
      </trkpt>
      <trkpt lat="44.09231" lon="6.97254">
        <ele>1536.2</ele>
        <time>2022-06-11T13:00:31Z</time>
      </trkpt>
      <trkpt lat="44.09228" lon="6.97254">
        <ele>1536</ele>
        <time>2022-06-11T13:00:32Z</time>
      </trkpt>
      <trkpt lat="44.09226" lon="6.97253">
        <ele>1536</ele>
        <time>2022-06-11T13:00:33Z</time>
      </trkpt>
      <trkpt lat="44.09224" lon="6.97252">
        <ele>1535.9</ele>
        <time>2022-06-11T13:00:34Z</time>
      </trkpt>
      <trkpt lat="44.09222" lon="6.97251">
        <ele>1535.8</ele>
        <time>2022-06-11T13:00:35Z</time>
      </trkpt>
      <trkpt lat="44.0922" lon="6.9725">
        <ele>1535.7</ele>
        <time>2022-06-11T13:00:36Z</time>
      </trkpt>
      <trkpt lat="44.09218" lon="6.97249">
        <ele>1535.5</ele>
        <time>2022-06-11T13:00:37Z</time>
      </trkpt>
      <trkpt lat="44.09216" lon="6.97248">
        <ele>1535.5</ele>
        <time>2022-06-11T13:00:38Z</time>
      </trkpt>
      <trkpt lat="44.09214" lon="6.97246">
        <ele>1535.5</ele>
        <time>2022-06-11T13:00:39Z</time>
      </trkpt>
      <trkpt lat="44.09212" lon="6.97245">
        <ele>1535.5</ele>
        <time>2022-06-11T13:00:40Z</time>
      </trkpt>
      <trkpt lat="44.0921" lon="6.97243">
        <ele>1535.6</ele>
        <time>2022-06-11T13:00:41Z</time>
      </trkpt>
      <trkpt lat="44.09208" lon="6.97241">
        <ele>1535.8</ele>
        <time>2022-06-11T13:00:42Z</time>
      </trkpt>
      <trkpt lat="44.09206" lon="6.9724">
        <ele>1535.9</ele>
        <time>2022-06-11T13:00:43Z</time>
      </trkpt>
      <trkpt lat="44.09204" lon="6.97238">
        <ele>1536</ele>
        <time>2022-06-11T13:00:44Z</time>
      </trkpt>
      <trkpt lat="44.09202" lon="6.97237">
        <ele>1536.1</ele>
        <time>2022-06-11T13:00:45Z</time>
      </trkpt>
      <trkpt lat="44.092" lon="6.97235">
        <ele>1536.2</ele>
        <time>2022-06-11T13:00:46Z</time>
      </trkpt>
      <trkpt lat="44.09198" lon="6.97233">
        <ele>1536.4</ele>
        <time>2022-06-11T13:00:47Z</time>
      </trkpt>
      <trkpt lat="44.09196" lon="6.97231">
        <ele>1536.7</ele>
        <time>2022-06-11T13:00:48Z</time>
      </trkpt>
      <trkpt lat="44.09194" lon="6.97229">
        <ele>1536.8</ele>
        <time>2022-06-11T13:00:49Z</time>
      </trkpt>
      <trkpt lat="44.09192" lon="6.97227">
        <ele>1537.2</ele>
        <time>2022-06-11T13:00:50Z</time>
      </trkpt>
      <trkpt lat="44.0919" lon="6.97225">
        <ele>1537.5</ele>
        <time>2022-06-11T13:00:51Z</time>
      </trkpt>
      <trkpt lat="44.09188" lon="6.97223">
        <ele>1537.9</ele>
        <time>2022-06-11T13:00:52Z</time>
      </trkpt>
      <trkpt lat="44.09186" lon="6.97221">
        <ele>1538.2</ele>
        <time>2022-06-11T13:00:53Z</time>
      </trkpt>
      <trkpt lat="44.09184" lon="6.97219">
        <ele>1538.4</ele>
        <time>2022-06-11T13:00:54Z</time>
      </trkpt>
      <trkpt lat="44.09182" lon="6.97217">
        <ele>1538.7</ele>
        <time>2022-06-11T13:00:55Z</time>
      </trkpt>
      <trkpt lat="44.09181" lon="6.97215">
        <ele>1538.9</ele>
        <time>2022-06-11T13:00:56Z</time>
      </trkpt>
      <trkpt lat="44.09179" lon="6.97213">
        <ele>1539.2</ele>
        <time>2022-06-11T13:00:57Z</time>
      </trkpt>
      <trkpt lat="44.09177" lon="6.97211">
        <ele>1539.4</ele>
        <time>2022-06-11T13:00:58Z</time>
      </trkpt>
      <trkpt lat="44.09175" lon="6.97208">
        <ele>1539.7</ele>
        <time>2022-06-11T13:00:59Z</time>
      </trkpt>
      <trkpt lat="44.09173" lon="6.97206">
        <ele>1540</ele>
        <time>2022-06-11T13:01:00Z</time>
      </trkpt>
      <trkpt lat="44.09172" lon="6.97204">
        <ele>1540.3</ele>
        <time>2022-06-11T13:01:01Z</time>
      </trkpt>
      <trkpt lat="44.0917" lon="6.97203">
        <ele>1540.5</ele>
        <time>2022-06-11T13:01:02Z</time>
      </trkpt>
      <trkpt lat="44.09168" lon="6.97201">
        <ele>1540.7</ele>
        <time>2022-06-11T13:01:03Z</time>
      </trkpt>
      <trkpt lat="44.09166" lon="6.97199">
        <ele>1540.9</ele>
        <time>2022-06-11T13:01:04Z</time>
      </trkpt>
      <trkpt lat="44.09164" lon="6.97197">
        <ele>1541.2</ele>
        <time>2022-06-11T13:01:05Z</time>
      </trkpt>
      <trkpt lat="44.09163" lon="6.97195">
        <ele>1541.5</ele>
        <time>2022-06-11T13:01:06Z</time>
      </trkpt>
      <trkpt lat="44.09161" lon="6.97192">
        <ele>1541.8</ele>
        <time>2022-06-11T13:01:07Z</time>
      </trkpt>
      <trkpt lat="44.09159" lon="6.9719">
        <ele>1542.1</ele>
        <time>2022-06-11T13:01:08Z</time>
      </trkpt>
      <trkpt lat="44.09158" lon="6.97188">
        <ele>1542.3</ele>
        <time>2022-06-11T13:01:09Z</time>
      </trkpt>
      <trkpt lat="44.09156" lon="6.97186">
        <ele>1542.6</ele>
        <time>2022-06-11T13:01:10Z</time>
      </trkpt>
      <trkpt lat="44.09155" lon="6.97184">
        <ele>1542.8</ele>
        <time>2022-06-11T13:01:11Z</time>
      </trkpt>
      <trkpt lat="44.09153" lon="6.97182">
        <ele>1543</ele>
        <time>2022-06-11T13:01:12Z</time>
      </trkpt>
      <trkpt lat="44.09151" lon="6.9718">
        <ele>1543.2</ele>
        <time>2022-06-11T13:01:13Z</time>
      </trkpt>
      <trkpt lat="44.09149" lon="6.97178">
        <ele>1543.4</ele>
        <time>2022-06-11T13:01:14Z</time>
      </trkpt>
      <trkpt lat="44.09148" lon="6.97176">
        <ele>1543.5</ele>
        <time>2022-06-11T13:01:15Z</time>
      </trkpt>
      <trkpt lat="44.09146" lon="6.97174">
        <ele>1543.6</ele>
        <time>2022-06-11T13:01:16Z</time>
      </trkpt>
      <trkpt lat="44.09144" lon="6.97172">
        <ele>1543.7</ele>
        <time>2022-06-11T13:01:17Z</time>
      </trkpt>
      <trkpt lat="44.09142" lon="6.9717">
        <ele>1543.8</ele>
        <time>2022-06-11T13:01:18Z</time>
      </trkpt>
      <trkpt lat="44.09141" lon="6.97168">
        <ele>1543.9</ele>
        <time>2022-06-11T13:01:19Z</time>
      </trkpt>
      <trkpt lat="44.09139" lon="6.97166">
        <ele>1544.1</ele>
        <time>2022-06-11T13:01:20Z</time>
      </trkpt>
      <trkpt lat="44.09138" lon="6.97164">
        <ele>1544.5</ele>
        <time>2022-06-11T13:01:21Z</time>
      </trkpt>
      <trkpt lat="44.09136" lon="6.97162">
        <ele>1544.8</ele>
        <time>2022-06-11T13:01:22Z</time>
      </trkpt>
      <trkpt lat="44.09134" lon="6.9716">
        <ele>1545.2</ele>
        <time>2022-06-11T13:01:23Z</time>
      </trkpt>
      <trkpt lat="44.09133" lon="6.97158">
        <ele>1545.5</ele>
        <time>2022-06-11T13:01:24Z</time>
      </trkpt>
      <trkpt lat="44.09132" lon="6.97156">
        <ele>1545.8</ele>
        <time>2022-06-11T13:01:25Z</time>
      </trkpt>
      <trkpt lat="44.0913" lon="6.97153">
        <ele>1546.1</ele>
        <time>2022-06-11T13:01:26Z</time>
      </trkpt>
      <trkpt lat="44.09128" lon="6.97151">
        <ele>1546.3</ele>
        <time>2022-06-11T13:01:27Z</time>
      </trkpt>
      <trkpt lat="44.09127" lon="6.97149">
        <ele>1546.6</ele>
        <time>2022-06-11T13:01:28Z</time>
      </trkpt>
      <trkpt lat="44.09125" lon="6.97148">
        <ele>1546.7</ele>
        <time>2022-06-11T13:01:29Z</time>
      </trkpt>
      <trkpt lat="44.09123" lon="6.97145">
        <ele>1546.9</ele>
        <time>2022-06-11T13:01:30Z</time>
      </trkpt>
      <trkpt lat="44.09122" lon="6.97143">
        <ele>1547.1</ele>
        <time>2022-06-11T13:01:31Z</time>
      </trkpt>
      <trkpt lat="44.09121" lon="6.9714">
        <ele>1547.3</ele>
        <time>2022-06-11T13:01:32Z</time>
      </trkpt>
      <trkpt lat="44.0912" lon="6.97137">
        <ele>1547.5</ele>
        <time>2022-06-11T13:01:33Z</time>
      </trkpt>
      <trkpt lat="44.09118" lon="6.97135">
        <ele>1547.6</ele>
        <time>2022-06-11T13:01:34Z</time>
      </trkpt>
      <trkpt lat="44.09117" lon="6.97132">
        <ele>1547.8</ele>
        <time>2022-06-11T13:01:35Z</time>
      </trkpt>
      <trkpt lat="44.09116" lon="6.97129">
        <ele>1547.9</ele>
        <time>2022-06-11T13:01:36Z</time>
      </trkpt>
      <trkpt lat="44.09115" lon="6.97127">
        <ele>1548.1</ele>
        <time>2022-06-11T13:01:37Z</time>
      </trkpt>
      <trkpt lat="44.09114" lon="6.97124">
        <ele>1548.2</ele>
        <time>2022-06-11T13:01:38Z</time>
      </trkpt>
      <trkpt lat="44.09113" lon="6.97121">
        <ele>1548.4</ele>
        <time>2022-06-11T13:01:39Z</time>
      </trkpt>
      <trkpt lat="44.09112" lon="6.97119">
        <ele>1548.5</ele>
        <time>2022-06-11T13:01:40Z</time>
      </trkpt>
      <trkpt lat="44.09111" lon="6.97116">
        <ele>1548.7</ele>
        <time>2022-06-11T13:01:41Z</time>
      </trkpt>
      <trkpt lat="44.0911" lon="6.97113">
        <ele>1549</ele>
        <time>2022-06-11T13:01:42Z</time>
      </trkpt>
      <trkpt lat="44.09109" lon="6.9711">
        <ele>1549.2</ele>
        <time>2022-06-11T13:01:43Z</time>
      </trkpt>
      <trkpt lat="44.09108" lon="6.97108">
        <ele>1549.3</ele>
        <time>2022-06-11T13:01:44Z</time>
      </trkpt>
      <trkpt lat="44.09107" lon="6.97105">
        <ele>1549.5</ele>
        <time>2022-06-11T13:01:45Z</time>
      </trkpt>
      <trkpt lat="44.09106" lon="6.97102">
        <ele>1549.6</ele>
        <time>2022-06-11T13:01:46Z</time>
      </trkpt>
      <trkpt lat="44.09105" lon="6.97099">
        <ele>1549.7</ele>
        <time>2022-06-11T13:01:47Z</time>
      </trkpt>
      <trkpt lat="44.09104" lon="6.97097">
        <ele>1549.8</ele>
        <time>2022-06-11T13:01:48Z</time>
      </trkpt>
      <trkpt lat="44.09103" lon="6.97094">
        <ele>1549.9</ele>
        <time>2022-06-11T13:01:49Z</time>
      </trkpt>
      <trkpt lat="44.09101" lon="6.97091">
        <ele>1549.9</ele>
        <time>2022-06-11T13:01:50Z</time>
      </trkpt>
      <trkpt lat="44.091" lon="6.97089">
        <ele>1550</ele>
        <time>2022-06-11T13:01:51Z</time>
      </trkpt>
      <trkpt lat="44.09099" lon="6.97086">
        <ele>1550</ele>
        <time>2022-06-11T13:01:52Z</time>
      </trkpt>
      <trkpt lat="44.09098" lon="6.97083">
        <ele>1550</ele>
        <time>2022-06-11T13:01:53Z</time>
      </trkpt>
      <trkpt lat="44.09098" lon="6.9708">
        <ele>1550</ele>
        <time>2022-06-11T13:01:54Z</time>
      </trkpt>
      <trkpt lat="44.09097" lon="6.97077">
        <ele>1550</ele>
        <time>2022-06-11T13:01:55Z</time>
      </trkpt>
      <trkpt lat="44.09096" lon="6.97073">
        <ele>1550</ele>
        <time>2022-06-11T13:01:56Z</time>
      </trkpt>
      <trkpt lat="44.09095" lon="6.9707">
        <ele>1549.9</ele>
        <time>2022-06-11T13:01:57Z</time>
      </trkpt>
      <trkpt lat="44.09094" lon="6.97066">
        <ele>1549.9</ele>
        <time>2022-06-11T13:01:58Z</time>
      </trkpt>
      <trkpt lat="44.09093" lon="6.97063">
        <ele>1549.8</ele>
        <time>2022-06-11T13:01:59Z</time>
      </trkpt>
      <trkpt lat="44.09093" lon="6.97059">
        <ele>1549.7</ele>
        <time>2022-06-11T13:02:00Z</time>
      </trkpt>
      <trkpt lat="44.09092" lon="6.97055">
        <ele>1549.6</ele>
        <time>2022-06-11T13:02:01Z</time>
      </trkpt>
      <trkpt lat="44.09091" lon="6.97051">
        <ele>1549.6</ele>
        <time>2022-06-11T13:02:02Z</time>
      </trkpt>
      <trkpt lat="44.09091" lon="6.97048">
        <ele>1549.6</ele>
        <time>2022-06-11T13:02:03Z</time>
      </trkpt>
      <trkpt lat="44.0909" lon="6.97044">
        <ele>1549.6</ele>
        <time>2022-06-11T13:02:04Z</time>
      </trkpt>
      <trkpt lat="44.0909" lon="6.9704">
        <ele>1549.6</ele>
        <time>2022-06-11T13:02:05Z</time>
      </trkpt>
      <trkpt lat="44.09089" lon="6.97036">
        <ele>1549.5</ele>
        <time>2022-06-11T13:02:06Z</time>
      </trkpt>
      <trkpt lat="44.09088" lon="6.97032">
        <ele>1549.5</ele>
        <time>2022-06-11T13:02:07Z</time>
      </trkpt>
      <trkpt lat="44.09088" lon="6.97028">
        <ele>1549.5</ele>
        <time>2022-06-11T13:02:08Z</time>
      </trkpt>
      <trkpt lat="44.09087" lon="6.97024">
        <ele>1549.3</ele>
        <time>2022-06-11T13:02:09Z</time>
      </trkpt>
      <trkpt lat="44.09086" lon="6.97021">
        <ele>1549.1</ele>
        <time>2022-06-11T13:02:10Z</time>
      </trkpt>
      <trkpt lat="44.09085" lon="6.97017">
        <ele>1548.8</ele>
        <time>2022-06-11T13:02:11Z</time>
      </trkpt>
      <trkpt lat="44.09084" lon="6.97013">
        <ele>1548.6</ele>
        <time>2022-06-11T13:02:12Z</time>
      </trkpt>
      <trkpt lat="44.09083" lon="6.97008">
        <ele>1548.3</ele>
        <time>2022-06-11T13:02:13Z</time>
      </trkpt>
      <trkpt lat="44.09082" lon="6.97003">
        <ele>1548</ele>
        <time>2022-06-11T13:02:14Z</time>
      </trkpt>
      <trkpt lat="44.09082" lon="6.96998">
        <ele>1547.9</ele>
        <time>2022-06-11T13:02:15Z</time>
      </trkpt>
      <trkpt lat="44.09082" lon="6.96992">
        <ele>1547.8</ele>
        <time>2022-06-11T13:02:16Z</time>
      </trkpt>
      <trkpt lat="44.09082" lon="6.96986">
        <ele>1547.9</ele>
        <time>2022-06-11T13:02:17Z</time>
      </trkpt>
      <trkpt lat="44.09084" lon="6.9698">
        <ele>1548.1</ele>
        <time>2022-06-11T13:02:18Z</time>
      </trkpt>
      <trkpt lat="44.09087" lon="6.96975">
        <ele>1548.5</ele>
        <time>2022-06-11T13:02:19Z</time>
      </trkpt>
      <trkpt lat="44.0909" lon="6.9697">
        <ele>1548.9</ele>
        <time>2022-06-11T13:02:20Z</time>
      </trkpt>
      <trkpt lat="44.09092" lon="6.96964">
        <ele>1549.4</ele>
        <time>2022-06-11T13:02:21Z</time>
      </trkpt>
      <trkpt lat="44.09095" lon="6.96959">
        <ele>1549.8</ele>
        <time>2022-06-11T13:02:22Z</time>
      </trkpt>
      <trkpt lat="44.09097" lon="6.96953">
        <ele>1550.2</ele>
        <time>2022-06-11T13:02:23Z</time>
      </trkpt>
      <trkpt lat="44.09098" lon="6.96947">
        <ele>1550.7</ele>
        <time>2022-06-11T13:02:24Z</time>
      </trkpt>
      <trkpt lat="44.091" lon="6.9694">
        <ele>1550.9</ele>
        <time>2022-06-11T13:02:25Z</time>
      </trkpt>
      <trkpt lat="44.09101" lon="6.96933">
        <ele>1551.1</ele>
        <time>2022-06-11T13:02:26Z</time>
      </trkpt>
      <trkpt lat="44.09102" lon="6.96927">
        <ele>1551.4</ele>
        <time>2022-06-11T13:02:27Z</time>
      </trkpt>
      <trkpt lat="44.09104" lon="6.9692">
        <ele>1551.6</ele>
        <time>2022-06-11T13:02:28Z</time>
      </trkpt>
      <trkpt lat="44.09105" lon="6.96914">
        <ele>1551.9</ele>
        <time>2022-06-11T13:02:29Z</time>
      </trkpt>
      <trkpt lat="44.09105" lon="6.96908">
        <ele>1552.2</ele>
        <time>2022-06-11T13:02:30Z</time>
      </trkpt>
      <trkpt lat="44.09106" lon="6.96901">
        <ele>1552.5</ele>
        <time>2022-06-11T13:02:31Z</time>
      </trkpt>
      <trkpt lat="44.09106" lon="6.96895">
        <ele>1552.7</ele>
        <time>2022-06-11T13:02:32Z</time>
      </trkpt>
      <trkpt lat="44.09106" lon="6.96889">
        <ele>1552.9</ele>
        <time>2022-06-11T13:02:33Z</time>
      </trkpt>
      <trkpt lat="44.09106" lon="6.96882">
        <ele>1553</ele>
        <time>2022-06-11T13:02:34Z</time>
      </trkpt>
      <trkpt lat="44.09106" lon="6.96876">
        <ele>1553.2</ele>
        <time>2022-06-11T13:02:35Z</time>
      </trkpt>
      <trkpt lat="44.09105" lon="6.96869">
        <ele>1553.3</ele>
        <time>2022-06-11T13:02:36Z</time>
      </trkpt>
      <trkpt lat="44.09105" lon="6.96862">
        <ele>1553.4</ele>
        <time>2022-06-11T13:02:37Z</time>
      </trkpt>
      <trkpt lat="44.09105" lon="6.96855">
        <ele>1553.4</ele>
        <time>2022-06-11T13:02:38Z</time>
      </trkpt>
      <trkpt lat="44.09104" lon="6.96848">
        <ele>1553.2</ele>
        <time>2022-06-11T13:02:39Z</time>
      </trkpt>
      <trkpt lat="44.09103" lon="6.96842">
        <ele>1553</ele>
        <time>2022-06-11T13:02:40Z</time>
      </trkpt>
      <trkpt lat="44.09102" lon="6.96835">
        <ele>1552.8</ele>
        <time>2022-06-11T13:02:41Z</time>
      </trkpt>
      <trkpt lat="44.09101" lon="6.96828">
        <ele>1552.5</ele>
        <time>2022-06-11T13:02:42Z</time>
      </trkpt>
      <trkpt lat="44.091" lon="6.96821">
        <ele>1552.3</ele>
        <time>2022-06-11T13:02:43Z</time>
      </trkpt>
      <trkpt lat="44.09099" lon="6.96815">
        <ele>1552.2</ele>
        <time>2022-06-11T13:02:44Z</time>
      </trkpt>
      <trkpt lat="44.09097" lon="6.96808">
        <ele>1552</ele>
        <time>2022-06-11T13:02:45Z</time>
      </trkpt>
      <trkpt lat="44.09096" lon="6.96801">
        <ele>1551.9</ele>
        <time>2022-06-11T13:02:46Z</time>
      </trkpt>
      <trkpt lat="44.09094" lon="6.96795">
        <ele>1551.9</ele>
        <time>2022-06-11T13:02:47Z</time>
      </trkpt>
      <trkpt lat="44.09093" lon="6.96788">
        <ele>1551.9</ele>
        <time>2022-06-11T13:02:48Z</time>
      </trkpt>
      <trkpt lat="44.09092" lon="6.96782">
        <ele>1551.9</ele>
        <time>2022-06-11T13:02:49Z</time>
      </trkpt>
      <trkpt lat="44.0909" lon="6.96776">
        <ele>1552</ele>
        <time>2022-06-11T13:02:50Z</time>
      </trkpt>
      <trkpt lat="44.09089" lon="6.9677">
        <ele>1552.3</ele>
        <time>2022-06-11T13:02:51Z</time>
      </trkpt>
      <trkpt lat="44.09088" lon="6.96764">
        <ele>1552.6</ele>
        <time>2022-06-11T13:02:52Z</time>
      </trkpt>
      <trkpt lat="44.09086" lon="6.96758">
        <ele>1552.9</ele>
        <time>2022-06-11T13:02:53Z</time>
      </trkpt>
      <trkpt lat="44.09085" lon="6.96752">
        <ele>1553.1</ele>
        <time>2022-06-11T13:02:54Z</time>
      </trkpt>
      <trkpt lat="44.09083" lon="6.96747">
        <ele>1553.2</ele>
        <time>2022-06-11T13:02:55Z</time>
      </trkpt>
      <trkpt lat="44.09082" lon="6.96742">
        <ele>1553.3</ele>
        <time>2022-06-11T13:02:56Z</time>
      </trkpt>
      <trkpt lat="44.09081" lon="6.96737">
        <ele>1553.5</ele>
        <time>2022-06-11T13:02:57Z</time>
      </trkpt>
      <trkpt lat="44.09079" lon="6.96732">
        <ele>1553.6</ele>
        <time>2022-06-11T13:02:58Z</time>
      </trkpt>
      <trkpt lat="44.09078" lon="6.96727">
        <ele>1553.6</ele>
        <time>2022-06-11T13:02:59Z</time>
      </trkpt>
      <trkpt lat="44.09077" lon="6.96723">
        <ele>1553.7</ele>
        <time>2022-06-11T13:03:00Z</time>
      </trkpt>
      <trkpt lat="44.09075" lon="6.96718">
        <ele>1554</ele>
        <time>2022-06-11T13:03:01Z</time>
      </trkpt>
      <trkpt lat="44.09074" lon="6.96714">
        <ele>1554.3</ele>
        <time>2022-06-11T13:03:02Z</time>
      </trkpt>
      <trkpt lat="44.09072" lon="6.9671">
        <ele>1554.6</ele>
        <time>2022-06-11T13:03:03Z</time>
      </trkpt>
      <trkpt lat="44.0907" lon="6.96706">
        <ele>1554.7</ele>
        <time>2022-06-11T13:03:04Z</time>
      </trkpt>
      <trkpt lat="44.09068" lon="6.96702">
        <ele>1554.8</ele>
        <time>2022-06-11T13:03:05Z</time>
      </trkpt>
      <trkpt lat="44.09066" lon="6.96698">
        <ele>1554.8</ele>
        <time>2022-06-11T13:03:06Z</time>
      </trkpt>
      <trkpt lat="44.09064" lon="6.96694">
        <ele>1555</ele>
        <time>2022-06-11T13:03:07Z</time>
      </trkpt>
      <trkpt lat="44.09063" lon="6.9669">
        <ele>1555.2</ele>
        <time>2022-06-11T13:03:08Z</time>
      </trkpt>
      <trkpt lat="44.09061" lon="6.96686">
        <ele>1555.4</ele>
        <time>2022-06-11T13:03:09Z</time>
      </trkpt>
      <trkpt lat="44.09059" lon="6.96682">
        <ele>1555.7</ele>
        <time>2022-06-11T13:03:10Z</time>
      </trkpt>
      <trkpt lat="44.09058" lon="6.96678">
        <ele>1555.9</ele>
        <time>2022-06-11T13:03:11Z</time>
      </trkpt>
      <trkpt lat="44.09056" lon="6.96673">
        <ele>1556.2</ele>
        <time>2022-06-11T13:03:12Z</time>
      </trkpt>
      <trkpt lat="44.09055" lon="6.96669">
        <ele>1556.5</ele>
        <time>2022-06-11T13:03:13Z</time>
      </trkpt>
      <trkpt lat="44.09053" lon="6.96665">
        <ele>1556.7</ele>
        <time>2022-06-11T13:03:14Z</time>
      </trkpt>
      <trkpt lat="44.09051" lon="6.96661">
        <ele>1556.9</ele>
        <time>2022-06-11T13:03:15Z</time>
      </trkpt>
      <trkpt lat="44.09049" lon="6.96656">
        <ele>1556.9</ele>
        <time>2022-06-11T13:03:16Z</time>
      </trkpt>
      <trkpt lat="44.09047" lon="6.96652">
        <ele>1557.1</ele>
        <time>2022-06-11T13:03:17Z</time>
      </trkpt>
      <trkpt lat="44.09045" lon="6.96647">
        <ele>1557.2</ele>
        <time>2022-06-11T13:03:18Z</time>
      </trkpt>
      <trkpt lat="44.09043" lon="6.96643">
        <ele>1557.2</ele>
        <time>2022-06-11T13:03:19Z</time>
      </trkpt>
      <trkpt lat="44.09041" lon="6.96639">
        <ele>1557.3</ele>
        <time>2022-06-11T13:03:20Z</time>
      </trkpt>
      <trkpt lat="44.09039" lon="6.96635">
        <ele>1557.4</ele>
        <time>2022-06-11T13:03:21Z</time>
      </trkpt>
      <trkpt lat="44.09038" lon="6.96631">
        <ele>1557.5</ele>
        <time>2022-06-11T13:03:22Z</time>
      </trkpt>
      <trkpt lat="44.09036" lon="6.96627">
        <ele>1557.5</ele>
        <time>2022-06-11T13:03:23Z</time>
      </trkpt>
      <trkpt lat="44.09035" lon="6.96622">
        <ele>1557.5</ele>
        <time>2022-06-11T13:03:24Z</time>
      </trkpt>
      <trkpt lat="44.09033" lon="6.96618">
        <ele>1557.6</ele>
        <time>2022-06-11T13:03:25Z</time>
      </trkpt>
      <trkpt lat="44.09031" lon="6.96614">
        <ele>1557.5</ele>
        <time>2022-06-11T13:03:26Z</time>
      </trkpt>
      <trkpt lat="44.09029" lon="6.96609">
        <ele>1557.4</ele>
        <time>2022-06-11T13:03:27Z</time>
      </trkpt>
      <trkpt lat="44.09027" lon="6.96604">
        <ele>1557.4</ele>
        <time>2022-06-11T13:03:28Z</time>
      </trkpt>
      <trkpt lat="44.09025" lon="6.96599">
        <ele>1557.4</ele>
        <time>2022-06-11T13:03:29Z</time>
      </trkpt>
      <trkpt lat="44.09022" lon="6.96593">
        <ele>1557.4</ele>
        <time>2022-06-11T13:03:30Z</time>
      </trkpt>
      <trkpt lat="44.0902" lon="6.96588">
        <ele>1557.4</ele>
        <time>2022-06-11T13:03:31Z</time>
      </trkpt>
      <trkpt lat="44.09018" lon="6.96582">
        <ele>1557.3</ele>
        <time>2022-06-11T13:03:32Z</time>
      </trkpt>
      <trkpt lat="44.09016" lon="6.96577">
        <ele>1557.3</ele>
        <time>2022-06-11T13:03:33Z</time>
      </trkpt>
      <trkpt lat="44.09013" lon="6.96571">
        <ele>1557.2</ele>
        <time>2022-06-11T13:03:34Z</time>
      </trkpt>
      <trkpt lat="44.09011" lon="6.96565">
        <ele>1557.1</ele>
        <time>2022-06-11T13:03:35Z</time>
      </trkpt>
      <trkpt lat="44.09009" lon="6.96559">
        <ele>1557</ele>
        <time>2022-06-11T13:03:36Z</time>
      </trkpt>
      <trkpt lat="44.09006" lon="6.96553">
        <ele>1556.8</ele>
        <time>2022-06-11T13:03:37Z</time>
      </trkpt>
      <trkpt lat="44.09004" lon="6.96546">
        <ele>1556.8</ele>
        <time>2022-06-11T13:03:38Z</time>
      </trkpt>
      <trkpt lat="44.09002" lon="6.96539">
        <ele>1556.6</ele>
        <time>2022-06-11T13:03:39Z</time>
      </trkpt>
      <trkpt lat="44.08999" lon="6.96533">
        <ele>1556.4</ele>
        <time>2022-06-11T13:03:40Z</time>
      </trkpt>
      <trkpt lat="44.08997" lon="6.96526">
        <ele>1556.4</ele>
        <time>2022-06-11T13:03:41Z</time>
      </trkpt>
      <trkpt lat="44.08995" lon="6.9652">
        <ele>1556.5</ele>
        <time>2022-06-11T13:03:42Z</time>
      </trkpt>
      <trkpt lat="44.08993" lon="6.96513">
        <ele>1556.8</ele>
        <time>2022-06-11T13:03:43Z</time>
      </trkpt>
      <trkpt lat="44.08991" lon="6.96506">
        <ele>1557</ele>
        <time>2022-06-11T13:03:44Z</time>
      </trkpt>
      <trkpt lat="44.08989" lon="6.96499">
        <ele>1557.2</ele>
        <time>2022-06-11T13:03:45Z</time>
      </trkpt>
      <trkpt lat="44.08986" lon="6.96493">
        <ele>1557.4</ele>
        <time>2022-06-11T13:03:46Z</time>
      </trkpt>
      <trkpt lat="44.08984" lon="6.96486">
        <ele>1557.6</ele>
        <time>2022-06-11T13:03:47Z</time>
      </trkpt>
      <trkpt lat="44.08981" lon="6.9648">
        <ele>1557.6</ele>
        <time>2022-06-11T13:03:48Z</time>
      </trkpt>
      <trkpt lat="44.08978" lon="6.96474">
        <ele>1557.4</ele>
        <time>2022-06-11T13:03:49Z</time>
      </trkpt>
      <trkpt lat="44.08974" lon="6.96467">
        <ele>1557.3</ele>
        <time>2022-06-11T13:03:50Z</time>
      </trkpt>
      <trkpt lat="44.08971" lon="6.96461">
        <ele>1557.3</ele>
        <time>2022-06-11T13:03:51Z</time>
      </trkpt>
      <trkpt lat="44.08967" lon="6.96454">
        <ele>1557.1</ele>
        <time>2022-06-11T13:03:52Z</time>
      </trkpt>
      <trkpt lat="44.08964" lon="6.96448">
        <ele>1556.7</ele>
        <time>2022-06-11T13:03:53Z</time>
      </trkpt>
      <trkpt lat="44.08959" lon="6.96443">
        <ele>1556.2</ele>
        <time>2022-06-11T13:03:54Z</time>
      </trkpt>
      <trkpt lat="44.08955" lon="6.96438">
        <ele>1555.8</ele>
        <time>2022-06-11T13:03:55Z</time>
      </trkpt>
      <trkpt lat="44.08949" lon="6.96434">
        <ele>1555</ele>
        <time>2022-06-11T13:03:56Z</time>
      </trkpt>
      <trkpt lat="44.08943" lon="6.96431">
        <ele>1554.3</ele>
        <time>2022-06-11T13:03:57Z</time>
      </trkpt>
      <trkpt lat="44.08937" lon="6.96428">
        <ele>1554.3</ele>
        <time>2022-06-11T13:03:58Z</time>
      </trkpt>
      <trkpt lat="44.08931" lon="6.96427">
        <ele>1554.1</ele>
        <time>2022-06-11T13:03:59Z</time>
      </trkpt>
      <trkpt lat="44.08925" lon="6.96425">
        <ele>1553.8</ele>
        <time>2022-06-11T13:04:00Z</time>
      </trkpt>
      <trkpt lat="44.0892" lon="6.96424">
        <ele>1553.6</ele>
        <time>2022-06-11T13:04:01Z</time>
      </trkpt>
      <trkpt lat="44.08914" lon="6.96422">
        <ele>1553.3</ele>
        <time>2022-06-11T13:04:02Z</time>
      </trkpt>
      <trkpt lat="44.08908" lon="6.96421">
        <ele>1552.9</ele>
        <time>2022-06-11T13:04:03Z</time>
      </trkpt>
      <trkpt lat="44.08902" lon="6.9642">
        <ele>1552.6</ele>
        <time>2022-06-11T13:04:04Z</time>
      </trkpt>
      <trkpt lat="44.08896" lon="6.96419">
        <ele>1552.2</ele>
        <time>2022-06-11T13:04:05Z</time>
      </trkpt>
      <trkpt lat="44.0889" lon="6.96418">
        <ele>1551.7</ele>
        <time>2022-06-11T13:04:06Z</time>
      </trkpt>
      <trkpt lat="44.08884" lon="6.96417">
        <ele>1551.3</ele>
        <time>2022-06-11T13:04:07Z</time>
      </trkpt>
      <trkpt lat="44.08877" lon="6.96416">
        <ele>1550.8</ele>
        <time>2022-06-11T13:04:08Z</time>
      </trkpt>
      <trkpt lat="44.08871" lon="6.96415">
        <ele>1550.3</ele>
        <time>2022-06-11T13:04:09Z</time>
      </trkpt>
      <trkpt lat="44.08865" lon="6.96414">
        <ele>1549.9</ele>
        <time>2022-06-11T13:04:10Z</time>
      </trkpt>
      <trkpt lat="44.08858" lon="6.96412">
        <ele>1549.4</ele>
        <time>2022-06-11T13:04:11Z</time>
      </trkpt>
      <trkpt lat="44.08852" lon="6.96409">
        <ele>1548.9</ele>
        <time>2022-06-11T13:04:12Z</time>
      </trkpt>
      <trkpt lat="44.08845" lon="6.96404">
        <ele>1548.7</ele>
        <time>2022-06-11T13:04:13Z</time>
      </trkpt>
      <trkpt lat="44.08839" lon="6.96398">
        <ele>1548.6</ele>
        <time>2022-06-11T13:04:14Z</time>
      </trkpt>
      <trkpt lat="44.08834" lon="6.96392">
        <ele>1548.6</ele>
        <time>2022-06-11T13:04:15Z</time>
      </trkpt>
      <trkpt lat="44.08828" lon="6.96385">
        <ele>1549</ele>
        <time>2022-06-11T13:04:16Z</time>
      </trkpt>
      <trkpt lat="44.08823" lon="6.96377">
        <ele>1549.4</ele>
        <time>2022-06-11T13:04:17Z</time>
      </trkpt>
      <trkpt lat="44.08818" lon="6.96371">
        <ele>1549.6</ele>
        <time>2022-06-11T13:04:18Z</time>
      </trkpt>
      <trkpt lat="44.08812" lon="6.96364">
        <ele>1549.6</ele>
        <time>2022-06-11T13:04:19Z</time>
      </trkpt>
      <trkpt lat="44.08806" lon="6.96358">
        <ele>1549.3</ele>
        <time>2022-06-11T13:04:20Z</time>
      </trkpt>
      <trkpt lat="44.088" lon="6.96352">
        <ele>1548.9</ele>
        <time>2022-06-11T13:04:21Z</time>
      </trkpt>
      <trkpt lat="44.08793" lon="6.96347">
        <ele>1548.5</ele>
        <time>2022-06-11T13:04:22Z</time>
      </trkpt>
      <trkpt lat="44.08787" lon="6.96342">
        <ele>1548.1</ele>
        <time>2022-06-11T13:04:23Z</time>
      </trkpt>
      <trkpt lat="44.0878" lon="6.96339">
        <ele>1547.6</ele>
        <time>2022-06-11T13:04:24Z</time>
      </trkpt>
      <trkpt lat="44.08772" lon="6.96336">
        <ele>1547.7</ele>
        <time>2022-06-11T13:04:25Z</time>
      </trkpt>
      <trkpt lat="44.08765" lon="6.96334">
        <ele>1547.9</ele>
        <time>2022-06-11T13:04:26Z</time>
      </trkpt>
      <trkpt lat="44.08757" lon="6.96334">
        <ele>1547.9</ele>
        <time>2022-06-11T13:04:27Z</time>
      </trkpt>
      <trkpt lat="44.0875" lon="6.96336">
        <ele>1547.6</ele>
        <time>2022-06-11T13:04:28Z</time>
      </trkpt>
      <trkpt lat="44.08742" lon="6.96339">
        <ele>1547.1</ele>
        <time>2022-06-11T13:04:29Z</time>
      </trkpt>
      <trkpt lat="44.08736" lon="6.96344">
        <ele>1546.5</ele>
        <time>2022-06-11T13:04:30Z</time>
      </trkpt>
      <trkpt lat="44.08729" lon="6.96348">
        <ele>1545.9</ele>
        <time>2022-06-11T13:04:31Z</time>
      </trkpt>
      <trkpt lat="44.08722" lon="6.96351">
        <ele>1545.4</ele>
        <time>2022-06-11T13:04:32Z</time>
      </trkpt>
      <trkpt lat="44.08715" lon="6.96353">
        <ele>1544.8</ele>
        <time>2022-06-11T13:04:33Z</time>
      </trkpt>
      <trkpt lat="44.08707" lon="6.96354">
        <ele>1544.3</ele>
        <time>2022-06-11T13:04:34Z</time>
      </trkpt>
      <trkpt lat="44.087" lon="6.96353">
        <ele>1544.1</ele>
        <time>2022-06-11T13:04:35Z</time>
      </trkpt>
      <trkpt lat="44.08694" lon="6.9635">
        <ele>1544.4</ele>
        <time>2022-06-11T13:04:36Z</time>
      </trkpt>
      <trkpt lat="44.08687" lon="6.96345">
        <ele>1544.6</ele>
        <time>2022-06-11T13:04:37Z</time>
      </trkpt>
      <trkpt lat="44.08682" lon="6.9634">
        <ele>1544.9</ele>
        <time>2022-06-11T13:04:38Z</time>
      </trkpt>
      <trkpt lat="44.08676" lon="6.96333">
        <ele>1545.4</ele>
        <time>2022-06-11T13:04:39Z</time>
      </trkpt>
      <trkpt lat="44.08671" lon="6.96326">
        <ele>1545.7</ele>
        <time>2022-06-11T13:04:40Z</time>
      </trkpt>
      <trkpt lat="44.08666" lon="6.96319">
        <ele>1545.9</ele>
        <time>2022-06-11T13:04:41Z</time>
      </trkpt>
      <trkpt lat="44.08661" lon="6.96311">
        <ele>1545.6</ele>
        <time>2022-06-11T13:04:42Z</time>
      </trkpt>
      <trkpt lat="44.08656" lon="6.96303">
        <ele>1545.2</ele>
        <time>2022-06-11T13:04:43Z</time>
      </trkpt>
      <trkpt lat="44.08651" lon="6.96295">
        <ele>1544.9</ele>
        <time>2022-06-11T13:04:44Z</time>
      </trkpt>
      <trkpt lat="44.08646" lon="6.96287">
        <ele>1544.7</ele>
        <time>2022-06-11T13:04:45Z</time>
      </trkpt>
      <trkpt lat="44.08641" lon="6.96279">
        <ele>1544.5</ele>
        <time>2022-06-11T13:04:46Z</time>
      </trkpt>
      <trkpt lat="44.08637" lon="6.96269">
        <ele>1544.7</ele>
        <time>2022-06-11T13:04:47Z</time>
      </trkpt>
      <trkpt lat="44.08635" lon="6.96259">
        <ele>1545.2</ele>
        <time>2022-06-11T13:04:48Z</time>
      </trkpt>
      <trkpt lat="44.08633" lon="6.96248">
        <ele>1545.9</ele>
        <time>2022-06-11T13:04:49Z</time>
      </trkpt>
      <trkpt lat="44.08633" lon="6.96237">
        <ele>1545.8</ele>
        <time>2022-06-11T13:04:50Z</time>
      </trkpt>
      <trkpt lat="44.08634" lon="6.96227">
        <ele>1546</ele>
        <time>2022-06-11T13:04:51Z</time>
      </trkpt>
      <trkpt lat="44.08635" lon="6.96216">
        <ele>1546.3</ele>
        <time>2022-06-11T13:04:52Z</time>
      </trkpt>
      <trkpt lat="44.08636" lon="6.96205">
        <ele>1546.6</ele>
        <time>2022-06-11T13:04:53Z</time>
      </trkpt>
      <trkpt lat="44.08636" lon="6.96194">
        <ele>1546.7</ele>
        <time>2022-06-11T13:04:54Z</time>
      </trkpt>
      <trkpt lat="44.08637" lon="6.96183">
        <ele>1546.2</ele>
        <time>2022-06-11T13:04:55Z</time>
      </trkpt>
      <trkpt lat="44.08637" lon="6.96172">
        <ele>1545.5</ele>
        <time>2022-06-11T13:04:56Z</time>
      </trkpt>
      <trkpt lat="44.08636" lon="6.96161">
        <ele>1544.8</ele>
        <time>2022-06-11T13:04:57Z</time>
      </trkpt>
      <trkpt lat="44.08634" lon="6.9615">
        <ele>1544.3</ele>
        <time>2022-06-11T13:04:58Z</time>
      </trkpt>
      <trkpt lat="44.08632" lon="6.96139">
        <ele>1543.6</ele>
        <time>2022-06-11T13:04:59Z</time>
      </trkpt>
      <trkpt lat="44.0863" lon="6.96128">
        <ele>1543.4</ele>
        <time>2022-06-11T13:05:00Z</time>
      </trkpt>
      <trkpt lat="44.08628" lon="6.96117">
        <ele>1543.2</ele>
        <time>2022-06-11T13:05:01Z</time>
      </trkpt>
      <trkpt lat="44.08625" lon="6.96106">
        <ele>1542.7</ele>
        <time>2022-06-11T13:05:02Z</time>
      </trkpt>
      <trkpt lat="44.08623" lon="6.96095">
        <ele>1542.1</ele>
        <time>2022-06-11T13:05:03Z</time>
      </trkpt>
      <trkpt lat="44.08621" lon="6.96084">
        <ele>1541.4</ele>
        <time>2022-06-11T13:05:04Z</time>
      </trkpt>
      <trkpt lat="44.08619" lon="6.96073">
        <ele>1541.7</ele>
        <time>2022-06-11T13:05:05Z</time>
      </trkpt>
      <trkpt lat="44.08617" lon="6.96061">
        <ele>1542.1</ele>
        <time>2022-06-11T13:05:06Z</time>
      </trkpt>
      <trkpt lat="44.08615" lon="6.9605">
        <ele>1541.7</ele>
        <time>2022-06-11T13:05:07Z</time>
      </trkpt>
      <trkpt lat="44.08613" lon="6.96039">
        <ele>1540.8</ele>
        <time>2022-06-11T13:05:08Z</time>
      </trkpt>
      <trkpt lat="44.08611" lon="6.96027">
        <ele>1539.8</ele>
        <time>2022-06-11T13:05:09Z</time>
      </trkpt>
      <trkpt lat="44.08608" lon="6.96016">
        <ele>1539.9</ele>
        <time>2022-06-11T13:05:10Z</time>
      </trkpt>
      <trkpt lat="44.08606" lon="6.96005">
        <ele>1539.9</ele>
        <time>2022-06-11T13:05:11Z</time>
      </trkpt>
      <trkpt lat="44.08604" lon="6.95994">
        <ele>1540</ele>
        <time>2022-06-11T13:05:12Z</time>
      </trkpt>
      <trkpt lat="44.08602" lon="6.95983">
        <ele>1540.2</ele>
        <time>2022-06-11T13:05:13Z</time>
      </trkpt>
      <trkpt lat="44.08601" lon="6.95972">
        <ele>1540.4</ele>
        <time>2022-06-11T13:05:14Z</time>
      </trkpt>
      <trkpt lat="44.08599" lon="6.95961">
        <ele>1540.6</ele>
        <time>2022-06-11T13:05:15Z</time>
      </trkpt>
      <trkpt lat="44.08597" lon="6.95951">
        <ele>1540.9</ele>
        <time>2022-06-11T13:05:16Z</time>
      </trkpt>
      <trkpt lat="44.08596" lon="6.9594">
        <ele>1541</ele>
        <time>2022-06-11T13:05:17Z</time>
      </trkpt>
      <trkpt lat="44.08595" lon="6.9593">
        <ele>1540.6</ele>
        <time>2022-06-11T13:05:18Z</time>
      </trkpt>
      <trkpt lat="44.08594" lon="6.95921">
        <ele>1540.3</ele>
        <time>2022-06-11T13:05:19Z</time>
      </trkpt>
      <trkpt lat="44.08593" lon="6.95911">
        <ele>1540.1</ele>
        <time>2022-06-11T13:05:20Z</time>
      </trkpt>
      <trkpt lat="44.08593" lon="6.95902">
        <ele>1540.2</ele>
        <time>2022-06-11T13:05:21Z</time>
      </trkpt>
      <trkpt lat="44.08592" lon="6.95893">
        <ele>1540.4</ele>
        <time>2022-06-11T13:05:22Z</time>
      </trkpt>
      <trkpt lat="44.08592" lon="6.95884">
        <ele>1540.6</ele>
        <time>2022-06-11T13:05:23Z</time>
      </trkpt>
      <trkpt lat="44.08592" lon="6.95875">
        <ele>1540.9</ele>
        <time>2022-06-11T13:05:24Z</time>
      </trkpt>
      <trkpt lat="44.08592" lon="6.95865">
        <ele>1541.1</ele>
        <time>2022-06-11T13:05:25Z</time>
      </trkpt>
      <trkpt lat="44.08592" lon="6.95856">
        <ele>1541.4</ele>
        <time>2022-06-11T13:05:26Z</time>
      </trkpt>
      <trkpt lat="44.08593" lon="6.95847">
        <ele>1541.5</ele>
        <time>2022-06-11T13:05:27Z</time>
      </trkpt>
      <trkpt lat="44.08593" lon="6.95838">
        <ele>1541.7</ele>
        <time>2022-06-11T13:05:28Z</time>
      </trkpt>
      <trkpt lat="44.08594" lon="6.95829">
        <ele>1541.8</ele>
        <time>2022-06-11T13:05:29Z</time>
      </trkpt>
      <trkpt lat="44.08594" lon="6.9582">
        <ele>1541.7</ele>
        <time>2022-06-11T13:05:30Z</time>
      </trkpt>
      <trkpt lat="44.08594" lon="6.95811">
        <ele>1541.5</ele>
        <time>2022-06-11T13:05:31Z</time>
      </trkpt>
      <trkpt lat="44.08594" lon="6.95802">
        <ele>1541.3</ele>
        <time>2022-06-11T13:05:32Z</time>
      </trkpt>
      <trkpt lat="44.08593" lon="6.95793">
        <ele>1541.2</ele>
        <time>2022-06-11T13:05:33Z</time>
      </trkpt>
      <trkpt lat="44.08593" lon="6.95784">
        <ele>1541.1</ele>
        <time>2022-06-11T13:05:34Z</time>
      </trkpt>
      <trkpt lat="44.08593" lon="6.95775">
        <ele>1541.2</ele>
        <time>2022-06-11T13:05:35Z</time>
      </trkpt>
      <trkpt lat="44.08592" lon="6.95767">
        <ele>1541.2</ele>
        <time>2022-06-11T13:05:36Z</time>
      </trkpt>
      <trkpt lat="44.08592" lon="6.95758">
        <ele>1541.4</ele>
        <time>2022-06-11T13:05:37Z</time>
      </trkpt>
      <trkpt lat="44.08592" lon="6.9575">
        <ele>1541.6</ele>
        <time>2022-06-11T13:05:38Z</time>
      </trkpt>
      <trkpt lat="44.08591" lon="6.95741">
        <ele>1541.7</ele>
        <time>2022-06-11T13:05:39Z</time>
      </trkpt>
      <trkpt lat="44.0859" lon="6.95733">
        <ele>1541.8</ele>
        <time>2022-06-11T13:05:40Z</time>
      </trkpt>
      <trkpt lat="44.08589" lon="6.95725">
        <ele>1541.8</ele>
        <time>2022-06-11T13:05:41Z</time>
      </trkpt>
      <trkpt lat="44.08588" lon="6.95717">
        <ele>1541.4</ele>
        <time>2022-06-11T13:05:42Z</time>
      </trkpt>
      <trkpt lat="44.08587" lon="6.9571">
        <ele>1540.9</ele>
        <time>2022-06-11T13:05:43Z</time>
      </trkpt>
      <trkpt lat="44.08586" lon="6.95703">
        <ele>1540.4</ele>
        <time>2022-06-11T13:05:44Z</time>
      </trkpt>
      <trkpt lat="44.08585" lon="6.95695">
        <ele>1540.1</ele>
        <time>2022-06-11T13:05:45Z</time>
      </trkpt>
      <trkpt lat="44.08585" lon="6.95688">
        <ele>1539.3</ele>
        <time>2022-06-11T13:05:46Z</time>
      </trkpt>
      <trkpt lat="44.08585" lon="6.95681">
        <ele>1538.7</ele>
        <time>2022-06-11T13:05:47Z</time>
      </trkpt>
      <trkpt lat="44.08585" lon="6.95674">
        <ele>1538.1</ele>
        <time>2022-06-11T13:05:48Z</time>
      </trkpt>
      <trkpt lat="44.08585" lon="6.95667">
        <ele>1537.8</ele>
        <time>2022-06-11T13:05:49Z</time>
      </trkpt>
      <trkpt lat="44.08586" lon="6.9566">
        <ele>1537.1</ele>
        <time>2022-06-11T13:05:50Z</time>
      </trkpt>
      <trkpt lat="44.08588" lon="6.95653">
        <ele>1537</ele>
        <time>2022-06-11T13:05:51Z</time>
      </trkpt>
      <trkpt lat="44.0859" lon="6.95647">
        <ele>1537.1</ele>
        <time>2022-06-11T13:05:52Z</time>
      </trkpt>
      <trkpt lat="44.08593" lon="6.95641">
        <ele>1537.3</ele>
        <time>2022-06-11T13:05:53Z</time>
      </trkpt>
      <trkpt lat="44.08595" lon="6.95635">
        <ele>1537.1</ele>
        <time>2022-06-11T13:05:54Z</time>
      </trkpt>
      <trkpt lat="44.08597" lon="6.95628">
        <ele>1536.8</ele>
        <time>2022-06-11T13:05:55Z</time>
      </trkpt>
      <trkpt lat="44.08599" lon="6.95622">
        <ele>1536.4</ele>
        <time>2022-06-11T13:05:56Z</time>
      </trkpt>
      <trkpt lat="44.08601" lon="6.95616">
        <ele>1535.9</ele>
        <time>2022-06-11T13:05:57Z</time>
      </trkpt>
      <trkpt lat="44.08603" lon="6.9561">
        <ele>1535.3</ele>
        <time>2022-06-11T13:05:58Z</time>
      </trkpt>
      <trkpt lat="44.08606" lon="6.95604">
        <ele>1535.1</ele>
        <time>2022-06-11T13:05:59Z</time>
      </trkpt>
      <trkpt lat="44.0861" lon="6.95598">
        <ele>1535</ele>
        <time>2022-06-11T13:06:00Z</time>
      </trkpt>
      <trkpt lat="44.08614" lon="6.95592">
        <ele>1535.2</ele>
        <time>2022-06-11T13:06:01Z</time>
      </trkpt>
      <trkpt lat="44.08618" lon="6.95586">
        <ele>1535.7</ele>
        <time>2022-06-11T13:06:02Z</time>
      </trkpt>
      <trkpt lat="44.08622" lon="6.95581">
        <ele>1536</ele>
        <time>2022-06-11T13:06:03Z</time>
      </trkpt>
      <trkpt lat="44.08627" lon="6.95575">
        <ele>1535.9</ele>
        <time>2022-06-11T13:06:04Z</time>
      </trkpt>
      <trkpt lat="44.08631" lon="6.95569">
        <ele>1535.6</ele>
        <time>2022-06-11T13:06:05Z</time>
      </trkpt>
      <trkpt lat="44.08636" lon="6.95564">
        <ele>1535.4</ele>
        <time>2022-06-11T13:06:06Z</time>
      </trkpt>
      <trkpt lat="44.08641" lon="6.9556">
        <ele>1535.3</ele>
        <time>2022-06-11T13:06:07Z</time>
      </trkpt>
      <trkpt lat="44.08645" lon="6.95555">
        <ele>1535.5</ele>
        <time>2022-06-11T13:06:08Z</time>
      </trkpt>
      <trkpt lat="44.0865" lon="6.9555">
        <ele>1536.1</ele>
        <time>2022-06-11T13:06:09Z</time>
      </trkpt>
      <trkpt lat="44.08655" lon="6.95545">
        <ele>1536.5</ele>
        <time>2022-06-11T13:06:10Z</time>
      </trkpt>
      <trkpt lat="44.0866" lon="6.9554">
        <ele>1536.7</ele>
        <time>2022-06-11T13:06:11Z</time>
      </trkpt>
      <trkpt lat="44.08665" lon="6.95534">
        <ele>1536.6</ele>
        <time>2022-06-11T13:06:12Z</time>
      </trkpt>
      <trkpt lat="44.0867" lon="6.95529">
        <ele>1536.9</ele>
        <time>2022-06-11T13:06:13Z</time>
      </trkpt>
      <trkpt lat="44.08675" lon="6.95523">
        <ele>1537.1</ele>
        <time>2022-06-11T13:06:14Z</time>
      </trkpt>
      <trkpt lat="44.0868" lon="6.95516">
        <ele>1537.5</ele>
        <time>2022-06-11T13:06:15Z</time>
      </trkpt>
      <trkpt lat="44.08684" lon="6.9551">
        <ele>1537.2</ele>
        <time>2022-06-11T13:06:16Z</time>
      </trkpt>
      <trkpt lat="44.08689" lon="6.95503">
        <ele>1536.7</ele>
        <time>2022-06-11T13:06:17Z</time>
      </trkpt>
      <trkpt lat="44.08693" lon="6.95496">
        <ele>1536.5</ele>
        <time>2022-06-11T13:06:18Z</time>
      </trkpt>
      <trkpt lat="44.08698" lon="6.95489">
        <ele>1536.4</ele>
        <time>2022-06-11T13:06:19Z</time>
      </trkpt>
      <trkpt lat="44.08702" lon="6.95483">
        <ele>1536.1</ele>
        <time>2022-06-11T13:06:20Z</time>
      </trkpt>
      <trkpt lat="44.08708" lon="6.95477">
        <ele>1536.3</ele>
        <time>2022-06-11T13:06:21Z</time>
      </trkpt>
      <trkpt lat="44.08712" lon="6.95471">
        <ele>1536.2</ele>
        <time>2022-06-11T13:06:22Z</time>
      </trkpt>
      <trkpt lat="44.08718" lon="6.95466">
        <ele>1536.6</ele>
        <time>2022-06-11T13:06:23Z</time>
      </trkpt>
      <trkpt lat="44.08723" lon="6.95462">
        <ele>1537</ele>
        <time>2022-06-11T13:06:24Z</time>
      </trkpt>
      <trkpt lat="44.08729" lon="6.95457">
        <ele>1537.3</ele>
        <time>2022-06-11T13:06:25Z</time>
      </trkpt>
      <trkpt lat="44.08734" lon="6.95452">
        <ele>1537.7</ele>
        <time>2022-06-11T13:06:26Z</time>
      </trkpt>
      <trkpt lat="44.0874" lon="6.95448">
        <ele>1537.8</ele>
        <time>2022-06-11T13:06:27Z</time>
      </trkpt>
      <trkpt lat="44.08745" lon="6.95442">
        <ele>1537.9</ele>
        <time>2022-06-11T13:06:28Z</time>
      </trkpt>
      <trkpt lat="44.0875" lon="6.95437">
        <ele>1538.1</ele>
        <time>2022-06-11T13:06:29Z</time>
      </trkpt>
      <trkpt lat="44.08755" lon="6.95431">
        <ele>1538.4</ele>
        <time>2022-06-11T13:06:30Z</time>
      </trkpt>
      <trkpt lat="44.0876" lon="6.95425">
        <ele>1538.4</ele>
        <time>2022-06-11T13:06:31Z</time>
      </trkpt>
      <trkpt lat="44.08764" lon="6.95419">
        <ele>1538.2</ele>
        <time>2022-06-11T13:06:32Z</time>
      </trkpt>
      <trkpt lat="44.08769" lon="6.95413">
        <ele>1538.2</ele>
        <time>2022-06-11T13:06:33Z</time>
      </trkpt>
      <trkpt lat="44.08773" lon="6.95407">
        <ele>1538.3</ele>
        <time>2022-06-11T13:06:34Z</time>
      </trkpt>
      <trkpt lat="44.08777" lon="6.95401">
        <ele>1538.3</ele>
        <time>2022-06-11T13:06:35Z</time>
      </trkpt>
      <trkpt lat="44.08781" lon="6.95395">
        <ele>1538.5</ele>
        <time>2022-06-11T13:06:36Z</time>
      </trkpt>
      <trkpt lat="44.08785" lon="6.95389">
        <ele>1538.6</ele>
        <time>2022-06-11T13:06:37Z</time>
      </trkpt>
      <trkpt lat="44.08789" lon="6.95382">
        <ele>1539.1</ele>
        <time>2022-06-11T13:06:38Z</time>
      </trkpt>
      <trkpt lat="44.08793" lon="6.95376">
        <ele>1539.7</ele>
        <time>2022-06-11T13:06:39Z</time>
      </trkpt>
      <trkpt lat="44.08798" lon="6.9537">
        <ele>1540</ele>
        <time>2022-06-11T13:06:40Z</time>
      </trkpt>
      <trkpt lat="44.08802" lon="6.95364">
        <ele>1540.3</ele>
        <time>2022-06-11T13:06:41Z</time>
      </trkpt>
      <trkpt lat="44.08807" lon="6.95357">
        <ele>1540.7</ele>
        <time>2022-06-11T13:06:42Z</time>
      </trkpt>
      <trkpt lat="44.08811" lon="6.95351">
        <ele>1541.4</ele>
        <time>2022-06-11T13:06:43Z</time>
      </trkpt>
      <trkpt lat="44.08815" lon="6.95344">
        <ele>1541.9</ele>
        <time>2022-06-11T13:06:44Z</time>
      </trkpt>
      <trkpt lat="44.0882" lon="6.95337">
        <ele>1542.5</ele>
        <time>2022-06-11T13:06:45Z</time>
      </trkpt>
      <trkpt lat="44.08825" lon="6.95331">
        <ele>1543.2</ele>
        <time>2022-06-11T13:06:46Z</time>
      </trkpt>
      <trkpt lat="44.08829" lon="6.95325">
        <ele>1543.9</ele>
        <time>2022-06-11T13:06:47Z</time>
      </trkpt>
      <trkpt lat="44.08833" lon="6.95318">
        <ele>1544.2</ele>
        <time>2022-06-11T13:06:48Z</time>
      </trkpt>
      <trkpt lat="44.08838" lon="6.95311">
        <ele>1544.3</ele>
        <time>2022-06-11T13:06:49Z</time>
      </trkpt>
      <trkpt lat="44.08842" lon="6.95304">
        <ele>1544.4</ele>
        <time>2022-06-11T13:06:50Z</time>
      </trkpt>
      <trkpt lat="44.08846" lon="6.95297">
        <ele>1544.2</ele>
        <time>2022-06-11T13:06:51Z</time>
      </trkpt>
      <trkpt lat="44.0885" lon="6.9529">
        <ele>1543.8</ele>
        <time>2022-06-11T13:06:52Z</time>
      </trkpt>
      <trkpt lat="44.08854" lon="6.95283">
        <ele>1543.4</ele>
        <time>2022-06-11T13:06:53Z</time>
      </trkpt>
      <trkpt lat="44.08859" lon="6.95276">
        <ele>1543.1</ele>
        <time>2022-06-11T13:06:54Z</time>
      </trkpt>
      <trkpt lat="44.08864" lon="6.9527">
        <ele>1542.9</ele>
        <time>2022-06-11T13:06:55Z</time>
      </trkpt>
      <trkpt lat="44.08869" lon="6.95264">
        <ele>1542.6</ele>
        <time>2022-06-11T13:06:56Z</time>
      </trkpt>
      <trkpt lat="44.08874" lon="6.95259">
        <ele>1542.3</ele>
        <time>2022-06-11T13:06:57Z</time>
      </trkpt>
      <trkpt lat="44.0888" lon="6.95255">
        <ele>1542.2</ele>
        <time>2022-06-11T13:06:58Z</time>
      </trkpt>
      <trkpt lat="44.08886" lon="6.95252">
        <ele>1542.1</ele>
        <time>2022-06-11T13:06:59Z</time>
      </trkpt>
      <trkpt lat="44.08892" lon="6.9525">
        <ele>1542.3</ele>
        <time>2022-06-11T13:07:00Z</time>
      </trkpt>
      <trkpt lat="44.08898" lon="6.95249">
        <ele>1542.9</ele>
        <time>2022-06-11T13:07:01Z</time>
      </trkpt>
      <trkpt lat="44.08904" lon="6.95249">
        <ele>1543.5</ele>
        <time>2022-06-11T13:07:02Z</time>
      </trkpt>
      <trkpt lat="44.0891" lon="6.9525">
        <ele>1544.3</ele>
        <time>2022-06-11T13:07:03Z</time>
      </trkpt>
      <trkpt lat="44.08916" lon="6.95252">
        <ele>1545.5</ele>
        <time>2022-06-11T13:07:04Z</time>
      </trkpt>
      <trkpt lat="44.08922" lon="6.95253">
        <ele>1545.8</ele>
        <time>2022-06-11T13:07:05Z</time>
      </trkpt>
      <trkpt lat="44.08927" lon="6.95254">
        <ele>1545.9</ele>
        <time>2022-06-11T13:07:06Z</time>
      </trkpt>
      <trkpt lat="44.08932" lon="6.95255">
        <ele>1546</ele>
        <time>2022-06-11T13:07:07Z</time>
      </trkpt>
      <trkpt lat="44.08936" lon="6.95255">
        <ele>1546</ele>
        <time>2022-06-11T13:07:08Z</time>
      </trkpt>
      <trkpt lat="44.08941" lon="6.95256">
        <ele>1546</ele>
        <time>2022-06-11T13:07:09Z</time>
      </trkpt>
      <trkpt lat="44.08945" lon="6.95256">
        <ele>1546</ele>
        <time>2022-06-11T13:07:10Z</time>
      </trkpt>
      <trkpt lat="44.08949" lon="6.95256">
        <ele>1545.7</ele>
        <time>2022-06-11T13:07:11Z</time>
      </trkpt>
      <trkpt lat="44.08952" lon="6.95256">
        <ele>1545.4</ele>
        <time>2022-06-11T13:07:12Z</time>
      </trkpt>
      <trkpt lat="44.08956" lon="6.95255">
        <ele>1545.1</ele>
        <time>2022-06-11T13:07:13Z</time>
      </trkpt>
      <trkpt lat="44.0896" lon="6.95254">
        <ele>1544.7</ele>
        <time>2022-06-11T13:07:14Z</time>
      </trkpt>
      <trkpt lat="44.08963" lon="6.95253">
        <ele>1544.2</ele>
        <time>2022-06-11T13:07:15Z</time>
      </trkpt>
      <trkpt lat="44.08966" lon="6.95251">
        <ele>1543.5</ele>
        <time>2022-06-11T13:07:16Z</time>
      </trkpt>
      <trkpt lat="44.08969" lon="6.95249">
        <ele>1543.1</ele>
        <time>2022-06-11T13:07:17Z</time>
      </trkpt>
      <trkpt lat="44.08971" lon="6.95245">
        <ele>1543</ele>
        <time>2022-06-11T13:07:18Z</time>
      </trkpt>
      <trkpt lat="44.08973" lon="6.95241">
        <ele>1543</ele>
        <time>2022-06-11T13:07:19Z</time>
      </trkpt>
      <trkpt lat="44.08974" lon="6.95237">
        <ele>1543</ele>
        <time>2022-06-11T13:07:20Z</time>
      </trkpt>
      <trkpt lat="44.08974" lon="6.95232">
        <ele>1543</ele>
        <time>2022-06-11T13:07:21Z</time>
      </trkpt>
      <trkpt lat="44.08974" lon="6.95227">
        <ele>1543</ele>
        <time>2022-06-11T13:07:22Z</time>
      </trkpt>
      <trkpt lat="44.08973" lon="6.95222">
        <ele>1543</ele>
        <time>2022-06-11T13:07:23Z</time>
      </trkpt>
      <trkpt lat="44.08971" lon="6.95218">
        <ele>1543.7</ele>
        <time>2022-06-11T13:07:24Z</time>
      </trkpt>
      <trkpt lat="44.08968" lon="6.95214">
        <ele>1544.2</ele>
        <time>2022-06-11T13:07:25Z</time>
      </trkpt>
      <trkpt lat="44.08966" lon="6.95211">
        <ele>1544.7</ele>
        <time>2022-06-11T13:07:26Z</time>
      </trkpt>
      <trkpt lat="44.08963" lon="6.95208">
        <ele>1545</ele>
        <time>2022-06-11T13:07:27Z</time>
      </trkpt>
      <trkpt lat="44.0896" lon="6.95205">
        <ele>1545.4</ele>
        <time>2022-06-11T13:07:28Z</time>
      </trkpt>
      <trkpt lat="44.08957" lon="6.95202">
        <ele>1545.7</ele>
        <time>2022-06-11T13:07:29Z</time>
      </trkpt>
      <trkpt lat="44.08954" lon="6.95199">
        <ele>1546</ele>
        <time>2022-06-11T13:07:30Z</time>
      </trkpt>
      <trkpt lat="44.08951" lon="6.95197">
        <ele>1546.1</ele>
        <time>2022-06-11T13:07:31Z</time>
      </trkpt>
      <trkpt lat="44.08947" lon="6.95194">
        <ele>1546.3</ele>
        <time>2022-06-11T13:07:32Z</time>
      </trkpt>
      <trkpt lat="44.08944" lon="6.95192">
        <ele>1546.6</ele>
        <time>2022-06-11T13:07:33Z</time>
      </trkpt>
      <trkpt lat="44.08941" lon="6.9519">
        <ele>1546.9</ele>
        <time>2022-06-11T13:07:34Z</time>
      </trkpt>
      <trkpt lat="44.08938" lon="6.95188">
        <ele>1547</ele>
        <time>2022-06-11T13:07:35Z</time>
      </trkpt>
      <trkpt lat="44.08935" lon="6.95186">
        <ele>1547.3</ele>
        <time>2022-06-11T13:07:36Z</time>
      </trkpt>
      <trkpt lat="44.08932" lon="6.95184">
        <ele>1547.5</ele>
        <time>2022-06-11T13:07:37Z</time>
      </trkpt>
      <trkpt lat="44.08928" lon="6.95181">
        <ele>1547.8</ele>
        <time>2022-06-11T13:07:38Z</time>
      </trkpt>
      <trkpt lat="44.08925" lon="6.95179">
        <ele>1548.1</ele>
        <time>2022-06-11T13:07:39Z</time>
      </trkpt>
      <trkpt lat="44.08922" lon="6.95178">
        <ele>1548.2</ele>
        <time>2022-06-11T13:07:40Z</time>
      </trkpt>
      <trkpt lat="44.08919" lon="6.95176">
        <ele>1548.4</ele>
        <time>2022-06-11T13:07:41Z</time>
      </trkpt>
      <trkpt lat="44.08915" lon="6.95175">
        <ele>1548.5</ele>
        <time>2022-06-11T13:07:42Z</time>
      </trkpt>
      <trkpt lat="44.08912" lon="6.95174">
        <ele>1548.7</ele>
        <time>2022-06-11T13:07:43Z</time>
      </trkpt>
      <trkpt lat="44.08909" lon="6.95173">
        <ele>1548.9</ele>
        <time>2022-06-11T13:07:44Z</time>
      </trkpt>
      <trkpt lat="44.08906" lon="6.95173">
        <ele>1548.9</ele>
        <time>2022-06-11T13:07:45Z</time>
      </trkpt>
      <trkpt lat="44.08902" lon="6.95173">
        <ele>1548.8</ele>
        <time>2022-06-11T13:07:46Z</time>
      </trkpt>
      <trkpt lat="44.08899" lon="6.95173">
        <ele>1548.7</ele>
        <time>2022-06-11T13:07:47Z</time>
      </trkpt>
      <trkpt lat="44.08895" lon="6.95173">
        <ele>1548.5</ele>
        <time>2022-06-11T13:07:48Z</time>
      </trkpt>
      <trkpt lat="44.08892" lon="6.95173">
        <ele>1548.4</ele>
        <time>2022-06-11T13:07:49Z</time>
      </trkpt>
      <trkpt lat="44.08889" lon="6.95172">
        <ele>1548.5</ele>
        <time>2022-06-11T13:07:50Z</time>
      </trkpt>
      <trkpt lat="44.08885" lon="6.95172">
        <ele>1548.5</ele>
        <time>2022-06-11T13:07:51Z</time>
      </trkpt>
      <trkpt lat="44.08882" lon="6.95171">
        <ele>1548.6</ele>
        <time>2022-06-11T13:07:52Z</time>
      </trkpt>
      <trkpt lat="44.08879" lon="6.9517">
        <ele>1548.8</ele>
        <time>2022-06-11T13:07:53Z</time>
      </trkpt>
      <trkpt lat="44.08876" lon="6.95168">
        <ele>1549.2</ele>
        <time>2022-06-11T13:07:54Z</time>
      </trkpt>
      <trkpt lat="44.08873" lon="6.95166">
        <ele>1549.5</ele>
        <time>2022-06-11T13:07:55Z</time>
      </trkpt>
      <trkpt lat="44.08871" lon="6.95164">
        <ele>1549.9</ele>
        <time>2022-06-11T13:07:56Z</time>
      </trkpt>
      <trkpt lat="44.08869" lon="6.95162">
        <ele>1550.2</ele>
        <time>2022-06-11T13:07:57Z</time>
      </trkpt>
      <trkpt lat="44.08867" lon="6.95159">
        <ele>1550.6</ele>
        <time>2022-06-11T13:07:58Z</time>
      </trkpt>
      <trkpt lat="44.08865" lon="6.95156">
        <ele>1550.9</ele>
        <time>2022-06-11T13:07:59Z</time>
      </trkpt>
      <trkpt lat="44.08864" lon="6.95154">
        <ele>1551.2</ele>
        <time>2022-06-11T13:08:00Z</time>
      </trkpt>
      <trkpt lat="44.08863" lon="6.95152">
        <ele>1551.4</ele>
        <time>2022-06-11T13:08:01Z</time>
      </trkpt>
      <trkpt lat="44.08862" lon="6.95149">
        <ele>1551.6</ele>
        <time>2022-06-11T13:08:02Z</time>
      </trkpt>
      <trkpt lat="44.08861" lon="6.95146">
        <ele>1551.8</ele>
        <time>2022-06-11T13:08:03Z</time>
      </trkpt>
      <trkpt lat="44.08859" lon="6.95143">
        <ele>1551.9</ele>
        <time>2022-06-11T13:08:04Z</time>
      </trkpt>
      <trkpt lat="44.08859" lon="6.9514">
        <ele>1552.1</ele>
        <time>2022-06-11T13:08:05Z</time>
      </trkpt>
      <trkpt lat="44.08858" lon="6.95137">
        <ele>1552.4</ele>
        <time>2022-06-11T13:08:06Z</time>
      </trkpt>
      <trkpt lat="44.08857" lon="6.95134">
        <ele>1552.9</ele>
        <time>2022-06-11T13:08:07Z</time>
      </trkpt>
      <trkpt lat="44.08857" lon="6.9513">
        <ele>1553.5</ele>
        <time>2022-06-11T13:08:08Z</time>
      </trkpt>
      <trkpt lat="44.08857" lon="6.95127">
        <ele>1554.1</ele>
        <time>2022-06-11T13:08:09Z</time>
      </trkpt>
      <trkpt lat="44.08856" lon="6.95124">
        <ele>1554.5</ele>
        <time>2022-06-11T13:08:10Z</time>
      </trkpt>
      <trkpt lat="44.08856" lon="6.9512">
        <ele>1555</ele>
        <time>2022-06-11T13:08:11Z</time>
      </trkpt>
      <trkpt lat="44.08856" lon="6.95117">
        <ele>1555.7</ele>
        <time>2022-06-11T13:08:12Z</time>
      </trkpt>
      <trkpt lat="44.08856" lon="6.95114">
        <ele>1556.2</ele>
        <time>2022-06-11T13:08:13Z</time>
      </trkpt>
      <trkpt lat="44.08856" lon="6.95111">
        <ele>1556.8</ele>
        <time>2022-06-11T13:08:14Z</time>
      </trkpt>
      <trkpt lat="44.08856" lon="6.95108">
        <ele>1557.1</ele>
        <time>2022-06-11T13:08:15Z</time>
      </trkpt>
      <trkpt lat="44.08856" lon="6.95105">
        <ele>1557.4</ele>
        <time>2022-06-11T13:08:16Z</time>
      </trkpt>
      <trkpt lat="44.08856" lon="6.95102">
        <ele>1557.7</ele>
        <time>2022-06-11T13:08:17Z</time>
      </trkpt>
      <trkpt lat="44.08856" lon="6.95098">
        <ele>1557.9</ele>
        <time>2022-06-11T13:08:18Z</time>
      </trkpt>
      <trkpt lat="44.08857" lon="6.95095">
        <ele>1558.4</ele>
        <time>2022-06-11T13:08:19Z</time>
      </trkpt>
      <trkpt lat="44.08857" lon="6.95092">
        <ele>1558.7</ele>
        <time>2022-06-11T13:08:20Z</time>
      </trkpt>
      <trkpt lat="44.08857" lon="6.95089">
        <ele>1559.1</ele>
        <time>2022-06-11T13:08:21Z</time>
      </trkpt>
      <trkpt lat="44.08858" lon="6.95086">
        <ele>1559.5</ele>
        <time>2022-06-11T13:08:22Z</time>
      </trkpt>
      <trkpt lat="44.08858" lon="6.95084">
        <ele>1559.8</ele>
        <time>2022-06-11T13:08:23Z</time>
      </trkpt>
      <trkpt lat="44.08859" lon="6.95081">
        <ele>1560.2</ele>
        <time>2022-06-11T13:08:24Z</time>
      </trkpt>
      <trkpt lat="44.0886" lon="6.95078">
        <ele>1560.5</ele>
        <time>2022-06-11T13:08:25Z</time>
      </trkpt>
      <trkpt lat="44.0886" lon="6.95075">
        <ele>1560.7</ele>
        <time>2022-06-11T13:08:26Z</time>
      </trkpt>
      <trkpt lat="44.08861" lon="6.95072">
        <ele>1561</ele>
        <time>2022-06-11T13:08:27Z</time>
      </trkpt>
      <trkpt lat="44.08862" lon="6.95069">
        <ele>1561.4</ele>
        <time>2022-06-11T13:08:28Z</time>
      </trkpt>
      <trkpt lat="44.08863" lon="6.95066">
        <ele>1561.7</ele>
        <time>2022-06-11T13:08:29Z</time>
      </trkpt>
      <trkpt lat="44.08863" lon="6.95063">
        <ele>1562</ele>
        <time>2022-06-11T13:08:30Z</time>
      </trkpt>
      <trkpt lat="44.08864" lon="6.9506">
        <ele>1562.2</ele>
        <time>2022-06-11T13:08:31Z</time>
      </trkpt>
      <trkpt lat="44.08864" lon="6.95057">
        <ele>1562.3</ele>
        <time>2022-06-11T13:08:32Z</time>
      </trkpt>
      <trkpt lat="44.08865" lon="6.95054">
        <ele>1562.6</ele>
        <time>2022-06-11T13:08:33Z</time>
      </trkpt>
      <trkpt lat="44.08866" lon="6.95051">
        <ele>1562.9</ele>
        <time>2022-06-11T13:08:34Z</time>
      </trkpt>
      <trkpt lat="44.08866" lon="6.95048">
        <ele>1563</ele>
        <time>2022-06-11T13:08:35Z</time>
      </trkpt>
      <trkpt lat="44.08867" lon="6.95045">
        <ele>1563.1</ele>
        <time>2022-06-11T13:08:36Z</time>
      </trkpt>
      <trkpt lat="44.08867" lon="6.95042">
        <ele>1563.4</ele>
        <time>2022-06-11T13:08:37Z</time>
      </trkpt>
      <trkpt lat="44.08868" lon="6.95039">
        <ele>1563.7</ele>
        <time>2022-06-11T13:08:38Z</time>
      </trkpt>
      <trkpt lat="44.08869" lon="6.95036">
        <ele>1563.9</ele>
        <time>2022-06-11T13:08:39Z</time>
      </trkpt>
      <trkpt lat="44.0887" lon="6.95033">
        <ele>1564.1</ele>
        <time>2022-06-11T13:08:40Z</time>
      </trkpt>
      <trkpt lat="44.08871" lon="6.9503">
        <ele>1564.5</ele>
        <time>2022-06-11T13:08:41Z</time>
      </trkpt>
      <trkpt lat="44.08872" lon="6.95027">
        <ele>1564.8</ele>
        <time>2022-06-11T13:08:42Z</time>
      </trkpt>
      <trkpt lat="44.08872" lon="6.95024">
        <ele>1565</ele>
        <time>2022-06-11T13:08:43Z</time>
      </trkpt>
      <trkpt lat="44.08873" lon="6.95021">
        <ele>1565.3</ele>
        <time>2022-06-11T13:08:44Z</time>
      </trkpt>
      <trkpt lat="44.08874" lon="6.95018">
        <ele>1565.4</ele>
        <time>2022-06-11T13:08:45Z</time>
      </trkpt>
      <trkpt lat="44.08874" lon="6.95015">
        <ele>1565.6</ele>
        <time>2022-06-11T13:08:46Z</time>
      </trkpt>
      <trkpt lat="44.08875" lon="6.95012">
        <ele>1565.7</ele>
        <time>2022-06-11T13:08:47Z</time>
      </trkpt>
      <trkpt lat="44.08876" lon="6.95009">
        <ele>1566.1</ele>
        <time>2022-06-11T13:08:48Z</time>
      </trkpt>
      <trkpt lat="44.08876" lon="6.95006">
        <ele>1566.2</ele>
        <time>2022-06-11T13:08:49Z</time>
      </trkpt>
      <trkpt lat="44.08877" lon="6.95003">
        <ele>1566.4</ele>
        <time>2022-06-11T13:08:50Z</time>
      </trkpt>
      <trkpt lat="44.08878" lon="6.95">
        <ele>1566.8</ele>
        <time>2022-06-11T13:08:51Z</time>
      </trkpt>
      <trkpt lat="44.08879" lon="6.94997">
        <ele>1567</ele>
        <time>2022-06-11T13:08:52Z</time>
      </trkpt>
      <trkpt lat="44.08879" lon="6.94993">
        <ele>1567</ele>
        <time>2022-06-11T13:08:53Z</time>
      </trkpt>
      <trkpt lat="44.0888" lon="6.9499">
        <ele>1567.1</ele>
        <time>2022-06-11T13:08:54Z</time>
      </trkpt>
      <trkpt lat="44.08881" lon="6.94988">
        <ele>1567.3</ele>
        <time>2022-06-11T13:08:55Z</time>
      </trkpt>
      <trkpt lat="44.08881" lon="6.94985">
        <ele>1567.3</ele>
        <time>2022-06-11T13:08:56Z</time>
      </trkpt>
      <trkpt lat="44.08882" lon="6.94982">
        <ele>1567.2</ele>
        <time>2022-06-11T13:08:57Z</time>
      </trkpt>
      <trkpt lat="44.08883" lon="6.94979">
        <ele>1567.3</ele>
        <time>2022-06-11T13:08:58Z</time>
      </trkpt>
      <trkpt lat="44.08883" lon="6.94977">
        <ele>1567.4</ele>
        <time>2022-06-11T13:08:59Z</time>
      </trkpt>
      <trkpt lat="44.08884" lon="6.94974">
        <ele>1567.5</ele>
        <time>2022-06-11T13:09:00Z</time>
      </trkpt>
      <trkpt lat="44.08885" lon="6.94971">
        <ele>1567.5</ele>
        <time>2022-06-11T13:09:01Z</time>
      </trkpt>
      <trkpt lat="44.08886" lon="6.94968">
        <ele>1567.6</ele>
        <time>2022-06-11T13:09:02Z</time>
      </trkpt>
      <trkpt lat="44.08887" lon="6.94966">
        <ele>1567.7</ele>
        <time>2022-06-11T13:09:03Z</time>
      </trkpt>
      <trkpt lat="44.08889" lon="6.94963">
        <ele>1567.9</ele>
        <time>2022-06-11T13:09:04Z</time>
      </trkpt>
      <trkpt lat="44.0889" lon="6.94961">
        <ele>1568.1</ele>
        <time>2022-06-11T13:09:05Z</time>
      </trkpt>
      <trkpt lat="44.08891" lon="6.94958">
        <ele>1568.4</ele>
        <time>2022-06-11T13:09:06Z</time>
      </trkpt>
      <trkpt lat="44.08892" lon="6.94956">
        <ele>1568.7</ele>
        <time>2022-06-11T13:09:07Z</time>
      </trkpt>
      <trkpt lat="44.08893" lon="6.94953">
        <ele>1568.9</ele>
        <time>2022-06-11T13:09:08Z</time>
      </trkpt>
      <trkpt lat="44.08895" lon="6.94951">
        <ele>1569.2</ele>
        <time>2022-06-11T13:09:09Z</time>
      </trkpt>
      <trkpt lat="44.08896" lon="6.94949">
        <ele>1569.6</ele>
        <time>2022-06-11T13:09:10Z</time>
      </trkpt>
      <trkpt lat="44.08897" lon="6.94946">
        <ele>1569.8</ele>
        <time>2022-06-11T13:09:11Z</time>
      </trkpt>
      <trkpt lat="44.08899" lon="6.94944">
        <ele>1570.2</ele>
        <time>2022-06-11T13:09:12Z</time>
      </trkpt>
      <trkpt lat="44.089" lon="6.94941">
        <ele>1570.4</ele>
        <time>2022-06-11T13:09:13Z</time>
      </trkpt>
      <trkpt lat="44.08901" lon="6.94939">
        <ele>1570.6</ele>
        <time>2022-06-11T13:09:14Z</time>
      </trkpt>
      <trkpt lat="44.08903" lon="6.94937">
        <ele>1570.9</ele>
        <time>2022-06-11T13:09:15Z</time>
      </trkpt>
      <trkpt lat="44.08905" lon="6.94935">
        <ele>1571.2</ele>
        <time>2022-06-11T13:09:16Z</time>
      </trkpt>
      <trkpt lat="44.08906" lon="6.94932">
        <ele>1571.4</ele>
        <time>2022-06-11T13:09:17Z</time>
      </trkpt>
      <trkpt lat="44.08908" lon="6.9493">
        <ele>1571.6</ele>
        <time>2022-06-11T13:09:18Z</time>
      </trkpt>
      <trkpt lat="44.08909" lon="6.94928">
        <ele>1571.8</ele>
        <time>2022-06-11T13:09:19Z</time>
      </trkpt>
      <trkpt lat="44.08911" lon="6.94926">
        <ele>1572</ele>
        <time>2022-06-11T13:09:20Z</time>
      </trkpt>
      <trkpt lat="44.08912" lon="6.94924">
        <ele>1572.2</ele>
        <time>2022-06-11T13:09:21Z</time>
      </trkpt>
      <trkpt lat="44.08914" lon="6.94922">
        <ele>1572.1</ele>
        <time>2022-06-11T13:09:22Z</time>
      </trkpt>
      <trkpt lat="44.08915" lon="6.94919">
        <ele>1572.1</ele>
        <time>2022-06-11T13:09:23Z</time>
      </trkpt>
      <trkpt lat="44.08917" lon="6.94917">
        <ele>1572.1</ele>
        <time>2022-06-11T13:09:24Z</time>
      </trkpt>
      <trkpt lat="44.08919" lon="6.94915">
        <ele>1572.5</ele>
        <time>2022-06-11T13:09:25Z</time>
      </trkpt>
      <trkpt lat="44.0892" lon="6.94913">
        <ele>1572.7</ele>
        <time>2022-06-11T13:09:26Z</time>
      </trkpt>
      <trkpt lat="44.08922" lon="6.94911">
        <ele>1572.9</ele>
        <time>2022-06-11T13:09:27Z</time>
      </trkpt>
      <trkpt lat="44.08923" lon="6.94909">
        <ele>1573.2</ele>
        <time>2022-06-11T13:09:28Z</time>
      </trkpt>
      <trkpt lat="44.08925" lon="6.94906">
        <ele>1573.4</ele>
        <time>2022-06-11T13:09:29Z</time>
      </trkpt>
      <trkpt lat="44.08927" lon="6.94904">
        <ele>1573.5</ele>
        <time>2022-06-11T13:09:30Z</time>
      </trkpt>
      <trkpt lat="44.08928" lon="6.94902">
        <ele>1573.6</ele>
        <time>2022-06-11T13:09:31Z</time>
      </trkpt>
      <trkpt lat="44.0893" lon="6.949">
        <ele>1573.6</ele>
        <time>2022-06-11T13:09:32Z</time>
      </trkpt>
      <trkpt lat="44.08932" lon="6.94897">
        <ele>1573.6</ele>
        <time>2022-06-11T13:09:33Z</time>
      </trkpt>
      <trkpt lat="44.08933" lon="6.94895">
        <ele>1573.5</ele>
        <time>2022-06-11T13:09:34Z</time>
      </trkpt>
      <trkpt lat="44.08935" lon="6.94892">
        <ele>1573.4</ele>
        <time>2022-06-11T13:09:35Z</time>
      </trkpt>
      <trkpt lat="44.08937" lon="6.9489">
        <ele>1573.4</ele>
        <time>2022-06-11T13:09:36Z</time>
      </trkpt>
      <trkpt lat="44.08939" lon="6.94889">
        <ele>1573.5</ele>
        <time>2022-06-11T13:09:37Z</time>
      </trkpt>
      <trkpt lat="44.08941" lon="6.94887">
        <ele>1573.7</ele>
        <time>2022-06-11T13:09:38Z</time>
      </trkpt>
      <trkpt lat="44.08942" lon="6.94885">
        <ele>1573.7</ele>
        <time>2022-06-11T13:09:39Z</time>
      </trkpt>
      <trkpt lat="44.08944" lon="6.94883">
        <ele>1573.8</ele>
        <time>2022-06-11T13:09:40Z</time>
      </trkpt>
      <trkpt lat="44.08946" lon="6.94881">
        <ele>1573.9</ele>
        <time>2022-06-11T13:09:41Z</time>
      </trkpt>
      <trkpt lat="44.08948" lon="6.94879">
        <ele>1574.1</ele>
        <time>2022-06-11T13:09:42Z</time>
      </trkpt>
      <trkpt lat="44.0895" lon="6.94877">
        <ele>1574.2</ele>
        <time>2022-06-11T13:09:43Z</time>
      </trkpt>
      <trkpt lat="44.08952" lon="6.94876">
        <ele>1574.3</ele>
        <time>2022-06-11T13:09:44Z</time>
      </trkpt>
      <trkpt lat="44.08954" lon="6.94874">
        <ele>1574.3</ele>
        <time>2022-06-11T13:09:45Z</time>
      </trkpt>
      <trkpt lat="44.08956" lon="6.94872">
        <ele>1574.3</ele>
        <time>2022-06-11T13:09:46Z</time>
      </trkpt>
      <trkpt lat="44.08957" lon="6.9487">
        <ele>1574.2</ele>
        <time>2022-06-11T13:09:47Z</time>
      </trkpt>
      <trkpt lat="44.08959" lon="6.94868">
        <ele>1574.2</ele>
        <time>2022-06-11T13:09:48Z</time>
      </trkpt>
      <trkpt lat="44.08961" lon="6.94866">
        <ele>1574.2</ele>
        <time>2022-06-11T13:09:49Z</time>
      </trkpt>
      <trkpt lat="44.08963" lon="6.94865">
        <ele>1574.3</ele>
        <time>2022-06-11T13:09:50Z</time>
      </trkpt>
      <trkpt lat="44.08965" lon="6.94863">
        <ele>1574.3</ele>
        <time>2022-06-11T13:09:51Z</time>
      </trkpt>
      <trkpt lat="44.08967" lon="6.94862">
        <ele>1574.2</ele>
        <time>2022-06-11T13:09:52Z</time>
      </trkpt>
      <trkpt lat="44.08969" lon="6.9486">
        <ele>1574.3</ele>
        <time>2022-06-11T13:09:53Z</time>
      </trkpt>
      <trkpt lat="44.08971" lon="6.94859">
        <ele>1574.5</ele>
        <time>2022-06-11T13:09:54Z</time>
      </trkpt>
      <trkpt lat="44.08973" lon="6.94857">
        <ele>1574.6</ele>
        <time>2022-06-11T13:09:55Z</time>
      </trkpt>
      <trkpt lat="44.08975" lon="6.94856">
        <ele>1574.9</ele>
        <time>2022-06-11T13:09:56Z</time>
      </trkpt>
      <trkpt lat="44.08977" lon="6.94855">
        <ele>1575.1</ele>
        <time>2022-06-11T13:09:57Z</time>
      </trkpt>
      <trkpt lat="44.08978" lon="6.94853">
        <ele>1575.2</ele>
        <time>2022-06-11T13:09:58Z</time>
      </trkpt>
      <trkpt lat="44.0898" lon="6.94852">
        <ele>1575.3</ele>
        <time>2022-06-11T13:09:59Z</time>
      </trkpt>
      <trkpt lat="44.08982" lon="6.94851">
        <ele>1575.5</ele>
        <time>2022-06-11T13:10:00Z</time>
      </trkpt>
      <trkpt lat="44.08984" lon="6.9485">
        <ele>1575.7</ele>
        <time>2022-06-11T13:10:01Z</time>
      </trkpt>
      <trkpt lat="44.08987" lon="6.94849">
        <ele>1575.9</ele>
        <time>2022-06-11T13:10:02Z</time>
      </trkpt>
      <trkpt lat="44.08989" lon="6.94848">
        <ele>1576</ele>
        <time>2022-06-11T13:10:03Z</time>
      </trkpt>
      <trkpt lat="44.0899" lon="6.94846">
        <ele>1575.9</ele>
        <time>2022-06-11T13:10:04Z</time>
      </trkpt>
      <trkpt lat="44.08992" lon="6.94845">
        <ele>1575.9</ele>
        <time>2022-06-11T13:10:05Z</time>
      </trkpt>
      <trkpt lat="44.08994" lon="6.94843">
        <ele>1575.8</ele>
        <time>2022-06-11T13:10:06Z</time>
      </trkpt>
      <trkpt lat="44.08996" lon="6.94842">
        <ele>1575.6</ele>
        <time>2022-06-11T13:10:07Z</time>
      </trkpt>
      <trkpt lat="44.08998" lon="6.9484">
        <ele>1575.3</ele>
        <time>2022-06-11T13:10:08Z</time>
      </trkpt>
      <trkpt lat="44.08999" lon="6.94837">
        <ele>1574.8</ele>
        <time>2022-06-11T13:10:09Z</time>
      </trkpt>
      <trkpt lat="44.09" lon="6.94834">
        <ele>1574.2</ele>
        <time>2022-06-11T13:10:10Z</time>
      </trkpt>
      <trkpt lat="44.09001" lon="6.94831">
        <ele>1574.2</ele>
        <time>2022-06-11T13:10:11Z</time>
      </trkpt>
      <trkpt lat="44.09002" lon="6.94828">
        <ele>1574.3</ele>
        <time>2022-06-11T13:10:12Z</time>
      </trkpt>
      <trkpt lat="44.09002" lon="6.94824">
        <ele>1574.3</ele>
        <time>2022-06-11T13:10:13Z</time>
      </trkpt>
      <trkpt lat="44.09002" lon="6.94821">
        <ele>1574.3</ele>
        <time>2022-06-11T13:10:14Z</time>
      </trkpt>
      <trkpt lat="44.09002" lon="6.94818">
        <ele>1574.2</ele>
        <time>2022-06-11T13:10:15Z</time>
      </trkpt>
      <trkpt lat="44.09001" lon="6.94815">
        <ele>1574.1</ele>
        <time>2022-06-11T13:10:16Z</time>
      </trkpt>
      <trkpt lat="44.09" lon="6.94812">
        <ele>1574</ele>
        <time>2022-06-11T13:10:17Z</time>
      </trkpt>
      <trkpt lat="44.08999" lon="6.9481">
        <ele>1574</ele>
        <time>2022-06-11T13:10:18Z</time>
      </trkpt>
      <trkpt lat="44.08998" lon="6.94807">
        <ele>1574.1</ele>
        <time>2022-06-11T13:10:19Z</time>
      </trkpt>
      <trkpt lat="44.08996" lon="6.94805">
        <ele>1574.3</ele>
        <time>2022-06-11T13:10:20Z</time>
      </trkpt>
      <trkpt lat="44.08995" lon="6.94802">
        <ele>1574.8</ele>
        <time>2022-06-11T13:10:21Z</time>
      </trkpt>
      <trkpt lat="44.08993" lon="6.948">
        <ele>1575.3</ele>
        <time>2022-06-11T13:10:22Z</time>
      </trkpt>
      <trkpt lat="44.08991" lon="6.94799">
        <ele>1575.7</ele>
        <time>2022-06-11T13:10:23Z</time>
      </trkpt>
      <trkpt lat="44.08989" lon="6.94798">
        <ele>1576</ele>
        <time>2022-06-11T13:10:24Z</time>
      </trkpt>
      <trkpt lat="44.08987" lon="6.94797">
        <ele>1576.1</ele>
        <time>2022-06-11T13:10:25Z</time>
      </trkpt>
      <trkpt lat="44.08985" lon="6.94797">
        <ele>1576.3</ele>
        <time>2022-06-11T13:10:26Z</time>
      </trkpt>
      <trkpt lat="44.08983" lon="6.94796">
        <ele>1576.5</ele>
        <time>2022-06-11T13:10:27Z</time>
      </trkpt>
      <trkpt lat="44.08981" lon="6.94796">
        <ele>1576.7</ele>
        <time>2022-06-11T13:10:28Z</time>
      </trkpt>
      <trkpt lat="44.08979" lon="6.94796">
        <ele>1576.9</ele>
        <time>2022-06-11T13:10:29Z</time>
      </trkpt>
      <trkpt lat="44.08976" lon="6.94795">
        <ele>1577</ele>
        <time>2022-06-11T13:10:30Z</time>
      </trkpt>
      <trkpt lat="44.08974" lon="6.94796">
        <ele>1577.1</ele>
        <time>2022-06-11T13:10:31Z</time>
      </trkpt>
      <trkpt lat="44.08972" lon="6.94796">
        <ele>1577.1</ele>
        <time>2022-06-11T13:10:32Z</time>
      </trkpt>
      <trkpt lat="44.0897" lon="6.94796">
        <ele>1577.4</ele>
        <time>2022-06-11T13:10:33Z</time>
      </trkpt>
      <trkpt lat="44.08968" lon="6.94796">
        <ele>1577.5</ele>
        <time>2022-06-11T13:10:34Z</time>
      </trkpt>
      <trkpt lat="44.08966" lon="6.94796">
        <ele>1577.7</ele>
        <time>2022-06-11T13:10:35Z</time>
      </trkpt>
      <trkpt lat="44.08963" lon="6.94796">
        <ele>1577.9</ele>
        <time>2022-06-11T13:10:36Z</time>
      </trkpt>
      <trkpt lat="44.08961" lon="6.94797">
        <ele>1578</ele>
        <time>2022-06-11T13:10:37Z</time>
      </trkpt>
      <trkpt lat="44.08959" lon="6.94797">
        <ele>1578.1</ele>
        <time>2022-06-11T13:10:38Z</time>
      </trkpt>
      <trkpt lat="44.08957" lon="6.94798">
        <ele>1578.2</ele>
        <time>2022-06-11T13:10:39Z</time>
      </trkpt>
      <trkpt lat="44.08955" lon="6.94798">
        <ele>1578.3</ele>
        <time>2022-06-11T13:10:40Z</time>
      </trkpt>
      <trkpt lat="44.08952" lon="6.94799">
        <ele>1578.3</ele>
        <time>2022-06-11T13:10:41Z</time>
      </trkpt>
      <trkpt lat="44.0895" lon="6.94799">
        <ele>1578.3</ele>
        <time>2022-06-11T13:10:42Z</time>
      </trkpt>
      <trkpt lat="44.08948" lon="6.948">
        <ele>1578.4</ele>
        <time>2022-06-11T13:10:43Z</time>
      </trkpt>
      <trkpt lat="44.08945" lon="6.948">
        <ele>1578.5</ele>
        <time>2022-06-11T13:10:44Z</time>
      </trkpt>
      <trkpt lat="44.08943" lon="6.94801">
        <ele>1578.5</ele>
        <time>2022-06-11T13:10:45Z</time>
      </trkpt>
      <trkpt lat="44.08941" lon="6.94802">
        <ele>1578.4</ele>
        <time>2022-06-11T13:10:46Z</time>
      </trkpt>
      <trkpt lat="44.08939" lon="6.94802">
        <ele>1578.5</ele>
        <time>2022-06-11T13:10:47Z</time>
      </trkpt>
      <trkpt lat="44.08936" lon="6.94803">
        <ele>1578.5</ele>
        <time>2022-06-11T13:10:48Z</time>
      </trkpt>
      <trkpt lat="44.08934" lon="6.94804">
        <ele>1578.4</ele>
        <time>2022-06-11T13:10:49Z</time>
      </trkpt>
      <trkpt lat="44.08932" lon="6.94804">
        <ele>1578.3</ele>
        <time>2022-06-11T13:10:50Z</time>
      </trkpt>
      <trkpt lat="44.0893" lon="6.94805">
        <ele>1578.2</ele>
        <time>2022-06-11T13:10:51Z</time>
      </trkpt>
      <trkpt lat="44.08928" lon="6.94806">
        <ele>1578.2</ele>
        <time>2022-06-11T13:10:52Z</time>
      </trkpt>
      <trkpt lat="44.08925" lon="6.94806">
        <ele>1578.2</ele>
        <time>2022-06-11T13:10:53Z</time>
      </trkpt>
      <trkpt lat="44.08923" lon="6.94807">
        <ele>1578.3</ele>
        <time>2022-06-11T13:10:54Z</time>
      </trkpt>
      <trkpt lat="44.08921" lon="6.94807">
        <ele>1578.3</ele>
        <time>2022-06-11T13:10:55Z</time>
      </trkpt>
      <trkpt lat="44.08919" lon="6.94808">
        <ele>1578.4</ele>
        <time>2022-06-11T13:10:56Z</time>
      </trkpt>
      <trkpt lat="44.08916" lon="6.94808">
        <ele>1578.4</ele>
        <time>2022-06-11T13:10:57Z</time>
      </trkpt>
      <trkpt lat="44.08914" lon="6.94809">
        <ele>1578.2</ele>
        <time>2022-06-11T13:10:58Z</time>
      </trkpt>
      <trkpt lat="44.08912" lon="6.9481">
        <ele>1578</ele>
        <time>2022-06-11T13:10:59Z</time>
      </trkpt>
      <trkpt lat="44.08909" lon="6.9481">
        <ele>1577.8</ele>
        <time>2022-06-11T13:11:00Z</time>
      </trkpt>
      <trkpt lat="44.08907" lon="6.94811">
        <ele>1577.6</ele>
        <time>2022-06-11T13:11:01Z</time>
      </trkpt>
      <trkpt lat="44.08904" lon="6.94812">
        <ele>1577.5</ele>
        <time>2022-06-11T13:11:02Z</time>
      </trkpt>
      <trkpt lat="44.08902" lon="6.94812">
        <ele>1577.3</ele>
        <time>2022-06-11T13:11:03Z</time>
      </trkpt>
      <trkpt lat="44.089" lon="6.94813">
        <ele>1577</ele>
        <time>2022-06-11T13:11:04Z</time>
      </trkpt>
      <trkpt lat="44.08898" lon="6.94814">
        <ele>1576.8</ele>
        <time>2022-06-11T13:11:05Z</time>
      </trkpt>
      <trkpt lat="44.08895" lon="6.94815">
        <ele>1576.7</ele>
        <time>2022-06-11T13:11:06Z</time>
      </trkpt>
      <trkpt lat="44.08893" lon="6.94816">
        <ele>1576.5</ele>
        <time>2022-06-11T13:11:07Z</time>
      </trkpt>
      <trkpt lat="44.0889" lon="6.94816">
        <ele>1576.3</ele>
        <time>2022-06-11T13:11:08Z</time>
      </trkpt>
      <trkpt lat="44.08888" lon="6.94817">
        <ele>1576</ele>
        <time>2022-06-11T13:11:09Z</time>
      </trkpt>
      <trkpt lat="44.08885" lon="6.94817">
        <ele>1575.5</ele>
        <time>2022-06-11T13:11:10Z</time>
      </trkpt>
      <trkpt lat="44.08883" lon="6.94817">
        <ele>1575.2</ele>
        <time>2022-06-11T13:11:11Z</time>
      </trkpt>
      <trkpt lat="44.08881" lon="6.94817">
        <ele>1574.8</ele>
        <time>2022-06-11T13:11:12Z</time>
      </trkpt>
      <trkpt lat="44.08878" lon="6.94816">
        <ele>1574.6</ele>
        <time>2022-06-11T13:11:13Z</time>
      </trkpt>
      <trkpt lat="44.08876" lon="6.94815">
        <ele>1574.5</ele>
        <time>2022-06-11T13:11:14Z</time>
      </trkpt>
      <trkpt lat="44.08874" lon="6.94813">
        <ele>1574.5</ele>
        <time>2022-06-11T13:11:15Z</time>
      </trkpt>
      <trkpt lat="44.08872" lon="6.94812">
        <ele>1574.5</ele>
        <time>2022-06-11T13:11:16Z</time>
      </trkpt>
      <trkpt lat="44.0887" lon="6.9481">
        <ele>1574.6</ele>
        <time>2022-06-11T13:11:17Z</time>
      </trkpt>
      <trkpt lat="44.08868" lon="6.94808">
        <ele>1574.7</ele>
        <time>2022-06-11T13:11:18Z</time>
      </trkpt>
      <trkpt lat="44.08866" lon="6.94806">
        <ele>1574.8</ele>
        <time>2022-06-11T13:11:19Z</time>
      </trkpt>
      <trkpt lat="44.08865" lon="6.94804">
        <ele>1575.2</ele>
        <time>2022-06-11T13:11:20Z</time>
      </trkpt>
      <trkpt lat="44.08863" lon="6.94801">
        <ele>1575.8</ele>
        <time>2022-06-11T13:11:21Z</time>
      </trkpt>
      <trkpt lat="44.08862" lon="6.94798">
        <ele>1576.5</ele>
        <time>2022-06-11T13:11:22Z</time>
      </trkpt>
      <trkpt lat="44.08861" lon="6.94796">
        <ele>1577.2</ele>
        <time>2022-06-11T13:11:23Z</time>
      </trkpt>
      <trkpt lat="44.0886" lon="6.94792">
        <ele>1577.9</ele>
        <time>2022-06-11T13:11:24Z</time>
      </trkpt>
      <trkpt lat="44.08859" lon="6.94789">
        <ele>1578.7</ele>
        <time>2022-06-11T13:11:25Z</time>
      </trkpt>
      <trkpt lat="44.08858" lon="6.94787">
        <ele>1579.3</ele>
        <time>2022-06-11T13:11:26Z</time>
      </trkpt>
      <trkpt lat="44.08857" lon="6.94783">
        <ele>1580</ele>
        <time>2022-06-11T13:11:27Z</time>
      </trkpt>
      <trkpt lat="44.08856" lon="6.9478">
        <ele>1580.7</ele>
        <time>2022-06-11T13:11:28Z</time>
      </trkpt>
      <trkpt lat="44.08855" lon="6.94777">
        <ele>1581.4</ele>
        <time>2022-06-11T13:11:29Z</time>
      </trkpt>
      <trkpt lat="44.08854" lon="6.94774">
        <ele>1582.2</ele>
        <time>2022-06-11T13:11:30Z</time>
      </trkpt>
      <trkpt lat="44.08853" lon="6.94771">
        <ele>1582.8</ele>
        <time>2022-06-11T13:11:31Z</time>
      </trkpt>
      <trkpt lat="44.08852" lon="6.94768">
        <ele>1583.5</ele>
        <time>2022-06-11T13:11:32Z</time>
      </trkpt>
      <trkpt lat="44.08851" lon="6.94765">
        <ele>1584.1</ele>
        <time>2022-06-11T13:11:33Z</time>
      </trkpt>
      <trkpt lat="44.0885" lon="6.94761">
        <ele>1584.8</ele>
        <time>2022-06-11T13:11:34Z</time>
      </trkpt>
      <trkpt lat="44.0885" lon="6.94759">
        <ele>1585.3</ele>
        <time>2022-06-11T13:11:35Z</time>
      </trkpt>
      <trkpt lat="44.08849" lon="6.94755">
        <ele>1586</ele>
        <time>2022-06-11T13:11:36Z</time>
      </trkpt>
      <trkpt lat="44.08848" lon="6.94752">
        <ele>1586.5</ele>
        <time>2022-06-11T13:11:37Z</time>
      </trkpt>
      <trkpt lat="44.08847" lon="6.94749">
        <ele>1587.1</ele>
        <time>2022-06-11T13:11:38Z</time>
      </trkpt>
      <trkpt lat="44.08846" lon="6.94746">
        <ele>1587.6</ele>
        <time>2022-06-11T13:11:39Z</time>
      </trkpt>
      <trkpt lat="44.08845" lon="6.94744">
        <ele>1588.1</ele>
        <time>2022-06-11T13:11:40Z</time>
      </trkpt>
      <trkpt lat="44.08844" lon="6.94741">
        <ele>1588.5</ele>
        <time>2022-06-11T13:11:41Z</time>
      </trkpt>
      <trkpt lat="44.08842" lon="6.94738">
        <ele>1588.9</ele>
        <time>2022-06-11T13:11:42Z</time>
      </trkpt>
      <trkpt lat="44.08841" lon="6.94735">
        <ele>1589.5</ele>
        <time>2022-06-11T13:11:43Z</time>
      </trkpt>
      <trkpt lat="44.08841" lon="6.94732">
        <ele>1590.1</ele>
        <time>2022-06-11T13:11:44Z</time>
      </trkpt>
      <trkpt lat="44.08839" lon="6.94729">
        <ele>1590.5</ele>
        <time>2022-06-11T13:11:45Z</time>
      </trkpt>
      <trkpt lat="44.08838" lon="6.94726">
        <ele>1591</ele>
        <time>2022-06-11T13:11:46Z</time>
      </trkpt>
      <trkpt lat="44.08837" lon="6.94723">
        <ele>1591.3</ele>
        <time>2022-06-11T13:11:47Z</time>
      </trkpt>
      <trkpt lat="44.08836" lon="6.9472">
        <ele>1591.8</ele>
        <time>2022-06-11T13:11:48Z</time>
      </trkpt>
      <trkpt lat="44.08835" lon="6.94717">
        <ele>1592.4</ele>
        <time>2022-06-11T13:11:49Z</time>
      </trkpt>
      <trkpt lat="44.08834" lon="6.94714">
        <ele>1592.9</ele>
        <time>2022-06-11T13:11:50Z</time>
      </trkpt>
      <trkpt lat="44.08833" lon="6.94711">
        <ele>1593.5</ele>
        <time>2022-06-11T13:11:51Z</time>
      </trkpt>
      <trkpt lat="44.08832" lon="6.94708">
        <ele>1594</ele>
        <time>2022-06-11T13:11:52Z</time>
      </trkpt>
      <trkpt lat="44.08831" lon="6.94706">
        <ele>1594.3</ele>
        <time>2022-06-11T13:11:53Z</time>
      </trkpt>
      <trkpt lat="44.0883" lon="6.94703">
        <ele>1594.6</ele>
        <time>2022-06-11T13:11:54Z</time>
      </trkpt>
      <trkpt lat="44.08828" lon="6.947">
        <ele>1594.8</ele>
        <time>2022-06-11T13:11:55Z</time>
      </trkpt>
      <trkpt lat="44.08827" lon="6.94698">
        <ele>1595</ele>
        <time>2022-06-11T13:11:56Z</time>
      </trkpt>
      <trkpt lat="44.08825" lon="6.94695">
        <ele>1595</ele>
        <time>2022-06-11T13:11:57Z</time>
      </trkpt>
      <trkpt lat="44.08824" lon="6.94693">
        <ele>1595.1</ele>
        <time>2022-06-11T13:11:58Z</time>
      </trkpt>
      <trkpt lat="44.08822" lon="6.9469">
        <ele>1595.4</ele>
        <time>2022-06-11T13:11:59Z</time>
      </trkpt>
      <trkpt lat="44.08821" lon="6.94688">
        <ele>1595.7</ele>
        <time>2022-06-11T13:12:00Z</time>
      </trkpt>
      <trkpt lat="44.0882" lon="6.94685">
        <ele>1596</ele>
        <time>2022-06-11T13:12:01Z</time>
      </trkpt>
      <trkpt lat="44.08818" lon="6.94682">
        <ele>1596.4</ele>
        <time>2022-06-11T13:12:02Z</time>
      </trkpt>
      <trkpt lat="44.08817" lon="6.9468">
        <ele>1596.5</ele>
        <time>2022-06-11T13:12:03Z</time>
      </trkpt>
      <trkpt lat="44.08815" lon="6.94677">
        <ele>1596.7</ele>
        <time>2022-06-11T13:12:04Z</time>
      </trkpt>
      <trkpt lat="44.08814" lon="6.94674">
        <ele>1596.7</ele>
        <time>2022-06-11T13:12:05Z</time>
      </trkpt>
      <trkpt lat="44.08812" lon="6.94672">
        <ele>1596.5</ele>
        <time>2022-06-11T13:12:06Z</time>
      </trkpt>
      <trkpt lat="44.0881" lon="6.94669">
        <ele>1596.5</ele>
        <time>2022-06-11T13:12:07Z</time>
      </trkpt>
      <trkpt lat="44.08808" lon="6.94667">
        <ele>1596.4</ele>
        <time>2022-06-11T13:12:08Z</time>
      </trkpt>
      <trkpt lat="44.08806" lon="6.94664">
        <ele>1596.2</ele>
        <time>2022-06-11T13:12:09Z</time>
      </trkpt>
      <trkpt lat="44.08804" lon="6.94661">
        <ele>1596.1</ele>
        <time>2022-06-11T13:12:10Z</time>
      </trkpt>
      <trkpt lat="44.08803" lon="6.94659">
        <ele>1596.2</ele>
        <time>2022-06-11T13:12:11Z</time>
      </trkpt>
      <trkpt lat="44.08801" lon="6.94656">
        <ele>1596.4</ele>
        <time>2022-06-11T13:12:12Z</time>
      </trkpt>
      <trkpt lat="44.08799" lon="6.94654">
        <ele>1596.5</ele>
        <time>2022-06-11T13:12:13Z</time>
      </trkpt>
      <trkpt lat="44.08798" lon="6.94651">
        <ele>1596.6</ele>
        <time>2022-06-11T13:12:14Z</time>
      </trkpt>
      <trkpt lat="44.08796" lon="6.94649">
        <ele>1596.7</ele>
        <time>2022-06-11T13:12:15Z</time>
      </trkpt>
      <trkpt lat="44.08794" lon="6.94646">
        <ele>1596.7</ele>
        <time>2022-06-11T13:12:16Z</time>
      </trkpt>
      <trkpt lat="44.08793" lon="6.94643">
        <ele>1596.8</ele>
        <time>2022-06-11T13:12:17Z</time>
      </trkpt>
      <trkpt lat="44.08791" lon="6.94641">
        <ele>1596.8</ele>
        <time>2022-06-11T13:12:18Z</time>
      </trkpt>
      <trkpt lat="44.08789" lon="6.94638">
        <ele>1597</ele>
        <time>2022-06-11T13:12:19Z</time>
      </trkpt>
      <trkpt lat="44.08788" lon="6.94635">
        <ele>1597.3</ele>
        <time>2022-06-11T13:12:20Z</time>
      </trkpt>
      <trkpt lat="44.08787" lon="6.94632">
        <ele>1597.4</ele>
        <time>2022-06-11T13:12:21Z</time>
      </trkpt>
      <trkpt lat="44.08785" lon="6.94629">
        <ele>1597.7</ele>
        <time>2022-06-11T13:12:22Z</time>
      </trkpt>
      <trkpt lat="44.08784" lon="6.94626">
        <ele>1597.8</ele>
        <time>2022-06-11T13:12:23Z</time>
      </trkpt>
      <trkpt lat="44.08782" lon="6.94622">
        <ele>1597.9</ele>
        <time>2022-06-11T13:12:24Z</time>
      </trkpt>
      <trkpt lat="44.08781" lon="6.94619">
        <ele>1598</ele>
        <time>2022-06-11T13:12:25Z</time>
      </trkpt>
      <trkpt lat="44.0878" lon="6.94617">
        <ele>1597.8</ele>
        <time>2022-06-11T13:12:26Z</time>
      </trkpt>
      <trkpt lat="44.08778" lon="6.94614">
        <ele>1597.8</ele>
        <time>2022-06-11T13:12:27Z</time>
      </trkpt>
      <trkpt lat="44.08777" lon="6.94611">
        <ele>1597.9</ele>
        <time>2022-06-11T13:12:28Z</time>
      </trkpt>
      <trkpt lat="44.08776" lon="6.94608">
        <ele>1598.3</ele>
        <time>2022-06-11T13:12:29Z</time>
      </trkpt>
      <trkpt lat="44.08774" lon="6.94605">
        <ele>1598.6</ele>
        <time>2022-06-11T13:12:30Z</time>
      </trkpt>
      <trkpt lat="44.08773" lon="6.94603">
        <ele>1598.9</ele>
        <time>2022-06-11T13:12:31Z</time>
      </trkpt>
      <trkpt lat="44.08771" lon="6.946">
        <ele>1599.2</ele>
        <time>2022-06-11T13:12:32Z</time>
      </trkpt>
      <trkpt lat="44.0877" lon="6.94597">
        <ele>1599.5</ele>
        <time>2022-06-11T13:12:33Z</time>
      </trkpt>
      <trkpt lat="44.08768" lon="6.94594">
        <ele>1599.8</ele>
        <time>2022-06-11T13:12:34Z</time>
      </trkpt>
      <trkpt lat="44.08767" lon="6.94592">
        <ele>1600</ele>
        <time>2022-06-11T13:12:35Z</time>
      </trkpt>
      <trkpt lat="44.08766" lon="6.94589">
        <ele>1600.2</ele>
        <time>2022-06-11T13:12:36Z</time>
      </trkpt>
      <trkpt lat="44.08764" lon="6.94586">
        <ele>1600.3</ele>
        <time>2022-06-11T13:12:37Z</time>
      </trkpt>
      <trkpt lat="44.08763" lon="6.94583">
        <ele>1600.5</ele>
        <time>2022-06-11T13:12:38Z</time>
      </trkpt>
      <trkpt lat="44.08761" lon="6.94581">
        <ele>1600.8</ele>
        <time>2022-06-11T13:12:39Z</time>
      </trkpt>
      <trkpt lat="44.08759" lon="6.94578">
        <ele>1600.9</ele>
        <time>2022-06-11T13:12:40Z</time>
      </trkpt>
      <trkpt lat="44.08758" lon="6.94575">
        <ele>1601.2</ele>
        <time>2022-06-11T13:12:41Z</time>
      </trkpt>
      <trkpt lat="44.08756" lon="6.94573">
        <ele>1601.4</ele>
        <time>2022-06-11T13:12:42Z</time>
      </trkpt>
      <trkpt lat="44.08755" lon="6.9457">
        <ele>1601.6</ele>
        <time>2022-06-11T13:12:43Z</time>
      </trkpt>
      <trkpt lat="44.08754" lon="6.94567">
        <ele>1601.8</ele>
        <time>2022-06-11T13:12:44Z</time>
      </trkpt>
      <trkpt lat="44.08752" lon="6.94565">
        <ele>1601.8</ele>
        <time>2022-06-11T13:12:45Z</time>
      </trkpt>
      <trkpt lat="44.08751" lon="6.94562">
        <ele>1601.7</ele>
        <time>2022-06-11T13:12:46Z</time>
      </trkpt>
      <trkpt lat="44.08749" lon="6.94559">
        <ele>1601.8</ele>
        <time>2022-06-11T13:12:47Z</time>
      </trkpt>
      <trkpt lat="44.08748" lon="6.94557">
        <ele>1601.9</ele>
        <time>2022-06-11T13:12:48Z</time>
      </trkpt>
      <trkpt lat="44.08746" lon="6.94554">
        <ele>1602</ele>
        <time>2022-06-11T13:12:49Z</time>
      </trkpt>
      <trkpt lat="44.08745" lon="6.94552">
        <ele>1602.1</ele>
        <time>2022-06-11T13:12:50Z</time>
      </trkpt>
      <trkpt lat="44.08743" lon="6.94549">
        <ele>1602.3</ele>
        <time>2022-06-11T13:12:51Z</time>
      </trkpt>
      <trkpt lat="44.08742" lon="6.94547">
        <ele>1602.2</ele>
        <time>2022-06-11T13:12:52Z</time>
      </trkpt>
      <trkpt lat="44.0874" lon="6.94544">
        <ele>1602.2</ele>
        <time>2022-06-11T13:12:53Z</time>
      </trkpt>
      <trkpt lat="44.08739" lon="6.94541">
        <ele>1602.3</ele>
        <time>2022-06-11T13:12:54Z</time>
      </trkpt>
      <trkpt lat="44.08738" lon="6.94538">
        <ele>1602.2</ele>
        <time>2022-06-11T13:12:55Z</time>
      </trkpt>
      <trkpt lat="44.08736" lon="6.94536">
        <ele>1602.1</ele>
        <time>2022-06-11T13:12:56Z</time>
      </trkpt>
      <trkpt lat="44.08735" lon="6.94533">
        <ele>1602.1</ele>
        <time>2022-06-11T13:12:57Z</time>
      </trkpt>
      <trkpt lat="44.08734" lon="6.94531">
        <ele>1602</ele>
        <time>2022-06-11T13:12:58Z</time>
      </trkpt>
      <trkpt lat="44.08733" lon="6.94528">
        <ele>1601.9</ele>
        <time>2022-06-11T13:12:59Z</time>
      </trkpt>
      <trkpt lat="44.08731" lon="6.94525">
        <ele>1601.8</ele>
        <time>2022-06-11T13:13:00Z</time>
      </trkpt>
      <trkpt lat="44.0873" lon="6.94522">
        <ele>1601.6</ele>
        <time>2022-06-11T13:13:01Z</time>
      </trkpt>
      <trkpt lat="44.08728" lon="6.94519">
        <ele>1601.5</ele>
        <time>2022-06-11T13:13:02Z</time>
      </trkpt>
      <trkpt lat="44.08727" lon="6.94517">
        <ele>1601.5</ele>
        <time>2022-06-11T13:13:03Z</time>
      </trkpt>
      <trkpt lat="44.08726" lon="6.94514">
        <ele>1601.5</ele>
        <time>2022-06-11T13:13:04Z</time>
      </trkpt>
      <trkpt lat="44.08725" lon="6.94511">
        <ele>1601.3</ele>
        <time>2022-06-11T13:13:05Z</time>
      </trkpt>
      <trkpt lat="44.08723" lon="6.94508">
        <ele>1601.2</ele>
        <time>2022-06-11T13:13:06Z</time>
      </trkpt>
      <trkpt lat="44.08722" lon="6.94505">
        <ele>1601.1</ele>
        <time>2022-06-11T13:13:07Z</time>
      </trkpt>
      <trkpt lat="44.08721" lon="6.94502">
        <ele>1601.4</ele>
        <time>2022-06-11T13:13:08Z</time>
      </trkpt>
      <trkpt lat="44.0872" lon="6.94499">
        <ele>1601.7</ele>
        <time>2022-06-11T13:13:09Z</time>
      </trkpt>
      <trkpt lat="44.08719" lon="6.94496">
        <ele>1602.1</ele>
        <time>2022-06-11T13:13:10Z</time>
      </trkpt>
      <trkpt lat="44.08718" lon="6.94492">
        <ele>1602.5</ele>
        <time>2022-06-11T13:13:11Z</time>
      </trkpt>
      <trkpt lat="44.08716" lon="6.94489">
        <ele>1602.7</ele>
        <time>2022-06-11T13:13:12Z</time>
      </trkpt>
      <trkpt lat="44.08716" lon="6.94486">
        <ele>1603.1</ele>
        <time>2022-06-11T13:13:13Z</time>
      </trkpt>
      <trkpt lat="44.08715" lon="6.94483">
        <ele>1603.4</ele>
        <time>2022-06-11T13:13:14Z</time>
      </trkpt>
      <trkpt lat="44.08714" lon="6.9448">
        <ele>1603.8</ele>
        <time>2022-06-11T13:13:15Z</time>
      </trkpt>
      <trkpt lat="44.08713" lon="6.94476">
        <ele>1604</ele>
        <time>2022-06-11T13:13:16Z</time>
      </trkpt>
      <trkpt lat="44.08712" lon="6.94473">
        <ele>1604.2</ele>
        <time>2022-06-11T13:13:17Z</time>
      </trkpt>
      <trkpt lat="44.08711" lon="6.9447">
        <ele>1604.6</ele>
        <time>2022-06-11T13:13:18Z</time>
      </trkpt>
      <trkpt lat="44.0871" lon="6.94466">
        <ele>1605</ele>
        <time>2022-06-11T13:13:19Z</time>
      </trkpt>
      <trkpt lat="44.08709" lon="6.94463">
        <ele>1605.4</ele>
        <time>2022-06-11T13:13:20Z</time>
      </trkpt>
      <trkpt lat="44.08707" lon="6.9446">
        <ele>1605.8</ele>
        <time>2022-06-11T13:13:21Z</time>
      </trkpt>
      <trkpt lat="44.08706" lon="6.94456">
        <ele>1606.2</ele>
        <time>2022-06-11T13:13:22Z</time>
      </trkpt>
      <trkpt lat="44.08705" lon="6.94453">
        <ele>1606.3</ele>
        <time>2022-06-11T13:13:23Z</time>
      </trkpt>
      <trkpt lat="44.08704" lon="6.9445">
        <ele>1606.4</ele>
        <time>2022-06-11T13:13:24Z</time>
      </trkpt>
      <trkpt lat="44.08703" lon="6.94447">
        <ele>1606.6</ele>
        <time>2022-06-11T13:13:25Z</time>
      </trkpt>
      <trkpt lat="44.08701" lon="6.94443">
        <ele>1606.8</ele>
        <time>2022-06-11T13:13:26Z</time>
      </trkpt>
      <trkpt lat="44.087" lon="6.9444">
        <ele>1607</ele>
        <time>2022-06-11T13:13:27Z</time>
      </trkpt>
      <trkpt lat="44.08699" lon="6.94437">
        <ele>1607.4</ele>
        <time>2022-06-11T13:13:28Z</time>
      </trkpt>
      <trkpt lat="44.08698" lon="6.94433">
        <ele>1607.5</ele>
        <time>2022-06-11T13:13:29Z</time>
      </trkpt>
      <trkpt lat="44.08696" lon="6.9443">
        <ele>1607.5</ele>
        <time>2022-06-11T13:13:30Z</time>
      </trkpt>
      <trkpt lat="44.08694" lon="6.94426">
        <ele>1607.6</ele>
        <time>2022-06-11T13:13:31Z</time>
      </trkpt>
      <trkpt lat="44.08693" lon="6.94422">
        <ele>1608.5</ele>
        <time>2022-06-11T13:13:32Z</time>
      </trkpt>
      <trkpt lat="44.08693" lon="6.94418">
        <ele>1609.3</ele>
        <time>2022-06-11T13:13:33Z</time>
      </trkpt>
      <trkpt lat="44.08692" lon="6.94414">
        <ele>1609.8</ele>
        <time>2022-06-11T13:13:34Z</time>
      </trkpt>
      <trkpt lat="44.08691" lon="6.9441">
        <ele>1610.3</ele>
        <time>2022-06-11T13:13:35Z</time>
      </trkpt>
      <trkpt lat="44.0869" lon="6.94406">
        <ele>1610.6</ele>
        <time>2022-06-11T13:13:36Z</time>
      </trkpt>
      <trkpt lat="44.08689" lon="6.94402">
        <ele>1611</ele>
        <time>2022-06-11T13:13:37Z</time>
      </trkpt>
      <trkpt lat="44.08689" lon="6.94398">
        <ele>1611.3</ele>
        <time>2022-06-11T13:13:38Z</time>
      </trkpt>
      <trkpt lat="44.08688" lon="6.94393">
        <ele>1611.6</ele>
        <time>2022-06-11T13:13:39Z</time>
      </trkpt>
      <trkpt lat="44.08687" lon="6.94389">
        <ele>1611.9</ele>
        <time>2022-06-11T13:13:40Z</time>
      </trkpt>
      <trkpt lat="44.08686" lon="6.94384">
        <ele>1611.8</ele>
        <time>2022-06-11T13:13:41Z</time>
      </trkpt>
      <trkpt lat="44.08686" lon="6.94379">
        <ele>1611.9</ele>
        <time>2022-06-11T13:13:42Z</time>
      </trkpt>
      <trkpt lat="44.08685" lon="6.94374">
        <ele>1612</ele>
        <time>2022-06-11T13:13:43Z</time>
      </trkpt>
      <trkpt lat="44.08685" lon="6.9437">
        <ele>1612.1</ele>
        <time>2022-06-11T13:13:44Z</time>
      </trkpt>
      <trkpt lat="44.08684" lon="6.94366">
        <ele>1612.2</ele>
        <time>2022-06-11T13:13:45Z</time>
      </trkpt>
      <trkpt lat="44.08684" lon="6.94362">
        <ele>1612.4</ele>
        <time>2022-06-11T13:13:46Z</time>
      </trkpt>
      <trkpt lat="44.08685" lon="6.94358">
        <ele>1612.6</ele>
        <time>2022-06-11T13:13:47Z</time>
      </trkpt>
      <trkpt lat="44.08685" lon="6.94355">
        <ele>1612.8</ele>
        <time>2022-06-11T13:13:48Z</time>
      </trkpt>
      <trkpt lat="44.08685" lon="6.94351">
        <ele>1612.9</ele>
        <time>2022-06-11T13:13:49Z</time>
      </trkpt>
      <trkpt lat="44.08686" lon="6.94348">
        <ele>1613.1</ele>
        <time>2022-06-11T13:13:50Z</time>
      </trkpt>
      <trkpt lat="44.08686" lon="6.94344">
        <ele>1613.2</ele>
        <time>2022-06-11T13:13:51Z</time>
      </trkpt>
      <trkpt lat="44.08686" lon="6.9434">
        <ele>1613.3</ele>
        <time>2022-06-11T13:13:52Z</time>
      </trkpt>
      <trkpt lat="44.08686" lon="6.94336">
        <ele>1613.4</ele>
        <time>2022-06-11T13:13:53Z</time>
      </trkpt>
      <trkpt lat="44.08686" lon="6.94332">
        <ele>1613.5</ele>
        <time>2022-06-11T13:13:54Z</time>
      </trkpt>
      <trkpt lat="44.08687" lon="6.94329">
        <ele>1613.6</ele>
        <time>2022-06-11T13:13:55Z</time>
      </trkpt>
      <trkpt lat="44.08687" lon="6.94325">
        <ele>1613.6</ele>
        <time>2022-06-11T13:13:56Z</time>
      </trkpt>
      <trkpt lat="44.08688" lon="6.94321">
        <ele>1613.7</ele>
        <time>2022-06-11T13:13:57Z</time>
      </trkpt>
      <trkpt lat="44.08689" lon="6.94318">
        <ele>1613.7</ele>
        <time>2022-06-11T13:13:58Z</time>
      </trkpt>
      <trkpt lat="44.08689" lon="6.94314">
        <ele>1613.8</ele>
        <time>2022-06-11T13:13:59Z</time>
      </trkpt>
      <trkpt lat="44.0869" lon="6.94311">
        <ele>1613.8</ele>
        <time>2022-06-11T13:14:00Z</time>
      </trkpt>
      <trkpt lat="44.08691" lon="6.94308">
        <ele>1613.8</ele>
        <time>2022-06-11T13:14:01Z</time>
      </trkpt>
      <trkpt lat="44.08692" lon="6.94304">
        <ele>1613.8</ele>
        <time>2022-06-11T13:14:02Z</time>
      </trkpt>
      <trkpt lat="44.08692" lon="6.94301">
        <ele>1613.7</ele>
        <time>2022-06-11T13:14:03Z</time>
      </trkpt>
      <trkpt lat="44.08694" lon="6.94298">
        <ele>1613.7</ele>
        <time>2022-06-11T13:14:04Z</time>
      </trkpt>
      <trkpt lat="44.08695" lon="6.94294">
        <ele>1613.6</ele>
        <time>2022-06-11T13:14:05Z</time>
      </trkpt>
      <trkpt lat="44.08696" lon="6.94291">
        <ele>1613.9</ele>
        <time>2022-06-11T13:14:06Z</time>
      </trkpt>
      <trkpt lat="44.08697" lon="6.94288">
        <ele>1614.1</ele>
        <time>2022-06-11T13:14:07Z</time>
      </trkpt>
      <trkpt lat="44.08698" lon="6.94285">
        <ele>1614.3</ele>
        <time>2022-06-11T13:14:08Z</time>
      </trkpt>
      <trkpt lat="44.08699" lon="6.94282">
        <ele>1614.5</ele>
        <time>2022-06-11T13:14:09Z</time>
      </trkpt>
      <trkpt lat="44.087" lon="6.94278">
        <ele>1614.7</ele>
        <time>2022-06-11T13:14:10Z</time>
      </trkpt>
      <trkpt lat="44.08702" lon="6.94275">
        <ele>1615.1</ele>
        <time>2022-06-11T13:14:11Z</time>
      </trkpt>
      <trkpt lat="44.08703" lon="6.94272">
        <ele>1615.4</ele>
        <time>2022-06-11T13:14:12Z</time>
      </trkpt>
      <trkpt lat="44.08704" lon="6.94269">
        <ele>1615.7</ele>
        <time>2022-06-11T13:14:13Z</time>
      </trkpt>
      <trkpt lat="44.08706" lon="6.94267">
        <ele>1616</ele>
        <time>2022-06-11T13:14:14Z</time>
      </trkpt>
      <trkpt lat="44.08707" lon="6.94264">
        <ele>1616.3</ele>
        <time>2022-06-11T13:14:15Z</time>
      </trkpt>
      <trkpt lat="44.08709" lon="6.9426">
        <ele>1616.4</ele>
        <time>2022-06-11T13:14:16Z</time>
      </trkpt>
      <trkpt lat="44.0871" lon="6.94257">
        <ele>1616.5</ele>
        <time>2022-06-11T13:14:17Z</time>
      </trkpt>
      <trkpt lat="44.08712" lon="6.94254">
        <ele>1616.5</ele>
        <time>2022-06-11T13:14:18Z</time>
      </trkpt>
      <trkpt lat="44.08713" lon="6.94251">
        <ele>1616.4</ele>
        <time>2022-06-11T13:14:19Z</time>
      </trkpt>
      <trkpt lat="44.08715" lon="6.94249">
        <ele>1616.4</ele>
        <time>2022-06-11T13:14:20Z</time>
      </trkpt>
      <trkpt lat="44.08716" lon="6.94246">
        <ele>1616.4</ele>
        <time>2022-06-11T13:14:21Z</time>
      </trkpt>
      <trkpt lat="44.08718" lon="6.94243">
        <ele>1616.4</ele>
        <time>2022-06-11T13:14:22Z</time>
      </trkpt>
      <trkpt lat="44.08719" lon="6.9424">
        <ele>1616.3</ele>
        <time>2022-06-11T13:14:23Z</time>
      </trkpt>
      <trkpt lat="44.08721" lon="6.94237">
        <ele>1616.1</ele>
        <time>2022-06-11T13:14:24Z</time>
      </trkpt>
      <trkpt lat="44.08722" lon="6.94234">
        <ele>1615.9</ele>
        <time>2022-06-11T13:14:25Z</time>
      </trkpt>
      <trkpt lat="44.08724" lon="6.94231">
        <ele>1616.2</ele>
        <time>2022-06-11T13:14:26Z</time>
      </trkpt>
      <trkpt lat="44.08726" lon="6.94229">
        <ele>1616.4</ele>
        <time>2022-06-11T13:14:27Z</time>
      </trkpt>
      <trkpt lat="44.08728" lon="6.94226">
        <ele>1616.6</ele>
        <time>2022-06-11T13:14:28Z</time>
      </trkpt>
      <trkpt lat="44.0873" lon="6.94223">
        <ele>1616.8</ele>
        <time>2022-06-11T13:14:29Z</time>
      </trkpt>
      <trkpt lat="44.08732" lon="6.94221">
        <ele>1617.1</ele>
        <time>2022-06-11T13:14:30Z</time>
      </trkpt>
      <trkpt lat="44.08734" lon="6.94218">
        <ele>1617.4</ele>
        <time>2022-06-11T13:14:31Z</time>
      </trkpt>
      <trkpt lat="44.08736" lon="6.94216">
        <ele>1617.7</ele>
        <time>2022-06-11T13:14:32Z</time>
      </trkpt>
      <trkpt lat="44.08738" lon="6.94213">
        <ele>1617.9</ele>
        <time>2022-06-11T13:14:33Z</time>
      </trkpt>
      <trkpt lat="44.0874" lon="6.9421">
        <ele>1618</ele>
        <time>2022-06-11T13:14:34Z</time>
      </trkpt>
      <trkpt lat="44.08742" lon="6.94207">
        <ele>1618</ele>
        <time>2022-06-11T13:14:35Z</time>
      </trkpt>
      <trkpt lat="44.08744" lon="6.94205">
        <ele>1617.9</ele>
        <time>2022-06-11T13:14:36Z</time>
      </trkpt>
      <trkpt lat="44.08745" lon="6.94202">
        <ele>1617.8</ele>
        <time>2022-06-11T13:14:37Z</time>
      </trkpt>
      <trkpt lat="44.08747" lon="6.94199">
        <ele>1617.5</ele>
        <time>2022-06-11T13:14:38Z</time>
      </trkpt>
      <trkpt lat="44.08749" lon="6.94196">
        <ele>1617.2</ele>
        <time>2022-06-11T13:14:39Z</time>
      </trkpt>
      <trkpt lat="44.0875" lon="6.94193">
        <ele>1617.1</ele>
        <time>2022-06-11T13:14:40Z</time>
      </trkpt>
      <trkpt lat="44.08752" lon="6.9419">
        <ele>1617.5</ele>
        <time>2022-06-11T13:14:41Z</time>
      </trkpt>
      <trkpt lat="44.08754" lon="6.94187">
        <ele>1617.8</ele>
        <time>2022-06-11T13:14:42Z</time>
      </trkpt>
      <trkpt lat="44.08755" lon="6.94185">
        <ele>1618.1</ele>
        <time>2022-06-11T13:14:43Z</time>
      </trkpt>
      <trkpt lat="44.08757" lon="6.94182">
        <ele>1618.3</ele>
        <time>2022-06-11T13:14:44Z</time>
      </trkpt>
      <trkpt lat="44.08759" lon="6.9418">
        <ele>1618.4</ele>
        <time>2022-06-11T13:14:45Z</time>
      </trkpt>
      <trkpt lat="44.08761" lon="6.94177">
        <ele>1618.5</ele>
        <time>2022-06-11T13:14:46Z</time>
      </trkpt>
      <trkpt lat="44.08763" lon="6.94175">
        <ele>1618.5</ele>
        <time>2022-06-11T13:14:47Z</time>
      </trkpt>
      <trkpt lat="44.08765" lon="6.94172">
        <ele>1618.5</ele>
        <time>2022-06-11T13:14:48Z</time>
      </trkpt>
      <trkpt lat="44.08767" lon="6.9417">
        <ele>1618.3</ele>
        <time>2022-06-11T13:14:49Z</time>
      </trkpt>
      <trkpt lat="44.08769" lon="6.94168">
        <ele>1618.1</ele>
        <time>2022-06-11T13:14:50Z</time>
      </trkpt>
      <trkpt lat="44.0877" lon="6.94165">
        <ele>1618</ele>
        <time>2022-06-11T13:14:51Z</time>
      </trkpt>
      <trkpt lat="44.08772" lon="6.94162">
        <ele>1618.1</ele>
        <time>2022-06-11T13:14:52Z</time>
      </trkpt>
      <trkpt lat="44.08774" lon="6.9416">
        <ele>1618.1</ele>
        <time>2022-06-11T13:14:53Z</time>
      </trkpt>
      <trkpt lat="44.08776" lon="6.94157">
        <ele>1618.1</ele>
        <time>2022-06-11T13:14:54Z</time>
      </trkpt>
      <trkpt lat="44.08778" lon="6.94155">
        <ele>1618</ele>
        <time>2022-06-11T13:14:55Z</time>
      </trkpt>
      <trkpt lat="44.0878" lon="6.94152">
        <ele>1618.2</ele>
        <time>2022-06-11T13:14:56Z</time>
      </trkpt>
      <trkpt lat="44.08782" lon="6.9415">
        <ele>1618.4</ele>
        <time>2022-06-11T13:14:57Z</time>
      </trkpt>
      <trkpt lat="44.08784" lon="6.94147">
        <ele>1618.6</ele>
        <time>2022-06-11T13:14:58Z</time>
      </trkpt>
      <trkpt lat="44.08786" lon="6.94145">
        <ele>1618.8</ele>
        <time>2022-06-11T13:14:59Z</time>
      </trkpt>
      <trkpt lat="44.08788" lon="6.94143">
        <ele>1618.9</ele>
        <time>2022-06-11T13:15:00Z</time>
      </trkpt>
      <trkpt lat="44.08791" lon="6.9414">
        <ele>1619</ele>
        <time>2022-06-11T13:15:01Z</time>
      </trkpt>
      <trkpt lat="44.08793" lon="6.94138">
        <ele>1619.1</ele>
        <time>2022-06-11T13:15:02Z</time>
      </trkpt>
      <trkpt lat="44.08795" lon="6.94136">
        <ele>1619.3</ele>
        <time>2022-06-11T13:15:03Z</time>
      </trkpt>
      <trkpt lat="44.08798" lon="6.94134">
        <ele>1619.5</ele>
        <time>2022-06-11T13:15:04Z</time>
      </trkpt>
      <trkpt lat="44.088" lon="6.94132">
        <ele>1619.7</ele>
        <time>2022-06-11T13:15:05Z</time>
      </trkpt>
      <trkpt lat="44.08803" lon="6.9413">
        <ele>1619.9</ele>
        <time>2022-06-11T13:15:06Z</time>
      </trkpt>
      <trkpt lat="44.08805" lon="6.94128">
        <ele>1620</ele>
        <time>2022-06-11T13:15:07Z</time>
      </trkpt>
      <trkpt lat="44.08808" lon="6.94126">
        <ele>1620.2</ele>
        <time>2022-06-11T13:15:08Z</time>
      </trkpt>
      <trkpt lat="44.0881" lon="6.94124">
        <ele>1620.3</ele>
        <time>2022-06-11T13:15:09Z</time>
      </trkpt>
      <trkpt lat="44.08813" lon="6.94123">
        <ele>1620.5</ele>
        <time>2022-06-11T13:15:10Z</time>
      </trkpt>
      <trkpt lat="44.08815" lon="6.94121">
        <ele>1620.6</ele>
        <time>2022-06-11T13:15:11Z</time>
      </trkpt>
      <trkpt lat="44.08818" lon="6.94119">
        <ele>1620.7</ele>
        <time>2022-06-11T13:15:12Z</time>
      </trkpt>
      <trkpt lat="44.0882" lon="6.94117">
        <ele>1620.8</ele>
        <time>2022-06-11T13:15:13Z</time>
      </trkpt>
      <trkpt lat="44.08823" lon="6.94115">
        <ele>1620.8</ele>
        <time>2022-06-11T13:15:14Z</time>
      </trkpt>
      <trkpt lat="44.08825" lon="6.94113">
        <ele>1620.8</ele>
        <time>2022-06-11T13:15:15Z</time>
      </trkpt>
      <trkpt lat="44.08828" lon="6.94111">
        <ele>1620.8</ele>
        <time>2022-06-11T13:15:16Z</time>
      </trkpt>
      <trkpt lat="44.0883" lon="6.94109">
        <ele>1621</ele>
        <time>2022-06-11T13:15:17Z</time>
      </trkpt>
      <trkpt lat="44.08833" lon="6.94107">
        <ele>1621.1</ele>
        <time>2022-06-11T13:15:18Z</time>
      </trkpt>
      <trkpt lat="44.08835" lon="6.94105">
        <ele>1621.4</ele>
        <time>2022-06-11T13:15:19Z</time>
      </trkpt>
      <trkpt lat="44.08838" lon="6.94102">
        <ele>1621.7</ele>
        <time>2022-06-11T13:15:20Z</time>
      </trkpt>
      <trkpt lat="44.0884" lon="6.941">
        <ele>1622</ele>
        <time>2022-06-11T13:15:21Z</time>
      </trkpt>
      <trkpt lat="44.08843" lon="6.94097">
        <ele>1622.4</ele>
        <time>2022-06-11T13:15:22Z</time>
      </trkpt>
      <trkpt lat="44.08845" lon="6.94094">
        <ele>1622.6</ele>
        <time>2022-06-11T13:15:23Z</time>
      </trkpt>
      <trkpt lat="44.08848" lon="6.94091">
        <ele>1622.9</ele>
        <time>2022-06-11T13:15:24Z</time>
      </trkpt>
      <trkpt lat="44.0885" lon="6.94089">
        <ele>1623.1</ele>
        <time>2022-06-11T13:15:25Z</time>
      </trkpt>
      <trkpt lat="44.08853" lon="6.94086">
        <ele>1623.4</ele>
        <time>2022-06-11T13:15:26Z</time>
      </trkpt>
      <trkpt lat="44.08855" lon="6.94083">
        <ele>1623.6</ele>
        <time>2022-06-11T13:15:27Z</time>
      </trkpt>
      <trkpt lat="44.08858" lon="6.9408">
        <ele>1623.8</ele>
        <time>2022-06-11T13:15:28Z</time>
      </trkpt>
      <trkpt lat="44.0886" lon="6.94077">
        <ele>1623.9</ele>
        <time>2022-06-11T13:15:29Z</time>
      </trkpt>
      <trkpt lat="44.08863" lon="6.94074">
        <ele>1624.1</ele>
        <time>2022-06-11T13:15:30Z</time>
      </trkpt>
      <trkpt lat="44.08865" lon="6.94071">
        <ele>1624.3</ele>
        <time>2022-06-11T13:15:31Z</time>
      </trkpt>
      <trkpt lat="44.08867" lon="6.94069">
        <ele>1624.6</ele>
        <time>2022-06-11T13:15:32Z</time>
      </trkpt>
      <trkpt lat="44.0887" lon="6.94067">
        <ele>1624.8</ele>
        <time>2022-06-11T13:15:33Z</time>
      </trkpt>
      <trkpt lat="44.08873" lon="6.94065">
        <ele>1625</ele>
        <time>2022-06-11T13:15:34Z</time>
      </trkpt>
      <trkpt lat="44.08876" lon="6.94063">
        <ele>1625.2</ele>
        <time>2022-06-11T13:15:35Z</time>
      </trkpt>
      <trkpt lat="44.08879" lon="6.94062">
        <ele>1625.4</ele>
        <time>2022-06-11T13:15:36Z</time>
      </trkpt>
      <trkpt lat="44.08881" lon="6.94059">
        <ele>1625.5</ele>
        <time>2022-06-11T13:15:37Z</time>
      </trkpt>
      <trkpt lat="44.08883" lon="6.94056">
        <ele>1625.6</ele>
        <time>2022-06-11T13:15:38Z</time>
      </trkpt>
      <trkpt lat="44.08885" lon="6.94053">
        <ele>1625.7</ele>
        <time>2022-06-11T13:15:39Z</time>
      </trkpt>
      <trkpt lat="44.08887" lon="6.94049">
        <ele>1625.9</ele>
        <time>2022-06-11T13:15:40Z</time>
      </trkpt>
      <trkpt lat="44.08889" lon="6.94046">
        <ele>1626</ele>
        <time>2022-06-11T13:15:41Z</time>
      </trkpt>
      <trkpt lat="44.08891" lon="6.94042">
        <ele>1626.3</ele>
        <time>2022-06-11T13:15:42Z</time>
      </trkpt>
      <trkpt lat="44.08893" lon="6.94038">
        <ele>1626.5</ele>
        <time>2022-06-11T13:15:43Z</time>
      </trkpt>
      <trkpt lat="44.08895" lon="6.94034">
        <ele>1626.7</ele>
        <time>2022-06-11T13:15:44Z</time>
      </trkpt>
      <trkpt lat="44.08896" lon="6.94031">
        <ele>1626.9</ele>
        <time>2022-06-11T13:15:45Z</time>
      </trkpt>
      <trkpt lat="44.08898" lon="6.94027">
        <ele>1627</ele>
        <time>2022-06-11T13:15:46Z</time>
      </trkpt>
      <trkpt lat="44.089" lon="6.94024">
        <ele>1627.1</ele>
        <time>2022-06-11T13:15:47Z</time>
      </trkpt>
      <trkpt lat="44.08902" lon="6.9402">
        <ele>1627.3</ele>
        <time>2022-06-11T13:15:48Z</time>
      </trkpt>
      <trkpt lat="44.08904" lon="6.94017">
        <ele>1627.4</ele>
        <time>2022-06-11T13:15:49Z</time>
      </trkpt>
      <trkpt lat="44.08906" lon="6.94013">
        <ele>1627.5</ele>
        <time>2022-06-11T13:15:50Z</time>
      </trkpt>
      <trkpt lat="44.08908" lon="6.9401">
        <ele>1627.6</ele>
        <time>2022-06-11T13:15:51Z</time>
      </trkpt>
      <trkpt lat="44.0891" lon="6.94007">
        <ele>1627.7</ele>
        <time>2022-06-11T13:15:52Z</time>
      </trkpt>
      <trkpt lat="44.08913" lon="6.94003">
        <ele>1627.8</ele>
        <time>2022-06-11T13:15:53Z</time>
      </trkpt>
      <trkpt lat="44.08915" lon="6.94">
        <ele>1627.9</ele>
        <time>2022-06-11T13:15:54Z</time>
      </trkpt>
      <trkpt lat="44.08917" lon="6.93997">
        <ele>1628</ele>
        <time>2022-06-11T13:15:55Z</time>
      </trkpt>
      <trkpt lat="44.08919" lon="6.93993">
        <ele>1628.4</ele>
        <time>2022-06-11T13:15:56Z</time>
      </trkpt>
      <trkpt lat="44.08921" lon="6.93989">
        <ele>1628.7</ele>
        <time>2022-06-11T13:15:57Z</time>
      </trkpt>
      <trkpt lat="44.08923" lon="6.93986">
        <ele>1629.1</ele>
        <time>2022-06-11T13:15:58Z</time>
      </trkpt>
      <trkpt lat="44.08925" lon="6.93983">
        <ele>1629.4</ele>
        <time>2022-06-11T13:15:59Z</time>
      </trkpt>
      <trkpt lat="44.08927" lon="6.93979">
        <ele>1629.6</ele>
        <time>2022-06-11T13:16:00Z</time>
      </trkpt>
      <trkpt lat="44.08928" lon="6.93976">
        <ele>1629.8</ele>
        <time>2022-06-11T13:16:01Z</time>
      </trkpt>
      <trkpt lat="44.0893" lon="6.93973">
        <ele>1629.9</ele>
        <time>2022-06-11T13:16:02Z</time>
      </trkpt>
      <trkpt lat="44.08932" lon="6.93969">
        <ele>1630.1</ele>
        <time>2022-06-11T13:16:03Z</time>
      </trkpt>
      <trkpt lat="44.08934" lon="6.93966">
        <ele>1630.3</ele>
        <time>2022-06-11T13:16:04Z</time>
      </trkpt>
      <trkpt lat="44.08935" lon="6.93962">
        <ele>1630.4</ele>
        <time>2022-06-11T13:16:05Z</time>
      </trkpt>
      <trkpt lat="44.08937" lon="6.93958">
        <ele>1630.6</ele>
        <time>2022-06-11T13:16:06Z</time>
      </trkpt>
      <trkpt lat="44.08939" lon="6.93955">
        <ele>1630.7</ele>
        <time>2022-06-11T13:16:07Z</time>
      </trkpt>
      <trkpt lat="44.0894" lon="6.93951">
        <ele>1630.7</ele>
        <time>2022-06-11T13:16:08Z</time>
      </trkpt>
      <trkpt lat="44.08942" lon="6.93947">
        <ele>1630.8</ele>
        <time>2022-06-11T13:16:09Z</time>
      </trkpt>
      <trkpt lat="44.08943" lon="6.93943">
        <ele>1630.9</ele>
        <time>2022-06-11T13:16:10Z</time>
      </trkpt>
      <trkpt lat="44.08945" lon="6.9394">
        <ele>1631</ele>
        <time>2022-06-11T13:16:11Z</time>
      </trkpt>
      <trkpt lat="44.08946" lon="6.93936">
        <ele>1631.3</ele>
        <time>2022-06-11T13:16:12Z</time>
      </trkpt>
      <trkpt lat="44.08948" lon="6.93933">
        <ele>1631.5</ele>
        <time>2022-06-11T13:16:13Z</time>
      </trkpt>
      <trkpt lat="44.08949" lon="6.93929">
        <ele>1631.8</ele>
        <time>2022-06-11T13:16:14Z</time>
      </trkpt>
      <trkpt lat="44.08951" lon="6.93926">
        <ele>1632</ele>
        <time>2022-06-11T13:16:15Z</time>
      </trkpt>
      <trkpt lat="44.08952" lon="6.93923">
        <ele>1632.2</ele>
        <time>2022-06-11T13:16:16Z</time>
      </trkpt>
      <trkpt lat="44.08954" lon="6.93919">
        <ele>1632.4</ele>
        <time>2022-06-11T13:16:17Z</time>
      </trkpt>
      <trkpt lat="44.08955" lon="6.93916">
        <ele>1632.5</ele>
        <time>2022-06-11T13:16:18Z</time>
      </trkpt>
      <trkpt lat="44.08956" lon="6.93913">
        <ele>1632.8</ele>
        <time>2022-06-11T13:16:19Z</time>
      </trkpt>
      <trkpt lat="44.08958" lon="6.9391">
        <ele>1633.1</ele>
        <time>2022-06-11T13:16:20Z</time>
      </trkpt>
      <trkpt lat="44.08959" lon="6.93907">
        <ele>1633.3</ele>
        <time>2022-06-11T13:16:21Z</time>
      </trkpt>
      <trkpt lat="44.0896" lon="6.93903">
        <ele>1633.5</ele>
        <time>2022-06-11T13:16:22Z</time>
      </trkpt>
      <trkpt lat="44.08962" lon="6.939">
        <ele>1633.7</ele>
        <time>2022-06-11T13:16:23Z</time>
      </trkpt>
      <trkpt lat="44.08963" lon="6.93897">
        <ele>1633.9</ele>
        <time>2022-06-11T13:16:24Z</time>
      </trkpt>
      <trkpt lat="44.08964" lon="6.93894">
        <ele>1634</ele>
        <time>2022-06-11T13:16:25Z</time>
      </trkpt>
      <trkpt lat="44.08965" lon="6.9389">
        <ele>1634.2</ele>
        <time>2022-06-11T13:16:26Z</time>
      </trkpt>
      <trkpt lat="44.08967" lon="6.93887">
        <ele>1634.4</ele>
        <time>2022-06-11T13:16:27Z</time>
      </trkpt>
      <trkpt lat="44.08968" lon="6.93884">
        <ele>1634.6</ele>
        <time>2022-06-11T13:16:28Z</time>
      </trkpt>
      <trkpt lat="44.08969" lon="6.93881">
        <ele>1634.7</ele>
        <time>2022-06-11T13:16:29Z</time>
      </trkpt>
      <trkpt lat="44.08971" lon="6.93878">
        <ele>1634.9</ele>
        <time>2022-06-11T13:16:30Z</time>
      </trkpt>
      <trkpt lat="44.08972" lon="6.93874">
        <ele>1635</ele>
        <time>2022-06-11T13:16:31Z</time>
      </trkpt>
      <trkpt lat="44.08974" lon="6.93871">
        <ele>1635.2</ele>
        <time>2022-06-11T13:16:32Z</time>
      </trkpt>
      <trkpt lat="44.08975" lon="6.93868">
        <ele>1635.4</ele>
        <time>2022-06-11T13:16:33Z</time>
      </trkpt>
      <trkpt lat="44.08976" lon="6.93864">
        <ele>1635.5</ele>
        <time>2022-06-11T13:16:34Z</time>
      </trkpt>
      <trkpt lat="44.08977" lon="6.93861">
        <ele>1635.7</ele>
        <time>2022-06-11T13:16:35Z</time>
      </trkpt>
      <trkpt lat="44.08978" lon="6.93857">
        <ele>1635.8</ele>
        <time>2022-06-11T13:16:36Z</time>
      </trkpt>
      <trkpt lat="44.08979" lon="6.93854">
        <ele>1635.9</ele>
        <time>2022-06-11T13:16:37Z</time>
      </trkpt>
      <trkpt lat="44.08981" lon="6.9385">
        <ele>1636</ele>
        <time>2022-06-11T13:16:38Z</time>
      </trkpt>
      <trkpt lat="44.08982" lon="6.93847">
        <ele>1636</ele>
        <time>2022-06-11T13:16:39Z</time>
      </trkpt>
      <trkpt lat="44.08983" lon="6.93844">
        <ele>1636.1</ele>
        <time>2022-06-11T13:16:40Z</time>
      </trkpt>
      <trkpt lat="44.08985" lon="6.93841">
        <ele>1636.1</ele>
        <time>2022-06-11T13:16:41Z</time>
      </trkpt>
      <trkpt lat="44.08986" lon="6.93838">
        <ele>1636.1</ele>
        <time>2022-06-11T13:16:42Z</time>
      </trkpt>
      <trkpt lat="44.08988" lon="6.93835">
        <ele>1636.2</ele>
        <time>2022-06-11T13:16:43Z</time>
      </trkpt>
      <trkpt lat="44.08989" lon="6.93831">
        <ele>1636.2</ele>
        <time>2022-06-11T13:16:44Z</time>
      </trkpt>
      <trkpt lat="44.08991" lon="6.93828">
        <ele>1636.3</ele>
        <time>2022-06-11T13:16:45Z</time>
      </trkpt>
      <trkpt lat="44.08993" lon="6.93825">
        <ele>1636.5</ele>
        <time>2022-06-11T13:16:46Z</time>
      </trkpt>
      <trkpt lat="44.08994" lon="6.93823">
        <ele>1636.6</ele>
        <time>2022-06-11T13:16:47Z</time>
      </trkpt>
      <trkpt lat="44.08996" lon="6.9382">
        <ele>1636.7</ele>
        <time>2022-06-11T13:16:48Z</time>
      </trkpt>
      <trkpt lat="44.08997" lon="6.93817">
        <ele>1636.8</ele>
        <time>2022-06-11T13:16:49Z</time>
      </trkpt>
      <trkpt lat="44.08999" lon="6.93814">
        <ele>1636.9</ele>
        <time>2022-06-11T13:16:50Z</time>
      </trkpt>
      <trkpt lat="44.09001" lon="6.93811">
        <ele>1637.1</ele>
        <time>2022-06-11T13:16:51Z</time>
      </trkpt>
      <trkpt lat="44.09002" lon="6.93809">
        <ele>1637.3</ele>
        <time>2022-06-11T13:16:52Z</time>
      </trkpt>
      <trkpt lat="44.09004" lon="6.93806">
        <ele>1637.4</ele>
        <time>2022-06-11T13:16:53Z</time>
      </trkpt>
      <trkpt lat="44.09006" lon="6.93804">
        <ele>1637.6</ele>
        <time>2022-06-11T13:16:54Z</time>
      </trkpt>
      <trkpt lat="44.09008" lon="6.93801">
        <ele>1637.8</ele>
        <time>2022-06-11T13:16:55Z</time>
      </trkpt>
      <trkpt lat="44.09009" lon="6.93798">
        <ele>1637.9</ele>
        <time>2022-06-11T13:16:56Z</time>
      </trkpt>
      <trkpt lat="44.09011" lon="6.93795">
        <ele>1638</ele>
        <time>2022-06-11T13:16:57Z</time>
      </trkpt>
      <trkpt lat="44.09012" lon="6.93792">
        <ele>1638.1</ele>
        <time>2022-06-11T13:16:58Z</time>
      </trkpt>
      <trkpt lat="44.09014" lon="6.93789">
        <ele>1638.2</ele>
        <time>2022-06-11T13:16:59Z</time>
      </trkpt>
      <trkpt lat="44.09016" lon="6.93787">
        <ele>1638.3</ele>
        <time>2022-06-11T13:17:00Z</time>
      </trkpt>
      <trkpt lat="44.09017" lon="6.93784">
        <ele>1638.4</ele>
        <time>2022-06-11T13:17:01Z</time>
      </trkpt>
      <trkpt lat="44.09019" lon="6.93781">
        <ele>1638.4</ele>
        <time>2022-06-11T13:17:02Z</time>
      </trkpt>
      <trkpt lat="44.09021" lon="6.93778">
        <ele>1638.5</ele>
        <time>2022-06-11T13:17:03Z</time>
      </trkpt>
      <trkpt lat="44.09023" lon="6.93776">
        <ele>1638.8</ele>
        <time>2022-06-11T13:17:04Z</time>
      </trkpt>
      <trkpt lat="44.09024" lon="6.93773">
        <ele>1639.1</ele>
        <time>2022-06-11T13:17:05Z</time>
      </trkpt>
      <trkpt lat="44.09026" lon="6.9377">
        <ele>1639.4</ele>
        <time>2022-06-11T13:17:06Z</time>
      </trkpt>
      <trkpt lat="44.09028" lon="6.93768">
        <ele>1639.7</ele>
        <time>2022-06-11T13:17:07Z</time>
      </trkpt>
      <trkpt lat="44.09029" lon="6.93765">
        <ele>1640.2</ele>
        <time>2022-06-11T13:17:08Z</time>
      </trkpt>
      <trkpt lat="44.09031" lon="6.93762">
        <ele>1640.8</ele>
        <time>2022-06-11T13:17:09Z</time>
      </trkpt>
      <trkpt lat="44.09033" lon="6.9376">
        <ele>1641.3</ele>
        <time>2022-06-11T13:17:10Z</time>
      </trkpt>
      <trkpt lat="44.09035" lon="6.93757">
        <ele>1641.9</ele>
        <time>2022-06-11T13:17:11Z</time>
      </trkpt>
      <trkpt lat="44.09036" lon="6.93754">
        <ele>1642.3</ele>
        <time>2022-06-11T13:17:12Z</time>
      </trkpt>
      <trkpt lat="44.09038" lon="6.93752">
        <ele>1642.8</ele>
        <time>2022-06-11T13:17:13Z</time>
      </trkpt>
      <trkpt lat="44.0904" lon="6.93749">
        <ele>1643.2</ele>
        <time>2022-06-11T13:17:14Z</time>
      </trkpt>
      <trkpt lat="44.09042" lon="6.93746">
        <ele>1643.5</ele>
        <time>2022-06-11T13:17:15Z</time>
      </trkpt>
      <trkpt lat="44.09044" lon="6.93743">
        <ele>1643.7</ele>
        <time>2022-06-11T13:17:16Z</time>
      </trkpt>
      <trkpt lat="44.09046" lon="6.93741">
        <ele>1644</ele>
        <time>2022-06-11T13:17:17Z</time>
      </trkpt>
      <trkpt lat="44.09047" lon="6.93738">
        <ele>1644.2</ele>
        <time>2022-06-11T13:17:18Z</time>
      </trkpt>
      <trkpt lat="44.09049" lon="6.93735">
        <ele>1644.4</ele>
        <time>2022-06-11T13:17:19Z</time>
      </trkpt>
      <trkpt lat="44.09051" lon="6.93732">
        <ele>1644.6</ele>
        <time>2022-06-11T13:17:20Z</time>
      </trkpt>
      <trkpt lat="44.09053" lon="6.93729">
        <ele>1644.8</ele>
        <time>2022-06-11T13:17:21Z</time>
      </trkpt>
      <trkpt lat="44.09055" lon="6.93727">
        <ele>1645</ele>
        <time>2022-06-11T13:17:22Z</time>
      </trkpt>
      <trkpt lat="44.09057" lon="6.93724">
        <ele>1645.3</ele>
        <time>2022-06-11T13:17:23Z</time>
      </trkpt>
      <trkpt lat="44.09059" lon="6.93721">
        <ele>1645.6</ele>
        <time>2022-06-11T13:17:24Z</time>
      </trkpt>
      <trkpt lat="44.0906" lon="6.93718">
        <ele>1645.8</ele>
        <time>2022-06-11T13:17:25Z</time>
      </trkpt>
      <trkpt lat="44.09062" lon="6.93715">
        <ele>1646</ele>
        <time>2022-06-11T13:17:26Z</time>
      </trkpt>
      <trkpt lat="44.09063" lon="6.93712">
        <ele>1646.1</ele>
        <time>2022-06-11T13:17:27Z</time>
      </trkpt>
      <trkpt lat="44.09065" lon="6.93708">
        <ele>1646.3</ele>
        <time>2022-06-11T13:17:28Z</time>
      </trkpt>
      <trkpt lat="44.09066" lon="6.93705">
        <ele>1646.4</ele>
        <time>2022-06-11T13:17:29Z</time>
      </trkpt>
      <trkpt lat="44.09068" lon="6.93701">
        <ele>1646.5</ele>
        <time>2022-06-11T13:17:30Z</time>
      </trkpt>
      <trkpt lat="44.0907" lon="6.93698">
        <ele>1646.7</ele>
        <time>2022-06-11T13:17:31Z</time>
      </trkpt>
      <trkpt lat="44.09072" lon="6.93695">
        <ele>1647</ele>
        <time>2022-06-11T13:17:32Z</time>
      </trkpt>
      <trkpt lat="44.09074" lon="6.93693">
        <ele>1647.2</ele>
        <time>2022-06-11T13:17:33Z</time>
      </trkpt>
      <trkpt lat="44.09077" lon="6.93692">
        <ele>1647.5</ele>
        <time>2022-06-11T13:17:34Z</time>
      </trkpt>
      <trkpt lat="44.0908" lon="6.9369">
        <ele>1647.9</ele>
        <time>2022-06-11T13:17:35Z</time>
      </trkpt>
      <trkpt lat="44.09082" lon="6.93688">
        <ele>1648.1</ele>
        <time>2022-06-11T13:17:36Z</time>
      </trkpt>
      <trkpt lat="44.09084" lon="6.93686">
        <ele>1648.3</ele>
        <time>2022-06-11T13:17:37Z</time>
      </trkpt>
      <trkpt lat="44.09086" lon="6.93684">
        <ele>1648.5</ele>
        <time>2022-06-11T13:17:38Z</time>
      </trkpt>
      <trkpt lat="44.09088" lon="6.93681">
        <ele>1648.6</ele>
        <time>2022-06-11T13:17:39Z</time>
      </trkpt>
      <trkpt lat="44.0909" lon="6.93678">
        <ele>1648.7</ele>
        <time>2022-06-11T13:17:40Z</time>
      </trkpt>
      <trkpt lat="44.09092" lon="6.93675">
        <ele>1648.8</ele>
        <time>2022-06-11T13:17:41Z</time>
      </trkpt>
      <trkpt lat="44.09094" lon="6.93673">
        <ele>1648.9</ele>
        <time>2022-06-11T13:17:42Z</time>
      </trkpt>
      <trkpt lat="44.09096" lon="6.9367">
        <ele>1649</ele>
        <time>2022-06-11T13:17:43Z</time>
      </trkpt>
      <trkpt lat="44.09098" lon="6.93667">
        <ele>1649.1</ele>
        <time>2022-06-11T13:17:44Z</time>
      </trkpt>
      <trkpt lat="44.091" lon="6.93665">
        <ele>1649.3</ele>
        <time>2022-06-11T13:17:45Z</time>
      </trkpt>
      <trkpt lat="44.09101" lon="6.93662">
        <ele>1649.3</ele>
        <time>2022-06-11T13:17:46Z</time>
      </trkpt>
      <trkpt lat="44.09103" lon="6.93659">
        <ele>1649.4</ele>
        <time>2022-06-11T13:17:47Z</time>
      </trkpt>
      <trkpt lat="44.09105" lon="6.93657">
        <ele>1649.5</ele>
        <time>2022-06-11T13:17:48Z</time>
      </trkpt>
      <trkpt lat="44.09107" lon="6.93654">
        <ele>1649.7</ele>
        <time>2022-06-11T13:17:49Z</time>
      </trkpt>
      <trkpt lat="44.09109" lon="6.93652">
        <ele>1649.8</ele>
        <time>2022-06-11T13:17:50Z</time>
      </trkpt>
      <trkpt lat="44.09111" lon="6.93649">
        <ele>1650</ele>
        <time>2022-06-11T13:17:51Z</time>
      </trkpt>
      <trkpt lat="44.09112" lon="6.93646">
        <ele>1650</ele>
        <time>2022-06-11T13:17:52Z</time>
      </trkpt>
      <trkpt lat="44.09114" lon="6.93643">
        <ele>1650.1</ele>
        <time>2022-06-11T13:17:53Z</time>
      </trkpt>
      <trkpt lat="44.09115" lon="6.9364">
        <ele>1650.2</ele>
        <time>2022-06-11T13:17:54Z</time>
      </trkpt>
      <trkpt lat="44.09117" lon="6.93638">
        <ele>1650.4</ele>
        <time>2022-06-11T13:17:55Z</time>
      </trkpt>
      <trkpt lat="44.09119" lon="6.93635">
        <ele>1650.6</ele>
        <time>2022-06-11T13:17:56Z</time>
      </trkpt>
      <trkpt lat="44.09121" lon="6.93633">
        <ele>1650.9</ele>
        <time>2022-06-11T13:17:57Z</time>
      </trkpt>
      <trkpt lat="44.09123" lon="6.93631">
        <ele>1651.3</ele>
        <time>2022-06-11T13:17:58Z</time>
      </trkpt>
      <trkpt lat="44.09125" lon="6.93628">
        <ele>1651.5</ele>
        <time>2022-06-11T13:17:59Z</time>
      </trkpt>
      <trkpt lat="44.09127" lon="6.93625">
        <ele>1651.7</ele>
        <time>2022-06-11T13:18:00Z</time>
      </trkpt>
      <trkpt lat="44.09129" lon="6.93623">
        <ele>1651.8</ele>
        <time>2022-06-11T13:18:01Z</time>
      </trkpt>
      <trkpt lat="44.0913" lon="6.9362">
        <ele>1651.9</ele>
        <time>2022-06-11T13:18:02Z</time>
      </trkpt>
      <trkpt lat="44.09132" lon="6.93617">
        <ele>1652.1</ele>
        <time>2022-06-11T13:18:03Z</time>
      </trkpt>
      <trkpt lat="44.09134" lon="6.93614">
        <ele>1652.1</ele>
        <time>2022-06-11T13:18:04Z</time>
      </trkpt>
      <trkpt lat="44.09135" lon="6.93611">
        <ele>1652.2</ele>
        <time>2022-06-11T13:18:05Z</time>
      </trkpt>
      <trkpt lat="44.09137" lon="6.93608">
        <ele>1652.2</ele>
        <time>2022-06-11T13:18:06Z</time>
      </trkpt>
      <trkpt lat="44.09138" lon="6.93606">
        <ele>1652.3</ele>
        <time>2022-06-11T13:18:07Z</time>
      </trkpt>
      <trkpt lat="44.0914" lon="6.93603">
        <ele>1652.3</ele>
        <time>2022-06-11T13:18:08Z</time>
      </trkpt>
      <trkpt lat="44.09142" lon="6.93601">
        <ele>1652.4</ele>
        <time>2022-06-11T13:18:09Z</time>
      </trkpt>
      <trkpt lat="44.09144" lon="6.93598">
        <ele>1652.3</ele>
        <time>2022-06-11T13:18:10Z</time>
      </trkpt>
      <trkpt lat="44.09145" lon="6.93595">
        <ele>1652.2</ele>
        <time>2022-06-11T13:18:11Z</time>
      </trkpt>
      <trkpt lat="44.09147" lon="6.93592">
        <ele>1652.1</ele>
        <time>2022-06-11T13:18:12Z</time>
      </trkpt>
      <trkpt lat="44.09148" lon="6.93589">
        <ele>1652</ele>
        <time>2022-06-11T13:18:13Z</time>
      </trkpt>
      <trkpt lat="44.0915" lon="6.93586">
        <ele>1652</ele>
        <time>2022-06-11T13:18:14Z</time>
      </trkpt>
      <trkpt lat="44.09152" lon="6.93584">
        <ele>1651.9</ele>
        <time>2022-06-11T13:18:15Z</time>
      </trkpt>
      <trkpt lat="44.09154" lon="6.93581">
        <ele>1651.9</ele>
        <time>2022-06-11T13:18:16Z</time>
      </trkpt>
      <trkpt lat="44.09155" lon="6.93579">
        <ele>1651.9</ele>
        <time>2022-06-11T13:18:17Z</time>
      </trkpt>
      <trkpt lat="44.09157" lon="6.93577">
        <ele>1652</ele>
        <time>2022-06-11T13:18:18Z</time>
      </trkpt>
      <trkpt lat="44.09159" lon="6.93574">
        <ele>1652</ele>
        <time>2022-06-11T13:18:19Z</time>
      </trkpt>
      <trkpt lat="44.09162" lon="6.93571">
        <ele>1652</ele>
        <time>2022-06-11T13:18:20Z</time>
      </trkpt>
      <trkpt lat="44.09164" lon="6.93569">
        <ele>1652</ele>
        <time>2022-06-11T13:18:21Z</time>
      </trkpt>
      <trkpt lat="44.09166" lon="6.93566">
        <ele>1652</ele>
        <time>2022-06-11T13:18:22Z</time>
      </trkpt>
      <trkpt lat="44.09168" lon="6.93564">
        <ele>1652</ele>
        <time>2022-06-11T13:18:23Z</time>
      </trkpt>
      <trkpt lat="44.0917" lon="6.93561">
        <ele>1652</ele>
        <time>2022-06-11T13:18:24Z</time>
      </trkpt>
      <trkpt lat="44.09172" lon="6.93559">
        <ele>1652</ele>
        <time>2022-06-11T13:18:25Z</time>
      </trkpt>
      <trkpt lat="44.09174" lon="6.93556">
        <ele>1652.1</ele>
        <time>2022-06-11T13:18:26Z</time>
      </trkpt>
      <trkpt lat="44.09176" lon="6.93554">
        <ele>1652.1</ele>
        <time>2022-06-11T13:18:27Z</time>
      </trkpt>
      <trkpt lat="44.09178" lon="6.93552">
        <ele>1652.2</ele>
        <time>2022-06-11T13:18:28Z</time>
      </trkpt>
      <trkpt lat="44.09181" lon="6.93549">
        <ele>1652.3</ele>
        <time>2022-06-11T13:18:29Z</time>
      </trkpt>
      <trkpt lat="44.09183" lon="6.93547">
        <ele>1652.4</ele>
        <time>2022-06-11T13:18:30Z</time>
      </trkpt>
      <trkpt lat="44.09185" lon="6.93545">
        <ele>1652.4</ele>
        <time>2022-06-11T13:18:31Z</time>
      </trkpt>
      <trkpt lat="44.09188" lon="6.93543">
        <ele>1652.5</ele>
        <time>2022-06-11T13:18:32Z</time>
      </trkpt>
      <trkpt lat="44.0919" lon="6.93541">
        <ele>1652.5</ele>
        <time>2022-06-11T13:18:33Z</time>
      </trkpt>
      <trkpt lat="44.09193" lon="6.9354">
        <ele>1652.5</ele>
        <time>2022-06-11T13:18:34Z</time>
      </trkpt>
      <trkpt lat="44.09195" lon="6.93538">
        <ele>1652.5</ele>
        <time>2022-06-11T13:18:35Z</time>
      </trkpt>
      <trkpt lat="44.09198" lon="6.93536">
        <ele>1652.5</ele>
        <time>2022-06-11T13:18:36Z</time>
      </trkpt>
      <trkpt lat="44.09201" lon="6.93534">
        <ele>1652.6</ele>
        <time>2022-06-11T13:18:37Z</time>
      </trkpt>
      <trkpt lat="44.09204" lon="6.93533">
        <ele>1652.7</ele>
        <time>2022-06-11T13:18:38Z</time>
      </trkpt>
      <trkpt lat="44.09207" lon="6.93532">
        <ele>1652.8</ele>
        <time>2022-06-11T13:18:39Z</time>
      </trkpt>
      <trkpt lat="44.0921" lon="6.9353">
        <ele>1652.9</ele>
        <time>2022-06-11T13:18:40Z</time>
      </trkpt>
      <trkpt lat="44.09213" lon="6.93528">
        <ele>1653.1</ele>
        <time>2022-06-11T13:18:41Z</time>
      </trkpt>
      <trkpt lat="44.09217" lon="6.93527">
        <ele>1653.4</ele>
        <time>2022-06-11T13:18:42Z</time>
      </trkpt>
      <trkpt lat="44.09221" lon="6.93527">
        <ele>1653.7</ele>
        <time>2022-06-11T13:18:43Z</time>
      </trkpt>
      <trkpt lat="44.09224" lon="6.93526">
        <ele>1654.1</ele>
        <time>2022-06-11T13:18:44Z</time>
      </trkpt>
      <trkpt lat="44.09228" lon="6.93525">
        <ele>1654.4</ele>
        <time>2022-06-11T13:18:45Z</time>
      </trkpt>
      <trkpt lat="44.09231" lon="6.93524">
        <ele>1654.7</ele>
        <time>2022-06-11T13:18:46Z</time>
      </trkpt>
      <trkpt lat="44.09235" lon="6.93523">
        <ele>1655</ele>
        <time>2022-06-11T13:18:47Z</time>
      </trkpt>
      <trkpt lat="44.09239" lon="6.93522">
        <ele>1655.3</ele>
        <time>2022-06-11T13:18:48Z</time>
      </trkpt>
      <trkpt lat="44.09242" lon="6.9352">
        <ele>1655.6</ele>
        <time>2022-06-11T13:18:49Z</time>
      </trkpt>
      <trkpt lat="44.09246" lon="6.93519">
        <ele>1655.9</ele>
        <time>2022-06-11T13:18:50Z</time>
      </trkpt>
      <trkpt lat="44.09249" lon="6.93518">
        <ele>1656.2</ele>
        <time>2022-06-11T13:18:51Z</time>
      </trkpt>
      <trkpt lat="44.09252" lon="6.93516">
        <ele>1656.5</ele>
        <time>2022-06-11T13:18:52Z</time>
      </trkpt>
      <trkpt lat="44.09255" lon="6.93515">
        <ele>1656.8</ele>
        <time>2022-06-11T13:18:53Z</time>
      </trkpt>
      <trkpt lat="44.09258" lon="6.93513">
        <ele>1657.1</ele>
        <time>2022-06-11T13:18:54Z</time>
      </trkpt>
      <trkpt lat="44.09261" lon="6.93512">
        <ele>1657.5</ele>
        <time>2022-06-11T13:18:55Z</time>
      </trkpt>
      <trkpt lat="44.09264" lon="6.9351">
        <ele>1657.8</ele>
        <time>2022-06-11T13:18:56Z</time>
      </trkpt>
      <trkpt lat="44.09267" lon="6.93508">
        <ele>1658</ele>
        <time>2022-06-11T13:18:57Z</time>
      </trkpt>
      <trkpt lat="44.09269" lon="6.93507">
        <ele>1658.2</ele>
        <time>2022-06-11T13:18:58Z</time>
      </trkpt>
      <trkpt lat="44.09272" lon="6.93505">
        <ele>1658.5</ele>
        <time>2022-06-11T13:18:59Z</time>
      </trkpt>
      <trkpt lat="44.09274" lon="6.93503">
        <ele>1658.7</ele>
        <time>2022-06-11T13:19:00Z</time>
      </trkpt>
      <trkpt lat="44.09277" lon="6.93501">
        <ele>1658.9</ele>
        <time>2022-06-11T13:19:01Z</time>
      </trkpt>
      <trkpt lat="44.09279" lon="6.93499">
        <ele>1659.1</ele>
        <time>2022-06-11T13:19:02Z</time>
      </trkpt>
      <trkpt lat="44.09281" lon="6.93497">
        <ele>1659.2</ele>
        <time>2022-06-11T13:19:03Z</time>
      </trkpt>
      <trkpt lat="44.09284" lon="6.93494">
        <ele>1659.4</ele>
        <time>2022-06-11T13:19:04Z</time>
      </trkpt>
      <trkpt lat="44.09286" lon="6.93492">
        <ele>1659.5</ele>
        <time>2022-06-11T13:19:05Z</time>
      </trkpt>
      <trkpt lat="44.09288" lon="6.93489">
        <ele>1659.6</ele>
        <time>2022-06-11T13:19:06Z</time>
      </trkpt>
      <trkpt lat="44.0929" lon="6.93487">
        <ele>1659.7</ele>
        <time>2022-06-11T13:19:07Z</time>
      </trkpt>
      <trkpt lat="44.09292" lon="6.93485">
        <ele>1659.7</ele>
        <time>2022-06-11T13:19:08Z</time>
      </trkpt>
      <trkpt lat="44.09294" lon="6.93483">
        <ele>1659.7</ele>
        <time>2022-06-11T13:19:09Z</time>
      </trkpt>
      <trkpt lat="44.09296" lon="6.9348">
        <ele>1659.7</ele>
        <time>2022-06-11T13:19:10Z</time>
      </trkpt>
      <trkpt lat="44.09298" lon="6.93478">
        <ele>1659.7</ele>
        <time>2022-06-11T13:19:11Z</time>
      </trkpt>
      <trkpt lat="44.093" lon="6.93475">
        <ele>1659.6</ele>
        <time>2022-06-11T13:19:12Z</time>
      </trkpt>
      <trkpt lat="44.09302" lon="6.93473">
        <ele>1659.6</ele>
        <time>2022-06-11T13:19:13Z</time>
      </trkpt>
      <trkpt lat="44.09304" lon="6.9347">
        <ele>1659.8</ele>
        <time>2022-06-11T13:19:14Z</time>
      </trkpt>
      <trkpt lat="44.09306" lon="6.93468">
        <ele>1660</ele>
        <time>2022-06-11T13:19:15Z</time>
      </trkpt>
      <trkpt lat="44.09308" lon="6.93466">
        <ele>1660.5</ele>
        <time>2022-06-11T13:19:16Z</time>
      </trkpt>
      <trkpt lat="44.0931" lon="6.93463">
        <ele>1661</ele>
        <time>2022-06-11T13:19:17Z</time>
      </trkpt>
      <trkpt lat="44.09311" lon="6.9346">
        <ele>1661.4</ele>
        <time>2022-06-11T13:19:18Z</time>
      </trkpt>
      <trkpt lat="44.09313" lon="6.93457">
        <ele>1661.7</ele>
        <time>2022-06-11T13:19:19Z</time>
      </trkpt>
      <trkpt lat="44.09314" lon="6.93455">
        <ele>1661.9</ele>
        <time>2022-06-11T13:19:20Z</time>
      </trkpt>
      <trkpt lat="44.09316" lon="6.93452">
        <ele>1662.1</ele>
        <time>2022-06-11T13:19:21Z</time>
      </trkpt>
      <trkpt lat="44.09317" lon="6.93449">
        <ele>1662.3</ele>
        <time>2022-06-11T13:19:22Z</time>
      </trkpt>
      <trkpt lat="44.09319" lon="6.93446">
        <ele>1662.4</ele>
        <time>2022-06-11T13:19:23Z</time>
      </trkpt>
      <trkpt lat="44.09321" lon="6.93443">
        <ele>1662.6</ele>
        <time>2022-06-11T13:19:24Z</time>
      </trkpt>
      <trkpt lat="44.09322" lon="6.9344">
        <ele>1662.8</ele>
        <time>2022-06-11T13:19:25Z</time>
      </trkpt>
      <trkpt lat="44.09324" lon="6.93437">
        <ele>1662.9</ele>
        <time>2022-06-11T13:19:26Z</time>
      </trkpt>
      <trkpt lat="44.09325" lon="6.93435">
        <ele>1663</ele>
        <time>2022-06-11T13:19:27Z</time>
      </trkpt>
      <trkpt lat="44.09327" lon="6.93432">
        <ele>1663.1</ele>
        <time>2022-06-11T13:19:28Z</time>
      </trkpt>
      <trkpt lat="44.09328" lon="6.93428">
        <ele>1663.1</ele>
        <time>2022-06-11T13:19:29Z</time>
      </trkpt>
      <trkpt lat="44.0933" lon="6.93425">
        <ele>1663.2</ele>
        <time>2022-06-11T13:19:30Z</time>
      </trkpt>
      <trkpt lat="44.09331" lon="6.93423">
        <ele>1663.2</ele>
        <time>2022-06-11T13:19:31Z</time>
      </trkpt>
      <trkpt lat="44.09333" lon="6.9342">
        <ele>1663.1</ele>
        <time>2022-06-11T13:19:32Z</time>
      </trkpt>
      <trkpt lat="44.09335" lon="6.93417">
        <ele>1663.4</ele>
        <time>2022-06-11T13:19:33Z</time>
      </trkpt>
      <trkpt lat="44.09336" lon="6.93414">
        <ele>1663.7</ele>
        <time>2022-06-11T13:19:34Z</time>
      </trkpt>
      <trkpt lat="44.09338" lon="6.93412">
        <ele>1664.1</ele>
        <time>2022-06-11T13:19:35Z</time>
      </trkpt>
      <trkpt lat="44.0934" lon="6.9341">
        <ele>1664.4</ele>
        <time>2022-06-11T13:19:36Z</time>
      </trkpt>
      <trkpt lat="44.09341" lon="6.93407">
        <ele>1664.7</ele>
        <time>2022-06-11T13:19:37Z</time>
      </trkpt>
      <trkpt lat="44.09343" lon="6.93404">
        <ele>1665</ele>
        <time>2022-06-11T13:19:38Z</time>
      </trkpt>
      <trkpt lat="44.09345" lon="6.93402">
        <ele>1665.3</ele>
        <time>2022-06-11T13:19:39Z</time>
      </trkpt>
      <trkpt lat="44.09346" lon="6.93399">
        <ele>1665.4</ele>
        <time>2022-06-11T13:19:40Z</time>
      </trkpt>
      <trkpt lat="44.09348" lon="6.93396">
        <ele>1665.6</ele>
        <time>2022-06-11T13:19:41Z</time>
      </trkpt>
      <trkpt lat="44.09349" lon="6.93393">
        <ele>1665.8</ele>
        <time>2022-06-11T13:19:42Z</time>
      </trkpt>
      <trkpt lat="44.09351" lon="6.9339">
        <ele>1665.9</ele>
        <time>2022-06-11T13:19:43Z</time>
      </trkpt>
      <trkpt lat="44.09353" lon="6.93387">
        <ele>1666.1</ele>
        <time>2022-06-11T13:19:44Z</time>
      </trkpt>
      <trkpt lat="44.09354" lon="6.93385">
        <ele>1666.3</ele>
        <time>2022-06-11T13:19:45Z</time>
      </trkpt>
      <trkpt lat="44.09356" lon="6.93382">
        <ele>1666.4</ele>
        <time>2022-06-11T13:19:46Z</time>
      </trkpt>
      <trkpt lat="44.09358" lon="6.93379">
        <ele>1666.7</ele>
        <time>2022-06-11T13:19:47Z</time>
      </trkpt>
      <trkpt lat="44.09359" lon="6.93377">
        <ele>1666.8</ele>
        <time>2022-06-11T13:19:48Z</time>
      </trkpt>
      <trkpt lat="44.09361" lon="6.93374">
        <ele>1666.9</ele>
        <time>2022-06-11T13:19:49Z</time>
      </trkpt>
      <trkpt lat="44.09363" lon="6.93371">
        <ele>1667.1</ele>
        <time>2022-06-11T13:19:50Z</time>
      </trkpt>
      <trkpt lat="44.09364" lon="6.93368">
        <ele>1667.3</ele>
        <time>2022-06-11T13:19:51Z</time>
      </trkpt>
      <trkpt lat="44.09366" lon="6.93365">
        <ele>1667.5</ele>
        <time>2022-06-11T13:19:52Z</time>
      </trkpt>
      <trkpt lat="44.09368" lon="6.93362">
        <ele>1667.7</ele>
        <time>2022-06-11T13:19:53Z</time>
      </trkpt>
      <trkpt lat="44.09369" lon="6.9336">
        <ele>1668</ele>
        <time>2022-06-11T13:19:54Z</time>
      </trkpt>
      <trkpt lat="44.09371" lon="6.93357">
        <ele>1668.4</ele>
        <time>2022-06-11T13:19:55Z</time>
      </trkpt>
      <trkpt lat="44.09373" lon="6.93355">
        <ele>1668.7</ele>
        <time>2022-06-11T13:19:56Z</time>
      </trkpt>
      <trkpt lat="44.09375" lon="6.93352">
        <ele>1669.1</ele>
        <time>2022-06-11T13:19:57Z</time>
      </trkpt>
      <trkpt lat="44.09376" lon="6.9335">
        <ele>1669.4</ele>
        <time>2022-06-11T13:19:58Z</time>
      </trkpt>
      <trkpt lat="44.09378" lon="6.93347">
        <ele>1669.6</ele>
        <time>2022-06-11T13:19:59Z</time>
      </trkpt>
      <trkpt lat="44.0938" lon="6.93345">
        <ele>1669.9</ele>
        <time>2022-06-11T13:20:00Z</time>
      </trkpt>
      <trkpt lat="44.09381" lon="6.93342">
        <ele>1670.1</ele>
        <time>2022-06-11T13:20:01Z</time>
      </trkpt>
      <trkpt lat="44.09383" lon="6.93339">
        <ele>1670.2</ele>
        <time>2022-06-11T13:20:02Z</time>
      </trkpt>
      <trkpt lat="44.09385" lon="6.93336">
        <ele>1670.4</ele>
        <time>2022-06-11T13:20:03Z</time>
      </trkpt>
      <trkpt lat="44.09386" lon="6.93334">
        <ele>1670.5</ele>
        <time>2022-06-11T13:20:04Z</time>
      </trkpt>
      <trkpt lat="44.09388" lon="6.93331">
        <ele>1670.5</ele>
        <time>2022-06-11T13:20:05Z</time>
      </trkpt>
      <trkpt lat="44.0939" lon="6.93328">
        <ele>1670.6</ele>
        <time>2022-06-11T13:20:06Z</time>
      </trkpt>
      <trkpt lat="44.09391" lon="6.93325">
        <ele>1670.6</ele>
        <time>2022-06-11T13:20:07Z</time>
      </trkpt>
      <trkpt lat="44.09393" lon="6.93323">
        <ele>1670.7</ele>
        <time>2022-06-11T13:20:08Z</time>
      </trkpt>
      <trkpt lat="44.09395" lon="6.9332">
        <ele>1670.8</ele>
        <time>2022-06-11T13:20:09Z</time>
      </trkpt>
      <trkpt lat="44.09397" lon="6.93317">
        <ele>1670.9</ele>
        <time>2022-06-11T13:20:10Z</time>
      </trkpt>
      <trkpt lat="44.09398" lon="6.93314">
        <ele>1671</ele>
        <time>2022-06-11T13:20:11Z</time>
      </trkpt>
      <trkpt lat="44.094" lon="6.93311">
        <ele>1671</ele>
        <time>2022-06-11T13:20:12Z</time>
      </trkpt>
      <trkpt lat="44.09402" lon="6.93309">
        <ele>1671.1</ele>
        <time>2022-06-11T13:20:13Z</time>
      </trkpt>
      <trkpt lat="44.09403" lon="6.93306">
        <ele>1671.1</ele>
        <time>2022-06-11T13:20:14Z</time>
      </trkpt>
      <trkpt lat="44.09405" lon="6.93303">
        <ele>1671.3</ele>
        <time>2022-06-11T13:20:15Z</time>
      </trkpt>
      <trkpt lat="44.09407" lon="6.933">
        <ele>1671.5</ele>
        <time>2022-06-11T13:20:16Z</time>
      </trkpt>
      <trkpt lat="44.09409" lon="6.93297">
        <ele>1671.7</ele>
        <time>2022-06-11T13:20:17Z</time>
      </trkpt>
      <trkpt lat="44.0941" lon="6.93294">
        <ele>1671.7</ele>
        <time>2022-06-11T13:20:18Z</time>
      </trkpt>
      <trkpt lat="44.09412" lon="6.93291">
        <ele>1671.8</ele>
        <time>2022-06-11T13:20:19Z</time>
      </trkpt>
      <trkpt lat="44.09414" lon="6.93289">
        <ele>1671.8</ele>
        <time>2022-06-11T13:20:20Z</time>
      </trkpt>
      <trkpt lat="44.09416" lon="6.93286">
        <ele>1671.7</ele>
        <time>2022-06-11T13:20:21Z</time>
      </trkpt>
      <trkpt lat="44.09417" lon="6.93283">
        <ele>1671.6</ele>
        <time>2022-06-11T13:20:22Z</time>
      </trkpt>
      <trkpt lat="44.09419" lon="6.9328">
        <ele>1671.6</ele>
        <time>2022-06-11T13:20:23Z</time>
      </trkpt>
      <trkpt lat="44.0942" lon="6.93276">
        <ele>1671.7</ele>
        <time>2022-06-11T13:20:24Z</time>
      </trkpt>
      <trkpt lat="44.09422" lon="6.93274">
        <ele>1672</ele>
        <time>2022-06-11T13:20:25Z</time>
      </trkpt>
      <trkpt lat="44.09423" lon="6.93271">
        <ele>1672.2</ele>
        <time>2022-06-11T13:20:26Z</time>
      </trkpt>
      <trkpt lat="44.09425" lon="6.93268">
        <ele>1672.5</ele>
        <time>2022-06-11T13:20:27Z</time>
      </trkpt>
      <trkpt lat="44.09427" lon="6.93264">
        <ele>1672.6</ele>
        <time>2022-06-11T13:20:28Z</time>
      </trkpt>
      <trkpt lat="44.09428" lon="6.93261">
        <ele>1672.7</ele>
        <time>2022-06-11T13:20:29Z</time>
      </trkpt>
      <trkpt lat="44.09429" lon="6.93258">
        <ele>1672.7</ele>
        <time>2022-06-11T13:20:30Z</time>
      </trkpt>
      <trkpt lat="44.09431" lon="6.93255">
        <ele>1672.8</ele>
        <time>2022-06-11T13:20:31Z</time>
      </trkpt>
      <trkpt lat="44.09432" lon="6.93252">
        <ele>1672.8</ele>
        <time>2022-06-11T13:20:32Z</time>
      </trkpt>
      <trkpt lat="44.09434" lon="6.93249">
        <ele>1672.8</ele>
        <time>2022-06-11T13:20:33Z</time>
      </trkpt>
      <trkpt lat="44.09436" lon="6.93246">
        <ele>1672.9</ele>
        <time>2022-06-11T13:20:34Z</time>
      </trkpt>
      <trkpt lat="44.09437" lon="6.93243">
        <ele>1673</ele>
        <time>2022-06-11T13:20:35Z</time>
      </trkpt>
      <trkpt lat="44.09438" lon="6.9324">
        <ele>1672.9</ele>
        <time>2022-06-11T13:20:36Z</time>
      </trkpt>
      <trkpt lat="44.09439" lon="6.93236">
        <ele>1672.8</ele>
        <time>2022-06-11T13:20:37Z</time>
      </trkpt>
      <trkpt lat="44.09441" lon="6.93233">
        <ele>1672.7</ele>
        <time>2022-06-11T13:20:38Z</time>
      </trkpt>
      <trkpt lat="44.09443" lon="6.9323">
        <ele>1672.6</ele>
        <time>2022-06-11T13:20:39Z</time>
      </trkpt>
      <trkpt lat="44.09444" lon="6.93227">
        <ele>1672.4</ele>
        <time>2022-06-11T13:20:40Z</time>
      </trkpt>
      <trkpt lat="44.09446" lon="6.93225">
        <ele>1672.4</ele>
        <time>2022-06-11T13:20:41Z</time>
      </trkpt>
      <trkpt lat="44.09448" lon="6.93222">
        <ele>1672.5</ele>
        <time>2022-06-11T13:20:42Z</time>
      </trkpt>
      <trkpt lat="44.09449" lon="6.93218">
        <ele>1672.9</ele>
        <time>2022-06-11T13:20:43Z</time>
      </trkpt>
      <trkpt lat="44.09451" lon="6.93215">
        <ele>1673.3</ele>
        <time>2022-06-11T13:20:44Z</time>
      </trkpt>
      <trkpt lat="44.09452" lon="6.93211">
        <ele>1673.6</ele>
        <time>2022-06-11T13:20:45Z</time>
      </trkpt>
      <trkpt lat="44.09454" lon="6.93208">
        <ele>1673.9</ele>
        <time>2022-06-11T13:20:46Z</time>
      </trkpt>
      <trkpt lat="44.09457" lon="6.93205">
        <ele>1674.2</ele>
        <time>2022-06-11T13:20:47Z</time>
      </trkpt>
      <trkpt lat="44.09459" lon="6.93202">
        <ele>1674.4</ele>
        <time>2022-06-11T13:20:48Z</time>
      </trkpt>
      <trkpt lat="44.09462" lon="6.93198">
        <ele>1674.6</ele>
        <time>2022-06-11T13:20:49Z</time>
      </trkpt>
      <trkpt lat="44.09464" lon="6.93195">
        <ele>1674.7</ele>
        <time>2022-06-11T13:20:50Z</time>
      </trkpt>
      <trkpt lat="44.09466" lon="6.93192">
        <ele>1674.9</ele>
        <time>2022-06-11T13:20:51Z</time>
      </trkpt>
      <trkpt lat="44.09469" lon="6.93188">
        <ele>1675</ele>
        <time>2022-06-11T13:20:52Z</time>
      </trkpt>
      <trkpt lat="44.09471" lon="6.93185">
        <ele>1675</ele>
        <time>2022-06-11T13:20:53Z</time>
      </trkpt>
      <trkpt lat="44.09474" lon="6.93181">
        <ele>1675.1</ele>
        <time>2022-06-11T13:20:54Z</time>
      </trkpt>
      <trkpt lat="44.09477" lon="6.93178">
        <ele>1675.3</ele>
        <time>2022-06-11T13:20:55Z</time>
      </trkpt>
      <trkpt lat="44.09479" lon="6.93174">
        <ele>1675.4</ele>
        <time>2022-06-11T13:20:56Z</time>
      </trkpt>
      <trkpt lat="44.09481" lon="6.9317">
        <ele>1675.4</ele>
        <time>2022-06-11T13:20:57Z</time>
      </trkpt>
      <trkpt lat="44.09484" lon="6.93167">
        <ele>1675.4</ele>
        <time>2022-06-11T13:20:58Z</time>
      </trkpt>
      <trkpt lat="44.09487" lon="6.93164">
        <ele>1675.4</ele>
        <time>2022-06-11T13:20:59Z</time>
      </trkpt>
      <trkpt lat="44.09489" lon="6.9316">
        <ele>1675.3</ele>
        <time>2022-06-11T13:21:00Z</time>
      </trkpt>
      <trkpt lat="44.09491" lon="6.93157">
        <ele>1675.2</ele>
        <time>2022-06-11T13:21:01Z</time>
      </trkpt>
      <trkpt lat="44.09493" lon="6.93153">
        <ele>1675</ele>
        <time>2022-06-11T13:21:02Z</time>
      </trkpt>
      <trkpt lat="44.09494" lon="6.9315">
        <ele>1674.8</ele>
        <time>2022-06-11T13:21:03Z</time>
      </trkpt>
      <trkpt lat="44.09496" lon="6.93147">
        <ele>1674.6</ele>
        <time>2022-06-11T13:21:04Z</time>
      </trkpt>
      <trkpt lat="44.09498" lon="6.93144">
        <ele>1674.4</ele>
        <time>2022-06-11T13:21:05Z</time>
      </trkpt>
      <trkpt lat="44.095" lon="6.9314">
        <ele>1674.1</ele>
        <time>2022-06-11T13:21:06Z</time>
      </trkpt>
      <trkpt lat="44.09503" lon="6.93136">
        <ele>1674.2</ele>
        <time>2022-06-11T13:21:07Z</time>
      </trkpt>
      <trkpt lat="44.09505" lon="6.93132">
        <ele>1674.3</ele>
        <time>2022-06-11T13:21:08Z</time>
      </trkpt>
      <trkpt lat="44.09507" lon="6.93128">
        <ele>1674.3</ele>
        <time>2022-06-11T13:21:09Z</time>
      </trkpt>
      <trkpt lat="44.09509" lon="6.93125">
        <ele>1674.3</ele>
        <time>2022-06-11T13:21:10Z</time>
      </trkpt>
      <trkpt lat="44.09511" lon="6.93121">
        <ele>1674.3</ele>
        <time>2022-06-11T13:21:11Z</time>
      </trkpt>
      <trkpt lat="44.09513" lon="6.93119">
        <ele>1674.2</ele>
        <time>2022-06-11T13:21:12Z</time>
      </trkpt>
      <trkpt lat="44.09515" lon="6.93117">
        <ele>1674.2</ele>
        <time>2022-06-11T13:21:13Z</time>
      </trkpt>
      <trkpt lat="44.09518" lon="6.93115">
        <ele>1674.2</ele>
        <time>2022-06-11T13:21:14Z</time>
      </trkpt>
      <trkpt lat="44.09521" lon="6.93114">
        <ele>1674.1</ele>
        <time>2022-06-11T13:21:15Z</time>
      </trkpt>
      <trkpt lat="44.09524" lon="6.93112">
        <ele>1674.1</ele>
        <time>2022-06-11T13:21:16Z</time>
      </trkpt>
      <trkpt lat="44.09528" lon="6.93111">
        <ele>1674</ele>
        <time>2022-06-11T13:21:17Z</time>
      </trkpt>
      <trkpt lat="44.09531" lon="6.9311">
        <ele>1674.2</ele>
        <time>2022-06-11T13:21:18Z</time>
      </trkpt>
      <trkpt lat="44.09535" lon="6.93109">
        <ele>1674.4</ele>
        <time>2022-06-11T13:21:19Z</time>
      </trkpt>
      <trkpt lat="44.09539" lon="6.93108">
        <ele>1674.7</ele>
        <time>2022-06-11T13:21:20Z</time>
      </trkpt>
      <trkpt lat="44.09543" lon="6.93108">
        <ele>1674.9</ele>
        <time>2022-06-11T13:21:21Z</time>
      </trkpt>
      <trkpt lat="44.09546" lon="6.93108">
        <ele>1675.1</ele>
        <time>2022-06-11T13:21:22Z</time>
      </trkpt>
      <trkpt lat="44.0955" lon="6.93107">
        <ele>1675.3</ele>
        <time>2022-06-11T13:21:23Z</time>
      </trkpt>
      <trkpt lat="44.09552" lon="6.93106">
        <ele>1675.4</ele>
        <time>2022-06-11T13:21:24Z</time>
      </trkpt>
      <trkpt lat="44.09554" lon="6.93106">
        <ele>1675.5</ele>
        <time>2022-06-11T13:21:25Z</time>
      </trkpt>
      <trkpt lat="44.09555" lon="6.93105">
        <ele>1675.5</ele>
        <time>2022-06-11T13:21:26Z</time>
      </trkpt>
      <trkpt lat="44.09556" lon="6.93105">
        <ele>1675.6</ele>
        <time>2022-06-11T13:21:27Z</time>
      </trkpt>
      <trkpt lat="44.09557" lon="6.93105">
        <ele>1675.7</ele>
        <time>2022-06-11T13:21:28Z</time>
      </trkpt>
      <trkpt lat="44.09558" lon="6.93105">
        <ele>1675.7</ele>
        <time>2022-06-11T13:21:29Z</time>
      </trkpt>
      <trkpt lat="44.09559" lon="6.93104">
        <ele>1675.7</ele>
        <time>2022-06-11T13:21:30Z</time>
      </trkpt>
      <trkpt lat="44.0956" lon="6.93104">
        <ele>1675.8</ele>
        <time>2022-06-11T13:21:31Z</time>
      </trkpt>
      <trkpt lat="44.09561" lon="6.93104">
        <ele>1675.8</ele>
        <time>2022-06-11T13:21:32Z</time>
      </trkpt>
      <trkpt lat="44.09562" lon="6.93104">
        <ele>1675.9</ele>
        <time>2022-06-11T13:21:33Z</time>
      </trkpt>
      <trkpt lat="44.09563" lon="6.93104">
        <ele>1675.9</ele>
        <time>2022-06-11T13:21:34Z</time>
      </trkpt>
      <trkpt lat="44.09563" lon="6.93104">
        <ele>1675.9</ele>
        <time>2022-06-11T13:21:35Z</time>
      </trkpt>
      <trkpt lat="44.0957" lon="6.93107">
        <ele>1676.6</ele>
        <time>2022-06-11T13:22:21Z</time>
      </trkpt>
      <trkpt lat="44.09572" lon="6.93108">
        <ele>1676.9</ele>
        <time>2022-06-11T13:22:22Z</time>
      </trkpt>
      <trkpt lat="44.09576" lon="6.93109">
        <ele>1677.3</ele>
        <time>2022-06-11T13:22:23Z</time>
      </trkpt>
      <trkpt lat="44.09579" lon="6.9311">
        <ele>1677.6</ele>
        <time>2022-06-11T13:22:24Z</time>
      </trkpt>
      <trkpt lat="44.09583" lon="6.93111">
        <ele>1677.9</ele>
        <time>2022-06-11T13:22:25Z</time>
      </trkpt>
      <trkpt lat="44.09587" lon="6.93111">
        <ele>1678.1</ele>
        <time>2022-06-11T13:22:26Z</time>
      </trkpt>
      <trkpt lat="44.09591" lon="6.93112">
        <ele>1678.4</ele>
        <time>2022-06-11T13:22:27Z</time>
      </trkpt>
      <trkpt lat="44.09595" lon="6.93113">
        <ele>1678.8</ele>
        <time>2022-06-11T13:22:28Z</time>
      </trkpt>
      <trkpt lat="44.09599" lon="6.93113">
        <ele>1678.9</ele>
        <time>2022-06-11T13:22:29Z</time>
      </trkpt>
      <trkpt lat="44.09603" lon="6.93113">
        <ele>1679</ele>
        <time>2022-06-11T13:22:30Z</time>
      </trkpt>
      <trkpt lat="44.09607" lon="6.93113">
        <ele>1679.1</ele>
        <time>2022-06-11T13:22:31Z</time>
      </trkpt>
      <trkpt lat="44.09611" lon="6.93111">
        <ele>1679</ele>
        <time>2022-06-11T13:22:32Z</time>
      </trkpt>
      <trkpt lat="44.09614" lon="6.93109">
        <ele>1679</ele>
        <time>2022-06-11T13:22:33Z</time>
      </trkpt>
      <trkpt lat="44.09618" lon="6.93107">
        <ele>1679</ele>
        <time>2022-06-11T13:22:34Z</time>
      </trkpt>
      <trkpt lat="44.09622" lon="6.93104">
        <ele>1679</ele>
        <time>2022-06-11T13:22:35Z</time>
      </trkpt>
      <trkpt lat="44.09625" lon="6.931">
        <ele>1678.8</ele>
        <time>2022-06-11T13:22:36Z</time>
      </trkpt>
      <trkpt lat="44.09629" lon="6.93096">
        <ele>1678.6</ele>
        <time>2022-06-11T13:22:37Z</time>
      </trkpt>
      <trkpt lat="44.09633" lon="6.93092">
        <ele>1678.4</ele>
        <time>2022-06-11T13:22:38Z</time>
      </trkpt>
      <trkpt lat="44.09636" lon="6.93086">
        <ele>1678.1</ele>
        <time>2022-06-11T13:22:39Z</time>
      </trkpt>
      <trkpt lat="44.0964" lon="6.93081">
        <ele>1677.9</ele>
        <time>2022-06-11T13:22:40Z</time>
      </trkpt>
      <trkpt lat="44.09645" lon="6.93075">
        <ele>1677.7</ele>
        <time>2022-06-11T13:22:41Z</time>
      </trkpt>
      <trkpt lat="44.09649" lon="6.9307">
        <ele>1677.5</ele>
        <time>2022-06-11T13:22:42Z</time>
      </trkpt>
      <trkpt lat="44.09653" lon="6.93064">
        <ele>1677.4</ele>
        <time>2022-06-11T13:22:43Z</time>
      </trkpt>
      <trkpt lat="44.09657" lon="6.93058">
        <ele>1677.4</ele>
        <time>2022-06-11T13:22:44Z</time>
      </trkpt>
      <trkpt lat="44.09661" lon="6.93052">
        <ele>1677.6</ele>
        <time>2022-06-11T13:22:45Z</time>
      </trkpt>
      <trkpt lat="44.09665" lon="6.93047">
        <ele>1677.9</ele>
        <time>2022-06-11T13:22:46Z</time>
      </trkpt>
      <trkpt lat="44.09668" lon="6.93041">
        <ele>1678.2</ele>
        <time>2022-06-11T13:22:47Z</time>
      </trkpt>
      <trkpt lat="44.09671" lon="6.93037">
        <ele>1678.6</ele>
        <time>2022-06-11T13:22:48Z</time>
      </trkpt>
      <trkpt lat="44.09674" lon="6.93032">
        <ele>1679</ele>
        <time>2022-06-11T13:22:49Z</time>
      </trkpt>
      <trkpt lat="44.09676" lon="6.93027">
        <ele>1679.4</ele>
        <time>2022-06-11T13:22:50Z</time>
      </trkpt>
      <trkpt lat="44.09679" lon="6.93022">
        <ele>1679.5</ele>
        <time>2022-06-11T13:22:51Z</time>
      </trkpt>
      <trkpt lat="44.0968" lon="6.93017">
        <ele>1679.5</ele>
        <time>2022-06-11T13:22:52Z</time>
      </trkpt>
      <trkpt lat="44.09682" lon="6.93011">
        <ele>1679.5</ele>
        <time>2022-06-11T13:22:53Z</time>
      </trkpt>
      <trkpt lat="44.09683" lon="6.93005">
        <ele>1679.5</ele>
        <time>2022-06-11T13:22:54Z</time>
      </trkpt>
      <trkpt lat="44.09684" lon="6.92999">
        <ele>1679.5</ele>
        <time>2022-06-11T13:22:55Z</time>
      </trkpt>
      <trkpt lat="44.09686" lon="6.92993">
        <ele>1679.7</ele>
        <time>2022-06-11T13:22:56Z</time>
      </trkpt>
      <trkpt lat="44.09687" lon="6.92986">
        <ele>1679.9</ele>
        <time>2022-06-11T13:22:57Z</time>
      </trkpt>
      <trkpt lat="44.09688" lon="6.9298">
        <ele>1680.1</ele>
        <time>2022-06-11T13:22:58Z</time>
      </trkpt>
      <trkpt lat="44.09689" lon="6.92973">
        <ele>1680.3</ele>
        <time>2022-06-11T13:22:59Z</time>
      </trkpt>
      <trkpt lat="44.09691" lon="6.92967">
        <ele>1680.3</ele>
        <time>2022-06-11T13:23:00Z</time>
      </trkpt>
      <trkpt lat="44.09692" lon="6.9296">
        <ele>1680.2</ele>
        <time>2022-06-11T13:23:01Z</time>
      </trkpt>
      <trkpt lat="44.09693" lon="6.92954">
        <ele>1680.1</ele>
        <time>2022-06-11T13:23:02Z</time>
      </trkpt>
      <trkpt lat="44.09693" lon="6.92948">
        <ele>1680</ele>
        <time>2022-06-11T13:23:03Z</time>
      </trkpt>
      <trkpt lat="44.09693" lon="6.92942">
        <ele>1679.8</ele>
        <time>2022-06-11T13:23:04Z</time>
      </trkpt>
      <trkpt lat="44.0969" lon="6.92936">
        <ele>1679.6</ele>
        <time>2022-06-11T13:23:05Z</time>
      </trkpt>
      <trkpt lat="44.09687" lon="6.92932">
        <ele>1679.2</ele>
        <time>2022-06-11T13:23:06Z</time>
      </trkpt>
      <trkpt lat="44.09682" lon="6.92929">
        <ele>1678.6</ele>
        <time>2022-06-11T13:23:07Z</time>
      </trkpt>
      <trkpt lat="44.09676" lon="6.92928">
        <ele>1678</ele>
        <time>2022-06-11T13:23:08Z</time>
      </trkpt>
      <trkpt lat="44.09669" lon="6.92928">
        <ele>1677.3</ele>
        <time>2022-06-11T13:23:09Z</time>
      </trkpt>
      <trkpt lat="44.09665" lon="6.92928">
        <ele>1676.8</ele>
        <time>2022-06-11T13:23:10Z</time>
      </trkpt>
      <trkpt lat="44.09658" lon="6.92928">
        <ele>1676.3</ele>
        <time>2022-06-11T13:23:11Z</time>
      </trkpt>
      <trkpt lat="44.09651" lon="6.92926">
        <ele>1675.7</ele>
        <time>2022-06-11T13:23:12Z</time>
      </trkpt>
      <trkpt lat="44.09644" lon="6.92924">
        <ele>1675.2</ele>
        <time>2022-06-11T13:23:13Z</time>
      </trkpt>
      <trkpt lat="44.09637" lon="6.92921">
        <ele>1674.8</ele>
        <time>2022-06-11T13:23:14Z</time>
      </trkpt>
      <trkpt lat="44.0963" lon="6.92918">
        <ele>1674.6</ele>
        <time>2022-06-11T13:23:15Z</time>
      </trkpt>
      <trkpt lat="44.09622" lon="6.92916">
        <ele>1674.4</ele>
        <time>2022-06-11T13:23:16Z</time>
      </trkpt>
      <trkpt lat="44.09615" lon="6.92914">
        <ele>1674.2</ele>
        <time>2022-06-11T13:23:17Z</time>
      </trkpt>
      <trkpt lat="44.09609" lon="6.92913">
        <ele>1673.9</ele>
        <time>2022-06-11T13:23:18Z</time>
      </trkpt>
      <trkpt lat="44.09602" lon="6.92913">
        <ele>1673.7</ele>
        <time>2022-06-11T13:23:19Z</time>
      </trkpt>
      <trkpt lat="44.09596" lon="6.92913">
        <ele>1673.5</ele>
        <time>2022-06-11T13:23:20Z</time>
      </trkpt>
      <trkpt lat="44.09589" lon="6.92912">
        <ele>1673.3</ele>
        <time>2022-06-11T13:23:21Z</time>
      </trkpt>
      <trkpt lat="44.09583" lon="6.92912">
        <ele>1673.2</ele>
        <time>2022-06-11T13:23:22Z</time>
      </trkpt>
      <trkpt lat="44.09577" lon="6.92912">
        <ele>1673.1</ele>
        <time>2022-06-11T13:23:23Z</time>
      </trkpt>
      <trkpt lat="44.0957" lon="6.92913">
        <ele>1673.1</ele>
        <time>2022-06-11T13:23:24Z</time>
      </trkpt>
      <trkpt lat="44.09564" lon="6.92913">
        <ele>1673</ele>
        <time>2022-06-11T13:23:25Z</time>
      </trkpt>
      <trkpt lat="44.09558" lon="6.92912">
        <ele>1673</ele>
        <time>2022-06-11T13:23:26Z</time>
      </trkpt>
      <trkpt lat="44.09555" lon="6.9291">
        <ele>1673</ele>
        <time>2022-06-11T13:23:27Z</time>
      </trkpt>
      <trkpt lat="44.09552" lon="6.92907">
        <ele>1673</ele>
        <time>2022-06-11T13:23:28Z</time>
      </trkpt>
      <trkpt lat="44.09548" lon="6.92904">
        <ele>1673</ele>
        <time>2022-06-11T13:23:29Z</time>
      </trkpt>
      <trkpt lat="44.09544" lon="6.929">
        <ele>1673</ele>
        <time>2022-06-11T13:23:30Z</time>
      </trkpt>
      <trkpt lat="44.09541" lon="6.92898">
        <ele>1673</ele>
        <time>2022-06-11T13:23:31Z</time>
      </trkpt>
      <trkpt lat="44.09538" lon="6.92895">
        <ele>1673</ele>
        <time>2022-06-11T13:23:32Z</time>
      </trkpt>
      <trkpt lat="44.09536" lon="6.92891">
        <ele>1673</ele>
        <time>2022-06-11T13:23:33Z</time>
      </trkpt>
      <trkpt lat="44.09536" lon="6.92887">
        <ele>1673</ele>
        <time>2022-06-11T13:23:34Z</time>
      </trkpt>
      <trkpt lat="44.09535" lon="6.92882">
        <ele>1673</ele>
        <time>2022-06-11T13:23:35Z</time>
      </trkpt>
      <trkpt lat="44.09535" lon="6.92876">
        <ele>1673</ele>
        <time>2022-06-11T13:23:36Z</time>
      </trkpt>
      <trkpt lat="44.09535" lon="6.92871">
        <ele>1673</ele>
        <time>2022-06-11T13:23:37Z</time>
      </trkpt>
      <trkpt lat="44.09534" lon="6.92865">
        <ele>1673</ele>
        <time>2022-06-11T13:23:38Z</time>
      </trkpt>
      <trkpt lat="44.09534" lon="6.9286">
        <ele>1672.9</ele>
        <time>2022-06-11T13:23:39Z</time>
      </trkpt>
      <trkpt lat="44.09533" lon="6.92854">
        <ele>1672.7</ele>
        <time>2022-06-11T13:23:40Z</time>
      </trkpt>
      <trkpt lat="44.09533" lon="6.92848">
        <ele>1672.5</ele>
        <time>2022-06-11T13:23:41Z</time>
      </trkpt>
      <trkpt lat="44.09532" lon="6.92843">
        <ele>1672.3</ele>
        <time>2022-06-11T13:23:42Z</time>
      </trkpt>
      <trkpt lat="44.09532" lon="6.92837">
        <ele>1672.1</ele>
        <time>2022-06-11T13:23:43Z</time>
      </trkpt>
      <trkpt lat="44.09531" lon="6.92831">
        <ele>1671.9</ele>
        <time>2022-06-11T13:23:44Z</time>
      </trkpt>
      <trkpt lat="44.0953" lon="6.92826">
        <ele>1671.7</ele>
        <time>2022-06-11T13:23:45Z</time>
      </trkpt>
      <trkpt lat="44.09529" lon="6.9282">
        <ele>1671.5</ele>
        <time>2022-06-11T13:23:46Z</time>
      </trkpt>
      <trkpt lat="44.09528" lon="6.92814">
        <ele>1671.3</ele>
        <time>2022-06-11T13:23:47Z</time>
      </trkpt>
      <trkpt lat="44.09526" lon="6.92808">
        <ele>1671.3</ele>
        <time>2022-06-11T13:23:48Z</time>
      </trkpt>
      <trkpt lat="44.09524" lon="6.92802">
        <ele>1671.3</ele>
        <time>2022-06-11T13:23:49Z</time>
      </trkpt>
      <trkpt lat="44.09522" lon="6.92796">
        <ele>1671.3</ele>
        <time>2022-06-11T13:23:50Z</time>
      </trkpt>
      <trkpt lat="44.0952" lon="6.92791">
        <ele>1671.3</ele>
        <time>2022-06-11T13:23:51Z</time>
      </trkpt>
      <trkpt lat="44.09518" lon="6.92785">
        <ele>1671.3</ele>
        <time>2022-06-11T13:23:52Z</time>
      </trkpt>
      <trkpt lat="44.09516" lon="6.92779">
        <ele>1671.3</ele>
        <time>2022-06-11T13:23:53Z</time>
      </trkpt>
      <trkpt lat="44.09514" lon="6.92773">
        <ele>1671.2</ele>
        <time>2022-06-11T13:23:54Z</time>
      </trkpt>
      <trkpt lat="44.09512" lon="6.92767">
        <ele>1671</ele>
        <time>2022-06-11T13:23:55Z</time>
      </trkpt>
      <trkpt lat="44.09509" lon="6.92762">
        <ele>1670.8</ele>
        <time>2022-06-11T13:23:56Z</time>
      </trkpt>
      <trkpt lat="44.09507" lon="6.92756">
        <ele>1670.7</ele>
        <time>2022-06-11T13:23:57Z</time>
      </trkpt>
      <trkpt lat="44.09506" lon="6.9275">
        <ele>1670.4</ele>
        <time>2022-06-11T13:23:58Z</time>
      </trkpt>
      <trkpt lat="44.09504" lon="6.92744">
        <ele>1670.3</ele>
        <time>2022-06-11T13:23:59Z</time>
      </trkpt>
      <trkpt lat="44.09502" lon="6.92738">
        <ele>1670.2</ele>
        <time>2022-06-11T13:24:00Z</time>
      </trkpt>
      <trkpt lat="44.09501" lon="6.92732">
        <ele>1670.3</ele>
        <time>2022-06-11T13:24:01Z</time>
      </trkpt>
      <trkpt lat="44.09498" lon="6.92726">
        <ele>1670.5</ele>
        <time>2022-06-11T13:24:02Z</time>
      </trkpt>
      <trkpt lat="44.09496" lon="6.92721">
        <ele>1670.8</ele>
        <time>2022-06-11T13:24:03Z</time>
      </trkpt>
      <trkpt lat="44.09493" lon="6.92716">
        <ele>1670.9</ele>
        <time>2022-06-11T13:24:04Z</time>
      </trkpt>
      <trkpt lat="44.0949" lon="6.92711">
        <ele>1671</ele>
        <time>2022-06-11T13:24:05Z</time>
      </trkpt>
      <trkpt lat="44.09488" lon="6.92705">
        <ele>1671</ele>
        <time>2022-06-11T13:24:06Z</time>
      </trkpt>
      <trkpt lat="44.09487" lon="6.927">
        <ele>1670.9</ele>
        <time>2022-06-11T13:24:07Z</time>
      </trkpt>
      <trkpt lat="44.09486" lon="6.92694">
        <ele>1670.6</ele>
        <time>2022-06-11T13:24:08Z</time>
      </trkpt>
      <trkpt lat="44.09484" lon="6.92689">
        <ele>1670</ele>
        <time>2022-06-11T13:24:09Z</time>
      </trkpt>
      <trkpt lat="44.09481" lon="6.92684">
        <ele>1669.7</ele>
        <time>2022-06-11T13:24:10Z</time>
      </trkpt>
      <trkpt lat="44.09479" lon="6.92679">
        <ele>1669.5</ele>
        <time>2022-06-11T13:24:11Z</time>
      </trkpt>
      <trkpt lat="44.09476" lon="6.92675">
        <ele>1669.5</ele>
        <time>2022-06-11T13:24:12Z</time>
      </trkpt>
      <trkpt lat="44.09472" lon="6.9267">
        <ele>1669.6</ele>
        <time>2022-06-11T13:24:13Z</time>
      </trkpt>
      <trkpt lat="44.09469" lon="6.92666">
        <ele>1669.2</ele>
        <time>2022-06-11T13:24:14Z</time>
      </trkpt>
      <trkpt lat="44.09465" lon="6.92663">
        <ele>1668.9</ele>
        <time>2022-06-11T13:24:15Z</time>
      </trkpt>
      <trkpt lat="44.09461" lon="6.92659">
        <ele>1668.6</ele>
        <time>2022-06-11T13:24:16Z</time>
      </trkpt>
      <trkpt lat="44.09457" lon="6.92657">
        <ele>1668.5</ele>
        <time>2022-06-11T13:24:17Z</time>
      </trkpt>
      <trkpt lat="44.09453" lon="6.92654">
        <ele>1668.5</ele>
        <time>2022-06-11T13:24:18Z</time>
      </trkpt>
      <trkpt lat="44.09448" lon="6.9265">
        <ele>1668.6</ele>
        <time>2022-06-11T13:24:19Z</time>
      </trkpt>
      <trkpt lat="44.09442" lon="6.92647">
        <ele>1668.6</ele>
        <time>2022-06-11T13:24:20Z</time>
      </trkpt>
      <trkpt lat="44.09437" lon="6.92644">
        <ele>1668.3</ele>
        <time>2022-06-11T13:24:21Z</time>
      </trkpt>
      <trkpt lat="44.09431" lon="6.9264">
        <ele>1668.1</ele>
        <time>2022-06-11T13:24:22Z</time>
      </trkpt>
      <trkpt lat="44.09426" lon="6.92636">
        <ele>1667.8</ele>
        <time>2022-06-11T13:24:23Z</time>
      </trkpt>
      <trkpt lat="44.0942" lon="6.92632">
        <ele>1667.7</ele>
        <time>2022-06-11T13:24:24Z</time>
      </trkpt>
      <trkpt lat="44.09414" lon="6.92627">
        <ele>1667.4</ele>
        <time>2022-06-11T13:24:25Z</time>
      </trkpt>
      <trkpt lat="44.09407" lon="6.92624">
        <ele>1667.1</ele>
        <time>2022-06-11T13:24:26Z</time>
      </trkpt>
      <trkpt lat="44.09401" lon="6.9262">
        <ele>1666.9</ele>
        <time>2022-06-11T13:24:27Z</time>
      </trkpt>
      <trkpt lat="44.09395" lon="6.92618">
        <ele>1666.7</ele>
        <time>2022-06-11T13:24:28Z</time>
      </trkpt>
      <trkpt lat="44.09388" lon="6.92615">
        <ele>1666.5</ele>
        <time>2022-06-11T13:24:29Z</time>
      </trkpt>
      <trkpt lat="44.09381" lon="6.92614">
        <ele>1666.1</ele>
        <time>2022-06-11T13:24:30Z</time>
      </trkpt>
      <trkpt lat="44.09374" lon="6.92613">
        <ele>1665.7</ele>
        <time>2022-06-11T13:24:31Z</time>
      </trkpt>
      <trkpt lat="44.09367" lon="6.92613">
        <ele>1665.4</ele>
        <time>2022-06-11T13:24:32Z</time>
      </trkpt>
      <trkpt lat="44.0936" lon="6.92613">
        <ele>1665.2</ele>
        <time>2022-06-11T13:24:33Z</time>
      </trkpt>
      <trkpt lat="44.09354" lon="6.92615">
        <ele>1664.9</ele>
        <time>2022-06-11T13:24:34Z</time>
      </trkpt>
      <trkpt lat="44.09347" lon="6.92616">
        <ele>1664.7</ele>
        <time>2022-06-11T13:24:35Z</time>
      </trkpt>
      <trkpt lat="44.09341" lon="6.92618">
        <ele>1664.6</ele>
        <time>2022-06-11T13:24:36Z</time>
      </trkpt>
      <trkpt lat="44.09334" lon="6.92621">
        <ele>1664.4</ele>
        <time>2022-06-11T13:24:37Z</time>
      </trkpt>
      <trkpt lat="44.09328" lon="6.92623">
        <ele>1664.5</ele>
        <time>2022-06-11T13:24:38Z</time>
      </trkpt>
      <trkpt lat="44.09322" lon="6.92626">
        <ele>1664.7</ele>
        <time>2022-06-11T13:24:39Z</time>
      </trkpt>
      <trkpt lat="44.09315" lon="6.92629">
        <ele>1665</ele>
        <time>2022-06-11T13:24:40Z</time>
      </trkpt>
      <trkpt lat="44.09308" lon="6.92631">
        <ele>1665.4</ele>
        <time>2022-06-11T13:24:41Z</time>
      </trkpt>
      <trkpt lat="44.09301" lon="6.92634">
        <ele>1665.5</ele>
        <time>2022-06-11T13:24:42Z</time>
      </trkpt>
      <trkpt lat="44.09295" lon="6.92636">
        <ele>1665.6</ele>
        <time>2022-06-11T13:24:43Z</time>
      </trkpt>
      <trkpt lat="44.09289" lon="6.92639">
        <ele>1665.8</ele>
        <time>2022-06-11T13:24:44Z</time>
      </trkpt>
      <trkpt lat="44.09284" lon="6.92641">
        <ele>1665.8</ele>
        <time>2022-06-11T13:24:45Z</time>
      </trkpt>
      <trkpt lat="44.09278" lon="6.92643">
        <ele>1665.7</ele>
        <time>2022-06-11T13:24:46Z</time>
      </trkpt>
      <trkpt lat="44.09272" lon="6.92643">
        <ele>1666</ele>
        <time>2022-06-11T13:24:47Z</time>
      </trkpt>
      <trkpt lat="44.09266" lon="6.92642">
        <ele>1666.1</ele>
        <time>2022-06-11T13:24:48Z</time>
      </trkpt>
      <trkpt lat="44.0926" lon="6.92641">
        <ele>1666</ele>
        <time>2022-06-11T13:24:49Z</time>
      </trkpt>
      <trkpt lat="44.09254" lon="6.92638">
        <ele>1665.6</ele>
        <time>2022-06-11T13:24:50Z</time>
      </trkpt>
      <trkpt lat="44.0925" lon="6.92636">
        <ele>1665.1</ele>
        <time>2022-06-11T13:24:51Z</time>
      </trkpt>
      <trkpt lat="44.09246" lon="6.92634">
        <ele>1665.1</ele>
        <time>2022-06-11T13:24:52Z</time>
      </trkpt>
      <trkpt lat="44.09242" lon="6.92631">
        <ele>1664.9</ele>
        <time>2022-06-11T13:24:53Z</time>
      </trkpt>
      <trkpt lat="44.09239" lon="6.92627">
        <ele>1664.4</ele>
        <time>2022-06-11T13:24:54Z</time>
      </trkpt>
      <trkpt lat="44.09236" lon="6.92623">
        <ele>1663.8</ele>
        <time>2022-06-11T13:24:55Z</time>
      </trkpt>
      <trkpt lat="44.09233" lon="6.92619">
        <ele>1663</ele>
        <time>2022-06-11T13:24:56Z</time>
      </trkpt>
      <trkpt lat="44.09231" lon="6.92613">
        <ele>1662</ele>
        <time>2022-06-11T13:24:57Z</time>
      </trkpt>
      <trkpt lat="44.09229" lon="6.92608">
        <ele>1661.2</ele>
        <time>2022-06-11T13:24:58Z</time>
      </trkpt>
      <trkpt lat="44.09227" lon="6.92603">
        <ele>1660.6</ele>
        <time>2022-06-11T13:24:59Z</time>
      </trkpt>
      <trkpt lat="44.09225" lon="6.92597">
        <ele>1659.8</ele>
        <time>2022-06-11T13:25:00Z</time>
      </trkpt>
      <trkpt lat="44.09224" lon="6.92591">
        <ele>1659.1</ele>
        <time>2022-06-11T13:25:01Z</time>
      </trkpt>
      <trkpt lat="44.09222" lon="6.92585">
        <ele>1658.4</ele>
        <time>2022-06-11T13:25:02Z</time>
      </trkpt>
      <trkpt lat="44.0922" lon="6.92579">
        <ele>1658.1</ele>
        <time>2022-06-11T13:25:03Z</time>
      </trkpt>
      <trkpt lat="44.09219" lon="6.92573">
        <ele>1657.8</ele>
        <time>2022-06-11T13:25:04Z</time>
      </trkpt>
      <trkpt lat="44.09217" lon="6.92567">
        <ele>1657.7</ele>
        <time>2022-06-11T13:25:05Z</time>
      </trkpt>
      <trkpt lat="44.09215" lon="6.92561">
        <ele>1657.9</ele>
        <time>2022-06-11T13:25:06Z</time>
      </trkpt>
      <trkpt lat="44.09212" lon="6.92555">
        <ele>1658.3</ele>
        <time>2022-06-11T13:25:07Z</time>
      </trkpt>
      <trkpt lat="44.0921" lon="6.9255">
        <ele>1659</ele>
        <time>2022-06-11T13:25:08Z</time>
      </trkpt>
      <trkpt lat="44.09207" lon="6.92544">
        <ele>1659.6</ele>
        <time>2022-06-11T13:25:09Z</time>
      </trkpt>
      <trkpt lat="44.09205" lon="6.92539">
        <ele>1660.3</ele>
        <time>2022-06-11T13:25:10Z</time>
      </trkpt>
      <trkpt lat="44.09203" lon="6.92534">
        <ele>1661</ele>
        <time>2022-06-11T13:25:11Z</time>
      </trkpt>
      <trkpt lat="44.092" lon="6.92528">
        <ele>1661.8</ele>
        <time>2022-06-11T13:25:12Z</time>
      </trkpt>
      <trkpt lat="44.09198" lon="6.92523">
        <ele>1662.2</ele>
        <time>2022-06-11T13:25:13Z</time>
      </trkpt>
      <trkpt lat="44.09195" lon="6.92518">
        <ele>1662.6</ele>
        <time>2022-06-11T13:25:14Z</time>
      </trkpt>
      <trkpt lat="44.09192" lon="6.92513">
        <ele>1663</ele>
        <time>2022-06-11T13:25:15Z</time>
      </trkpt>
      <trkpt lat="44.09189" lon="6.92509">
        <ele>1663.2</ele>
        <time>2022-06-11T13:25:16Z</time>
      </trkpt>
      <trkpt lat="44.09187" lon="6.92505">
        <ele>1663.5</ele>
        <time>2022-06-11T13:25:17Z</time>
      </trkpt>
      <trkpt lat="44.09184" lon="6.92502">
        <ele>1664.1</ele>
        <time>2022-06-11T13:25:18Z</time>
      </trkpt>
      <trkpt lat="44.0918" lon="6.92499">
        <ele>1664.6</ele>
        <time>2022-06-11T13:25:19Z</time>
      </trkpt>
      <trkpt lat="44.09177" lon="6.92496">
        <ele>1665.2</ele>
        <time>2022-06-11T13:25:20Z</time>
      </trkpt>
      <trkpt lat="44.09174" lon="6.92494">
        <ele>1665.8</ele>
        <time>2022-06-11T13:25:21Z</time>
      </trkpt>
      <trkpt lat="44.09171" lon="6.92492">
        <ele>1666.3</ele>
        <time>2022-06-11T13:25:22Z</time>
      </trkpt>
      <trkpt lat="44.09168" lon="6.9249">
        <ele>1666.8</ele>
        <time>2022-06-11T13:25:23Z</time>
      </trkpt>
      <trkpt lat="44.09165" lon="6.92488">
        <ele>1667.2</ele>
        <time>2022-06-11T13:25:24Z</time>
      </trkpt>
      <trkpt lat="44.09162" lon="6.92487">
        <ele>1667.5</ele>
        <time>2022-06-11T13:25:25Z</time>
      </trkpt>
      <trkpt lat="44.0916" lon="6.92486">
        <ele>1667.9</ele>
        <time>2022-06-11T13:25:26Z</time>
      </trkpt>
      <trkpt lat="44.09157" lon="6.92485">
        <ele>1668.2</ele>
        <time>2022-06-11T13:25:27Z</time>
      </trkpt>
      <trkpt lat="44.09155" lon="6.92484">
        <ele>1668.6</ele>
        <time>2022-06-11T13:25:28Z</time>
      </trkpt>
      <trkpt lat="44.09152" lon="6.92484">
        <ele>1669.2</ele>
        <time>2022-06-11T13:25:29Z</time>
      </trkpt>
      <trkpt lat="44.0915" lon="6.92484">
        <ele>1669.6</ele>
        <time>2022-06-11T13:25:30Z</time>
      </trkpt>
      <trkpt lat="44.09148" lon="6.92483">
        <ele>1670</ele>
        <time>2022-06-11T13:25:31Z</time>
      </trkpt>
      <trkpt lat="44.09146" lon="6.92483">
        <ele>1670.3</ele>
        <time>2022-06-11T13:25:32Z</time>
      </trkpt>
      <trkpt lat="44.09144" lon="6.92481">
        <ele>1670.4</ele>
        <time>2022-06-11T13:25:33Z</time>
      </trkpt>
      <trkpt lat="44.09143" lon="6.92481">
        <ele>1670.4</ele>
        <time>2022-06-11T13:25:34Z</time>
      </trkpt>
      <trkpt lat="44.09142" lon="6.9248">
        <ele>1670.3</ele>
        <time>2022-06-11T13:25:35Z</time>
      </trkpt>
      <trkpt lat="44.09142" lon="6.9248">
        <ele>1670.3</ele>
        <time>2022-06-11T13:25:36Z</time>
      </trkpt>
      <trkpt lat="44.09142" lon="6.9248">
        <ele>1670.3</ele>
        <time>2022-06-11T13:25:37Z</time>
      </trkpt>
      <trkpt lat="44.09136" lon="6.9248">
        <ele>1671.7</ele>
        <time>2022-06-11T13:27:25Z</time>
      </trkpt>
      <trkpt lat="44.09133" lon="6.92479">
        <ele>1671.9</ele>
        <time>2022-06-11T13:27:26Z</time>
      </trkpt>
      <trkpt lat="44.0913" lon="6.92478">
        <ele>1672.1</ele>
        <time>2022-06-11T13:27:27Z</time>
      </trkpt>
      <trkpt lat="44.09127" lon="6.92477">
        <ele>1672.4</ele>
        <time>2022-06-11T13:27:28Z</time>
      </trkpt>
      <trkpt lat="44.09123" lon="6.92477">
        <ele>1673.1</ele>
        <time>2022-06-11T13:27:29Z</time>
      </trkpt>
      <trkpt lat="44.09118" lon="6.92476">
        <ele>1673.6</ele>
        <time>2022-06-11T13:27:30Z</time>
      </trkpt>
      <trkpt lat="44.09113" lon="6.92475">
        <ele>1674.3</ele>
        <time>2022-06-11T13:27:31Z</time>
      </trkpt>
      <trkpt lat="44.09109" lon="6.92473">
        <ele>1674.7</ele>
        <time>2022-06-11T13:27:32Z</time>
      </trkpt>
      <trkpt lat="44.09104" lon="6.92471">
        <ele>1675</ele>
        <time>2022-06-11T13:27:33Z</time>
      </trkpt>
      <trkpt lat="44.09099" lon="6.92467">
        <ele>1675.1</ele>
        <time>2022-06-11T13:27:34Z</time>
      </trkpt>
      <trkpt lat="44.09095" lon="6.92463">
        <ele>1674.9</ele>
        <time>2022-06-11T13:27:35Z</time>
      </trkpt>
      <trkpt lat="44.09091" lon="6.92458">
        <ele>1674.5</ele>
        <time>2022-06-11T13:27:36Z</time>
      </trkpt>
      <trkpt lat="44.09089" lon="6.92452">
        <ele>1673.8</ele>
        <time>2022-06-11T13:27:37Z</time>
      </trkpt>
      <trkpt lat="44.09087" lon="6.92446">
        <ele>1673</ele>
        <time>2022-06-11T13:27:38Z</time>
      </trkpt>
      <trkpt lat="44.09086" lon="6.92439">
        <ele>1671.8</ele>
        <time>2022-06-11T13:27:39Z</time>
      </trkpt>
      <trkpt lat="44.09085" lon="6.92433">
        <ele>1670.7</ele>
        <time>2022-06-11T13:27:40Z</time>
      </trkpt>
      <trkpt lat="44.09085" lon="6.92426">
        <ele>1669.5</ele>
        <time>2022-06-11T13:27:41Z</time>
      </trkpt>
      <trkpt lat="44.09084" lon="6.9242">
        <ele>1668.4</ele>
        <time>2022-06-11T13:27:42Z</time>
      </trkpt>
      <trkpt lat="44.09084" lon="6.92413">
        <ele>1667.2</ele>
        <time>2022-06-11T13:27:43Z</time>
      </trkpt>
      <trkpt lat="44.09083" lon="6.92406">
        <ele>1666.1</ele>
        <time>2022-06-11T13:27:44Z</time>
      </trkpt>
      <trkpt lat="44.09083" lon="6.92398">
        <ele>1665</ele>
        <time>2022-06-11T13:27:45Z</time>
      </trkpt>
      <trkpt lat="44.09083" lon="6.92391">
        <ele>1663.8</ele>
        <time>2022-06-11T13:27:46Z</time>
      </trkpt>
      <trkpt lat="44.09082" lon="6.92384">
        <ele>1663</ele>
        <time>2022-06-11T13:27:47Z</time>
      </trkpt>
      <trkpt lat="44.09082" lon="6.92377">
        <ele>1662.5</ele>
        <time>2022-06-11T13:27:48Z</time>
      </trkpt>
      <trkpt lat="44.09081" lon="6.92369">
        <ele>1662</ele>
        <time>2022-06-11T13:27:49Z</time>
      </trkpt>
      <trkpt lat="44.09081" lon="6.92362">
        <ele>1661.6</ele>
        <time>2022-06-11T13:27:50Z</time>
      </trkpt>
      <trkpt lat="44.0908" lon="6.92355">
        <ele>1661.2</ele>
        <time>2022-06-11T13:27:51Z</time>
      </trkpt>
      <trkpt lat="44.09079" lon="6.92347">
        <ele>1660.7</ele>
        <time>2022-06-11T13:27:52Z</time>
      </trkpt>
      <trkpt lat="44.09078" lon="6.92339">
        <ele>1660</ele>
        <time>2022-06-11T13:27:53Z</time>
      </trkpt>
      <trkpt lat="44.09077" lon="6.92331">
        <ele>1659.7</ele>
        <time>2022-06-11T13:27:54Z</time>
      </trkpt>
      <trkpt lat="44.09076" lon="6.92323">
        <ele>1660</ele>
        <time>2022-06-11T13:27:55Z</time>
      </trkpt>
      <trkpt lat="44.09074" lon="6.92315">
        <ele>1660.6</ele>
        <time>2022-06-11T13:27:56Z</time>
      </trkpt>
      <trkpt lat="44.09071" lon="6.92307">
        <ele>1661.4</ele>
        <time>2022-06-11T13:27:57Z</time>
      </trkpt>
      <trkpt lat="44.09069" lon="6.92298">
        <ele>1662.3</ele>
        <time>2022-06-11T13:27:58Z</time>
      </trkpt>
      <trkpt lat="44.09066" lon="6.92289">
        <ele>1662.9</ele>
        <time>2022-06-11T13:27:59Z</time>
      </trkpt>
      <trkpt lat="44.09064" lon="6.9228">
        <ele>1663.5</ele>
        <time>2022-06-11T13:28:00Z</time>
      </trkpt>
      <trkpt lat="44.09062" lon="6.92271">
        <ele>1663.9</ele>
        <time>2022-06-11T13:28:01Z</time>
      </trkpt>
      <trkpt lat="44.09059" lon="6.92262">
        <ele>1664.4</ele>
        <time>2022-06-11T13:28:02Z</time>
      </trkpt>
      <trkpt lat="44.09057" lon="6.92253">
        <ele>1664.8</ele>
        <time>2022-06-11T13:28:03Z</time>
      </trkpt>
      <trkpt lat="44.09054" lon="6.92244">
        <ele>1664.9</ele>
        <time>2022-06-11T13:28:04Z</time>
      </trkpt>
      <trkpt lat="44.09052" lon="6.92235">
        <ele>1664.6</ele>
        <time>2022-06-11T13:28:05Z</time>
      </trkpt>
      <trkpt lat="44.09049" lon="6.92226">
        <ele>1664.4</ele>
        <time>2022-06-11T13:28:06Z</time>
      </trkpt>
      <trkpt lat="44.09046" lon="6.92217">
        <ele>1664.6</ele>
        <time>2022-06-11T13:28:07Z</time>
      </trkpt>
      <trkpt lat="44.09043" lon="6.92208">
        <ele>1664.9</ele>
        <time>2022-06-11T13:28:08Z</time>
      </trkpt>
      <trkpt lat="44.09039" lon="6.922">
        <ele>1665.1</ele>
        <time>2022-06-11T13:28:09Z</time>
      </trkpt>
      <trkpt lat="44.09035" lon="6.92192">
        <ele>1665.5</ele>
        <time>2022-06-11T13:28:10Z</time>
      </trkpt>
      <trkpt lat="44.09031" lon="6.92184">
        <ele>1666.1</ele>
        <time>2022-06-11T13:28:11Z</time>
      </trkpt>
      <trkpt lat="44.09028" lon="6.92176">
        <ele>1666.4</ele>
        <time>2022-06-11T13:28:12Z</time>
      </trkpt>
      <trkpt lat="44.09023" lon="6.92168">
        <ele>1666.8</ele>
        <time>2022-06-11T13:28:13Z</time>
      </trkpt>
      <trkpt lat="44.0902" lon="6.9216">
        <ele>1667.4</ele>
        <time>2022-06-11T13:28:14Z</time>
      </trkpt>
      <trkpt lat="44.09016" lon="6.92152">
        <ele>1667.9</ele>
        <time>2022-06-11T13:28:15Z</time>
      </trkpt>
      <trkpt lat="44.09013" lon="6.92144">
        <ele>1668.2</ele>
        <time>2022-06-11T13:28:16Z</time>
      </trkpt>
      <trkpt lat="44.0901" lon="6.92136">
        <ele>1668.4</ele>
        <time>2022-06-11T13:28:17Z</time>
      </trkpt>
      <trkpt lat="44.09008" lon="6.92128">
        <ele>1668.5</ele>
        <time>2022-06-11T13:28:18Z</time>
      </trkpt>
      <trkpt lat="44.09005" lon="6.9212">
        <ele>1668.8</ele>
        <time>2022-06-11T13:28:19Z</time>
      </trkpt>
      <trkpt lat="44.09003" lon="6.92113">
        <ele>1668.9</ele>
        <time>2022-06-11T13:28:20Z</time>
      </trkpt>
      <trkpt lat="44.09001" lon="6.92106">
        <ele>1669.2</ele>
        <time>2022-06-11T13:28:21Z</time>
      </trkpt>
      <trkpt lat="44.09" lon="6.92101">
        <ele>1669.1</ele>
        <time>2022-06-11T13:28:22Z</time>
      </trkpt>
      <trkpt lat="44.09" lon="6.92097">
        <ele>1669.1</ele>
        <time>2022-06-11T13:28:23Z</time>
      </trkpt>
      <trkpt lat="44.09" lon="6.92095">
        <ele>1669</ele>
        <time>2022-06-11T13:28:24Z</time>
      </trkpt>
      <trkpt lat="44.09" lon="6.92095">
        <ele>1669</ele>
        <time>2022-06-11T13:28:25Z</time>
      </trkpt>
      <trkpt lat="44.09" lon="6.92095">
        <ele>1669</ele>
        <time>2022-06-11T13:28:26Z</time>
      </trkpt>
      <trkpt lat="44.09002" lon="6.92093">
        <ele>1667.9</ele>
        <time>2022-06-11T13:28:33Z</time>
      </trkpt>
      <trkpt lat="44.09003" lon="6.92092">
        <ele>1667.4</ele>
        <time>2022-06-11T13:28:34Z</time>
      </trkpt>
      <trkpt lat="44.09003" lon="6.92091">
        <ele>1667.3</ele>
        <time>2022-06-11T13:28:35Z</time>
      </trkpt>
      <trkpt lat="44.09003" lon="6.92091">
        <ele>1667.2</ele>
        <time>2022-06-11T13:28:36Z</time>
      </trkpt>
      <trkpt lat="44.09003" lon="6.92091">
        <ele>1667.2</ele>
        <time>2022-06-11T13:28:37Z</time>
      </trkpt>
      <trkpt lat="44.09003" lon="6.92091">
        <ele>1667.2</ele>
        <time>2022-06-11T13:28:38Z</time>
      </trkpt>
      <trkpt lat="44.09002" lon="6.92091">
        <ele>1668</ele>
        <time>2022-06-11T14:03:00Z</time>
      </trkpt>
      <trkpt lat="44.09001" lon="6.9209">
        <ele>1668.3</ele>
        <time>2022-06-11T14:03:01Z</time>
      </trkpt>
      <trkpt lat="44.09" lon="6.9209">
        <ele>1668.7</ele>
        <time>2022-06-11T14:03:02Z</time>
      </trkpt>
      <trkpt lat="44.08999" lon="6.9209">
        <ele>1669.1</ele>
        <time>2022-06-11T14:03:03Z</time>
      </trkpt>
      <trkpt lat="44.08998" lon="6.92089">
        <ele>1669.3</ele>
        <time>2022-06-11T14:03:04Z</time>
      </trkpt>
      <trkpt lat="44.08998" lon="6.92089">
        <ele>1669.4</ele>
        <time>2022-06-11T14:03:05Z</time>
      </trkpt>
      <trkpt lat="44.08998" lon="6.92089">
        <ele>1669.4</ele>
        <time>2022-06-11T14:03:06Z</time>
      </trkpt>
      <trkpt lat="44.08997" lon="6.92088">
        <ele>1669.5</ele>
        <time>2022-06-11T14:03:07Z</time>
      </trkpt>
      <trkpt lat="44.08995" lon="6.92081">
        <ele>1669.8</ele>
        <time>2022-06-11T14:03:13Z</time>
      </trkpt>
      <trkpt lat="44.08994" lon="6.92078">
        <ele>1669.8</ele>
        <time>2022-06-11T14:03:14Z</time>
      </trkpt>
      <trkpt lat="44.08993" lon="6.92074">
        <ele>1669.6</ele>
        <time>2022-06-11T14:03:15Z</time>
      </trkpt>
      <trkpt lat="44.08992" lon="6.9207">
        <ele>1669.3</ele>
        <time>2022-06-11T14:03:16Z</time>
      </trkpt>
      <trkpt lat="44.08992" lon="6.92066">
        <ele>1669</ele>
        <time>2022-06-11T14:03:17Z</time>
      </trkpt>
      <trkpt lat="44.08991" lon="6.92062">
        <ele>1668.7</ele>
        <time>2022-06-11T14:03:18Z</time>
      </trkpt>
      <trkpt lat="44.08991" lon="6.92058">
        <ele>1668.4</ele>
        <time>2022-06-11T14:03:19Z</time>
      </trkpt>
      <trkpt lat="44.0899" lon="6.92054">
        <ele>1668.2</ele>
        <time>2022-06-11T14:03:20Z</time>
      </trkpt>
      <trkpt lat="44.08989" lon="6.9205">
        <ele>1667.9</ele>
        <time>2022-06-11T14:03:21Z</time>
      </trkpt>
      <trkpt lat="44.08988" lon="6.92046">
        <ele>1667.8</ele>
        <time>2022-06-11T14:03:22Z</time>
      </trkpt>
      <trkpt lat="44.08987" lon="6.92041">
        <ele>1667.4</ele>
        <time>2022-06-11T14:03:23Z</time>
      </trkpt>
      <trkpt lat="44.08987" lon="6.92037">
        <ele>1667</ele>
        <time>2022-06-11T14:03:24Z</time>
      </trkpt>
      <trkpt lat="44.08986" lon="6.92031">
        <ele>1666.7</ele>
        <time>2022-06-11T14:03:25Z</time>
      </trkpt>
      <trkpt lat="44.08984" lon="6.92025">
        <ele>1666.4</ele>
        <time>2022-06-11T14:03:26Z</time>
      </trkpt>
      <trkpt lat="44.08983" lon="6.9202">
        <ele>1666.1</ele>
        <time>2022-06-11T14:03:27Z</time>
      </trkpt>
      <trkpt lat="44.08981" lon="6.92014">
        <ele>1665.8</ele>
        <time>2022-06-11T14:03:28Z</time>
      </trkpt>
      <trkpt lat="44.08981" lon="6.92009">
        <ele>1665.3</ele>
        <time>2022-06-11T14:03:29Z</time>
      </trkpt>
      <trkpt lat="44.0898" lon="6.92004">
        <ele>1664.9</ele>
        <time>2022-06-11T14:03:30Z</time>
      </trkpt>
      <trkpt lat="44.08979" lon="6.91998">
        <ele>1664.3</ele>
        <time>2022-06-11T14:03:31Z</time>
      </trkpt>
      <trkpt lat="44.08978" lon="6.91992">
        <ele>1663.7</ele>
        <time>2022-06-11T14:03:32Z</time>
      </trkpt>
      <trkpt lat="44.08976" lon="6.91986">
        <ele>1663.1</ele>
        <time>2022-06-11T14:03:33Z</time>
      </trkpt>
      <trkpt lat="44.08975" lon="6.9198">
        <ele>1662.5</ele>
        <time>2022-06-11T14:03:34Z</time>
      </trkpt>
      <trkpt lat="44.08974" lon="6.91974">
        <ele>1662</ele>
        <time>2022-06-11T14:03:35Z</time>
      </trkpt>
      <trkpt lat="44.08973" lon="6.91969">
        <ele>1661.8</ele>
        <time>2022-06-11T14:03:36Z</time>
      </trkpt>
      <trkpt lat="44.08972" lon="6.91963">
        <ele>1661.6</ele>
        <time>2022-06-11T14:03:37Z</time>
      </trkpt>
      <trkpt lat="44.08971" lon="6.91957">
        <ele>1661.3</ele>
        <time>2022-06-11T14:03:38Z</time>
      </trkpt>
      <trkpt lat="44.0897" lon="6.91951">
        <ele>1661.3</ele>
        <time>2022-06-11T14:03:39Z</time>
      </trkpt>
      <trkpt lat="44.08969" lon="6.91945">
        <ele>1661.2</ele>
        <time>2022-06-11T14:03:40Z</time>
      </trkpt>
      <trkpt lat="44.08968" lon="6.91941">
        <ele>1660.7</ele>
        <time>2022-06-11T14:03:41Z</time>
      </trkpt>
      <trkpt lat="44.08968" lon="6.91938">
        <ele>1660.2</ele>
        <time>2022-06-11T14:03:42Z</time>
      </trkpt>
      <trkpt lat="44.08968" lon="6.91934">
        <ele>1659.9</ele>
        <time>2022-06-11T14:03:43Z</time>
      </trkpt>
      <trkpt lat="44.08967" lon="6.91932">
        <ele>1660.1</ele>
        <time>2022-06-11T14:03:44Z</time>
      </trkpt>
      <trkpt lat="44.08966" lon="6.91931">
        <ele>1660.2</ele>
        <time>2022-06-11T14:03:45Z</time>
      </trkpt>
      <trkpt lat="44.08966" lon="6.91931">
        <ele>1660.2</ele>
        <time>2022-06-11T14:03:46Z</time>
      </trkpt>
      <trkpt lat="44.08965" lon="6.91922">
        <ele>1659.3</ele>
        <time>2022-06-11T14:04:53Z</time>
      </trkpt>
      <trkpt lat="44.08964" lon="6.9192">
        <ele>1659.6</ele>
        <time>2022-06-11T14:04:54Z</time>
      </trkpt>
      <trkpt lat="44.08963" lon="6.91917">
        <ele>1659.6</ele>
        <time>2022-06-11T14:04:55Z</time>
      </trkpt>
      <trkpt lat="44.08962" lon="6.91914">
        <ele>1659.9</ele>
        <time>2022-06-11T14:04:56Z</time>
      </trkpt>
      <trkpt lat="44.0896" lon="6.91909">
        <ele>1660.2</ele>
        <time>2022-06-11T14:04:57Z</time>
      </trkpt>
      <trkpt lat="44.08959" lon="6.91905">
        <ele>1660.6</ele>
        <time>2022-06-11T14:04:58Z</time>
      </trkpt>
      <trkpt lat="44.08957" lon="6.919">
        <ele>1660.9</ele>
        <time>2022-06-11T14:04:59Z</time>
      </trkpt>
      <trkpt lat="44.08956" lon="6.91895">
        <ele>1661</ele>
        <time>2022-06-11T14:05:00Z</time>
      </trkpt>
      <trkpt lat="44.08954" lon="6.9189">
        <ele>1661.4</ele>
        <time>2022-06-11T14:05:01Z</time>
      </trkpt>
      <trkpt lat="44.08953" lon="6.91884">
        <ele>1661.9</ele>
        <time>2022-06-11T14:05:02Z</time>
      </trkpt>
      <trkpt lat="44.08952" lon="6.91878">
        <ele>1661.8</ele>
        <time>2022-06-11T14:05:03Z</time>
      </trkpt>
      <trkpt lat="44.08952" lon="6.91872">
        <ele>1661.2</ele>
        <time>2022-06-11T14:05:04Z</time>
      </trkpt>
      <trkpt lat="44.08951" lon="6.91869">
        <ele>1660.9</ele>
        <time>2022-06-11T14:05:05Z</time>
      </trkpt>
      <trkpt lat="44.08952" lon="6.91866">
        <ele>1660.5</ele>
        <time>2022-06-11T14:05:06Z</time>
      </trkpt>
      <trkpt lat="44.08952" lon="6.91865">
        <ele>1660.4</ele>
        <time>2022-06-11T14:05:07Z</time>
      </trkpt>
      <trkpt lat="44.08952" lon="6.91864">
        <ele>1660.3</ele>
        <time>2022-06-11T14:05:08Z</time>
      </trkpt>
      <trkpt lat="44.08952" lon="6.91864">
        <ele>1660.3</ele>
        <time>2022-06-11T14:05:09Z</time>
      </trkpt>
      <trkpt lat="44.08948" lon="6.91857">
        <ele>1662</ele>
        <time>2022-06-11T14:06:04Z</time>
      </trkpt>
      <trkpt lat="44.08948" lon="6.91854">
        <ele>1661.7</ele>
        <time>2022-06-11T14:06:05Z</time>
      </trkpt>
      <trkpt lat="44.08948" lon="6.91849">
        <ele>1661.3</ele>
        <time>2022-06-11T14:06:06Z</time>
      </trkpt>
      <trkpt lat="44.08948" lon="6.91844">
        <ele>1661</ele>
        <time>2022-06-11T14:06:07Z</time>
      </trkpt>
      <trkpt lat="44.08949" lon="6.91838">
        <ele>1660.5</ele>
        <time>2022-06-11T14:06:08Z</time>
      </trkpt>
      <trkpt lat="44.08949" lon="6.91833">
        <ele>1659.9</ele>
        <time>2022-06-11T14:06:09Z</time>
      </trkpt>
      <trkpt lat="44.0895" lon="6.91826">
        <ele>1659.5</ele>
        <time>2022-06-11T14:06:10Z</time>
      </trkpt>
      <trkpt lat="44.0895" lon="6.91819">
        <ele>1659.1</ele>
        <time>2022-06-11T14:06:11Z</time>
      </trkpt>
      <trkpt lat="44.0895" lon="6.91811">
        <ele>1658.8</ele>
        <time>2022-06-11T14:06:12Z</time>
      </trkpt>
      <trkpt lat="44.0895" lon="6.91804">
        <ele>1658.5</ele>
        <time>2022-06-11T14:06:13Z</time>
      </trkpt>
      <trkpt lat="44.08948" lon="6.91797">
        <ele>1658</ele>
        <time>2022-06-11T14:06:14Z</time>
      </trkpt>
      <trkpt lat="44.08945" lon="6.9179">
        <ele>1657.6</ele>
        <time>2022-06-11T14:06:15Z</time>
      </trkpt>
      <trkpt lat="44.08941" lon="6.91783">
        <ele>1657.2</ele>
        <time>2022-06-11T14:06:16Z</time>
      </trkpt>
      <trkpt lat="44.08936" lon="6.91777">
        <ele>1656.8</ele>
        <time>2022-06-11T14:06:17Z</time>
      </trkpt>
      <trkpt lat="44.08929" lon="6.91772">
        <ele>1656.2</ele>
        <time>2022-06-11T14:06:18Z</time>
      </trkpt>
      <trkpt lat="44.08921" lon="6.91766">
        <ele>1655.7</ele>
        <time>2022-06-11T14:06:19Z</time>
      </trkpt>
      <trkpt lat="44.08913" lon="6.91762">
        <ele>1655.5</ele>
        <time>2022-06-11T14:06:20Z</time>
      </trkpt>
      <trkpt lat="44.08903" lon="6.91758">
        <ele>1656</ele>
        <time>2022-06-11T14:06:21Z</time>
      </trkpt>
      <trkpt lat="44.08894" lon="6.91753">
        <ele>1656</ele>
        <time>2022-06-11T14:06:22Z</time>
      </trkpt>
      <trkpt lat="44.08885" lon="6.91745">
        <ele>1655.3</ele>
        <time>2022-06-11T14:06:23Z</time>
      </trkpt>
      <trkpt lat="44.08877" lon="6.91733">
        <ele>1654</ele>
        <time>2022-06-11T14:06:24Z</time>
      </trkpt>
      <trkpt lat="44.08871" lon="6.9172">
        <ele>1652</ele>
        <time>2022-06-11T14:06:25Z</time>
      </trkpt>
      <trkpt lat="44.08867" lon="6.91705">
        <ele>1650.3</ele>
        <time>2022-06-11T14:06:26Z</time>
      </trkpt>
      <trkpt lat="44.08863" lon="6.91689">
        <ele>1649</ele>
        <time>2022-06-11T14:06:27Z</time>
      </trkpt>
      <trkpt lat="44.08858" lon="6.91673">
        <ele>1648.5</ele>
        <time>2022-06-11T14:06:28Z</time>
      </trkpt>
      <trkpt lat="44.08854" lon="6.91657">
        <ele>1647.8</ele>
        <time>2022-06-11T14:06:29Z</time>
      </trkpt>
      <trkpt lat="44.08849" lon="6.91641">
        <ele>1646.5</ele>
        <time>2022-06-11T14:06:30Z</time>
      </trkpt>
      <trkpt lat="44.08844" lon="6.91624">
        <ele>1644.8</ele>
        <time>2022-06-11T14:06:31Z</time>
      </trkpt>
      <trkpt lat="44.08839" lon="6.91608">
        <ele>1643.5</ele>
        <time>2022-06-11T14:06:32Z</time>
      </trkpt>
      <trkpt lat="44.08834" lon="6.91591">
        <ele>1642.8</ele>
        <time>2022-06-11T14:06:33Z</time>
      </trkpt>
      <trkpt lat="44.08829" lon="6.91574">
        <ele>1642.2</ele>
        <time>2022-06-11T14:06:34Z</time>
      </trkpt>
      <trkpt lat="44.08826" lon="6.91555">
        <ele>1640.8</ele>
        <time>2022-06-11T14:06:35Z</time>
      </trkpt>
      <trkpt lat="44.08824" lon="6.91537">
        <ele>1639.2</ele>
        <time>2022-06-11T14:06:36Z</time>
      </trkpt>
      <trkpt lat="44.08821" lon="6.91518">
        <ele>1637.5</ele>
        <time>2022-06-11T14:06:37Z</time>
      </trkpt>
      <trkpt lat="44.08818" lon="6.91501">
        <ele>1636.1</ele>
        <time>2022-06-11T14:06:38Z</time>
      </trkpt>
      <trkpt lat="44.08814" lon="6.91487">
        <ele>1634.8</ele>
        <time>2022-06-11T14:06:39Z</time>
      </trkpt>
      <trkpt lat="44.08808" lon="6.91473">
        <ele>1634.4</ele>
        <time>2022-06-11T14:06:40Z</time>
      </trkpt>
      <trkpt lat="44.08801" lon="6.91463">
        <ele>1633.5</ele>
        <time>2022-06-11T14:06:41Z</time>
      </trkpt>
      <trkpt lat="44.08792" lon="6.91455">
        <ele>1633</ele>
        <time>2022-06-11T14:06:42Z</time>
      </trkpt>
      <trkpt lat="44.08781" lon="6.91452">
        <ele>1633.4</ele>
        <time>2022-06-11T14:06:43Z</time>
      </trkpt>
      <trkpt lat="44.08769" lon="6.91451">
        <ele>1633</ele>
        <time>2022-06-11T14:06:44Z</time>
      </trkpt>
      <trkpt lat="44.08757" lon="6.91452">
        <ele>1632.5</ele>
        <time>2022-06-11T14:06:45Z</time>
      </trkpt>
      <trkpt lat="44.08746" lon="6.91454">
        <ele>1631.8</ele>
        <time>2022-06-11T14:06:46Z</time>
      </trkpt>
      <trkpt lat="44.08733" lon="6.91456">
        <ele>1630.5</ele>
        <time>2022-06-11T14:06:47Z</time>
      </trkpt>
      <trkpt lat="44.08721" lon="6.91457">
        <ele>1629.1</ele>
        <time>2022-06-11T14:06:48Z</time>
      </trkpt>
      <trkpt lat="44.08709" lon="6.9146">
        <ele>1627.9</ele>
        <time>2022-06-11T14:06:49Z</time>
      </trkpt>
      <trkpt lat="44.08696" lon="6.91461">
        <ele>1626.5</ele>
        <time>2022-06-11T14:06:50Z</time>
      </trkpt>
      <trkpt lat="44.08683" lon="6.91463">
        <ele>1625.4</ele>
        <time>2022-06-11T14:06:51Z</time>
      </trkpt>
      <trkpt lat="44.0867" lon="6.91465">
        <ele>1624.4</ele>
        <time>2022-06-11T14:06:52Z</time>
      </trkpt>
      <trkpt lat="44.08657" lon="6.91466">
        <ele>1623.1</ele>
        <time>2022-06-11T14:06:53Z</time>
      </trkpt>
      <trkpt lat="44.08645" lon="6.91468">
        <ele>1621.8</ele>
        <time>2022-06-11T14:06:54Z</time>
      </trkpt>
      <trkpt lat="44.08632" lon="6.9147">
        <ele>1620.5</ele>
        <time>2022-06-11T14:06:55Z</time>
      </trkpt>
      <trkpt lat="44.08621" lon="6.91474">
        <ele>1619.7</ele>
        <time>2022-06-11T14:06:56Z</time>
      </trkpt>
      <trkpt lat="44.08611" lon="6.9148">
        <ele>1619.1</ele>
        <time>2022-06-11T14:06:57Z</time>
      </trkpt>
      <trkpt lat="44.08602" lon="6.9149">
        <ele>1618.4</ele>
        <time>2022-06-11T14:06:58Z</time>
      </trkpt>
      <trkpt lat="44.08596" lon="6.91502">
        <ele>1617.7</ele>
        <time>2022-06-11T14:06:59Z</time>
      </trkpt>
      <trkpt lat="44.08592" lon="6.91517">
        <ele>1617.5</ele>
        <time>2022-06-11T14:07:00Z</time>
      </trkpt>
      <trkpt lat="44.08591" lon="6.91532">
        <ele>1617.6</ele>
        <time>2022-06-11T14:07:01Z</time>
      </trkpt>
      <trkpt lat="44.08592" lon="6.91548">
        <ele>1616.9</ele>
        <time>2022-06-11T14:07:02Z</time>
      </trkpt>
      <trkpt lat="44.08593" lon="6.91564">
        <ele>1616.1</ele>
        <time>2022-06-11T14:07:03Z</time>
      </trkpt>
      <trkpt lat="44.08594" lon="6.91581">
        <ele>1614.8</ele>
        <time>2022-06-11T14:07:04Z</time>
      </trkpt>
      <trkpt lat="44.08595" lon="6.91598">
        <ele>1613</ele>
        <time>2022-06-11T14:07:05Z</time>
      </trkpt>
      <trkpt lat="44.08596" lon="6.91615">
        <ele>1611.5</ele>
        <time>2022-06-11T14:07:06Z</time>
      </trkpt>
      <trkpt lat="44.08597" lon="6.91633">
        <ele>1610.6</ele>
        <time>2022-06-11T14:07:07Z</time>
      </trkpt>
      <trkpt lat="44.08598" lon="6.9165">
        <ele>1609.9</ele>
        <time>2022-06-11T14:07:08Z</time>
      </trkpt>
      <trkpt lat="44.08599" lon="6.91668">
        <ele>1609.3</ele>
        <time>2022-06-11T14:07:09Z</time>
      </trkpt>
      <trkpt lat="44.08599" lon="6.91687">
        <ele>1607.8</ele>
        <time>2022-06-11T14:07:10Z</time>
      </trkpt>
      <trkpt lat="44.08599" lon="6.91706">
        <ele>1606.7</ele>
        <time>2022-06-11T14:07:11Z</time>
      </trkpt>
      <trkpt lat="44.08599" lon="6.91725">
        <ele>1605.5</ele>
        <time>2022-06-11T14:07:12Z</time>
      </trkpt>
      <trkpt lat="44.08599" lon="6.91743">
        <ele>1603.8</ele>
        <time>2022-06-11T14:07:13Z</time>
      </trkpt>
      <trkpt lat="44.08601" lon="6.91761">
        <ele>1601.9</ele>
        <time>2022-06-11T14:07:14Z</time>
      </trkpt>
      <trkpt lat="44.08605" lon="6.9178">
        <ele>1600.2</ele>
        <time>2022-06-11T14:07:15Z</time>
      </trkpt>
      <trkpt lat="44.0861" lon="6.91798">
        <ele>1599</ele>
        <time>2022-06-11T14:07:16Z</time>
      </trkpt>
      <trkpt lat="44.08615" lon="6.91815">
        <ele>1598.6</ele>
        <time>2022-06-11T14:07:17Z</time>
      </trkpt>
      <trkpt lat="44.0862" lon="6.91831">
        <ele>1597.7</ele>
        <time>2022-06-11T14:07:18Z</time>
      </trkpt>
      <trkpt lat="44.08624" lon="6.91845">
        <ele>1597</ele>
        <time>2022-06-11T14:07:19Z</time>
      </trkpt>
      <trkpt lat="44.08627" lon="6.91857">
        <ele>1596.2</ele>
        <time>2022-06-11T14:07:20Z</time>
      </trkpt>
      <trkpt lat="44.08631" lon="6.91868">
        <ele>1595.9</ele>
        <time>2022-06-11T14:07:21Z</time>
      </trkpt>
      <trkpt lat="44.08634" lon="6.91877">
        <ele>1595.6</ele>
        <time>2022-06-11T14:07:22Z</time>
      </trkpt>
      <trkpt lat="44.08635" lon="6.91884">
        <ele>1594.8</ele>
        <time>2022-06-11T14:07:23Z</time>
      </trkpt>
      <trkpt lat="44.08633" lon="6.91889">
        <ele>1593.4</ele>
        <time>2022-06-11T14:07:24Z</time>
      </trkpt>
      <trkpt lat="44.08628" lon="6.91891">
        <ele>1592</ele>
        <time>2022-06-11T14:07:25Z</time>
      </trkpt>
      <trkpt lat="44.08623" lon="6.91887">
        <ele>1590.6</ele>
        <time>2022-06-11T14:07:26Z</time>
      </trkpt>
      <trkpt lat="44.08619" lon="6.9188">
        <ele>1590.1</ele>
        <time>2022-06-11T14:07:27Z</time>
      </trkpt>
      <trkpt lat="44.08616" lon="6.91872">
        <ele>1589.8</ele>
        <time>2022-06-11T14:07:28Z</time>
      </trkpt>
      <trkpt lat="44.08613" lon="6.91862">
        <ele>1589.6</ele>
        <time>2022-06-11T14:07:29Z</time>
      </trkpt>
      <trkpt lat="44.0861" lon="6.91853">
        <ele>1589.5</ele>
        <time>2022-06-11T14:07:30Z</time>
      </trkpt>
      <trkpt lat="44.08607" lon="6.91843">
        <ele>1589.5</ele>
        <time>2022-06-11T14:07:31Z</time>
      </trkpt>
      <trkpt lat="44.08603" lon="6.91833">
        <ele>1589.2</ele>
        <time>2022-06-11T14:07:32Z</time>
      </trkpt>
      <trkpt lat="44.08599" lon="6.91823">
        <ele>1589.3</ele>
        <time>2022-06-11T14:07:33Z</time>
      </trkpt>
      <trkpt lat="44.08594" lon="6.91812">
        <ele>1588.8</ele>
        <time>2022-06-11T14:07:34Z</time>
      </trkpt>
      <trkpt lat="44.08588" lon="6.91802">
        <ele>1588</ele>
        <time>2022-06-11T14:07:35Z</time>
      </trkpt>
      <trkpt lat="44.08583" lon="6.91791">
        <ele>1587.6</ele>
        <time>2022-06-11T14:07:36Z</time>
      </trkpt>
      <trkpt lat="44.08579" lon="6.91779">
        <ele>1587.6</ele>
        <time>2022-06-11T14:07:37Z</time>
      </trkpt>
      <trkpt lat="44.08574" lon="6.91766">
        <ele>1587</ele>
        <time>2022-06-11T14:07:38Z</time>
      </trkpt>
      <trkpt lat="44.08571" lon="6.91753">
        <ele>1586.5</ele>
        <time>2022-06-11T14:07:39Z</time>
      </trkpt>
      <trkpt lat="44.08568" lon="6.91738">
        <ele>1585.7</ele>
        <time>2022-06-11T14:07:40Z</time>
      </trkpt>
      <trkpt lat="44.08565" lon="6.91724">
        <ele>1584.7</ele>
        <time>2022-06-11T14:07:41Z</time>
      </trkpt>
      <trkpt lat="44.08561" lon="6.9171">
        <ele>1583.6</ele>
        <time>2022-06-11T14:07:42Z</time>
      </trkpt>
      <trkpt lat="44.08558" lon="6.91695">
        <ele>1582.6</ele>
        <time>2022-06-11T14:07:43Z</time>
      </trkpt>
      <trkpt lat="44.08555" lon="6.91679">
        <ele>1581.1</ele>
        <time>2022-06-11T14:07:44Z</time>
      </trkpt>
      <trkpt lat="44.08551" lon="6.91664">
        <ele>1580.3</ele>
        <time>2022-06-11T14:07:45Z</time>
      </trkpt>
      <trkpt lat="44.08548" lon="6.91649">
        <ele>1579.6</ele>
        <time>2022-06-11T14:07:46Z</time>
      </trkpt>
      <trkpt lat="44.08544" lon="6.91633">
        <ele>1578.9</ele>
        <time>2022-06-11T14:07:47Z</time>
      </trkpt>
      <trkpt lat="44.0854" lon="6.91618">
        <ele>1578.3</ele>
        <time>2022-06-11T14:07:48Z</time>
      </trkpt>
      <trkpt lat="44.08534" lon="6.91604">
        <ele>1577.5</ele>
        <time>2022-06-11T14:07:49Z</time>
      </trkpt>
      <trkpt lat="44.08526" lon="6.91593">
        <ele>1576.3</ele>
        <time>2022-06-11T14:07:50Z</time>
      </trkpt>
      <trkpt lat="44.08516" lon="6.91584">
        <ele>1574.8</ele>
        <time>2022-06-11T14:07:51Z</time>
      </trkpt>
      <trkpt lat="44.08506" lon="6.91577">
        <ele>1572.5</ele>
        <time>2022-06-11T14:07:52Z</time>
      </trkpt>
      <trkpt lat="44.08494" lon="6.9157">
        <ele>1570.3</ele>
        <time>2022-06-11T14:07:53Z</time>
      </trkpt>
      <trkpt lat="44.08484" lon="6.91562">
        <ele>1569.2</ele>
        <time>2022-06-11T14:07:54Z</time>
      </trkpt>
      <trkpt lat="44.08476" lon="6.91551">
        <ele>1568.5</ele>
        <time>2022-06-11T14:07:55Z</time>
      </trkpt>
      <trkpt lat="44.08471" lon="6.91537">
        <ele>1567.9</ele>
        <time>2022-06-11T14:07:56Z</time>
      </trkpt>
      <trkpt lat="44.08468" lon="6.91521">
        <ele>1567.8</ele>
        <time>2022-06-11T14:07:57Z</time>
      </trkpt>
      <trkpt lat="44.08466" lon="6.91504">
        <ele>1567.7</ele>
        <time>2022-06-11T14:07:58Z</time>
      </trkpt>
      <trkpt lat="44.08464" lon="6.91488">
        <ele>1567.7</ele>
        <time>2022-06-11T14:07:59Z</time>
      </trkpt>
      <trkpt lat="44.08462" lon="6.91471">
        <ele>1567.7</ele>
        <time>2022-06-11T14:08:00Z</time>
      </trkpt>
      <trkpt lat="44.08461" lon="6.91454">
        <ele>1566.5</ele>
        <time>2022-06-11T14:08:01Z</time>
      </trkpt>
      <trkpt lat="44.08459" lon="6.91436">
        <ele>1565.3</ele>
        <time>2022-06-11T14:08:02Z</time>
      </trkpt>
      <trkpt lat="44.08459" lon="6.91419">
        <ele>1564.2</ele>
        <time>2022-06-11T14:08:03Z</time>
      </trkpt>
      <trkpt lat="44.08458" lon="6.91401">
        <ele>1561.9</ele>
        <time>2022-06-11T14:08:04Z</time>
      </trkpt>
      <trkpt lat="44.08458" lon="6.91382">
        <ele>1560.1</ele>
        <time>2022-06-11T14:08:05Z</time>
      </trkpt>
      <trkpt lat="44.0846" lon="6.91364">
        <ele>1558.7</ele>
        <time>2022-06-11T14:08:06Z</time>
      </trkpt>
      <trkpt lat="44.08463" lon="6.91346">
        <ele>1557</ele>
        <time>2022-06-11T14:08:07Z</time>
      </trkpt>
      <trkpt lat="44.08467" lon="6.91327">
        <ele>1555.7</ele>
        <time>2022-06-11T14:08:08Z</time>
      </trkpt>
      <trkpt lat="44.08471" lon="6.91311">
        <ele>1555.2</ele>
        <time>2022-06-11T14:08:09Z</time>
      </trkpt>
      <trkpt lat="44.08476" lon="6.91296">
        <ele>1554.1</ele>
        <time>2022-06-11T14:08:10Z</time>
      </trkpt>
      <trkpt lat="44.0848" lon="6.91283">
        <ele>1552.5</ele>
        <time>2022-06-11T14:08:11Z</time>
      </trkpt>
      <trkpt lat="44.08485" lon="6.91271">
        <ele>1550.8</ele>
        <time>2022-06-11T14:08:12Z</time>
      </trkpt>
      <trkpt lat="44.0849" lon="6.91261">
        <ele>1549.4</ele>
        <time>2022-06-11T14:08:13Z</time>
      </trkpt>
      <trkpt lat="44.08497" lon="6.91252">
        <ele>1549.3</ele>
        <time>2022-06-11T14:08:14Z</time>
      </trkpt>
      <trkpt lat="44.08505" lon="6.91244">
        <ele>1549.1</ele>
        <time>2022-06-11T14:08:15Z</time>
      </trkpt>
      <trkpt lat="44.08514" lon="6.91238">
        <ele>1548.4</ele>
        <time>2022-06-11T14:08:16Z</time>
      </trkpt>
      <trkpt lat="44.08523" lon="6.91232">
        <ele>1547.8</ele>
        <time>2022-06-11T14:08:17Z</time>
      </trkpt>
      <trkpt lat="44.08533" lon="6.91226">
        <ele>1547.4</ele>
        <time>2022-06-11T14:08:18Z</time>
      </trkpt>
      <trkpt lat="44.08542" lon="6.91219">
        <ele>1547.4</ele>
        <time>2022-06-11T14:08:19Z</time>
      </trkpt>
      <trkpt lat="44.08552" lon="6.91212">
        <ele>1547.2</ele>
        <time>2022-06-11T14:08:20Z</time>
      </trkpt>
      <trkpt lat="44.08561" lon="6.91204">
        <ele>1546.7</ele>
        <time>2022-06-11T14:08:21Z</time>
      </trkpt>
      <trkpt lat="44.08569" lon="6.91193">
        <ele>1545.7</ele>
        <time>2022-06-11T14:08:22Z</time>
      </trkpt>
      <trkpt lat="44.08576" lon="6.9118">
        <ele>1544.3</ele>
        <time>2022-06-11T14:08:23Z</time>
      </trkpt>
      <trkpt lat="44.08581" lon="6.91166">
        <ele>1542.5</ele>
        <time>2022-06-11T14:08:24Z</time>
      </trkpt>
      <trkpt lat="44.08586" lon="6.91151">
        <ele>1540.5</ele>
        <time>2022-06-11T14:08:25Z</time>
      </trkpt>
      <trkpt lat="44.08591" lon="6.91136">
        <ele>1538.3</ele>
        <time>2022-06-11T14:08:26Z</time>
      </trkpt>
      <trkpt lat="44.08597" lon="6.91122">
        <ele>1537</ele>
        <time>2022-06-11T14:08:27Z</time>
      </trkpt>
      <trkpt lat="44.08605" lon="6.91109">
        <ele>1536</ele>
        <time>2022-06-11T14:08:28Z</time>
      </trkpt>
      <trkpt lat="44.08615" lon="6.91099">
        <ele>1534.8</ele>
        <time>2022-06-11T14:08:29Z</time>
      </trkpt>
      <trkpt lat="44.08626" lon="6.91092">
        <ele>1533.2</ele>
        <time>2022-06-11T14:08:30Z</time>
      </trkpt>
      <trkpt lat="44.08638" lon="6.91088">
        <ele>1531.9</ele>
        <time>2022-06-11T14:08:31Z</time>
      </trkpt>
      <trkpt lat="44.08651" lon="6.91087">
        <ele>1530.9</ele>
        <time>2022-06-11T14:08:32Z</time>
      </trkpt>
      <trkpt lat="44.08665" lon="6.9109">
        <ele>1530.5</ele>
        <time>2022-06-11T14:08:33Z</time>
      </trkpt>
      <trkpt lat="44.08677" lon="6.91095">
        <ele>1530.4</ele>
        <time>2022-06-11T14:08:34Z</time>
      </trkpt>
      <trkpt lat="44.0869" lon="6.91101">
        <ele>1530.8</ele>
        <time>2022-06-11T14:08:35Z</time>
      </trkpt>
      <trkpt lat="44.08703" lon="6.91106">
        <ele>1530.7</ele>
        <time>2022-06-11T14:08:36Z</time>
      </trkpt>
      <trkpt lat="44.08716" lon="6.91107">
        <ele>1529.5</ele>
        <time>2022-06-11T14:08:37Z</time>
      </trkpt>
      <trkpt lat="44.08729" lon="6.91105">
        <ele>1527.7</ele>
        <time>2022-06-11T14:08:38Z</time>
      </trkpt>
      <trkpt lat="44.08741" lon="6.91103">
        <ele>1525.6</ele>
        <time>2022-06-11T14:08:39Z</time>
      </trkpt>
      <trkpt lat="44.08754" lon="6.91102">
        <ele>1523.9</ele>
        <time>2022-06-11T14:08:40Z</time>
      </trkpt>
      <trkpt lat="44.08765" lon="6.91104">
        <ele>1522.8</ele>
        <time>2022-06-11T14:08:41Z</time>
      </trkpt>
      <trkpt lat="44.08776" lon="6.91108">
        <ele>1522.3</ele>
        <time>2022-06-11T14:08:42Z</time>
      </trkpt>
      <trkpt lat="44.08786" lon="6.91113">
        <ele>1522.4</ele>
        <time>2022-06-11T14:08:43Z</time>
      </trkpt>
      <trkpt lat="44.08794" lon="6.9112">
        <ele>1523.2</ele>
        <time>2022-06-11T14:08:44Z</time>
      </trkpt>
      <trkpt lat="44.08801" lon="6.91127">
        <ele>1523.8</ele>
        <time>2022-06-11T14:08:45Z</time>
      </trkpt>
      <trkpt lat="44.08808" lon="6.91132">
        <ele>1523.8</ele>
        <time>2022-06-11T14:08:46Z</time>
      </trkpt>
      <trkpt lat="44.08814" lon="6.91131">
        <ele>1522.5</ele>
        <time>2022-06-11T14:08:47Z</time>
      </trkpt>
      <trkpt lat="44.08819" lon="6.91125">
        <ele>1520.3</ele>
        <time>2022-06-11T14:08:48Z</time>
      </trkpt>
      <trkpt lat="44.0882" lon="6.91116">
        <ele>1518.3</ele>
        <time>2022-06-11T14:08:49Z</time>
      </trkpt>
      <trkpt lat="44.08817" lon="6.91107">
        <ele>1516.7</ele>
        <time>2022-06-11T14:08:50Z</time>
      </trkpt>
      <trkpt lat="44.08811" lon="6.91101">
        <ele>1516</ele>
        <time>2022-06-11T14:08:51Z</time>
      </trkpt>
      <trkpt lat="44.08804" lon="6.91097">
        <ele>1516.2</ele>
        <time>2022-06-11T14:08:52Z</time>
      </trkpt>
      <trkpt lat="44.08796" lon="6.91094">
        <ele>1516.3</ele>
        <time>2022-06-11T14:08:53Z</time>
      </trkpt>
      <trkpt lat="44.08788" lon="6.9109">
        <ele>1516.4</ele>
        <time>2022-06-11T14:08:54Z</time>
      </trkpt>
      <trkpt lat="44.0878" lon="6.91085">
        <ele>1516.2</ele>
        <time>2022-06-11T14:08:55Z</time>
      </trkpt>
      <trkpt lat="44.08771" lon="6.91079">
        <ele>1516</ele>
        <time>2022-06-11T14:08:56Z</time>
      </trkpt>
      <trkpt lat="44.08762" lon="6.91072">
        <ele>1515.5</ele>
        <time>2022-06-11T14:08:57Z</time>
      </trkpt>
      <trkpt lat="44.08753" lon="6.91065">
        <ele>1514.7</ele>
        <time>2022-06-11T14:08:58Z</time>
      </trkpt>
      <trkpt lat="44.08743" lon="6.91056">
        <ele>1513.7</ele>
        <time>2022-06-11T14:08:59Z</time>
      </trkpt>
      <trkpt lat="44.08735" lon="6.91047">
        <ele>1512.5</ele>
        <time>2022-06-11T14:09:00Z</time>
      </trkpt>
      <trkpt lat="44.08727" lon="6.91036">
        <ele>1510.6</ele>
        <time>2022-06-11T14:09:01Z</time>
      </trkpt>
      <trkpt lat="44.08719" lon="6.91024">
        <ele>1508.9</ele>
        <time>2022-06-11T14:09:02Z</time>
      </trkpt>
      <trkpt lat="44.0871" lon="6.91012">
        <ele>1508</ele>
        <time>2022-06-11T14:09:03Z</time>
      </trkpt>
      <trkpt lat="44.08702" lon="6.91001">
        <ele>1506.4</ele>
        <time>2022-06-11T14:09:04Z</time>
      </trkpt>
      <trkpt lat="44.08693" lon="6.90992">
        <ele>1505</ele>
        <time>2022-06-11T14:09:05Z</time>
      </trkpt>
      <trkpt lat="44.08682" lon="6.90986">
        <ele>1504.7</ele>
        <time>2022-06-11T14:09:06Z</time>
      </trkpt>
      <trkpt lat="44.08671" lon="6.90984">
        <ele>1504.8</ele>
        <time>2022-06-11T14:09:07Z</time>
      </trkpt>
      <trkpt lat="44.08659" lon="6.90982">
        <ele>1504.8</ele>
        <time>2022-06-11T14:09:08Z</time>
      </trkpt>
      <trkpt lat="44.08646" lon="6.90982">
        <ele>1504.7</ele>
        <time>2022-06-11T14:09:09Z</time>
      </trkpt>
      <trkpt lat="44.08634" lon="6.90981">
        <ele>1504.1</ele>
        <time>2022-06-11T14:09:10Z</time>
      </trkpt>
      <trkpt lat="44.08622" lon="6.90979">
        <ele>1503.1</ele>
        <time>2022-06-11T14:09:11Z</time>
      </trkpt>
      <trkpt lat="44.08609" lon="6.90979">
        <ele>1502.2</ele>
        <time>2022-06-11T14:09:12Z</time>
      </trkpt>
      <trkpt lat="44.08596" lon="6.90979">
        <ele>1500.8</ele>
        <time>2022-06-11T14:09:13Z</time>
      </trkpt>
      <trkpt lat="44.08583" lon="6.90978">
        <ele>1499.3</ele>
        <time>2022-06-11T14:09:14Z</time>
      </trkpt>
      <trkpt lat="44.0857" lon="6.90976">
        <ele>1498</ele>
        <time>2022-06-11T14:09:15Z</time>
      </trkpt>
      <trkpt lat="44.08557" lon="6.90972">
        <ele>1495.9</ele>
        <time>2022-06-11T14:09:16Z</time>
      </trkpt>
      <trkpt lat="44.08544" lon="6.90965">
        <ele>1494.6</ele>
        <time>2022-06-11T14:09:17Z</time>
      </trkpt>
      <trkpt lat="44.08532" lon="6.90957">
        <ele>1493.2</ele>
        <time>2022-06-11T14:09:18Z</time>
      </trkpt>
      <trkpt lat="44.0852" lon="6.90948">
        <ele>1492.7</ele>
        <time>2022-06-11T14:09:19Z</time>
      </trkpt>
      <trkpt lat="44.08508" lon="6.9094">
        <ele>1492.8</ele>
        <time>2022-06-11T14:09:20Z</time>
      </trkpt>
      <trkpt lat="44.08497" lon="6.90931">
        <ele>1492.8</ele>
        <time>2022-06-11T14:09:21Z</time>
      </trkpt>
      <trkpt lat="44.08488" lon="6.90921">
        <ele>1492.2</ele>
        <time>2022-06-11T14:09:22Z</time>
      </trkpt>
      <trkpt lat="44.0848" lon="6.90908">
        <ele>1490.4</ele>
        <time>2022-06-11T14:09:23Z</time>
      </trkpt>
      <trkpt lat="44.08473" lon="6.90893">
        <ele>1487.9</ele>
        <time>2022-06-11T14:09:24Z</time>
      </trkpt>
      <trkpt lat="44.08466" lon="6.90878">
        <ele>1485.3</ele>
        <time>2022-06-11T14:09:25Z</time>
      </trkpt>
      <trkpt lat="44.08459" lon="6.90864">
        <ele>1483.2</ele>
        <time>2022-06-11T14:09:26Z</time>
      </trkpt>
      <trkpt lat="44.08451" lon="6.90852">
        <ele>1482</ele>
        <time>2022-06-11T14:09:27Z</time>
      </trkpt>
      <trkpt lat="44.08442" lon="6.90842">
        <ele>1481.9</ele>
        <time>2022-06-11T14:09:28Z</time>
      </trkpt>
      <trkpt lat="44.08432" lon="6.90835">
        <ele>1481.7</ele>
        <time>2022-06-11T14:09:29Z</time>
      </trkpt>
      <trkpt lat="44.08421" lon="6.90831">
        <ele>1482.6</ele>
        <time>2022-06-11T14:09:30Z</time>
      </trkpt>
      <trkpt lat="44.0841" lon="6.90831">
        <ele>1483</ele>
        <time>2022-06-11T14:09:31Z</time>
      </trkpt>
      <trkpt lat="44.084" lon="6.90833">
        <ele>1483.2</ele>
        <time>2022-06-11T14:09:32Z</time>
      </trkpt>
      <trkpt lat="44.08392" lon="6.90835">
        <ele>1483.5</ele>
        <time>2022-06-11T14:09:33Z</time>
      </trkpt>
      <trkpt lat="44.08385" lon="6.90837">
        <ele>1482.8</ele>
        <time>2022-06-11T14:09:34Z</time>
      </trkpt>
      <trkpt lat="44.08378" lon="6.90836">
        <ele>1480.6</ele>
        <time>2022-06-11T14:09:35Z</time>
      </trkpt>
      <trkpt lat="44.08374" lon="6.9083">
        <ele>1477.9</ele>
        <time>2022-06-11T14:09:36Z</time>
      </trkpt>
      <trkpt lat="44.08374" lon="6.90822">
        <ele>1476.1</ele>
        <time>2022-06-11T14:09:37Z</time>
      </trkpt>
      <trkpt lat="44.08378" lon="6.90816">
        <ele>1475.7</ele>
        <time>2022-06-11T14:09:38Z</time>
      </trkpt>
      <trkpt lat="44.08385" lon="6.90814">
        <ele>1476.6</ele>
        <time>2022-06-11T14:09:39Z</time>
      </trkpt>
      <trkpt lat="44.08393" lon="6.90815">
        <ele>1477.6</ele>
        <time>2022-06-11T14:09:40Z</time>
      </trkpt>
      <trkpt lat="44.08401" lon="6.90815">
        <ele>1478</ele>
        <time>2022-06-11T14:09:41Z</time>
      </trkpt>
      <trkpt lat="44.08409" lon="6.90816">
        <ele>1478.3</ele>
        <time>2022-06-11T14:09:42Z</time>
      </trkpt>
      <trkpt lat="44.08418" lon="6.90817">
        <ele>1478.2</ele>
        <time>2022-06-11T14:09:43Z</time>
      </trkpt>
      <trkpt lat="44.08428" lon="6.90818">
        <ele>1476.4</ele>
        <time>2022-06-11T14:09:44Z</time>
      </trkpt>
      <trkpt lat="44.08438" lon="6.90819">
        <ele>1474.8</ele>
        <time>2022-06-11T14:09:45Z</time>
      </trkpt>
      <trkpt lat="44.08448" lon="6.90822">
        <ele>1473.1</ele>
        <time>2022-06-11T14:09:46Z</time>
      </trkpt>
      <trkpt lat="44.08458" lon="6.90826">
        <ele>1471.1</ele>
        <time>2022-06-11T14:09:47Z</time>
      </trkpt>
      <trkpt lat="44.08468" lon="6.90831">
        <ele>1469.7</ele>
        <time>2022-06-11T14:09:48Z</time>
      </trkpt>
      <trkpt lat="44.08478" lon="6.90839">
        <ele>1468.8</ele>
        <time>2022-06-11T14:09:49Z</time>
      </trkpt>
      <trkpt lat="44.08488" lon="6.90846">
        <ele>1468</ele>
        <time>2022-06-11T14:09:50Z</time>
      </trkpt>
      <trkpt lat="44.08498" lon="6.90854">
        <ele>1467.3</ele>
        <time>2022-06-11T14:09:51Z</time>
      </trkpt>
      <trkpt lat="44.08507" lon="6.90862">
        <ele>1468.3</ele>
        <time>2022-06-11T14:09:52Z</time>
      </trkpt>
      <trkpt lat="44.08517" lon="6.9087">
        <ele>1469.2</ele>
        <time>2022-06-11T14:09:53Z</time>
      </trkpt>
      <trkpt lat="44.08528" lon="6.90875">
        <ele>1469</ele>
        <time>2022-06-11T14:09:54Z</time>
      </trkpt>
      <trkpt lat="44.08538" lon="6.90876">
        <ele>1468.3</ele>
        <time>2022-06-11T14:09:55Z</time>
      </trkpt>
      <trkpt lat="44.08548" lon="6.90873">
        <ele>1466.3</ele>
        <time>2022-06-11T14:09:56Z</time>
      </trkpt>
      <trkpt lat="44.08557" lon="6.90865">
        <ele>1463.5</ele>
        <time>2022-06-11T14:09:57Z</time>
      </trkpt>
      <trkpt lat="44.08562" lon="6.90854">
        <ele>1464</ele>
        <time>2022-06-11T14:09:58Z</time>
      </trkpt>
      <trkpt lat="44.08564" lon="6.90841">
        <ele>1464.2</ele>
        <time>2022-06-11T14:09:59Z</time>
      </trkpt>
      <trkpt lat="44.08563" lon="6.90826">
        <ele>1463.5</ele>
        <time>2022-06-11T14:10:00Z</time>
      </trkpt>
      <trkpt lat="44.08561" lon="6.90812">
        <ele>1462.1</ele>
        <time>2022-06-11T14:10:01Z</time>
      </trkpt>
      <trkpt lat="44.08558" lon="6.90798">
        <ele>1460.8</ele>
        <time>2022-06-11T14:10:02Z</time>
      </trkpt>
      <trkpt lat="44.08556" lon="6.90783">
        <ele>1459.8</ele>
        <time>2022-06-11T14:10:03Z</time>
      </trkpt>
      <trkpt lat="44.08554" lon="6.90768">
        <ele>1459.2</ele>
        <time>2022-06-11T14:10:04Z</time>
      </trkpt>
      <trkpt lat="44.08553" lon="6.90753">
        <ele>1458.7</ele>
        <time>2022-06-11T14:10:05Z</time>
      </trkpt>
      <trkpt lat="44.08553" lon="6.90737">
        <ele>1457.4</ele>
        <time>2022-06-11T14:10:06Z</time>
      </trkpt>
      <trkpt lat="44.08554" lon="6.90721">
        <ele>1456</ele>
        <time>2022-06-11T14:10:07Z</time>
      </trkpt>
      <trkpt lat="44.08555" lon="6.90706">
        <ele>1454.1</ele>
        <time>2022-06-11T14:10:08Z</time>
      </trkpt>
      <trkpt lat="44.08555" lon="6.90689">
        <ele>1452.1</ele>
        <time>2022-06-11T14:10:09Z</time>
      </trkpt>
      <trkpt lat="44.08556" lon="6.90673">
        <ele>1449.9</ele>
        <time>2022-06-11T14:10:10Z</time>
      </trkpt>
      <trkpt lat="44.08556" lon="6.90657">
        <ele>1448.1</ele>
        <time>2022-06-11T14:10:11Z</time>
      </trkpt>
      <trkpt lat="44.08556" lon="6.9064">
        <ele>1446.1</ele>
        <time>2022-06-11T14:10:12Z</time>
      </trkpt>
      <trkpt lat="44.08556" lon="6.90624">
        <ele>1444.9</ele>
        <time>2022-06-11T14:10:13Z</time>
      </trkpt>
      <trkpt lat="44.08557" lon="6.9061">
        <ele>1444.1</ele>
        <time>2022-06-11T14:10:14Z</time>
      </trkpt>
      <trkpt lat="44.0856" lon="6.90597">
        <ele>1443.9</ele>
        <time>2022-06-11T14:10:15Z</time>
      </trkpt>
      <trkpt lat="44.08565" lon="6.90586">
        <ele>1443.5</ele>
        <time>2022-06-11T14:10:16Z</time>
      </trkpt>
      <trkpt lat="44.08573" lon="6.90577">
        <ele>1442.6</ele>
        <time>2022-06-11T14:10:17Z</time>
      </trkpt>
      <trkpt lat="44.08582" lon="6.90571">
        <ele>1441.7</ele>
        <time>2022-06-11T14:10:18Z</time>
      </trkpt>
      <trkpt lat="44.08592" lon="6.90566">
        <ele>1440.6</ele>
        <time>2022-06-11T14:10:19Z</time>
      </trkpt>
      <trkpt lat="44.08602" lon="6.90562">
        <ele>1439.3</ele>
        <time>2022-06-11T14:10:20Z</time>
      </trkpt>
      <trkpt lat="44.08613" lon="6.9056">
        <ele>1438.2</ele>
        <time>2022-06-11T14:10:21Z</time>
      </trkpt>
      <trkpt lat="44.08625" lon="6.9056">
        <ele>1437.4</ele>
        <time>2022-06-11T14:10:22Z</time>
      </trkpt>
      <trkpt lat="44.08637" lon="6.9056">
        <ele>1436.7</ele>
        <time>2022-06-11T14:10:23Z</time>
      </trkpt>
      <trkpt lat="44.08648" lon="6.9056">
        <ele>1436</ele>
        <time>2022-06-11T14:10:24Z</time>
      </trkpt>
      <trkpt lat="44.0866" lon="6.90561">
        <ele>1435.3</ele>
        <time>2022-06-11T14:10:25Z</time>
      </trkpt>
      <trkpt lat="44.08672" lon="6.90562">
        <ele>1434.5</ele>
        <time>2022-06-11T14:10:26Z</time>
      </trkpt>
      <trkpt lat="44.08685" lon="6.90563">
        <ele>1433.3</ele>
        <time>2022-06-11T14:10:27Z</time>
      </trkpt>
      <trkpt lat="44.08697" lon="6.90565">
        <ele>1432.3</ele>
        <time>2022-06-11T14:10:28Z</time>
      </trkpt>
      <trkpt lat="44.0871" lon="6.90567">
        <ele>1431.6</ele>
        <time>2022-06-11T14:10:29Z</time>
      </trkpt>
      <trkpt lat="44.08722" lon="6.90569">
        <ele>1430.8</ele>
        <time>2022-06-11T14:10:30Z</time>
      </trkpt>
      <trkpt lat="44.08733" lon="6.90571">
        <ele>1430.7</ele>
        <time>2022-06-11T14:10:31Z</time>
      </trkpt>
      <trkpt lat="44.08743" lon="6.90573">
        <ele>1430.6</ele>
        <time>2022-06-11T14:10:32Z</time>
      </trkpt>
      <trkpt lat="44.08752" lon="6.90575">
        <ele>1430.5</ele>
        <time>2022-06-11T14:10:33Z</time>
      </trkpt>
      <trkpt lat="44.08762" lon="6.90575">
        <ele>1430.2</ele>
        <time>2022-06-11T14:10:34Z</time>
      </trkpt>
      <trkpt lat="44.08771" lon="6.90572">
        <ele>1429.2</ele>
        <time>2022-06-11T14:10:35Z</time>
      </trkpt>
      <trkpt lat="44.08779" lon="6.90565">
        <ele>1427.7</ele>
        <time>2022-06-11T14:10:36Z</time>
      </trkpt>
      <trkpt lat="44.08786" lon="6.90555">
        <ele>1426.4</ele>
        <time>2022-06-11T14:10:37Z</time>
      </trkpt>
      <trkpt lat="44.08791" lon="6.90541">
        <ele>1425.3</ele>
        <time>2022-06-11T14:10:38Z</time>
      </trkpt>
      <trkpt lat="44.08792" lon="6.90527">
        <ele>1424</ele>
        <time>2022-06-11T14:10:39Z</time>
      </trkpt>
      <trkpt lat="44.08791" lon="6.90512">
        <ele>1423.8</ele>
        <time>2022-06-11T14:10:40Z</time>
      </trkpt>
      <trkpt lat="44.08789" lon="6.90497">
        <ele>1423</ele>
        <time>2022-06-11T14:10:41Z</time>
      </trkpt>
      <trkpt lat="44.08788" lon="6.90481">
        <ele>1422.1</ele>
        <time>2022-06-11T14:10:42Z</time>
      </trkpt>
      <trkpt lat="44.08787" lon="6.90465">
        <ele>1421.3</ele>
        <time>2022-06-11T14:10:43Z</time>
      </trkpt>
      <trkpt lat="44.08788" lon="6.90449">
        <ele>1420.5</ele>
        <time>2022-06-11T14:10:44Z</time>
      </trkpt>
      <trkpt lat="44.08786" lon="6.90432">
        <ele>1420.1</ele>
        <time>2022-06-11T14:10:45Z</time>
      </trkpt>
      <trkpt lat="44.08783" lon="6.90416">
        <ele>1419.2</ele>
        <time>2022-06-11T14:10:46Z</time>
      </trkpt>
      <trkpt lat="44.08777" lon="6.90402">
        <ele>1418.4</ele>
        <time>2022-06-11T14:10:47Z</time>
      </trkpt>
      <trkpt lat="44.08768" lon="6.9039">
        <ele>1416.8</ele>
        <time>2022-06-11T14:10:48Z</time>
      </trkpt>
      <trkpt lat="44.08758" lon="6.90381">
        <ele>1415</ele>
        <time>2022-06-11T14:10:49Z</time>
      </trkpt>
      <trkpt lat="44.08748" lon="6.90373">
        <ele>1413.3</ele>
        <time>2022-06-11T14:10:50Z</time>
      </trkpt>
      <trkpt lat="44.08738" lon="6.90362">
        <ele>1412.3</ele>
        <time>2022-06-11T14:10:51Z</time>
      </trkpt>
      <trkpt lat="44.08729" lon="6.9035">
        <ele>1411.5</ele>
        <time>2022-06-11T14:10:52Z</time>
      </trkpt>
      <trkpt lat="44.08721" lon="6.90336">
        <ele>1410.1</ele>
        <time>2022-06-11T14:10:53Z</time>
      </trkpt>
      <trkpt lat="44.08713" lon="6.90321">
        <ele>1409.4</ele>
        <time>2022-06-11T14:10:54Z</time>
      </trkpt>
      <trkpt lat="44.08707" lon="6.90305">
        <ele>1408.9</ele>
        <time>2022-06-11T14:10:55Z</time>
      </trkpt>
      <trkpt lat="44.08701" lon="6.90289">
        <ele>1408</ele>
        <time>2022-06-11T14:10:56Z</time>
      </trkpt>
      <trkpt lat="44.08695" lon="6.90272">
        <ele>1407</ele>
        <time>2022-06-11T14:10:57Z</time>
      </trkpt>
      <trkpt lat="44.0869" lon="6.90256">
        <ele>1406.1</ele>
        <time>2022-06-11T14:10:58Z</time>
      </trkpt>
      <trkpt lat="44.08683" lon="6.90239">
        <ele>1404.8</ele>
        <time>2022-06-11T14:10:59Z</time>
      </trkpt>
      <trkpt lat="44.08677" lon="6.90223">
        <ele>1403.2</ele>
        <time>2022-06-11T14:11:00Z</time>
      </trkpt>
      <trkpt lat="44.08671" lon="6.90207">
        <ele>1402.2</ele>
        <time>2022-06-11T14:11:01Z</time>
      </trkpt>
      <trkpt lat="44.08664" lon="6.90193">
        <ele>1401.1</ele>
        <time>2022-06-11T14:11:02Z</time>
      </trkpt>
      <trkpt lat="44.08658" lon="6.90178">
        <ele>1400.3</ele>
        <time>2022-06-11T14:11:03Z</time>
      </trkpt>
      <trkpt lat="44.08653" lon="6.90165">
        <ele>1399.6</ele>
        <time>2022-06-11T14:11:04Z</time>
      </trkpt>
      <trkpt lat="44.08649" lon="6.9015">
        <ele>1398.8</ele>
        <time>2022-06-11T14:11:05Z</time>
      </trkpt>
      <trkpt lat="44.08647" lon="6.90135">
        <ele>1398.3</ele>
        <time>2022-06-11T14:11:06Z</time>
      </trkpt>
      <trkpt lat="44.08648" lon="6.90119">
        <ele>1397.2</ele>
        <time>2022-06-11T14:11:07Z</time>
      </trkpt>
      <trkpt lat="44.08651" lon="6.90103">
        <ele>1396.3</ele>
        <time>2022-06-11T14:11:08Z</time>
      </trkpt>
      <trkpt lat="44.08655" lon="6.90088">
        <ele>1395.7</ele>
        <time>2022-06-11T14:11:09Z</time>
      </trkpt>
      <trkpt lat="44.08662" lon="6.90074">
        <ele>1395</ele>
        <time>2022-06-11T14:11:10Z</time>
      </trkpt>
      <trkpt lat="44.08668" lon="6.90059">
        <ele>1394.2</ele>
        <time>2022-06-11T14:11:11Z</time>
      </trkpt>
      <trkpt lat="44.08674" lon="6.90044">
        <ele>1393.1</ele>
        <time>2022-06-11T14:11:12Z</time>
      </trkpt>
      <trkpt lat="44.08681" lon="6.90028">
        <ele>1391.6</ele>
        <time>2022-06-11T14:11:13Z</time>
      </trkpt>
      <trkpt lat="44.08687" lon="6.90013">
        <ele>1390.9</ele>
        <time>2022-06-11T14:11:14Z</time>
      </trkpt>
      <trkpt lat="44.08693" lon="6.89999">
        <ele>1390.3</ele>
        <time>2022-06-11T14:11:15Z</time>
      </trkpt>
      <trkpt lat="44.087" lon="6.89986">
        <ele>1389.3</ele>
        <time>2022-06-11T14:11:16Z</time>
      </trkpt>
      <trkpt lat="44.08705" lon="6.89972">
        <ele>1387.7</ele>
        <time>2022-06-11T14:11:17Z</time>
      </trkpt>
      <trkpt lat="44.08709" lon="6.89958">
        <ele>1386.6</ele>
        <time>2022-06-11T14:11:18Z</time>
      </trkpt>
      <trkpt lat="44.08712" lon="6.89944">
        <ele>1384.5</ele>
        <time>2022-06-11T14:11:19Z</time>
      </trkpt>
      <trkpt lat="44.08713" lon="6.8993">
        <ele>1384.9</ele>
        <time>2022-06-11T14:11:20Z</time>
      </trkpt>
      <trkpt lat="44.08713" lon="6.89916">
        <ele>1384.6</ele>
        <time>2022-06-11T14:11:21Z</time>
      </trkpt>
      <trkpt lat="44.0871" lon="6.89902">
        <ele>1384.8</ele>
        <time>2022-06-11T14:11:22Z</time>
      </trkpt>
      <trkpt lat="44.08706" lon="6.89889">
        <ele>1384.2</ele>
        <time>2022-06-11T14:11:23Z</time>
      </trkpt>
      <trkpt lat="44.08702" lon="6.89876">
        <ele>1383.9</ele>
        <time>2022-06-11T14:11:24Z</time>
      </trkpt>
      <trkpt lat="44.08697" lon="6.89864">
        <ele>1382.8</ele>
        <time>2022-06-11T14:11:25Z</time>
      </trkpt>
      <trkpt lat="44.08691" lon="6.89853">
        <ele>1382</ele>
        <time>2022-06-11T14:11:26Z</time>
      </trkpt>
      <trkpt lat="44.08686" lon="6.89841">
        <ele>1381.4</ele>
        <time>2022-06-11T14:11:27Z</time>
      </trkpt>
      <trkpt lat="44.08681" lon="6.89829">
        <ele>1380.9</ele>
        <time>2022-06-11T14:11:28Z</time>
      </trkpt>
      <trkpt lat="44.08678" lon="6.89815">
        <ele>1380.4</ele>
        <time>2022-06-11T14:11:29Z</time>
      </trkpt>
      <trkpt lat="44.08676" lon="6.89801">
        <ele>1379.9</ele>
        <time>2022-06-11T14:11:30Z</time>
      </trkpt>
      <trkpt lat="44.08674" lon="6.89786">
        <ele>1379</ele>
        <time>2022-06-11T14:11:31Z</time>
      </trkpt>
      <trkpt lat="44.08673" lon="6.89771">
        <ele>1378.1</ele>
        <time>2022-06-11T14:11:32Z</time>
      </trkpt>
      <trkpt lat="44.08671" lon="6.89757">
        <ele>1377.3</ele>
        <time>2022-06-11T14:11:33Z</time>
      </trkpt>
      <trkpt lat="44.0867" lon="6.89742">
        <ele>1376.5</ele>
        <time>2022-06-11T14:11:34Z</time>
      </trkpt>
      <trkpt lat="44.0867" lon="6.89727">
        <ele>1376</ele>
        <time>2022-06-11T14:11:35Z</time>
      </trkpt>
      <trkpt lat="44.08672" lon="6.89712">
        <ele>1375.9</ele>
        <time>2022-06-11T14:11:36Z</time>
      </trkpt>
      <trkpt lat="44.08674" lon="6.89696">
        <ele>1376</ele>
        <time>2022-06-11T14:11:37Z</time>
      </trkpt>
      <trkpt lat="44.08676" lon="6.89681">
        <ele>1375.5</ele>
        <time>2022-06-11T14:11:38Z</time>
      </trkpt>
      <trkpt lat="44.08678" lon="6.89665">
        <ele>1374.7</ele>
        <time>2022-06-11T14:11:39Z</time>
      </trkpt>
      <trkpt lat="44.0868" lon="6.89649">
        <ele>1373.6</ele>
        <time>2022-06-11T14:11:40Z</time>
      </trkpt>
      <trkpt lat="44.08682" lon="6.89632">
        <ele>1372.4</ele>
        <time>2022-06-11T14:11:41Z</time>
      </trkpt>
      <trkpt lat="44.08685" lon="6.89616">
        <ele>1371.8</ele>
        <time>2022-06-11T14:11:42Z</time>
      </trkpt>
      <trkpt lat="44.08688" lon="6.896">
        <ele>1370.8</ele>
        <time>2022-06-11T14:11:43Z</time>
      </trkpt>
      <trkpt lat="44.08691" lon="6.89585">
        <ele>1370.4</ele>
        <time>2022-06-11T14:11:44Z</time>
      </trkpt>
      <trkpt lat="44.08696" lon="6.89571">
        <ele>1370.1</ele>
        <time>2022-06-11T14:11:45Z</time>
      </trkpt>
      <trkpt lat="44.08704" lon="6.89559">
        <ele>1370.7</ele>
        <time>2022-06-11T14:11:46Z</time>
      </trkpt>
      <trkpt lat="44.08712" lon="6.89547">
        <ele>1370.9</ele>
        <time>2022-06-11T14:11:47Z</time>
      </trkpt>
      <trkpt lat="44.0872" lon="6.89534">
        <ele>1369.9</ele>
        <time>2022-06-11T14:11:48Z</time>
      </trkpt>
      <trkpt lat="44.08725" lon="6.89519">
        <ele>1368.2</ele>
        <time>2022-06-11T14:11:49Z</time>
      </trkpt>
      <trkpt lat="44.08728" lon="6.89503">
        <ele>1366.4</ele>
        <time>2022-06-11T14:11:50Z</time>
      </trkpt>
      <trkpt lat="44.0873" lon="6.89486">
        <ele>1365.8</ele>
        <time>2022-06-11T14:11:51Z</time>
      </trkpt>
      <trkpt lat="44.08733" lon="6.89469">
        <ele>1365.8</ele>
        <time>2022-06-11T14:11:52Z</time>
      </trkpt>
      <trkpt lat="44.08737" lon="6.89453">
        <ele>1366.1</ele>
        <time>2022-06-11T14:11:53Z</time>
      </trkpt>
      <trkpt lat="44.08742" lon="6.89438">
        <ele>1365.7</ele>
        <time>2022-06-11T14:11:54Z</time>
      </trkpt>
      <trkpt lat="44.08747" lon="6.89424">
        <ele>1364.9</ele>
        <time>2022-06-11T14:11:55Z</time>
      </trkpt>
      <trkpt lat="44.08751" lon="6.8941">
        <ele>1362.9</ele>
        <time>2022-06-11T14:11:56Z</time>
      </trkpt>
      <trkpt lat="44.08752" lon="6.89394">
        <ele>1359.9</ele>
        <time>2022-06-11T14:11:57Z</time>
      </trkpt>
      <trkpt lat="44.0875" lon="6.89378">
        <ele>1359.1</ele>
        <time>2022-06-11T14:11:58Z</time>
      </trkpt>
      <trkpt lat="44.08747" lon="6.89363">
        <ele>1359.9</ele>
        <time>2022-06-11T14:11:59Z</time>
      </trkpt>
      <trkpt lat="44.08741" lon="6.89349">
        <ele>1360.6</ele>
        <time>2022-06-11T14:12:00Z</time>
      </trkpt>
      <trkpt lat="44.08735" lon="6.89336">
        <ele>1360</ele>
        <time>2022-06-11T14:12:01Z</time>
      </trkpt>
      <trkpt lat="44.08727" lon="6.89324">
        <ele>1357.7</ele>
        <time>2022-06-11T14:12:02Z</time>
      </trkpt>
      <trkpt lat="44.08717" lon="6.89314">
        <ele>1355.1</ele>
        <time>2022-06-11T14:12:03Z</time>
      </trkpt>
      <trkpt lat="44.08706" lon="6.89306">
        <ele>1353.7</ele>
        <time>2022-06-11T14:12:04Z</time>
      </trkpt>
      <trkpt lat="44.08695" lon="6.89298">
        <ele>1352.7</ele>
        <time>2022-06-11T14:12:05Z</time>
      </trkpt>
      <trkpt lat="44.08684" lon="6.89291">
        <ele>1351.6</ele>
        <time>2022-06-11T14:12:06Z</time>
      </trkpt>
      <trkpt lat="44.08672" lon="6.89287">
        <ele>1349.6</ele>
        <time>2022-06-11T14:12:07Z</time>
      </trkpt>
      <trkpt lat="44.0866" lon="6.89284">
        <ele>1348.1</ele>
        <time>2022-06-11T14:12:08Z</time>
      </trkpt>
      <trkpt lat="44.08647" lon="6.89281">
        <ele>1347.3</ele>
        <time>2022-06-11T14:12:09Z</time>
      </trkpt>
      <trkpt lat="44.08635" lon="6.89278">
        <ele>1346.2</ele>
        <time>2022-06-11T14:12:10Z</time>
      </trkpt>
      <trkpt lat="44.08622" lon="6.89275">
        <ele>1344.9</ele>
        <time>2022-06-11T14:12:11Z</time>
      </trkpt>
      <trkpt lat="44.0861" lon="6.89273">
        <ele>1343.5</ele>
        <time>2022-06-11T14:12:12Z</time>
      </trkpt>
      <trkpt lat="44.08598" lon="6.89273">
        <ele>1342.8</ele>
        <time>2022-06-11T14:12:13Z</time>
      </trkpt>
      <trkpt lat="44.08587" lon="6.89276">
        <ele>1341.7</ele>
        <time>2022-06-11T14:12:14Z</time>
      </trkpt>
      <trkpt lat="44.08577" lon="6.89281">
        <ele>1340.9</ele>
        <time>2022-06-11T14:12:15Z</time>
      </trkpt>
      <trkpt lat="44.08568" lon="6.89289">
        <ele>1339.8</ele>
        <time>2022-06-11T14:12:16Z</time>
      </trkpt>
      <trkpt lat="44.08559" lon="6.89296">
        <ele>1338.6</ele>
        <time>2022-06-11T14:12:17Z</time>
      </trkpt>
      <trkpt lat="44.08549" lon="6.89302">
        <ele>1337.5</ele>
        <time>2022-06-11T14:12:18Z</time>
      </trkpt>
      <trkpt lat="44.08538" lon="6.89305">
        <ele>1336.9</ele>
        <time>2022-06-11T14:12:19Z</time>
      </trkpt>
      <trkpt lat="44.08527" lon="6.89304">
        <ele>1337.4</ele>
        <time>2022-06-11T14:12:20Z</time>
      </trkpt>
      <trkpt lat="44.08517" lon="6.893">
        <ele>1336.5</ele>
        <time>2022-06-11T14:12:21Z</time>
      </trkpt>
      <trkpt lat="44.08507" lon="6.89293">
        <ele>1336.7</ele>
        <time>2022-06-11T14:12:22Z</time>
      </trkpt>
      <trkpt lat="44.08497" lon="6.89285">
        <ele>1336.3</ele>
        <time>2022-06-11T14:12:23Z</time>
      </trkpt>
      <trkpt lat="44.08487" lon="6.8928">
        <ele>1334.3</ele>
        <time>2022-06-11T14:12:24Z</time>
      </trkpt>
      <trkpt lat="44.08476" lon="6.89277">
        <ele>1331.8</ele>
        <time>2022-06-11T14:12:25Z</time>
      </trkpt>
      <trkpt lat="44.08465" lon="6.89276">
        <ele>1330</ele>
        <time>2022-06-11T14:12:26Z</time>
      </trkpt>
      <trkpt lat="44.08454" lon="6.89272">
        <ele>1329.7</ele>
        <time>2022-06-11T14:12:27Z</time>
      </trkpt>
      <trkpt lat="44.08446" lon="6.89263">
        <ele>1331.1</ele>
        <time>2022-06-11T14:12:28Z</time>
      </trkpt>
      <trkpt lat="44.08439" lon="6.89251">
        <ele>1331.5</ele>
        <time>2022-06-11T14:12:29Z</time>
      </trkpt>
      <trkpt lat="44.08434" lon="6.89238">
        <ele>1331.7</ele>
        <time>2022-06-11T14:12:30Z</time>
      </trkpt>
      <trkpt lat="44.08429" lon="6.89224">
        <ele>1331.4</ele>
        <time>2022-06-11T14:12:31Z</time>
      </trkpt>
      <trkpt lat="44.08422" lon="6.89211">
        <ele>1330.5</ele>
        <time>2022-06-11T14:12:32Z</time>
      </trkpt>
      <trkpt lat="44.08414" lon="6.89199">
        <ele>1329.3</ele>
        <time>2022-06-11T14:12:33Z</time>
      </trkpt>
      <trkpt lat="44.08406" lon="6.89186">
        <ele>1328</ele>
        <time>2022-06-11T14:12:34Z</time>
      </trkpt>
      <trkpt lat="44.08398" lon="6.89173">
        <ele>1326.5</ele>
        <time>2022-06-11T14:12:35Z</time>
      </trkpt>
      <trkpt lat="44.08393" lon="6.89157">
        <ele>1325.5</ele>
        <time>2022-06-11T14:12:36Z</time>
      </trkpt>
      <trkpt lat="44.0839" lon="6.8914">
        <ele>1325.3</ele>
        <time>2022-06-11T14:12:37Z</time>
      </trkpt>
      <trkpt lat="44.08389" lon="6.89122">
        <ele>1324.8</ele>
        <time>2022-06-11T14:12:38Z</time>
      </trkpt>
      <trkpt lat="44.08389" lon="6.89103">
        <ele>1324.9</ele>
        <time>2022-06-11T14:12:39Z</time>
      </trkpt>
      <trkpt lat="44.0839" lon="6.89085">
        <ele>1324.5</ele>
        <time>2022-06-11T14:12:40Z</time>
      </trkpt>
      <trkpt lat="44.08389" lon="6.89067">
        <ele>1323.1</ele>
        <time>2022-06-11T14:12:41Z</time>
      </trkpt>
      <trkpt lat="44.08386" lon="6.8905">
        <ele>1321.3</ele>
        <time>2022-06-11T14:12:42Z</time>
      </trkpt>
      <trkpt lat="44.0838" lon="6.89034">
        <ele>1319.7</ele>
        <time>2022-06-11T14:12:43Z</time>
      </trkpt>
      <trkpt lat="44.08374" lon="6.89018">
        <ele>1317</ele>
        <time>2022-06-11T14:12:44Z</time>
      </trkpt>
      <trkpt lat="44.08368" lon="6.89001">
        <ele>1315.1</ele>
        <time>2022-06-11T14:12:45Z</time>
      </trkpt>
      <trkpt lat="44.08365" lon="6.88983">
        <ele>1313.8</ele>
        <time>2022-06-11T14:12:46Z</time>
      </trkpt>
      <trkpt lat="44.08364" lon="6.88965">
        <ele>1313.5</ele>
        <time>2022-06-11T14:12:47Z</time>
      </trkpt>
      <trkpt lat="44.08364" lon="6.88947">
        <ele>1313</ele>
        <time>2022-06-11T14:12:48Z</time>
      </trkpt>
      <trkpt lat="44.08365" lon="6.88929">
        <ele>1311.9</ele>
        <time>2022-06-11T14:12:49Z</time>
      </trkpt>
      <trkpt lat="44.08366" lon="6.8891">
        <ele>1310.7</ele>
        <time>2022-06-11T14:12:50Z</time>
      </trkpt>
      <trkpt lat="44.08367" lon="6.88892">
        <ele>1309.9</ele>
        <time>2022-06-11T14:12:51Z</time>
      </trkpt>
      <trkpt lat="44.08368" lon="6.88873">
        <ele>1308.2</ele>
        <time>2022-06-11T14:12:52Z</time>
      </trkpt>
      <trkpt lat="44.08369" lon="6.88856">
        <ele>1306.9</ele>
        <time>2022-06-11T14:12:53Z</time>
      </trkpt>
      <trkpt lat="44.08371" lon="6.88839">
        <ele>1306.1</ele>
        <time>2022-06-11T14:12:54Z</time>
      </trkpt>
      <trkpt lat="44.08373" lon="6.88823">
        <ele>1306.1</ele>
        <time>2022-06-11T14:12:55Z</time>
      </trkpt>
      <trkpt lat="44.08377" lon="6.88809">
        <ele>1306.6</ele>
        <time>2022-06-11T14:12:56Z</time>
      </trkpt>
      <trkpt lat="44.0838" lon="6.88796">
        <ele>1306.7</ele>
        <time>2022-06-11T14:12:57Z</time>
      </trkpt>
      <trkpt lat="44.08383" lon="6.88785">
        <ele>1306.8</ele>
        <time>2022-06-11T14:12:58Z</time>
      </trkpt>
      <trkpt lat="44.08383" lon="6.88775">
        <ele>1306.1</ele>
        <time>2022-06-11T14:12:59Z</time>
      </trkpt>
      <trkpt lat="44.08381" lon="6.88767">
        <ele>1304.5</ele>
        <time>2022-06-11T14:13:00Z</time>
      </trkpt>
      <trkpt lat="44.08376" lon="6.88763">
        <ele>1302</ele>
        <time>2022-06-11T14:13:01Z</time>
      </trkpt>
      <trkpt lat="44.0837" lon="6.88765">
        <ele>1299.2</ele>
        <time>2022-06-11T14:13:02Z</time>
      </trkpt>
      <trkpt lat="44.08366" lon="6.88772">
        <ele>1297.2</ele>
        <time>2022-06-11T14:13:03Z</time>
      </trkpt>
      <trkpt lat="44.08363" lon="6.8878">
        <ele>1296.2</ele>
        <time>2022-06-11T14:13:04Z</time>
      </trkpt>
      <trkpt lat="44.08361" lon="6.88789">
        <ele>1296.2</ele>
        <time>2022-06-11T14:13:05Z</time>
      </trkpt>
      <trkpt lat="44.08359" lon="6.88799">
        <ele>1296.6</ele>
        <time>2022-06-11T14:13:06Z</time>
      </trkpt>
      <trkpt lat="44.08357" lon="6.8881">
        <ele>1296.4</ele>
        <time>2022-06-11T14:13:07Z</time>
      </trkpt>
      <trkpt lat="44.08354" lon="6.88822">
        <ele>1295.9</ele>
        <time>2022-06-11T14:13:08Z</time>
      </trkpt>
      <trkpt lat="44.08351" lon="6.88835">
        <ele>1295.5</ele>
        <time>2022-06-11T14:13:09Z</time>
      </trkpt>
      <trkpt lat="44.08347" lon="6.88847">
        <ele>1295</ele>
        <time>2022-06-11T14:13:10Z</time>
      </trkpt>
      <trkpt lat="44.08343" lon="6.8886">
        <ele>1294.6</ele>
        <time>2022-06-11T14:13:11Z</time>
      </trkpt>
      <trkpt lat="44.0834" lon="6.88873">
        <ele>1293.6</ele>
        <time>2022-06-11T14:13:12Z</time>
      </trkpt>
      <trkpt lat="44.08336" lon="6.88887">
        <ele>1292.1</ele>
        <time>2022-06-11T14:13:13Z</time>
      </trkpt>
      <trkpt lat="44.08332" lon="6.88901">
        <ele>1291.1</ele>
        <time>2022-06-11T14:13:14Z</time>
      </trkpt>
      <trkpt lat="44.08329" lon="6.88916">
        <ele>1290.6</ele>
        <time>2022-06-11T14:13:15Z</time>
      </trkpt>
      <trkpt lat="44.08327" lon="6.88932">
        <ele>1289.9</ele>
        <time>2022-06-11T14:13:16Z</time>
      </trkpt>
      <trkpt lat="44.08327" lon="6.88948">
        <ele>1289.7</ele>
        <time>2022-06-11T14:13:17Z</time>
      </trkpt>
      <trkpt lat="44.08328" lon="6.88964">
        <ele>1289.1</ele>
        <time>2022-06-11T14:13:18Z</time>
      </trkpt>
      <trkpt lat="44.0833" lon="6.88979">
        <ele>1288.6</ele>
        <time>2022-06-11T14:13:19Z</time>
      </trkpt>
      <trkpt lat="44.08333" lon="6.88995">
        <ele>1287.7</ele>
        <time>2022-06-11T14:13:20Z</time>
      </trkpt>
      <trkpt lat="44.08337" lon="6.89011">
        <ele>1287.2</ele>
        <time>2022-06-11T14:13:21Z</time>
      </trkpt>
      <trkpt lat="44.0834" lon="6.89027">
        <ele>1287.2</ele>
        <time>2022-06-11T14:13:22Z</time>
      </trkpt>
      <trkpt lat="44.08343" lon="6.89043">
        <ele>1287.2</ele>
        <time>2022-06-11T14:13:23Z</time>
      </trkpt>
      <trkpt lat="44.08343" lon="6.8906">
        <ele>1286</ele>
        <time>2022-06-11T14:13:24Z</time>
      </trkpt>
      <trkpt lat="44.0834" lon="6.89076">
        <ele>1284.7</ele>
        <time>2022-06-11T14:13:25Z</time>
      </trkpt>
      <trkpt lat="44.08335" lon="6.89092">
        <ele>1282.8</ele>
        <time>2022-06-11T14:13:26Z</time>
      </trkpt>
      <trkpt lat="44.0833" lon="6.89108">
        <ele>1281.9</ele>
        <time>2022-06-11T14:13:27Z</time>
      </trkpt>
      <trkpt lat="44.08327" lon="6.89124">
        <ele>1280.2</ele>
        <time>2022-06-11T14:13:28Z</time>
      </trkpt>
      <trkpt lat="44.08325" lon="6.89142">
        <ele>1279</ele>
        <time>2022-06-11T14:13:29Z</time>
      </trkpt>
      <trkpt lat="44.08325" lon="6.89159">
        <ele>1277.4</ele>
        <time>2022-06-11T14:13:30Z</time>
      </trkpt>
      <trkpt lat="44.08326" lon="6.89177">
        <ele>1276.1</ele>
        <time>2022-06-11T14:13:31Z</time>
      </trkpt>
      <trkpt lat="44.08326" lon="6.89194">
        <ele>1274.6</ele>
        <time>2022-06-11T14:13:32Z</time>
      </trkpt>
      <trkpt lat="44.08326" lon="6.8921">
        <ele>1272.7</ele>
        <time>2022-06-11T14:13:33Z</time>
      </trkpt>
      <trkpt lat="44.08329" lon="6.89226">
        <ele>1271.1</ele>
        <time>2022-06-11T14:13:34Z</time>
      </trkpt>
      <trkpt lat="44.08334" lon="6.89241">
        <ele>1269.9</ele>
        <time>2022-06-11T14:13:35Z</time>
      </trkpt>
      <trkpt lat="44.08342" lon="6.89254">
        <ele>1269.8</ele>
        <time>2022-06-11T14:13:36Z</time>
      </trkpt>
      <trkpt lat="44.08349" lon="6.89268">
        <ele>1269.7</ele>
        <time>2022-06-11T14:13:37Z</time>
      </trkpt>
      <trkpt lat="44.08355" lon="6.89283">
        <ele>1269.5</ele>
        <time>2022-06-11T14:13:38Z</time>
      </trkpt>
      <trkpt lat="44.08357" lon="6.893">
        <ele>1269.1</ele>
        <time>2022-06-11T14:13:39Z</time>
      </trkpt>
      <trkpt lat="44.08358" lon="6.89316">
        <ele>1266.4</ele>
        <time>2022-06-11T14:13:40Z</time>
      </trkpt>
      <trkpt lat="44.0836" lon="6.89332">
        <ele>1263.8</ele>
        <time>2022-06-11T14:13:41Z</time>
      </trkpt>
      <trkpt lat="44.08366" lon="6.89347">
        <ele>1261.9</ele>
        <time>2022-06-11T14:13:42Z</time>
      </trkpt>
      <trkpt lat="44.08374" lon="6.8936">
        <ele>1260.5</ele>
        <time>2022-06-11T14:13:43Z</time>
      </trkpt>
      <trkpt lat="44.08382" lon="6.89372">
        <ele>1258.8</ele>
        <time>2022-06-11T14:13:44Z</time>
      </trkpt>
      <trkpt lat="44.0839" lon="6.89382">
        <ele>1258.1</ele>
        <time>2022-06-11T14:13:45Z</time>
      </trkpt>
      <trkpt lat="44.084" lon="6.8939">
        <ele>1256.4</ele>
        <time>2022-06-11T14:13:46Z</time>
      </trkpt>
      <trkpt lat="44.0841" lon="6.89396">
        <ele>1255.1</ele>
        <time>2022-06-11T14:13:47Z</time>
      </trkpt>
      <trkpt lat="44.08421" lon="6.89403">
        <ele>1254.3</ele>
        <time>2022-06-11T14:13:48Z</time>
      </trkpt>
      <trkpt lat="44.08431" lon="6.89411">
        <ele>1254</ele>
        <time>2022-06-11T14:13:49Z</time>
      </trkpt>
      <trkpt lat="44.08441" lon="6.89421">
        <ele>1252.8</ele>
        <time>2022-06-11T14:13:50Z</time>
      </trkpt>
      <trkpt lat="44.08451" lon="6.89431">
        <ele>1252.2</ele>
        <time>2022-06-11T14:13:51Z</time>
      </trkpt>
      <trkpt lat="44.08461" lon="6.89442">
        <ele>1252</ele>
        <time>2022-06-11T14:13:52Z</time>
      </trkpt>
      <trkpt lat="44.0847" lon="6.89452">
        <ele>1252.1</ele>
        <time>2022-06-11T14:13:53Z</time>
      </trkpt>
      <trkpt lat="44.08478" lon="6.89461">
        <ele>1250.9</ele>
        <time>2022-06-11T14:13:54Z</time>
      </trkpt>
      <trkpt lat="44.08486" lon="6.89471">
        <ele>1248.6</ele>
        <time>2022-06-11T14:13:55Z</time>
      </trkpt>
      <trkpt lat="44.08491" lon="6.89482">
        <ele>1248.6</ele>
        <time>2022-06-11T14:13:56Z</time>
      </trkpt>
      <trkpt lat="44.08492" lon="6.89495">
        <ele>1247.5</ele>
        <time>2022-06-11T14:13:57Z</time>
      </trkpt>
      <trkpt lat="44.08489" lon="6.89508">
        <ele>1247.8</ele>
        <time>2022-06-11T14:13:58Z</time>
      </trkpt>
      <trkpt lat="44.08483" lon="6.89518">
        <ele>1248.6</ele>
        <time>2022-06-11T14:13:59Z</time>
      </trkpt>
      <trkpt lat="44.08474" lon="6.89527">
        <ele>1248.2</ele>
        <time>2022-06-11T14:14:00Z</time>
      </trkpt>
      <trkpt lat="44.08464" lon="6.89532">
        <ele>1248.4</ele>
        <time>2022-06-11T14:14:01Z</time>
      </trkpt>
      <trkpt lat="44.08453" lon="6.89536">
        <ele>1247.6</ele>
        <time>2022-06-11T14:14:02Z</time>
      </trkpt>
      <trkpt lat="44.08442" lon="6.8954">
        <ele>1246.2</ele>
        <time>2022-06-11T14:14:03Z</time>
      </trkpt>
      <trkpt lat="44.08431" lon="6.89544">
        <ele>1245.2</ele>
        <time>2022-06-11T14:14:04Z</time>
      </trkpt>
      <trkpt lat="44.08419" lon="6.89548">
        <ele>1244.2</ele>
        <time>2022-06-11T14:14:05Z</time>
      </trkpt>
      <trkpt lat="44.08408" lon="6.89553">
        <ele>1242.3</ele>
        <time>2022-06-11T14:14:06Z</time>
      </trkpt>
      <trkpt lat="44.08397" lon="6.89558">
        <ele>1240.2</ele>
        <time>2022-06-11T14:14:07Z</time>
      </trkpt>
      <trkpt lat="44.08385" lon="6.89564">
        <ele>1239.3</ele>
        <time>2022-06-11T14:14:08Z</time>
      </trkpt>
      <trkpt lat="44.08374" lon="6.89572">
        <ele>1239.1</ele>
        <time>2022-06-11T14:14:09Z</time>
      </trkpt>
      <trkpt lat="44.08363" lon="6.8958">
        <ele>1238.6</ele>
        <time>2022-06-11T14:14:10Z</time>
      </trkpt>
      <trkpt lat="44.08353" lon="6.8959">
        <ele>1237.7</ele>
        <time>2022-06-11T14:14:11Z</time>
      </trkpt>
      <trkpt lat="44.08343" lon="6.89601">
        <ele>1236.7</ele>
        <time>2022-06-11T14:14:12Z</time>
      </trkpt>
      <trkpt lat="44.08333" lon="6.89613">
        <ele>1235.3</ele>
        <time>2022-06-11T14:14:13Z</time>
      </trkpt>
      <trkpt lat="44.08323" lon="6.89624">
        <ele>1233.9</ele>
        <time>2022-06-11T14:14:14Z</time>
      </trkpt>
      <trkpt lat="44.08313" lon="6.89636">
        <ele>1232.4</ele>
        <time>2022-06-11T14:14:15Z</time>
      </trkpt>
      <trkpt lat="44.08304" lon="6.89648">
        <ele>1231.7</ele>
        <time>2022-06-11T14:14:16Z</time>
      </trkpt>
      <trkpt lat="44.08294" lon="6.8966">
        <ele>1231.5</ele>
        <time>2022-06-11T14:14:17Z</time>
      </trkpt>
      <trkpt lat="44.08284" lon="6.89672">
        <ele>1231</ele>
        <time>2022-06-11T14:14:18Z</time>
      </trkpt>
      <trkpt lat="44.08275" lon="6.89685">
        <ele>1230.2</ele>
        <time>2022-06-11T14:14:19Z</time>
      </trkpt>
      <trkpt lat="44.08266" lon="6.89698">
        <ele>1228.8</ele>
        <time>2022-06-11T14:14:20Z</time>
      </trkpt>
      <trkpt lat="44.08257" lon="6.89711">
        <ele>1226.3</ele>
        <time>2022-06-11T14:14:21Z</time>
      </trkpt>
      <trkpt lat="44.08248" lon="6.89724">
        <ele>1223.7</ele>
        <time>2022-06-11T14:14:22Z</time>
      </trkpt>
      <trkpt lat="44.08239" lon="6.89737">
        <ele>1223.1</ele>
        <time>2022-06-11T14:14:23Z</time>
      </trkpt>
      <trkpt lat="44.0823" lon="6.89749">
        <ele>1222</ele>
        <time>2022-06-11T14:14:24Z</time>
      </trkpt>
      <trkpt lat="44.0822" lon="6.89761">
        <ele>1220.1</ele>
        <time>2022-06-11T14:14:25Z</time>
      </trkpt>
      <trkpt lat="44.0821" lon="6.89772">
        <ele>1218.8</ele>
        <time>2022-06-11T14:14:26Z</time>
      </trkpt>
      <trkpt lat="44.082" lon="6.89784">
        <ele>1218.1</ele>
        <time>2022-06-11T14:14:27Z</time>
      </trkpt>
      <trkpt lat="44.08189" lon="6.89795">
        <ele>1216.9</ele>
        <time>2022-06-11T14:14:28Z</time>
      </trkpt>
      <trkpt lat="44.08178" lon="6.89805">
        <ele>1215.5</ele>
        <time>2022-06-11T14:14:29Z</time>
      </trkpt>
      <trkpt lat="44.08166" lon="6.89814">
        <ele>1213.9</ele>
        <time>2022-06-11T14:14:30Z</time>
      </trkpt>
      <trkpt lat="44.08154" lon="6.89822">
        <ele>1212.1</ele>
        <time>2022-06-11T14:14:31Z</time>
      </trkpt>
      <trkpt lat="44.08142" lon="6.8983">
        <ele>1209.5</ele>
        <time>2022-06-11T14:14:32Z</time>
      </trkpt>
      <trkpt lat="44.0813" lon="6.89838">
        <ele>1208.5</ele>
        <time>2022-06-11T14:14:33Z</time>
      </trkpt>
      <trkpt lat="44.08121" lon="6.89846">
        <ele>1208.2</ele>
        <time>2022-06-11T14:14:34Z</time>
      </trkpt>
      <trkpt lat="44.08113" lon="6.89856">
        <ele>1207.9</ele>
        <time>2022-06-11T14:14:35Z</time>
      </trkpt>
      <trkpt lat="44.08108" lon="6.89868">
        <ele>1207</ele>
        <time>2022-06-11T14:14:36Z</time>
      </trkpt>
      <trkpt lat="44.08106" lon="6.8988">
        <ele>1206.1</ele>
        <time>2022-06-11T14:14:37Z</time>
      </trkpt>
      <trkpt lat="44.08106" lon="6.89892">
        <ele>1205.6</ele>
        <time>2022-06-11T14:14:38Z</time>
      </trkpt>
      <trkpt lat="44.08107" lon="6.89902">
        <ele>1204.6</ele>
        <time>2022-06-11T14:14:39Z</time>
      </trkpt>
      <trkpt lat="44.08108" lon="6.8991">
        <ele>1203.7</ele>
        <time>2022-06-11T14:14:40Z</time>
      </trkpt>
      <trkpt lat="44.08106" lon="6.89917">
        <ele>1202.4</ele>
        <time>2022-06-11T14:14:41Z</time>
      </trkpt>
      <trkpt lat="44.08102" lon="6.89921">
        <ele>1200.7</ele>
        <time>2022-06-11T14:14:42Z</time>
      </trkpt>
      <trkpt lat="44.08098" lon="6.89919">
        <ele>1199.3</ele>
        <time>2022-06-11T14:14:43Z</time>
      </trkpt>
      <trkpt lat="44.08094" lon="6.89913">
        <ele>1199</ele>
        <time>2022-06-11T14:14:44Z</time>
      </trkpt>
      <trkpt lat="44.08093" lon="6.89905">
        <ele>1199.5</ele>
        <time>2022-06-11T14:14:45Z</time>
      </trkpt>
      <trkpt lat="44.08092" lon="6.89896">
        <ele>1200.1</ele>
        <time>2022-06-11T14:14:46Z</time>
      </trkpt>
      <trkpt lat="44.08091" lon="6.89887">
        <ele>1200.6</ele>
        <time>2022-06-11T14:14:47Z</time>
      </trkpt>
      <trkpt lat="44.0809" lon="6.89877">
        <ele>1200.3</ele>
        <time>2022-06-11T14:14:48Z</time>
      </trkpt>
      <trkpt lat="44.0809" lon="6.89867">
        <ele>1200.2</ele>
        <time>2022-06-11T14:14:49Z</time>
      </trkpt>
      <trkpt lat="44.0809" lon="6.89856">
        <ele>1199.7</ele>
        <time>2022-06-11T14:14:50Z</time>
      </trkpt>
      <trkpt lat="44.08091" lon="6.89845">
        <ele>1198.8</ele>
        <time>2022-06-11T14:14:51Z</time>
      </trkpt>
      <trkpt lat="44.08092" lon="6.89833">
        <ele>1197.7</ele>
        <time>2022-06-11T14:14:52Z</time>
      </trkpt>
      <trkpt lat="44.08093" lon="6.89821">
        <ele>1196.5</ele>
        <time>2022-06-11T14:14:53Z</time>
      </trkpt>
      <trkpt lat="44.08093" lon="6.89807">
        <ele>1195</ele>
        <time>2022-06-11T14:14:54Z</time>
      </trkpt>
      <trkpt lat="44.08094" lon="6.89793">
        <ele>1194</ele>
        <time>2022-06-11T14:14:55Z</time>
      </trkpt>
      <trkpt lat="44.08093" lon="6.89778">
        <ele>1192.7</ele>
        <time>2022-06-11T14:14:56Z</time>
      </trkpt>
      <trkpt lat="44.08092" lon="6.89762">
        <ele>1191.5</ele>
        <time>2022-06-11T14:14:57Z</time>
      </trkpt>
      <trkpt lat="44.08092" lon="6.89746">
        <ele>1189.9</ele>
        <time>2022-06-11T14:14:58Z</time>
      </trkpt>
      <trkpt lat="44.08093" lon="6.8973">
        <ele>1186.8</ele>
        <time>2022-06-11T14:14:59Z</time>
      </trkpt>
      <trkpt lat="44.08097" lon="6.89716">
        <ele>1185.4</ele>
        <time>2022-06-11T14:15:00Z</time>
      </trkpt>
      <trkpt lat="44.08105" lon="6.89705">
        <ele>1185.7</ele>
        <time>2022-06-11T14:15:01Z</time>
      </trkpt>
      <trkpt lat="44.08114" lon="6.89696">
        <ele>1186.4</ele>
        <time>2022-06-11T14:15:02Z</time>
      </trkpt>
      <trkpt lat="44.08124" lon="6.89687">
        <ele>1186</ele>
        <time>2022-06-11T14:15:03Z</time>
      </trkpt>
      <trkpt lat="44.08134" lon="6.89676">
        <ele>1185.2</ele>
        <time>2022-06-11T14:15:04Z</time>
      </trkpt>
      <trkpt lat="44.08143" lon="6.89665">
        <ele>1184.2</ele>
        <time>2022-06-11T14:15:05Z</time>
      </trkpt>
      <trkpt lat="44.08152" lon="6.89653">
        <ele>1183.3</ele>
        <time>2022-06-11T14:15:06Z</time>
      </trkpt>
      <trkpt lat="44.0816" lon="6.89638">
        <ele>1182.7</ele>
        <time>2022-06-11T14:15:07Z</time>
      </trkpt>
      <trkpt lat="44.08167" lon="6.89623">
        <ele>1181.7</ele>
        <time>2022-06-11T14:15:08Z</time>
      </trkpt>
      <trkpt lat="44.08174" lon="6.89606">
        <ele>1180.4</ele>
        <time>2022-06-11T14:15:09Z</time>
      </trkpt>
      <trkpt lat="44.08181" lon="6.8959">
        <ele>1179.3</ele>
        <time>2022-06-11T14:15:10Z</time>
      </trkpt>
      <trkpt lat="44.08188" lon="6.89573">
        <ele>1178.4</ele>
        <time>2022-06-11T14:15:11Z</time>
      </trkpt>
      <trkpt lat="44.08194" lon="6.89555">
        <ele>1177.9</ele>
        <time>2022-06-11T14:15:12Z</time>
      </trkpt>
      <trkpt lat="44.082" lon="6.89537">
        <ele>1176.7</ele>
        <time>2022-06-11T14:15:13Z</time>
      </trkpt>
      <trkpt lat="44.08204" lon="6.89517">
        <ele>1175.4</ele>
        <time>2022-06-11T14:15:14Z</time>
      </trkpt>
      <trkpt lat="44.08207" lon="6.89498">
        <ele>1174.1</ele>
        <time>2022-06-11T14:15:15Z</time>
      </trkpt>
      <trkpt lat="44.08207" lon="6.89478">
        <ele>1171.9</ele>
        <time>2022-06-11T14:15:16Z</time>
      </trkpt>
      <trkpt lat="44.08206" lon="6.89457">
        <ele>1169.5</ele>
        <time>2022-06-11T14:15:17Z</time>
      </trkpt>
      <trkpt lat="44.08203" lon="6.89437">
        <ele>1167.9</ele>
        <time>2022-06-11T14:15:18Z</time>
      </trkpt>
      <trkpt lat="44.08199" lon="6.89417">
        <ele>1167.3</ele>
        <time>2022-06-11T14:15:19Z</time>
      </trkpt>
      <trkpt lat="44.08194" lon="6.89399">
        <ele>1167.1</ele>
        <time>2022-06-11T14:15:20Z</time>
      </trkpt>
      <trkpt lat="44.08187" lon="6.89383">
        <ele>1166.6</ele>
        <time>2022-06-11T14:15:21Z</time>
      </trkpt>
      <trkpt lat="44.0818" lon="6.89368">
        <ele>1165.7</ele>
        <time>2022-06-11T14:15:22Z</time>
      </trkpt>
      <trkpt lat="44.08171" lon="6.89355">
        <ele>1164.5</ele>
        <time>2022-06-11T14:15:23Z</time>
      </trkpt>
      <trkpt lat="44.08162" lon="6.89343">
        <ele>1163.5</ele>
        <time>2022-06-11T14:15:24Z</time>
      </trkpt>
      <trkpt lat="44.08154" lon="6.89331">
        <ele>1162.7</ele>
        <time>2022-06-11T14:15:25Z</time>
      </trkpt>
      <trkpt lat="44.08149" lon="6.89317">
        <ele>1162.1</ele>
        <time>2022-06-11T14:15:26Z</time>
      </trkpt>
      <trkpt lat="44.08148" lon="6.89301">
        <ele>1162.1</ele>
        <time>2022-06-11T14:15:27Z</time>
      </trkpt>
      <trkpt lat="44.08149" lon="6.89285">
        <ele>1162.4</ele>
        <time>2022-06-11T14:15:28Z</time>
      </trkpt>
      <trkpt lat="44.08152" lon="6.89269">
        <ele>1163.1</ele>
        <time>2022-06-11T14:15:29Z</time>
      </trkpt>
      <trkpt lat="44.08156" lon="6.89253">
        <ele>1163.3</ele>
        <time>2022-06-11T14:15:30Z</time>
      </trkpt>
      <trkpt lat="44.08159" lon="6.89236">
        <ele>1160.4</ele>
        <time>2022-06-11T14:15:31Z</time>
      </trkpt>
      <trkpt lat="44.08159" lon="6.89219">
        <ele>1156.6</ele>
        <time>2022-06-11T14:15:32Z</time>
      </trkpt>
      <trkpt lat="44.08159" lon="6.89202">
        <ele>1156.4</ele>
        <time>2022-06-11T14:15:33Z</time>
      </trkpt>
      <trkpt lat="44.08158" lon="6.89185">
        <ele>1156</ele>
        <time>2022-06-11T14:15:34Z</time>
      </trkpt>
      <trkpt lat="44.08156" lon="6.89167">
        <ele>1155.3</ele>
        <time>2022-06-11T14:15:35Z</time>
      </trkpt>
      <trkpt lat="44.08155" lon="6.89149">
        <ele>1154.4</ele>
        <time>2022-06-11T14:15:36Z</time>
      </trkpt>
      <trkpt lat="44.08154" lon="6.8913">
        <ele>1154.3</ele>
        <time>2022-06-11T14:15:37Z</time>
      </trkpt>
      <trkpt lat="44.08153" lon="6.89112">
        <ele>1154.8</ele>
        <time>2022-06-11T14:15:38Z</time>
      </trkpt>
      <trkpt lat="44.08153" lon="6.89094">
        <ele>1152.9</ele>
        <time>2022-06-11T14:15:39Z</time>
      </trkpt>
      <trkpt lat="44.08153" lon="6.89075">
        <ele>1150.6</ele>
        <time>2022-06-11T14:15:40Z</time>
      </trkpt>
      <trkpt lat="44.08152" lon="6.89056">
        <ele>1147.4</ele>
        <time>2022-06-11T14:15:41Z</time>
      </trkpt>
      <trkpt lat="44.08149" lon="6.89037">
        <ele>1146.8</ele>
        <time>2022-06-11T14:15:42Z</time>
      </trkpt>
      <trkpt lat="44.08145" lon="6.89019">
        <ele>1147.3</ele>
        <time>2022-06-11T14:15:43Z</time>
      </trkpt>
      <trkpt lat="44.08141" lon="6.89001">
        <ele>1148</ele>
        <time>2022-06-11T14:15:44Z</time>
      </trkpt>
      <trkpt lat="44.08136" lon="6.88984">
        <ele>1145.2</ele>
        <time>2022-06-11T14:15:45Z</time>
      </trkpt>
      <trkpt lat="44.08131" lon="6.88967">
        <ele>1142.9</ele>
        <time>2022-06-11T14:15:46Z</time>
      </trkpt>
      <trkpt lat="44.08127" lon="6.88952">
        <ele>1141.7</ele>
        <time>2022-06-11T14:15:47Z</time>
      </trkpt>
      <trkpt lat="44.08122" lon="6.88938">
        <ele>1140.8</ele>
        <time>2022-06-11T14:15:48Z</time>
      </trkpt>
      <trkpt lat="44.08116" lon="6.88926">
        <ele>1139.7</ele>
        <time>2022-06-11T14:15:49Z</time>
      </trkpt>
      <trkpt lat="44.08108" lon="6.88914">
        <ele>1137.7</ele>
        <time>2022-06-11T14:15:50Z</time>
      </trkpt>
      <trkpt lat="44.08098" lon="6.88904">
        <ele>1135.4</ele>
        <time>2022-06-11T14:15:51Z</time>
      </trkpt>
      <trkpt lat="44.08089" lon="6.88894">
        <ele>1133.7</ele>
        <time>2022-06-11T14:15:52Z</time>
      </trkpt>
      <trkpt lat="44.08079" lon="6.88883">
        <ele>1133.6</ele>
        <time>2022-06-11T14:15:53Z</time>
      </trkpt>
      <trkpt lat="44.0807" lon="6.88872">
        <ele>1133.8</ele>
        <time>2022-06-11T14:15:54Z</time>
      </trkpt>
      <trkpt lat="44.0806" lon="6.8886">
        <ele>1133.4</ele>
        <time>2022-06-11T14:15:55Z</time>
      </trkpt>
      <trkpt lat="44.08051" lon="6.8885">
        <ele>1132.3</ele>
        <time>2022-06-11T14:15:56Z</time>
      </trkpt>
      <trkpt lat="44.08042" lon="6.88839">
        <ele>1130.9</ele>
        <time>2022-06-11T14:15:57Z</time>
      </trkpt>
      <trkpt lat="44.08034" lon="6.88828">
        <ele>1129.8</ele>
        <time>2022-06-11T14:15:58Z</time>
      </trkpt>
      <trkpt lat="44.08028" lon="6.88815">
        <ele>1129.1</ele>
        <time>2022-06-11T14:15:59Z</time>
      </trkpt>
      <trkpt lat="44.08025" lon="6.88801">
        <ele>1129.2</ele>
        <time>2022-06-11T14:16:00Z</time>
      </trkpt>
      <trkpt lat="44.08024" lon="6.88785">
        <ele>1128.3</ele>
        <time>2022-06-11T14:16:01Z</time>
      </trkpt>
      <trkpt lat="44.08024" lon="6.88768">
        <ele>1127.7</ele>
        <time>2022-06-11T14:16:02Z</time>
      </trkpt>
      <trkpt lat="44.08024" lon="6.88751">
        <ele>1127.2</ele>
        <time>2022-06-11T14:16:03Z</time>
      </trkpt>
      <trkpt lat="44.08024" lon="6.88734">
        <ele>1126.6</ele>
        <time>2022-06-11T14:16:04Z</time>
      </trkpt>
      <trkpt lat="44.08025" lon="6.88716">
        <ele>1125.8</ele>
        <time>2022-06-11T14:16:05Z</time>
      </trkpt>
      <trkpt lat="44.08026" lon="6.88698">
        <ele>1125.2</ele>
        <time>2022-06-11T14:16:06Z</time>
      </trkpt>
      <trkpt lat="44.08028" lon="6.8868">
        <ele>1123.5</ele>
        <time>2022-06-11T14:16:07Z</time>
      </trkpt>
      <trkpt lat="44.0803" lon="6.88661">
        <ele>1121.8</ele>
        <time>2022-06-11T14:16:08Z</time>
      </trkpt>
      <trkpt lat="44.0803" lon="6.88642">
        <ele>1120</ele>
        <time>2022-06-11T14:16:09Z</time>
      </trkpt>
      <trkpt lat="44.0803" lon="6.88623">
        <ele>1119.1</ele>
        <time>2022-06-11T14:16:10Z</time>
      </trkpt>
      <trkpt lat="44.08031" lon="6.88605">
        <ele>1118.2</ele>
        <time>2022-06-11T14:16:11Z</time>
      </trkpt>
      <trkpt lat="44.08034" lon="6.88588">
        <ele>1116.8</ele>
        <time>2022-06-11T14:16:12Z</time>
      </trkpt>
      <trkpt lat="44.08039" lon="6.88573">
        <ele>1117.6</ele>
        <time>2022-06-11T14:16:13Z</time>
      </trkpt>
      <trkpt lat="44.08044" lon="6.88559">
        <ele>1119.2</ele>
        <time>2022-06-11T14:16:14Z</time>
      </trkpt>
      <trkpt lat="44.08049" lon="6.88546">
        <ele>1119.4</ele>
        <time>2022-06-11T14:16:15Z</time>
      </trkpt>
      <trkpt lat="44.08053" lon="6.88532">
        <ele>1116.9</ele>
        <time>2022-06-11T14:16:16Z</time>
      </trkpt>
      <trkpt lat="44.08053" lon="6.88519">
        <ele>1113.4</ele>
        <time>2022-06-11T14:16:17Z</time>
      </trkpt>
      <trkpt lat="44.0805" lon="6.88505">
        <ele>1109</ele>
        <time>2022-06-11T14:16:18Z</time>
      </trkpt>
      <trkpt lat="44.08044" lon="6.88493">
        <ele>1107.3</ele>
        <time>2022-06-11T14:16:19Z</time>
      </trkpt>
      <trkpt lat="44.08036" lon="6.88482">
        <ele>1106.2</ele>
        <time>2022-06-11T14:16:20Z</time>
      </trkpt>
      <trkpt lat="44.08027" lon="6.88471">
        <ele>1105</ele>
        <time>2022-06-11T14:16:21Z</time>
      </trkpt>
      <trkpt lat="44.08021" lon="6.88457">
        <ele>1104.3</ele>
        <time>2022-06-11T14:16:22Z</time>
      </trkpt>
      <trkpt lat="44.08017" lon="6.88441">
        <ele>1103.8</ele>
        <time>2022-06-11T14:16:23Z</time>
      </trkpt>
      <trkpt lat="44.08014" lon="6.88425">
        <ele>1102.8</ele>
        <time>2022-06-11T14:16:24Z</time>
      </trkpt>
      <trkpt lat="44.08012" lon="6.8841">
        <ele>1102.1</ele>
        <time>2022-06-11T14:16:25Z</time>
      </trkpt>
      <trkpt lat="44.08011" lon="6.88395">
        <ele>1102.3</ele>
        <time>2022-06-11T14:16:26Z</time>
      </trkpt>
      <trkpt lat="44.08013" lon="6.8838">
        <ele>1102.3</ele>
        <time>2022-06-11T14:16:27Z</time>
      </trkpt>
      <trkpt lat="44.08016" lon="6.88367">
        <ele>1102.9</ele>
        <time>2022-06-11T14:16:28Z</time>
      </trkpt>
      <trkpt lat="44.08021" lon="6.88354">
        <ele>1102.7</ele>
        <time>2022-06-11T14:16:29Z</time>
      </trkpt>
      <trkpt lat="44.08028" lon="6.88343">
        <ele>1101.7</ele>
        <time>2022-06-11T14:16:30Z</time>
      </trkpt>
      <trkpt lat="44.08035" lon="6.88332">
        <ele>1102.1</ele>
        <time>2022-06-11T14:16:31Z</time>
      </trkpt>
      <trkpt lat="44.08041" lon="6.88321">
        <ele>1101.7</ele>
        <time>2022-06-11T14:16:32Z</time>
      </trkpt>
      <trkpt lat="44.08048" lon="6.88308">
        <ele>1100.9</ele>
        <time>2022-06-11T14:16:33Z</time>
      </trkpt>
      <trkpt lat="44.08053" lon="6.88294">
        <ele>1098.8</ele>
        <time>2022-06-11T14:16:34Z</time>
      </trkpt>
      <trkpt lat="44.08057" lon="6.8828">
        <ele>1095.1</ele>
        <time>2022-06-11T14:16:35Z</time>
      </trkpt>
      <trkpt lat="44.08059" lon="6.88264">
        <ele>1093.4</ele>
        <time>2022-06-11T14:16:36Z</time>
      </trkpt>
      <trkpt lat="44.08058" lon="6.88247">
        <ele>1090.6</ele>
        <time>2022-06-11T14:16:37Z</time>
      </trkpt>
      <trkpt lat="44.08055" lon="6.8823">
        <ele>1089.2</ele>
        <time>2022-06-11T14:16:38Z</time>
      </trkpt>
      <trkpt lat="44.08053" lon="6.88213">
        <ele>1088</ele>
        <time>2022-06-11T14:16:39Z</time>
      </trkpt>
      <trkpt lat="44.08053" lon="6.88196">
        <ele>1087.4</ele>
        <time>2022-06-11T14:16:40Z</time>
      </trkpt>
      <trkpt lat="44.08056" lon="6.88179">
        <ele>1086</ele>
        <time>2022-06-11T14:16:41Z</time>
      </trkpt>
      <trkpt lat="44.08061" lon="6.88163">
        <ele>1085.9</ele>
        <time>2022-06-11T14:16:42Z</time>
      </trkpt>
      <trkpt lat="44.08066" lon="6.88146">
        <ele>1085.3</ele>
        <time>2022-06-11T14:16:43Z</time>
      </trkpt>
      <trkpt lat="44.0807" lon="6.88129">
        <ele>1084.4</ele>
        <time>2022-06-11T14:16:44Z</time>
      </trkpt>
      <trkpt lat="44.08074" lon="6.88112">
        <ele>1082.4</ele>
        <time>2022-06-11T14:16:45Z</time>
      </trkpt>
      <trkpt lat="44.08076" lon="6.88095">
        <ele>1079.5</ele>
        <time>2022-06-11T14:16:46Z</time>
      </trkpt>
      <trkpt lat="44.08079" lon="6.88079">
        <ele>1077.2</ele>
        <time>2022-06-11T14:16:47Z</time>
      </trkpt>
      <trkpt lat="44.08084" lon="6.88065">
        <ele>1076.5</ele>
        <time>2022-06-11T14:16:48Z</time>
      </trkpt>
      <trkpt lat="44.08091" lon="6.88052">
        <ele>1076.2</ele>
        <time>2022-06-11T14:16:49Z</time>
      </trkpt>
      <trkpt lat="44.081" lon="6.88041">
        <ele>1076.7</ele>
        <time>2022-06-11T14:16:50Z</time>
      </trkpt>
      <trkpt lat="44.0811" lon="6.88032">
        <ele>1077</ele>
        <time>2022-06-11T14:16:51Z</time>
      </trkpt>
      <trkpt lat="44.0812" lon="6.88021">
        <ele>1076.3</ele>
        <time>2022-06-11T14:16:52Z</time>
      </trkpt>
      <trkpt lat="44.08129" lon="6.8801">
        <ele>1075.3</ele>
        <time>2022-06-11T14:16:53Z</time>
      </trkpt>
      <trkpt lat="44.08138" lon="6.87997">
        <ele>1073.4</ele>
        <time>2022-06-11T14:16:54Z</time>
      </trkpt>
      <trkpt lat="44.08146" lon="6.87983">
        <ele>1072.6</ele>
        <time>2022-06-11T14:16:55Z</time>
      </trkpt>
      <trkpt lat="44.08154" lon="6.8797">
        <ele>1071.6</ele>
        <time>2022-06-11T14:16:56Z</time>
      </trkpt>
      <trkpt lat="44.08162" lon="6.87955">
        <ele>1069.2</ele>
        <time>2022-06-11T14:16:57Z</time>
      </trkpt>
      <trkpt lat="44.0817" lon="6.87941">
        <ele>1067.3</ele>
        <time>2022-06-11T14:16:58Z</time>
      </trkpt>
      <trkpt lat="44.0818" lon="6.87929">
        <ele>1067.6</ele>
        <time>2022-06-11T14:16:59Z</time>
      </trkpt>
      <trkpt lat="44.08191" lon="6.87919">
        <ele>1065.8</ele>
        <time>2022-06-11T14:17:00Z</time>
      </trkpt>
      <trkpt lat="44.08202" lon="6.8791">
        <ele>1064.5</ele>
        <time>2022-06-11T14:17:01Z</time>
      </trkpt>
      <trkpt lat="44.08213" lon="6.87902">
        <ele>1063.8</ele>
        <time>2022-06-11T14:17:02Z</time>
      </trkpt>
      <trkpt lat="44.08223" lon="6.87895">
        <ele>1062.5</ele>
        <time>2022-06-11T14:17:03Z</time>
      </trkpt>
      <trkpt lat="44.08233" lon="6.87888">
        <ele>1061</ele>
        <time>2022-06-11T14:17:04Z</time>
      </trkpt>
      <trkpt lat="44.08243" lon="6.87885">
        <ele>1060.5</ele>
        <time>2022-06-11T14:17:05Z</time>
      </trkpt>
      <trkpt lat="44.08253" lon="6.87882">
        <ele>1059.4</ele>
        <time>2022-06-11T14:17:06Z</time>
      </trkpt>
      <trkpt lat="44.08263" lon="6.87881">
        <ele>1057.4</ele>
        <time>2022-06-11T14:17:07Z</time>
      </trkpt>
      <trkpt lat="44.08273" lon="6.8788">
        <ele>1055.6</ele>
        <time>2022-06-11T14:17:08Z</time>
      </trkpt>
      <trkpt lat="44.08281" lon="6.87878">
        <ele>1053.7</ele>
        <time>2022-06-11T14:17:09Z</time>
      </trkpt>
      <trkpt lat="44.08287" lon="6.87872">
        <ele>1051.1</ele>
        <time>2022-06-11T14:17:10Z</time>
      </trkpt>
      <trkpt lat="44.08293" lon="6.87865">
        <ele>1047.8</ele>
        <time>2022-06-11T14:17:11Z</time>
      </trkpt>
      <trkpt lat="44.08297" lon="6.87855">
        <ele>1044</ele>
        <time>2022-06-11T14:17:12Z</time>
      </trkpt>
      <trkpt lat="44.08301" lon="6.87846">
        <ele>1041</ele>
        <time>2022-06-11T14:17:13Z</time>
      </trkpt>
      <trkpt lat="44.08306" lon="6.87836">
        <ele>1039</ele>
        <time>2022-06-11T14:17:14Z</time>
      </trkpt>
      <trkpt lat="44.08311" lon="6.87826">
        <ele>1040.5</ele>
        <time>2022-06-11T14:17:15Z</time>
      </trkpt>
      <trkpt lat="44.08315" lon="6.87816">
        <ele>1042.7</ele>
        <time>2022-06-11T14:17:16Z</time>
      </trkpt>
      <trkpt lat="44.08321" lon="6.87806">
        <ele>1045.3</ele>
        <time>2022-06-11T14:17:17Z</time>
      </trkpt>
      <trkpt lat="44.08326" lon="6.87797">
        <ele>1048.2</ele>
        <time>2022-06-11T14:17:18Z</time>
      </trkpt>
      <trkpt lat="44.08331" lon="6.87789">
        <ele>1050.6</ele>
        <time>2022-06-11T14:17:19Z</time>
      </trkpt>
      <trkpt lat="44.08336" lon="6.87781">
        <ele>1052</ele>
        <time>2022-06-11T14:17:20Z</time>
      </trkpt>
      <trkpt lat="44.08341" lon="6.87772">
        <ele>1052.1</ele>
        <time>2022-06-11T14:17:21Z</time>
      </trkpt>
      <trkpt lat="44.08346" lon="6.87763">
        <ele>1051.1</ele>
        <time>2022-06-11T14:17:22Z</time>
      </trkpt>
      <trkpt lat="44.08352" lon="6.87753">
        <ele>1049.6</ele>
        <time>2022-06-11T14:17:23Z</time>
      </trkpt>
      <trkpt lat="44.08358" lon="6.87742">
        <ele>1048.1</ele>
        <time>2022-06-11T14:17:24Z</time>
      </trkpt>
      <trkpt lat="44.08365" lon="6.87731">
        <ele>1047.4</ele>
        <time>2022-06-11T14:17:25Z</time>
      </trkpt>
      <trkpt lat="44.08371" lon="6.87718">
        <ele>1046.6</ele>
        <time>2022-06-11T14:17:26Z</time>
      </trkpt>
      <trkpt lat="44.08375" lon="6.87703">
        <ele>1044.2</ele>
        <time>2022-06-11T14:17:27Z</time>
      </trkpt>
      <trkpt lat="44.08378" lon="6.87687">
        <ele>1040.4</ele>
        <time>2022-06-11T14:17:28Z</time>
      </trkpt>
      <trkpt lat="44.0838" lon="6.8767">
        <ele>1036.2</ele>
        <time>2022-06-11T14:17:29Z</time>
      </trkpt>
      <trkpt lat="44.0838" lon="6.87652">
        <ele>1034.4</ele>
        <time>2022-06-11T14:17:30Z</time>
      </trkpt>
      <trkpt lat="44.08381" lon="6.87634">
        <ele>1033.3</ele>
        <time>2022-06-11T14:17:31Z</time>
      </trkpt>
      <trkpt lat="44.08383" lon="6.87617">
        <ele>1032.4</ele>
        <time>2022-06-11T14:17:32Z</time>
      </trkpt>
      <trkpt lat="44.08385" lon="6.87601">
        <ele>1032.4</ele>
        <time>2022-06-11T14:17:33Z</time>
      </trkpt>
      <trkpt lat="44.08388" lon="6.87586">
        <ele>1033.6</ele>
        <time>2022-06-11T14:17:34Z</time>
      </trkpt>
      <trkpt lat="44.08393" lon="6.87571">
        <ele>1034.3</ele>
        <time>2022-06-11T14:17:35Z</time>
      </trkpt>
      <trkpt lat="44.08398" lon="6.87557">
        <ele>1035</ele>
        <time>2022-06-11T14:17:36Z</time>
      </trkpt>
      <trkpt lat="44.08405" lon="6.87543">
        <ele>1033.3</ele>
        <time>2022-06-11T14:17:37Z</time>
      </trkpt>
      <trkpt lat="44.08411" lon="6.87529">
        <ele>1030.6</ele>
        <time>2022-06-11T14:17:38Z</time>
      </trkpt>
      <trkpt lat="44.08417" lon="6.87517">
        <ele>1027.9</ele>
        <time>2022-06-11T14:17:39Z</time>
      </trkpt>
      <trkpt lat="44.08425" lon="6.87508">
        <ele>1025.3</ele>
        <time>2022-06-11T14:17:40Z</time>
      </trkpt>
      <trkpt lat="44.08434" lon="6.87503">
        <ele>1024.8</ele>
        <time>2022-06-11T14:17:41Z</time>
      </trkpt>
      <trkpt lat="44.08444" lon="6.875">
        <ele>1025.6</ele>
        <time>2022-06-11T14:17:42Z</time>
      </trkpt>
      <trkpt lat="44.08454" lon="6.87496">
        <ele>1028.7</ele>
        <time>2022-06-11T14:17:43Z</time>
      </trkpt>
      <trkpt lat="44.08463" lon="6.87489">
        <ele>1030.1</ele>
        <time>2022-06-11T14:17:44Z</time>
      </trkpt>
      <trkpt lat="44.08472" lon="6.8748">
        <ele>1029.8</ele>
        <time>2022-06-11T14:17:45Z</time>
      </trkpt>
      <trkpt lat="44.08478" lon="6.87468">
        <ele>1030.7</ele>
        <time>2022-06-11T14:17:46Z</time>
      </trkpt>
      <trkpt lat="44.08483" lon="6.87454">
        <ele>1030.8</ele>
        <time>2022-06-11T14:17:47Z</time>
      </trkpt>
      <trkpt lat="44.08484" lon="6.87438">
        <ele>1028.4</ele>
        <time>2022-06-11T14:17:48Z</time>
      </trkpt>
      <trkpt lat="44.08486" lon="6.87423">
        <ele>1025.8</ele>
        <time>2022-06-11T14:17:49Z</time>
      </trkpt>
      <trkpt lat="44.0849" lon="6.8741">
        <ele>1023.4</ele>
        <time>2022-06-11T14:17:50Z</time>
      </trkpt>
      <trkpt lat="44.08496" lon="6.87398">
        <ele>1021</ele>
        <time>2022-06-11T14:17:51Z</time>
      </trkpt>
      <trkpt lat="44.08502" lon="6.87389">
        <ele>1019.5</ele>
        <time>2022-06-11T14:17:52Z</time>
      </trkpt>
      <trkpt lat="44.08509" lon="6.87379">
        <ele>1020.9</ele>
        <time>2022-06-11T14:17:53Z</time>
      </trkpt>
      <trkpt lat="44.08513" lon="6.87367">
        <ele>1022.3</ele>
        <time>2022-06-11T14:17:54Z</time>
      </trkpt>
      <trkpt lat="44.08514" lon="6.87355">
        <ele>1024.4</ele>
        <time>2022-06-11T14:17:55Z</time>
      </trkpt>
      <trkpt lat="44.08512" lon="6.87343">
        <ele>1024.9</ele>
        <time>2022-06-11T14:17:56Z</time>
      </trkpt>
      <trkpt lat="44.08508" lon="6.8733">
        <ele>1021.4</ele>
        <time>2022-06-11T14:17:57Z</time>
      </trkpt>
      <trkpt lat="44.08504" lon="6.87316">
        <ele>1020</ele>
        <time>2022-06-11T14:17:58Z</time>
      </trkpt>
      <trkpt lat="44.08503" lon="6.87302">
        <ele>1020.5</ele>
        <time>2022-06-11T14:17:59Z</time>
      </trkpt>
      <trkpt lat="44.08506" lon="6.87288">
        <ele>1018.7</ele>
        <time>2022-06-11T14:18:00Z</time>
      </trkpt>
      <trkpt lat="44.08509" lon="6.87275">
        <ele>1018.2</ele>
        <time>2022-06-11T14:18:01Z</time>
      </trkpt>
      <trkpt lat="44.08512" lon="6.87261">
        <ele>1017.5</ele>
        <time>2022-06-11T14:18:02Z</time>
      </trkpt>
      <trkpt lat="44.08513" lon="6.87246">
        <ele>1016.2</ele>
        <time>2022-06-11T14:18:03Z</time>
      </trkpt>
      <trkpt lat="44.08512" lon="6.87231">
        <ele>1018.2</ele>
        <time>2022-06-11T14:18:04Z</time>
      </trkpt>
      <trkpt lat="44.08512" lon="6.87215">
        <ele>1017.7</ele>
        <time>2022-06-11T14:18:05Z</time>
      </trkpt>
      <trkpt lat="44.08514" lon="6.872">
        <ele>1013.7</ele>
        <time>2022-06-11T14:18:06Z</time>
      </trkpt>
      <trkpt lat="44.08518" lon="6.87186">
        <ele>1011.2</ele>
        <time>2022-06-11T14:18:07Z</time>
      </trkpt>
      <trkpt lat="44.08521" lon="6.87171">
        <ele>1009.1</ele>
        <time>2022-06-11T14:18:08Z</time>
      </trkpt>
      <trkpt lat="44.08521" lon="6.87155">
        <ele>1008.7</ele>
        <time>2022-06-11T14:18:09Z</time>
      </trkpt>
      <trkpt lat="44.08519" lon="6.8714">
        <ele>1007.9</ele>
        <time>2022-06-11T14:18:10Z</time>
      </trkpt>
      <trkpt lat="44.08516" lon="6.87124">
        <ele>1008.3</ele>
        <time>2022-06-11T14:18:11Z</time>
      </trkpt>
      <trkpt lat="44.08513" lon="6.87108">
        <ele>1007.3</ele>
        <time>2022-06-11T14:18:12Z</time>
      </trkpt>
      <trkpt lat="44.08512" lon="6.87091">
        <ele>1006.2</ele>
        <time>2022-06-11T14:18:13Z</time>
      </trkpt>
      <trkpt lat="44.08513" lon="6.87074">
        <ele>1005.2</ele>
        <time>2022-06-11T14:18:14Z</time>
      </trkpt>
      <trkpt lat="44.08515" lon="6.87058">
        <ele>1002.9</ele>
        <time>2022-06-11T14:18:15Z</time>
      </trkpt>
      <trkpt lat="44.08516" lon="6.87042">
        <ele>1001.6</ele>
        <time>2022-06-11T14:18:16Z</time>
      </trkpt>
      <trkpt lat="44.08516" lon="6.87026">
        <ele>999.6</ele>
        <time>2022-06-11T14:18:17Z</time>
      </trkpt>
      <trkpt lat="44.08514" lon="6.8701">
        <ele>998.2</ele>
        <time>2022-06-11T14:18:18Z</time>
      </trkpt>
      <trkpt lat="44.08512" lon="6.86994">
        <ele>996.7</ele>
        <time>2022-06-11T14:18:19Z</time>
      </trkpt>
      <trkpt lat="44.0851" lon="6.86977">
        <ele>995.4</ele>
        <time>2022-06-11T14:18:20Z</time>
      </trkpt>
      <trkpt lat="44.08508" lon="6.8696">
        <ele>993.4</ele>
        <time>2022-06-11T14:18:21Z</time>
      </trkpt>
      <trkpt lat="44.08506" lon="6.86943">
        <ele>991.3</ele>
        <time>2022-06-11T14:18:22Z</time>
      </trkpt>
      <trkpt lat="44.08503" lon="6.86925">
        <ele>990.5</ele>
        <time>2022-06-11T14:18:23Z</time>
      </trkpt>
      <trkpt lat="44.08501" lon="6.86908">
        <ele>989.4</ele>
        <time>2022-06-11T14:18:24Z</time>
      </trkpt>
      <trkpt lat="44.08498" lon="6.8689">
        <ele>987.4</ele>
        <time>2022-06-11T14:18:25Z</time>
      </trkpt>
      <trkpt lat="44.08494" lon="6.86872">
        <ele>984.7</ele>
        <time>2022-06-11T14:18:26Z</time>
      </trkpt>
      <trkpt lat="44.08489" lon="6.86854">
        <ele>984.1</ele>
        <time>2022-06-11T14:18:27Z</time>
      </trkpt>
      <trkpt lat="44.08483" lon="6.86837">
        <ele>984.8</ele>
        <time>2022-06-11T14:18:28Z</time>
      </trkpt>
      <trkpt lat="44.08477" lon="6.8682">
        <ele>983.8</ele>
        <time>2022-06-11T14:18:29Z</time>
      </trkpt>
      <trkpt lat="44.08471" lon="6.86803">
        <ele>981.8</ele>
        <time>2022-06-11T14:18:30Z</time>
      </trkpt>
      <trkpt lat="44.08466" lon="6.86785">
        <ele>980.9</ele>
        <time>2022-06-11T14:18:31Z</time>
      </trkpt>
      <trkpt lat="44.08462" lon="6.86767">
        <ele>979.2</ele>
        <time>2022-06-11T14:18:32Z</time>
      </trkpt>
      <trkpt lat="44.08457" lon="6.86749">
        <ele>977.6</ele>
        <time>2022-06-11T14:18:33Z</time>
      </trkpt>
      <trkpt lat="44.08452" lon="6.86731">
        <ele>977.3</ele>
        <time>2022-06-11T14:18:34Z</time>
      </trkpt>
      <trkpt lat="44.08448" lon="6.86713">
        <ele>976.6</ele>
        <time>2022-06-11T14:18:35Z</time>
      </trkpt>
      <trkpt lat="44.08443" lon="6.86697">
        <ele>975.6</ele>
        <time>2022-06-11T14:18:36Z</time>
      </trkpt>
      <trkpt lat="44.08439" lon="6.8668">
        <ele>975.5</ele>
        <time>2022-06-11T14:18:37Z</time>
      </trkpt>
      <trkpt lat="44.08435" lon="6.86664">
        <ele>975.2</ele>
        <time>2022-06-11T14:18:38Z</time>
      </trkpt>
      <trkpt lat="44.08433" lon="6.86648">
        <ele>974.1</ele>
        <time>2022-06-11T14:18:39Z</time>
      </trkpt>
      <trkpt lat="44.08432" lon="6.8663">
        <ele>972.8</ele>
        <time>2022-06-11T14:18:40Z</time>
      </trkpt>
      <trkpt lat="44.08432" lon="6.86613">
        <ele>971.4</ele>
        <time>2022-06-11T14:18:41Z</time>
      </trkpt>
      <trkpt lat="44.08432" lon="6.86596">
        <ele>971</ele>
        <time>2022-06-11T14:18:42Z</time>
      </trkpt>
      <trkpt lat="44.08433" lon="6.86578">
        <ele>970.2</ele>
        <time>2022-06-11T14:18:43Z</time>
      </trkpt>
      <trkpt lat="44.08434" lon="6.8656">
        <ele>967.9</ele>
        <time>2022-06-11T14:18:44Z</time>
      </trkpt>
      <trkpt lat="44.08435" lon="6.86542">
        <ele>966.2</ele>
        <time>2022-06-11T14:18:45Z</time>
      </trkpt>
      <trkpt lat="44.08435" lon="6.86523">
        <ele>964.5</ele>
        <time>2022-06-11T14:18:46Z</time>
      </trkpt>
      <trkpt lat="44.08434" lon="6.86505">
        <ele>963.8</ele>
        <time>2022-06-11T14:18:47Z</time>
      </trkpt>
      <trkpt lat="44.08433" lon="6.86486">
        <ele>963.7</ele>
        <time>2022-06-11T14:18:48Z</time>
      </trkpt>
      <trkpt lat="44.08432" lon="6.86467">
        <ele>963.6</ele>
        <time>2022-06-11T14:18:49Z</time>
      </trkpt>
      <trkpt lat="44.0843" lon="6.86448">
        <ele>963</ele>
        <time>2022-06-11T14:18:50Z</time>
      </trkpt>
      <trkpt lat="44.08429" lon="6.86429">
        <ele>961.7</ele>
        <time>2022-06-11T14:18:51Z</time>
      </trkpt>
      <trkpt lat="44.08429" lon="6.8641">
        <ele>960.4</ele>
        <time>2022-06-11T14:18:52Z</time>
      </trkpt>
      <trkpt lat="44.08429" lon="6.86393">
        <ele>958.5</ele>
        <time>2022-06-11T14:18:53Z</time>
      </trkpt>
      <trkpt lat="44.08429" lon="6.86377">
        <ele>957.9</ele>
        <time>2022-06-11T14:18:54Z</time>
      </trkpt>
      <trkpt lat="44.08428" lon="6.86361">
        <ele>957.1</ele>
        <time>2022-06-11T14:18:55Z</time>
      </trkpt>
      <trkpt lat="44.08425" lon="6.86346">
        <ele>956.7</ele>
        <time>2022-06-11T14:18:56Z</time>
      </trkpt>
      <trkpt lat="44.0842" lon="6.86331">
        <ele>954.9</ele>
        <time>2022-06-11T14:18:57Z</time>
      </trkpt>
      <trkpt lat="44.08414" lon="6.86317">
        <ele>953.6</ele>
        <time>2022-06-11T14:18:58Z</time>
      </trkpt>
      <trkpt lat="44.08408" lon="6.86303">
        <ele>952.5</ele>
        <time>2022-06-11T14:18:59Z</time>
      </trkpt>
      <trkpt lat="44.08402" lon="6.86288">
        <ele>952.8</ele>
        <time>2022-06-11T14:19:00Z</time>
      </trkpt>
      <trkpt lat="44.08396" lon="6.86273">
        <ele>953</ele>
        <time>2022-06-11T14:19:01Z</time>
      </trkpt>
      <trkpt lat="44.08392" lon="6.86258">
        <ele>951.2</ele>
        <time>2022-06-11T14:19:02Z</time>
      </trkpt>
      <trkpt lat="44.08387" lon="6.86243">
        <ele>950.6</ele>
        <time>2022-06-11T14:19:03Z</time>
      </trkpt>
      <trkpt lat="44.08382" lon="6.86227">
        <ele>951</ele>
        <time>2022-06-11T14:19:04Z</time>
      </trkpt>
      <trkpt lat="44.08377" lon="6.86211">
        <ele>949.4</ele>
        <time>2022-06-11T14:19:05Z</time>
      </trkpt>
      <trkpt lat="44.08372" lon="6.86196">
        <ele>947.4</ele>
        <time>2022-06-11T14:19:06Z</time>
      </trkpt>
      <trkpt lat="44.08367" lon="6.8618">
        <ele>945.3</ele>
        <time>2022-06-11T14:19:07Z</time>
      </trkpt>
      <trkpt lat="44.08363" lon="6.86167">
        <ele>943.7</ele>
        <time>2022-06-11T14:19:08Z</time>
      </trkpt>
      <trkpt lat="44.08359" lon="6.86154">
        <ele>943.6</ele>
        <time>2022-06-11T14:19:09Z</time>
      </trkpt>
      <trkpt lat="44.08356" lon="6.86143">
        <ele>943.4</ele>
        <time>2022-06-11T14:19:10Z</time>
      </trkpt>
      <trkpt lat="44.08353" lon="6.86132">
        <ele>941.6</ele>
        <time>2022-06-11T14:19:11Z</time>
      </trkpt>
      <trkpt lat="44.08351" lon="6.86122">
        <ele>939.9</ele>
        <time>2022-06-11T14:19:12Z</time>
      </trkpt>
      <trkpt lat="44.08351" lon="6.86112">
        <ele>940.2</ele>
        <time>2022-06-11T14:19:13Z</time>
      </trkpt>
      <trkpt lat="44.08353" lon="6.86103">
        <ele>938.1</ele>
        <time>2022-06-11T14:19:14Z</time>
      </trkpt>
      <trkpt lat="44.08356" lon="6.86094">
        <ele>936.8</ele>
        <time>2022-06-11T14:19:15Z</time>
      </trkpt>
      <trkpt lat="44.0836" lon="6.86085">
        <ele>935.8</ele>
        <time>2022-06-11T14:19:16Z</time>
      </trkpt>
      <trkpt lat="44.08364" lon="6.86076">
        <ele>935.4</ele>
        <time>2022-06-11T14:19:17Z</time>
      </trkpt>
      <trkpt lat="44.08368" lon="6.86067">
        <ele>935</ele>
        <time>2022-06-11T14:19:18Z</time>
      </trkpt>
      <trkpt lat="44.08372" lon="6.86058">
        <ele>933.9</ele>
        <time>2022-06-11T14:19:19Z</time>
      </trkpt>
      <trkpt lat="44.08377" lon="6.86048">
        <ele>932.7</ele>
        <time>2022-06-11T14:19:20Z</time>
      </trkpt>
      <trkpt lat="44.08383" lon="6.86038">
        <ele>931.6</ele>
        <time>2022-06-11T14:19:21Z</time>
      </trkpt>
      <trkpt lat="44.08388" lon="6.86028">
        <ele>930.5</ele>
        <time>2022-06-11T14:19:22Z</time>
      </trkpt>
      <trkpt lat="44.08395" lon="6.86019">
        <ele>929.4</ele>
        <time>2022-06-11T14:19:23Z</time>
      </trkpt>
      <trkpt lat="44.08403" lon="6.86013">
        <ele>928.7</ele>
        <time>2022-06-11T14:19:24Z</time>
      </trkpt>
      <trkpt lat="44.08412" lon="6.86008">
        <ele>929</ele>
        <time>2022-06-11T14:19:25Z</time>
      </trkpt>
      <trkpt lat="44.08422" lon="6.86005">
        <ele>928.6</ele>
        <time>2022-06-11T14:19:26Z</time>
      </trkpt>
      <trkpt lat="44.08432" lon="6.86002">
        <ele>927.8</ele>
        <time>2022-06-11T14:19:27Z</time>
      </trkpt>
      <trkpt lat="44.08443" lon="6.85998">
        <ele>926.3</ele>
        <time>2022-06-11T14:19:28Z</time>
      </trkpt>
      <trkpt lat="44.08452" lon="6.85989">
        <ele>927.9</ele>
        <time>2022-06-11T14:19:29Z</time>
      </trkpt>
      <trkpt lat="44.08461" lon="6.85978">
        <ele>928.1</ele>
        <time>2022-06-11T14:19:30Z</time>
      </trkpt>
      <trkpt lat="44.08469" lon="6.85967">
        <ele>927.5</ele>
        <time>2022-06-11T14:19:31Z</time>
      </trkpt>
      <trkpt lat="44.0848" lon="6.85959">
        <ele>924.7</ele>
        <time>2022-06-11T14:19:32Z</time>
      </trkpt>
      <trkpt lat="44.08491" lon="6.8595">
        <ele>920.6</ele>
        <time>2022-06-11T14:19:33Z</time>
      </trkpt>
      <trkpt lat="44.08502" lon="6.85943">
        <ele>917.7</ele>
        <time>2022-06-11T14:19:34Z</time>
      </trkpt>
      <trkpt lat="44.08513" lon="6.85933">
        <ele>918.1</ele>
        <time>2022-06-11T14:19:35Z</time>
      </trkpt>
      <trkpt lat="44.08523" lon="6.85925">
        <ele>919</ele>
        <time>2022-06-11T14:19:36Z</time>
      </trkpt>
      <trkpt lat="44.08535" lon="6.85919">
        <ele>918</ele>
        <time>2022-06-11T14:19:37Z</time>
      </trkpt>
      <trkpt lat="44.08547" lon="6.85915">
        <ele>916.3</ele>
        <time>2022-06-11T14:19:38Z</time>
      </trkpt>
      <trkpt lat="44.0856" lon="6.85912">
        <ele>915.3</ele>
        <time>2022-06-11T14:19:39Z</time>
      </trkpt>
      <trkpt lat="44.08573" lon="6.85907">
        <ele>914.4</ele>
        <time>2022-06-11T14:19:40Z</time>
      </trkpt>
      <trkpt lat="44.08585" lon="6.85901">
        <ele>912.9</ele>
        <time>2022-06-11T14:19:41Z</time>
      </trkpt>
      <trkpt lat="44.08597" lon="6.85893">
        <ele>911.7</ele>
        <time>2022-06-11T14:19:42Z</time>
      </trkpt>
      <trkpt lat="44.08609" lon="6.85885">
        <ele>910.7</ele>
        <time>2022-06-11T14:19:43Z</time>
      </trkpt>
      <trkpt lat="44.08621" lon="6.85877">
        <ele>909.6</ele>
        <time>2022-06-11T14:19:44Z</time>
      </trkpt>
      <trkpt lat="44.08632" lon="6.85867">
        <ele>908</ele>
        <time>2022-06-11T14:19:45Z</time>
      </trkpt>
      <trkpt lat="44.08643" lon="6.85856">
        <ele>905.9</ele>
        <time>2022-06-11T14:19:46Z</time>
      </trkpt>
      <trkpt lat="44.08653" lon="6.85844">
        <ele>904.2</ele>
        <time>2022-06-11T14:19:47Z</time>
      </trkpt>
      <trkpt lat="44.08663" lon="6.85831">
        <ele>903.4</ele>
        <time>2022-06-11T14:19:48Z</time>
      </trkpt>
      <trkpt lat="44.08672" lon="6.85819">
        <ele>902.9</ele>
        <time>2022-06-11T14:19:49Z</time>
      </trkpt>
      <trkpt lat="44.0868" lon="6.85807">
        <ele>903</ele>
        <time>2022-06-11T14:19:50Z</time>
      </trkpt>
      <trkpt lat="44.08689" lon="6.85796">
        <ele>902.3</ele>
        <time>2022-06-11T14:19:51Z</time>
      </trkpt>
      <trkpt lat="44.08697" lon="6.85787">
        <ele>901.5</ele>
        <time>2022-06-11T14:19:52Z</time>
      </trkpt>
      <trkpt lat="44.08705" lon="6.85779">
        <ele>900.3</ele>
        <time>2022-06-11T14:19:53Z</time>
      </trkpt>
      <trkpt lat="44.08713" lon="6.85775">
        <ele>899.2</ele>
        <time>2022-06-11T14:19:54Z</time>
      </trkpt>
      <trkpt lat="44.08723" lon="6.85773">
        <ele>898.5</ele>
        <time>2022-06-11T14:19:55Z</time>
      </trkpt>
      <trkpt lat="44.08733" lon="6.85774">
        <ele>897</ele>
        <time>2022-06-11T14:19:56Z</time>
      </trkpt>
      <trkpt lat="44.08743" lon="6.85777">
        <ele>895.8</ele>
        <time>2022-06-11T14:19:57Z</time>
      </trkpt>
      <trkpt lat="44.08754" lon="6.85778">
        <ele>894.6</ele>
        <time>2022-06-11T14:19:58Z</time>
      </trkpt>
      <trkpt lat="44.08765" lon="6.85778">
        <ele>893.5</ele>
        <time>2022-06-11T14:19:59Z</time>
      </trkpt>
      <trkpt lat="44.08777" lon="6.85779">
        <ele>892.6</ele>
        <time>2022-06-11T14:20:00Z</time>
      </trkpt>
      <trkpt lat="44.08789" lon="6.8578">
        <ele>891.9</ele>
        <time>2022-06-11T14:20:01Z</time>
      </trkpt>
      <trkpt lat="44.088" lon="6.85781">
        <ele>891.1</ele>
        <time>2022-06-11T14:20:02Z</time>
      </trkpt>
      <trkpt lat="44.08812" lon="6.85782">
        <ele>890</ele>
        <time>2022-06-11T14:20:03Z</time>
      </trkpt>
      <trkpt lat="44.08824" lon="6.85782">
        <ele>888.5</ele>
        <time>2022-06-11T14:20:04Z</time>
      </trkpt>
      <trkpt lat="44.08836" lon="6.85783">
        <ele>887.3</ele>
        <time>2022-06-11T14:20:05Z</time>
      </trkpt>
      <trkpt lat="44.08847" lon="6.85784">
        <ele>886.5</ele>
        <time>2022-06-11T14:20:06Z</time>
      </trkpt>
      <trkpt lat="44.08856" lon="6.85786">
        <ele>886.2</ele>
        <time>2022-06-11T14:20:07Z</time>
      </trkpt>
      <trkpt lat="44.08866" lon="6.85791">
        <ele>885.3</ele>
        <time>2022-06-11T14:20:08Z</time>
      </trkpt>
      <trkpt lat="44.08874" lon="6.85798">
        <ele>884</ele>
        <time>2022-06-11T14:20:09Z</time>
      </trkpt>
      <trkpt lat="44.08882" lon="6.85808">
        <ele>883.2</ele>
        <time>2022-06-11T14:20:10Z</time>
      </trkpt>
      <trkpt lat="44.08889" lon="6.85818">
        <ele>883.5</ele>
        <time>2022-06-11T14:20:11Z</time>
      </trkpt>
      <trkpt lat="44.08896" lon="6.85828">
        <ele>884.1</ele>
        <time>2022-06-11T14:20:12Z</time>
      </trkpt>
      <trkpt lat="44.08903" lon="6.85837">
        <ele>884.4</ele>
        <time>2022-06-11T14:20:13Z</time>
      </trkpt>
      <trkpt lat="44.08908" lon="6.85844">
        <ele>884.3</ele>
        <time>2022-06-11T14:20:14Z</time>
      </trkpt>
      <trkpt lat="44.08913" lon="6.85848">
        <ele>883.8</ele>
        <time>2022-06-11T14:20:15Z</time>
      </trkpt>
      <trkpt lat="44.08917" lon="6.85846">
        <ele>882.3</ele>
        <time>2022-06-11T14:20:16Z</time>
      </trkpt>
      <trkpt lat="44.0892" lon="6.85841">
        <ele>879.8</ele>
        <time>2022-06-11T14:20:17Z</time>
      </trkpt>
      <trkpt lat="44.08921" lon="6.85832">
        <ele>877.5</ele>
        <time>2022-06-11T14:20:18Z</time>
      </trkpt>
      <trkpt lat="44.08918" lon="6.85826">
        <ele>876.8</ele>
        <time>2022-06-11T14:20:19Z</time>
      </trkpt>
      <trkpt lat="44.08913" lon="6.85821">
        <ele>877</ele>
        <time>2022-06-11T14:20:20Z</time>
      </trkpt>
      <trkpt lat="44.08908" lon="6.85815">
        <ele>877</ele>
        <time>2022-06-11T14:20:21Z</time>
      </trkpt>
      <trkpt lat="44.08903" lon="6.85807">
        <ele>876.3</ele>
        <time>2022-06-11T14:20:22Z</time>
      </trkpt>
      <trkpt lat="44.089" lon="6.85798">
        <ele>875.5</ele>
        <time>2022-06-11T14:20:23Z</time>
      </trkpt>
      <trkpt lat="44.08897" lon="6.85787">
        <ele>874.5</ele>
        <time>2022-06-11T14:20:24Z</time>
      </trkpt>
      <trkpt lat="44.08894" lon="6.85775">
        <ele>873.6</ele>
        <time>2022-06-11T14:20:25Z</time>
      </trkpt>
      <trkpt lat="44.08891" lon="6.85764">
        <ele>873.1</ele>
        <time>2022-06-11T14:20:26Z</time>
      </trkpt>
      <trkpt lat="44.08886" lon="6.85753">
        <ele>873.1</ele>
        <time>2022-06-11T14:20:27Z</time>
      </trkpt>
      <trkpt lat="44.08879" lon="6.85745">
        <ele>871.9</ele>
        <time>2022-06-11T14:20:28Z</time>
      </trkpt>
      <trkpt lat="44.0887" lon="6.85739">
        <ele>870.7</ele>
        <time>2022-06-11T14:20:29Z</time>
      </trkpt>
      <trkpt lat="44.0886" lon="6.85735">
        <ele>869.9</ele>
        <time>2022-06-11T14:20:30Z</time>
      </trkpt>
      <trkpt lat="44.0885" lon="6.8573">
        <ele>868.9</ele>
        <time>2022-06-11T14:20:31Z</time>
      </trkpt>
      <trkpt lat="44.0884" lon="6.85722">
        <ele>867.9</ele>
        <time>2022-06-11T14:20:32Z</time>
      </trkpt>
      <trkpt lat="44.08832" lon="6.85712">
        <ele>865.5</ele>
        <time>2022-06-11T14:20:33Z</time>
      </trkpt>
      <trkpt lat="44.08824" lon="6.85702">
        <ele>863</ele>
        <time>2022-06-11T14:20:34Z</time>
      </trkpt>
      <trkpt lat="44.08815" lon="6.8569">
        <ele>862.2</ele>
        <time>2022-06-11T14:20:35Z</time>
      </trkpt>
      <trkpt lat="44.08806" lon="6.85679">
        <ele>862.7</ele>
        <time>2022-06-11T14:20:36Z</time>
      </trkpt>
      <trkpt lat="44.08797" lon="6.85668">
        <ele>861.8</ele>
        <time>2022-06-11T14:20:37Z</time>
      </trkpt>
      <trkpt lat="44.08787" lon="6.85658">
        <ele>861.4</ele>
        <time>2022-06-11T14:20:38Z</time>
      </trkpt>
      <trkpt lat="44.08776" lon="6.85649">
        <ele>861.8</ele>
        <time>2022-06-11T14:20:39Z</time>
      </trkpt>
      <trkpt lat="44.08764" lon="6.85642">
        <ele>861</ele>
        <time>2022-06-11T14:20:40Z</time>
      </trkpt>
      <trkpt lat="44.08752" lon="6.85635">
        <ele>859.7</ele>
        <time>2022-06-11T14:20:41Z</time>
      </trkpt>
      <trkpt lat="44.08739" lon="6.85629">
        <ele>859.3</ele>
        <time>2022-06-11T14:20:42Z</time>
      </trkpt>
      <trkpt lat="44.08726" lon="6.85625">
        <ele>859.5</ele>
        <time>2022-06-11T14:20:43Z</time>
      </trkpt>
      <trkpt lat="44.08713" lon="6.85623">
        <ele>858.2</ele>
        <time>2022-06-11T14:20:44Z</time>
      </trkpt>
      <trkpt lat="44.087" lon="6.85622">
        <ele>856.3</ele>
        <time>2022-06-11T14:20:45Z</time>
      </trkpt>
      <trkpt lat="44.08686" lon="6.85619">
        <ele>854.9</ele>
        <time>2022-06-11T14:20:46Z</time>
      </trkpt>
      <trkpt lat="44.08673" lon="6.85615">
        <ele>853.8</ele>
        <time>2022-06-11T14:20:47Z</time>
      </trkpt>
      <trkpt lat="44.08662" lon="6.85612">
        <ele>853</ele>
        <time>2022-06-11T14:20:48Z</time>
      </trkpt>
      <trkpt lat="44.08651" lon="6.85612">
        <ele>852.6</ele>
        <time>2022-06-11T14:20:49Z</time>
      </trkpt>
      <trkpt lat="44.0864" lon="6.85614">
        <ele>853</ele>
        <time>2022-06-11T14:20:50Z</time>
      </trkpt>
      <trkpt lat="44.08629" lon="6.85618">
        <ele>851.2</ele>
        <time>2022-06-11T14:20:51Z</time>
      </trkpt>
      <trkpt lat="44.08619" lon="6.85623">
        <ele>849.7</ele>
        <time>2022-06-11T14:20:52Z</time>
      </trkpt>
      <trkpt lat="44.08609" lon="6.85629">
        <ele>848.8</ele>
        <time>2022-06-11T14:20:53Z</time>
      </trkpt>
      <trkpt lat="44.086" lon="6.85636">
        <ele>848.7</ele>
        <time>2022-06-11T14:20:54Z</time>
      </trkpt>
      <trkpt lat="44.08591" lon="6.85645">
        <ele>848.9</ele>
        <time>2022-06-11T14:20:55Z</time>
      </trkpt>
      <trkpt lat="44.08583" lon="6.85655">
        <ele>848.8</ele>
        <time>2022-06-11T14:20:56Z</time>
      </trkpt>
      <trkpt lat="44.08575" lon="6.85665">
        <ele>846.7</ele>
        <time>2022-06-11T14:20:57Z</time>
      </trkpt>
      <trkpt lat="44.08567" lon="6.85675">
        <ele>845.3</ele>
        <time>2022-06-11T14:20:58Z</time>
      </trkpt>
      <trkpt lat="44.08558" lon="6.85685">
        <ele>843.8</ele>
        <time>2022-06-11T14:20:59Z</time>
      </trkpt>
      <trkpt lat="44.08549" lon="6.85693">
        <ele>842.8</ele>
        <time>2022-06-11T14:21:00Z</time>
      </trkpt>
      <trkpt lat="44.0854" lon="6.85702">
        <ele>842.6</ele>
        <time>2022-06-11T14:21:01Z</time>
      </trkpt>
      <trkpt lat="44.08532" lon="6.85713">
        <ele>842.7</ele>
        <time>2022-06-11T14:21:02Z</time>
      </trkpt>
      <trkpt lat="44.08526" lon="6.85726">
        <ele>842.9</ele>
        <time>2022-06-11T14:21:03Z</time>
      </trkpt>
      <trkpt lat="44.0852" lon="6.85738">
        <ele>842.9</ele>
        <time>2022-06-11T14:21:04Z</time>
      </trkpt>
      <trkpt lat="44.08515" lon="6.85751">
        <ele>842.5</ele>
        <time>2022-06-11T14:21:05Z</time>
      </trkpt>
      <trkpt lat="44.08509" lon="6.85764">
        <ele>841.6</ele>
        <time>2022-06-11T14:21:06Z</time>
      </trkpt>
      <trkpt lat="44.08503" lon="6.85777">
        <ele>840.4</ele>
        <time>2022-06-11T14:21:07Z</time>
      </trkpt>
      <trkpt lat="44.08497" lon="6.85789">
        <ele>839.5</ele>
        <time>2022-06-11T14:21:08Z</time>
      </trkpt>
      <trkpt lat="44.08492" lon="6.858">
        <ele>840.2</ele>
        <time>2022-06-11T14:21:09Z</time>
      </trkpt>
      <trkpt lat="44.08488" lon="6.85811">
        <ele>841.8</ele>
        <time>2022-06-11T14:21:10Z</time>
      </trkpt>
      <trkpt lat="44.08485" lon="6.8582">
        <ele>841.9</ele>
        <time>2022-06-11T14:21:11Z</time>
      </trkpt>
      <trkpt lat="44.0848" lon="6.85826">
        <ele>839.5</ele>
        <time>2022-06-11T14:21:12Z</time>
      </trkpt>
      <trkpt lat="44.08475" lon="6.85828">
        <ele>835.3</ele>
        <time>2022-06-11T14:21:13Z</time>
      </trkpt>
      <trkpt lat="44.0847" lon="6.85824">
        <ele>831.1</ele>
        <time>2022-06-11T14:21:14Z</time>
      </trkpt>
      <trkpt lat="44.08469" lon="6.85817">
        <ele>829.7</ele>
        <time>2022-06-11T14:21:15Z</time>
      </trkpt>
      <trkpt lat="44.08472" lon="6.8581">
        <ele>830.3</ele>
        <time>2022-06-11T14:21:16Z</time>
      </trkpt>
      <trkpt lat="44.08476" lon="6.85804">
        <ele>831.7</ele>
        <time>2022-06-11T14:21:17Z</time>
      </trkpt>
      <trkpt lat="44.08481" lon="6.85798">
        <ele>831.2</ele>
        <time>2022-06-11T14:21:18Z</time>
      </trkpt>
      <trkpt lat="44.08486" lon="6.8579">
        <ele>830.9</ele>
        <time>2022-06-11T14:21:19Z</time>
      </trkpt>
      <trkpt lat="44.0849" lon="6.85781">
        <ele>830.6</ele>
        <time>2022-06-11T14:21:20Z</time>
      </trkpt>
      <trkpt lat="44.08495" lon="6.8577">
        <ele>830.7</ele>
        <time>2022-06-11T14:21:21Z</time>
      </trkpt>
      <trkpt lat="44.08498" lon="6.85759">
        <ele>829.9</ele>
        <time>2022-06-11T14:21:22Z</time>
      </trkpt>
      <trkpt lat="44.08501" lon="6.85747">
        <ele>828.8</ele>
        <time>2022-06-11T14:21:23Z</time>
      </trkpt>
      <trkpt lat="44.08505" lon="6.85734">
        <ele>827.6</ele>
        <time>2022-06-11T14:21:24Z</time>
      </trkpt>
      <trkpt lat="44.08508" lon="6.8572">
        <ele>826.1</ele>
        <time>2022-06-11T14:21:25Z</time>
      </trkpt>
      <trkpt lat="44.08512" lon="6.85707">
        <ele>825.4</ele>
        <time>2022-06-11T14:21:26Z</time>
      </trkpt>
      <trkpt lat="44.08517" lon="6.85693">
        <ele>825.2</ele>
        <time>2022-06-11T14:21:27Z</time>
      </trkpt>
      <trkpt lat="44.08524" lon="6.85681">
        <ele>824</ele>
        <time>2022-06-11T14:21:28Z</time>
      </trkpt>
      <trkpt lat="44.08532" lon="6.85668">
        <ele>822</ele>
        <time>2022-06-11T14:21:29Z</time>
      </trkpt>
      <trkpt lat="44.08539" lon="6.85654">
        <ele>820.9</ele>
        <time>2022-06-11T14:21:30Z</time>
      </trkpt>
      <trkpt lat="44.08545" lon="6.85639">
        <ele>819.4</ele>
        <time>2022-06-11T14:21:31Z</time>
      </trkpt>
      <trkpt lat="44.08552" lon="6.85623">
        <ele>818.9</ele>
        <time>2022-06-11T14:21:32Z</time>
      </trkpt>
      <trkpt lat="44.08559" lon="6.85608">
        <ele>818.2</ele>
        <time>2022-06-11T14:21:33Z</time>
      </trkpt>
      <trkpt lat="44.08566" lon="6.85592">
        <ele>815.2</ele>
        <time>2022-06-11T14:21:34Z</time>
      </trkpt>
      <trkpt lat="44.08574" lon="6.85579">
        <ele>812.9</ele>
        <time>2022-06-11T14:21:35Z</time>
      </trkpt>
      <trkpt lat="44.08581" lon="6.85565">
        <ele>813.3</ele>
        <time>2022-06-11T14:21:36Z</time>
      </trkpt>
      <trkpt lat="44.08588" lon="6.85553">
        <ele>813.7</ele>
        <time>2022-06-11T14:21:37Z</time>
      </trkpt>
      <trkpt lat="44.08595" lon="6.85542">
        <ele>812.7</ele>
        <time>2022-06-11T14:21:38Z</time>
      </trkpt>
      <trkpt lat="44.08602" lon="6.85531">
        <ele>811.5</ele>
        <time>2022-06-11T14:21:39Z</time>
      </trkpt>
      <trkpt lat="44.08608" lon="6.85521">
        <ele>811.2</ele>
        <time>2022-06-11T14:21:40Z</time>
      </trkpt>
      <trkpt lat="44.08616" lon="6.85512">
        <ele>810.9</ele>
        <time>2022-06-11T14:21:41Z</time>
      </trkpt>
      <trkpt lat="44.08623" lon="6.85504">
        <ele>809.8</ele>
        <time>2022-06-11T14:21:42Z</time>
      </trkpt>
      <trkpt lat="44.08632" lon="6.85498">
        <ele>808.8</ele>
        <time>2022-06-11T14:21:43Z</time>
      </trkpt>
      <trkpt lat="44.08641" lon="6.85492">
        <ele>808.4</ele>
        <time>2022-06-11T14:21:44Z</time>
      </trkpt>
      <trkpt lat="44.08651" lon="6.85488">
        <ele>808</ele>
        <time>2022-06-11T14:21:45Z</time>
      </trkpt>
      <trkpt lat="44.08661" lon="6.85485">
        <ele>807.5</ele>
        <time>2022-06-11T14:21:46Z</time>
      </trkpt>
      <trkpt lat="44.08672" lon="6.85482">
        <ele>806.6</ele>
        <time>2022-06-11T14:21:47Z</time>
      </trkpt>
      <trkpt lat="44.08682" lon="6.85478">
        <ele>805.3</ele>
        <time>2022-06-11T14:21:48Z</time>
      </trkpt>
      <trkpt lat="44.08692" lon="6.85474">
        <ele>803.6</ele>
        <time>2022-06-11T14:21:49Z</time>
      </trkpt>
      <trkpt lat="44.087" lon="6.85467">
        <ele>802.9</ele>
        <time>2022-06-11T14:21:50Z</time>
      </trkpt>
      <trkpt lat="44.08707" lon="6.85457">
        <ele>802.3</ele>
        <time>2022-06-11T14:21:51Z</time>
      </trkpt>
      <trkpt lat="44.08713" lon="6.85445">
        <ele>801</ele>
        <time>2022-06-11T14:21:52Z</time>
      </trkpt>
      <trkpt lat="44.08717" lon="6.85432">
        <ele>800.6</ele>
        <time>2022-06-11T14:21:53Z</time>
      </trkpt>
      <trkpt lat="44.0872" lon="6.85418">
        <ele>800.4</ele>
        <time>2022-06-11T14:21:54Z</time>
      </trkpt>
      <trkpt lat="44.08724" lon="6.85405">
        <ele>799.3</ele>
        <time>2022-06-11T14:21:55Z</time>
      </trkpt>
      <trkpt lat="44.0873" lon="6.85394">
        <ele>798.8</ele>
        <time>2022-06-11T14:21:56Z</time>
      </trkpt>
      <trkpt lat="44.08737" lon="6.85384">
        <ele>798.5</ele>
        <time>2022-06-11T14:21:57Z</time>
      </trkpt>
      <trkpt lat="44.08745" lon="6.85376">
        <ele>797.6</ele>
        <time>2022-06-11T14:21:58Z</time>
      </trkpt>
      <trkpt lat="44.08754" lon="6.85371">
        <ele>796.5</ele>
        <time>2022-06-11T14:21:59Z</time>
      </trkpt>
      <trkpt lat="44.08763" lon="6.85369">
        <ele>795.2</ele>
        <time>2022-06-11T14:22:00Z</time>
      </trkpt>
      <trkpt lat="44.08772" lon="6.8537">
        <ele>795.2</ele>
        <time>2022-06-11T14:22:01Z</time>
      </trkpt>
      <trkpt lat="44.08779" lon="6.85374">
        <ele>796.3</ele>
        <time>2022-06-11T14:22:02Z</time>
      </trkpt>
      <trkpt lat="44.08785" lon="6.85381">
        <ele>797</ele>
        <time>2022-06-11T14:22:03Z</time>
      </trkpt>
      <trkpt lat="44.0879" lon="6.85387">
        <ele>797.1</ele>
        <time>2022-06-11T14:22:04Z</time>
      </trkpt>
      <trkpt lat="44.08796" lon="6.85392">
        <ele>795.1</ele>
        <time>2022-06-11T14:22:05Z</time>
      </trkpt>
      <trkpt lat="44.08802" lon="6.85394">
        <ele>792.5</ele>
        <time>2022-06-11T14:22:06Z</time>
      </trkpt>
      <trkpt lat="44.08808" lon="6.85394">
        <ele>790.3</ele>
        <time>2022-06-11T14:22:07Z</time>
      </trkpt>
      <trkpt lat="44.08814" lon="6.85393">
        <ele>789.1</ele>
        <time>2022-06-11T14:22:08Z</time>
      </trkpt>
      <trkpt lat="44.0882" lon="6.85391">
        <ele>787.8</ele>
        <time>2022-06-11T14:22:09Z</time>
      </trkpt>
      <trkpt lat="44.08826" lon="6.8539">
        <ele>786.6</ele>
        <time>2022-06-11T14:22:10Z</time>
      </trkpt>
      <trkpt lat="44.08832" lon="6.85388">
        <ele>785.1</ele>
        <time>2022-06-11T14:22:11Z</time>
      </trkpt>
      <trkpt lat="44.08838" lon="6.85386">
        <ele>785.5</ele>
        <time>2022-06-11T14:22:12Z</time>
      </trkpt>
      <trkpt lat="44.08844" lon="6.85384">
        <ele>786.6</ele>
        <time>2022-06-11T14:22:13Z</time>
      </trkpt>
      <trkpt lat="44.0885" lon="6.85383">
        <ele>787.7</ele>
        <time>2022-06-11T14:22:14Z</time>
      </trkpt>
      <trkpt lat="44.08856" lon="6.85382">
        <ele>788.9</ele>
        <time>2022-06-11T14:22:15Z</time>
      </trkpt>
      <trkpt lat="44.08862" lon="6.85381">
        <ele>790</ele>
        <time>2022-06-11T14:22:16Z</time>
      </trkpt>
      <trkpt lat="44.08867" lon="6.8538">
        <ele>790.4</ele>
        <time>2022-06-11T14:22:17Z</time>
      </trkpt>
      <trkpt lat="44.08873" lon="6.85378">
        <ele>790.7</ele>
        <time>2022-06-11T14:22:18Z</time>
      </trkpt>
      <trkpt lat="44.08879" lon="6.85377">
        <ele>791</ele>
        <time>2022-06-11T14:22:19Z</time>
      </trkpt>
      <trkpt lat="44.08885" lon="6.85376">
        <ele>791.3</ele>
        <time>2022-06-11T14:22:20Z</time>
      </trkpt>
      <trkpt lat="44.0889" lon="6.85375">
        <ele>791.4</ele>
        <time>2022-06-11T14:22:21Z</time>
      </trkpt>
      <trkpt lat="44.08896" lon="6.85374">
        <ele>791.2</ele>
        <time>2022-06-11T14:22:22Z</time>
      </trkpt>
      <trkpt lat="44.08901" lon="6.85372">
        <ele>791</ele>
        <time>2022-06-11T14:22:23Z</time>
      </trkpt>
      <trkpt lat="44.08907" lon="6.85371">
        <ele>790.7</ele>
        <time>2022-06-11T14:22:24Z</time>
      </trkpt>
      <trkpt lat="44.08913" lon="6.85369">
        <ele>790.4</ele>
        <time>2022-06-11T14:22:25Z</time>
      </trkpt>
      <trkpt lat="44.08919" lon="6.85367">
        <ele>790.1</ele>
        <time>2022-06-11T14:22:26Z</time>
      </trkpt>
      <trkpt lat="44.08925" lon="6.85365">
        <ele>789.8</ele>
        <time>2022-06-11T14:22:27Z</time>
      </trkpt>
      <trkpt lat="44.08932" lon="6.85364">
        <ele>789.6</ele>
        <time>2022-06-11T14:22:28Z</time>
      </trkpt>
      <trkpt lat="44.08939" lon="6.85362">
        <ele>789.2</ele>
        <time>2022-06-11T14:22:29Z</time>
      </trkpt>
      <trkpt lat="44.08945" lon="6.85359">
        <ele>789</ele>
        <time>2022-06-11T14:22:30Z</time>
      </trkpt>
      <trkpt lat="44.08952" lon="6.85357">
        <ele>789</ele>
        <time>2022-06-11T14:22:31Z</time>
      </trkpt>
      <trkpt lat="44.08958" lon="6.85356">
        <ele>788.9</ele>
        <time>2022-06-11T14:22:32Z</time>
      </trkpt>
      <trkpt lat="44.08963" lon="6.85356">
        <ele>788.9</ele>
        <time>2022-06-11T14:22:33Z</time>
      </trkpt>
      <trkpt lat="44.08968" lon="6.85355">
        <ele>788.8</ele>
        <time>2022-06-11T14:22:34Z</time>
      </trkpt>
      <trkpt lat="44.08974" lon="6.85354">
        <ele>788.7</ele>
        <time>2022-06-11T14:22:35Z</time>
      </trkpt>
      <trkpt lat="44.08979" lon="6.85352">
        <ele>788.6</ele>
        <time>2022-06-11T14:22:36Z</time>
      </trkpt>
      <trkpt lat="44.08985" lon="6.8535">
        <ele>788.4</ele>
        <time>2022-06-11T14:22:37Z</time>
      </trkpt>
      <trkpt lat="44.0899" lon="6.85348">
        <ele>788.2</ele>
        <time>2022-06-11T14:22:38Z</time>
      </trkpt>
      <trkpt lat="44.08996" lon="6.85346">
        <ele>788</ele>
        <time>2022-06-11T14:22:39Z</time>
      </trkpt>
      <trkpt lat="44.09002" lon="6.85345">
        <ele>787.8</ele>
        <time>2022-06-11T14:22:40Z</time>
      </trkpt>
      <trkpt lat="44.09008" lon="6.85344">
        <ele>787.6</ele>
        <time>2022-06-11T14:22:41Z</time>
      </trkpt>
      <trkpt lat="44.09014" lon="6.85343">
        <ele>787.5</ele>
        <time>2022-06-11T14:22:42Z</time>
      </trkpt>
      <trkpt lat="44.0902" lon="6.85341">
        <ele>787.4</ele>
        <time>2022-06-11T14:22:43Z</time>
      </trkpt>
      <trkpt lat="44.09026" lon="6.8534">
        <ele>787.2</ele>
        <time>2022-06-11T14:22:44Z</time>
      </trkpt>
      <trkpt lat="44.09031" lon="6.85337">
        <ele>787.3</ele>
        <time>2022-06-11T14:22:45Z</time>
      </trkpt>
      <trkpt lat="44.09036" lon="6.85335">
        <ele>787.3</ele>
        <time>2022-06-11T14:22:46Z</time>
      </trkpt>
      <trkpt lat="44.09041" lon="6.85332">
        <ele>787.5</ele>
        <time>2022-06-11T14:22:47Z</time>
      </trkpt>
      <trkpt lat="44.09045" lon="6.85329">
        <ele>787.7</ele>
        <time>2022-06-11T14:22:48Z</time>
      </trkpt>
      <trkpt lat="44.0905" lon="6.85327">
        <ele>787.8</ele>
        <time>2022-06-11T14:22:49Z</time>
      </trkpt>
      <trkpt lat="44.09054" lon="6.85324">
        <ele>788</ele>
        <time>2022-06-11T14:22:50Z</time>
      </trkpt>
      <trkpt lat="44.09059" lon="6.85322">
        <ele>788.1</ele>
        <time>2022-06-11T14:22:51Z</time>
      </trkpt>
      <trkpt lat="44.09064" lon="6.85319">
        <ele>788.3</ele>
        <time>2022-06-11T14:22:52Z</time>
      </trkpt>
      <trkpt lat="44.09069" lon="6.85317">
        <ele>788.5</ele>
        <time>2022-06-11T14:22:53Z</time>
      </trkpt>
      <trkpt lat="44.09074" lon="6.85315">
        <ele>788.7</ele>
        <time>2022-06-11T14:22:54Z</time>
      </trkpt>
      <trkpt lat="44.09079" lon="6.85313">
        <ele>788.8</ele>
        <time>2022-06-11T14:22:55Z</time>
      </trkpt>
      <trkpt lat="44.09083" lon="6.8531">
        <ele>789</ele>
        <time>2022-06-11T14:22:56Z</time>
      </trkpt>
      <trkpt lat="44.09088" lon="6.85307">
        <ele>789.2</ele>
        <time>2022-06-11T14:22:57Z</time>
      </trkpt>
      <trkpt lat="44.09093" lon="6.85305">
        <ele>789.3</ele>
        <time>2022-06-11T14:22:58Z</time>
      </trkpt>
      <trkpt lat="44.09099" lon="6.85302">
        <ele>789.5</ele>
        <time>2022-06-11T14:22:59Z</time>
      </trkpt>
      <trkpt lat="44.09104" lon="6.85299">
        <ele>789.7</ele>
        <time>2022-06-11T14:23:00Z</time>
      </trkpt>
      <trkpt lat="44.09109" lon="6.85297">
        <ele>789.9</ele>
        <time>2022-06-11T14:23:01Z</time>
      </trkpt>
      <trkpt lat="44.09114" lon="6.85294">
        <ele>790</ele>
        <time>2022-06-11T14:23:02Z</time>
      </trkpt>
      <trkpt lat="44.09119" lon="6.85291">
        <ele>790.1</ele>
        <time>2022-06-11T14:23:03Z</time>
      </trkpt>
      <trkpt lat="44.09124" lon="6.85288">
        <ele>790.3</ele>
        <time>2022-06-11T14:23:04Z</time>
      </trkpt>
      <trkpt lat="44.09129" lon="6.85285">
        <ele>790.5</ele>
        <time>2022-06-11T14:23:05Z</time>
      </trkpt>
      <trkpt lat="44.09134" lon="6.85283">
        <ele>790.7</ele>
        <time>2022-06-11T14:23:06Z</time>
      </trkpt>
      <trkpt lat="44.09139" lon="6.85281">
        <ele>790.9</ele>
        <time>2022-06-11T14:23:07Z</time>
      </trkpt>
      <trkpt lat="44.09145" lon="6.85279">
        <ele>791</ele>
        <time>2022-06-11T14:23:08Z</time>
      </trkpt>
      <trkpt lat="44.0915" lon="6.85276">
        <ele>790.9</ele>
        <time>2022-06-11T14:23:09Z</time>
      </trkpt>
      <trkpt lat="44.09155" lon="6.85274">
        <ele>790.9</ele>
        <time>2022-06-11T14:23:10Z</time>
      </trkpt>
      <trkpt lat="44.0916" lon="6.85272">
        <ele>790.9</ele>
        <time>2022-06-11T14:23:11Z</time>
      </trkpt>
      <trkpt lat="44.09165" lon="6.85269">
        <ele>790.9</ele>
        <time>2022-06-11T14:23:12Z</time>
      </trkpt>
      <trkpt lat="44.0917" lon="6.85266">
        <ele>791</ele>
        <time>2022-06-11T14:23:13Z</time>
      </trkpt>
      <trkpt lat="44.09175" lon="6.85264">
        <ele>791.1</ele>
        <time>2022-06-11T14:23:14Z</time>
      </trkpt>
      <trkpt lat="44.0918" lon="6.85261">
        <ele>791.3</ele>
        <time>2022-06-11T14:23:15Z</time>
      </trkpt>
      <trkpt lat="44.09184" lon="6.85259">
        <ele>791.4</ele>
        <time>2022-06-11T14:23:16Z</time>
      </trkpt>
      <trkpt lat="44.09189" lon="6.85257">
        <ele>791.6</ele>
        <time>2022-06-11T14:23:17Z</time>
      </trkpt>
      <trkpt lat="44.09193" lon="6.85254">
        <ele>791.8</ele>
        <time>2022-06-11T14:23:18Z</time>
      </trkpt>
      <trkpt lat="44.09198" lon="6.85252">
        <ele>791.9</ele>
        <time>2022-06-11T14:23:19Z</time>
      </trkpt>
      <trkpt lat="44.09202" lon="6.85249">
        <ele>792</ele>
        <time>2022-06-11T14:23:20Z</time>
      </trkpt>
      <trkpt lat="44.09206" lon="6.85247">
        <ele>792</ele>
        <time>2022-06-11T14:23:21Z</time>
      </trkpt>
      <trkpt lat="44.09211" lon="6.85244">
        <ele>792</ele>
        <time>2022-06-11T14:23:22Z</time>
      </trkpt>
      <trkpt lat="44.09215" lon="6.85242">
        <ele>792.1</ele>
        <time>2022-06-11T14:23:23Z</time>
      </trkpt>
      <trkpt lat="44.09219" lon="6.8524">
        <ele>792.3</ele>
        <time>2022-06-11T14:23:24Z</time>
      </trkpt>
      <trkpt lat="44.09224" lon="6.85238">
        <ele>792.6</ele>
        <time>2022-06-11T14:23:25Z</time>
      </trkpt>
      <trkpt lat="44.09228" lon="6.85236">
        <ele>793</ele>
        <time>2022-06-11T14:23:26Z</time>
      </trkpt>
      <trkpt lat="44.09232" lon="6.85234">
        <ele>793.4</ele>
        <time>2022-06-11T14:23:27Z</time>
      </trkpt>
      <trkpt lat="44.09236" lon="6.85232">
        <ele>793.8</ele>
        <time>2022-06-11T14:23:28Z</time>
      </trkpt>
      <trkpt lat="44.0924" lon="6.8523">
        <ele>794.2</ele>
        <time>2022-06-11T14:23:29Z</time>
      </trkpt>
      <trkpt lat="44.09244" lon="6.85228">
        <ele>794.5</ele>
        <time>2022-06-11T14:23:30Z</time>
      </trkpt>
      <trkpt lat="44.09248" lon="6.85227">
        <ele>794.8</ele>
        <time>2022-06-11T14:23:31Z</time>
      </trkpt>
      <trkpt lat="44.09252" lon="6.85226">
        <ele>795</ele>
        <time>2022-06-11T14:23:32Z</time>
      </trkpt>
      <trkpt lat="44.09256" lon="6.85226">
        <ele>795</ele>
        <time>2022-06-11T14:23:33Z</time>
      </trkpt>
      <trkpt lat="44.09259" lon="6.85226">
        <ele>795.1</ele>
        <time>2022-06-11T14:23:34Z</time>
      </trkpt>
      <trkpt lat="44.09263" lon="6.85226">
        <ele>795.1</ele>
        <time>2022-06-11T14:23:35Z</time>
      </trkpt>
      <trkpt lat="44.09266" lon="6.85227">
        <ele>795.2</ele>
        <time>2022-06-11T14:23:36Z</time>
      </trkpt>
      <trkpt lat="44.09269" lon="6.85229">
        <ele>795.3</ele>
        <time>2022-06-11T14:23:37Z</time>
      </trkpt>
      <trkpt lat="44.09272" lon="6.8523">
        <ele>795.5</ele>
        <time>2022-06-11T14:23:38Z</time>
      </trkpt>
      <trkpt lat="44.09275" lon="6.85232">
        <ele>795.6</ele>
        <time>2022-06-11T14:23:39Z</time>
      </trkpt>
      <trkpt lat="44.09278" lon="6.85233">
        <ele>795.8</ele>
        <time>2022-06-11T14:23:40Z</time>
      </trkpt>
      <trkpt lat="44.0928" lon="6.85235">
        <ele>795.7</ele>
        <time>2022-06-11T14:23:41Z</time>
      </trkpt>
      <trkpt lat="44.09283" lon="6.85237">
        <ele>795.7</ele>
        <time>2022-06-11T14:23:42Z</time>
      </trkpt>
      <trkpt lat="44.09285" lon="6.85238">
        <ele>795.7</ele>
        <time>2022-06-11T14:23:43Z</time>
      </trkpt>
      <trkpt lat="44.09288" lon="6.8524">
        <ele>795.8</ele>
        <time>2022-06-11T14:23:44Z</time>
      </trkpt>
      <trkpt lat="44.0929" lon="6.85241">
        <ele>796</ele>
        <time>2022-06-11T14:23:45Z</time>
      </trkpt>
      <trkpt lat="44.09293" lon="6.85243">
        <ele>796.1</ele>
        <time>2022-06-11T14:23:46Z</time>
      </trkpt>
      <trkpt lat="44.09296" lon="6.85244">
        <ele>796.3</ele>
        <time>2022-06-11T14:23:47Z</time>
      </trkpt>
      <trkpt lat="44.09298" lon="6.85245">
        <ele>796.5</ele>
        <time>2022-06-11T14:23:48Z</time>
      </trkpt>
      <trkpt lat="44.09301" lon="6.85246">
        <ele>796.9</ele>
        <time>2022-06-11T14:23:49Z</time>
      </trkpt>
      <trkpt lat="44.09303" lon="6.85248">
        <ele>797.4</ele>
        <time>2022-06-11T14:23:50Z</time>
      </trkpt>
      <trkpt lat="44.09306" lon="6.8525">
        <ele>798.1</ele>
        <time>2022-06-11T14:23:51Z</time>
      </trkpt>
      <trkpt lat="44.09309" lon="6.85252">
        <ele>798.7</ele>
        <time>2022-06-11T14:23:52Z</time>
      </trkpt>
      <trkpt lat="44.09312" lon="6.85253">
        <ele>799.5</ele>
        <time>2022-06-11T14:23:53Z</time>
      </trkpt>
      <trkpt lat="44.09315" lon="6.85254">
        <ele>800.2</ele>
        <time>2022-06-11T14:23:54Z</time>
      </trkpt>
      <trkpt lat="44.09318" lon="6.85255">
        <ele>800.8</ele>
        <time>2022-06-11T14:23:55Z</time>
      </trkpt>
      <trkpt lat="44.09321" lon="6.85256">
        <ele>801.7</ele>
        <time>2022-06-11T14:23:56Z</time>
      </trkpt>
      <trkpt lat="44.09324" lon="6.85256">
        <ele>802.4</ele>
        <time>2022-06-11T14:23:57Z</time>
      </trkpt>
      <trkpt lat="44.09327" lon="6.85256">
        <ele>802.9</ele>
        <time>2022-06-11T14:23:58Z</time>
      </trkpt>
      <trkpt lat="44.0933" lon="6.85256">
        <ele>803.4</ele>
        <time>2022-06-11T14:23:59Z</time>
      </trkpt>
      <trkpt lat="44.09333" lon="6.85256">
        <ele>803.8</ele>
        <time>2022-06-11T14:24:00Z</time>
      </trkpt>
      <trkpt lat="44.09336" lon="6.85256">
        <ele>804.7</ele>
        <time>2022-06-11T14:24:01Z</time>
      </trkpt>
      <trkpt lat="44.0934" lon="6.85256">
        <ele>805.7</ele>
        <time>2022-06-11T14:24:02Z</time>
      </trkpt>
      <trkpt lat="44.09343" lon="6.85256">
        <ele>805.9</ele>
        <time>2022-06-11T14:24:03Z</time>
      </trkpt>
      <trkpt lat="44.09346" lon="6.85255">
        <ele>806.3</ele>
        <time>2022-06-11T14:24:04Z</time>
      </trkpt>
      <trkpt lat="44.09349" lon="6.85255">
        <ele>806.7</ele>
        <time>2022-06-11T14:24:05Z</time>
      </trkpt>
      <trkpt lat="44.09352" lon="6.85254">
        <ele>807.2</ele>
        <time>2022-06-11T14:24:06Z</time>
      </trkpt>
      <trkpt lat="44.09355" lon="6.85254">
        <ele>807.6</ele>
        <time>2022-06-11T14:24:07Z</time>
      </trkpt>
      <trkpt lat="44.09358" lon="6.85254">
        <ele>808.3</ele>
        <time>2022-06-11T14:24:08Z</time>
      </trkpt>
      <trkpt lat="44.09362" lon="6.85254">
        <ele>809.4</ele>
        <time>2022-06-11T14:24:09Z</time>
      </trkpt>
      <trkpt lat="44.09365" lon="6.85254">
        <ele>811.5</ele>
        <time>2022-06-11T14:24:10Z</time>
      </trkpt>
      <trkpt lat="44.09368" lon="6.85254">
        <ele>813.9</ele>
        <time>2022-06-11T14:24:11Z</time>
      </trkpt>
      <trkpt lat="44.09371" lon="6.85254">
        <ele>816.1</ele>
        <time>2022-06-11T14:24:12Z</time>
      </trkpt>
      <trkpt lat="44.09374" lon="6.85255">
        <ele>818.7</ele>
        <time>2022-06-11T14:24:13Z</time>
      </trkpt>
      <trkpt lat="44.09376" lon="6.85255">
        <ele>820.8</ele>
        <time>2022-06-11T14:24:14Z</time>
      </trkpt>
      <trkpt lat="44.09378" lon="6.85256">
        <ele>822.7</ele>
        <time>2022-06-11T14:24:15Z</time>
      </trkpt>
      <trkpt lat="44.09382" lon="6.85256">
        <ele>825.4</ele>
        <time>2022-06-11T14:24:16Z</time>
      </trkpt>
      <trkpt lat="44.09386" lon="6.85256">
        <ele>827.8</ele>
        <time>2022-06-11T14:24:17Z</time>
      </trkpt>
      <trkpt lat="44.09389" lon="6.85255">
        <ele>829.6</ele>
        <time>2022-06-11T14:24:18Z</time>
      </trkpt>
      <trkpt lat="44.09389" lon="6.85255">
        <ele>829.5</ele>
        <time>2022-06-11T14:24:19Z</time>
      </trkpt>
      <trkpt lat="44.09389" lon="6.85255">
        <ele>829.4</ele>
        <time>2022-06-11T14:24:20Z</time>
      </trkpt>
      <trkpt lat="44.09389" lon="6.85254">
        <ele>829.1</ele>
        <time>2022-06-11T14:24:21Z</time>
      </trkpt>
      <trkpt lat="44.09389" lon="6.85254">
        <ele>828.8</ele>
        <time>2022-06-11T14:24:22Z</time>
      </trkpt>
      <trkpt lat="44.09392" lon="6.85258">
        <ele>830.4</ele>
        <time>2022-06-11T14:24:23Z</time>
      </trkpt>
      <trkpt lat="44.09398" lon="6.8526">
        <ele>830.5</ele>
        <time>2022-06-11T14:24:24Z</time>
      </trkpt>
      <trkpt lat="44.09404" lon="6.85264">
        <ele>834.5</ele>
        <time>2022-06-11T14:24:25Z</time>
      </trkpt>
      <trkpt lat="44.09407" lon="6.85266">
        <ele>836.8</ele>
        <time>2022-06-11T14:24:26Z</time>
      </trkpt>
      <trkpt lat="44.09412" lon="6.85264">
        <ele>834.8</ele>
        <time>2022-06-11T14:24:27Z</time>
      </trkpt>
      <trkpt lat="44.09416" lon="6.8526">
        <ele>826.9</ele>
        <time>2022-06-11T14:24:28Z</time>
      </trkpt>
      <trkpt lat="44.09419" lon="6.85259">
        <ele>826.3</ele>
        <time>2022-06-11T14:24:29Z</time>
      </trkpt>
      <trkpt lat="44.09423" lon="6.85257">
        <ele>826.2</ele>
        <time>2022-06-11T14:24:30Z</time>
      </trkpt>
      <trkpt lat="44.09427" lon="6.85255">
        <ele>824.8</ele>
        <time>2022-06-11T14:24:31Z</time>
      </trkpt>
      <trkpt lat="44.09432" lon="6.8525">
        <ele>820.1</ele>
        <time>2022-06-11T14:24:32Z</time>
      </trkpt>
      <trkpt lat="44.09436" lon="6.85245">
        <ele>819</ele>
        <time>2022-06-11T14:24:33Z</time>
      </trkpt>
      <trkpt lat="44.0944" lon="6.85239">
        <ele>816.2</ele>
        <time>2022-06-11T14:24:34Z</time>
      </trkpt>
      <trkpt lat="44.09444" lon="6.85232">
        <ele>811.6</ele>
        <time>2022-06-11T14:24:35Z</time>
      </trkpt>
      <trkpt lat="44.09447" lon="6.85228">
        <ele>810.5</ele>
        <time>2022-06-11T14:24:36Z</time>
      </trkpt>
      <trkpt lat="44.09451" lon="6.85224">
        <ele>810</ele>
        <time>2022-06-11T14:24:37Z</time>
      </trkpt>
      <trkpt lat="44.09454" lon="6.85222">
        <ele>811.1</ele>
        <time>2022-06-11T14:24:38Z</time>
      </trkpt>
      <trkpt lat="44.09458" lon="6.8522">
        <ele>813.2</ele>
        <time>2022-06-11T14:24:39Z</time>
      </trkpt>
      <trkpt lat="44.09461" lon="6.8522">
        <ele>816.2</ele>
        <time>2022-06-11T14:24:40Z</time>
      </trkpt>
      <trkpt lat="44.09464" lon="6.8522">
        <ele>819</ele>
        <time>2022-06-11T14:24:41Z</time>
      </trkpt>
      <trkpt lat="44.09466" lon="6.85221">
        <ele>821.2</ele>
        <time>2022-06-11T14:24:42Z</time>
      </trkpt>
      <trkpt lat="44.09468" lon="6.85223">
        <ele>825.6</ele>
        <time>2022-06-11T14:24:43Z</time>
      </trkpt>
      <trkpt lat="44.09472" lon="6.85225">
        <ele>831</ele>
        <time>2022-06-11T14:24:44Z</time>
      </trkpt>
      <trkpt lat="44.09476" lon="6.85221">
        <ele>826.9</ele>
        <time>2022-06-11T14:24:45Z</time>
      </trkpt>
      <trkpt lat="44.0948" lon="6.85221">
        <ele>825.9</ele>
        <time>2022-06-11T14:24:46Z</time>
      </trkpt>
      <trkpt lat="44.09484" lon="6.85219">
        <ele>824</ele>
        <time>2022-06-11T14:24:47Z</time>
      </trkpt>
      <trkpt lat="44.09488" lon="6.85217">
        <ele>821.8</ele>
        <time>2022-06-11T14:24:48Z</time>
      </trkpt>
      <trkpt lat="44.09491" lon="6.85217">
        <ele>821.2</ele>
        <time>2022-06-11T14:24:49Z</time>
      </trkpt>
      <trkpt lat="44.09494" lon="6.85216">
        <ele>820.3</ele>
        <time>2022-06-11T14:24:50Z</time>
      </trkpt>
      <trkpt lat="44.09498" lon="6.85213">
        <ele>818.3</ele>
        <time>2022-06-11T14:24:51Z</time>
      </trkpt>
      <trkpt lat="44.09501" lon="6.85212">
        <ele>819.2</ele>
        <time>2022-06-11T14:24:52Z</time>
      </trkpt>
      <trkpt lat="44.09503" lon="6.85209">
        <ele>820</ele>
        <time>2022-06-11T14:24:53Z</time>
      </trkpt>
      <trkpt lat="44.09505" lon="6.85207">
        <ele>823.1</ele>
        <time>2022-06-11T14:24:54Z</time>
      </trkpt>
      <trkpt lat="44.09509" lon="6.85204">
        <ele>828</ele>
        <time>2022-06-11T14:24:55Z</time>
      </trkpt>
      <trkpt lat="44.09512" lon="6.85202">
        <ele>832.2</ele>
        <time>2022-06-11T14:24:56Z</time>
      </trkpt>
      <trkpt lat="44.09515" lon="6.85199">
        <ele>837</ele>
        <time>2022-06-11T14:24:57Z</time>
      </trkpt>
      <trkpt lat="44.09517" lon="6.85196">
        <ele>842</ele>
        <time>2022-06-11T14:24:58Z</time>
      </trkpt>
      <trkpt lat="44.09519" lon="6.85192">
        <ele>841.2</ele>
        <time>2022-06-11T14:24:59Z</time>
      </trkpt>
      <trkpt lat="44.09521" lon="6.85188">
        <ele>838.4</ele>
        <time>2022-06-11T14:25:00Z</time>
      </trkpt>
      <trkpt lat="44.09525" lon="6.85187">
        <ele>843.1</ele>
        <time>2022-06-11T14:25:01Z</time>
      </trkpt>
      <trkpt lat="44.09529" lon="6.85183">
        <ele>839.8</ele>
        <time>2022-06-11T14:25:02Z</time>
      </trkpt>
      <trkpt lat="44.09532" lon="6.85179">
        <ele>835.4</ele>
        <time>2022-06-11T14:25:03Z</time>
      </trkpt>
      <trkpt lat="44.09534" lon="6.85174">
        <ele>829</ele>
        <time>2022-06-11T14:25:04Z</time>
      </trkpt>
      <trkpt lat="44.09536" lon="6.85169">
        <ele>823.1</ele>
        <time>2022-06-11T14:25:05Z</time>
      </trkpt>
      <trkpt lat="44.09538" lon="6.85164">
        <ele>820.7</ele>
        <time>2022-06-11T14:25:06Z</time>
      </trkpt>
      <trkpt lat="44.09538" lon="6.85164">
        <ele>820.7</ele>
        <time>2022-06-11T14:25:07Z</time>
      </trkpt>
      <trkpt lat="44.09538" lon="6.85164">
        <ele>820.7</ele>
        <time>2022-06-11T14:25:08Z</time>
      </trkpt>
      <trkpt lat="44.09539" lon="6.85163">
        <ele>820.9</ele>
        <time>2022-06-11T14:25:09Z</time>
      </trkpt>
      <trkpt lat="44.0954" lon="6.85161">
        <ele>821</ele>
        <time>2022-06-11T14:25:10Z</time>
      </trkpt>
      <trkpt lat="44.09541" lon="6.8516">
        <ele>821.1</ele>
        <time>2022-06-11T14:25:11Z</time>
      </trkpt>
      <trkpt lat="44.09541" lon="6.8516">
        <ele>821.1</ele>
        <time>2022-06-11T14:25:12Z</time>
      </trkpt>
      <trkpt lat="44.09541" lon="6.8516">
        <ele>821.1</ele>
        <time>2022-06-11T14:25:13Z</time>
      </trkpt>
      <trkpt lat="44.09541" lon="6.8516">
        <ele>821.1</ele>
        <time>2022-06-11T14:25:14Z</time>
      </trkpt>
      <trkpt lat="44.09541" lon="6.8516">
        <ele>821.1</ele>
        <time>2022-06-11T14:25:15Z</time>
      </trkpt>
      <trkpt lat="44.09541" lon="6.8516">
        <ele>821.1</ele>
        <time>2022-06-11T14:25:16Z</time>
      </trkpt>
      <trkpt lat="44.09541" lon="6.8516">
        <ele>821.1</ele>
        <time>2022-06-11T14:25:17Z</time>
      </trkpt>
      <trkpt lat="44.09541" lon="6.8516">
        <ele>821.1</ele>
        <time>2022-06-11T14:25:18Z</time>
      </trkpt>
      <trkpt lat="44.09541" lon="6.8516">
        <ele>821.1</ele>
        <time>2022-06-11T14:25:19Z</time>
      </trkpt>
      <trkpt lat="44.09541" lon="6.8516">
        <ele>821.1</ele>
        <time>2022-06-11T14:25:20Z</time>
      </trkpt>
      <trkpt lat="44.09541" lon="6.8516">
        <ele>821.1</ele>
        <time>2022-06-11T14:25:21Z</time>
      </trkpt>
      <trkpt lat="44.09541" lon="6.8516">
        <ele>821.1</ele>
        <time>2022-06-11T14:25:22Z</time>
      </trkpt>
      <trkpt lat="44.09541" lon="6.8516">
        <ele>821.1</ele>
        <time>2022-06-11T14:25:23Z</time>
      </trkpt>
      <trkpt lat="44.09611" lon="6.85119">
        <ele>818.3</ele>
        <time>2022-06-11T14:25:24Z</time>
      </trkpt>
      <trkpt lat="44.09612" lon="6.8511">
        <ele>811.7</ele>
        <time>2022-06-11T14:25:25Z</time>
      </trkpt>
      <trkpt lat="44.09615" lon="6.85107">
        <ele>812.5</ele>
        <time>2022-06-11T14:25:26Z</time>
      </trkpt>
      <trkpt lat="44.09618" lon="6.85105">
        <ele>813.9</ele>
        <time>2022-06-11T14:25:27Z</time>
      </trkpt>
      <trkpt lat="44.09621" lon="6.85102">
        <ele>814.5</ele>
        <time>2022-06-11T14:25:28Z</time>
      </trkpt>
      <trkpt lat="44.09625" lon="6.85098">
        <ele>814.7</ele>
        <time>2022-06-11T14:25:29Z</time>
      </trkpt>
      <trkpt lat="44.09628" lon="6.85091">
        <ele>813.2</ele>
        <time>2022-06-11T14:25:30Z</time>
      </trkpt>
      <trkpt lat="44.09632" lon="6.85087">
        <ele>812.2</ele>
        <time>2022-06-11T14:25:31Z</time>
      </trkpt>
      <trkpt lat="44.09635" lon="6.85082">
        <ele>811.3</ele>
        <time>2022-06-11T14:25:32Z</time>
      </trkpt>
      <trkpt lat="44.09638" lon="6.85077">
        <ele>811.2</ele>
        <time>2022-06-11T14:25:33Z</time>
      </trkpt>
      <trkpt lat="44.09641" lon="6.85074">
        <ele>811.6</ele>
        <time>2022-06-11T14:25:34Z</time>
      </trkpt>
      <trkpt lat="44.09644" lon="6.85071">
        <ele>812.4</ele>
        <time>2022-06-11T14:25:35Z</time>
      </trkpt>
      <trkpt lat="44.09647" lon="6.85068">
        <ele>813</ele>
        <time>2022-06-11T14:25:36Z</time>
      </trkpt>
      <trkpt lat="44.0965" lon="6.85065">
        <ele>813.4</ele>
        <time>2022-06-11T14:25:37Z</time>
      </trkpt>
      <trkpt lat="44.09653" lon="6.85061">
        <ele>814</ele>
        <time>2022-06-11T14:25:38Z</time>
      </trkpt>
      <trkpt lat="44.09656" lon="6.85058">
        <ele>814.6</ele>
        <time>2022-06-11T14:25:39Z</time>
      </trkpt>
      <trkpt lat="44.09658" lon="6.85054">
        <ele>814.9</ele>
        <time>2022-06-11T14:25:40Z</time>
      </trkpt>
      <trkpt lat="44.09661" lon="6.8505">
        <ele>815</ele>
        <time>2022-06-11T14:25:41Z</time>
      </trkpt>
      <trkpt lat="44.09663" lon="6.85046">
        <ele>815.2</ele>
        <time>2022-06-11T14:25:42Z</time>
      </trkpt>
      <trkpt lat="44.09666" lon="6.85042">
        <ele>815.4</ele>
        <time>2022-06-11T14:25:43Z</time>
      </trkpt>
      <trkpt lat="44.09668" lon="6.85038">
        <ele>815.6</ele>
        <time>2022-06-11T14:25:44Z</time>
      </trkpt>
      <trkpt lat="44.09671" lon="6.85034">
        <ele>815.5</ele>
        <time>2022-06-11T14:25:45Z</time>
      </trkpt>
      <trkpt lat="44.09674" lon="6.8503">
        <ele>815.3</ele>
        <time>2022-06-11T14:25:46Z</time>
      </trkpt>
      <trkpt lat="44.09677" lon="6.85027">
        <ele>815.1</ele>
        <time>2022-06-11T14:25:47Z</time>
      </trkpt>
      <trkpt lat="44.0968" lon="6.85024">
        <ele>814.9</ele>
        <time>2022-06-11T14:25:48Z</time>
      </trkpt>
      <trkpt lat="44.09683" lon="6.8502">
        <ele>814.8</ele>
        <time>2022-06-11T14:25:49Z</time>
      </trkpt>
      <trkpt lat="44.09686" lon="6.85017">
        <ele>814.8</ele>
        <time>2022-06-11T14:25:50Z</time>
      </trkpt>
      <trkpt lat="44.09689" lon="6.85014">
        <ele>815.1</ele>
        <time>2022-06-11T14:25:51Z</time>
      </trkpt>
      <trkpt lat="44.09693" lon="6.85011">
        <ele>815.6</ele>
        <time>2022-06-11T14:25:52Z</time>
      </trkpt>
      <trkpt lat="44.09696" lon="6.85008">
        <ele>816</ele>
        <time>2022-06-11T14:25:53Z</time>
      </trkpt>
      <trkpt lat="44.09699" lon="6.85005">
        <ele>816</ele>
        <time>2022-06-11T14:25:54Z</time>
      </trkpt>
      <trkpt lat="44.09703" lon="6.85002">
        <ele>816.2</ele>
        <time>2022-06-11T14:25:55Z</time>
      </trkpt>
      <trkpt lat="44.09706" lon="6.85">
        <ele>816.3</ele>
        <time>2022-06-11T14:25:56Z</time>
      </trkpt>
      <trkpt lat="44.09709" lon="6.84997">
        <ele>816.3</ele>
        <time>2022-06-11T14:25:57Z</time>
      </trkpt>
      <trkpt lat="44.09713" lon="6.84995">
        <ele>816.4</ele>
        <time>2022-06-11T14:25:58Z</time>
      </trkpt>
      <trkpt lat="44.09716" lon="6.84993">
        <ele>816.5</ele>
        <time>2022-06-11T14:25:59Z</time>
      </trkpt>
      <trkpt lat="44.09719" lon="6.8499">
        <ele>816.7</ele>
        <time>2022-06-11T14:26:00Z</time>
      </trkpt>
      <trkpt lat="44.09723" lon="6.84987">
        <ele>816.8</ele>
        <time>2022-06-11T14:26:01Z</time>
      </trkpt>
      <trkpt lat="44.09726" lon="6.84985">
        <ele>816.9</ele>
        <time>2022-06-11T14:26:02Z</time>
      </trkpt>
      <trkpt lat="44.09729" lon="6.84982">
        <ele>817.1</ele>
        <time>2022-06-11T14:26:03Z</time>
      </trkpt>
      <trkpt lat="44.09733" lon="6.8498">
        <ele>817.4</ele>
        <time>2022-06-11T14:26:04Z</time>
      </trkpt>
      <trkpt lat="44.09736" lon="6.84978">
        <ele>817.6</ele>
        <time>2022-06-11T14:26:05Z</time>
      </trkpt>
      <trkpt lat="44.0974" lon="6.84976">
        <ele>817.8</ele>
        <time>2022-06-11T14:26:06Z</time>
      </trkpt>
      <trkpt lat="44.09743" lon="6.84974">
        <ele>818.1</ele>
        <time>2022-06-11T14:26:07Z</time>
      </trkpt>
      <trkpt lat="44.09747" lon="6.84972">
        <ele>818.3</ele>
        <time>2022-06-11T14:26:08Z</time>
      </trkpt>
      <trkpt lat="44.0975" lon="6.84971">
        <ele>818.3</ele>
        <time>2022-06-11T14:26:09Z</time>
      </trkpt>
      <trkpt lat="44.09754" lon="6.84969">
        <ele>818.2</ele>
        <time>2022-06-11T14:26:10Z</time>
      </trkpt>
      <trkpt lat="44.09757" lon="6.84967">
        <ele>818.3</ele>
        <time>2022-06-11T14:26:11Z</time>
      </trkpt>
      <trkpt lat="44.0976" lon="6.84965">
        <ele>818.4</ele>
        <time>2022-06-11T14:26:12Z</time>
      </trkpt>
      <trkpt lat="44.09764" lon="6.84963">
        <ele>818.6</ele>
        <time>2022-06-11T14:26:13Z</time>
      </trkpt>
      <trkpt lat="44.09767" lon="6.84962">
        <ele>819.1</ele>
        <time>2022-06-11T14:26:14Z</time>
      </trkpt>
      <trkpt lat="44.0977" lon="6.8496">
        <ele>819.6</ele>
        <time>2022-06-11T14:26:15Z</time>
      </trkpt>
      <trkpt lat="44.09774" lon="6.84959">
        <ele>820.3</ele>
        <time>2022-06-11T14:26:16Z</time>
      </trkpt>
      <trkpt lat="44.09777" lon="6.84957">
        <ele>821.1</ele>
        <time>2022-06-11T14:26:17Z</time>
      </trkpt>
      <trkpt lat="44.09781" lon="6.84956">
        <ele>821.3</ele>
        <time>2022-06-11T14:26:18Z</time>
      </trkpt>
      <trkpt lat="44.09784" lon="6.84955">
        <ele>821.7</ele>
        <time>2022-06-11T14:26:19Z</time>
      </trkpt>
      <trkpt lat="44.09788" lon="6.84954">
        <ele>822</ele>
        <time>2022-06-11T14:26:20Z</time>
      </trkpt>
      <trkpt lat="44.09792" lon="6.84953">
        <ele>822.2</ele>
        <time>2022-06-11T14:26:21Z</time>
      </trkpt>
      <trkpt lat="44.09795" lon="6.84951">
        <ele>822.3</ele>
        <time>2022-06-11T14:26:22Z</time>
      </trkpt>
      <trkpt lat="44.09798" lon="6.84949">
        <ele>822.3</ele>
        <time>2022-06-11T14:26:23Z</time>
      </trkpt>
      <trkpt lat="44.09802" lon="6.84948">
        <ele>822.4</ele>
        <time>2022-06-11T14:26:24Z</time>
      </trkpt>
      <trkpt lat="44.09806" lon="6.84946">
        <ele>822.5</ele>
        <time>2022-06-11T14:26:25Z</time>
      </trkpt>
      <trkpt lat="44.0981" lon="6.84944">
        <ele>823</ele>
        <time>2022-06-11T14:26:26Z</time>
      </trkpt>
      <trkpt lat="44.09813" lon="6.84942">
        <ele>823.3</ele>
        <time>2022-06-11T14:26:27Z</time>
      </trkpt>
      <trkpt lat="44.09817" lon="6.8494">
        <ele>823.6</ele>
        <time>2022-06-11T14:26:28Z</time>
      </trkpt>
      <trkpt lat="44.09821" lon="6.84938">
        <ele>823.7</ele>
        <time>2022-06-11T14:26:29Z</time>
      </trkpt>
      <trkpt lat="44.09825" lon="6.84936">
        <ele>823.8</ele>
        <time>2022-06-11T14:26:30Z</time>
      </trkpt>
      <trkpt lat="44.09829" lon="6.84934">
        <ele>823.8</ele>
        <time>2022-06-11T14:26:31Z</time>
      </trkpt>
      <trkpt lat="44.09833" lon="6.84932">
        <ele>823.9</ele>
        <time>2022-06-11T14:26:32Z</time>
      </trkpt>
      <trkpt lat="44.09837" lon="6.84931">
        <ele>823.9</ele>
        <time>2022-06-11T14:26:33Z</time>
      </trkpt>
      <trkpt lat="44.09842" lon="6.8493">
        <ele>824.2</ele>
        <time>2022-06-11T14:26:34Z</time>
      </trkpt>
      <trkpt lat="44.09847" lon="6.8493">
        <ele>824.4</ele>
        <time>2022-06-11T14:26:35Z</time>
      </trkpt>
      <trkpt lat="44.09852" lon="6.8493">
        <ele>824.9</ele>
        <time>2022-06-11T14:26:36Z</time>
      </trkpt>
      <trkpt lat="44.09856" lon="6.84929">
        <ele>825.1</ele>
        <time>2022-06-11T14:26:37Z</time>
      </trkpt>
      <trkpt lat="44.09861" lon="6.84929">
        <ele>825.6</ele>
        <time>2022-06-11T14:26:38Z</time>
      </trkpt>
      <trkpt lat="44.09866" lon="6.84929">
        <ele>826.2</ele>
        <time>2022-06-11T14:26:39Z</time>
      </trkpt>
      <trkpt lat="44.0987" lon="6.84929">
        <ele>826.6</ele>
        <time>2022-06-11T14:26:40Z</time>
      </trkpt>
      <trkpt lat="44.09875" lon="6.84929">
        <ele>826.7</ele>
        <time>2022-06-11T14:26:41Z</time>
      </trkpt>
      <trkpt lat="44.0988" lon="6.84928">
        <ele>826.9</ele>
        <time>2022-06-11T14:26:42Z</time>
      </trkpt>
      <trkpt lat="44.09884" lon="6.84927">
        <ele>826.6</ele>
        <time>2022-06-11T14:26:43Z</time>
      </trkpt>
      <trkpt lat="44.09889" lon="6.84925">
        <ele>826.1</ele>
        <time>2022-06-11T14:26:44Z</time>
      </trkpt>
      <trkpt lat="44.09894" lon="6.84923">
        <ele>826.5</ele>
        <time>2022-06-11T14:26:45Z</time>
      </trkpt>
      <trkpt lat="44.09898" lon="6.8492">
        <ele>826.7</ele>
        <time>2022-06-11T14:26:46Z</time>
      </trkpt>
      <trkpt lat="44.09903" lon="6.84918">
        <ele>826.7</ele>
        <time>2022-06-11T14:26:47Z</time>
      </trkpt>
      <trkpt lat="44.09907" lon="6.84916">
        <ele>826.6</ele>
        <time>2022-06-11T14:26:48Z</time>
      </trkpt>
      <trkpt lat="44.09912" lon="6.84914">
        <ele>827</ele>
        <time>2022-06-11T14:26:49Z</time>
      </trkpt>
      <trkpt lat="44.09917" lon="6.84912">
        <ele>827.4</ele>
        <time>2022-06-11T14:26:50Z</time>
      </trkpt>
      <trkpt lat="44.09921" lon="6.84911">
        <ele>828.6</ele>
        <time>2022-06-11T14:26:51Z</time>
      </trkpt>
      <trkpt lat="44.09926" lon="6.84911">
        <ele>829.7</ele>
        <time>2022-06-11T14:26:52Z</time>
      </trkpt>
      <trkpt lat="44.09931" lon="6.84909">
        <ele>830.3</ele>
        <time>2022-06-11T14:26:53Z</time>
      </trkpt>
      <trkpt lat="44.09935" lon="6.84908">
        <ele>830.8</ele>
        <time>2022-06-11T14:26:54Z</time>
      </trkpt>
      <trkpt lat="44.0994" lon="6.84906">
        <ele>831.1</ele>
        <time>2022-06-11T14:26:55Z</time>
      </trkpt>
      <trkpt lat="44.09945" lon="6.84905">
        <ele>831.9</ele>
        <time>2022-06-11T14:26:56Z</time>
      </trkpt>
      <trkpt lat="44.09949" lon="6.84904">
        <ele>833</ele>
        <time>2022-06-11T14:26:57Z</time>
      </trkpt>
      <trkpt lat="44.09954" lon="6.84903">
        <ele>834.2</ele>
        <time>2022-06-11T14:26:58Z</time>
      </trkpt>
      <trkpt lat="44.09958" lon="6.84902">
        <ele>834.7</ele>
        <time>2022-06-11T14:26:59Z</time>
      </trkpt>
      <trkpt lat="44.09962" lon="6.849">
        <ele>835.2</ele>
        <time>2022-06-11T14:27:00Z</time>
      </trkpt>
      <trkpt lat="44.09966" lon="6.84898">
        <ele>835.7</ele>
        <time>2022-06-11T14:27:01Z</time>
      </trkpt>
      <trkpt lat="44.0997" lon="6.84897">
        <ele>836.4</ele>
        <time>2022-06-11T14:27:02Z</time>
      </trkpt>
      <trkpt lat="44.09974" lon="6.84895">
        <ele>836.4</ele>
        <time>2022-06-11T14:27:03Z</time>
      </trkpt>
      <trkpt lat="44.09978" lon="6.84895">
        <ele>836.2</ele>
        <time>2022-06-11T14:27:04Z</time>
      </trkpt>
      <trkpt lat="44.09983" lon="6.84896">
        <ele>836.7</ele>
        <time>2022-06-11T14:27:05Z</time>
      </trkpt>
      <trkpt lat="44.09986" lon="6.84897">
        <ele>837.3</ele>
        <time>2022-06-11T14:27:06Z</time>
      </trkpt>
      <trkpt lat="44.0999" lon="6.84896">
        <ele>836.9</ele>
        <time>2022-06-11T14:27:07Z</time>
      </trkpt>
      <trkpt lat="44.09992" lon="6.84895">
        <ele>836.2</ele>
        <time>2022-06-11T14:27:08Z</time>
      </trkpt>
      <trkpt lat="44.09994" lon="6.84894">
        <ele>835</ele>
        <time>2022-06-11T14:27:09Z</time>
      </trkpt>
      <trkpt lat="44.09996" lon="6.84895">
        <ele>835.7</ele>
        <time>2022-06-11T14:27:10Z</time>
      </trkpt>
      <trkpt lat="44.10001" lon="6.84896">
        <ele>836.5</ele>
        <time>2022-06-11T14:27:11Z</time>
      </trkpt>
      <trkpt lat="44.10003" lon="6.84893">
        <ele>833.9</ele>
        <time>2022-06-11T14:27:12Z</time>
      </trkpt>
      <trkpt lat="44.10006" lon="6.84887">
        <ele>829.6</ele>
        <time>2022-06-11T14:27:13Z</time>
      </trkpt>
      <trkpt lat="44.1001" lon="6.84885">
        <ele>829.1</ele>
        <time>2022-06-11T14:27:14Z</time>
      </trkpt>
      <trkpt lat="44.10014" lon="6.84883">
        <ele>829.4</ele>
        <time>2022-06-11T14:27:15Z</time>
      </trkpt>
      <trkpt lat="44.10019" lon="6.84881">
        <ele>829.7</ele>
        <time>2022-06-11T14:27:16Z</time>
      </trkpt>
      <trkpt lat="44.10023" lon="6.8488">
        <ele>830.2</ele>
        <time>2022-06-11T14:27:17Z</time>
      </trkpt>
      <trkpt lat="44.10026" lon="6.84876">
        <ele>829.5</ele>
        <time>2022-06-11T14:27:18Z</time>
      </trkpt>
      <trkpt lat="44.1003" lon="6.84873">
        <ele>829.8</ele>
        <time>2022-06-11T14:27:19Z</time>
      </trkpt>
      <trkpt lat="44.10033" lon="6.8487">
        <ele>830.1</ele>
        <time>2022-06-11T14:27:20Z</time>
      </trkpt>
      <trkpt lat="44.10036" lon="6.84867">
        <ele>830.1</ele>
        <time>2022-06-11T14:27:21Z</time>
      </trkpt>
      <trkpt lat="44.1004" lon="6.84864">
        <ele>829.7</ele>
        <time>2022-06-11T14:27:22Z</time>
      </trkpt>
      <trkpt lat="44.10043" lon="6.84861">
        <ele>829.4</ele>
        <time>2022-06-11T14:27:23Z</time>
      </trkpt>
      <trkpt lat="44.10047" lon="6.84858">
        <ele>829.1</ele>
        <time>2022-06-11T14:27:24Z</time>
      </trkpt>
      <trkpt lat="44.1005" lon="6.84855">
        <ele>829.4</ele>
        <time>2022-06-11T14:27:25Z</time>
      </trkpt>
      <trkpt lat="44.10054" lon="6.84852">
        <ele>829.4</ele>
        <time>2022-06-11T14:27:26Z</time>
      </trkpt>
      <trkpt lat="44.10057" lon="6.8485">
        <ele>829.5</ele>
        <time>2022-06-11T14:27:27Z</time>
      </trkpt>
      <trkpt lat="44.10061" lon="6.84849">
        <ele>829.7</ele>
        <time>2022-06-11T14:27:28Z</time>
      </trkpt>
      <trkpt lat="44.10065" lon="6.84848">
        <ele>830.1</ele>
        <time>2022-06-11T14:27:29Z</time>
      </trkpt>
      <trkpt lat="44.10069" lon="6.84846">
        <ele>830.5</ele>
        <time>2022-06-11T14:27:30Z</time>
      </trkpt>
      <trkpt lat="44.10073" lon="6.84846">
        <ele>831.3</ele>
        <time>2022-06-11T14:27:31Z</time>
      </trkpt>
      <trkpt lat="44.10077" lon="6.84845">
        <ele>832</ele>
        <time>2022-06-11T14:27:32Z</time>
      </trkpt>
      <trkpt lat="44.10081" lon="6.84846">
        <ele>833.4</ele>
        <time>2022-06-11T14:27:33Z</time>
      </trkpt>
      <trkpt lat="44.10085" lon="6.84848">
        <ele>834.8</ele>
        <time>2022-06-11T14:27:34Z</time>
      </trkpt>
      <trkpt lat="44.10089" lon="6.84849">
        <ele>834.2</ele>
        <time>2022-06-11T14:27:35Z</time>
      </trkpt>
      <trkpt lat="44.10093" lon="6.84851">
        <ele>833.9</ele>
        <time>2022-06-11T14:27:36Z</time>
      </trkpt>
      <trkpt lat="44.10097" lon="6.84854">
        <ele>834</ele>
        <time>2022-06-11T14:27:37Z</time>
      </trkpt>
      <trkpt lat="44.101" lon="6.84856">
        <ele>834</ele>
        <time>2022-06-11T14:27:38Z</time>
      </trkpt>
      <trkpt lat="44.10104" lon="6.84859">
        <ele>834</ele>
        <time>2022-06-11T14:27:39Z</time>
      </trkpt>
      <trkpt lat="44.10107" lon="6.84862">
        <ele>833.8</ele>
        <time>2022-06-11T14:27:40Z</time>
      </trkpt>
      <trkpt lat="44.10111" lon="6.84864">
        <ele>833.2</ele>
        <time>2022-06-11T14:27:41Z</time>
      </trkpt>
      <trkpt lat="44.10114" lon="6.84867">
        <ele>833.3</ele>
        <time>2022-06-11T14:27:42Z</time>
      </trkpt>
      <trkpt lat="44.10118" lon="6.8487">
        <ele>833.5</ele>
        <time>2022-06-11T14:27:43Z</time>
      </trkpt>
      <trkpt lat="44.10121" lon="6.84872">
        <ele>833.5</ele>
        <time>2022-06-11T14:27:44Z</time>
      </trkpt>
      <trkpt lat="44.10124" lon="6.84874">
        <ele>833.7</ele>
        <time>2022-06-11T14:27:45Z</time>
      </trkpt>
      <trkpt lat="44.10128" lon="6.84877">
        <ele>833.7</ele>
        <time>2022-06-11T14:27:46Z</time>
      </trkpt>
      <trkpt lat="44.10132" lon="6.84879">
        <ele>833.7</ele>
        <time>2022-06-11T14:27:47Z</time>
      </trkpt>
      <trkpt lat="44.10135" lon="6.84881">
        <ele>833.5</ele>
        <time>2022-06-11T14:27:48Z</time>
      </trkpt>
      <trkpt lat="44.10139" lon="6.84883">
        <ele>833.4</ele>
        <time>2022-06-11T14:27:49Z</time>
      </trkpt>
      <trkpt lat="44.10143" lon="6.84885">
        <ele>833.7</ele>
        <time>2022-06-11T14:27:50Z</time>
      </trkpt>
      <trkpt lat="44.10146" lon="6.84887">
        <ele>834</ele>
        <time>2022-06-11T14:27:51Z</time>
      </trkpt>
      <trkpt lat="44.1015" lon="6.84889">
        <ele>834.1</ele>
        <time>2022-06-11T14:27:52Z</time>
      </trkpt>
      <trkpt lat="44.10153" lon="6.8489">
        <ele>834.3</ele>
        <time>2022-06-11T14:27:53Z</time>
      </trkpt>
      <trkpt lat="44.10157" lon="6.84892">
        <ele>834.6</ele>
        <time>2022-06-11T14:27:54Z</time>
      </trkpt>
      <trkpt lat="44.1016" lon="6.84895">
        <ele>834.9</ele>
        <time>2022-06-11T14:27:55Z</time>
      </trkpt>
      <trkpt lat="44.10164" lon="6.84897">
        <ele>835.2</ele>
        <time>2022-06-11T14:27:56Z</time>
      </trkpt>
      <trkpt lat="44.10167" lon="6.84899">
        <ele>835.4</ele>
        <time>2022-06-11T14:27:57Z</time>
      </trkpt>
      <trkpt lat="44.1017" lon="6.849">
        <ele>835.1</ele>
        <time>2022-06-11T14:27:58Z</time>
      </trkpt>
      <trkpt lat="44.10173" lon="6.84902">
        <ele>834.9</ele>
        <time>2022-06-11T14:27:59Z</time>
      </trkpt>
      <trkpt lat="44.10177" lon="6.84903">
        <ele>834.6</ele>
        <time>2022-06-11T14:28:00Z</time>
      </trkpt>
      <trkpt lat="44.1018" lon="6.84905">
        <ele>834.3</ele>
        <time>2022-06-11T14:28:01Z</time>
      </trkpt>
      <trkpt lat="44.10184" lon="6.84907">
        <ele>834.2</ele>
        <time>2022-06-11T14:28:02Z</time>
      </trkpt>
      <trkpt lat="44.10187" lon="6.84908">
        <ele>834</ele>
        <time>2022-06-11T14:28:03Z</time>
      </trkpt>
      <trkpt lat="44.1019" lon="6.8491">
        <ele>833.8</ele>
        <time>2022-06-11T14:28:04Z</time>
      </trkpt>
      <trkpt lat="44.10193" lon="6.84911">
        <ele>833.6</ele>
        <time>2022-06-11T14:28:05Z</time>
      </trkpt>
      <trkpt lat="44.10197" lon="6.84913">
        <ele>834</ele>
        <time>2022-06-11T14:28:06Z</time>
      </trkpt>
      <trkpt lat="44.102" lon="6.84914">
        <ele>834.7</ele>
        <time>2022-06-11T14:28:07Z</time>
      </trkpt>
      <trkpt lat="44.10203" lon="6.84916">
        <ele>835.3</ele>
        <time>2022-06-11T14:28:08Z</time>
      </trkpt>
      <trkpt lat="44.10207" lon="6.84916">
        <ele>835.7</ele>
        <time>2022-06-11T14:28:09Z</time>
      </trkpt>
      <trkpt lat="44.1021" lon="6.84917">
        <ele>836.1</ele>
        <time>2022-06-11T14:28:10Z</time>
      </trkpt>
      <trkpt lat="44.10213" lon="6.84917">
        <ele>836.5</ele>
        <time>2022-06-11T14:28:11Z</time>
      </trkpt>
      <trkpt lat="44.10217" lon="6.84918">
        <ele>836.9</ele>
        <time>2022-06-11T14:28:12Z</time>
      </trkpt>
      <trkpt lat="44.10219" lon="6.84919">
        <ele>837.3</ele>
        <time>2022-06-11T14:28:13Z</time>
      </trkpt>
      <trkpt lat="44.10222" lon="6.84919">
        <ele>837.7</ele>
        <time>2022-06-11T14:28:14Z</time>
      </trkpt>
      <trkpt lat="44.10226" lon="6.8492">
        <ele>837.8</ele>
        <time>2022-06-11T14:28:15Z</time>
      </trkpt>
      <trkpt lat="44.10229" lon="6.84921">
        <ele>837.8</ele>
        <time>2022-06-11T14:28:16Z</time>
      </trkpt>
      <trkpt lat="44.10232" lon="6.84921">
        <ele>837.8</ele>
        <time>2022-06-11T14:28:17Z</time>
      </trkpt>
      <trkpt lat="44.10236" lon="6.84922">
        <ele>837.9</ele>
        <time>2022-06-11T14:28:18Z</time>
      </trkpt>
      <trkpt lat="44.10239" lon="6.84923">
        <ele>837.9</ele>
        <time>2022-06-11T14:28:19Z</time>
      </trkpt>
      <trkpt lat="44.10243" lon="6.84924">
        <ele>837.9</ele>
        <time>2022-06-11T14:28:20Z</time>
      </trkpt>
      <trkpt lat="44.10247" lon="6.84924">
        <ele>837.8</ele>
        <time>2022-06-11T14:28:21Z</time>
      </trkpt>
      <trkpt lat="44.1025" lon="6.84925">
        <ele>837.8</ele>
        <time>2022-06-11T14:28:22Z</time>
      </trkpt>
      <trkpt lat="44.10254" lon="6.84926">
        <ele>837.9</ele>
        <time>2022-06-11T14:28:23Z</time>
      </trkpt>
      <trkpt lat="44.10257" lon="6.84927">
        <ele>838</ele>
        <time>2022-06-11T14:28:24Z</time>
      </trkpt>
      <trkpt lat="44.1026" lon="6.84927">
        <ele>838.1</ele>
        <time>2022-06-11T14:28:25Z</time>
      </trkpt>
      <trkpt lat="44.10263" lon="6.84928">
        <ele>838.2</ele>
        <time>2022-06-11T14:28:26Z</time>
      </trkpt>
      <trkpt lat="44.10267" lon="6.84929">
        <ele>838.3</ele>
        <time>2022-06-11T14:28:27Z</time>
      </trkpt>
      <trkpt lat="44.1027" lon="6.84929">
        <ele>838.4</ele>
        <time>2022-06-11T14:28:28Z</time>
      </trkpt>
      <trkpt lat="44.10273" lon="6.8493">
        <ele>838.5</ele>
        <time>2022-06-11T14:28:29Z</time>
      </trkpt>
      <trkpt lat="44.10277" lon="6.84931">
        <ele>838.6</ele>
        <time>2022-06-11T14:28:30Z</time>
      </trkpt>
      <trkpt lat="44.1028" lon="6.84932">
        <ele>838.7</ele>
        <time>2022-06-11T14:28:31Z</time>
      </trkpt>
      <trkpt lat="44.10283" lon="6.84932">
        <ele>838.8</ele>
        <time>2022-06-11T14:28:32Z</time>
      </trkpt>
      <trkpt lat="44.10287" lon="6.84933">
        <ele>838.9</ele>
        <time>2022-06-11T14:28:33Z</time>
      </trkpt>
      <trkpt lat="44.1029" lon="6.84933">
        <ele>838.9</ele>
        <time>2022-06-11T14:28:34Z</time>
      </trkpt>
      <trkpt lat="44.10294" lon="6.84934">
        <ele>839.1</ele>
        <time>2022-06-11T14:28:35Z</time>
      </trkpt>
      <trkpt lat="44.10298" lon="6.84934">
        <ele>839.2</ele>
        <time>2022-06-11T14:28:36Z</time>
      </trkpt>
      <trkpt lat="44.10301" lon="6.84935">
        <ele>839.3</ele>
        <time>2022-06-11T14:28:37Z</time>
      </trkpt>
      <trkpt lat="44.10305" lon="6.84936">
        <ele>839.4</ele>
        <time>2022-06-11T14:28:38Z</time>
      </trkpt>
      <trkpt lat="44.10308" lon="6.84936">
        <ele>839.5</ele>
        <time>2022-06-11T14:28:39Z</time>
      </trkpt>
      <trkpt lat="44.10312" lon="6.84937">
        <ele>839.6</ele>
        <time>2022-06-11T14:28:40Z</time>
      </trkpt>
      <trkpt lat="44.10315" lon="6.84937">
        <ele>839.6</ele>
        <time>2022-06-11T14:28:41Z</time>
      </trkpt>
      <trkpt lat="44.10319" lon="6.84937">
        <ele>839.7</ele>
        <time>2022-06-11T14:28:42Z</time>
      </trkpt>
      <trkpt lat="44.10323" lon="6.84938">
        <ele>839.8</ele>
        <time>2022-06-11T14:28:43Z</time>
      </trkpt>
      <trkpt lat="44.10326" lon="6.84938">
        <ele>839.8</ele>
        <time>2022-06-11T14:28:44Z</time>
      </trkpt>
      <trkpt lat="44.1033" lon="6.84938">
        <ele>839.8</ele>
        <time>2022-06-11T14:28:45Z</time>
      </trkpt>
      <trkpt lat="44.10334" lon="6.84939">
        <ele>839.9</ele>
        <time>2022-06-11T14:28:46Z</time>
      </trkpt>
      <trkpt lat="44.10337" lon="6.8494">
        <ele>840</ele>
        <time>2022-06-11T14:28:47Z</time>
      </trkpt>
      <trkpt lat="44.10341" lon="6.84941">
        <ele>840</ele>
        <time>2022-06-11T14:28:48Z</time>
      </trkpt>
      <trkpt lat="44.10344" lon="6.84942">
        <ele>840.1</ele>
        <time>2022-06-11T14:28:49Z</time>
      </trkpt>
      <trkpt lat="44.10348" lon="6.84942">
        <ele>840.1</ele>
        <time>2022-06-11T14:28:50Z</time>
      </trkpt>
      <trkpt lat="44.10352" lon="6.84943">
        <ele>840</ele>
        <time>2022-06-11T14:28:51Z</time>
      </trkpt>
      <trkpt lat="44.10355" lon="6.84943">
        <ele>840</ele>
        <time>2022-06-11T14:28:52Z</time>
      </trkpt>
      <trkpt lat="44.10358" lon="6.84944">
        <ele>840</ele>
        <time>2022-06-11T14:28:53Z</time>
      </trkpt>
      <trkpt lat="44.10362" lon="6.84944">
        <ele>840</ele>
        <time>2022-06-11T14:28:54Z</time>
      </trkpt>
      <trkpt lat="44.10365" lon="6.84945">
        <ele>840.3</ele>
        <time>2022-06-11T14:28:55Z</time>
      </trkpt>
      <trkpt lat="44.10368" lon="6.84946">
        <ele>840.5</ele>
        <time>2022-06-11T14:28:56Z</time>
      </trkpt>
      <trkpt lat="44.10371" lon="6.84946">
        <ele>840.8</ele>
        <time>2022-06-11T14:28:57Z</time>
      </trkpt>
      <trkpt lat="44.10374" lon="6.84947">
        <ele>841</ele>
        <time>2022-06-11T14:28:58Z</time>
      </trkpt>
      <trkpt lat="44.10378" lon="6.84947">
        <ele>841.2</ele>
        <time>2022-06-11T14:28:59Z</time>
      </trkpt>
      <trkpt lat="44.10382" lon="6.84947">
        <ele>841.5</ele>
        <time>2022-06-11T14:29:00Z</time>
      </trkpt>
      <trkpt lat="44.10385" lon="6.84945">
        <ele>841.7</ele>
        <time>2022-06-11T14:29:01Z</time>
      </trkpt>
      <trkpt lat="44.10388" lon="6.84944">
        <ele>841.9</ele>
        <time>2022-06-11T14:29:02Z</time>
      </trkpt>
      <trkpt lat="44.10391" lon="6.84941">
        <ele>842.5</ele>
        <time>2022-06-11T14:29:03Z</time>
      </trkpt>
      <trkpt lat="44.10393" lon="6.84937">
        <ele>843.3</ele>
        <time>2022-06-11T14:29:04Z</time>
      </trkpt>
      <trkpt lat="44.10395" lon="6.84934">
        <ele>844</ele>
        <time>2022-06-11T14:29:05Z</time>
      </trkpt>
      <trkpt lat="44.10397" lon="6.84929">
        <ele>844.5</ele>
        <time>2022-06-11T14:29:06Z</time>
      </trkpt>
      <trkpt lat="44.10398" lon="6.84925">
        <ele>844.8</ele>
        <time>2022-06-11T14:29:07Z</time>
      </trkpt>
      <trkpt lat="44.104" lon="6.8492">
        <ele>845.2</ele>
        <time>2022-06-11T14:29:08Z</time>
      </trkpt>
      <trkpt lat="44.10401" lon="6.84916">
        <ele>845.4</ele>
        <time>2022-06-11T14:29:09Z</time>
      </trkpt>
      <trkpt lat="44.10402" lon="6.84912">
        <ele>845.8</ele>
        <time>2022-06-11T14:29:10Z</time>
      </trkpt>
      <trkpt lat="44.10403" lon="6.84907">
        <ele>846.2</ele>
        <time>2022-06-11T14:29:11Z</time>
      </trkpt>
      <trkpt lat="44.10404" lon="6.84903">
        <ele>846.6</ele>
        <time>2022-06-11T14:29:12Z</time>
      </trkpt>
      <trkpt lat="44.10404" lon="6.84899">
        <ele>846.8</ele>
        <time>2022-06-11T14:29:13Z</time>
      </trkpt>
      <trkpt lat="44.10405" lon="6.84895">
        <ele>847.1</ele>
        <time>2022-06-11T14:29:14Z</time>
      </trkpt>
      <trkpt lat="44.10406" lon="6.84891">
        <ele>847.6</ele>
        <time>2022-06-11T14:29:15Z</time>
      </trkpt>
      <trkpt lat="44.10407" lon="6.84887">
        <ele>848</ele>
        <time>2022-06-11T14:29:16Z</time>
      </trkpt>
      <trkpt lat="44.10408" lon="6.84883">
        <ele>848.2</ele>
        <time>2022-06-11T14:29:17Z</time>
      </trkpt>
      <trkpt lat="44.10409" lon="6.84879">
        <ele>848.5</ele>
        <time>2022-06-11T14:29:18Z</time>
      </trkpt>
      <trkpt lat="44.1041" lon="6.84876">
        <ele>848.8</ele>
        <time>2022-06-11T14:29:19Z</time>
      </trkpt>
      <trkpt lat="44.10412" lon="6.84873">
        <ele>849.5</ele>
        <time>2022-06-11T14:29:20Z</time>
      </trkpt>
      <trkpt lat="44.10414" lon="6.84869">
        <ele>850.1</ele>
        <time>2022-06-11T14:29:21Z</time>
      </trkpt>
      <trkpt lat="44.10416" lon="6.84866">
        <ele>850.8</ele>
        <time>2022-06-11T14:29:22Z</time>
      </trkpt>
      <trkpt lat="44.10418" lon="6.84863">
        <ele>851.6</ele>
        <time>2022-06-11T14:29:23Z</time>
      </trkpt>
      <trkpt lat="44.10419" lon="6.84859">
        <ele>851.8</ele>
        <time>2022-06-11T14:29:24Z</time>
      </trkpt>
      <trkpt lat="44.10421" lon="6.84856">
        <ele>851.8</ele>
        <time>2022-06-11T14:29:25Z</time>
      </trkpt>
      <trkpt lat="44.10423" lon="6.84853">
        <ele>852.2</ele>
        <time>2022-06-11T14:29:26Z</time>
      </trkpt>
      <trkpt lat="44.10426" lon="6.84851">
        <ele>852.7</ele>
        <time>2022-06-11T14:29:27Z</time>
      </trkpt>
      <trkpt lat="44.10428" lon="6.84849">
        <ele>853.4</ele>
        <time>2022-06-11T14:29:28Z</time>
      </trkpt>
      <trkpt lat="44.10431" lon="6.84847">
        <ele>854.2</ele>
        <time>2022-06-11T14:29:29Z</time>
      </trkpt>
      <trkpt lat="44.10433" lon="6.84846">
        <ele>854.9</ele>
        <time>2022-06-11T14:29:30Z</time>
      </trkpt>
      <trkpt lat="44.10435" lon="6.84844">
        <ele>855.4</ele>
        <time>2022-06-11T14:29:31Z</time>
      </trkpt>
      <trkpt lat="44.10437" lon="6.84841">
        <ele>855.6</ele>
        <time>2022-06-11T14:29:32Z</time>
      </trkpt>
      <trkpt lat="44.10439" lon="6.84839">
        <ele>855.8</ele>
        <time>2022-06-11T14:29:33Z</time>
      </trkpt>
      <trkpt lat="44.10441" lon="6.84837">
        <ele>856</ele>
        <time>2022-06-11T14:29:34Z</time>
      </trkpt>
      <trkpt lat="44.10444" lon="6.84835">
        <ele>856.3</ele>
        <time>2022-06-11T14:29:35Z</time>
      </trkpt>
      <trkpt lat="44.10446" lon="6.84833">
        <ele>856.4</ele>
        <time>2022-06-11T14:29:36Z</time>
      </trkpt>
      <trkpt lat="44.10448" lon="6.8483">
        <ele>856.5</ele>
        <time>2022-06-11T14:29:37Z</time>
      </trkpt>
      <trkpt lat="44.1045" lon="6.84827">
        <ele>856.6</ele>
        <time>2022-06-11T14:29:38Z</time>
      </trkpt>
      <trkpt lat="44.10452" lon="6.84824">
        <ele>856.5</ele>
        <time>2022-06-11T14:29:39Z</time>
      </trkpt>
      <trkpt lat="44.10454" lon="6.84822">
        <ele>856.8</ele>
        <time>2022-06-11T14:29:40Z</time>
      </trkpt>
      <trkpt lat="44.10455" lon="6.84819">
        <ele>856.7</ele>
        <time>2022-06-11T14:29:41Z</time>
      </trkpt>
      <trkpt lat="44.10457" lon="6.84817">
        <ele>856.6</ele>
        <time>2022-06-11T14:29:42Z</time>
      </trkpt>
      <trkpt lat="44.10459" lon="6.84814">
        <ele>856.4</ele>
        <time>2022-06-11T14:29:43Z</time>
      </trkpt>
      <trkpt lat="44.10461" lon="6.84811">
        <ele>856.5</ele>
        <time>2022-06-11T14:29:44Z</time>
      </trkpt>
      <trkpt lat="44.10463" lon="6.84808">
        <ele>856.6</ele>
        <time>2022-06-11T14:29:45Z</time>
      </trkpt>
      <trkpt lat="44.10465" lon="6.84806">
        <ele>856.8</ele>
        <time>2022-06-11T14:29:46Z</time>
      </trkpt>
      <trkpt lat="44.10467" lon="6.84803">
        <ele>857.2</ele>
        <time>2022-06-11T14:29:47Z</time>
      </trkpt>
      <trkpt lat="44.10469" lon="6.848">
        <ele>857.4</ele>
        <time>2022-06-11T14:29:48Z</time>
      </trkpt>
      <trkpt lat="44.10471" lon="6.84797">
        <ele>857.6</ele>
        <time>2022-06-11T14:29:49Z</time>
      </trkpt>
      <trkpt lat="44.10473" lon="6.84793">
        <ele>857.7</ele>
        <time>2022-06-11T14:29:50Z</time>
      </trkpt>
      <trkpt lat="44.10475" lon="6.8479">
        <ele>857.9</ele>
        <time>2022-06-11T14:29:51Z</time>
      </trkpt>
      <trkpt lat="44.10477" lon="6.84787">
        <ele>857.9</ele>
        <time>2022-06-11T14:29:52Z</time>
      </trkpt>
      <trkpt lat="44.10479" lon="6.84783">
        <ele>857.9</ele>
        <time>2022-06-11T14:29:53Z</time>
      </trkpt>
      <trkpt lat="44.10481" lon="6.8478">
        <ele>858</ele>
        <time>2022-06-11T14:29:54Z</time>
      </trkpt>
      <trkpt lat="44.10483" lon="6.84778">
        <ele>858.2</ele>
        <time>2022-06-11T14:29:55Z</time>
      </trkpt>
      <trkpt lat="44.10485" lon="6.84774">
        <ele>858.1</ele>
        <time>2022-06-11T14:29:56Z</time>
      </trkpt>
      <trkpt lat="44.10487" lon="6.84771">
        <ele>858</ele>
        <time>2022-06-11T14:29:57Z</time>
      </trkpt>
      <trkpt lat="44.10489" lon="6.84767">
        <ele>857.7</ele>
        <time>2022-06-11T14:29:58Z</time>
      </trkpt>
      <trkpt lat="44.10491" lon="6.84765">
        <ele>857.6</ele>
        <time>2022-06-11T14:29:59Z</time>
      </trkpt>
      <trkpt lat="44.10493" lon="6.84762">
        <ele>857.6</ele>
        <time>2022-06-11T14:30:00Z</time>
      </trkpt>
      <trkpt lat="44.10495" lon="6.8476">
        <ele>857.5</ele>
        <time>2022-06-11T14:30:01Z</time>
      </trkpt>
      <trkpt lat="44.10497" lon="6.84757">
        <ele>857.2</ele>
        <time>2022-06-11T14:30:02Z</time>
      </trkpt>
      <trkpt lat="44.10499" lon="6.84754">
        <ele>856.9</ele>
        <time>2022-06-11T14:30:03Z</time>
      </trkpt>
      <trkpt lat="44.10501" lon="6.84751">
        <ele>856.5</ele>
        <time>2022-06-11T14:30:04Z</time>
      </trkpt>
      <trkpt lat="44.10503" lon="6.84749">
        <ele>857.2</ele>
        <time>2022-06-11T14:30:05Z</time>
      </trkpt>
      <trkpt lat="44.10505" lon="6.84746">
        <ele>857.8</ele>
        <time>2022-06-11T14:30:06Z</time>
      </trkpt>
      <trkpt lat="44.10507" lon="6.84744">
        <ele>858.4</ele>
        <time>2022-06-11T14:30:07Z</time>
      </trkpt>
      <trkpt lat="44.10508" lon="6.84741">
        <ele>858.8</ele>
        <time>2022-06-11T14:30:08Z</time>
      </trkpt>
      <trkpt lat="44.1051" lon="6.84738">
        <ele>859.1</ele>
        <time>2022-06-11T14:30:09Z</time>
      </trkpt>
      <trkpt lat="44.10512" lon="6.84736">
        <ele>859.4</ele>
        <time>2022-06-11T14:30:10Z</time>
      </trkpt>
      <trkpt lat="44.10513" lon="6.84733">
        <ele>859.6</ele>
        <time>2022-06-11T14:30:11Z</time>
      </trkpt>
      <trkpt lat="44.10515" lon="6.84729">
        <ele>859.7</ele>
        <time>2022-06-11T14:30:12Z</time>
      </trkpt>
      <trkpt lat="44.10517" lon="6.84727">
        <ele>859.9</ele>
        <time>2022-06-11T14:30:13Z</time>
      </trkpt>
      <trkpt lat="44.10519" lon="6.84725">
        <ele>860.3</ele>
        <time>2022-06-11T14:30:14Z</time>
      </trkpt>
      <trkpt lat="44.10521" lon="6.84722">
        <ele>860.5</ele>
        <time>2022-06-11T14:30:15Z</time>
      </trkpt>
      <trkpt lat="44.10524" lon="6.8472">
        <ele>860.9</ele>
        <time>2022-06-11T14:30:16Z</time>
      </trkpt>
      <trkpt lat="44.10526" lon="6.84717">
        <ele>861.2</ele>
        <time>2022-06-11T14:30:17Z</time>
      </trkpt>
      <trkpt lat="44.10528" lon="6.84714">
        <ele>861.1</ele>
        <time>2022-06-11T14:30:18Z</time>
      </trkpt>
      <trkpt lat="44.10529" lon="6.84711">
        <ele>860.5</ele>
        <time>2022-06-11T14:30:19Z</time>
      </trkpt>
      <trkpt lat="44.10531" lon="6.84708">
        <ele>859.9</ele>
        <time>2022-06-11T14:30:20Z</time>
      </trkpt>
      <trkpt lat="44.10533" lon="6.84704">
        <ele>859.4</ele>
        <time>2022-06-11T14:30:21Z</time>
      </trkpt>
      <trkpt lat="44.10535" lon="6.84701">
        <ele>858.8</ele>
        <time>2022-06-11T14:30:22Z</time>
      </trkpt>
      <trkpt lat="44.10537" lon="6.84697">
        <ele>858.5</ele>
        <time>2022-06-11T14:30:23Z</time>
      </trkpt>
      <trkpt lat="44.1054" lon="6.84694">
        <ele>858.2</ele>
        <time>2022-06-11T14:30:24Z</time>
      </trkpt>
      <trkpt lat="44.10542" lon="6.84691">
        <ele>858.1</ele>
        <time>2022-06-11T14:30:25Z</time>
      </trkpt>
      <trkpt lat="44.10545" lon="6.84687">
        <ele>858.1</ele>
        <time>2022-06-11T14:30:26Z</time>
      </trkpt>
      <trkpt lat="44.10547" lon="6.84684">
        <ele>858.2</ele>
        <time>2022-06-11T14:30:27Z</time>
      </trkpt>
      <trkpt lat="44.1055" lon="6.8468">
        <ele>858.4</ele>
        <time>2022-06-11T14:30:28Z</time>
      </trkpt>
      <trkpt lat="44.10552" lon="6.84676">
        <ele>858.6</ele>
        <time>2022-06-11T14:30:29Z</time>
      </trkpt>
      <trkpt lat="44.10555" lon="6.84673">
        <ele>859</ele>
        <time>2022-06-11T14:30:30Z</time>
      </trkpt>
      <trkpt lat="44.10557" lon="6.84669">
        <ele>859.5</ele>
        <time>2022-06-11T14:30:31Z</time>
      </trkpt>
      <trkpt lat="44.1056" lon="6.84666">
        <ele>859.9</ele>
        <time>2022-06-11T14:30:32Z</time>
      </trkpt>
      <trkpt lat="44.10563" lon="6.84662">
        <ele>860</ele>
        <time>2022-06-11T14:30:33Z</time>
      </trkpt>
      <trkpt lat="44.10566" lon="6.84659">
        <ele>860.1</ele>
        <time>2022-06-11T14:30:34Z</time>
      </trkpt>
      <trkpt lat="44.10568" lon="6.84655">
        <ele>860.2</ele>
        <time>2022-06-11T14:30:35Z</time>
      </trkpt>
      <trkpt lat="44.10571" lon="6.84651">
        <ele>860.3</ele>
        <time>2022-06-11T14:30:36Z</time>
      </trkpt>
      <trkpt lat="44.10574" lon="6.84647">
        <ele>860.6</ele>
        <time>2022-06-11T14:30:37Z</time>
      </trkpt>
      <trkpt lat="44.10576" lon="6.84644">
        <ele>860.8</ele>
        <time>2022-06-11T14:30:38Z</time>
      </trkpt>
      <trkpt lat="44.10579" lon="6.8464">
        <ele>861.1</ele>
        <time>2022-06-11T14:30:39Z</time>
      </trkpt>
      <trkpt lat="44.10583" lon="6.84637">
        <ele>861.5</ele>
        <time>2022-06-11T14:30:40Z</time>
      </trkpt>
      <trkpt lat="44.10586" lon="6.84634">
        <ele>862.1</ele>
        <time>2022-06-11T14:30:41Z</time>
      </trkpt>
      <trkpt lat="44.1059" lon="6.8463">
        <ele>862.7</ele>
        <time>2022-06-11T14:30:42Z</time>
      </trkpt>
      <trkpt lat="44.10593" lon="6.84628">
        <ele>863.3</ele>
        <time>2022-06-11T14:30:43Z</time>
      </trkpt>
      <trkpt lat="44.10597" lon="6.84626">
        <ele>864.4</ele>
        <time>2022-06-11T14:30:44Z</time>
      </trkpt>
      <trkpt lat="44.10601" lon="6.84624">
        <ele>865.1</ele>
        <time>2022-06-11T14:30:45Z</time>
      </trkpt>
      <trkpt lat="44.10604" lon="6.84621">
        <ele>865.1</ele>
        <time>2022-06-11T14:30:46Z</time>
      </trkpt>
      <trkpt lat="44.10607" lon="6.84617">
        <ele>864.8</ele>
        <time>2022-06-11T14:30:47Z</time>
      </trkpt>
      <trkpt lat="44.1061" lon="6.84611">
        <ele>863.5</ele>
        <time>2022-06-11T14:30:48Z</time>
      </trkpt>
      <trkpt lat="44.10612" lon="6.84605">
        <ele>863.7</ele>
        <time>2022-06-11T14:30:49Z</time>
      </trkpt>
      <trkpt lat="44.10615" lon="6.84598">
        <ele>863.9</ele>
        <time>2022-06-11T14:30:50Z</time>
      </trkpt>
      <trkpt lat="44.10617" lon="6.84591">
        <ele>863.9</ele>
        <time>2022-06-11T14:30:51Z</time>
      </trkpt>
      <trkpt lat="44.1062" lon="6.84584">
        <ele>863.7</ele>
        <time>2022-06-11T14:30:52Z</time>
      </trkpt>
      <trkpt lat="44.10622" lon="6.84576">
        <ele>863.9</ele>
        <time>2022-06-11T14:30:53Z</time>
      </trkpt>
      <trkpt lat="44.10625" lon="6.84569">
        <ele>864</ele>
        <time>2022-06-11T14:30:54Z</time>
      </trkpt>
      <trkpt lat="44.10628" lon="6.84562">
        <ele>863.8</ele>
        <time>2022-06-11T14:30:55Z</time>
      </trkpt>
      <trkpt lat="44.1063" lon="6.84554">
        <ele>863.7</ele>
        <time>2022-06-11T14:30:56Z</time>
      </trkpt>
      <trkpt lat="44.10633" lon="6.84546">
        <ele>863.7</ele>
        <time>2022-06-11T14:30:57Z</time>
      </trkpt>
      <trkpt lat="44.10636" lon="6.84539">
        <ele>863.9</ele>
        <time>2022-06-11T14:30:58Z</time>
      </trkpt>
      <trkpt lat="44.10638" lon="6.84532">
        <ele>864.1</ele>
        <time>2022-06-11T14:30:59Z</time>
      </trkpt>
      <trkpt lat="44.10641" lon="6.84524">
        <ele>864.2</ele>
        <time>2022-06-11T14:31:00Z</time>
      </trkpt>
      <trkpt lat="44.10643" lon="6.84516">
        <ele>864</ele>
        <time>2022-06-11T14:31:01Z</time>
      </trkpt>
      <trkpt lat="44.10645" lon="6.84508">
        <ele>863.7</ele>
        <time>2022-06-11T14:31:02Z</time>
      </trkpt>
      <trkpt lat="44.10647" lon="6.84501">
        <ele>863.1</ele>
        <time>2022-06-11T14:31:03Z</time>
      </trkpt>
      <trkpt lat="44.10648" lon="6.84493">
        <ele>863.2</ele>
        <time>2022-06-11T14:31:04Z</time>
      </trkpt>
      <trkpt lat="44.1065" lon="6.84486">
        <ele>863</ele>
        <time>2022-06-11T14:31:05Z</time>
      </trkpt>
      <trkpt lat="44.10651" lon="6.84479">
        <ele>863</ele>
        <time>2022-06-11T14:31:06Z</time>
      </trkpt>
      <trkpt lat="44.10652" lon="6.84472">
        <ele>862.7</ele>
        <time>2022-06-11T14:31:07Z</time>
      </trkpt>
      <trkpt lat="44.10653" lon="6.84466">
        <ele>863</ele>
        <time>2022-06-11T14:31:08Z</time>
      </trkpt>
      <trkpt lat="44.10654" lon="6.84458">
        <ele>863.2</ele>
        <time>2022-06-11T14:31:09Z</time>
      </trkpt>
      <trkpt lat="44.10657" lon="6.84452">
        <ele>864.1</ele>
        <time>2022-06-11T14:31:10Z</time>
      </trkpt>
      <trkpt lat="44.10662" lon="6.84447">
        <ele>865.6</ele>
        <time>2022-06-11T14:31:11Z</time>
      </trkpt>
      <trkpt lat="44.10667" lon="6.84443">
        <ele>866.5</ele>
        <time>2022-06-11T14:31:12Z</time>
      </trkpt>
      <trkpt lat="44.10672" lon="6.84437">
        <ele>865.7</ele>
        <time>2022-06-11T14:31:13Z</time>
      </trkpt>
      <trkpt lat="44.10675" lon="6.84431">
        <ele>865.1</ele>
        <time>2022-06-11T14:31:14Z</time>
      </trkpt>
      <trkpt lat="44.10677" lon="6.84423">
        <ele>863.9</ele>
        <time>2022-06-11T14:31:15Z</time>
      </trkpt>
      <trkpt lat="44.10677" lon="6.84414">
        <ele>862.9</ele>
        <time>2022-06-11T14:31:16Z</time>
      </trkpt>
      <trkpt lat="44.10676" lon="6.84405">
        <ele>863.2</ele>
        <time>2022-06-11T14:31:17Z</time>
      </trkpt>
      <trkpt lat="44.10674" lon="6.84396">
        <ele>863</ele>
        <time>2022-06-11T14:31:18Z</time>
      </trkpt>
      <trkpt lat="44.10672" lon="6.84387">
        <ele>862.5</ele>
        <time>2022-06-11T14:31:19Z</time>
      </trkpt>
      <trkpt lat="44.1067" lon="6.84379">
        <ele>862.2</ele>
        <time>2022-06-11T14:31:20Z</time>
      </trkpt>
      <trkpt lat="44.10669" lon="6.84371">
        <ele>862.2</ele>
        <time>2022-06-11T14:31:21Z</time>
      </trkpt>
      <trkpt lat="44.10669" lon="6.84364">
        <ele>862.7</ele>
        <time>2022-06-11T14:31:22Z</time>
      </trkpt>
      <trkpt lat="44.1067" lon="6.84356">
        <ele>863</ele>
        <time>2022-06-11T14:31:23Z</time>
      </trkpt>
      <trkpt lat="44.10672" lon="6.84349">
        <ele>863.2</ele>
        <time>2022-06-11T14:31:24Z</time>
      </trkpt>
      <trkpt lat="44.10674" lon="6.84341">
        <ele>863.6</ele>
        <time>2022-06-11T14:31:25Z</time>
      </trkpt>
      <trkpt lat="44.10677" lon="6.84334">
        <ele>863.9</ele>
        <time>2022-06-11T14:31:26Z</time>
      </trkpt>
      <trkpt lat="44.10679" lon="6.84326">
        <ele>863.7</ele>
        <time>2022-06-11T14:31:27Z</time>
      </trkpt>
      <trkpt lat="44.10682" lon="6.84319">
        <ele>863.7</ele>
        <time>2022-06-11T14:31:28Z</time>
      </trkpt>
      <trkpt lat="44.10685" lon="6.84312">
        <ele>863.8</ele>
        <time>2022-06-11T14:31:29Z</time>
      </trkpt>
      <trkpt lat="44.10688" lon="6.84304">
        <ele>864.1</ele>
        <time>2022-06-11T14:31:30Z</time>
      </trkpt>
      <trkpt lat="44.1069" lon="6.84297">
        <ele>864.2</ele>
        <time>2022-06-11T14:31:31Z</time>
      </trkpt>
      <trkpt lat="44.10693" lon="6.84289">
        <ele>864</ele>
        <time>2022-06-11T14:31:32Z</time>
      </trkpt>
      <trkpt lat="44.10696" lon="6.84282">
        <ele>864.1</ele>
        <time>2022-06-11T14:31:33Z</time>
      </trkpt>
      <trkpt lat="44.10698" lon="6.84274">
        <ele>864.4</ele>
        <time>2022-06-11T14:31:34Z</time>
      </trkpt>
      <trkpt lat="44.107" lon="6.84267">
        <ele>865</ele>
        <time>2022-06-11T14:31:35Z</time>
      </trkpt>
      <trkpt lat="44.10703" lon="6.8426">
        <ele>865.5</ele>
        <time>2022-06-11T14:31:36Z</time>
      </trkpt>
      <trkpt lat="44.10705" lon="6.84253">
        <ele>866</ele>
        <time>2022-06-11T14:31:37Z</time>
      </trkpt>
      <trkpt lat="44.10707" lon="6.84246">
        <ele>866.3</ele>
        <time>2022-06-11T14:31:38Z</time>
      </trkpt>
      <trkpt lat="44.1071" lon="6.8424">
        <ele>866.7</ele>
        <time>2022-06-11T14:31:39Z</time>
      </trkpt>
      <trkpt lat="44.10713" lon="6.84233">
        <ele>867</ele>
        <time>2022-06-11T14:31:40Z</time>
      </trkpt>
      <trkpt lat="44.10715" lon="6.84227">
        <ele>867.2</ele>
        <time>2022-06-11T14:31:41Z</time>
      </trkpt>
      <trkpt lat="44.10718" lon="6.8422">
        <ele>867.7</ele>
        <time>2022-06-11T14:31:42Z</time>
      </trkpt>
      <trkpt lat="44.1072" lon="6.84213">
        <ele>868.3</ele>
        <time>2022-06-11T14:31:43Z</time>
      </trkpt>
      <trkpt lat="44.10722" lon="6.84206">
        <ele>868.8</ele>
        <time>2022-06-11T14:31:44Z</time>
      </trkpt>
      <trkpt lat="44.10724" lon="6.842">
        <ele>869</ele>
        <time>2022-06-11T14:31:45Z</time>
      </trkpt>
      <trkpt lat="44.10725" lon="6.84193">
        <ele>869.1</ele>
        <time>2022-06-11T14:31:46Z</time>
      </trkpt>
      <trkpt lat="44.10726" lon="6.84186">
        <ele>869.3</ele>
        <time>2022-06-11T14:31:47Z</time>
      </trkpt>
      <trkpt lat="44.10726" lon="6.84179">
        <ele>869.3</ele>
        <time>2022-06-11T14:31:48Z</time>
      </trkpt>
      <trkpt lat="44.10726" lon="6.84172">
        <ele>869</ele>
        <time>2022-06-11T14:31:49Z</time>
      </trkpt>
      <trkpt lat="44.10726" lon="6.84165">
        <ele>868.6</ele>
        <time>2022-06-11T14:31:50Z</time>
      </trkpt>
      <trkpt lat="44.10727" lon="6.84159">
        <ele>868.3</ele>
        <time>2022-06-11T14:31:51Z</time>
      </trkpt>
      <trkpt lat="44.10728" lon="6.84152">
        <ele>868</ele>
        <time>2022-06-11T14:31:52Z</time>
      </trkpt>
      <trkpt lat="44.10729" lon="6.84145">
        <ele>867.7</ele>
        <time>2022-06-11T14:31:53Z</time>
      </trkpt>
      <trkpt lat="44.10731" lon="6.84138">
        <ele>867.6</ele>
        <time>2022-06-11T14:31:54Z</time>
      </trkpt>
      <trkpt lat="44.10733" lon="6.84132">
        <ele>867.7</ele>
        <time>2022-06-11T14:31:55Z</time>
      </trkpt>
      <trkpt lat="44.10735" lon="6.84126">
        <ele>867.9</ele>
        <time>2022-06-11T14:31:56Z</time>
      </trkpt>
      <trkpt lat="44.10738" lon="6.84121">
        <ele>868.1</ele>
        <time>2022-06-11T14:31:57Z</time>
      </trkpt>
      <trkpt lat="44.10742" lon="6.84115">
        <ele>868.3</ele>
        <time>2022-06-11T14:31:58Z</time>
      </trkpt>
      <trkpt lat="44.10745" lon="6.8411">
        <ele>868.5</ele>
        <time>2022-06-11T14:31:59Z</time>
      </trkpt>
      <trkpt lat="44.10748" lon="6.84104">
        <ele>868.3</ele>
        <time>2022-06-11T14:32:00Z</time>
      </trkpt>
      <trkpt lat="44.10751" lon="6.84097">
        <ele>868.5</ele>
        <time>2022-06-11T14:32:01Z</time>
      </trkpt>
      <trkpt lat="44.10754" lon="6.84091">
        <ele>869.2</ele>
        <time>2022-06-11T14:32:02Z</time>
      </trkpt>
      <trkpt lat="44.10757" lon="6.84084">
        <ele>869.7</ele>
        <time>2022-06-11T14:32:03Z</time>
      </trkpt>
      <trkpt lat="44.10759" lon="6.84077">
        <ele>870.3</ele>
        <time>2022-06-11T14:32:04Z</time>
      </trkpt>
      <trkpt lat="44.10762" lon="6.84071">
        <ele>870.8</ele>
        <time>2022-06-11T14:32:05Z</time>
      </trkpt>
      <trkpt lat="44.10765" lon="6.84064">
        <ele>871.2</ele>
        <time>2022-06-11T14:32:06Z</time>
      </trkpt>
      <trkpt lat="44.10768" lon="6.84057">
        <ele>871.4</ele>
        <time>2022-06-11T14:32:07Z</time>
      </trkpt>
      <trkpt lat="44.10771" lon="6.84051">
        <ele>871.1</ele>
        <time>2022-06-11T14:32:08Z</time>
      </trkpt>
      <trkpt lat="44.10774" lon="6.84044">
        <ele>870.6</ele>
        <time>2022-06-11T14:32:09Z</time>
      </trkpt>
      <trkpt lat="44.10778" lon="6.84037">
        <ele>870.2</ele>
        <time>2022-06-11T14:32:10Z</time>
      </trkpt>
      <trkpt lat="44.10781" lon="6.8403">
        <ele>869.8</ele>
        <time>2022-06-11T14:32:11Z</time>
      </trkpt>
      <trkpt lat="44.10783" lon="6.84023">
        <ele>869.7</ele>
        <time>2022-06-11T14:32:12Z</time>
      </trkpt>
      <trkpt lat="44.10786" lon="6.84016">
        <ele>869.7</ele>
        <time>2022-06-11T14:32:13Z</time>
      </trkpt>
      <trkpt lat="44.10789" lon="6.84008">
        <ele>869.4</ele>
        <time>2022-06-11T14:32:14Z</time>
      </trkpt>
      <trkpt lat="44.10791" lon="6.84">
        <ele>868.6</ele>
        <time>2022-06-11T14:32:15Z</time>
      </trkpt>
      <trkpt lat="44.10792" lon="6.83992">
        <ele>869.3</ele>
        <time>2022-06-11T14:32:16Z</time>
      </trkpt>
      <trkpt lat="44.10792" lon="6.83984">
        <ele>869.8</ele>
        <time>2022-06-11T14:32:17Z</time>
      </trkpt>
      <trkpt lat="44.10792" lon="6.83975">
        <ele>870.1</ele>
        <time>2022-06-11T14:32:18Z</time>
      </trkpt>
      <trkpt lat="44.10792" lon="6.83967">
        <ele>870.3</ele>
        <time>2022-06-11T14:32:19Z</time>
      </trkpt>
      <trkpt lat="44.10793" lon="6.83958">
        <ele>870.6</ele>
        <time>2022-06-11T14:32:20Z</time>
      </trkpt>
      <trkpt lat="44.10795" lon="6.83949">
        <ele>871</ele>
        <time>2022-06-11T14:32:21Z</time>
      </trkpt>
      <trkpt lat="44.10798" lon="6.83941">
        <ele>871</ele>
        <time>2022-06-11T14:32:22Z</time>
      </trkpt>
      <trkpt lat="44.10801" lon="6.83934">
        <ele>870.1</ele>
        <time>2022-06-11T14:32:23Z</time>
      </trkpt>
      <trkpt lat="44.10804" lon="6.83926">
        <ele>869.1</ele>
        <time>2022-06-11T14:32:24Z</time>
      </trkpt>
      <trkpt lat="44.10808" lon="6.83918">
        <ele>868.2</ele>
        <time>2022-06-11T14:32:25Z</time>
      </trkpt>
      <trkpt lat="44.1081" lon="6.83909">
        <ele>869.2</ele>
        <time>2022-06-11T14:32:26Z</time>
      </trkpt>
      <trkpt lat="44.10812" lon="6.839">
        <ele>869.9</ele>
        <time>2022-06-11T14:32:27Z</time>
      </trkpt>
      <trkpt lat="44.10814" lon="6.83891">
        <ele>870.2</ele>
        <time>2022-06-11T14:32:28Z</time>
      </trkpt>
      <trkpt lat="44.10815" lon="6.83882">
        <ele>870.4</ele>
        <time>2022-06-11T14:32:29Z</time>
      </trkpt>
      <trkpt lat="44.10817" lon="6.83873">
        <ele>870.7</ele>
        <time>2022-06-11T14:32:30Z</time>
      </trkpt>
      <trkpt lat="44.1082" lon="6.83865">
        <ele>871.3</ele>
        <time>2022-06-11T14:32:31Z</time>
      </trkpt>
      <trkpt lat="44.10823" lon="6.83858">
        <ele>871.4</ele>
        <time>2022-06-11T14:32:32Z</time>
      </trkpt>
      <trkpt lat="44.10828" lon="6.83852">
        <ele>871.2</ele>
        <time>2022-06-11T14:32:33Z</time>
      </trkpt>
      <trkpt lat="44.10832" lon="6.83846">
        <ele>871.1</ele>
        <time>2022-06-11T14:32:34Z</time>
      </trkpt>
      <trkpt lat="44.10837" lon="6.8384">
        <ele>871.8</ele>
        <time>2022-06-11T14:32:35Z</time>
      </trkpt>
      <trkpt lat="44.10841" lon="6.83835">
        <ele>873.2</ele>
        <time>2022-06-11T14:32:36Z</time>
      </trkpt>
      <trkpt lat="44.10846" lon="6.83831">
        <ele>874.1</ele>
        <time>2022-06-11T14:32:37Z</time>
      </trkpt>
      <trkpt lat="44.10851" lon="6.83826">
        <ele>874</ele>
        <time>2022-06-11T14:32:38Z</time>
      </trkpt>
      <trkpt lat="44.10855" lon="6.83821">
        <ele>873.8</ele>
        <time>2022-06-11T14:32:39Z</time>
      </trkpt>
      <trkpt lat="44.1086" lon="6.83816">
        <ele>873.6</ele>
        <time>2022-06-11T14:32:40Z</time>
      </trkpt>
      <trkpt lat="44.10865" lon="6.83811">
        <ele>872.2</ele>
        <time>2022-06-11T14:32:41Z</time>
      </trkpt>
      <trkpt lat="44.1087" lon="6.83807">
        <ele>871.5</ele>
        <time>2022-06-11T14:32:42Z</time>
      </trkpt>
      <trkpt lat="44.10876" lon="6.83803">
        <ele>871</ele>
        <time>2022-06-11T14:32:43Z</time>
      </trkpt>
      <trkpt lat="44.10882" lon="6.83799">
        <ele>870.8</ele>
        <time>2022-06-11T14:32:44Z</time>
      </trkpt>
      <trkpt lat="44.10889" lon="6.83796">
        <ele>870.8</ele>
        <time>2022-06-11T14:32:45Z</time>
      </trkpt>
      <trkpt lat="44.10896" lon="6.83792">
        <ele>871.2</ele>
        <time>2022-06-11T14:32:46Z</time>
      </trkpt>
      <trkpt lat="44.10903" lon="6.83789">
        <ele>871.4</ele>
        <time>2022-06-11T14:32:47Z</time>
      </trkpt>
      <trkpt lat="44.10909" lon="6.83786">
        <ele>871.6</ele>
        <time>2022-06-11T14:32:48Z</time>
      </trkpt>
      <trkpt lat="44.10916" lon="6.83784">
        <ele>872.1</ele>
        <time>2022-06-11T14:32:49Z</time>
      </trkpt>
      <trkpt lat="44.10923" lon="6.83781">
        <ele>871.1</ele>
        <time>2022-06-11T14:32:50Z</time>
      </trkpt>
      <trkpt lat="44.1093" lon="6.83779">
        <ele>870.6</ele>
        <time>2022-06-11T14:32:51Z</time>
      </trkpt>
      <trkpt lat="44.10937" lon="6.83777">
        <ele>870.3</ele>
        <time>2022-06-11T14:32:52Z</time>
      </trkpt>
      <trkpt lat="44.10943" lon="6.83774">
        <ele>870.2</ele>
        <time>2022-06-11T14:32:53Z</time>
      </trkpt>
      <trkpt lat="44.1095" lon="6.8377">
        <ele>870.7</ele>
        <time>2022-06-11T14:32:54Z</time>
      </trkpt>
      <trkpt lat="44.10956" lon="6.83766">
        <ele>870.9</ele>
        <time>2022-06-11T14:32:55Z</time>
      </trkpt>
      <trkpt lat="44.10962" lon="6.83763">
        <ele>871.5</ele>
        <time>2022-06-11T14:32:56Z</time>
      </trkpt>
      <trkpt lat="44.10968" lon="6.8376">
        <ele>871.7</ele>
        <time>2022-06-11T14:32:57Z</time>
      </trkpt>
      <trkpt lat="44.10974" lon="6.83756">
        <ele>871</ele>
        <time>2022-06-11T14:32:58Z</time>
      </trkpt>
      <trkpt lat="44.1098" lon="6.83752">
        <ele>870.7</ele>
        <time>2022-06-11T14:32:59Z</time>
      </trkpt>
      <trkpt lat="44.10986" lon="6.83748">
        <ele>870.9</ele>
        <time>2022-06-11T14:33:00Z</time>
      </trkpt>
      <trkpt lat="44.10992" lon="6.83743">
        <ele>871</ele>
        <time>2022-06-11T14:33:01Z</time>
      </trkpt>
      <trkpt lat="44.10998" lon="6.83738">
        <ele>871.2</ele>
        <time>2022-06-11T14:33:02Z</time>
      </trkpt>
      <trkpt lat="44.11004" lon="6.83734">
        <ele>871.4</ele>
        <time>2022-06-11T14:33:03Z</time>
      </trkpt>
      <trkpt lat="44.1101" lon="6.8373">
        <ele>871.4</ele>
        <time>2022-06-11T14:33:04Z</time>
      </trkpt>
      <trkpt lat="44.11016" lon="6.83727">
        <ele>871.2</ele>
        <time>2022-06-11T14:33:05Z</time>
      </trkpt>
      <trkpt lat="44.11022" lon="6.83723">
        <ele>870.9</ele>
        <time>2022-06-11T14:33:06Z</time>
      </trkpt>
      <trkpt lat="44.11028" lon="6.8372">
        <ele>870.7</ele>
        <time>2022-06-11T14:33:07Z</time>
      </trkpt>
      <trkpt lat="44.11034" lon="6.83717">
        <ele>871</ele>
        <time>2022-06-11T14:33:08Z</time>
      </trkpt>
      <trkpt lat="44.1104" lon="6.83714">
        <ele>871.3</ele>
        <time>2022-06-11T14:33:09Z</time>
      </trkpt>
      <trkpt lat="44.11046" lon="6.83712">
        <ele>871.9</ele>
        <time>2022-06-11T14:33:10Z</time>
      </trkpt>
      <trkpt lat="44.11053" lon="6.8371">
        <ele>872.4</ele>
        <time>2022-06-11T14:33:11Z</time>
      </trkpt>
      <trkpt lat="44.11059" lon="6.83708">
        <ele>872.2</ele>
        <time>2022-06-11T14:33:12Z</time>
      </trkpt>
      <trkpt lat="44.11066" lon="6.83705">
        <ele>871.3</ele>
        <time>2022-06-11T14:33:13Z</time>
      </trkpt>
      <trkpt lat="44.11072" lon="6.83704">
        <ele>870.7</ele>
        <time>2022-06-11T14:33:14Z</time>
      </trkpt>
      <trkpt lat="44.11079" lon="6.83701">
        <ele>869.9</ele>
        <time>2022-06-11T14:33:15Z</time>
      </trkpt>
      <trkpt lat="44.11085" lon="6.837">
        <ele>869.5</ele>
        <time>2022-06-11T14:33:16Z</time>
      </trkpt>
      <trkpt lat="44.11092" lon="6.83698">
        <ele>869.3</ele>
        <time>2022-06-11T14:33:17Z</time>
      </trkpt>
      <trkpt lat="44.11098" lon="6.83698">
        <ele>869.5</ele>
        <time>2022-06-11T14:33:18Z</time>
      </trkpt>
      <trkpt lat="44.11105" lon="6.83698">
        <ele>869.7</ele>
        <time>2022-06-11T14:33:19Z</time>
      </trkpt>
      <trkpt lat="44.11112" lon="6.83698">
        <ele>870.3</ele>
        <time>2022-06-11T14:33:20Z</time>
      </trkpt>
      <trkpt lat="44.11118" lon="6.83698">
        <ele>870.9</ele>
        <time>2022-06-11T14:33:21Z</time>
      </trkpt>
      <trkpt lat="44.11125" lon="6.83698">
        <ele>871.1</ele>
        <time>2022-06-11T14:33:22Z</time>
      </trkpt>
      <trkpt lat="44.11132" lon="6.83698">
        <ele>871.5</ele>
        <time>2022-06-11T14:33:23Z</time>
      </trkpt>
      <trkpt lat="44.11138" lon="6.83697">
        <ele>871.3</ele>
        <time>2022-06-11T14:33:24Z</time>
      </trkpt>
      <trkpt lat="44.11145" lon="6.83695">
        <ele>870.6</ele>
        <time>2022-06-11T14:33:25Z</time>
      </trkpt>
      <trkpt lat="44.11151" lon="6.83693">
        <ele>869.9</ele>
        <time>2022-06-11T14:33:26Z</time>
      </trkpt>
      <trkpt lat="44.11158" lon="6.83692">
        <ele>869.5</ele>
        <time>2022-06-11T14:33:27Z</time>
      </trkpt>
      <trkpt lat="44.11164" lon="6.8369">
        <ele>869.1</ele>
        <time>2022-06-11T14:33:28Z</time>
      </trkpt>
      <trkpt lat="44.11171" lon="6.83689">
        <ele>869.9</ele>
        <time>2022-06-11T14:33:29Z</time>
      </trkpt>
      <trkpt lat="44.11177" lon="6.83688">
        <ele>871.4</ele>
        <time>2022-06-11T14:33:30Z</time>
      </trkpt>
      <trkpt lat="44.11183" lon="6.83687">
        <ele>872.5</ele>
        <time>2022-06-11T14:33:31Z</time>
      </trkpt>
      <trkpt lat="44.11189" lon="6.83685">
        <ele>873.7</ele>
        <time>2022-06-11T14:33:32Z</time>
      </trkpt>
      <trkpt lat="44.11195" lon="6.83683">
        <ele>874.5</ele>
        <time>2022-06-11T14:33:33Z</time>
      </trkpt>
      <trkpt lat="44.11201" lon="6.8368">
        <ele>873.5</ele>
        <time>2022-06-11T14:33:34Z</time>
      </trkpt>
      <trkpt lat="44.11206" lon="6.83676">
        <ele>871.7</ele>
        <time>2022-06-11T14:33:35Z</time>
      </trkpt>
      <trkpt lat="44.11211" lon="6.83671">
        <ele>868.8</ele>
        <time>2022-06-11T14:33:36Z</time>
      </trkpt>
      <trkpt lat="44.11215" lon="6.83664">
        <ele>865.8</ele>
        <time>2022-06-11T14:33:37Z</time>
      </trkpt>
      <trkpt lat="44.11217" lon="6.83657">
        <ele>863.3</ele>
        <time>2022-06-11T14:33:38Z</time>
      </trkpt>
      <trkpt lat="44.1122" lon="6.83649">
        <ele>860.7</ele>
        <time>2022-06-11T14:33:39Z</time>
      </trkpt>
      <trkpt lat="44.11222" lon="6.83641">
        <ele>857.8</ele>
        <time>2022-06-11T14:33:40Z</time>
      </trkpt>
      <trkpt lat="44.11223" lon="6.83634">
        <ele>856.8</ele>
        <time>2022-06-11T14:33:41Z</time>
      </trkpt>
      <trkpt lat="44.11224" lon="6.83626">
        <ele>856.6</ele>
        <time>2022-06-11T14:33:42Z</time>
      </trkpt>
      <trkpt lat="44.11224" lon="6.83618">
        <ele>856.3</ele>
        <time>2022-06-11T14:33:43Z</time>
      </trkpt>
      <trkpt lat="44.11225" lon="6.8361">
        <ele>855.9</ele>
        <time>2022-06-11T14:33:44Z</time>
      </trkpt>
      <trkpt lat="44.11226" lon="6.83602">
        <ele>854.8</ele>
        <time>2022-06-11T14:33:45Z</time>
      </trkpt>
      <trkpt lat="44.11227" lon="6.83594">
        <ele>853.7</ele>
        <time>2022-06-11T14:33:46Z</time>
      </trkpt>
      <trkpt lat="44.11227" lon="6.83587">
        <ele>852.7</ele>
        <time>2022-06-11T14:33:47Z</time>
      </trkpt>
      <trkpt lat="44.11228" lon="6.8358">
        <ele>854.7</ele>
        <time>2022-06-11T14:33:48Z</time>
      </trkpt>
      <trkpt lat="44.11228" lon="6.83572">
        <ele>859.5</ele>
        <time>2022-06-11T14:33:49Z</time>
      </trkpt>
      <trkpt lat="44.11228" lon="6.83566">
        <ele>863.8</ele>
        <time>2022-06-11T14:33:50Z</time>
      </trkpt>
      <trkpt lat="44.11227" lon="6.83559">
        <ele>868.1</ele>
        <time>2022-06-11T14:33:51Z</time>
      </trkpt>
      <trkpt lat="44.11224" lon="6.83553">
        <ele>872.5</ele>
        <time>2022-06-11T14:33:52Z</time>
      </trkpt>
      <trkpt lat="44.11221" lon="6.83548">
        <ele>875.5</ele>
        <time>2022-06-11T14:33:53Z</time>
      </trkpt>
      <trkpt lat="44.11217" lon="6.83542">
        <ele>877</ele>
        <time>2022-06-11T14:33:54Z</time>
      </trkpt>
      <trkpt lat="44.11214" lon="6.83537">
        <ele>877.9</ele>
        <time>2022-06-11T14:33:55Z</time>
      </trkpt>
      <trkpt lat="44.1121" lon="6.83532">
        <ele>878</ele>
        <time>2022-06-11T14:33:56Z</time>
      </trkpt>
      <trkpt lat="44.11206" lon="6.83527">
        <ele>877.6</ele>
        <time>2022-06-11T14:33:57Z</time>
      </trkpt>
      <trkpt lat="44.11202" lon="6.83522">
        <ele>876.3</ele>
        <time>2022-06-11T14:33:58Z</time>
      </trkpt>
      <trkpt lat="44.11198" lon="6.83517">
        <ele>875.1</ele>
        <time>2022-06-11T14:33:59Z</time>
      </trkpt>
      <trkpt lat="44.11195" lon="6.83512">
        <ele>873.8</ele>
        <time>2022-06-11T14:34:00Z</time>
      </trkpt>
      <trkpt lat="44.11191" lon="6.83508">
        <ele>873.8</ele>
        <time>2022-06-11T14:34:01Z</time>
      </trkpt>
      <trkpt lat="44.11187" lon="6.83503">
        <ele>873.9</ele>
        <time>2022-06-11T14:34:02Z</time>
      </trkpt>
      <trkpt lat="44.11183" lon="6.83499">
        <ele>874.4</ele>
        <time>2022-06-11T14:34:03Z</time>
      </trkpt>
      <trkpt lat="44.11179" lon="6.83494">
        <ele>875.1</ele>
        <time>2022-06-11T14:34:04Z</time>
      </trkpt>
      <trkpt lat="44.11176" lon="6.8349">
        <ele>875.5</ele>
        <time>2022-06-11T14:34:05Z</time>
      </trkpt>
      <trkpt lat="44.11173" lon="6.83486">
        <ele>875.9</ele>
        <time>2022-06-11T14:34:06Z</time>
      </trkpt>
      <trkpt lat="44.11169" lon="6.83483">
        <ele>875.7</ele>
        <time>2022-06-11T14:34:07Z</time>
      </trkpt>
      <trkpt lat="44.11165" lon="6.8348">
        <ele>875.6</ele>
        <time>2022-06-11T14:34:08Z</time>
      </trkpt>
      <trkpt lat="44.11162" lon="6.83476">
        <ele>875.9</ele>
        <time>2022-06-11T14:34:09Z</time>
      </trkpt>
      <trkpt lat="44.11159" lon="6.83473">
        <ele>876.1</ele>
        <time>2022-06-11T14:34:10Z</time>
      </trkpt>
      <trkpt lat="44.11156" lon="6.8347">
        <ele>876.9</ele>
        <time>2022-06-11T14:34:11Z</time>
      </trkpt>
      <trkpt lat="44.11153" lon="6.83468">
        <ele>876.8</ele>
        <time>2022-06-11T14:34:12Z</time>
      </trkpt>
      <trkpt lat="44.1115" lon="6.83465">
        <ele>876.9</ele>
        <time>2022-06-11T14:34:13Z</time>
      </trkpt>
      <trkpt lat="44.11146" lon="6.83463">
        <ele>876.6</ele>
        <time>2022-06-11T14:34:14Z</time>
      </trkpt>
      <trkpt lat="44.11143" lon="6.8346">
        <ele>876</ele>
        <time>2022-06-11T14:34:15Z</time>
      </trkpt>
      <trkpt lat="44.11141" lon="6.83458">
        <ele>875.2</ele>
        <time>2022-06-11T14:34:16Z</time>
      </trkpt>
      <trkpt lat="44.11138" lon="6.83455">
        <ele>874.6</ele>
        <time>2022-06-11T14:34:17Z</time>
      </trkpt>
      <trkpt lat="44.11134" lon="6.83452">
        <ele>874.5</ele>
        <time>2022-06-11T14:34:18Z</time>
      </trkpt>
      <trkpt lat="44.11131" lon="6.83449">
        <ele>874.7</ele>
        <time>2022-06-11T14:34:19Z</time>
      </trkpt>
      <trkpt lat="44.11128" lon="6.83446">
        <ele>875</ele>
        <time>2022-06-11T14:34:20Z</time>
      </trkpt>
      <trkpt lat="44.11125" lon="6.83442">
        <ele>875.9</ele>
        <time>2022-06-11T14:34:21Z</time>
      </trkpt>
      <trkpt lat="44.11123" lon="6.83439">
        <ele>876.7</ele>
        <time>2022-06-11T14:34:22Z</time>
      </trkpt>
      <trkpt lat="44.1112" lon="6.83436">
        <ele>877.3</ele>
        <time>2022-06-11T14:34:23Z</time>
      </trkpt>
      <trkpt lat="44.11117" lon="6.83434">
        <ele>877.7</ele>
        <time>2022-06-11T14:34:24Z</time>
      </trkpt>
      <trkpt lat="44.11114" lon="6.83431">
        <ele>877.9</ele>
        <time>2022-06-11T14:34:25Z</time>
      </trkpt>
      <trkpt lat="44.11111" lon="6.83428">
        <ele>877.9</ele>
        <time>2022-06-11T14:34:26Z</time>
      </trkpt>
      <trkpt lat="44.11108" lon="6.83426">
        <ele>878.1</ele>
        <time>2022-06-11T14:34:27Z</time>
      </trkpt>
      <trkpt lat="44.11105" lon="6.83423">
        <ele>878.2</ele>
        <time>2022-06-11T14:34:28Z</time>
      </trkpt>
      <trkpt lat="44.11101" lon="6.83421">
        <ele>878.1</ele>
        <time>2022-06-11T14:34:29Z</time>
      </trkpt>
      <trkpt lat="44.11098" lon="6.83419">
        <ele>877.9</ele>
        <time>2022-06-11T14:34:30Z</time>
      </trkpt>
      <trkpt lat="44.11094" lon="6.83418">
        <ele>877.2</ele>
        <time>2022-06-11T14:34:31Z</time>
      </trkpt>
      <trkpt lat="44.11091" lon="6.83417">
        <ele>876.4</ele>
        <time>2022-06-11T14:34:32Z</time>
      </trkpt>
      <trkpt lat="44.11087" lon="6.83416">
        <ele>875.4</ele>
        <time>2022-06-11T14:34:33Z</time>
      </trkpt>
      <trkpt lat="44.11083" lon="6.83415">
        <ele>874.5</ele>
        <time>2022-06-11T14:34:34Z</time>
      </trkpt>
      <trkpt lat="44.1108" lon="6.83414">
        <ele>874.8</ele>
        <time>2022-06-11T14:34:35Z</time>
      </trkpt>
      <trkpt lat="44.11076" lon="6.83414">
        <ele>875.1</ele>
        <time>2022-06-11T14:34:36Z</time>
      </trkpt>
      <trkpt lat="44.11073" lon="6.83413">
        <ele>875.3</ele>
        <time>2022-06-11T14:34:37Z</time>
      </trkpt>
      <trkpt lat="44.11069" lon="6.83412">
        <ele>875.6</ele>
        <time>2022-06-11T14:34:38Z</time>
      </trkpt>
      <trkpt lat="44.11066" lon="6.83412">
        <ele>875.6</ele>
        <time>2022-06-11T14:34:39Z</time>
      </trkpt>
      <trkpt lat="44.11062" lon="6.83412">
        <ele>875.7</ele>
        <time>2022-06-11T14:34:40Z</time>
      </trkpt>
      <trkpt lat="44.11059" lon="6.83411">
        <ele>876</ele>
        <time>2022-06-11T14:34:41Z</time>
      </trkpt>
      <trkpt lat="44.11055" lon="6.8341">
        <ele>876.3</ele>
        <time>2022-06-11T14:34:42Z</time>
      </trkpt>
      <trkpt lat="44.11052" lon="6.83409">
        <ele>876.5</ele>
        <time>2022-06-11T14:34:43Z</time>
      </trkpt>
      <trkpt lat="44.11048" lon="6.83408">
        <ele>876.6</ele>
        <time>2022-06-11T14:34:44Z</time>
      </trkpt>
      <trkpt lat="44.11045" lon="6.83407">
        <ele>876.7</ele>
        <time>2022-06-11T14:34:45Z</time>
      </trkpt>
      <trkpt lat="44.11041" lon="6.83406">
        <ele>876.8</ele>
        <time>2022-06-11T14:34:46Z</time>
      </trkpt>
      <trkpt lat="44.11038" lon="6.83405">
        <ele>876.8</ele>
        <time>2022-06-11T14:34:47Z</time>
      </trkpt>
      <trkpt lat="44.11034" lon="6.83405">
        <ele>876.8</ele>
        <time>2022-06-11T14:34:48Z</time>
      </trkpt>
      <trkpt lat="44.11031" lon="6.83404">
        <ele>876.8</ele>
        <time>2022-06-11T14:34:49Z</time>
      </trkpt>
      <trkpt lat="44.11027" lon="6.83403">
        <ele>876.9</ele>
        <time>2022-06-11T14:34:50Z</time>
      </trkpt>
      <trkpt lat="44.11024" lon="6.83403">
        <ele>877</ele>
        <time>2022-06-11T14:34:51Z</time>
      </trkpt>
      <trkpt lat="44.1102" lon="6.83402">
        <ele>877.2</ele>
        <time>2022-06-11T14:34:52Z</time>
      </trkpt>
      <trkpt lat="44.11017" lon="6.83402">
        <ele>877.3</ele>
        <time>2022-06-11T14:34:53Z</time>
      </trkpt>
      <trkpt lat="44.11013" lon="6.83401">
        <ele>877.4</ele>
        <time>2022-06-11T14:34:54Z</time>
      </trkpt>
      <trkpt lat="44.1101" lon="6.834">
        <ele>877.6</ele>
        <time>2022-06-11T14:34:55Z</time>
      </trkpt>
      <trkpt lat="44.11006" lon="6.83399">
        <ele>877.8</ele>
        <time>2022-06-11T14:34:56Z</time>
      </trkpt>
      <trkpt lat="44.11003" lon="6.83398">
        <ele>878</ele>
        <time>2022-06-11T14:34:57Z</time>
      </trkpt>
      <trkpt lat="44.10999" lon="6.83397">
        <ele>878.2</ele>
        <time>2022-06-11T14:34:58Z</time>
      </trkpt>
      <trkpt lat="44.10996" lon="6.83396">
        <ele>878.3</ele>
        <time>2022-06-11T14:34:59Z</time>
      </trkpt>
      <trkpt lat="44.10992" lon="6.83394">
        <ele>878.3</ele>
        <time>2022-06-11T14:35:00Z</time>
      </trkpt>
      <trkpt lat="44.10989" lon="6.83392">
        <ele>878.5</ele>
        <time>2022-06-11T14:35:01Z</time>
      </trkpt>
      <trkpt lat="44.10986" lon="6.8339">
        <ele>878.8</ele>
        <time>2022-06-11T14:35:02Z</time>
      </trkpt>
      <trkpt lat="44.10982" lon="6.83388">
        <ele>878.9</ele>
        <time>2022-06-11T14:35:03Z</time>
      </trkpt>
      <trkpt lat="44.10979" lon="6.83386">
        <ele>879</ele>
        <time>2022-06-11T14:35:04Z</time>
      </trkpt>
      <trkpt lat="44.10976" lon="6.83384">
        <ele>879</ele>
        <time>2022-06-11T14:35:05Z</time>
      </trkpt>
      <trkpt lat="44.10973" lon="6.83381">
        <ele>878.9</ele>
        <time>2022-06-11T14:35:06Z</time>
      </trkpt>
      <trkpt lat="44.10969" lon="6.83379">
        <ele>878.9</ele>
        <time>2022-06-11T14:35:07Z</time>
      </trkpt>
      <trkpt lat="44.10966" lon="6.83377">
        <ele>878.9</ele>
        <time>2022-06-11T14:35:08Z</time>
      </trkpt>
      <trkpt lat="44.10963" lon="6.83374">
        <ele>879</ele>
        <time>2022-06-11T14:35:09Z</time>
      </trkpt>
      <trkpt lat="44.1096" lon="6.83372">
        <ele>879.1</ele>
        <time>2022-06-11T14:35:10Z</time>
      </trkpt>
      <trkpt lat="44.10957" lon="6.83369">
        <ele>879.3</ele>
        <time>2022-06-11T14:35:11Z</time>
      </trkpt>
      <trkpt lat="44.10953" lon="6.83366">
        <ele>879.5</ele>
        <time>2022-06-11T14:35:12Z</time>
      </trkpt>
      <trkpt lat="44.10949" lon="6.83364">
        <ele>879.7</ele>
        <time>2022-06-11T14:35:13Z</time>
      </trkpt>
      <trkpt lat="44.10946" lon="6.83362">
        <ele>880</ele>
        <time>2022-06-11T14:35:14Z</time>
      </trkpt>
      <trkpt lat="44.10943" lon="6.83359">
        <ele>880.5</ele>
        <time>2022-06-11T14:35:15Z</time>
      </trkpt>
      <trkpt lat="44.1094" lon="6.83355">
        <ele>881</ele>
        <time>2022-06-11T14:35:16Z</time>
      </trkpt>
      <trkpt lat="44.10938" lon="6.83352">
        <ele>881.4</ele>
        <time>2022-06-11T14:35:17Z</time>
      </trkpt>
      <trkpt lat="44.10935" lon="6.83348">
        <ele>881.9</ele>
        <time>2022-06-11T14:35:18Z</time>
      </trkpt>
      <trkpt lat="44.10933" lon="6.83344">
        <ele>882.3</ele>
        <time>2022-06-11T14:35:19Z</time>
      </trkpt>
      <trkpt lat="44.1093" lon="6.8334">
        <ele>882.6</ele>
        <time>2022-06-11T14:35:20Z</time>
      </trkpt>
      <trkpt lat="44.10928" lon="6.83336">
        <ele>882.9</ele>
        <time>2022-06-11T14:35:21Z</time>
      </trkpt>
      <trkpt lat="44.10925" lon="6.83332">
        <ele>883.1</ele>
        <time>2022-06-11T14:35:22Z</time>
      </trkpt>
      <trkpt lat="44.10923" lon="6.83327">
        <ele>883</ele>
        <time>2022-06-11T14:35:23Z</time>
      </trkpt>
      <trkpt lat="44.10921" lon="6.83322">
        <ele>882.7</ele>
        <time>2022-06-11T14:35:24Z</time>
      </trkpt>
      <trkpt lat="44.10919" lon="6.83318">
        <ele>882.4</ele>
        <time>2022-06-11T14:35:25Z</time>
      </trkpt>
      <trkpt lat="44.10917" lon="6.83313">
        <ele>882</ele>
        <time>2022-06-11T14:35:26Z</time>
      </trkpt>
      <trkpt lat="44.10916" lon="6.83308">
        <ele>881.6</ele>
        <time>2022-06-11T14:35:27Z</time>
      </trkpt>
      <trkpt lat="44.10914" lon="6.83303">
        <ele>881.9</ele>
        <time>2022-06-11T14:35:28Z</time>
      </trkpt>
      <trkpt lat="44.10913" lon="6.83298">
        <ele>883</ele>
        <time>2022-06-11T14:35:29Z</time>
      </trkpt>
      <trkpt lat="44.10912" lon="6.83293">
        <ele>883.9</ele>
        <time>2022-06-11T14:35:30Z</time>
      </trkpt>
      <trkpt lat="44.10911" lon="6.83288">
        <ele>884.8</ele>
        <time>2022-06-11T14:35:31Z</time>
      </trkpt>
      <trkpt lat="44.1091" lon="6.83282">
        <ele>885.6</ele>
        <time>2022-06-11T14:35:32Z</time>
      </trkpt>
      <trkpt lat="44.10909" lon="6.83277">
        <ele>886.2</ele>
        <time>2022-06-11T14:35:33Z</time>
      </trkpt>
      <trkpt lat="44.10908" lon="6.83271">
        <ele>886.3</ele>
        <time>2022-06-11T14:35:34Z</time>
      </trkpt>
      <trkpt lat="44.10906" lon="6.83266">
        <ele>886.4</ele>
        <time>2022-06-11T14:35:35Z</time>
      </trkpt>
      <trkpt lat="44.10905" lon="6.8326">
        <ele>886.8</ele>
        <time>2022-06-11T14:35:36Z</time>
      </trkpt>
      <trkpt lat="44.10904" lon="6.83253">
        <ele>887</ele>
        <time>2022-06-11T14:35:37Z</time>
      </trkpt>
      <trkpt lat="44.10903" lon="6.83247">
        <ele>887.3</ele>
        <time>2022-06-11T14:35:38Z</time>
      </trkpt>
      <trkpt lat="44.10901" lon="6.83241">
        <ele>887.2</ele>
        <time>2022-06-11T14:35:39Z</time>
      </trkpt>
      <trkpt lat="44.109" lon="6.83234">
        <ele>887.3</ele>
        <time>2022-06-11T14:35:40Z</time>
      </trkpt>
      <trkpt lat="44.10899" lon="6.83227">
        <ele>887.2</ele>
        <time>2022-06-11T14:35:41Z</time>
      </trkpt>
      <trkpt lat="44.10898" lon="6.8322">
        <ele>887.5</ele>
        <time>2022-06-11T14:35:42Z</time>
      </trkpt>
      <trkpt lat="44.10897" lon="6.83212">
        <ele>887.7</ele>
        <time>2022-06-11T14:35:43Z</time>
      </trkpt>
      <trkpt lat="44.10896" lon="6.83205">
        <ele>887.9</ele>
        <time>2022-06-11T14:35:44Z</time>
      </trkpt>
      <trkpt lat="44.10896" lon="6.83196">
        <ele>888.1</ele>
        <time>2022-06-11T14:35:45Z</time>
      </trkpt>
      <trkpt lat="44.10895" lon="6.83188">
        <ele>888.1</ele>
        <time>2022-06-11T14:35:46Z</time>
      </trkpt>
      <trkpt lat="44.10894" lon="6.83179">
        <ele>888</ele>
        <time>2022-06-11T14:35:47Z</time>
      </trkpt>
      <trkpt lat="44.10893" lon="6.8317">
        <ele>887.9</ele>
        <time>2022-06-11T14:35:48Z</time>
      </trkpt>
      <trkpt lat="44.10892" lon="6.83162">
        <ele>887.8</ele>
        <time>2022-06-11T14:35:49Z</time>
      </trkpt>
      <trkpt lat="44.10891" lon="6.83153">
        <ele>887.7</ele>
        <time>2022-06-11T14:35:50Z</time>
      </trkpt>
      <trkpt lat="44.1089" lon="6.83145">
        <ele>887.5</ele>
        <time>2022-06-11T14:35:51Z</time>
      </trkpt>
      <trkpt lat="44.10889" lon="6.83136">
        <ele>887.4</ele>
        <time>2022-06-11T14:35:52Z</time>
      </trkpt>
      <trkpt lat="44.10889" lon="6.83128">
        <ele>887.6</ele>
        <time>2022-06-11T14:35:53Z</time>
      </trkpt>
      <trkpt lat="44.10889" lon="6.83119">
        <ele>888.2</ele>
        <time>2022-06-11T14:35:54Z</time>
      </trkpt>
      <trkpt lat="44.10889" lon="6.83111">
        <ele>888.9</ele>
        <time>2022-06-11T14:35:55Z</time>
      </trkpt>
      <trkpt lat="44.1089" lon="6.83102">
        <ele>888.5</ele>
        <time>2022-06-11T14:35:56Z</time>
      </trkpt>
      <trkpt lat="44.1089" lon="6.83094">
        <ele>888.2</ele>
        <time>2022-06-11T14:35:57Z</time>
      </trkpt>
      <trkpt lat="44.10891" lon="6.83085">
        <ele>887.9</ele>
        <time>2022-06-11T14:35:58Z</time>
      </trkpt>
      <trkpt lat="44.10892" lon="6.83076">
        <ele>888.5</ele>
        <time>2022-06-11T14:35:59Z</time>
      </trkpt>
      <trkpt lat="44.10893" lon="6.83068">
        <ele>889.3</ele>
        <time>2022-06-11T14:36:00Z</time>
      </trkpt>
      <trkpt lat="44.10894" lon="6.8306">
        <ele>890.3</ele>
        <time>2022-06-11T14:36:01Z</time>
      </trkpt>
      <trkpt lat="44.10894" lon="6.83052">
        <ele>890.8</ele>
        <time>2022-06-11T14:36:02Z</time>
      </trkpt>
      <trkpt lat="44.10895" lon="6.83044">
        <ele>891.1</ele>
        <time>2022-06-11T14:36:03Z</time>
      </trkpt>
      <trkpt lat="44.10896" lon="6.83037">
        <ele>891.6</ele>
        <time>2022-06-11T14:36:04Z</time>
      </trkpt>
      <trkpt lat="44.10897" lon="6.83029">
        <ele>891.9</ele>
        <time>2022-06-11T14:36:05Z</time>
      </trkpt>
      <trkpt lat="44.10898" lon="6.83021">
        <ele>892.3</ele>
        <time>2022-06-11T14:36:06Z</time>
      </trkpt>
      <trkpt lat="44.10898" lon="6.83014">
        <ele>892.8</ele>
        <time>2022-06-11T14:36:07Z</time>
      </trkpt>
      <trkpt lat="44.10899" lon="6.83006">
        <ele>892.9</ele>
        <time>2022-06-11T14:36:08Z</time>
      </trkpt>
      <trkpt lat="44.10898" lon="6.82999">
        <ele>892.4</ele>
        <time>2022-06-11T14:36:09Z</time>
      </trkpt>
      <trkpt lat="44.10897" lon="6.82992">
        <ele>891.9</ele>
        <time>2022-06-11T14:36:10Z</time>
      </trkpt>
      <trkpt lat="44.10896" lon="6.82984">
        <ele>891.4</ele>
        <time>2022-06-11T14:36:11Z</time>
      </trkpt>
      <trkpt lat="44.10894" lon="6.82977">
        <ele>891.1</ele>
        <time>2022-06-11T14:36:12Z</time>
      </trkpt>
      <trkpt lat="44.10892" lon="6.8297">
        <ele>891.1</ele>
        <time>2022-06-11T14:36:13Z</time>
      </trkpt>
      <trkpt lat="44.1089" lon="6.82962">
        <ele>891.3</ele>
        <time>2022-06-11T14:36:14Z</time>
      </trkpt>
      <trkpt lat="44.10888" lon="6.82954">
        <ele>890.9</ele>
        <time>2022-06-11T14:36:15Z</time>
      </trkpt>
      <trkpt lat="44.10886" lon="6.82946">
        <ele>890.2</ele>
        <time>2022-06-11T14:36:16Z</time>
      </trkpt>
      <trkpt lat="44.10884" lon="6.82937">
        <ele>890.2</ele>
        <time>2022-06-11T14:36:17Z</time>
      </trkpt>
      <trkpt lat="44.10883" lon="6.82929">
        <ele>890.4</ele>
        <time>2022-06-11T14:36:18Z</time>
      </trkpt>
      <trkpt lat="44.10882" lon="6.8292">
        <ele>891.3</ele>
        <time>2022-06-11T14:36:19Z</time>
      </trkpt>
      <trkpt lat="44.10882" lon="6.82912">
        <ele>893.2</ele>
        <time>2022-06-11T14:36:20Z</time>
      </trkpt>
      <trkpt lat="44.10882" lon="6.82903">
        <ele>895.7</ele>
        <time>2022-06-11T14:36:21Z</time>
      </trkpt>
      <trkpt lat="44.10883" lon="6.82894">
        <ele>898.7</ele>
        <time>2022-06-11T14:36:22Z</time>
      </trkpt>
      <trkpt lat="44.10883" lon="6.82886">
        <ele>898.9</ele>
        <time>2022-06-11T14:36:23Z</time>
      </trkpt>
      <trkpt lat="44.10884" lon="6.82877">
        <ele>894.3</ele>
        <time>2022-06-11T14:36:24Z</time>
      </trkpt>
      <trkpt lat="44.10885" lon="6.82869">
        <ele>889.7</ele>
        <time>2022-06-11T14:36:25Z</time>
      </trkpt>
      <trkpt lat="44.10885" lon="6.8286">
        <ele>885.6</ele>
        <time>2022-06-11T14:36:26Z</time>
      </trkpt>
      <trkpt lat="44.10886" lon="6.82851">
        <ele>886.5</ele>
        <time>2022-06-11T14:36:27Z</time>
      </trkpt>
      <trkpt lat="44.10887" lon="6.82843">
        <ele>887.6</ele>
        <time>2022-06-11T14:36:28Z</time>
      </trkpt>
      <trkpt lat="44.10888" lon="6.82835">
        <ele>888.9</ele>
        <time>2022-06-11T14:36:29Z</time>
      </trkpt>
      <trkpt lat="44.10888" lon="6.82827">
        <ele>889.2</ele>
        <time>2022-06-11T14:36:30Z</time>
      </trkpt>
      <trkpt lat="44.10889" lon="6.82818">
        <ele>889.2</ele>
        <time>2022-06-11T14:36:31Z</time>
      </trkpt>
      <trkpt lat="44.10889" lon="6.8281">
        <ele>889.7</ele>
        <time>2022-06-11T14:36:32Z</time>
      </trkpt>
      <trkpt lat="44.1089" lon="6.82802">
        <ele>890.4</ele>
        <time>2022-06-11T14:36:33Z</time>
      </trkpt>
      <trkpt lat="44.10891" lon="6.82793">
        <ele>891.6</ele>
        <time>2022-06-11T14:36:34Z</time>
      </trkpt>
      <trkpt lat="44.10893" lon="6.82785">
        <ele>893.1</ele>
        <time>2022-06-11T14:36:35Z</time>
      </trkpt>
      <trkpt lat="44.10894" lon="6.82776">
        <ele>894.5</ele>
        <time>2022-06-11T14:36:36Z</time>
      </trkpt>
      <trkpt lat="44.10897" lon="6.82768">
        <ele>895.4</ele>
        <time>2022-06-11T14:36:37Z</time>
      </trkpt>
      <trkpt lat="44.10899" lon="6.8276">
        <ele>896.2</ele>
        <time>2022-06-11T14:36:38Z</time>
      </trkpt>
      <trkpt lat="44.10902" lon="6.82751">
        <ele>896.7</ele>
        <time>2022-06-11T14:36:39Z</time>
      </trkpt>
      <trkpt lat="44.10904" lon="6.82743">
        <ele>896.6</ele>
        <time>2022-06-11T14:36:40Z</time>
      </trkpt>
      <trkpt lat="44.10907" lon="6.82735">
        <ele>896.2</ele>
        <time>2022-06-11T14:36:41Z</time>
      </trkpt>
      <trkpt lat="44.1091" lon="6.82726">
        <ele>896</ele>
        <time>2022-06-11T14:36:42Z</time>
      </trkpt>
      <trkpt lat="44.10913" lon="6.82718">
        <ele>895.1</ele>
        <time>2022-06-11T14:36:43Z</time>
      </trkpt>
      <trkpt lat="44.10916" lon="6.8271">
        <ele>893.8</ele>
        <time>2022-06-11T14:36:44Z</time>
      </trkpt>
      <trkpt lat="44.10919" lon="6.82702">
        <ele>891.8</ele>
        <time>2022-06-11T14:36:45Z</time>
      </trkpt>
      <trkpt lat="44.10922" lon="6.82694">
        <ele>889.2</ele>
        <time>2022-06-11T14:36:46Z</time>
      </trkpt>
      <trkpt lat="44.10924" lon="6.82685">
        <ele>889</ele>
        <time>2022-06-11T14:36:47Z</time>
      </trkpt>
      <trkpt lat="44.10926" lon="6.82676">
        <ele>889.3</ele>
        <time>2022-06-11T14:36:48Z</time>
      </trkpt>
      <trkpt lat="44.10927" lon="6.82667">
        <ele>889.3</ele>
        <time>2022-06-11T14:36:49Z</time>
      </trkpt>
      <trkpt lat="44.10927" lon="6.82658">
        <ele>892.1</ele>
        <time>2022-06-11T14:36:50Z</time>
      </trkpt>
      <trkpt lat="44.10926" lon="6.82648">
        <ele>894.5</ele>
        <time>2022-06-11T14:36:51Z</time>
      </trkpt>
      <trkpt lat="44.10925" lon="6.82639">
        <ele>896.2</ele>
        <time>2022-06-11T14:36:52Z</time>
      </trkpt>
      <trkpt lat="44.10923" lon="6.8263">
        <ele>895.7</ele>
        <time>2022-06-11T14:36:53Z</time>
      </trkpt>
      <trkpt lat="44.10921" lon="6.82621">
        <ele>894.3</ele>
        <time>2022-06-11T14:36:54Z</time>
      </trkpt>
      <trkpt lat="44.10919" lon="6.82612">
        <ele>892.7</ele>
        <time>2022-06-11T14:36:55Z</time>
      </trkpt>
      <trkpt lat="44.10917" lon="6.82603">
        <ele>892.7</ele>
        <time>2022-06-11T14:36:56Z</time>
      </trkpt>
      <trkpt lat="44.10915" lon="6.82595">
        <ele>894</ele>
        <time>2022-06-11T14:36:57Z</time>
      </trkpt>
      <trkpt lat="44.10914" lon="6.82585">
        <ele>895.4</ele>
        <time>2022-06-11T14:36:58Z</time>
      </trkpt>
      <trkpt lat="44.10913" lon="6.82576">
        <ele>896</ele>
        <time>2022-06-11T14:36:59Z</time>
      </trkpt>
      <trkpt lat="44.10913" lon="6.82567">
        <ele>897.3</ele>
        <time>2022-06-11T14:37:00Z</time>
      </trkpt>
      <trkpt lat="44.10914" lon="6.82557">
        <ele>898.8</ele>
        <time>2022-06-11T14:37:01Z</time>
      </trkpt>
      <trkpt lat="44.10914" lon="6.82546">
        <ele>897.1</ele>
        <time>2022-06-11T14:37:02Z</time>
      </trkpt>
      <trkpt lat="44.10913" lon="6.82536">
        <ele>894.9</ele>
        <time>2022-06-11T14:37:03Z</time>
      </trkpt>
      <trkpt lat="44.10914" lon="6.82526">
        <ele>893.6</ele>
        <time>2022-06-11T14:37:04Z</time>
      </trkpt>
      <trkpt lat="44.10914" lon="6.82515">
        <ele>893.3</ele>
        <time>2022-06-11T14:37:05Z</time>
      </trkpt>
      <trkpt lat="44.10914" lon="6.82505">
        <ele>892.2</ele>
        <time>2022-06-11T14:37:06Z</time>
      </trkpt>
      <trkpt lat="44.10914" lon="6.82494">
        <ele>892.7</ele>
        <time>2022-06-11T14:37:07Z</time>
      </trkpt>
      <trkpt lat="44.10914" lon="6.82483">
        <ele>894.2</ele>
        <time>2022-06-11T14:37:08Z</time>
      </trkpt>
      <trkpt lat="44.10914" lon="6.82472">
        <ele>895.8</ele>
        <time>2022-06-11T14:37:09Z</time>
      </trkpt>
      <trkpt lat="44.10915" lon="6.82461">
        <ele>895.2</ele>
        <time>2022-06-11T14:37:10Z</time>
      </trkpt>
      <trkpt lat="44.10916" lon="6.8245">
        <ele>894.5</ele>
        <time>2022-06-11T14:37:11Z</time>
      </trkpt>
      <trkpt lat="44.10917" lon="6.82439">
        <ele>893.6</ele>
        <time>2022-06-11T14:37:12Z</time>
      </trkpt>
      <trkpt lat="44.10919" lon="6.82429">
        <ele>893.3</ele>
        <time>2022-06-11T14:37:13Z</time>
      </trkpt>
      <trkpt lat="44.10921" lon="6.82419">
        <ele>893.4</ele>
        <time>2022-06-11T14:37:14Z</time>
      </trkpt>
      <trkpt lat="44.10923" lon="6.82409">
        <ele>894.2</ele>
        <time>2022-06-11T14:37:15Z</time>
      </trkpt>
      <trkpt lat="44.10925" lon="6.82399">
        <ele>895.5</ele>
        <time>2022-06-11T14:37:16Z</time>
      </trkpt>
      <trkpt lat="44.10927" lon="6.82389">
        <ele>896.2</ele>
        <time>2022-06-11T14:37:17Z</time>
      </trkpt>
      <trkpt lat="44.10929" lon="6.82379">
        <ele>895.9</ele>
        <time>2022-06-11T14:37:18Z</time>
      </trkpt>
      <trkpt lat="44.10931" lon="6.82369">
        <ele>895.5</ele>
        <time>2022-06-11T14:37:19Z</time>
      </trkpt>
      <trkpt lat="44.10935" lon="6.8236">
        <ele>894.4</ele>
        <time>2022-06-11T14:37:20Z</time>
      </trkpt>
      <trkpt lat="44.10938" lon="6.82352">
        <ele>893.2</ele>
        <time>2022-06-11T14:37:21Z</time>
      </trkpt>
      <trkpt lat="44.10943" lon="6.82344">
        <ele>892.2</ele>
        <time>2022-06-11T14:37:22Z</time>
      </trkpt>
      <trkpt lat="44.10947" lon="6.82337">
        <ele>892.9</ele>
        <time>2022-06-11T14:37:23Z</time>
      </trkpt>
      <trkpt lat="44.10952" lon="6.82331">
        <ele>894</ele>
        <time>2022-06-11T14:37:24Z</time>
      </trkpt>
      <trkpt lat="44.10957" lon="6.82324">
        <ele>894.6</ele>
        <time>2022-06-11T14:37:25Z</time>
      </trkpt>
      <trkpt lat="44.10961" lon="6.82318">
        <ele>894.5</ele>
        <time>2022-06-11T14:37:26Z</time>
      </trkpt>
      <trkpt lat="44.10966" lon="6.82312">
        <ele>894.2</ele>
        <time>2022-06-11T14:37:27Z</time>
      </trkpt>
      <trkpt lat="44.10971" lon="6.82306">
        <ele>893.3</ele>
        <time>2022-06-11T14:37:28Z</time>
      </trkpt>
      <trkpt lat="44.10976" lon="6.82299">
        <ele>894.1</ele>
        <time>2022-06-11T14:37:29Z</time>
      </trkpt>
      <trkpt lat="44.10982" lon="6.82294">
        <ele>894.5</ele>
        <time>2022-06-11T14:37:30Z</time>
      </trkpt>
      <trkpt lat="44.10988" lon="6.82288">
        <ele>893.5</ele>
        <time>2022-06-11T14:37:31Z</time>
      </trkpt>
      <trkpt lat="44.10995" lon="6.82284">
        <ele>892.2</ele>
        <time>2022-06-11T14:37:32Z</time>
      </trkpt>
      <trkpt lat="44.11002" lon="6.8228">
        <ele>891.3</ele>
        <time>2022-06-11T14:37:33Z</time>
      </trkpt>
      <trkpt lat="44.11009" lon="6.82276">
        <ele>894.2</ele>
        <time>2022-06-11T14:37:34Z</time>
      </trkpt>
      <trkpt lat="44.11015" lon="6.82271">
        <ele>896.1</ele>
        <time>2022-06-11T14:37:35Z</time>
      </trkpt>
      <trkpt lat="44.1102" lon="6.82263">
        <ele>896.7</ele>
        <time>2022-06-11T14:37:36Z</time>
      </trkpt>
      <trkpt lat="44.11023" lon="6.82254">
        <ele>895.6</ele>
        <time>2022-06-11T14:37:37Z</time>
      </trkpt>
      <trkpt lat="44.11026" lon="6.82245">
        <ele>895.1</ele>
        <time>2022-06-11T14:37:38Z</time>
      </trkpt>
      <trkpt lat="44.1103" lon="6.82236">
        <ele>893.9</ele>
        <time>2022-06-11T14:37:39Z</time>
      </trkpt>
      <trkpt lat="44.11033" lon="6.82226">
        <ele>892.3</ele>
        <time>2022-06-11T14:37:40Z</time>
      </trkpt>
      <trkpt lat="44.11036" lon="6.82217">
        <ele>892.4</ele>
        <time>2022-06-11T14:37:41Z</time>
      </trkpt>
      <trkpt lat="44.1104" lon="6.82208">
        <ele>893.6</ele>
        <time>2022-06-11T14:37:42Z</time>
      </trkpt>
      <trkpt lat="44.11043" lon="6.822">
        <ele>894.5</ele>
        <time>2022-06-11T14:37:43Z</time>
      </trkpt>
      <trkpt lat="44.11047" lon="6.82191">
        <ele>895</ele>
        <time>2022-06-11T14:37:44Z</time>
      </trkpt>
      <trkpt lat="44.11049" lon="6.82181">
        <ele>894.5</ele>
        <time>2022-06-11T14:37:45Z</time>
      </trkpt>
      <trkpt lat="44.11052" lon="6.82172">
        <ele>894.1</ele>
        <time>2022-06-11T14:37:46Z</time>
      </trkpt>
      <trkpt lat="44.11054" lon="6.82162">
        <ele>893</ele>
        <time>2022-06-11T14:37:47Z</time>
      </trkpt>
      <trkpt lat="44.11057" lon="6.82153">
        <ele>891.8</ele>
        <time>2022-06-11T14:37:48Z</time>
      </trkpt>
      <trkpt lat="44.1106" lon="6.82144">
        <ele>889.9</ele>
        <time>2022-06-11T14:37:49Z</time>
      </trkpt>
      <trkpt lat="44.11064" lon="6.82135">
        <ele>889</ele>
        <time>2022-06-11T14:37:50Z</time>
      </trkpt>
      <trkpt lat="44.11069" lon="6.82126">
        <ele>888.4</ele>
        <time>2022-06-11T14:37:51Z</time>
      </trkpt>
      <trkpt lat="44.11074" lon="6.82118">
        <ele>887.4</ele>
        <time>2022-06-11T14:37:52Z</time>
      </trkpt>
      <trkpt lat="44.1108" lon="6.82109">
        <ele>885.7</ele>
        <time>2022-06-11T14:37:53Z</time>
      </trkpt>
      <trkpt lat="44.11085" lon="6.821">
        <ele>885.6</ele>
        <time>2022-06-11T14:37:54Z</time>
      </trkpt>
      <trkpt lat="44.11091" lon="6.82091">
        <ele>885.7</ele>
        <time>2022-06-11T14:37:55Z</time>
      </trkpt>
      <trkpt lat="44.11098" lon="6.82082">
        <ele>885.3</ele>
        <time>2022-06-11T14:37:56Z</time>
      </trkpt>
      <trkpt lat="44.11105" lon="6.82074">
        <ele>884.5</ele>
        <time>2022-06-11T14:37:57Z</time>
      </trkpt>
      <trkpt lat="44.11114" lon="6.82067">
        <ele>883.9</ele>
        <time>2022-06-11T14:37:58Z</time>
      </trkpt>
      <trkpt lat="44.11122" lon="6.82061">
        <ele>882.9</ele>
        <time>2022-06-11T14:37:59Z</time>
      </trkpt>
      <trkpt lat="44.11131" lon="6.82055">
        <ele>882.1</ele>
        <time>2022-06-11T14:38:00Z</time>
      </trkpt>
      <trkpt lat="44.11141" lon="6.82052">
        <ele>881.9</ele>
        <time>2022-06-11T14:38:01Z</time>
      </trkpt>
      <trkpt lat="44.1115" lon="6.82049">
        <ele>880.2</ele>
        <time>2022-06-11T14:38:02Z</time>
      </trkpt>
      <trkpt lat="44.11159" lon="6.82046">
        <ele>878.4</ele>
        <time>2022-06-11T14:38:03Z</time>
      </trkpt>
      <trkpt lat="44.11169" lon="6.82042">
        <ele>877.2</ele>
        <time>2022-06-11T14:38:04Z</time>
      </trkpt>
      <trkpt lat="44.11178" lon="6.82038">
        <ele>878.8</ele>
        <time>2022-06-11T14:38:05Z</time>
      </trkpt>
      <trkpt lat="44.11187" lon="6.82031">
        <ele>878.3</ele>
        <time>2022-06-11T14:38:06Z</time>
      </trkpt>
      <trkpt lat="44.11194" lon="6.82022">
        <ele>876.8</ele>
        <time>2022-06-11T14:38:07Z</time>
      </trkpt>
      <trkpt lat="44.112" lon="6.8201">
        <ele>874.9</ele>
        <time>2022-06-11T14:38:08Z</time>
      </trkpt>
      <trkpt lat="44.11203" lon="6.81997">
        <ele>872.5</ele>
        <time>2022-06-11T14:38:09Z</time>
      </trkpt>
      <trkpt lat="44.11203" lon="6.81982">
        <ele>873</ele>
        <time>2022-06-11T14:38:10Z</time>
      </trkpt>
      <trkpt lat="44.11201" lon="6.81968">
        <ele>874.4</ele>
        <time>2022-06-11T14:38:11Z</time>
      </trkpt>
      <trkpt lat="44.11197" lon="6.81955">
        <ele>877</ele>
        <time>2022-06-11T14:38:12Z</time>
      </trkpt>
      <trkpt lat="44.11193" lon="6.81941">
        <ele>877.9</ele>
        <time>2022-06-11T14:38:13Z</time>
      </trkpt>
      <trkpt lat="44.11191" lon="6.81928">
        <ele>877.6</ele>
        <time>2022-06-11T14:38:14Z</time>
      </trkpt>
      <trkpt lat="44.11192" lon="6.81915">
        <ele>878.3</ele>
        <time>2022-06-11T14:38:15Z</time>
      </trkpt>
      <trkpt lat="44.11195" lon="6.81903">
        <ele>877.6</ele>
        <time>2022-06-11T14:38:16Z</time>
      </trkpt>
      <trkpt lat="44.11201" lon="6.81892">
        <ele>880.1</ele>
        <time>2022-06-11T14:38:17Z</time>
      </trkpt>
      <trkpt lat="44.11207" lon="6.81882">
        <ele>881.2</ele>
        <time>2022-06-11T14:38:18Z</time>
      </trkpt>
      <trkpt lat="44.11213" lon="6.81873">
        <ele>880.8</ele>
        <time>2022-06-11T14:38:19Z</time>
      </trkpt>
      <trkpt lat="44.11219" lon="6.81864">
        <ele>880.1</ele>
        <time>2022-06-11T14:38:20Z</time>
      </trkpt>
      <trkpt lat="44.11225" lon="6.81855">
        <ele>879.4</ele>
        <time>2022-06-11T14:38:21Z</time>
      </trkpt>
      <trkpt lat="44.11231" lon="6.81847">
        <ele>879.5</ele>
        <time>2022-06-11T14:38:22Z</time>
      </trkpt>
      <trkpt lat="44.11238" lon="6.81839">
        <ele>880.4</ele>
        <time>2022-06-11T14:38:23Z</time>
      </trkpt>
      <trkpt lat="44.11244" lon="6.81832">
        <ele>881.7</ele>
        <time>2022-06-11T14:38:24Z</time>
      </trkpt>
      <trkpt lat="44.1125" lon="6.81823">
        <ele>882.3</ele>
        <time>2022-06-11T14:38:25Z</time>
      </trkpt>
      <trkpt lat="44.11257" lon="6.81816">
        <ele>880.9</ele>
        <time>2022-06-11T14:38:26Z</time>
      </trkpt>
      <trkpt lat="44.11263" lon="6.81808">
        <ele>879.2</ele>
        <time>2022-06-11T14:38:27Z</time>
      </trkpt>
      <trkpt lat="44.1127" lon="6.818">
        <ele>878.6</ele>
        <time>2022-06-11T14:38:28Z</time>
      </trkpt>
      <trkpt lat="44.11276" lon="6.81792">
        <ele>878</ele>
        <time>2022-06-11T14:38:29Z</time>
      </trkpt>
      <trkpt lat="44.11283" lon="6.81784">
        <ele>877.7</ele>
        <time>2022-06-11T14:38:30Z</time>
      </trkpt>
      <trkpt lat="44.11288" lon="6.81775">
        <ele>876.6</ele>
        <time>2022-06-11T14:38:31Z</time>
      </trkpt>
      <trkpt lat="44.11294" lon="6.81767">
        <ele>876.3</ele>
        <time>2022-06-11T14:38:32Z</time>
      </trkpt>
      <trkpt lat="44.113" lon="6.81758">
        <ele>876.3</ele>
        <time>2022-06-11T14:38:33Z</time>
      </trkpt>
      <trkpt lat="44.11306" lon="6.81749">
        <ele>877</ele>
        <time>2022-06-11T14:38:34Z</time>
      </trkpt>
      <trkpt lat="44.11311" lon="6.8174">
        <ele>879.4</ele>
        <time>2022-06-11T14:38:35Z</time>
      </trkpt>
      <trkpt lat="44.11317" lon="6.81732">
        <ele>881</ele>
        <time>2022-06-11T14:38:36Z</time>
      </trkpt>
      <trkpt lat="44.11323" lon="6.81723">
        <ele>882</ele>
        <time>2022-06-11T14:38:37Z</time>
      </trkpt>
      <trkpt lat="44.11328" lon="6.81714">
        <ele>881.3</ele>
        <time>2022-06-11T14:38:38Z</time>
      </trkpt>
      <trkpt lat="44.11334" lon="6.81705">
        <ele>880.2</ele>
        <time>2022-06-11T14:38:39Z</time>
      </trkpt>
      <trkpt lat="44.1134" lon="6.81696">
        <ele>879.2</ele>
        <time>2022-06-11T14:38:40Z</time>
      </trkpt>
      <trkpt lat="44.11345" lon="6.81687">
        <ele>879.7</ele>
        <time>2022-06-11T14:38:41Z</time>
      </trkpt>
      <trkpt lat="44.1135" lon="6.81677">
        <ele>879.6</ele>
        <time>2022-06-11T14:38:42Z</time>
      </trkpt>
      <trkpt lat="44.11355" lon="6.81667">
        <ele>878.7</ele>
        <time>2022-06-11T14:38:43Z</time>
      </trkpt>
      <trkpt lat="44.1136" lon="6.81657">
        <ele>878.1</ele>
        <time>2022-06-11T14:38:44Z</time>
      </trkpt>
      <trkpt lat="44.11364" lon="6.81647">
        <ele>877.7</ele>
        <time>2022-06-11T14:38:45Z</time>
      </trkpt>
      <trkpt lat="44.11368" lon="6.81637">
        <ele>876.7</ele>
        <time>2022-06-11T14:38:46Z</time>
      </trkpt>
      <trkpt lat="44.11372" lon="6.81626">
        <ele>875.4</ele>
        <time>2022-06-11T14:38:47Z</time>
      </trkpt>
      <trkpt lat="44.11375" lon="6.81615">
        <ele>874</ele>
        <time>2022-06-11T14:38:48Z</time>
      </trkpt>
      <trkpt lat="44.11378" lon="6.81604">
        <ele>872.8</ele>
        <time>2022-06-11T14:38:49Z</time>
      </trkpt>
      <trkpt lat="44.1138" lon="6.81593">
        <ele>872.1</ele>
        <time>2022-06-11T14:38:50Z</time>
      </trkpt>
      <trkpt lat="44.11382" lon="6.81583">
        <ele>871.6</ele>
        <time>2022-06-11T14:38:51Z</time>
      </trkpt>
      <trkpt lat="44.11385" lon="6.81572">
        <ele>873.5</ele>
        <time>2022-06-11T14:38:52Z</time>
      </trkpt>
      <trkpt lat="44.11388" lon="6.81562">
        <ele>875</ele>
        <time>2022-06-11T14:38:53Z</time>
      </trkpt>
      <trkpt lat="44.1139" lon="6.81553">
        <ele>876.1</ele>
        <time>2022-06-11T14:38:54Z</time>
      </trkpt>
      <trkpt lat="44.11392" lon="6.81544">
        <ele>876.4</ele>
        <time>2022-06-11T14:38:55Z</time>
      </trkpt>
      <trkpt lat="44.11395" lon="6.81534">
        <ele>876.5</ele>
        <time>2022-06-11T14:38:56Z</time>
      </trkpt>
      <trkpt lat="44.11397" lon="6.81525">
        <ele>876.6</ele>
        <time>2022-06-11T14:38:57Z</time>
      </trkpt>
      <trkpt lat="44.11399" lon="6.81516">
        <ele>876.7</ele>
        <time>2022-06-11T14:38:58Z</time>
      </trkpt>
      <trkpt lat="44.11401" lon="6.81507">
        <ele>876.9</ele>
        <time>2022-06-11T14:38:59Z</time>
      </trkpt>
      <trkpt lat="44.11403" lon="6.81498">
        <ele>877.2</ele>
        <time>2022-06-11T14:39:00Z</time>
      </trkpt>
      <trkpt lat="44.11406" lon="6.81489">
        <ele>878.3</ele>
        <time>2022-06-11T14:39:01Z</time>
      </trkpt>
      <trkpt lat="44.11408" lon="6.8148">
        <ele>879.6</ele>
        <time>2022-06-11T14:39:02Z</time>
      </trkpt>
      <trkpt lat="44.11411" lon="6.81472">
        <ele>880.9</ele>
        <time>2022-06-11T14:39:03Z</time>
      </trkpt>
      <trkpt lat="44.11414" lon="6.81464">
        <ele>880.6</ele>
        <time>2022-06-11T14:39:04Z</time>
      </trkpt>
      <trkpt lat="44.11417" lon="6.81456">
        <ele>880.3</ele>
        <time>2022-06-11T14:39:05Z</time>
      </trkpt>
      <trkpt lat="44.1142" lon="6.81447">
        <ele>880.4</ele>
        <time>2022-06-11T14:39:06Z</time>
      </trkpt>
      <trkpt lat="44.11423" lon="6.81439">
        <ele>880.7</ele>
        <time>2022-06-11T14:39:07Z</time>
      </trkpt>
      <trkpt lat="44.11425" lon="6.8143">
        <ele>880.9</ele>
        <time>2022-06-11T14:39:08Z</time>
      </trkpt>
      <trkpt lat="44.11428" lon="6.81421">
        <ele>880.8</ele>
        <time>2022-06-11T14:39:09Z</time>
      </trkpt>
      <trkpt lat="44.1143" lon="6.81413">
        <ele>880.6</ele>
        <time>2022-06-11T14:39:10Z</time>
      </trkpt>
      <trkpt lat="44.11433" lon="6.81404">
        <ele>880.5</ele>
        <time>2022-06-11T14:39:11Z</time>
      </trkpt>
      <trkpt lat="44.11436" lon="6.81396">
        <ele>880.3</ele>
        <time>2022-06-11T14:39:12Z</time>
      </trkpt>
      <trkpt lat="44.11438" lon="6.81388">
        <ele>880</ele>
        <time>2022-06-11T14:39:13Z</time>
      </trkpt>
      <trkpt lat="44.11441" lon="6.8138">
        <ele>880.2</ele>
        <time>2022-06-11T14:39:14Z</time>
      </trkpt>
      <trkpt lat="44.11443" lon="6.81372">
        <ele>880.6</ele>
        <time>2022-06-11T14:39:15Z</time>
      </trkpt>
      <trkpt lat="44.11445" lon="6.81365">
        <ele>881</ele>
        <time>2022-06-11T14:39:16Z</time>
      </trkpt>
      <trkpt lat="44.11447" lon="6.81358">
        <ele>881.1</ele>
        <time>2022-06-11T14:39:17Z</time>
      </trkpt>
      <trkpt lat="44.11448" lon="6.81351">
        <ele>881</ele>
        <time>2022-06-11T14:39:18Z</time>
      </trkpt>
      <trkpt lat="44.1145" lon="6.81345">
        <ele>880.8</ele>
        <time>2022-06-11T14:39:19Z</time>
      </trkpt>
      <trkpt lat="44.11452" lon="6.81339">
        <ele>880.3</ele>
        <time>2022-06-11T14:39:20Z</time>
      </trkpt>
      <trkpt lat="44.11453" lon="6.81333">
        <ele>879.8</ele>
        <time>2022-06-11T14:39:21Z</time>
      </trkpt>
      <trkpt lat="44.11455" lon="6.81327">
        <ele>879.9</ele>
        <time>2022-06-11T14:39:22Z</time>
      </trkpt>
      <trkpt lat="44.11456" lon="6.81321">
        <ele>880</ele>
        <time>2022-06-11T14:39:23Z</time>
      </trkpt>
      <trkpt lat="44.11457" lon="6.81316">
        <ele>880.3</ele>
        <time>2022-06-11T14:39:24Z</time>
      </trkpt>
      <trkpt lat="44.11458" lon="6.81311">
        <ele>880.6</ele>
        <time>2022-06-11T14:39:25Z</time>
      </trkpt>
      <trkpt lat="44.1146" lon="6.81305">
        <ele>880.9</ele>
        <time>2022-06-11T14:39:26Z</time>
      </trkpt>
      <trkpt lat="44.11461" lon="6.81301">
        <ele>881.4</ele>
        <time>2022-06-11T14:39:27Z</time>
      </trkpt>
      <trkpt lat="44.11462" lon="6.81296">
        <ele>881.8</ele>
        <time>2022-06-11T14:39:28Z</time>
      </trkpt>
      <trkpt lat="44.11463" lon="6.81292">
        <ele>882.2</ele>
        <time>2022-06-11T14:39:29Z</time>
      </trkpt>
      <trkpt lat="44.11464" lon="6.81287">
        <ele>882.6</ele>
        <time>2022-06-11T14:39:30Z</time>
      </trkpt>
      <trkpt lat="44.11465" lon="6.81283">
        <ele>883</ele>
        <time>2022-06-11T14:39:31Z</time>
      </trkpt>
      <trkpt lat="44.11466" lon="6.81279">
        <ele>883.3</ele>
        <time>2022-06-11T14:39:32Z</time>
      </trkpt>
      <trkpt lat="44.11467" lon="6.81274">
        <ele>883.7</ele>
        <time>2022-06-11T14:39:33Z</time>
      </trkpt>
      <trkpt lat="44.11468" lon="6.8127">
        <ele>884.1</ele>
        <time>2022-06-11T14:39:34Z</time>
      </trkpt>
      <trkpt lat="44.11469" lon="6.81266">
        <ele>884.5</ele>
        <time>2022-06-11T14:39:35Z</time>
      </trkpt>
      <trkpt lat="44.1147" lon="6.81261">
        <ele>884.9</ele>
        <time>2022-06-11T14:39:36Z</time>
      </trkpt>
      <trkpt lat="44.11471" lon="6.81257">
        <ele>885.2</ele>
        <time>2022-06-11T14:39:37Z</time>
      </trkpt>
      <trkpt lat="44.11472" lon="6.81254">
        <ele>885.6</ele>
        <time>2022-06-11T14:39:38Z</time>
      </trkpt>
      <trkpt lat="44.11473" lon="6.8125">
        <ele>886</ele>
        <time>2022-06-11T14:39:39Z</time>
      </trkpt>
      <trkpt lat="44.11474" lon="6.81245">
        <ele>886.4</ele>
        <time>2022-06-11T14:39:40Z</time>
      </trkpt>
      <trkpt lat="44.11475" lon="6.81242">
        <ele>886.6</ele>
        <time>2022-06-11T14:39:41Z</time>
      </trkpt>
      <trkpt lat="44.11476" lon="6.81238">
        <ele>887</ele>
        <time>2022-06-11T14:39:42Z</time>
      </trkpt>
      <trkpt lat="44.11477" lon="6.81234">
        <ele>887.3</ele>
        <time>2022-06-11T14:39:43Z</time>
      </trkpt>
      <trkpt lat="44.11477" lon="6.8123">
        <ele>887.7</ele>
        <time>2022-06-11T14:39:44Z</time>
      </trkpt>
      <trkpt lat="44.11478" lon="6.81227">
        <ele>888.1</ele>
        <time>2022-06-11T14:39:45Z</time>
      </trkpt>
      <trkpt lat="44.11479" lon="6.81223">
        <ele>888.5</ele>
        <time>2022-06-11T14:39:46Z</time>
      </trkpt>
      <trkpt lat="44.1148" lon="6.81219">
        <ele>888.9</ele>
        <time>2022-06-11T14:39:47Z</time>
      </trkpt>
      <trkpt lat="44.11481" lon="6.81215">
        <ele>889.3</ele>
        <time>2022-06-11T14:39:48Z</time>
      </trkpt>
      <trkpt lat="44.11482" lon="6.81211">
        <ele>889.8</ele>
        <time>2022-06-11T14:39:49Z</time>
      </trkpt>
      <trkpt lat="44.11483" lon="6.81207">
        <ele>890.3</ele>
        <time>2022-06-11T14:39:50Z</time>
      </trkpt>
      <trkpt lat="44.11483" lon="6.81203">
        <ele>890.8</ele>
        <time>2022-06-11T14:39:51Z</time>
      </trkpt>
      <trkpt lat="44.11484" lon="6.81199">
        <ele>891.3</ele>
        <time>2022-06-11T14:39:52Z</time>
      </trkpt>
      <trkpt lat="44.11485" lon="6.81195">
        <ele>891.8</ele>
        <time>2022-06-11T14:39:53Z</time>
      </trkpt>
      <trkpt lat="44.11486" lon="6.81192">
        <ele>891.8</ele>
        <time>2022-06-11T14:39:54Z</time>
      </trkpt>
      <trkpt lat="44.11488" lon="6.81188">
        <ele>891.7</ele>
        <time>2022-06-11T14:39:55Z</time>
      </trkpt>
      <trkpt lat="44.11489" lon="6.81184">
        <ele>891.6</ele>
        <time>2022-06-11T14:39:56Z</time>
      </trkpt>
      <trkpt lat="44.1149" lon="6.8118">
        <ele>891.5</ele>
        <time>2022-06-11T14:39:57Z</time>
      </trkpt>
      <trkpt lat="44.11491" lon="6.81176">
        <ele>891.4</ele>
        <time>2022-06-11T14:39:58Z</time>
      </trkpt>
      <trkpt lat="44.11492" lon="6.81173">
        <ele>891.3</ele>
        <time>2022-06-11T14:39:59Z</time>
      </trkpt>
      <trkpt lat="44.11493" lon="6.81169">
        <ele>891.2</ele>
        <time>2022-06-11T14:40:00Z</time>
      </trkpt>
      <trkpt lat="44.11495" lon="6.81165">
        <ele>891.3</ele>
        <time>2022-06-11T14:40:01Z</time>
      </trkpt>
      <trkpt lat="44.11496" lon="6.81162">
        <ele>891.5</ele>
        <time>2022-06-11T14:40:02Z</time>
      </trkpt>
      <trkpt lat="44.11497" lon="6.81158">
        <ele>891.8</ele>
        <time>2022-06-11T14:40:03Z</time>
      </trkpt>
      <trkpt lat="44.11498" lon="6.81154">
        <ele>892.2</ele>
        <time>2022-06-11T14:40:04Z</time>
      </trkpt>
      <trkpt lat="44.115" lon="6.8115">
        <ele>892.5</ele>
        <time>2022-06-11T14:40:05Z</time>
      </trkpt>
      <trkpt lat="44.11501" lon="6.81146">
        <ele>892.8</ele>
        <time>2022-06-11T14:40:06Z</time>
      </trkpt>
      <trkpt lat="44.11502" lon="6.81142">
        <ele>893.1</ele>
        <time>2022-06-11T14:40:07Z</time>
      </trkpt>
      <trkpt lat="44.11503" lon="6.81139">
        <ele>893.3</ele>
        <time>2022-06-11T14:40:08Z</time>
      </trkpt>
      <trkpt lat="44.11504" lon="6.81135">
        <ele>893.6</ele>
        <time>2022-06-11T14:40:09Z</time>
      </trkpt>
      <trkpt lat="44.11504" lon="6.8113">
        <ele>893.8</ele>
        <time>2022-06-11T14:40:10Z</time>
      </trkpt>
      <trkpt lat="44.11505" lon="6.81126">
        <ele>894.1</ele>
        <time>2022-06-11T14:40:11Z</time>
      </trkpt>
      <trkpt lat="44.11506" lon="6.81122">
        <ele>894.4</ele>
        <time>2022-06-11T14:40:12Z</time>
      </trkpt>
      <trkpt lat="44.11507" lon="6.81118">
        <ele>894.7</ele>
        <time>2022-06-11T14:40:13Z</time>
      </trkpt>
      <trkpt lat="44.11508" lon="6.81113">
        <ele>895</ele>
        <time>2022-06-11T14:40:14Z</time>
      </trkpt>
      <trkpt lat="44.11508" lon="6.81108">
        <ele>895.2</ele>
        <time>2022-06-11T14:40:15Z</time>
      </trkpt>
      <trkpt lat="44.11509" lon="6.81103">
        <ele>895.2</ele>
        <time>2022-06-11T14:40:16Z</time>
      </trkpt>
      <trkpt lat="44.11509" lon="6.81098">
        <ele>895.3</ele>
        <time>2022-06-11T14:40:17Z</time>
      </trkpt>
      <trkpt lat="44.1151" lon="6.81093">
        <ele>895.4</ele>
        <time>2022-06-11T14:40:18Z</time>
      </trkpt>
      <trkpt lat="44.1151" lon="6.81088">
        <ele>895.5</ele>
        <time>2022-06-11T14:40:19Z</time>
      </trkpt>
      <trkpt lat="44.11511" lon="6.81083">
        <ele>895.6</ele>
        <time>2022-06-11T14:40:20Z</time>
      </trkpt>
      <trkpt lat="44.11512" lon="6.81078">
        <ele>895.8</ele>
        <time>2022-06-11T14:40:21Z</time>
      </trkpt>
      <trkpt lat="44.11512" lon="6.81073">
        <ele>896</ele>
        <time>2022-06-11T14:40:22Z</time>
      </trkpt>
      <trkpt lat="44.11513" lon="6.81067">
        <ele>896.1</ele>
        <time>2022-06-11T14:40:23Z</time>
      </trkpt>
      <trkpt lat="44.11513" lon="6.81062">
        <ele>896.3</ele>
        <time>2022-06-11T14:40:24Z</time>
      </trkpt>
      <trkpt lat="44.11514" lon="6.81056">
        <ele>896.5</ele>
        <time>2022-06-11T14:40:25Z</time>
      </trkpt>
      <trkpt lat="44.11514" lon="6.81051">
        <ele>896.5</ele>
        <time>2022-06-11T14:40:26Z</time>
      </trkpt>
      <trkpt lat="44.11515" lon="6.81046">
        <ele>896.6</ele>
        <time>2022-06-11T14:40:27Z</time>
      </trkpt>
      <trkpt lat="44.11515" lon="6.8104">
        <ele>896.6</ele>
        <time>2022-06-11T14:40:28Z</time>
      </trkpt>
      <trkpt lat="44.11516" lon="6.81035">
        <ele>896.7</ele>
        <time>2022-06-11T14:40:29Z</time>
      </trkpt>
      <trkpt lat="44.11517" lon="6.81029">
        <ele>896.8</ele>
        <time>2022-06-11T14:40:30Z</time>
      </trkpt>
      <trkpt lat="44.11517" lon="6.81024">
        <ele>897</ele>
        <time>2022-06-11T14:40:31Z</time>
      </trkpt>
      <trkpt lat="44.11517" lon="6.81018">
        <ele>897.2</ele>
        <time>2022-06-11T14:40:32Z</time>
      </trkpt>
      <trkpt lat="44.11518" lon="6.81013">
        <ele>897.5</ele>
        <time>2022-06-11T14:40:33Z</time>
      </trkpt>
      <trkpt lat="44.11518" lon="6.81007">
        <ele>897.7</ele>
        <time>2022-06-11T14:40:34Z</time>
      </trkpt>
      <trkpt lat="44.11519" lon="6.81001">
        <ele>898</ele>
        <time>2022-06-11T14:40:35Z</time>
      </trkpt>
      <trkpt lat="44.11519" lon="6.80995">
        <ele>897.9</ele>
        <time>2022-06-11T14:40:36Z</time>
      </trkpt>
      <trkpt lat="44.11519" lon="6.80989">
        <ele>897.8</ele>
        <time>2022-06-11T14:40:37Z</time>
      </trkpt>
      <trkpt lat="44.1152" lon="6.80984">
        <ele>897.7</ele>
        <time>2022-06-11T14:40:38Z</time>
      </trkpt>
      <trkpt lat="44.1152" lon="6.80978">
        <ele>897.6</ele>
        <time>2022-06-11T14:40:39Z</time>
      </trkpt>
      <trkpt lat="44.11521" lon="6.80972">
        <ele>897.5</ele>
        <time>2022-06-11T14:40:40Z</time>
      </trkpt>
      <trkpt lat="44.11521" lon="6.80967">
        <ele>897.7</ele>
        <time>2022-06-11T14:40:41Z</time>
      </trkpt>
      <trkpt lat="44.11522" lon="6.80961">
        <ele>898</ele>
        <time>2022-06-11T14:40:42Z</time>
      </trkpt>
      <trkpt lat="44.11523" lon="6.80955">
        <ele>898.2</ele>
        <time>2022-06-11T14:40:43Z</time>
      </trkpt>
      <trkpt lat="44.11524" lon="6.80949">
        <ele>898.5</ele>
        <time>2022-06-11T14:40:44Z</time>
      </trkpt>
      <trkpt lat="44.11525" lon="6.80944">
        <ele>898.8</ele>
        <time>2022-06-11T14:40:45Z</time>
      </trkpt>
      <trkpt lat="44.11527" lon="6.80939">
        <ele>899.1</ele>
        <time>2022-06-11T14:40:46Z</time>
      </trkpt>
      <trkpt lat="44.11528" lon="6.80934">
        <ele>899.4</ele>
        <time>2022-06-11T14:40:47Z</time>
      </trkpt>
      <trkpt lat="44.1153" lon="6.80928">
        <ele>899.7</ele>
        <time>2022-06-11T14:40:48Z</time>
      </trkpt>
      <trkpt lat="44.11533" lon="6.80924">
        <ele>900</ele>
        <time>2022-06-11T14:40:49Z</time>
      </trkpt>
      <trkpt lat="44.11535" lon="6.80919">
        <ele>900.2</ele>
        <time>2022-06-11T14:40:50Z</time>
      </trkpt>
      <trkpt lat="44.11537" lon="6.80914">
        <ele>900.2</ele>
        <time>2022-06-11T14:40:51Z</time>
      </trkpt>
      <trkpt lat="44.1154" lon="6.8091">
        <ele>900.2</ele>
        <time>2022-06-11T14:40:52Z</time>
      </trkpt>
      <trkpt lat="44.11543" lon="6.80906">
        <ele>900.2</ele>
        <time>2022-06-11T14:40:53Z</time>
      </trkpt>
      <trkpt lat="44.11545" lon="6.80902">
        <ele>900.2</ele>
        <time>2022-06-11T14:40:54Z</time>
      </trkpt>
      <trkpt lat="44.11548" lon="6.80897">
        <ele>900.3</ele>
        <time>2022-06-11T14:40:55Z</time>
      </trkpt>
      <trkpt lat="44.11551" lon="6.80893">
        <ele>900.5</ele>
        <time>2022-06-11T14:40:56Z</time>
      </trkpt>
      <trkpt lat="44.11553" lon="6.80888">
        <ele>900.7</ele>
        <time>2022-06-11T14:40:57Z</time>
      </trkpt>
      <trkpt lat="44.11556" lon="6.80884">
        <ele>901</ele>
        <time>2022-06-11T14:40:58Z</time>
      </trkpt>
      <trkpt lat="44.11558" lon="6.80879">
        <ele>901.5</ele>
        <time>2022-06-11T14:40:59Z</time>
      </trkpt>
      <trkpt lat="44.11561" lon="6.80874">
        <ele>902</ele>
        <time>2022-06-11T14:41:00Z</time>
      </trkpt>
      <trkpt lat="44.11564" lon="6.8087">
        <ele>902.6</ele>
        <time>2022-06-11T14:41:01Z</time>
      </trkpt>
      <trkpt lat="44.11566" lon="6.80865">
        <ele>903.3</ele>
        <time>2022-06-11T14:41:02Z</time>
      </trkpt>
      <trkpt lat="44.11569" lon="6.80861">
        <ele>903.9</ele>
        <time>2022-06-11T14:41:03Z</time>
      </trkpt>
      <trkpt lat="44.11572" lon="6.80856">
        <ele>904</ele>
        <time>2022-06-11T14:41:04Z</time>
      </trkpt>
      <trkpt lat="44.11574" lon="6.80851">
        <ele>904</ele>
        <time>2022-06-11T14:41:05Z</time>
      </trkpt>
      <trkpt lat="44.11577" lon="6.80845">
        <ele>904</ele>
        <time>2022-06-11T14:41:06Z</time>
      </trkpt>
      <trkpt lat="44.11579" lon="6.80841">
        <ele>904</ele>
        <time>2022-06-11T14:41:07Z</time>
      </trkpt>
      <trkpt lat="44.11582" lon="6.80835">
        <ele>903.9</ele>
        <time>2022-06-11T14:41:08Z</time>
      </trkpt>
      <trkpt lat="44.11583" lon="6.80829">
        <ele>903.3</ele>
        <time>2022-06-11T14:41:09Z</time>
      </trkpt>
      <trkpt lat="44.11585" lon="6.80823">
        <ele>902.4</ele>
        <time>2022-06-11T14:41:10Z</time>
      </trkpt>
      <trkpt lat="44.11587" lon="6.80817">
        <ele>901.7</ele>
        <time>2022-06-11T14:41:11Z</time>
      </trkpt>
      <trkpt lat="44.11588" lon="6.8081">
        <ele>901</ele>
        <time>2022-06-11T14:41:12Z</time>
      </trkpt>
      <trkpt lat="44.11589" lon="6.80804">
        <ele>901</ele>
        <time>2022-06-11T14:41:13Z</time>
      </trkpt>
      <trkpt lat="44.1159" lon="6.80797">
        <ele>901.9</ele>
        <time>2022-06-11T14:41:14Z</time>
      </trkpt>
      <trkpt lat="44.11591" lon="6.8079">
        <ele>902.8</ele>
        <time>2022-06-11T14:41:15Z</time>
      </trkpt>
      <trkpt lat="44.11593" lon="6.80784">
        <ele>903.6</ele>
        <time>2022-06-11T14:41:16Z</time>
      </trkpt>
      <trkpt lat="44.11594" lon="6.80777">
        <ele>904.2</ele>
        <time>2022-06-11T14:41:17Z</time>
      </trkpt>
      <trkpt lat="44.11595" lon="6.8077">
        <ele>904.4</ele>
        <time>2022-06-11T14:41:18Z</time>
      </trkpt>
      <trkpt lat="44.11596" lon="6.80764">
        <ele>904.5</ele>
        <time>2022-06-11T14:41:19Z</time>
      </trkpt>
      <trkpt lat="44.11597" lon="6.80758">
        <ele>904.6</ele>
        <time>2022-06-11T14:41:20Z</time>
      </trkpt>
      <trkpt lat="44.11598" lon="6.80752">
        <ele>904.6</ele>
        <time>2022-06-11T14:41:21Z</time>
      </trkpt>
      <trkpt lat="44.11599" lon="6.80746">
        <ele>904.6</ele>
        <time>2022-06-11T14:41:22Z</time>
      </trkpt>
      <trkpt lat="44.116" lon="6.80741">
        <ele>904.6</ele>
        <time>2022-06-11T14:41:23Z</time>
      </trkpt>
      <trkpt lat="44.11601" lon="6.80735">
        <ele>904.6</ele>
        <time>2022-06-11T14:41:24Z</time>
      </trkpt>
      <trkpt lat="44.11603" lon="6.80729">
        <ele>904.5</ele>
        <time>2022-06-11T14:41:25Z</time>
      </trkpt>
      <trkpt lat="44.11604" lon="6.80723">
        <ele>904.5</ele>
        <time>2022-06-11T14:41:26Z</time>
      </trkpt>
      <trkpt lat="44.11606" lon="6.80716">
        <ele>904</ele>
        <time>2022-06-11T14:41:27Z</time>
      </trkpt>
      <trkpt lat="44.11608" lon="6.8071">
        <ele>903.5</ele>
        <time>2022-06-11T14:41:28Z</time>
      </trkpt>
      <trkpt lat="44.1161" lon="6.80704">
        <ele>903</ele>
        <time>2022-06-11T14:41:29Z</time>
      </trkpt>
      <trkpt lat="44.11613" lon="6.80698">
        <ele>902.6</ele>
        <time>2022-06-11T14:41:30Z</time>
      </trkpt>
      <trkpt lat="44.11615" lon="6.80691">
        <ele>902.8</ele>
        <time>2022-06-11T14:41:31Z</time>
      </trkpt>
      <trkpt lat="44.11618" lon="6.80685">
        <ele>903.6</ele>
        <time>2022-06-11T14:41:32Z</time>
      </trkpt>
      <trkpt lat="44.11621" lon="6.80679">
        <ele>904.3</ele>
        <time>2022-06-11T14:41:33Z</time>
      </trkpt>
      <trkpt lat="44.11624" lon="6.80673">
        <ele>905.1</ele>
        <time>2022-06-11T14:41:34Z</time>
      </trkpt>
      <trkpt lat="44.11627" lon="6.80667">
        <ele>905.7</ele>
        <time>2022-06-11T14:41:35Z</time>
      </trkpt>
      <trkpt lat="44.11629" lon="6.8066">
        <ele>905.3</ele>
        <time>2022-06-11T14:41:36Z</time>
      </trkpt>
      <trkpt lat="44.11633" lon="6.80654">
        <ele>905.1</ele>
        <time>2022-06-11T14:41:37Z</time>
      </trkpt>
      <trkpt lat="44.11635" lon="6.80647">
        <ele>904.9</ele>
        <time>2022-06-11T14:41:38Z</time>
      </trkpt>
      <trkpt lat="44.11637" lon="6.8064">
        <ele>904.6</ele>
        <time>2022-06-11T14:41:39Z</time>
      </trkpt>
      <trkpt lat="44.11639" lon="6.80632">
        <ele>905.3</ele>
        <time>2022-06-11T14:41:40Z</time>
      </trkpt>
      <trkpt lat="44.11641" lon="6.80624">
        <ele>906.2</ele>
        <time>2022-06-11T14:41:41Z</time>
      </trkpt>
      <trkpt lat="44.11644" lon="6.80616">
        <ele>907</ele>
        <time>2022-06-11T14:41:42Z</time>
      </trkpt>
      <trkpt lat="44.11646" lon="6.80608">
        <ele>907.6</ele>
        <time>2022-06-11T14:41:43Z</time>
      </trkpt>
      <trkpt lat="44.1165" lon="6.80601">
        <ele>907.7</ele>
        <time>2022-06-11T14:41:44Z</time>
      </trkpt>
      <trkpt lat="44.11654" lon="6.80595">
        <ele>907.9</ele>
        <time>2022-06-11T14:41:45Z</time>
      </trkpt>
      <trkpt lat="44.11658" lon="6.80589">
        <ele>908</ele>
        <time>2022-06-11T14:41:46Z</time>
      </trkpt>
      <trkpt lat="44.11662" lon="6.80583">
        <ele>908.1</ele>
        <time>2022-06-11T14:41:47Z</time>
      </trkpt>
      <trkpt lat="44.11667" lon="6.80578">
        <ele>907.9</ele>
        <time>2022-06-11T14:41:48Z</time>
      </trkpt>
      <trkpt lat="44.11671" lon="6.80573">
        <ele>908.2</ele>
        <time>2022-06-11T14:41:49Z</time>
      </trkpt>
      <trkpt lat="44.11676" lon="6.80567">
        <ele>908.3</ele>
        <time>2022-06-11T14:41:50Z</time>
      </trkpt>
      <trkpt lat="44.11679" lon="6.80561">
        <ele>908.2</ele>
        <time>2022-06-11T14:41:51Z</time>
      </trkpt>
      <trkpt lat="44.11683" lon="6.80555">
        <ele>907.9</ele>
        <time>2022-06-11T14:41:52Z</time>
      </trkpt>
      <trkpt lat="44.11686" lon="6.80548">
        <ele>907.5</ele>
        <time>2022-06-11T14:41:53Z</time>
      </trkpt>
      <trkpt lat="44.11689" lon="6.80541">
        <ele>907.2</ele>
        <time>2022-06-11T14:41:54Z</time>
      </trkpt>
      <trkpt lat="44.11693" lon="6.80533">
        <ele>907.2</ele>
        <time>2022-06-11T14:41:55Z</time>
      </trkpt>
      <trkpt lat="44.11696" lon="6.80526">
        <ele>907.4</ele>
        <time>2022-06-11T14:41:56Z</time>
      </trkpt>
      <trkpt lat="44.11699" lon="6.80519">
        <ele>908</ele>
        <time>2022-06-11T14:41:57Z</time>
      </trkpt>
      <trkpt lat="44.11703" lon="6.80511">
        <ele>908.8</ele>
        <time>2022-06-11T14:41:58Z</time>
      </trkpt>
      <trkpt lat="44.11706" lon="6.80503">
        <ele>909.7</ele>
        <time>2022-06-11T14:41:59Z</time>
      </trkpt>
      <trkpt lat="44.1171" lon="6.80496">
        <ele>910.1</ele>
        <time>2022-06-11T14:42:00Z</time>
      </trkpt>
      <trkpt lat="44.11713" lon="6.80489">
        <ele>910</ele>
        <time>2022-06-11T14:42:01Z</time>
      </trkpt>
      <trkpt lat="44.11717" lon="6.80483">
        <ele>909.8</ele>
        <time>2022-06-11T14:42:02Z</time>
      </trkpt>
      <trkpt lat="44.11721" lon="6.80476">
        <ele>909.6</ele>
        <time>2022-06-11T14:42:03Z</time>
      </trkpt>
      <trkpt lat="44.11725" lon="6.8047">
        <ele>909.7</ele>
        <time>2022-06-11T14:42:04Z</time>
      </trkpt>
      <trkpt lat="44.1173" lon="6.80465">
        <ele>909.8</ele>
        <time>2022-06-11T14:42:05Z</time>
      </trkpt>
      <trkpt lat="44.11734" lon="6.8046">
        <ele>909.7</ele>
        <time>2022-06-11T14:42:06Z</time>
      </trkpt>
      <trkpt lat="44.11739" lon="6.80454">
        <ele>909.6</ele>
        <time>2022-06-11T14:42:07Z</time>
      </trkpt>
      <trkpt lat="44.11744" lon="6.8045">
        <ele>909.3</ele>
        <time>2022-06-11T14:42:08Z</time>
      </trkpt>
      <trkpt lat="44.11749" lon="6.80445">
        <ele>908.7</ele>
        <time>2022-06-11T14:42:09Z</time>
      </trkpt>
      <trkpt lat="44.11754" lon="6.8044">
        <ele>909</ele>
        <time>2022-06-11T14:42:10Z</time>
      </trkpt>
      <trkpt lat="44.11759" lon="6.80436">
        <ele>909.1</ele>
        <time>2022-06-11T14:42:11Z</time>
      </trkpt>
      <trkpt lat="44.11764" lon="6.80431">
        <ele>909.1</ele>
        <time>2022-06-11T14:42:12Z</time>
      </trkpt>
      <trkpt lat="44.11769" lon="6.80428">
        <ele>909.2</ele>
        <time>2022-06-11T14:42:13Z</time>
      </trkpt>
      <trkpt lat="44.11775" lon="6.80425">
        <ele>909.3</ele>
        <time>2022-06-11T14:42:14Z</time>
      </trkpt>
      <trkpt lat="44.11781" lon="6.80422">
        <ele>909.3</ele>
        <time>2022-06-11T14:42:15Z</time>
      </trkpt>
      <trkpt lat="44.11786" lon="6.8042">
        <ele>909.5</ele>
        <time>2022-06-11T14:42:16Z</time>
      </trkpt>
      <trkpt lat="44.11792" lon="6.80418">
        <ele>909.6</ele>
        <time>2022-06-11T14:42:17Z</time>
      </trkpt>
      <trkpt lat="44.11798" lon="6.80417">
        <ele>909.8</ele>
        <time>2022-06-11T14:42:18Z</time>
      </trkpt>
      <trkpt lat="44.11803" lon="6.80415">
        <ele>910</ele>
        <time>2022-06-11T14:42:19Z</time>
      </trkpt>
      <trkpt lat="44.11809" lon="6.80414">
        <ele>910.2</ele>
        <time>2022-06-11T14:42:20Z</time>
      </trkpt>
      <trkpt lat="44.11814" lon="6.80412">
        <ele>910.4</ele>
        <time>2022-06-11T14:42:21Z</time>
      </trkpt>
      <trkpt lat="44.11819" lon="6.8041">
        <ele>910.5</ele>
        <time>2022-06-11T14:42:22Z</time>
      </trkpt>
      <trkpt lat="44.11824" lon="6.80409">
        <ele>910.8</ele>
        <time>2022-06-11T14:42:23Z</time>
      </trkpt>
      <trkpt lat="44.11829" lon="6.80407">
        <ele>910.9</ele>
        <time>2022-06-11T14:42:24Z</time>
      </trkpt>
      <trkpt lat="44.11834" lon="6.80405">
        <ele>911.1</ele>
        <time>2022-06-11T14:42:25Z</time>
      </trkpt>
      <trkpt lat="44.11839" lon="6.80403">
        <ele>911</ele>
        <time>2022-06-11T14:42:26Z</time>
      </trkpt>
      <trkpt lat="44.11843" lon="6.804">
        <ele>910.7</ele>
        <time>2022-06-11T14:42:27Z</time>
      </trkpt>
      <trkpt lat="44.11848" lon="6.80396">
        <ele>910.2</ele>
        <time>2022-06-11T14:42:28Z</time>
      </trkpt>
      <trkpt lat="44.11852" lon="6.80391">
        <ele>909.6</ele>
        <time>2022-06-11T14:42:29Z</time>
      </trkpt>
      <trkpt lat="44.11856" lon="6.80386">
        <ele>909.2</ele>
        <time>2022-06-11T14:42:30Z</time>
      </trkpt>
      <trkpt lat="44.1186" lon="6.8038">
        <ele>909.3</ele>
        <time>2022-06-11T14:42:31Z</time>
      </trkpt>
      <trkpt lat="44.11863" lon="6.80373">
        <ele>909.3</ele>
        <time>2022-06-11T14:42:32Z</time>
      </trkpt>
      <trkpt lat="44.11865" lon="6.80365">
        <ele>908.6</ele>
        <time>2022-06-11T14:42:33Z</time>
      </trkpt>
      <trkpt lat="44.11867" lon="6.80357">
        <ele>908</ele>
        <time>2022-06-11T14:42:34Z</time>
      </trkpt>
      <trkpt lat="44.11868" lon="6.80349">
        <ele>907.8</ele>
        <time>2022-06-11T14:42:35Z</time>
      </trkpt>
      <trkpt lat="44.11868" lon="6.80341">
        <ele>907.8</ele>
        <time>2022-06-11T14:42:36Z</time>
      </trkpt>
      <trkpt lat="44.11868" lon="6.80334">
        <ele>907.9</ele>
        <time>2022-06-11T14:42:37Z</time>
      </trkpt>
      <trkpt lat="44.11867" lon="6.80327">
        <ele>908.7</ele>
        <time>2022-06-11T14:42:38Z</time>
      </trkpt>
      <trkpt lat="44.11865" lon="6.80321">
        <ele>909.7</ele>
        <time>2022-06-11T14:42:39Z</time>
      </trkpt>
      <trkpt lat="44.11863" lon="6.80316">
        <ele>910.7</ele>
        <time>2022-06-11T14:42:40Z</time>
      </trkpt>
      <trkpt lat="44.11861" lon="6.80311">
        <ele>911.5</ele>
        <time>2022-06-11T14:42:41Z</time>
      </trkpt>
      <trkpt lat="44.11859" lon="6.80307">
        <ele>911.3</ele>
        <time>2022-06-11T14:42:42Z</time>
      </trkpt>
      <trkpt lat="44.11856" lon="6.80303">
        <ele>911.2</ele>
        <time>2022-06-11T14:42:43Z</time>
      </trkpt>
      <trkpt lat="44.11854" lon="6.80299">
        <ele>911.2</ele>
        <time>2022-06-11T14:42:44Z</time>
      </trkpt>
      <trkpt lat="44.11851" lon="6.80296">
        <ele>911.3</ele>
        <time>2022-06-11T14:42:45Z</time>
      </trkpt>
      <trkpt lat="44.11849" lon="6.80293">
        <ele>911.6</ele>
        <time>2022-06-11T14:42:46Z</time>
      </trkpt>
      <trkpt lat="44.11846" lon="6.8029">
        <ele>912</ele>
        <time>2022-06-11T14:42:47Z</time>
      </trkpt>
      <trkpt lat="44.11843" lon="6.80287">
        <ele>912.7</ele>
        <time>2022-06-11T14:42:48Z</time>
      </trkpt>
      <trkpt lat="44.1184" lon="6.80284">
        <ele>913.5</ele>
        <time>2022-06-11T14:42:49Z</time>
      </trkpt>
      <trkpt lat="44.11837" lon="6.80282">
        <ele>914.4</ele>
        <time>2022-06-11T14:42:50Z</time>
      </trkpt>
      <trkpt lat="44.11834" lon="6.80279">
        <ele>915.4</ele>
        <time>2022-06-11T14:42:51Z</time>
      </trkpt>
      <trkpt lat="44.11831" lon="6.80278">
        <ele>915.8</ele>
        <time>2022-06-11T14:42:52Z</time>
      </trkpt>
      <trkpt lat="44.11828" lon="6.80276">
        <ele>916</ele>
        <time>2022-06-11T14:42:53Z</time>
      </trkpt>
      <trkpt lat="44.11825" lon="6.80274">
        <ele>916.2</ele>
        <time>2022-06-11T14:42:54Z</time>
      </trkpt>
      <trkpt lat="44.11821" lon="6.80272">
        <ele>916.3</ele>
        <time>2022-06-11T14:42:55Z</time>
      </trkpt>
      <trkpt lat="44.11818" lon="6.8027">
        <ele>916.4</ele>
        <time>2022-06-11T14:42:56Z</time>
      </trkpt>
      <trkpt lat="44.11815" lon="6.80268">
        <ele>916.3</ele>
        <time>2022-06-11T14:42:57Z</time>
      </trkpt>
      <trkpt lat="44.11812" lon="6.80267">
        <ele>916.2</ele>
        <time>2022-06-11T14:42:58Z</time>
      </trkpt>
      <trkpt lat="44.11809" lon="6.80265">
        <ele>916.1</ele>
        <time>2022-06-11T14:42:59Z</time>
      </trkpt>
      <trkpt lat="44.11806" lon="6.80263">
        <ele>915.9</ele>
        <time>2022-06-11T14:43:00Z</time>
      </trkpt>
      <trkpt lat="44.11803" lon="6.8026">
        <ele>916.4</ele>
        <time>2022-06-11T14:43:01Z</time>
      </trkpt>
      <trkpt lat="44.118" lon="6.80258">
        <ele>917</ele>
        <time>2022-06-11T14:43:02Z</time>
      </trkpt>
      <trkpt lat="44.11797" lon="6.80255">
        <ele>917.6</ele>
        <time>2022-06-11T14:43:03Z</time>
      </trkpt>
      <trkpt lat="44.11795" lon="6.80252">
        <ele>918.3</ele>
        <time>2022-06-11T14:43:04Z</time>
      </trkpt>
      <trkpt lat="44.11793" lon="6.80249">
        <ele>918.6</ele>
        <time>2022-06-11T14:43:05Z</time>
      </trkpt>
      <trkpt lat="44.11791" lon="6.80245">
        <ele>918.7</ele>
        <time>2022-06-11T14:43:06Z</time>
      </trkpt>
      <trkpt lat="44.11789" lon="6.80241">
        <ele>918.8</ele>
        <time>2022-06-11T14:43:07Z</time>
      </trkpt>
      <trkpt lat="44.11788" lon="6.80237">
        <ele>918.9</ele>
        <time>2022-06-11T14:43:08Z</time>
      </trkpt>
      <trkpt lat="44.11787" lon="6.80232">
        <ele>919</ele>
        <time>2022-06-11T14:43:09Z</time>
      </trkpt>
      <trkpt lat="44.11787" lon="6.80228">
        <ele>919.1</ele>
        <time>2022-06-11T14:43:10Z</time>
      </trkpt>
      <trkpt lat="44.11787" lon="6.80224">
        <ele>919.3</ele>
        <time>2022-06-11T14:43:11Z</time>
      </trkpt>
      <trkpt lat="44.11787" lon="6.8022">
        <ele>919.4</ele>
        <time>2022-06-11T14:43:12Z</time>
      </trkpt>
      <trkpt lat="44.11788" lon="6.80215">
        <ele>919.7</ele>
        <time>2022-06-11T14:43:13Z</time>
      </trkpt>
      <trkpt lat="44.11788" lon="6.80211">
        <ele>919.9</ele>
        <time>2022-06-11T14:43:14Z</time>
      </trkpt>
      <trkpt lat="44.11789" lon="6.80207">
        <ele>920.2</ele>
        <time>2022-06-11T14:43:15Z</time>
      </trkpt>
      <trkpt lat="44.1179" lon="6.80203">
        <ele>920.6</ele>
        <time>2022-06-11T14:43:16Z</time>
      </trkpt>
      <trkpt lat="44.1179" lon="6.80199">
        <ele>920.9</ele>
        <time>2022-06-11T14:43:17Z</time>
      </trkpt>
      <trkpt lat="44.11792" lon="6.80196">
        <ele>921.4</ele>
        <time>2022-06-11T14:43:18Z</time>
      </trkpt>
      <trkpt lat="44.11793" lon="6.80192">
        <ele>921.7</ele>
        <time>2022-06-11T14:43:19Z</time>
      </trkpt>
      <trkpt lat="44.11794" lon="6.80188">
        <ele>922</ele>
        <time>2022-06-11T14:43:20Z</time>
      </trkpt>
      <trkpt lat="44.11795" lon="6.80185">
        <ele>922.1</ele>
        <time>2022-06-11T14:43:21Z</time>
      </trkpt>
      <trkpt lat="44.11796" lon="6.80181">
        <ele>922.3</ele>
        <time>2022-06-11T14:43:22Z</time>
      </trkpt>
      <trkpt lat="44.11797" lon="6.80177">
        <ele>922.5</ele>
        <time>2022-06-11T14:43:23Z</time>
      </trkpt>
      <trkpt lat="44.11799" lon="6.80174">
        <ele>922.7</ele>
        <time>2022-06-11T14:43:24Z</time>
      </trkpt>
      <trkpt lat="44.118" lon="6.8017">
        <ele>922.9</ele>
        <time>2022-06-11T14:43:25Z</time>
      </trkpt>
      <trkpt lat="44.11801" lon="6.80167">
        <ele>923</ele>
        <time>2022-06-11T14:43:26Z</time>
      </trkpt>
      <trkpt lat="44.11803" lon="6.80163">
        <ele>923.1</ele>
        <time>2022-06-11T14:43:27Z</time>
      </trkpt>
      <trkpt lat="44.11804" lon="6.8016">
        <ele>923.2</ele>
        <time>2022-06-11T14:43:28Z</time>
      </trkpt>
      <trkpt lat="44.11806" lon="6.80157">
        <ele>923.4</ele>
        <time>2022-06-11T14:43:29Z</time>
      </trkpt>
      <trkpt lat="44.11808" lon="6.80154">
        <ele>923.8</ele>
        <time>2022-06-11T14:43:30Z</time>
      </trkpt>
      <trkpt lat="44.11809" lon="6.80151">
        <ele>924.3</ele>
        <time>2022-06-11T14:43:31Z</time>
      </trkpt>
      <trkpt lat="44.11811" lon="6.80148">
        <ele>924.8</ele>
        <time>2022-06-11T14:43:32Z</time>
      </trkpt>
      <trkpt lat="44.11813" lon="6.80145">
        <ele>925.3</ele>
        <time>2022-06-11T14:43:33Z</time>
      </trkpt>
      <trkpt lat="44.11814" lon="6.80142">
        <ele>925.8</ele>
        <time>2022-06-11T14:43:34Z</time>
      </trkpt>
      <trkpt lat="44.11816" lon="6.80139">
        <ele>926.5</ele>
        <time>2022-06-11T14:43:35Z</time>
      </trkpt>
      <trkpt lat="44.11818" lon="6.80136">
        <ele>926.9</ele>
        <time>2022-06-11T14:43:36Z</time>
      </trkpt>
      <trkpt lat="44.1182" lon="6.80133">
        <ele>927.3</ele>
        <time>2022-06-11T14:43:37Z</time>
      </trkpt>
      <trkpt lat="44.11821" lon="6.8013">
        <ele>927.5</ele>
        <time>2022-06-11T14:43:38Z</time>
      </trkpt>
      <trkpt lat="44.11823" lon="6.80127">
        <ele>927.7</ele>
        <time>2022-06-11T14:43:39Z</time>
      </trkpt>
      <trkpt lat="44.11825" lon="6.80124">
        <ele>927.8</ele>
        <time>2022-06-11T14:43:40Z</time>
      </trkpt>
      <trkpt lat="44.11826" lon="6.80121">
        <ele>927.8</ele>
        <time>2022-06-11T14:43:41Z</time>
      </trkpt>
      <trkpt lat="44.11828" lon="6.80117">
        <ele>927.7</ele>
        <time>2022-06-11T14:43:42Z</time>
      </trkpt>
      <trkpt lat="44.11829" lon="6.80114">
        <ele>927.4</ele>
        <time>2022-06-11T14:43:43Z</time>
      </trkpt>
      <trkpt lat="44.1183" lon="6.8011">
        <ele>927.2</ele>
        <time>2022-06-11T14:43:44Z</time>
      </trkpt>
      <trkpt lat="44.11832" lon="6.80107">
        <ele>927.2</ele>
        <time>2022-06-11T14:43:45Z</time>
      </trkpt>
      <trkpt lat="44.11833" lon="6.80103">
        <ele>927.2</ele>
        <time>2022-06-11T14:43:46Z</time>
      </trkpt>
      <trkpt lat="44.11833" lon="6.80099">
        <ele>927.1</ele>
        <time>2022-06-11T14:43:47Z</time>
      </trkpt>
      <trkpt lat="44.11834" lon="6.80094">
        <ele>927</ele>
        <time>2022-06-11T14:43:48Z</time>
      </trkpt>
      <trkpt lat="44.11835" lon="6.80089">
        <ele>926.7</ele>
        <time>2022-06-11T14:43:49Z</time>
      </trkpt>
      <trkpt lat="44.11835" lon="6.80084">
        <ele>926.4</ele>
        <time>2022-06-11T14:43:50Z</time>
      </trkpt>
      <trkpt lat="44.11834" lon="6.80079">
        <ele>926.2</ele>
        <time>2022-06-11T14:43:51Z</time>
      </trkpt>
      <trkpt lat="44.11834" lon="6.80074">
        <ele>926</ele>
        <time>2022-06-11T14:43:52Z</time>
      </trkpt>
      <trkpt lat="44.11833" lon="6.8007">
        <ele>925.9</ele>
        <time>2022-06-11T14:43:53Z</time>
      </trkpt>
      <trkpt lat="44.11832" lon="6.80065">
        <ele>925.9</ele>
        <time>2022-06-11T14:43:54Z</time>
      </trkpt>
      <trkpt lat="44.1183" lon="6.8006">
        <ele>925.8</ele>
        <time>2022-06-11T14:43:55Z</time>
      </trkpt>
      <trkpt lat="44.11829" lon="6.80056">
        <ele>925.8</ele>
        <time>2022-06-11T14:43:56Z</time>
      </trkpt>
      <trkpt lat="44.11827" lon="6.80052">
        <ele>926.2</ele>
        <time>2022-06-11T14:43:57Z</time>
      </trkpt>
      <trkpt lat="44.11826" lon="6.80048">
        <ele>926.5</ele>
        <time>2022-06-11T14:43:58Z</time>
      </trkpt>
      <trkpt lat="44.11824" lon="6.80043">
        <ele>926.8</ele>
        <time>2022-06-11T14:43:59Z</time>
      </trkpt>
      <trkpt lat="44.11823" lon="6.80039">
        <ele>927.2</ele>
        <time>2022-06-11T14:44:00Z</time>
      </trkpt>
      <trkpt lat="44.11822" lon="6.80035">
        <ele>927.5</ele>
        <time>2022-06-11T14:44:01Z</time>
      </trkpt>
      <trkpt lat="44.11821" lon="6.8003">
        <ele>927.9</ele>
        <time>2022-06-11T14:44:02Z</time>
      </trkpt>
      <trkpt lat="44.1182" lon="6.80026">
        <ele>928.1</ele>
        <time>2022-06-11T14:44:03Z</time>
      </trkpt>
      <trkpt lat="44.11819" lon="6.80021">
        <ele>928.3</ele>
        <time>2022-06-11T14:44:04Z</time>
      </trkpt>
      <trkpt lat="44.11818" lon="6.80017">
        <ele>928.5</ele>
        <time>2022-06-11T14:44:05Z</time>
      </trkpt>
      <trkpt lat="44.11818" lon="6.80012">
        <ele>928.7</ele>
        <time>2022-06-11T14:44:06Z</time>
      </trkpt>
      <trkpt lat="44.11817" lon="6.80008">
        <ele>928.9</ele>
        <time>2022-06-11T14:44:07Z</time>
      </trkpt>
      <trkpt lat="44.11817" lon="6.80003">
        <ele>929.1</ele>
        <time>2022-06-11T14:44:08Z</time>
      </trkpt>
      <trkpt lat="44.11817" lon="6.79999">
        <ele>929.2</ele>
        <time>2022-06-11T14:44:09Z</time>
      </trkpt>
      <trkpt lat="44.11816" lon="6.79994">
        <ele>929.3</ele>
        <time>2022-06-11T14:44:10Z</time>
      </trkpt>
      <trkpt lat="44.11816" lon="6.79989">
        <ele>929.4</ele>
        <time>2022-06-11T14:44:11Z</time>
      </trkpt>
      <trkpt lat="44.11816" lon="6.79985">
        <ele>929.5</ele>
        <time>2022-06-11T14:44:12Z</time>
      </trkpt>
      <trkpt lat="44.11816" lon="6.79981">
        <ele>929.6</ele>
        <time>2022-06-11T14:44:13Z</time>
      </trkpt>
      <trkpt lat="44.11817" lon="6.79976">
        <ele>929.7</ele>
        <time>2022-06-11T14:44:14Z</time>
      </trkpt>
      <trkpt lat="44.11817" lon="6.79972">
        <ele>929.8</ele>
        <time>2022-06-11T14:44:15Z</time>
      </trkpt>
      <trkpt lat="44.11818" lon="6.79968">
        <ele>930</ele>
        <time>2022-06-11T14:44:16Z</time>
      </trkpt>
      <trkpt lat="44.11818" lon="6.79964">
        <ele>930.2</ele>
        <time>2022-06-11T14:44:17Z</time>
      </trkpt>
      <trkpt lat="44.11819" lon="6.79959">
        <ele>930.4</ele>
        <time>2022-06-11T14:44:18Z</time>
      </trkpt>
      <trkpt lat="44.11819" lon="6.79955">
        <ele>930.6</ele>
        <time>2022-06-11T14:44:19Z</time>
      </trkpt>
      <trkpt lat="44.11819" lon="6.79951">
        <ele>930.7</ele>
        <time>2022-06-11T14:44:20Z</time>
      </trkpt>
      <trkpt lat="44.1182" lon="6.79947">
        <ele>930.9</ele>
        <time>2022-06-11T14:44:21Z</time>
      </trkpt>
      <trkpt lat="44.1182" lon="6.79943">
        <ele>931</ele>
        <time>2022-06-11T14:44:22Z</time>
      </trkpt>
      <trkpt lat="44.11821" lon="6.79938">
        <ele>931.1</ele>
        <time>2022-06-11T14:44:23Z</time>
      </trkpt>
      <trkpt lat="44.11821" lon="6.79934">
        <ele>931.1</ele>
        <time>2022-06-11T14:44:24Z</time>
      </trkpt>
      <trkpt lat="44.11822" lon="6.7993">
        <ele>931.2</ele>
        <time>2022-06-11T14:44:25Z</time>
      </trkpt>
      <trkpt lat="44.11822" lon="6.79926">
        <ele>931.2</ele>
        <time>2022-06-11T14:44:26Z</time>
      </trkpt>
      <trkpt lat="44.11823" lon="6.79921">
        <ele>931.2</ele>
        <time>2022-06-11T14:44:27Z</time>
      </trkpt>
      <trkpt lat="44.11823" lon="6.79917">
        <ele>931.2</ele>
        <time>2022-06-11T14:44:28Z</time>
      </trkpt>
      <trkpt lat="44.11823" lon="6.79913">
        <ele>931.3</ele>
        <time>2022-06-11T14:44:29Z</time>
      </trkpt>
      <trkpt lat="44.11823" lon="6.79909">
        <ele>931.5</ele>
        <time>2022-06-11T14:44:30Z</time>
      </trkpt>
      <trkpt lat="44.11824" lon="6.79904">
        <ele>931.6</ele>
        <time>2022-06-11T14:44:31Z</time>
      </trkpt>
      <trkpt lat="44.11825" lon="6.799">
        <ele>931.8</ele>
        <time>2022-06-11T14:44:32Z</time>
      </trkpt>
      <trkpt lat="44.11825" lon="6.79896">
        <ele>931.9</ele>
        <time>2022-06-11T14:44:33Z</time>
      </trkpt>
      <trkpt lat="44.11826" lon="6.79892">
        <ele>932.1</ele>
        <time>2022-06-11T14:44:34Z</time>
      </trkpt>
      <trkpt lat="44.11827" lon="6.79889">
        <ele>932.3</ele>
        <time>2022-06-11T14:44:35Z</time>
      </trkpt>
      <trkpt lat="44.11827" lon="6.79885">
        <ele>932.6</ele>
        <time>2022-06-11T14:44:36Z</time>
      </trkpt>
      <trkpt lat="44.11828" lon="6.79881">
        <ele>932.9</ele>
        <time>2022-06-11T14:44:37Z</time>
      </trkpt>
      <trkpt lat="44.11829" lon="6.79877">
        <ele>933.3</ele>
        <time>2022-06-11T14:44:38Z</time>
      </trkpt>
      <trkpt lat="44.1183" lon="6.79874">
        <ele>933.7</ele>
        <time>2022-06-11T14:44:39Z</time>
      </trkpt>
      <trkpt lat="44.11831" lon="6.7987">
        <ele>934</ele>
        <time>2022-06-11T14:44:40Z</time>
      </trkpt>
      <trkpt lat="44.11832" lon="6.79866">
        <ele>934.5</ele>
        <time>2022-06-11T14:44:41Z</time>
      </trkpt>
      <trkpt lat="44.11834" lon="6.79863">
        <ele>934.9</ele>
        <time>2022-06-11T14:44:42Z</time>
      </trkpt>
      <trkpt lat="44.11835" lon="6.79859">
        <ele>935.1</ele>
        <time>2022-06-11T14:44:43Z</time>
      </trkpt>
      <trkpt lat="44.11836" lon="6.79855">
        <ele>935.3</ele>
        <time>2022-06-11T14:44:44Z</time>
      </trkpt>
      <trkpt lat="44.11837" lon="6.79851">
        <ele>935.5</ele>
        <time>2022-06-11T14:44:45Z</time>
      </trkpt>
      <trkpt lat="44.11838" lon="6.79847">
        <ele>935.7</ele>
        <time>2022-06-11T14:44:46Z</time>
      </trkpt>
      <trkpt lat="44.11839" lon="6.79843">
        <ele>935.8</ele>
        <time>2022-06-11T14:44:47Z</time>
      </trkpt>
      <trkpt lat="44.1184" lon="6.7984">
        <ele>936</ele>
        <time>2022-06-11T14:44:48Z</time>
      </trkpt>
      <trkpt lat="44.11841" lon="6.79836">
        <ele>936.2</ele>
        <time>2022-06-11T14:44:49Z</time>
      </trkpt>
      <trkpt lat="44.11842" lon="6.79832">
        <ele>936.3</ele>
        <time>2022-06-11T14:44:50Z</time>
      </trkpt>
      <trkpt lat="44.11843" lon="6.79828">
        <ele>936.4</ele>
        <time>2022-06-11T14:44:51Z</time>
      </trkpt>
      <trkpt lat="44.11845" lon="6.79824">
        <ele>936.5</ele>
        <time>2022-06-11T14:44:52Z</time>
      </trkpt>
      <trkpt lat="44.11846" lon="6.7982">
        <ele>936.7</ele>
        <time>2022-06-11T14:44:53Z</time>
      </trkpt>
      <trkpt lat="44.11847" lon="6.79816">
        <ele>936.8</ele>
        <time>2022-06-11T14:44:54Z</time>
      </trkpt>
      <trkpt lat="44.11848" lon="6.79812">
        <ele>936.9</ele>
        <time>2022-06-11T14:44:55Z</time>
      </trkpt>
      <trkpt lat="44.1185" lon="6.79808">
        <ele>937.1</ele>
        <time>2022-06-11T14:44:56Z</time>
      </trkpt>
      <trkpt lat="44.11851" lon="6.79805">
        <ele>937.1</ele>
        <time>2022-06-11T14:44:57Z</time>
      </trkpt>
      <trkpt lat="44.11853" lon="6.79801">
        <ele>936.7</ele>
        <time>2022-06-11T14:44:58Z</time>
      </trkpt>
      <trkpt lat="44.11855" lon="6.79797">
        <ele>936.3</ele>
        <time>2022-06-11T14:44:59Z</time>
      </trkpt>
      <trkpt lat="44.11857" lon="6.79793">
        <ele>935.9</ele>
        <time>2022-06-11T14:45:00Z</time>
      </trkpt>
      <trkpt lat="44.11858" lon="6.79789">
        <ele>935.4</ele>
        <time>2022-06-11T14:45:01Z</time>
      </trkpt>
      <trkpt lat="44.1186" lon="6.79785">
        <ele>934.9</ele>
        <time>2022-06-11T14:45:02Z</time>
      </trkpt>
      <trkpt lat="44.11862" lon="6.79781">
        <ele>934.6</ele>
        <time>2022-06-11T14:45:03Z</time>
      </trkpt>
      <trkpt lat="44.11864" lon="6.79778">
        <ele>934.4</ele>
        <time>2022-06-11T14:45:04Z</time>
      </trkpt>
      <trkpt lat="44.11866" lon="6.79774">
        <ele>935</ele>
        <time>2022-06-11T14:45:05Z</time>
      </trkpt>
      <trkpt lat="44.11868" lon="6.7977">
        <ele>935.7</ele>
        <time>2022-06-11T14:45:06Z</time>
      </trkpt>
      <trkpt lat="44.1187" lon="6.79766">
        <ele>936.3</ele>
        <time>2022-06-11T14:45:07Z</time>
      </trkpt>
      <trkpt lat="44.11872" lon="6.79762">
        <ele>936.9</ele>
        <time>2022-06-11T14:45:08Z</time>
      </trkpt>
      <trkpt lat="44.11874" lon="6.79758">
        <ele>937.4</ele>
        <time>2022-06-11T14:45:09Z</time>
      </trkpt>
      <trkpt lat="44.11877" lon="6.79754">
        <ele>937.9</ele>
        <time>2022-06-11T14:45:10Z</time>
      </trkpt>
      <trkpt lat="44.1188" lon="6.7975">
        <ele>938.3</ele>
        <time>2022-06-11T14:45:11Z</time>
      </trkpt>
      <trkpt lat="44.11883" lon="6.79745">
        <ele>938.5</ele>
        <time>2022-06-11T14:45:12Z</time>
      </trkpt>
      <trkpt lat="44.11886" lon="6.79741">
        <ele>938.7</ele>
        <time>2022-06-11T14:45:13Z</time>
      </trkpt>
      <trkpt lat="44.11889" lon="6.79736">
        <ele>939</ele>
        <time>2022-06-11T14:45:14Z</time>
      </trkpt>
      <trkpt lat="44.11893" lon="6.79732">
        <ele>939.2</ele>
        <time>2022-06-11T14:45:15Z</time>
      </trkpt>
      <trkpt lat="44.11896" lon="6.79728">
        <ele>939.5</ele>
        <time>2022-06-11T14:45:16Z</time>
      </trkpt>
      <trkpt lat="44.119" lon="6.79723">
        <ele>939.8</ele>
        <time>2022-06-11T14:45:17Z</time>
      </trkpt>
      <trkpt lat="44.11904" lon="6.79719">
        <ele>939.9</ele>
        <time>2022-06-11T14:45:18Z</time>
      </trkpt>
      <trkpt lat="44.11907" lon="6.79714">
        <ele>939.9</ele>
        <time>2022-06-11T14:45:19Z</time>
      </trkpt>
      <trkpt lat="44.11911" lon="6.79709">
        <ele>940</ele>
        <time>2022-06-11T14:45:20Z</time>
      </trkpt>
      <trkpt lat="44.11915" lon="6.79705">
        <ele>940.2</ele>
        <time>2022-06-11T14:45:21Z</time>
      </trkpt>
      <trkpt lat="44.11919" lon="6.797">
        <ele>940.3</ele>
        <time>2022-06-11T14:45:22Z</time>
      </trkpt>
      <trkpt lat="44.11922" lon="6.79696">
        <ele>940.3</ele>
        <time>2022-06-11T14:45:23Z</time>
      </trkpt>
      <trkpt lat="44.11926" lon="6.79692">
        <ele>940.3</ele>
        <time>2022-06-11T14:45:24Z</time>
      </trkpt>
      <trkpt lat="44.11929" lon="6.79688">
        <ele>940.4</ele>
        <time>2022-06-11T14:45:25Z</time>
      </trkpt>
      <trkpt lat="44.11932" lon="6.79684">
        <ele>940.6</ele>
        <time>2022-06-11T14:45:26Z</time>
      </trkpt>
      <trkpt lat="44.11935" lon="6.7968">
        <ele>940.8</ele>
        <time>2022-06-11T14:45:27Z</time>
      </trkpt>
      <trkpt lat="44.11938" lon="6.79677">
        <ele>941.1</ele>
        <time>2022-06-11T14:45:28Z</time>
      </trkpt>
      <trkpt lat="44.11941" lon="6.79673">
        <ele>941.4</ele>
        <time>2022-06-11T14:45:29Z</time>
      </trkpt>
      <trkpt lat="44.11944" lon="6.7967">
        <ele>941.8</ele>
        <time>2022-06-11T14:45:30Z</time>
      </trkpt>
      <trkpt lat="44.11947" lon="6.79665">
        <ele>942.3</ele>
        <time>2022-06-11T14:45:31Z</time>
      </trkpt>
      <trkpt lat="44.1195" lon="6.79661">
        <ele>942.8</ele>
        <time>2022-06-11T14:45:32Z</time>
      </trkpt>
      <trkpt lat="44.11953" lon="6.79657">
        <ele>943.2</ele>
        <time>2022-06-11T14:45:33Z</time>
      </trkpt>
      <trkpt lat="44.11957" lon="6.79652">
        <ele>943.6</ele>
        <time>2022-06-11T14:45:34Z</time>
      </trkpt>
      <trkpt lat="44.1196" lon="6.79647">
        <ele>944</ele>
        <time>2022-06-11T14:45:35Z</time>
      </trkpt>
      <trkpt lat="44.11963" lon="6.79643">
        <ele>944.3</ele>
        <time>2022-06-11T14:45:36Z</time>
      </trkpt>
      <trkpt lat="44.11967" lon="6.79638">
        <ele>944.6</ele>
        <time>2022-06-11T14:45:37Z</time>
      </trkpt>
      <trkpt lat="44.1197" lon="6.79634">
        <ele>944.7</ele>
        <time>2022-06-11T14:45:38Z</time>
      </trkpt>
      <trkpt lat="44.11973" lon="6.7963">
        <ele>944.7</ele>
        <time>2022-06-11T14:45:39Z</time>
      </trkpt>
      <trkpt lat="44.11976" lon="6.79626">
        <ele>944.8</ele>
        <time>2022-06-11T14:45:40Z</time>
      </trkpt>
      <trkpt lat="44.1198" lon="6.79623">
        <ele>944.9</ele>
        <time>2022-06-11T14:45:41Z</time>
      </trkpt>
      <trkpt lat="44.11983" lon="6.7962">
        <ele>945.1</ele>
        <time>2022-06-11T14:45:42Z</time>
      </trkpt>
      <trkpt lat="44.11986" lon="6.79616">
        <ele>945.2</ele>
        <time>2022-06-11T14:45:43Z</time>
      </trkpt>
      <trkpt lat="44.11989" lon="6.79613">
        <ele>945.3</ele>
        <time>2022-06-11T14:45:44Z</time>
      </trkpt>
      <trkpt lat="44.11992" lon="6.79609">
        <ele>945.3</ele>
        <time>2022-06-11T14:45:45Z</time>
      </trkpt>
      <trkpt lat="44.11995" lon="6.79605">
        <ele>945.4</ele>
        <time>2022-06-11T14:45:46Z</time>
      </trkpt>
      <trkpt lat="44.11998" lon="6.79601">
        <ele>945.4</ele>
        <time>2022-06-11T14:45:47Z</time>
      </trkpt>
      <trkpt lat="44.12001" lon="6.79597">
        <ele>945.5</ele>
        <time>2022-06-11T14:45:48Z</time>
      </trkpt>
      <trkpt lat="44.12004" lon="6.79593">
        <ele>945.7</ele>
        <time>2022-06-11T14:45:49Z</time>
      </trkpt>
      <trkpt lat="44.12007" lon="6.79588">
        <ele>945.9</ele>
        <time>2022-06-11T14:45:50Z</time>
      </trkpt>
      <trkpt lat="44.1201" lon="6.79583">
        <ele>946</ele>
        <time>2022-06-11T14:45:51Z</time>
      </trkpt>
      <trkpt lat="44.12012" lon="6.79579">
        <ele>946.1</ele>
        <time>2022-06-11T14:45:52Z</time>
      </trkpt>
      <trkpt lat="44.12015" lon="6.79574">
        <ele>946.1</ele>
        <time>2022-06-11T14:45:53Z</time>
      </trkpt>
      <trkpt lat="44.12018" lon="6.7957">
        <ele>946.2</ele>
        <time>2022-06-11T14:45:54Z</time>
      </trkpt>
      <trkpt lat="44.12022" lon="6.79565">
        <ele>946.2</ele>
        <time>2022-06-11T14:45:55Z</time>
      </trkpt>
      <trkpt lat="44.12024" lon="6.79559">
        <ele>946</ele>
        <time>2022-06-11T14:45:56Z</time>
      </trkpt>
      <trkpt lat="44.12027" lon="6.79553">
        <ele>945.9</ele>
        <time>2022-06-11T14:45:57Z</time>
      </trkpt>
      <trkpt lat="44.1203" lon="6.79547">
        <ele>945.9</ele>
        <time>2022-06-11T14:45:58Z</time>
      </trkpt>
      <trkpt lat="44.12033" lon="6.79542">
        <ele>946</ele>
        <time>2022-06-11T14:45:59Z</time>
      </trkpt>
      <trkpt lat="44.12036" lon="6.79537">
        <ele>946</ele>
        <time>2022-06-11T14:46:00Z</time>
      </trkpt>
      <trkpt lat="44.12039" lon="6.79532">
        <ele>946</ele>
        <time>2022-06-11T14:46:01Z</time>
      </trkpt>
      <trkpt lat="44.12042" lon="6.79528">
        <ele>946</ele>
        <time>2022-06-11T14:46:02Z</time>
      </trkpt>
      <trkpt lat="44.12045" lon="6.79523">
        <ele>946</ele>
        <time>2022-06-11T14:46:03Z</time>
      </trkpt>
      <trkpt lat="44.12049" lon="6.7952">
        <ele>946.1</ele>
        <time>2022-06-11T14:46:04Z</time>
      </trkpt>
      <trkpt lat="44.12053" lon="6.79518">
        <ele>946.4</ele>
        <time>2022-06-11T14:46:05Z</time>
      </trkpt>
      <trkpt lat="44.12056" lon="6.79514">
        <ele>946.6</ele>
        <time>2022-06-11T14:46:06Z</time>
      </trkpt>
      <trkpt lat="44.1206" lon="6.7951">
        <ele>946.8</ele>
        <time>2022-06-11T14:46:07Z</time>
      </trkpt>
      <trkpt lat="44.12063" lon="6.79505">
        <ele>947</ele>
        <time>2022-06-11T14:46:08Z</time>
      </trkpt>
      <trkpt lat="44.12067" lon="6.795">
        <ele>947.2</ele>
        <time>2022-06-11T14:46:09Z</time>
      </trkpt>
      <trkpt lat="44.12071" lon="6.79494">
        <ele>947.2</ele>
        <time>2022-06-11T14:46:10Z</time>
      </trkpt>
      <trkpt lat="44.12074" lon="6.79488">
        <ele>947.2</ele>
        <time>2022-06-11T14:46:11Z</time>
      </trkpt>
      <trkpt lat="44.12078" lon="6.79483">
        <ele>947.1</ele>
        <time>2022-06-11T14:46:12Z</time>
      </trkpt>
      <trkpt lat="44.12081" lon="6.79477">
        <ele>947.1</ele>
        <time>2022-06-11T14:46:13Z</time>
      </trkpt>
      <trkpt lat="44.12085" lon="6.7947">
        <ele>947.3</ele>
        <time>2022-06-11T14:46:14Z</time>
      </trkpt>
      <trkpt lat="44.12089" lon="6.79464">
        <ele>947.8</ele>
        <time>2022-06-11T14:46:15Z</time>
      </trkpt>
      <trkpt lat="44.12092" lon="6.79458">
        <ele>948.2</ele>
        <time>2022-06-11T14:46:16Z</time>
      </trkpt>
      <trkpt lat="44.12096" lon="6.79452">
        <ele>948.4</ele>
        <time>2022-06-11T14:46:17Z</time>
      </trkpt>
      <trkpt lat="44.121" lon="6.79446">
        <ele>948.6</ele>
        <time>2022-06-11T14:46:18Z</time>
      </trkpt>
      <trkpt lat="44.12103" lon="6.7944">
        <ele>948.8</ele>
        <time>2022-06-11T14:46:19Z</time>
      </trkpt>
      <trkpt lat="44.12107" lon="6.79434">
        <ele>949</ele>
        <time>2022-06-11T14:46:20Z</time>
      </trkpt>
      <trkpt lat="44.12111" lon="6.79427">
        <ele>949.1</ele>
        <time>2022-06-11T14:46:21Z</time>
      </trkpt>
      <trkpt lat="44.12115" lon="6.79421">
        <ele>949.6</ele>
        <time>2022-06-11T14:46:22Z</time>
      </trkpt>
      <trkpt lat="44.12118" lon="6.79414">
        <ele>949.9</ele>
        <time>2022-06-11T14:46:23Z</time>
      </trkpt>
      <trkpt lat="44.12122" lon="6.79408">
        <ele>949.9</ele>
        <time>2022-06-11T14:46:24Z</time>
      </trkpt>
      <trkpt lat="44.12126" lon="6.79401">
        <ele>949.9</ele>
        <time>2022-06-11T14:46:25Z</time>
      </trkpt>
      <trkpt lat="44.1213" lon="6.79395">
        <ele>949.9</ele>
        <time>2022-06-11T14:46:26Z</time>
      </trkpt>
      <trkpt lat="44.12134" lon="6.7939">
        <ele>950</ele>
        <time>2022-06-11T14:46:27Z</time>
      </trkpt>
      <trkpt lat="44.12138" lon="6.79385">
        <ele>950.2</ele>
        <time>2022-06-11T14:46:28Z</time>
      </trkpt>
      <trkpt lat="44.12142" lon="6.7938">
        <ele>950.6</ele>
        <time>2022-06-11T14:46:29Z</time>
      </trkpt>
      <trkpt lat="44.12146" lon="6.79373">
        <ele>951</ele>
        <time>2022-06-11T14:46:30Z</time>
      </trkpt>
      <trkpt lat="44.1215" lon="6.79367">
        <ele>951.3</ele>
        <time>2022-06-11T14:46:31Z</time>
      </trkpt>
      <trkpt lat="44.12154" lon="6.7936">
        <ele>951.7</ele>
        <time>2022-06-11T14:46:32Z</time>
      </trkpt>
      <trkpt lat="44.12158" lon="6.79353">
        <ele>951.7</ele>
        <time>2022-06-11T14:46:33Z</time>
      </trkpt>
      <trkpt lat="44.12163" lon="6.79346">
        <ele>951.6</ele>
        <time>2022-06-11T14:46:34Z</time>
      </trkpt>
      <trkpt lat="44.12168" lon="6.79341">
        <ele>951.9</ele>
        <time>2022-06-11T14:46:35Z</time>
      </trkpt>
      <trkpt lat="44.12173" lon="6.79336">
        <ele>952.2</ele>
        <time>2022-06-11T14:46:36Z</time>
      </trkpt>
      <trkpt lat="44.12178" lon="6.7933">
        <ele>952.4</ele>
        <time>2022-06-11T14:46:37Z</time>
      </trkpt>
      <trkpt lat="44.12183" lon="6.79325">
        <ele>952.6</ele>
        <time>2022-06-11T14:46:38Z</time>
      </trkpt>
      <trkpt lat="44.12188" lon="6.79321">
        <ele>952.9</ele>
        <time>2022-06-11T14:46:39Z</time>
      </trkpt>
      <trkpt lat="44.12193" lon="6.79316">
        <ele>953</ele>
        <time>2022-06-11T14:46:40Z</time>
      </trkpt>
      <trkpt lat="44.12197" lon="6.7931">
        <ele>953.1</ele>
        <time>2022-06-11T14:46:41Z</time>
      </trkpt>
      <trkpt lat="44.12202" lon="6.79306">
        <ele>953.6</ele>
        <time>2022-06-11T14:46:42Z</time>
      </trkpt>
      <trkpt lat="44.12206" lon="6.793">
        <ele>953.7</ele>
        <time>2022-06-11T14:46:43Z</time>
      </trkpt>
      <trkpt lat="44.1221" lon="6.79296">
        <ele>953.8</ele>
        <time>2022-06-11T14:46:44Z</time>
      </trkpt>
      <trkpt lat="44.12214" lon="6.7929">
        <ele>953.3</ele>
        <time>2022-06-11T14:46:45Z</time>
      </trkpt>
      <trkpt lat="44.12218" lon="6.79283">
        <ele>951.9</ele>
        <time>2022-06-11T14:46:46Z</time>
      </trkpt>
      <trkpt lat="44.1222" lon="6.79275">
        <ele>950.4</ele>
        <time>2022-06-11T14:46:47Z</time>
      </trkpt>
      <trkpt lat="44.12223" lon="6.79268">
        <ele>950.3</ele>
        <time>2022-06-11T14:46:48Z</time>
      </trkpt>
      <trkpt lat="44.12224" lon="6.79261">
        <ele>950.2</ele>
        <time>2022-06-11T14:46:49Z</time>
      </trkpt>
      <trkpt lat="44.12224" lon="6.79252">
        <ele>949.7</ele>
        <time>2022-06-11T14:46:50Z</time>
      </trkpt>
      <trkpt lat="44.12224" lon="6.79243">
        <ele>951.4</ele>
        <time>2022-06-11T14:46:51Z</time>
      </trkpt>
      <trkpt lat="44.12223" lon="6.79235">
        <ele>953.3</ele>
        <time>2022-06-11T14:46:52Z</time>
      </trkpt>
      <trkpt lat="44.12222" lon="6.79227">
        <ele>954.9</ele>
        <time>2022-06-11T14:46:53Z</time>
      </trkpt>
      <trkpt lat="44.12222" lon="6.79218">
        <ele>955.4</ele>
        <time>2022-06-11T14:46:54Z</time>
      </trkpt>
      <trkpt lat="44.12222" lon="6.79209">
        <ele>954.5</ele>
        <time>2022-06-11T14:46:55Z</time>
      </trkpt>
      <trkpt lat="44.12222" lon="6.792">
        <ele>953.6</ele>
        <time>2022-06-11T14:46:56Z</time>
      </trkpt>
      <trkpt lat="44.12224" lon="6.79192">
        <ele>953.1</ele>
        <time>2022-06-11T14:46:57Z</time>
      </trkpt>
      <trkpt lat="44.12226" lon="6.79185">
        <ele>953</ele>
        <time>2022-06-11T14:46:58Z</time>
      </trkpt>
      <trkpt lat="44.12229" lon="6.79179">
        <ele>953.1</ele>
        <time>2022-06-11T14:46:59Z</time>
      </trkpt>
      <trkpt lat="44.12232" lon="6.79174">
        <ele>954</ele>
        <time>2022-06-11T14:47:00Z</time>
      </trkpt>
      <trkpt lat="44.12236" lon="6.79169">
        <ele>955.1</ele>
        <time>2022-06-11T14:47:01Z</time>
      </trkpt>
      <trkpt lat="44.1224" lon="6.79163">
        <ele>955.8</ele>
        <time>2022-06-11T14:47:02Z</time>
      </trkpt>
      <trkpt lat="44.12244" lon="6.79158">
        <ele>956</ele>
        <time>2022-06-11T14:47:03Z</time>
      </trkpt>
      <trkpt lat="44.12248" lon="6.79153">
        <ele>955.8</ele>
        <time>2022-06-11T14:47:04Z</time>
      </trkpt>
      <trkpt lat="44.12251" lon="6.79148">
        <ele>954.4</ele>
        <time>2022-06-11T14:47:05Z</time>
      </trkpt>
      <trkpt lat="44.12254" lon="6.79142">
        <ele>951.5</ele>
        <time>2022-06-11T14:47:06Z</time>
      </trkpt>
      <trkpt lat="44.12257" lon="6.79136">
        <ele>949.2</ele>
        <time>2022-06-11T14:47:07Z</time>
      </trkpt>
      <trkpt lat="44.1226" lon="6.7913">
        <ele>947.5</ele>
        <time>2022-06-11T14:47:08Z</time>
      </trkpt>
      <trkpt lat="44.12262" lon="6.79123">
        <ele>946</ele>
        <time>2022-06-11T14:47:09Z</time>
      </trkpt>
      <trkpt lat="44.12263" lon="6.79117">
        <ele>944.6</ele>
        <time>2022-06-11T14:47:10Z</time>
      </trkpt>
      <trkpt lat="44.12265" lon="6.79109">
        <ele>943.1</ele>
        <time>2022-06-11T14:47:11Z</time>
      </trkpt>
      <trkpt lat="44.12266" lon="6.79101">
        <ele>941.6</ele>
        <time>2022-06-11T14:47:12Z</time>
      </trkpt>
      <trkpt lat="44.12267" lon="6.79092">
        <ele>940.2</ele>
        <time>2022-06-11T14:47:13Z</time>
      </trkpt>
      <trkpt lat="44.12268" lon="6.79084">
        <ele>939</ele>
        <time>2022-06-11T14:47:14Z</time>
      </trkpt>
      <trkpt lat="44.12269" lon="6.79076">
        <ele>941.5</ele>
        <time>2022-06-11T14:47:15Z</time>
      </trkpt>
      <trkpt lat="44.1227" lon="6.79067">
        <ele>944.3</ele>
        <time>2022-06-11T14:47:16Z</time>
      </trkpt>
      <trkpt lat="44.1227" lon="6.79059">
        <ele>947.1</ele>
        <time>2022-06-11T14:47:17Z</time>
      </trkpt>
      <trkpt lat="44.12271" lon="6.7905">
        <ele>948.8</ele>
        <time>2022-06-11T14:47:18Z</time>
      </trkpt>
      <trkpt lat="44.12273" lon="6.79042">
        <ele>950.3</ele>
        <time>2022-06-11T14:47:19Z</time>
      </trkpt>
      <trkpt lat="44.12275" lon="6.79034">
        <ele>952</ele>
        <time>2022-06-11T14:47:20Z</time>
      </trkpt>
      <trkpt lat="44.12277" lon="6.79026">
        <ele>953.4</ele>
        <time>2022-06-11T14:47:21Z</time>
      </trkpt>
      <trkpt lat="44.1228" lon="6.7902">
        <ele>952.9</ele>
        <time>2022-06-11T14:47:22Z</time>
      </trkpt>
      <trkpt lat="44.12283" lon="6.79013">
        <ele>952.5</ele>
        <time>2022-06-11T14:47:23Z</time>
      </trkpt>
      <trkpt lat="44.12286" lon="6.79007">
        <ele>952.1</ele>
        <time>2022-06-11T14:47:24Z</time>
      </trkpt>
      <trkpt lat="44.12289" lon="6.79">
        <ele>951.6</ele>
        <time>2022-06-11T14:47:25Z</time>
      </trkpt>
      <trkpt lat="44.12292" lon="6.78993">
        <ele>952.1</ele>
        <time>2022-06-11T14:47:26Z</time>
      </trkpt>
      <trkpt lat="44.12295" lon="6.78986">
        <ele>952.7</ele>
        <time>2022-06-11T14:47:27Z</time>
      </trkpt>
      <trkpt lat="44.12298" lon="6.78978">
        <ele>953.4</ele>
        <time>2022-06-11T14:47:28Z</time>
      </trkpt>
      <trkpt lat="44.12301" lon="6.78971">
        <ele>953.9</ele>
        <time>2022-06-11T14:47:29Z</time>
      </trkpt>
      <trkpt lat="44.12304" lon="6.78963">
        <ele>953</ele>
        <time>2022-06-11T14:47:30Z</time>
      </trkpt>
      <trkpt lat="44.12306" lon="6.78955">
        <ele>951.6</ele>
        <time>2022-06-11T14:47:31Z</time>
      </trkpt>
      <trkpt lat="44.12308" lon="6.78947">
        <ele>949.7</ele>
        <time>2022-06-11T14:47:32Z</time>
      </trkpt>
      <trkpt lat="44.12309" lon="6.78939">
        <ele>949.2</ele>
        <time>2022-06-11T14:47:33Z</time>
      </trkpt>
      <trkpt lat="44.12309" lon="6.78932">
        <ele>949.4</ele>
        <time>2022-06-11T14:47:34Z</time>
      </trkpt>
      <trkpt lat="44.12308" lon="6.78924">
        <ele>949.5</ele>
        <time>2022-06-11T14:47:35Z</time>
      </trkpt>
      <trkpt lat="44.12307" lon="6.78916">
        <ele>949.4</ele>
        <time>2022-06-11T14:47:36Z</time>
      </trkpt>
      <trkpt lat="44.12305" lon="6.78908">
        <ele>950.3</ele>
        <time>2022-06-11T14:47:37Z</time>
      </trkpt>
      <trkpt lat="44.12302" lon="6.789">
        <ele>950.9</ele>
        <time>2022-06-11T14:47:38Z</time>
      </trkpt>
      <trkpt lat="44.12299" lon="6.78893">
        <ele>951.1</ele>
        <time>2022-06-11T14:47:39Z</time>
      </trkpt>
      <trkpt lat="44.12296" lon="6.78886">
        <ele>951.7</ele>
        <time>2022-06-11T14:47:40Z</time>
      </trkpt>
      <trkpt lat="44.12293" lon="6.78878">
        <ele>952.4</ele>
        <time>2022-06-11T14:47:41Z</time>
      </trkpt>
      <trkpt lat="44.1229" lon="6.7887">
        <ele>953</ele>
        <time>2022-06-11T14:47:42Z</time>
      </trkpt>
      <trkpt lat="44.12288" lon="6.78862">
        <ele>953.6</ele>
        <time>2022-06-11T14:47:43Z</time>
      </trkpt>
      <trkpt lat="44.12286" lon="6.78854">
        <ele>953.1</ele>
        <time>2022-06-11T14:47:44Z</time>
      </trkpt>
      <trkpt lat="44.12286" lon="6.78845">
        <ele>952.9</ele>
        <time>2022-06-11T14:47:45Z</time>
      </trkpt>
      <trkpt lat="44.12286" lon="6.78837">
        <ele>952.9</ele>
        <time>2022-06-11T14:47:46Z</time>
      </trkpt>
      <trkpt lat="44.12286" lon="6.78829">
        <ele>953</ele>
        <time>2022-06-11T14:47:47Z</time>
      </trkpt>
      <trkpt lat="44.12286" lon="6.7882">
        <ele>953.2</ele>
        <time>2022-06-11T14:47:48Z</time>
      </trkpt>
      <trkpt lat="44.12286" lon="6.78812">
        <ele>953.2</ele>
        <time>2022-06-11T14:47:49Z</time>
      </trkpt>
      <trkpt lat="44.12286" lon="6.78803">
        <ele>953</ele>
        <time>2022-06-11T14:47:50Z</time>
      </trkpt>
      <trkpt lat="44.12288" lon="6.78793">
        <ele>953</ele>
        <time>2022-06-11T14:47:51Z</time>
      </trkpt>
      <trkpt lat="44.1229" lon="6.78784">
        <ele>953.2</ele>
        <time>2022-06-11T14:47:52Z</time>
      </trkpt>
      <trkpt lat="44.12293" lon="6.78776">
        <ele>953.2</ele>
        <time>2022-06-11T14:47:53Z</time>
      </trkpt>
      <trkpt lat="44.12297" lon="6.78769">
        <ele>952.7</ele>
        <time>2022-06-11T14:47:54Z</time>
      </trkpt>
      <trkpt lat="44.12302" lon="6.78764">
        <ele>952.7</ele>
        <time>2022-06-11T14:47:55Z</time>
      </trkpt>
      <trkpt lat="44.12308" lon="6.7876">
        <ele>952.7</ele>
        <time>2022-06-11T14:47:56Z</time>
      </trkpt>
      <trkpt lat="44.12314" lon="6.78756">
        <ele>952.1</ele>
        <time>2022-06-11T14:47:57Z</time>
      </trkpt>
      <trkpt lat="44.12319" lon="6.78753">
        <ele>951.9</ele>
        <time>2022-06-11T14:47:58Z</time>
      </trkpt>
      <trkpt lat="44.12325" lon="6.7875">
        <ele>951.9</ele>
        <time>2022-06-11T14:47:59Z</time>
      </trkpt>
      <trkpt lat="44.12331" lon="6.78749">
        <ele>952.3</ele>
        <time>2022-06-11T14:48:00Z</time>
      </trkpt>
      <trkpt lat="44.12337" lon="6.78746">
        <ele>951.5</ele>
        <time>2022-06-11T14:48:01Z</time>
      </trkpt>
      <trkpt lat="44.12343" lon="6.78743">
        <ele>950.4</ele>
        <time>2022-06-11T14:48:02Z</time>
      </trkpt>
      <trkpt lat="44.12349" lon="6.78741">
        <ele>949.5</ele>
        <time>2022-06-11T14:48:03Z</time>
      </trkpt>
      <trkpt lat="44.12354" lon="6.78736">
        <ele>948.8</ele>
        <time>2022-06-11T14:48:04Z</time>
      </trkpt>
      <trkpt lat="44.1236" lon="6.78731">
        <ele>948.3</ele>
        <time>2022-06-11T14:48:05Z</time>
      </trkpt>
      <trkpt lat="44.12364" lon="6.78725">
        <ele>948.5</ele>
        <time>2022-06-11T14:48:06Z</time>
      </trkpt>
      <trkpt lat="44.12368" lon="6.78717">
        <ele>948.8</ele>
        <time>2022-06-11T14:48:07Z</time>
      </trkpt>
      <trkpt lat="44.12371" lon="6.78709">
        <ele>949</ele>
        <time>2022-06-11T14:48:08Z</time>
      </trkpt>
      <trkpt lat="44.12373" lon="6.787">
        <ele>949</ele>
        <time>2022-06-11T14:48:09Z</time>
      </trkpt>
      <trkpt lat="44.12375" lon="6.78691">
        <ele>949</ele>
        <time>2022-06-11T14:48:10Z</time>
      </trkpt>
      <trkpt lat="44.12376" lon="6.78682">
        <ele>949.4</ele>
        <time>2022-06-11T14:48:11Z</time>
      </trkpt>
      <trkpt lat="44.12378" lon="6.78673">
        <ele>949.9</ele>
        <time>2022-06-11T14:48:12Z</time>
      </trkpt>
      <trkpt lat="44.12379" lon="6.78664">
        <ele>950.1</ele>
        <time>2022-06-11T14:48:13Z</time>
      </trkpt>
      <trkpt lat="44.1238" lon="6.78656">
        <ele>949.8</ele>
        <time>2022-06-11T14:48:14Z</time>
      </trkpt>
      <trkpt lat="44.12382" lon="6.78647">
        <ele>949.5</ele>
        <time>2022-06-11T14:48:15Z</time>
      </trkpt>
      <trkpt lat="44.12383" lon="6.78639">
        <ele>949.1</ele>
        <time>2022-06-11T14:48:16Z</time>
      </trkpt>
      <trkpt lat="44.12384" lon="6.7863">
        <ele>948.7</ele>
        <time>2022-06-11T14:48:17Z</time>
      </trkpt>
      <trkpt lat="44.12385" lon="6.78622">
        <ele>948.2</ele>
        <time>2022-06-11T14:48:18Z</time>
      </trkpt>
      <trkpt lat="44.12385" lon="6.78613">
        <ele>947.7</ele>
        <time>2022-06-11T14:48:19Z</time>
      </trkpt>
      <trkpt lat="44.12385" lon="6.78605">
        <ele>946.9</ele>
        <time>2022-06-11T14:48:20Z</time>
      </trkpt>
      <trkpt lat="44.12386" lon="6.78597">
        <ele>946.1</ele>
        <time>2022-06-11T14:48:21Z</time>
      </trkpt>
      <trkpt lat="44.12386" lon="6.78589">
        <ele>945.2</ele>
        <time>2022-06-11T14:48:22Z</time>
      </trkpt>
      <trkpt lat="44.12386" lon="6.78581">
        <ele>945.5</ele>
        <time>2022-06-11T14:48:23Z</time>
      </trkpt>
      <trkpt lat="44.12386" lon="6.78572">
        <ele>948.1</ele>
        <time>2022-06-11T14:48:24Z</time>
      </trkpt>
      <trkpt lat="44.12387" lon="6.78564">
        <ele>951.3</ele>
        <time>2022-06-11T14:48:25Z</time>
      </trkpt>
      <trkpt lat="44.1239" lon="6.78557">
        <ele>954.9</ele>
        <time>2022-06-11T14:48:26Z</time>
      </trkpt>
      <trkpt lat="44.12393" lon="6.7855">
        <ele>954.8</ele>
        <time>2022-06-11T14:48:27Z</time>
      </trkpt>
      <trkpt lat="44.12396" lon="6.78543">
        <ele>954.8</ele>
        <time>2022-06-11T14:48:28Z</time>
      </trkpt>
      <trkpt lat="44.12399" lon="6.78537">
        <ele>955.4</ele>
        <time>2022-06-11T14:48:29Z</time>
      </trkpt>
      <trkpt lat="44.12403" lon="6.78531">
        <ele>956.8</ele>
        <time>2022-06-11T14:48:30Z</time>
      </trkpt>
      <trkpt lat="44.12406" lon="6.78525">
        <ele>957.6</ele>
        <time>2022-06-11T14:48:31Z</time>
      </trkpt>
      <trkpt lat="44.1241" lon="6.78519">
        <ele>957.4</ele>
        <time>2022-06-11T14:48:32Z</time>
      </trkpt>
      <trkpt lat="44.12414" lon="6.78514">
        <ele>957.1</ele>
        <time>2022-06-11T14:48:33Z</time>
      </trkpt>
      <trkpt lat="44.12417" lon="6.78508">
        <ele>956.4</ele>
        <time>2022-06-11T14:48:34Z</time>
      </trkpt>
      <trkpt lat="44.1242" lon="6.78502">
        <ele>955.8</ele>
        <time>2022-06-11T14:48:35Z</time>
      </trkpt>
      <trkpt lat="44.12424" lon="6.78497">
        <ele>956.2</ele>
        <time>2022-06-11T14:48:36Z</time>
      </trkpt>
      <trkpt lat="44.12428" lon="6.78492">
        <ele>957</ele>
        <time>2022-06-11T14:48:37Z</time>
      </trkpt>
      <trkpt lat="44.12432" lon="6.78488">
        <ele>957.9</ele>
        <time>2022-06-11T14:48:38Z</time>
      </trkpt>
      <trkpt lat="44.12436" lon="6.78484">
        <ele>958.6</ele>
        <time>2022-06-11T14:48:39Z</time>
      </trkpt>
      <trkpt lat="44.1244" lon="6.7848">
        <ele>958.9</ele>
        <time>2022-06-11T14:48:40Z</time>
      </trkpt>
      <trkpt lat="44.12444" lon="6.78476">
        <ele>959.1</ele>
        <time>2022-06-11T14:48:41Z</time>
      </trkpt>
      <trkpt lat="44.12448" lon="6.78472">
        <ele>958.7</ele>
        <time>2022-06-11T14:48:42Z</time>
      </trkpt>
      <trkpt lat="44.12453" lon="6.7847">
        <ele>958.8</ele>
        <time>2022-06-11T14:48:43Z</time>
      </trkpt>
      <trkpt lat="44.12458" lon="6.78469">
        <ele>959.5</ele>
        <time>2022-06-11T14:48:44Z</time>
      </trkpt>
      <trkpt lat="44.12463" lon="6.78468">
        <ele>960</ele>
        <time>2022-06-11T14:48:45Z</time>
      </trkpt>
      <trkpt lat="44.12467" lon="6.78467">
        <ele>960.3</ele>
        <time>2022-06-11T14:48:46Z</time>
      </trkpt>
      <trkpt lat="44.12472" lon="6.78467">
        <ele>961</ele>
        <time>2022-06-11T14:48:47Z</time>
      </trkpt>
      <trkpt lat="44.12477" lon="6.78466">
        <ele>960.7</ele>
        <time>2022-06-11T14:48:48Z</time>
      </trkpt>
      <trkpt lat="44.12481" lon="6.78464">
        <ele>960.1</ele>
        <time>2022-06-11T14:48:49Z</time>
      </trkpt>
      <trkpt lat="44.12485" lon="6.78461">
        <ele>959.4</ele>
        <time>2022-06-11T14:48:50Z</time>
      </trkpt>
      <trkpt lat="44.12489" lon="6.78459">
        <ele>958.7</ele>
        <time>2022-06-11T14:48:51Z</time>
      </trkpt>
      <trkpt lat="44.12493" lon="6.78456">
        <ele>957.9</ele>
        <time>2022-06-11T14:48:52Z</time>
      </trkpt>
      <trkpt lat="44.12498" lon="6.78453">
        <ele>957.2</ele>
        <time>2022-06-11T14:48:53Z</time>
      </trkpt>
      <trkpt lat="44.12501" lon="6.78449">
        <ele>956.2</ele>
        <time>2022-06-11T14:48:54Z</time>
      </trkpt>
      <trkpt lat="44.12505" lon="6.78444">
        <ele>955.2</ele>
        <time>2022-06-11T14:48:55Z</time>
      </trkpt>
      <trkpt lat="44.12509" lon="6.7844">
        <ele>955.6</ele>
        <time>2022-06-11T14:48:56Z</time>
      </trkpt>
      <trkpt lat="44.12511" lon="6.78434">
        <ele>956.2</ele>
        <time>2022-06-11T14:48:57Z</time>
      </trkpt>
      <trkpt lat="44.12514" lon="6.78428">
        <ele>957</ele>
        <time>2022-06-11T14:48:58Z</time>
      </trkpt>
      <trkpt lat="44.12516" lon="6.78421">
        <ele>958</ele>
        <time>2022-06-11T14:48:59Z</time>
      </trkpt>
      <trkpt lat="44.12519" lon="6.78415">
        <ele>959.1</ele>
        <time>2022-06-11T14:49:00Z</time>
      </trkpt>
      <trkpt lat="44.12521" lon="6.78408">
        <ele>959.8</ele>
        <time>2022-06-11T14:49:01Z</time>
      </trkpt>
      <trkpt lat="44.12523" lon="6.78402">
        <ele>960.6</ele>
        <time>2022-06-11T14:49:02Z</time>
      </trkpt>
      <trkpt lat="44.12525" lon="6.78396">
        <ele>961.5</ele>
        <time>2022-06-11T14:49:03Z</time>
      </trkpt>
      <trkpt lat="44.12526" lon="6.78389">
        <ele>962.5</ele>
        <time>2022-06-11T14:49:04Z</time>
      </trkpt>
      <trkpt lat="44.12528" lon="6.78383">
        <ele>961.8</ele>
        <time>2022-06-11T14:49:05Z</time>
      </trkpt>
      <trkpt lat="44.12531" lon="6.78378">
        <ele>961.3</ele>
        <time>2022-06-11T14:49:06Z</time>
      </trkpt>
      <trkpt lat="44.12533" lon="6.78371">
        <ele>960.6</ele>
        <time>2022-06-11T14:49:07Z</time>
      </trkpt>
      <trkpt lat="44.12535" lon="6.78366">
        <ele>960.2</ele>
        <time>2022-06-11T14:49:08Z</time>
      </trkpt>
      <trkpt lat="44.12538" lon="6.7836">
        <ele>960.1</ele>
        <time>2022-06-11T14:49:09Z</time>
      </trkpt>
      <trkpt lat="44.12541" lon="6.78355">
        <ele>960.2</ele>
        <time>2022-06-11T14:49:10Z</time>
      </trkpt>
      <trkpt lat="44.12544" lon="6.7835">
        <ele>960</ele>
        <time>2022-06-11T14:49:11Z</time>
      </trkpt>
      <trkpt lat="44.12548" lon="6.78347">
        <ele>960.4</ele>
        <time>2022-06-11T14:49:12Z</time>
      </trkpt>
      <trkpt lat="44.12552" lon="6.78344">
        <ele>960.9</ele>
        <time>2022-06-11T14:49:13Z</time>
      </trkpt>
      <trkpt lat="44.12556" lon="6.78341">
        <ele>960.9</ele>
        <time>2022-06-11T14:49:14Z</time>
      </trkpt>
      <trkpt lat="44.1256" lon="6.78339">
        <ele>960.9</ele>
        <time>2022-06-11T14:49:15Z</time>
      </trkpt>
      <trkpt lat="44.12564" lon="6.78336">
        <ele>961</ele>
        <time>2022-06-11T14:49:16Z</time>
      </trkpt>
      <trkpt lat="44.12567" lon="6.78333">
        <ele>961</ele>
        <time>2022-06-11T14:49:17Z</time>
      </trkpt>
      <trkpt lat="44.12571" lon="6.7833">
        <ele>961</ele>
        <time>2022-06-11T14:49:18Z</time>
      </trkpt>
      <trkpt lat="44.12574" lon="6.78326">
        <ele>961</ele>
        <time>2022-06-11T14:49:19Z</time>
      </trkpt>
      <trkpt lat="44.12578" lon="6.78321">
        <ele>960.9</ele>
        <time>2022-06-11T14:49:20Z</time>
      </trkpt>
      <trkpt lat="44.1258" lon="6.78317">
        <ele>960.6</ele>
        <time>2022-06-11T14:49:21Z</time>
      </trkpt>
      <trkpt lat="44.12583" lon="6.78312">
        <ele>960.4</ele>
        <time>2022-06-11T14:49:22Z</time>
      </trkpt>
      <trkpt lat="44.12586" lon="6.78308">
        <ele>960.7</ele>
        <time>2022-06-11T14:49:23Z</time>
      </trkpt>
      <trkpt lat="44.12589" lon="6.78303">
        <ele>961</ele>
        <time>2022-06-11T14:49:24Z</time>
      </trkpt>
      <trkpt lat="44.12591" lon="6.78298">
        <ele>961.5</ele>
        <time>2022-06-11T14:49:25Z</time>
      </trkpt>
      <trkpt lat="44.12594" lon="6.78294">
        <ele>962</ele>
        <time>2022-06-11T14:49:26Z</time>
      </trkpt>
      <trkpt lat="44.12596" lon="6.78288">
        <ele>962.1</ele>
        <time>2022-06-11T14:49:27Z</time>
      </trkpt>
      <trkpt lat="44.12598" lon="6.78283">
        <ele>962.4</ele>
        <time>2022-06-11T14:49:28Z</time>
      </trkpt>
      <trkpt lat="44.12601" lon="6.78278">
        <ele>962.5</ele>
        <time>2022-06-11T14:49:29Z</time>
      </trkpt>
      <trkpt lat="44.12604" lon="6.78273">
        <ele>962.5</ele>
        <time>2022-06-11T14:49:30Z</time>
      </trkpt>
      <trkpt lat="44.12607" lon="6.78268">
        <ele>962.5</ele>
        <time>2022-06-11T14:49:31Z</time>
      </trkpt>
      <trkpt lat="44.12611" lon="6.78264">
        <ele>962.9</ele>
        <time>2022-06-11T14:49:32Z</time>
      </trkpt>
      <trkpt lat="44.12614" lon="6.7826">
        <ele>963</ele>
        <time>2022-06-11T14:49:33Z</time>
      </trkpt>
      <trkpt lat="44.12618" lon="6.78256">
        <ele>963.2</ele>
        <time>2022-06-11T14:49:34Z</time>
      </trkpt>
      <trkpt lat="44.12622" lon="6.78252">
        <ele>963.2</ele>
        <time>2022-06-11T14:49:35Z</time>
      </trkpt>
      <trkpt lat="44.12626" lon="6.78249">
        <ele>963.5</ele>
        <time>2022-06-11T14:49:36Z</time>
      </trkpt>
      <trkpt lat="44.1263" lon="6.78246">
        <ele>963.5</ele>
        <time>2022-06-11T14:49:37Z</time>
      </trkpt>
      <trkpt lat="44.12634" lon="6.78245">
        <ele>964.1</ele>
        <time>2022-06-11T14:49:38Z</time>
      </trkpt>
      <trkpt lat="44.12638" lon="6.78244">
        <ele>964.6</ele>
        <time>2022-06-11T14:49:39Z</time>
      </trkpt>
      <trkpt lat="44.12643" lon="6.78242">
        <ele>964.8</ele>
        <time>2022-06-11T14:49:40Z</time>
      </trkpt>
      <trkpt lat="44.12646" lon="6.78241">
        <ele>965</ele>
        <time>2022-06-11T14:49:41Z</time>
      </trkpt>
      <trkpt lat="44.1265" lon="6.7824">
        <ele>965.1</ele>
        <time>2022-06-11T14:49:42Z</time>
      </trkpt>
      <trkpt lat="44.12653" lon="6.78237">
        <ele>964.8</ele>
        <time>2022-06-11T14:49:43Z</time>
      </trkpt>
      <trkpt lat="44.12657" lon="6.78235">
        <ele>964.6</ele>
        <time>2022-06-11T14:49:44Z</time>
      </trkpt>
      <trkpt lat="44.1266" lon="6.78233">
        <ele>964.4</ele>
        <time>2022-06-11T14:49:45Z</time>
      </trkpt>
      <trkpt lat="44.12664" lon="6.78231">
        <ele>964.3</ele>
        <time>2022-06-11T14:49:46Z</time>
      </trkpt>
      <trkpt lat="44.12667" lon="6.78229">
        <ele>963.8</ele>
        <time>2022-06-11T14:49:47Z</time>
      </trkpt>
      <trkpt lat="44.1267" lon="6.78226">
        <ele>963.1</ele>
        <time>2022-06-11T14:49:48Z</time>
      </trkpt>
      <trkpt lat="44.12674" lon="6.78222">
        <ele>962.2</ele>
        <time>2022-06-11T14:49:49Z</time>
      </trkpt>
      <trkpt lat="44.12677" lon="6.78218">
        <ele>961.9</ele>
        <time>2022-06-11T14:49:50Z</time>
      </trkpt>
      <trkpt lat="44.12679" lon="6.78214">
        <ele>961.7</ele>
        <time>2022-06-11T14:49:51Z</time>
      </trkpt>
      <trkpt lat="44.12681" lon="6.78209">
        <ele>961.7</ele>
        <time>2022-06-11T14:49:52Z</time>
      </trkpt>
      <trkpt lat="44.12683" lon="6.78204">
        <ele>961.6</ele>
        <time>2022-06-11T14:49:53Z</time>
      </trkpt>
      <trkpt lat="44.12684" lon="6.782">
        <ele>961.7</ele>
        <time>2022-06-11T14:49:54Z</time>
      </trkpt>
      <trkpt lat="44.12685" lon="6.78194">
        <ele>961.7</ele>
        <time>2022-06-11T14:49:55Z</time>
      </trkpt>
      <trkpt lat="44.12686" lon="6.78189">
        <ele>962</ele>
        <time>2022-06-11T14:49:56Z</time>
      </trkpt>
      <trkpt lat="44.12686" lon="6.78184">
        <ele>962.1</ele>
        <time>2022-06-11T14:49:57Z</time>
      </trkpt>
      <trkpt lat="44.12686" lon="6.7818">
        <ele>962.2</ele>
        <time>2022-06-11T14:49:58Z</time>
      </trkpt>
      <trkpt lat="44.12686" lon="6.78175">
        <ele>962.2</ele>
        <time>2022-06-11T14:49:59Z</time>
      </trkpt>
      <trkpt lat="44.12686" lon="6.7817">
        <ele>962.3</ele>
        <time>2022-06-11T14:50:00Z</time>
      </trkpt>
      <trkpt lat="44.12685" lon="6.78166">
        <ele>962.5</ele>
        <time>2022-06-11T14:50:01Z</time>
      </trkpt>
      <trkpt lat="44.12684" lon="6.78161">
        <ele>963.7</ele>
        <time>2022-06-11T14:50:02Z</time>
      </trkpt>
      <trkpt lat="44.12683" lon="6.78156">
        <ele>964.9</ele>
        <time>2022-06-11T14:50:03Z</time>
      </trkpt>
      <trkpt lat="44.12682" lon="6.7815">
        <ele>966</ele>
        <time>2022-06-11T14:50:04Z</time>
      </trkpt>
      <trkpt lat="44.12681" lon="6.78145">
        <ele>967</ele>
        <time>2022-06-11T14:50:05Z</time>
      </trkpt>
      <trkpt lat="44.1268" lon="6.7814">
        <ele>968</ele>
        <time>2022-06-11T14:50:06Z</time>
      </trkpt>
      <trkpt lat="44.1268" lon="6.78135">
        <ele>968.4</ele>
        <time>2022-06-11T14:50:07Z</time>
      </trkpt>
      <trkpt lat="44.1268" lon="6.7813">
        <ele>968.8</ele>
        <time>2022-06-11T14:50:08Z</time>
      </trkpt>
      <trkpt lat="44.1268" lon="6.78125">
        <ele>969.2</ele>
        <time>2022-06-11T14:50:09Z</time>
      </trkpt>
      <trkpt lat="44.12681" lon="6.7812">
        <ele>969.8</ele>
        <time>2022-06-11T14:50:10Z</time>
      </trkpt>
      <trkpt lat="44.12683" lon="6.78114">
        <ele>970.6</ele>
        <time>2022-06-11T14:50:11Z</time>
      </trkpt>
      <trkpt lat="44.12685" lon="6.7811">
        <ele>971</ele>
        <time>2022-06-11T14:50:12Z</time>
      </trkpt>
      <trkpt lat="44.12687" lon="6.78105">
        <ele>970.4</ele>
        <time>2022-06-11T14:50:13Z</time>
      </trkpt>
      <trkpt lat="44.12689" lon="6.781">
        <ele>970.1</ele>
        <time>2022-06-11T14:50:14Z</time>
      </trkpt>
      <trkpt lat="44.12692" lon="6.78096">
        <ele>969.9</ele>
        <time>2022-06-11T14:50:15Z</time>
      </trkpt>
      <trkpt lat="44.12694" lon="6.78092">
        <ele>969.8</ele>
        <time>2022-06-11T14:50:16Z</time>
      </trkpt>
      <trkpt lat="44.12697" lon="6.78088">
        <ele>969.7</ele>
        <time>2022-06-11T14:50:17Z</time>
      </trkpt>
      <trkpt lat="44.12699" lon="6.78084">
        <ele>969.4</ele>
        <time>2022-06-11T14:50:18Z</time>
      </trkpt>
      <trkpt lat="44.12702" lon="6.7808">
        <ele>969.2</ele>
        <time>2022-06-11T14:50:19Z</time>
      </trkpt>
      <trkpt lat="44.12705" lon="6.78077">
        <ele>969.2</ele>
        <time>2022-06-11T14:50:20Z</time>
      </trkpt>
      <trkpt lat="44.12707" lon="6.78073">
        <ele>968.9</ele>
        <time>2022-06-11T14:50:21Z</time>
      </trkpt>
      <trkpt lat="44.12709" lon="6.78068">
        <ele>968.6</ele>
        <time>2022-06-11T14:50:22Z</time>
      </trkpt>
      <trkpt lat="44.1271" lon="6.78064">
        <ele>968.1</ele>
        <time>2022-06-11T14:50:23Z</time>
      </trkpt>
      <trkpt lat="44.12712" lon="6.78059">
        <ele>967.7</ele>
        <time>2022-06-11T14:50:24Z</time>
      </trkpt>
      <trkpt lat="44.12714" lon="6.78054">
        <ele>967.5</ele>
        <time>2022-06-11T14:50:25Z</time>
      </trkpt>
      <trkpt lat="44.12715" lon="6.7805">
        <ele>967.7</ele>
        <time>2022-06-11T14:50:26Z</time>
      </trkpt>
      <trkpt lat="44.12717" lon="6.78045">
        <ele>968</ele>
        <time>2022-06-11T14:50:27Z</time>
      </trkpt>
      <trkpt lat="44.12718" lon="6.7804">
        <ele>968.1</ele>
        <time>2022-06-11T14:50:28Z</time>
      </trkpt>
      <trkpt lat="44.12719" lon="6.78034">
        <ele>968.2</ele>
        <time>2022-06-11T14:50:29Z</time>
      </trkpt>
      <trkpt lat="44.1272" lon="6.78029">
        <ele>968.3</ele>
        <time>2022-06-11T14:50:30Z</time>
      </trkpt>
      <trkpt lat="44.12721" lon="6.78024">
        <ele>968.7</ele>
        <time>2022-06-11T14:50:31Z</time>
      </trkpt>
      <trkpt lat="44.12722" lon="6.78018">
        <ele>969.4</ele>
        <time>2022-06-11T14:50:32Z</time>
      </trkpt>
      <trkpt lat="44.12723" lon="6.78013">
        <ele>970.2</ele>
        <time>2022-06-11T14:50:33Z</time>
      </trkpt>
      <trkpt lat="44.12723" lon="6.78007">
        <ele>970.7</ele>
        <time>2022-06-11T14:50:34Z</time>
      </trkpt>
      <trkpt lat="44.12724" lon="6.78001">
        <ele>971.3</ele>
        <time>2022-06-11T14:50:35Z</time>
      </trkpt>
      <trkpt lat="44.12725" lon="6.77995">
        <ele>971.4</ele>
        <time>2022-06-11T14:50:36Z</time>
      </trkpt>
      <trkpt lat="44.12726" lon="6.77989">
        <ele>971.4</ele>
        <time>2022-06-11T14:50:37Z</time>
      </trkpt>
      <trkpt lat="44.12726" lon="6.77983">
        <ele>971.4</ele>
        <time>2022-06-11T14:50:38Z</time>
      </trkpt>
      <trkpt lat="44.12727" lon="6.77977">
        <ele>971.3</ele>
        <time>2022-06-11T14:50:39Z</time>
      </trkpt>
      <trkpt lat="44.12728" lon="6.77971">
        <ele>971.3</ele>
        <time>2022-06-11T14:50:40Z</time>
      </trkpt>
      <trkpt lat="44.12729" lon="6.77964">
        <ele>971.3</ele>
        <time>2022-06-11T14:50:41Z</time>
      </trkpt>
      <trkpt lat="44.12729" lon="6.77958">
        <ele>971.2</ele>
        <time>2022-06-11T14:50:42Z</time>
      </trkpt>
      <trkpt lat="44.1273" lon="6.77952">
        <ele>971.1</ele>
        <time>2022-06-11T14:50:43Z</time>
      </trkpt>
      <trkpt lat="44.12731" lon="6.77946">
        <ele>971.2</ele>
        <time>2022-06-11T14:50:44Z</time>
      </trkpt>
      <trkpt lat="44.12732" lon="6.77939">
        <ele>971.4</ele>
        <time>2022-06-11T14:50:45Z</time>
      </trkpt>
      <trkpt lat="44.12733" lon="6.77932">
        <ele>971.8</ele>
        <time>2022-06-11T14:50:46Z</time>
      </trkpt>
      <trkpt lat="44.12733" lon="6.77925">
        <ele>972.1</ele>
        <time>2022-06-11T14:50:47Z</time>
      </trkpt>
      <trkpt lat="44.12734" lon="6.77919">
        <ele>972.4</ele>
        <time>2022-06-11T14:50:48Z</time>
      </trkpt>
      <trkpt lat="44.12735" lon="6.77912">
        <ele>972.5</ele>
        <time>2022-06-11T14:50:49Z</time>
      </trkpt>
      <trkpt lat="44.12736" lon="6.77905">
        <ele>972.7</ele>
        <time>2022-06-11T14:50:50Z</time>
      </trkpt>
      <trkpt lat="44.12737" lon="6.77899">
        <ele>972.8</ele>
        <time>2022-06-11T14:50:51Z</time>
      </trkpt>
      <trkpt lat="44.12737" lon="6.77891">
        <ele>973</ele>
        <time>2022-06-11T14:50:52Z</time>
      </trkpt>
      <trkpt lat="44.12738" lon="6.77884">
        <ele>973.1</ele>
        <time>2022-06-11T14:50:53Z</time>
      </trkpt>
      <trkpt lat="44.12739" lon="6.77877">
        <ele>972.8</ele>
        <time>2022-06-11T14:50:54Z</time>
      </trkpt>
      <trkpt lat="44.1274" lon="6.7787">
        <ele>972.9</ele>
        <time>2022-06-11T14:50:55Z</time>
      </trkpt>
      <trkpt lat="44.12741" lon="6.77863">
        <ele>973</ele>
        <time>2022-06-11T14:50:56Z</time>
      </trkpt>
      <trkpt lat="44.12742" lon="6.77856">
        <ele>972.9</ele>
        <time>2022-06-11T14:50:57Z</time>
      </trkpt>
      <trkpt lat="44.12743" lon="6.77849">
        <ele>972.9</ele>
        <time>2022-06-11T14:50:58Z</time>
      </trkpt>
      <trkpt lat="44.12745" lon="6.77842">
        <ele>973.3</ele>
        <time>2022-06-11T14:50:59Z</time>
      </trkpt>
      <trkpt lat="44.12747" lon="6.77836">
        <ele>973.8</ele>
        <time>2022-06-11T14:51:00Z</time>
      </trkpt>
      <trkpt lat="44.1275" lon="6.7783">
        <ele>974.6</ele>
        <time>2022-06-11T14:51:01Z</time>
      </trkpt>
      <trkpt lat="44.12753" lon="6.77824">
        <ele>975</ele>
        <time>2022-06-11T14:51:02Z</time>
      </trkpt>
      <trkpt lat="44.12756" lon="6.77818">
        <ele>975.5</ele>
        <time>2022-06-11T14:51:03Z</time>
      </trkpt>
      <trkpt lat="44.12759" lon="6.77813">
        <ele>976</ele>
        <time>2022-06-11T14:51:04Z</time>
      </trkpt>
      <trkpt lat="44.12762" lon="6.77808">
        <ele>976.7</ele>
        <time>2022-06-11T14:51:05Z</time>
      </trkpt>
      <trkpt lat="44.12766" lon="6.77804">
        <ele>977.3</ele>
        <time>2022-06-11T14:51:06Z</time>
      </trkpt>
      <trkpt lat="44.12769" lon="6.77799">
        <ele>977.6</ele>
        <time>2022-06-11T14:51:07Z</time>
      </trkpt>
      <trkpt lat="44.12772" lon="6.77794">
        <ele>977.8</ele>
        <time>2022-06-11T14:51:08Z</time>
      </trkpt>
      <trkpt lat="44.12775" lon="6.77789">
        <ele>977.6</ele>
        <time>2022-06-11T14:51:09Z</time>
      </trkpt>
      <trkpt lat="44.12778" lon="6.77784">
        <ele>977.3</ele>
        <time>2022-06-11T14:51:10Z</time>
      </trkpt>
      <trkpt lat="44.1278" lon="6.7778">
        <ele>977.3</ele>
        <time>2022-06-11T14:51:11Z</time>
      </trkpt>
      <trkpt lat="44.12783" lon="6.77774">
        <ele>977.5</ele>
        <time>2022-06-11T14:51:12Z</time>
      </trkpt>
      <trkpt lat="44.12786" lon="6.77769">
        <ele>977.8</ele>
        <time>2022-06-11T14:51:13Z</time>
      </trkpt>
      <trkpt lat="44.12789" lon="6.77764">
        <ele>978.1</ele>
        <time>2022-06-11T14:51:14Z</time>
      </trkpt>
      <trkpt lat="44.12792" lon="6.7776">
        <ele>978.4</ele>
        <time>2022-06-11T14:51:15Z</time>
      </trkpt>
      <trkpt lat="44.12795" lon="6.77754">
        <ele>978.5</ele>
        <time>2022-06-11T14:51:16Z</time>
      </trkpt>
      <trkpt lat="44.12798" lon="6.77749">
        <ele>978.6</ele>
        <time>2022-06-11T14:51:17Z</time>
      </trkpt>
      <trkpt lat="44.12802" lon="6.77745">
        <ele>978.5</ele>
        <time>2022-06-11T14:51:18Z</time>
      </trkpt>
      <trkpt lat="44.12805" lon="6.7774">
        <ele>978.4</ele>
        <time>2022-06-11T14:51:19Z</time>
      </trkpt>
      <trkpt lat="44.1281" lon="6.77737">
        <ele>978.6</ele>
        <time>2022-06-11T14:51:20Z</time>
      </trkpt>
      <trkpt lat="44.12814" lon="6.77733">
        <ele>978.6</ele>
        <time>2022-06-11T14:51:21Z</time>
      </trkpt>
      <trkpt lat="44.12818" lon="6.77729">
        <ele>978.8</ele>
        <time>2022-06-11T14:51:22Z</time>
      </trkpt>
      <trkpt lat="44.12821" lon="6.77725">
        <ele>978.6</ele>
        <time>2022-06-11T14:51:23Z</time>
      </trkpt>
      <trkpt lat="44.12825" lon="6.77721">
        <ele>978.6</ele>
        <time>2022-06-11T14:51:24Z</time>
      </trkpt>
      <trkpt lat="44.12828" lon="6.77716">
        <ele>978.3</ele>
        <time>2022-06-11T14:51:25Z</time>
      </trkpt>
      <trkpt lat="44.12831" lon="6.77711">
        <ele>977.9</ele>
        <time>2022-06-11T14:51:26Z</time>
      </trkpt>
      <trkpt lat="44.12834" lon="6.77705">
        <ele>977.4</ele>
        <time>2022-06-11T14:51:27Z</time>
      </trkpt>
      <trkpt lat="44.12837" lon="6.777">
        <ele>977.3</ele>
        <time>2022-06-11T14:51:28Z</time>
      </trkpt>
      <trkpt lat="44.1284" lon="6.77696">
        <ele>977.6</ele>
        <time>2022-06-11T14:51:29Z</time>
      </trkpt>
      <trkpt lat="44.12843" lon="6.77691">
        <ele>978</ele>
        <time>2022-06-11T14:51:30Z</time>
      </trkpt>
      <trkpt lat="44.12845" lon="6.77686">
        <ele>978.6</ele>
        <time>2022-06-11T14:51:31Z</time>
      </trkpt>
      <trkpt lat="44.12848" lon="6.77681">
        <ele>979.3</ele>
        <time>2022-06-11T14:51:32Z</time>
      </trkpt>
      <trkpt lat="44.12851" lon="6.77676">
        <ele>979.9</ele>
        <time>2022-06-11T14:51:33Z</time>
      </trkpt>
      <trkpt lat="44.12853" lon="6.77671">
        <ele>980.5</ele>
        <time>2022-06-11T14:51:34Z</time>
      </trkpt>
      <trkpt lat="44.12856" lon="6.77667">
        <ele>981.2</ele>
        <time>2022-06-11T14:51:35Z</time>
      </trkpt>
      <trkpt lat="44.12859" lon="6.77662">
        <ele>981.1</ele>
        <time>2022-06-11T14:51:36Z</time>
      </trkpt>
      <trkpt lat="44.12861" lon="6.77657">
        <ele>981</ele>
        <time>2022-06-11T14:51:37Z</time>
      </trkpt>
      <trkpt lat="44.12864" lon="6.77653">
        <ele>980.8</ele>
        <time>2022-06-11T14:51:38Z</time>
      </trkpt>
      <trkpt lat="44.12867" lon="6.77649">
        <ele>980.5</ele>
        <time>2022-06-11T14:51:39Z</time>
      </trkpt>
      <trkpt lat="44.1287" lon="6.77644">
        <ele>980.1</ele>
        <time>2022-06-11T14:51:40Z</time>
      </trkpt>
      <trkpt lat="44.12873" lon="6.77639">
        <ele>979.5</ele>
        <time>2022-06-11T14:51:41Z</time>
      </trkpt>
      <trkpt lat="44.12875" lon="6.77633">
        <ele>979.3</ele>
        <time>2022-06-11T14:51:42Z</time>
      </trkpt>
      <trkpt lat="44.12878" lon="6.77627">
        <ele>979</ele>
        <time>2022-06-11T14:51:43Z</time>
      </trkpt>
      <trkpt lat="44.1288" lon="6.77622">
        <ele>978.9</ele>
        <time>2022-06-11T14:51:44Z</time>
      </trkpt>
      <trkpt lat="44.12883" lon="6.77616">
        <ele>978.6</ele>
        <time>2022-06-11T14:51:45Z</time>
      </trkpt>
      <trkpt lat="44.12886" lon="6.77611">
        <ele>978.4</ele>
        <time>2022-06-11T14:51:46Z</time>
      </trkpt>
      <trkpt lat="44.12888" lon="6.77605">
        <ele>978.6</ele>
        <time>2022-06-11T14:51:47Z</time>
      </trkpt>
      <trkpt lat="44.12891" lon="6.776">
        <ele>978.9</ele>
        <time>2022-06-11T14:51:48Z</time>
      </trkpt>
      <trkpt lat="44.12893" lon="6.77594">
        <ele>979.2</ele>
        <time>2022-06-11T14:51:49Z</time>
      </trkpt>
      <trkpt lat="44.12896" lon="6.77589">
        <ele>979.5</ele>
        <time>2022-06-11T14:51:50Z</time>
      </trkpt>
      <trkpt lat="44.12899" lon="6.77583">
        <ele>979.8</ele>
        <time>2022-06-11T14:51:51Z</time>
      </trkpt>
      <trkpt lat="44.12903" lon="6.77579">
        <ele>979.9</ele>
        <time>2022-06-11T14:51:52Z</time>
      </trkpt>
      <trkpt lat="44.12906" lon="6.77575">
        <ele>980.2</ele>
        <time>2022-06-11T14:51:53Z</time>
      </trkpt>
      <trkpt lat="44.1291" lon="6.7757">
        <ele>980.6</ele>
        <time>2022-06-11T14:51:54Z</time>
      </trkpt>
      <trkpt lat="44.12914" lon="6.77566">
        <ele>981</ele>
        <time>2022-06-11T14:51:55Z</time>
      </trkpt>
      <trkpt lat="44.12917" lon="6.77561">
        <ele>981.6</ele>
        <time>2022-06-11T14:51:56Z</time>
      </trkpt>
      <trkpt lat="44.12921" lon="6.77557">
        <ele>982.8</ele>
        <time>2022-06-11T14:51:57Z</time>
      </trkpt>
      <trkpt lat="44.12925" lon="6.77552">
        <ele>983.3</ele>
        <time>2022-06-11T14:51:58Z</time>
      </trkpt>
      <trkpt lat="44.12929" lon="6.77547">
        <ele>983.6</ele>
        <time>2022-06-11T14:51:59Z</time>
      </trkpt>
      <trkpt lat="44.12932" lon="6.77542">
        <ele>983.7</ele>
        <time>2022-06-11T14:52:00Z</time>
      </trkpt>
      <trkpt lat="44.12935" lon="6.77537">
        <ele>983.6</ele>
        <time>2022-06-11T14:52:01Z</time>
      </trkpt>
      <trkpt lat="44.12939" lon="6.77531">
        <ele>983.5</ele>
        <time>2022-06-11T14:52:02Z</time>
      </trkpt>
      <trkpt lat="44.12941" lon="6.77525">
        <ele>983.3</ele>
        <time>2022-06-11T14:52:03Z</time>
      </trkpt>
      <trkpt lat="44.12944" lon="6.7752">
        <ele>983</ele>
        <time>2022-06-11T14:52:04Z</time>
      </trkpt>
      <trkpt lat="44.12946" lon="6.77514">
        <ele>982.8</ele>
        <time>2022-06-11T14:52:05Z</time>
      </trkpt>
      <trkpt lat="44.12948" lon="6.77507">
        <ele>982</ele>
        <time>2022-06-11T14:52:06Z</time>
      </trkpt>
      <trkpt lat="44.1295" lon="6.775">
        <ele>980.7</ele>
        <time>2022-06-11T14:52:07Z</time>
      </trkpt>
      <trkpt lat="44.12951" lon="6.77493">
        <ele>980.9</ele>
        <time>2022-06-11T14:52:08Z</time>
      </trkpt>
      <trkpt lat="44.12952" lon="6.77486">
        <ele>981.1</ele>
        <time>2022-06-11T14:52:09Z</time>
      </trkpt>
      <trkpt lat="44.12952" lon="6.77479">
        <ele>981.1</ele>
        <time>2022-06-11T14:52:10Z</time>
      </trkpt>
      <trkpt lat="44.12953" lon="6.77472">
        <ele>981.2</ele>
        <time>2022-06-11T14:52:11Z</time>
      </trkpt>
      <trkpt lat="44.12954" lon="6.77464">
        <ele>981.6</ele>
        <time>2022-06-11T14:52:12Z</time>
      </trkpt>
      <trkpt lat="44.12955" lon="6.77457">
        <ele>982</ele>
        <time>2022-06-11T14:52:13Z</time>
      </trkpt>
      <trkpt lat="44.12957" lon="6.7745">
        <ele>982.5</ele>
        <time>2022-06-11T14:52:14Z</time>
      </trkpt>
      <trkpt lat="44.12959" lon="6.77443">
        <ele>983</ele>
        <time>2022-06-11T14:52:15Z</time>
      </trkpt>
      <trkpt lat="44.12961" lon="6.77437">
        <ele>983</ele>
        <time>2022-06-11T14:52:16Z</time>
      </trkpt>
      <trkpt lat="44.12964" lon="6.77431">
        <ele>983</ele>
        <time>2022-06-11T14:52:17Z</time>
      </trkpt>
      <trkpt lat="44.12967" lon="6.77426">
        <ele>983</ele>
        <time>2022-06-11T14:52:18Z</time>
      </trkpt>
      <trkpt lat="44.1297" lon="6.77421">
        <ele>983.1</ele>
        <time>2022-06-11T14:52:19Z</time>
      </trkpt>
      <trkpt lat="44.12974" lon="6.77417">
        <ele>983.2</ele>
        <time>2022-06-11T14:52:20Z</time>
      </trkpt>
      <trkpt lat="44.12978" lon="6.77414">
        <ele>983.4</ele>
        <time>2022-06-11T14:52:21Z</time>
      </trkpt>
      <trkpt lat="44.12981" lon="6.77412">
        <ele>983.6</ele>
        <time>2022-06-11T14:52:22Z</time>
      </trkpt>
      <trkpt lat="44.12985" lon="6.7741">
        <ele>983.7</ele>
        <time>2022-06-11T14:52:23Z</time>
      </trkpt>
      <trkpt lat="44.12988" lon="6.77409">
        <ele>984</ele>
        <time>2022-06-11T14:52:24Z</time>
      </trkpt>
      <trkpt lat="44.12993" lon="6.77407">
        <ele>984.2</ele>
        <time>2022-06-11T14:52:25Z</time>
      </trkpt>
      <trkpt lat="44.12997" lon="6.77406">
        <ele>984.5</ele>
        <time>2022-06-11T14:52:26Z</time>
      </trkpt>
      <trkpt lat="44.13" lon="6.77404">
        <ele>984.6</ele>
        <time>2022-06-11T14:52:27Z</time>
      </trkpt>
      <trkpt lat="44.13003" lon="6.77403">
        <ele>984.6</ele>
        <time>2022-06-11T14:52:28Z</time>
      </trkpt>
      <trkpt lat="44.13006" lon="6.77402">
        <ele>984.6</ele>
        <time>2022-06-11T14:52:29Z</time>
      </trkpt>
      <trkpt lat="44.1301" lon="6.77402">
        <ele>984.7</ele>
        <time>2022-06-11T14:52:30Z</time>
      </trkpt>
      <trkpt lat="44.13014" lon="6.77402">
        <ele>984.8</ele>
        <time>2022-06-11T14:52:31Z</time>
      </trkpt>
      <trkpt lat="44.13018" lon="6.77402">
        <ele>984.9</ele>
        <time>2022-06-11T14:52:32Z</time>
      </trkpt>
      <trkpt lat="44.13021" lon="6.77402">
        <ele>985.1</ele>
        <time>2022-06-11T14:52:33Z</time>
      </trkpt>
      <trkpt lat="44.13025" lon="6.77402">
        <ele>985.3</ele>
        <time>2022-06-11T14:52:34Z</time>
      </trkpt>
      <trkpt lat="44.13029" lon="6.77402">
        <ele>985.3</ele>
        <time>2022-06-11T14:52:35Z</time>
      </trkpt>
      <trkpt lat="44.13033" lon="6.77402">
        <ele>985.4</ele>
        <time>2022-06-11T14:52:36Z</time>
      </trkpt>
      <trkpt lat="44.13036" lon="6.77402">
        <ele>985.6</ele>
        <time>2022-06-11T14:52:37Z</time>
      </trkpt>
      <trkpt lat="44.1304" lon="6.77402">
        <ele>985.8</ele>
        <time>2022-06-11T14:52:38Z</time>
      </trkpt>
      <trkpt lat="44.13044" lon="6.77402">
        <ele>986</ele>
        <time>2022-06-11T14:52:39Z</time>
      </trkpt>
      <trkpt lat="44.13047" lon="6.77403">
        <ele>986.2</ele>
        <time>2022-06-11T14:52:40Z</time>
      </trkpt>
      <trkpt lat="44.13051" lon="6.77404">
        <ele>986.5</ele>
        <time>2022-06-11T14:52:41Z</time>
      </trkpt>
      <trkpt lat="44.13054" lon="6.77404">
        <ele>986.8</ele>
        <time>2022-06-11T14:52:42Z</time>
      </trkpt>
      <trkpt lat="44.13058" lon="6.77405">
        <ele>987.1</ele>
        <time>2022-06-11T14:52:43Z</time>
      </trkpt>
      <trkpt lat="44.13061" lon="6.77405">
        <ele>987.3</ele>
        <time>2022-06-11T14:52:44Z</time>
      </trkpt>
      <trkpt lat="44.13065" lon="6.77406">
        <ele>987.6</ele>
        <time>2022-06-11T14:52:45Z</time>
      </trkpt>
      <trkpt lat="44.13068" lon="6.77406">
        <ele>987.9</ele>
        <time>2022-06-11T14:52:46Z</time>
      </trkpt>
      <trkpt lat="44.13072" lon="6.77407">
        <ele>988.3</ele>
        <time>2022-06-11T14:52:47Z</time>
      </trkpt>
      <trkpt lat="44.13075" lon="6.77408">
        <ele>988.9</ele>
        <time>2022-06-11T14:52:48Z</time>
      </trkpt>
      <trkpt lat="44.13079" lon="6.77409">
        <ele>989.3</ele>
        <time>2022-06-11T14:52:49Z</time>
      </trkpt>
      <trkpt lat="44.13082" lon="6.7741">
        <ele>989.7</ele>
        <time>2022-06-11T14:52:50Z</time>
      </trkpt>
      <trkpt lat="44.13086" lon="6.77411">
        <ele>990</ele>
        <time>2022-06-11T14:52:51Z</time>
      </trkpt>
      <trkpt lat="44.1309" lon="6.77411">
        <ele>990.2</ele>
        <time>2022-06-11T14:52:52Z</time>
      </trkpt>
      <trkpt lat="44.13093" lon="6.77411">
        <ele>990.3</ele>
        <time>2022-06-11T14:52:53Z</time>
      </trkpt>
      <trkpt lat="44.13096" lon="6.77412">
        <ele>990.4</ele>
        <time>2022-06-11T14:52:54Z</time>
      </trkpt>
      <trkpt lat="44.13098" lon="6.77412">
        <ele>990.5</ele>
        <time>2022-06-11T14:52:55Z</time>
      </trkpt>
      <trkpt lat="44.13101" lon="6.77412">
        <ele>990.4</ele>
        <time>2022-06-11T14:52:56Z</time>
      </trkpt>
      <trkpt lat="44.13104" lon="6.77412">
        <ele>990.5</ele>
        <time>2022-06-11T14:52:57Z</time>
      </trkpt>
      <trkpt lat="44.13108" lon="6.77411">
        <ele>990.3</ele>
        <time>2022-06-11T14:52:58Z</time>
      </trkpt>
      <trkpt lat="44.13112" lon="6.7741">
        <ele>990.3</ele>
        <time>2022-06-11T14:52:59Z</time>
      </trkpt>
      <trkpt lat="44.13116" lon="6.7741">
        <ele>990.6</ele>
        <time>2022-06-11T14:53:00Z</time>
      </trkpt>
      <trkpt lat="44.13121" lon="6.77408">
        <ele>990.7</ele>
        <time>2022-06-11T14:53:01Z</time>
      </trkpt>
      <trkpt lat="44.13125" lon="6.77406">
        <ele>990.8</ele>
        <time>2022-06-11T14:53:02Z</time>
      </trkpt>
      <trkpt lat="44.13129" lon="6.77405">
        <ele>991.1</ele>
        <time>2022-06-11T14:53:03Z</time>
      </trkpt>
      <trkpt lat="44.13134" lon="6.77403">
        <ele>991.2</ele>
        <time>2022-06-11T14:53:04Z</time>
      </trkpt>
      <trkpt lat="44.13137" lon="6.77401">
        <ele>991.3</ele>
        <time>2022-06-11T14:53:05Z</time>
      </trkpt>
      <trkpt lat="44.13141" lon="6.77399">
        <ele>991.6</ele>
        <time>2022-06-11T14:53:06Z</time>
      </trkpt>
      <trkpt lat="44.13145" lon="6.77397">
        <ele>991.9</ele>
        <time>2022-06-11T14:53:07Z</time>
      </trkpt>
      <trkpt lat="44.13149" lon="6.77394">
        <ele>992.3</ele>
        <time>2022-06-11T14:53:08Z</time>
      </trkpt>
      <trkpt lat="44.13152" lon="6.77392">
        <ele>992.6</ele>
        <time>2022-06-11T14:53:09Z</time>
      </trkpt>
      <trkpt lat="44.13156" lon="6.77389">
        <ele>992.7</ele>
        <time>2022-06-11T14:53:10Z</time>
      </trkpt>
      <trkpt lat="44.13159" lon="6.77386">
        <ele>992.6</ele>
        <time>2022-06-11T14:53:11Z</time>
      </trkpt>
      <trkpt lat="44.13163" lon="6.77383">
        <ele>992.7</ele>
        <time>2022-06-11T14:53:12Z</time>
      </trkpt>
      <trkpt lat="44.13166" lon="6.7738">
        <ele>992.6</ele>
        <time>2022-06-11T14:53:13Z</time>
      </trkpt>
      <trkpt lat="44.1317" lon="6.77377">
        <ele>992.5</ele>
        <time>2022-06-11T14:53:14Z</time>
      </trkpt>
      <trkpt lat="44.13172" lon="6.77373">
        <ele>992.1</ele>
        <time>2022-06-11T14:53:15Z</time>
      </trkpt>
      <trkpt lat="44.13175" lon="6.77369">
        <ele>991.8</ele>
        <time>2022-06-11T14:53:16Z</time>
      </trkpt>
      <trkpt lat="44.13178" lon="6.77365">
        <ele>991.2</ele>
        <time>2022-06-11T14:53:17Z</time>
      </trkpt>
      <trkpt lat="44.13181" lon="6.77361">
        <ele>990.6</ele>
        <time>2022-06-11T14:53:18Z</time>
      </trkpt>
      <trkpt lat="44.13184" lon="6.77356">
        <ele>990.7</ele>
        <time>2022-06-11T14:53:19Z</time>
      </trkpt>
      <trkpt lat="44.13186" lon="6.77352">
        <ele>991</ele>
        <time>2022-06-11T14:53:20Z</time>
      </trkpt>
      <trkpt lat="44.13188" lon="6.77348">
        <ele>991.4</ele>
        <time>2022-06-11T14:53:21Z</time>
      </trkpt>
      <trkpt lat="44.13191" lon="6.77344">
        <ele>991.9</ele>
        <time>2022-06-11T14:53:22Z</time>
      </trkpt>
      <trkpt lat="44.13193" lon="6.7734">
        <ele>992.5</ele>
        <time>2022-06-11T14:53:23Z</time>
      </trkpt>
      <trkpt lat="44.13195" lon="6.77336">
        <ele>993.4</ele>
        <time>2022-06-11T14:53:24Z</time>
      </trkpt>
      <trkpt lat="44.13198" lon="6.77332">
        <ele>994.8</ele>
        <time>2022-06-11T14:53:25Z</time>
      </trkpt>
      <trkpt lat="44.132" lon="6.77327">
        <ele>995.5</ele>
        <time>2022-06-11T14:53:26Z</time>
      </trkpt>
      <trkpt lat="44.13202" lon="6.77323">
        <ele>996.2</ele>
        <time>2022-06-11T14:53:27Z</time>
      </trkpt>
      <trkpt lat="44.13205" lon="6.77318">
        <ele>996.7</ele>
        <time>2022-06-11T14:53:28Z</time>
      </trkpt>
      <trkpt lat="44.13207" lon="6.77314">
        <ele>997.1</ele>
        <time>2022-06-11T14:53:29Z</time>
      </trkpt>
      <trkpt lat="44.1321" lon="6.7731">
        <ele>997.2</ele>
        <time>2022-06-11T14:53:30Z</time>
      </trkpt>
      <trkpt lat="44.13212" lon="6.77306">
        <ele>997.2</ele>
        <time>2022-06-11T14:53:31Z</time>
      </trkpt>
      <trkpt lat="44.13215" lon="6.77302">
        <ele>997.5</ele>
        <time>2022-06-11T14:53:32Z</time>
      </trkpt>
      <trkpt lat="44.13218" lon="6.77297">
        <ele>997.5</ele>
        <time>2022-06-11T14:53:33Z</time>
      </trkpt>
      <trkpt lat="44.13221" lon="6.77292">
        <ele>996.9</ele>
        <time>2022-06-11T14:53:34Z</time>
      </trkpt>
      <trkpt lat="44.13223" lon="6.77287">
        <ele>996.2</ele>
        <time>2022-06-11T14:53:35Z</time>
      </trkpt>
      <trkpt lat="44.13226" lon="6.77282">
        <ele>995.1</ele>
        <time>2022-06-11T14:53:36Z</time>
      </trkpt>
      <trkpt lat="44.13229" lon="6.77276">
        <ele>994.1</ele>
        <time>2022-06-11T14:53:37Z</time>
      </trkpt>
      <trkpt lat="44.13232" lon="6.77271">
        <ele>993.4</ele>
        <time>2022-06-11T14:53:38Z</time>
      </trkpt>
      <trkpt lat="44.13235" lon="6.77266">
        <ele>993</ele>
        <time>2022-06-11T14:53:39Z</time>
      </trkpt>
      <trkpt lat="44.13238" lon="6.77261">
        <ele>992.5</ele>
        <time>2022-06-11T14:53:40Z</time>
      </trkpt>
      <trkpt lat="44.13242" lon="6.77256">
        <ele>992.1</ele>
        <time>2022-06-11T14:53:41Z</time>
      </trkpt>
      <trkpt lat="44.13244" lon="6.7725">
        <ele>991.5</ele>
        <time>2022-06-11T14:53:42Z</time>
      </trkpt>
      <trkpt lat="44.13247" lon="6.77245">
        <ele>991.8</ele>
        <time>2022-06-11T14:53:43Z</time>
      </trkpt>
      <trkpt lat="44.13249" lon="6.77239">
        <ele>991.9</ele>
        <time>2022-06-11T14:53:44Z</time>
      </trkpt>
      <trkpt lat="44.13251" lon="6.77233">
        <ele>992.3</ele>
        <time>2022-06-11T14:53:45Z</time>
      </trkpt>
      <trkpt lat="44.13254" lon="6.77228">
        <ele>992.8</ele>
        <time>2022-06-11T14:53:46Z</time>
      </trkpt>
      <trkpt lat="44.13256" lon="6.77223">
        <ele>993.2</ele>
        <time>2022-06-11T14:53:47Z</time>
      </trkpt>
      <trkpt lat="44.13258" lon="6.77218">
        <ele>993.5</ele>
        <time>2022-06-11T14:53:48Z</time>
      </trkpt>
      <trkpt lat="44.13259" lon="6.77212">
        <ele>993.6</ele>
        <time>2022-06-11T14:53:49Z</time>
      </trkpt>
      <trkpt lat="44.13261" lon="6.77207">
        <ele>993.7</ele>
        <time>2022-06-11T14:53:50Z</time>
      </trkpt>
      <trkpt lat="44.13262" lon="6.77202">
        <ele>993.9</ele>
        <time>2022-06-11T14:53:51Z</time>
      </trkpt>
      <trkpt lat="44.13263" lon="6.77197">
        <ele>994</ele>
        <time>2022-06-11T14:53:52Z</time>
      </trkpt>
      <trkpt lat="44.13265" lon="6.77192">
        <ele>994</ele>
        <time>2022-06-11T14:53:53Z</time>
      </trkpt>
      <trkpt lat="44.13266" lon="6.77187">
        <ele>994.1</ele>
        <time>2022-06-11T14:53:54Z</time>
      </trkpt>
      <trkpt lat="44.13268" lon="6.77182">
        <ele>994.3</ele>
        <time>2022-06-11T14:53:55Z</time>
      </trkpt>
      <trkpt lat="44.1327" lon="6.77177">
        <ele>994.3</ele>
        <time>2022-06-11T14:53:56Z</time>
      </trkpt>
      <trkpt lat="44.13272" lon="6.77171">
        <ele>994.6</ele>
        <time>2022-06-11T14:53:57Z</time>
      </trkpt>
      <trkpt lat="44.13273" lon="6.77166">
        <ele>994.8</ele>
        <time>2022-06-11T14:53:58Z</time>
      </trkpt>
      <trkpt lat="44.13276" lon="6.77161">
        <ele>995.1</ele>
        <time>2022-06-11T14:53:59Z</time>
      </trkpt>
      <trkpt lat="44.13278" lon="6.77156">
        <ele>995.3</ele>
        <time>2022-06-11T14:54:00Z</time>
      </trkpt>
      <trkpt lat="44.1328" lon="6.77151">
        <ele>995.7</ele>
        <time>2022-06-11T14:54:01Z</time>
      </trkpt>
      <trkpt lat="44.13282" lon="6.77146">
        <ele>996.1</ele>
        <time>2022-06-11T14:54:02Z</time>
      </trkpt>
      <trkpt lat="44.13285" lon="6.77141">
        <ele>996.4</ele>
        <time>2022-06-11T14:54:03Z</time>
      </trkpt>
      <trkpt lat="44.13287" lon="6.77135">
        <ele>996.6</ele>
        <time>2022-06-11T14:54:04Z</time>
      </trkpt>
      <trkpt lat="44.13289" lon="6.7713">
        <ele>996.8</ele>
        <time>2022-06-11T14:54:05Z</time>
      </trkpt>
      <trkpt lat="44.13292" lon="6.77125">
        <ele>996.9</ele>
        <time>2022-06-11T14:54:06Z</time>
      </trkpt>
      <trkpt lat="44.13294" lon="6.7712">
        <ele>997.2</ele>
        <time>2022-06-11T14:54:07Z</time>
      </trkpt>
      <trkpt lat="44.13297" lon="6.77115">
        <ele>997.6</ele>
        <time>2022-06-11T14:54:08Z</time>
      </trkpt>
      <trkpt lat="44.133" lon="6.77111">
        <ele>998.1</ele>
        <time>2022-06-11T14:54:09Z</time>
      </trkpt>
      <trkpt lat="44.13302" lon="6.77106">
        <ele>998.6</ele>
        <time>2022-06-11T14:54:10Z</time>
      </trkpt>
      <trkpt lat="44.13305" lon="6.77102">
        <ele>999.2</ele>
        <time>2022-06-11T14:54:11Z</time>
      </trkpt>
      <trkpt lat="44.13307" lon="6.77097">
        <ele>999.7</ele>
        <time>2022-06-11T14:54:12Z</time>
      </trkpt>
      <trkpt lat="44.1331" lon="6.77093">
        <ele>999.9</ele>
        <time>2022-06-11T14:54:13Z</time>
      </trkpt>
      <trkpt lat="44.13312" lon="6.77088">
        <ele>1000</ele>
        <time>2022-06-11T14:54:14Z</time>
      </trkpt>
      <trkpt lat="44.13314" lon="6.77083">
        <ele>1000.2</ele>
        <time>2022-06-11T14:54:15Z</time>
      </trkpt>
      <trkpt lat="44.13316" lon="6.77078">
        <ele>1000.3</ele>
        <time>2022-06-11T14:54:16Z</time>
      </trkpt>
      <trkpt lat="44.13318" lon="6.77074">
        <ele>1000.5</ele>
        <time>2022-06-11T14:54:17Z</time>
      </trkpt>
      <trkpt lat="44.13321" lon="6.77069">
        <ele>1000.7</ele>
        <time>2022-06-11T14:54:18Z</time>
      </trkpt>
      <trkpt lat="44.13323" lon="6.77064">
        <ele>1000.9</ele>
        <time>2022-06-11T14:54:19Z</time>
      </trkpt>
      <trkpt lat="44.13325" lon="6.7706">
        <ele>1001.1</ele>
        <time>2022-06-11T14:54:20Z</time>
      </trkpt>
      <trkpt lat="44.13328" lon="6.77055">
        <ele>1001.4</ele>
        <time>2022-06-11T14:54:21Z</time>
      </trkpt>
      <trkpt lat="44.13331" lon="6.7705">
        <ele>1001.5</ele>
        <time>2022-06-11T14:54:22Z</time>
      </trkpt>
      <trkpt lat="44.13333" lon="6.77045">
        <ele>1001.6</ele>
        <time>2022-06-11T14:54:23Z</time>
      </trkpt>
      <trkpt lat="44.13335" lon="6.7704">
        <ele>1001.3</ele>
        <time>2022-06-11T14:54:24Z</time>
      </trkpt>
      <trkpt lat="44.13338" lon="6.77035">
        <ele>1001</ele>
        <time>2022-06-11T14:54:25Z</time>
      </trkpt>
      <trkpt lat="44.1334" lon="6.7703">
        <ele>1000.8</ele>
        <time>2022-06-11T14:54:26Z</time>
      </trkpt>
      <trkpt lat="44.13343" lon="6.77025">
        <ele>1000.7</ele>
        <time>2022-06-11T14:54:27Z</time>
      </trkpt>
      <trkpt lat="44.13345" lon="6.7702">
        <ele>1000.7</ele>
        <time>2022-06-11T14:54:28Z</time>
      </trkpt>
      <trkpt lat="44.13348" lon="6.77015">
        <ele>1000.7</ele>
        <time>2022-06-11T14:54:29Z</time>
      </trkpt>
      <trkpt lat="44.13351" lon="6.7701">
        <ele>1000.5</ele>
        <time>2022-06-11T14:54:30Z</time>
      </trkpt>
      <trkpt lat="44.13353" lon="6.77005">
        <ele>1000.4</ele>
        <time>2022-06-11T14:54:31Z</time>
      </trkpt>
      <trkpt lat="44.13356" lon="6.77">
        <ele>1000.3</ele>
        <time>2022-06-11T14:54:32Z</time>
      </trkpt>
      <trkpt lat="44.13359" lon="6.76994">
        <ele>999.9</ele>
        <time>2022-06-11T14:54:33Z</time>
      </trkpt>
      <trkpt lat="44.13362" lon="6.76989">
        <ele>999.4</ele>
        <time>2022-06-11T14:54:34Z</time>
      </trkpt>
      <trkpt lat="44.13365" lon="6.76984">
        <ele>998.8</ele>
        <time>2022-06-11T14:54:35Z</time>
      </trkpt>
      <trkpt lat="44.13368" lon="6.76979">
        <ele>998.1</ele>
        <time>2022-06-11T14:54:36Z</time>
      </trkpt>
      <trkpt lat="44.13372" lon="6.76974">
        <ele>997.7</ele>
        <time>2022-06-11T14:54:37Z</time>
      </trkpt>
      <trkpt lat="44.13376" lon="6.76969">
        <ele>997.4</ele>
        <time>2022-06-11T14:54:38Z</time>
      </trkpt>
      <trkpt lat="44.13381" lon="6.76966">
        <ele>997.6</ele>
        <time>2022-06-11T14:54:39Z</time>
      </trkpt>
      <trkpt lat="44.13386" lon="6.76963">
        <ele>997.7</ele>
        <time>2022-06-11T14:54:40Z</time>
      </trkpt>
      <trkpt lat="44.13392" lon="6.76961">
        <ele>998.1</ele>
        <time>2022-06-11T14:54:41Z</time>
      </trkpt>
      <trkpt lat="44.13397" lon="6.7696">
        <ele>998.4</ele>
        <time>2022-06-11T14:54:42Z</time>
      </trkpt>
      <trkpt lat="44.13402" lon="6.76957">
        <ele>998.2</ele>
        <time>2022-06-11T14:54:43Z</time>
      </trkpt>
      <trkpt lat="44.13408" lon="6.76955">
        <ele>998</ele>
        <time>2022-06-11T14:54:44Z</time>
      </trkpt>
      <trkpt lat="44.13413" lon="6.76952">
        <ele>997.8</ele>
        <time>2022-06-11T14:54:45Z</time>
      </trkpt>
      <trkpt lat="44.13419" lon="6.7695">
        <ele>997.9</ele>
        <time>2022-06-11T14:54:46Z</time>
      </trkpt>
      <trkpt lat="44.13425" lon="6.76947">
        <ele>998</ele>
        <time>2022-06-11T14:54:47Z</time>
      </trkpt>
      <trkpt lat="44.13431" lon="6.76945">
        <ele>998.1</ele>
        <time>2022-06-11T14:54:48Z</time>
      </trkpt>
      <trkpt lat="44.13437" lon="6.76943">
        <ele>998.4</ele>
        <time>2022-06-11T14:54:49Z</time>
      </trkpt>
      <trkpt lat="44.13443" lon="6.76941">
        <ele>998.8</ele>
        <time>2022-06-11T14:54:50Z</time>
      </trkpt>
      <trkpt lat="44.13449" lon="6.76939">
        <ele>999.4</ele>
        <time>2022-06-11T14:54:51Z</time>
      </trkpt>
      <trkpt lat="44.13454" lon="6.76937">
        <ele>999.7</ele>
        <time>2022-06-11T14:54:52Z</time>
      </trkpt>
      <trkpt lat="44.1346" lon="6.76934">
        <ele>1000</ele>
        <time>2022-06-11T14:54:53Z</time>
      </trkpt>
      <trkpt lat="44.13465" lon="6.76931">
        <ele>1000</ele>
        <time>2022-06-11T14:54:54Z</time>
      </trkpt>
      <trkpt lat="44.13471" lon="6.76929">
        <ele>1000.2</ele>
        <time>2022-06-11T14:54:55Z</time>
      </trkpt>
      <trkpt lat="44.13476" lon="6.76926">
        <ele>1000.5</ele>
        <time>2022-06-11T14:54:56Z</time>
      </trkpt>
      <trkpt lat="44.13481" lon="6.76923">
        <ele>1000.7</ele>
        <time>2022-06-11T14:54:57Z</time>
      </trkpt>
      <trkpt lat="44.13487" lon="6.7692">
        <ele>1001</ele>
        <time>2022-06-11T14:54:58Z</time>
      </trkpt>
      <trkpt lat="44.13492" lon="6.76915">
        <ele>1000.9</ele>
        <time>2022-06-11T14:54:59Z</time>
      </trkpt>
      <trkpt lat="44.13498" lon="6.76911">
        <ele>1000.9</ele>
        <time>2022-06-11T14:55:00Z</time>
      </trkpt>
      <trkpt lat="44.13503" lon="6.76906">
        <ele>1001.1</ele>
        <time>2022-06-11T14:55:01Z</time>
      </trkpt>
      <trkpt lat="44.13508" lon="6.76901">
        <ele>1001.2</ele>
        <time>2022-06-11T14:55:02Z</time>
      </trkpt>
      <trkpt lat="44.13512" lon="6.76897">
        <ele>1001.2</ele>
        <time>2022-06-11T14:55:03Z</time>
      </trkpt>
      <trkpt lat="44.13517" lon="6.76892">
        <ele>1001.2</ele>
        <time>2022-06-11T14:55:04Z</time>
      </trkpt>
      <trkpt lat="44.13522" lon="6.76888">
        <ele>1001.2</ele>
        <time>2022-06-11T14:55:05Z</time>
      </trkpt>
      <trkpt lat="44.13526" lon="6.76883">
        <ele>1001.3</ele>
        <time>2022-06-11T14:55:06Z</time>
      </trkpt>
      <trkpt lat="44.1353" lon="6.76879">
        <ele>1001.4</ele>
        <time>2022-06-11T14:55:07Z</time>
      </trkpt>
      <trkpt lat="44.13534" lon="6.76874">
        <ele>1001.6</ele>
        <time>2022-06-11T14:55:08Z</time>
      </trkpt>
      <trkpt lat="44.13539" lon="6.76869">
        <ele>1001.6</ele>
        <time>2022-06-11T14:55:09Z</time>
      </trkpt>
      <trkpt lat="44.13542" lon="6.76864">
        <ele>1001.4</ele>
        <time>2022-06-11T14:55:10Z</time>
      </trkpt>
      <trkpt lat="44.13547" lon="6.7686">
        <ele>1001.4</ele>
        <time>2022-06-11T14:55:11Z</time>
      </trkpt>
      <trkpt lat="44.13551" lon="6.76854">
        <ele>1001.1</ele>
        <time>2022-06-11T14:55:12Z</time>
      </trkpt>
      <trkpt lat="44.13555" lon="6.7685">
        <ele>1001</ele>
        <time>2022-06-11T14:55:13Z</time>
      </trkpt>
      <trkpt lat="44.1356" lon="6.76846">
        <ele>1001.2</ele>
        <time>2022-06-11T14:55:14Z</time>
      </trkpt>
      <trkpt lat="44.13566" lon="6.76843">
        <ele>1001.8</ele>
        <time>2022-06-11T14:55:15Z</time>
      </trkpt>
      <trkpt lat="44.13572" lon="6.7684">
        <ele>1002.4</ele>
        <time>2022-06-11T14:55:16Z</time>
      </trkpt>
      <trkpt lat="44.13577" lon="6.76838">
        <ele>1003</ele>
        <time>2022-06-11T14:55:17Z</time>
      </trkpt>
      <trkpt lat="44.13583" lon="6.76834">
        <ele>1003.2</ele>
        <time>2022-06-11T14:55:18Z</time>
      </trkpt>
      <trkpt lat="44.13589" lon="6.76832">
        <ele>1004.1</ele>
        <time>2022-06-11T14:55:19Z</time>
      </trkpt>
      <trkpt lat="44.13594" lon="6.7683">
        <ele>1004.9</ele>
        <time>2022-06-11T14:55:20Z</time>
      </trkpt>
      <trkpt lat="44.13599" lon="6.76827">
        <ele>1005.3</ele>
        <time>2022-06-11T14:55:21Z</time>
      </trkpt>
      <trkpt lat="44.13603" lon="6.76824">
        <ele>1005.5</ele>
        <time>2022-06-11T14:55:22Z</time>
      </trkpt>
      <trkpt lat="44.13608" lon="6.76822">
        <ele>1005.9</ele>
        <time>2022-06-11T14:55:23Z</time>
      </trkpt>
      <trkpt lat="44.13613" lon="6.76819">
        <ele>1006</ele>
        <time>2022-06-11T14:55:24Z</time>
      </trkpt>
      <trkpt lat="44.13617" lon="6.76815">
        <ele>1005.8</ele>
        <time>2022-06-11T14:55:25Z</time>
      </trkpt>
      <trkpt lat="44.13621" lon="6.76811">
        <ele>1005.3</ele>
        <time>2022-06-11T14:55:26Z</time>
      </trkpt>
      <trkpt lat="44.13625" lon="6.76806">
        <ele>1004.7</ele>
        <time>2022-06-11T14:55:27Z</time>
      </trkpt>
      <trkpt lat="44.13629" lon="6.76801">
        <ele>1004.5</ele>
        <time>2022-06-11T14:55:28Z</time>
      </trkpt>
      <trkpt lat="44.13632" lon="6.76796">
        <ele>1004.4</ele>
        <time>2022-06-11T14:55:29Z</time>
      </trkpt>
      <trkpt lat="44.13636" lon="6.7679">
        <ele>1004.2</ele>
        <time>2022-06-11T14:55:30Z</time>
      </trkpt>
      <trkpt lat="44.13639" lon="6.76784">
        <ele>1003.9</ele>
        <time>2022-06-11T14:55:31Z</time>
      </trkpt>
      <trkpt lat="44.13642" lon="6.76778">
        <ele>1003.3</ele>
        <time>2022-06-11T14:55:32Z</time>
      </trkpt>
      <trkpt lat="44.13644" lon="6.76771">
        <ele>1003.1</ele>
        <time>2022-06-11T14:55:33Z</time>
      </trkpt>
      <trkpt lat="44.13647" lon="6.76765">
        <ele>1002.9</ele>
        <time>2022-06-11T14:55:34Z</time>
      </trkpt>
      <trkpt lat="44.1365" lon="6.7676">
        <ele>1002.6</ele>
        <time>2022-06-11T14:55:35Z</time>
      </trkpt>
      <trkpt lat="44.13653" lon="6.76754">
        <ele>1002.4</ele>
        <time>2022-06-11T14:55:36Z</time>
      </trkpt>
      <trkpt lat="44.13655" lon="6.76749">
        <ele>1002.1</ele>
        <time>2022-06-11T14:55:37Z</time>
      </trkpt>
      <trkpt lat="44.13658" lon="6.76743">
        <ele>1002</ele>
        <time>2022-06-11T14:55:38Z</time>
      </trkpt>
      <trkpt lat="44.1366" lon="6.76738">
        <ele>1001.9</ele>
        <time>2022-06-11T14:55:39Z</time>
      </trkpt>
      <trkpt lat="44.13662" lon="6.76733">
        <ele>1001.9</ele>
        <time>2022-06-11T14:55:40Z</time>
      </trkpt>
      <trkpt lat="44.13664" lon="6.76727">
        <ele>1001.9</ele>
        <time>2022-06-11T14:55:41Z</time>
      </trkpt>
      <trkpt lat="44.13666" lon="6.76723">
        <ele>1001.9</ele>
        <time>2022-06-11T14:55:42Z</time>
      </trkpt>
      <trkpt lat="44.13668" lon="6.76719">
        <ele>1001.8</ele>
        <time>2022-06-11T14:55:43Z</time>
      </trkpt>
      <trkpt lat="44.13669" lon="6.76715">
        <ele>1001.6</ele>
        <time>2022-06-11T14:55:44Z</time>
      </trkpt>
      <trkpt lat="44.13671" lon="6.76711">
        <ele>1001.4</ele>
        <time>2022-06-11T14:55:45Z</time>
      </trkpt>
      <trkpt lat="44.13673" lon="6.76707">
        <ele>1001.2</ele>
        <time>2022-06-11T14:55:46Z</time>
      </trkpt>
      <trkpt lat="44.13675" lon="6.76704">
        <ele>1001</ele>
        <time>2022-06-11T14:55:47Z</time>
      </trkpt>
      <trkpt lat="44.13676" lon="6.767">
        <ele>1000.8</ele>
        <time>2022-06-11T14:55:48Z</time>
      </trkpt>
      <trkpt lat="44.13678" lon="6.76698">
        <ele>1000.7</ele>
        <time>2022-06-11T14:55:49Z</time>
      </trkpt>
      <trkpt lat="44.1368" lon="6.76695">
        <ele>1000.5</ele>
        <time>2022-06-11T14:55:50Z</time>
      </trkpt>
      <trkpt lat="44.13681" lon="6.76693">
        <ele>1000.2</ele>
        <time>2022-06-11T14:55:51Z</time>
      </trkpt>
      <trkpt lat="44.13682" lon="6.76691">
        <ele>999.9</ele>
        <time>2022-06-11T14:55:52Z</time>
      </trkpt>
      <trkpt lat="44.13684" lon="6.76689">
        <ele>999.8</ele>
        <time>2022-06-11T14:55:53Z</time>
      </trkpt>
      <trkpt lat="44.13684" lon="6.76689">
        <ele>999.8</ele>
        <time>2022-06-11T14:55:54Z</time>
      </trkpt>
      <trkpt lat="44.13689" lon="6.76689">
        <ele>1000</ele>
        <time>2022-06-11T14:59:13Z</time>
      </trkpt>
      <trkpt lat="44.13692" lon="6.76689">
        <ele>1000.1</ele>
        <time>2022-06-11T14:59:14Z</time>
      </trkpt>
      <trkpt lat="44.13695" lon="6.76689">
        <ele>1000.3</ele>
        <time>2022-06-11T14:59:15Z</time>
      </trkpt>
      <trkpt lat="44.13698" lon="6.76689">
        <ele>1000.3</ele>
        <time>2022-06-11T14:59:16Z</time>
      </trkpt>
      <trkpt lat="44.13702" lon="6.76688">
        <ele>1000.3</ele>
        <time>2022-06-11T14:59:17Z</time>
      </trkpt>
      <trkpt lat="44.13707" lon="6.76686">
        <ele>1000.4</ele>
        <time>2022-06-11T14:59:18Z</time>
      </trkpt>
      <trkpt lat="44.13711" lon="6.76685">
        <ele>1000.4</ele>
        <time>2022-06-11T14:59:19Z</time>
      </trkpt>
      <trkpt lat="44.13715" lon="6.76684">
        <ele>1000.5</ele>
        <time>2022-06-11T14:59:20Z</time>
      </trkpt>
      <trkpt lat="44.13719" lon="6.76684">
        <ele>1000.6</ele>
        <time>2022-06-11T14:59:21Z</time>
      </trkpt>
      <trkpt lat="44.13723" lon="6.76683">
        <ele>1000.8</ele>
        <time>2022-06-11T14:59:22Z</time>
      </trkpt>
      <trkpt lat="44.13728" lon="6.76683">
        <ele>1001.2</ele>
        <time>2022-06-11T14:59:23Z</time>
      </trkpt>
      <trkpt lat="44.13732" lon="6.76683">
        <ele>1001.6</ele>
        <time>2022-06-11T14:59:24Z</time>
      </trkpt>
      <trkpt lat="44.13736" lon="6.76683">
        <ele>1002</ele>
        <time>2022-06-11T14:59:25Z</time>
      </trkpt>
      <trkpt lat="44.1374" lon="6.76683">
        <ele>1002.4</ele>
        <time>2022-06-11T14:59:26Z</time>
      </trkpt>
      <trkpt lat="44.13744" lon="6.76682">
        <ele>1002.7</ele>
        <time>2022-06-11T14:59:27Z</time>
      </trkpt>
      <trkpt lat="44.13748" lon="6.76682">
        <ele>1003</ele>
        <time>2022-06-11T14:59:28Z</time>
      </trkpt>
      <trkpt lat="44.13751" lon="6.76683">
        <ele>1003.3</ele>
        <time>2022-06-11T14:59:29Z</time>
      </trkpt>
      <trkpt lat="44.13755" lon="6.76683">
        <ele>1003.5</ele>
        <time>2022-06-11T14:59:30Z</time>
      </trkpt>
      <trkpt lat="44.13758" lon="6.76684">
        <ele>1003.8</ele>
        <time>2022-06-11T14:59:31Z</time>
      </trkpt>
      <trkpt lat="44.13761" lon="6.76685">
        <ele>1004</ele>
        <time>2022-06-11T14:59:32Z</time>
      </trkpt>
      <trkpt lat="44.13765" lon="6.76686">
        <ele>1004.3</ele>
        <time>2022-06-11T14:59:33Z</time>
      </trkpt>
      <trkpt lat="44.13768" lon="6.76687">
        <ele>1004.5</ele>
        <time>2022-06-11T14:59:34Z</time>
      </trkpt>
      <trkpt lat="44.13772" lon="6.76688">
        <ele>1004.9</ele>
        <time>2022-06-11T14:59:35Z</time>
      </trkpt>
      <trkpt lat="44.13776" lon="6.7669">
        <ele>1005.2</ele>
        <time>2022-06-11T14:59:36Z</time>
      </trkpt>
      <trkpt lat="44.1378" lon="6.7669">
        <ele>1005.5</ele>
        <time>2022-06-11T14:59:37Z</time>
      </trkpt>
      <trkpt lat="44.13784" lon="6.76692">
        <ele>1005.8</ele>
        <time>2022-06-11T14:59:38Z</time>
      </trkpt>
      <trkpt lat="44.13788" lon="6.76693">
        <ele>1006.1</ele>
        <time>2022-06-11T14:59:39Z</time>
      </trkpt>
      <trkpt lat="44.13792" lon="6.76694">
        <ele>1006.5</ele>
        <time>2022-06-11T14:59:40Z</time>
      </trkpt>
      <trkpt lat="44.13795" lon="6.76696">
        <ele>1007</ele>
        <time>2022-06-11T14:59:41Z</time>
      </trkpt>
      <trkpt lat="44.13799" lon="6.76698">
        <ele>1007.5</ele>
        <time>2022-06-11T14:59:42Z</time>
      </trkpt>
      <trkpt lat="44.13802" lon="6.767">
        <ele>1008.2</ele>
        <time>2022-06-11T14:59:43Z</time>
      </trkpt>
      <trkpt lat="44.13806" lon="6.76702">
        <ele>1008.8</ele>
        <time>2022-06-11T14:59:44Z</time>
      </trkpt>
      <trkpt lat="44.13809" lon="6.76704">
        <ele>1009.5</ele>
        <time>2022-06-11T14:59:45Z</time>
      </trkpt>
      <trkpt lat="44.13813" lon="6.76706">
        <ele>1010.1</ele>
        <time>2022-06-11T14:59:46Z</time>
      </trkpt>
      <trkpt lat="44.13816" lon="6.76708">
        <ele>1010.7</ele>
        <time>2022-06-11T14:59:47Z</time>
      </trkpt>
      <trkpt lat="44.13819" lon="6.76709">
        <ele>1011.1</ele>
        <time>2022-06-11T14:59:48Z</time>
      </trkpt>
      <trkpt lat="44.13823" lon="6.76711">
        <ele>1011.7</ele>
        <time>2022-06-11T14:59:49Z</time>
      </trkpt>
      <trkpt lat="44.13826" lon="6.76712">
        <ele>1012.2</ele>
        <time>2022-06-11T14:59:50Z</time>
      </trkpt>
      <trkpt lat="44.13829" lon="6.76714">
        <ele>1012.8</ele>
        <time>2022-06-11T14:59:51Z</time>
      </trkpt>
      <trkpt lat="44.13832" lon="6.76717">
        <ele>1013.5</ele>
        <time>2022-06-11T14:59:52Z</time>
      </trkpt>
      <trkpt lat="44.13835" lon="6.76718">
        <ele>1014</ele>
        <time>2022-06-11T14:59:53Z</time>
      </trkpt>
      <trkpt lat="44.13838" lon="6.7672">
        <ele>1014.5</ele>
        <time>2022-06-11T14:59:54Z</time>
      </trkpt>
      <trkpt lat="44.13842" lon="6.76721">
        <ele>1014.9</ele>
        <time>2022-06-11T14:59:55Z</time>
      </trkpt>
      <trkpt lat="44.13845" lon="6.76722">
        <ele>1015.4</ele>
        <time>2022-06-11T14:59:56Z</time>
      </trkpt>
      <trkpt lat="44.13849" lon="6.76723">
        <ele>1015.7</ele>
        <time>2022-06-11T14:59:57Z</time>
      </trkpt>
      <trkpt lat="44.13852" lon="6.76722">
        <ele>1015.7</ele>
        <time>2022-06-11T14:59:58Z</time>
      </trkpt>
      <trkpt lat="44.13856" lon="6.76722">
        <ele>1015.7</ele>
        <time>2022-06-11T14:59:59Z</time>
      </trkpt>
      <trkpt lat="44.1386" lon="6.76722">
        <ele>1015.8</ele>
        <time>2022-06-11T15:00:00Z</time>
      </trkpt>
      <trkpt lat="44.13864" lon="6.76721">
        <ele>1015.8</ele>
        <time>2022-06-11T15:00:01Z</time>
      </trkpt>
      <trkpt lat="44.13868" lon="6.76721">
        <ele>1015.9</ele>
        <time>2022-06-11T15:00:02Z</time>
      </trkpt>
      <trkpt lat="44.13871" lon="6.76721">
        <ele>1015.9</ele>
        <time>2022-06-11T15:00:03Z</time>
      </trkpt>
      <trkpt lat="44.13875" lon="6.76721">
        <ele>1016.1</ele>
        <time>2022-06-11T15:00:04Z</time>
      </trkpt>
      <trkpt lat="44.13878" lon="6.76721">
        <ele>1016.2</ele>
        <time>2022-06-11T15:00:05Z</time>
      </trkpt>
      <trkpt lat="44.13882" lon="6.7672">
        <ele>1016.3</ele>
        <time>2022-06-11T15:00:06Z</time>
      </trkpt>
      <trkpt lat="44.13886" lon="6.7672">
        <ele>1016.2</ele>
        <time>2022-06-11T15:00:07Z</time>
      </trkpt>
      <trkpt lat="44.1389" lon="6.76719">
        <ele>1016.3</ele>
        <time>2022-06-11T15:00:08Z</time>
      </trkpt>
      <trkpt lat="44.13894" lon="6.76719">
        <ele>1016.5</ele>
        <time>2022-06-11T15:00:09Z</time>
      </trkpt>
      <trkpt lat="44.13898" lon="6.76718">
        <ele>1016.5</ele>
        <time>2022-06-11T15:00:10Z</time>
      </trkpt>
      <trkpt lat="44.13902" lon="6.76716">
        <ele>1016.4</ele>
        <time>2022-06-11T15:00:11Z</time>
      </trkpt>
      <trkpt lat="44.13906" lon="6.76714">
        <ele>1016.3</ele>
        <time>2022-06-11T15:00:12Z</time>
      </trkpt>
      <trkpt lat="44.1391" lon="6.76712">
        <ele>1016.1</ele>
        <time>2022-06-11T15:00:13Z</time>
      </trkpt>
      <trkpt lat="44.13913" lon="6.7671">
        <ele>1016</ele>
        <time>2022-06-11T15:00:14Z</time>
      </trkpt>
      <trkpt lat="44.13916" lon="6.76707">
        <ele>1015.7</ele>
        <time>2022-06-11T15:00:15Z</time>
      </trkpt>
      <trkpt lat="44.13918" lon="6.76705">
        <ele>1015.3</ele>
        <time>2022-06-11T15:00:16Z</time>
      </trkpt>
      <trkpt lat="44.13921" lon="6.76701">
        <ele>1014.9</ele>
        <time>2022-06-11T15:00:17Z</time>
      </trkpt>
      <trkpt lat="44.13924" lon="6.76698">
        <ele>1014.4</ele>
        <time>2022-06-11T15:00:18Z</time>
      </trkpt>
      <trkpt lat="44.13927" lon="6.76694">
        <ele>1014</ele>
        <time>2022-06-11T15:00:19Z</time>
      </trkpt>
      <trkpt lat="44.13929" lon="6.7669">
        <ele>1013.7</ele>
        <time>2022-06-11T15:00:20Z</time>
      </trkpt>
      <trkpt lat="44.13931" lon="6.76686">
        <ele>1013.5</ele>
        <time>2022-06-11T15:00:21Z</time>
      </trkpt>
      <trkpt lat="44.13934" lon="6.76681">
        <ele>1013.2</ele>
        <time>2022-06-11T15:00:22Z</time>
      </trkpt>
      <trkpt lat="44.13936" lon="6.76677">
        <ele>1012.9</ele>
        <time>2022-06-11T15:00:23Z</time>
      </trkpt>
      <trkpt lat="44.13937" lon="6.76673">
        <ele>1012.7</ele>
        <time>2022-06-11T15:00:24Z</time>
      </trkpt>
      <trkpt lat="44.13939" lon="6.76669">
        <ele>1012.5</ele>
        <time>2022-06-11T15:00:25Z</time>
      </trkpt>
      <trkpt lat="44.13942" lon="6.76665">
        <ele>1012.4</ele>
        <time>2022-06-11T15:00:26Z</time>
      </trkpt>
      <trkpt lat="44.13944" lon="6.76661">
        <ele>1012.5</ele>
        <time>2022-06-11T15:00:27Z</time>
      </trkpt>
      <trkpt lat="44.13947" lon="6.76657">
        <ele>1012.7</ele>
        <time>2022-06-11T15:00:28Z</time>
      </trkpt>
      <trkpt lat="44.1395" lon="6.76653">
        <ele>1012.9</ele>
        <time>2022-06-11T15:00:29Z</time>
      </trkpt>
      <trkpt lat="44.13953" lon="6.76651">
        <ele>1013.4</ele>
        <time>2022-06-11T15:00:30Z</time>
      </trkpt>
      <trkpt lat="44.13956" lon="6.7665">
        <ele>1013.8</ele>
        <time>2022-06-11T15:00:31Z</time>
      </trkpt>
      <trkpt lat="44.13959" lon="6.76648">
        <ele>1014.3</ele>
        <time>2022-06-11T15:00:32Z</time>
      </trkpt>
      <trkpt lat="44.13963" lon="6.76646">
        <ele>1014.8</ele>
        <time>2022-06-11T15:00:33Z</time>
      </trkpt>
      <trkpt lat="44.13966" lon="6.76645">
        <ele>1015.3</ele>
        <time>2022-06-11T15:00:34Z</time>
      </trkpt>
      <trkpt lat="44.13969" lon="6.76643">
        <ele>1015.7</ele>
        <time>2022-06-11T15:00:35Z</time>
      </trkpt>
      <trkpt lat="44.13972" lon="6.76641">
        <ele>1016</ele>
        <time>2022-06-11T15:00:36Z</time>
      </trkpt>
      <trkpt lat="44.13974" lon="6.7664">
        <ele>1016.3</ele>
        <time>2022-06-11T15:00:37Z</time>
      </trkpt>
      <trkpt lat="44.13976" lon="6.76638">
        <ele>1016.5</ele>
        <time>2022-06-11T15:00:38Z</time>
      </trkpt>
      <trkpt lat="44.13979" lon="6.76635">
        <ele>1016.4</ele>
        <time>2022-06-11T15:00:39Z</time>
      </trkpt>
      <trkpt lat="44.13982" lon="6.76631">
        <ele>1016.4</ele>
        <time>2022-06-11T15:00:40Z</time>
      </trkpt>
      <trkpt lat="44.13985" lon="6.76628">
        <ele>1016.5</ele>
        <time>2022-06-11T15:00:41Z</time>
      </trkpt>
      <trkpt lat="44.13988" lon="6.76626">
        <ele>1016.8</ele>
        <time>2022-06-11T15:00:42Z</time>
      </trkpt>
      <trkpt lat="44.13991" lon="6.76624">
        <ele>1017</ele>
        <time>2022-06-11T15:00:43Z</time>
      </trkpt>
      <trkpt lat="44.13994" lon="6.76622">
        <ele>1017.3</ele>
        <time>2022-06-11T15:00:44Z</time>
      </trkpt>
      <trkpt lat="44.13998" lon="6.7662">
        <ele>1017.6</ele>
        <time>2022-06-11T15:00:45Z</time>
      </trkpt>
      <trkpt lat="44.14001" lon="6.76618">
        <ele>1017.8</ele>
        <time>2022-06-11T15:00:46Z</time>
      </trkpt>
      <trkpt lat="44.14005" lon="6.76616">
        <ele>1017.9</ele>
        <time>2022-06-11T15:00:47Z</time>
      </trkpt>
      <trkpt lat="44.14008" lon="6.76613">
        <ele>1017.8</ele>
        <time>2022-06-11T15:00:48Z</time>
      </trkpt>
      <trkpt lat="44.14012" lon="6.7661">
        <ele>1017.7</ele>
        <time>2022-06-11T15:00:49Z</time>
      </trkpt>
      <trkpt lat="44.14016" lon="6.76606">
        <ele>1017.5</ele>
        <time>2022-06-11T15:00:50Z</time>
      </trkpt>
      <trkpt lat="44.1402" lon="6.76603">
        <ele>1017.3</ele>
        <time>2022-06-11T15:00:51Z</time>
      </trkpt>
      <trkpt lat="44.14024" lon="6.766">
        <ele>1017.1</ele>
        <time>2022-06-11T15:00:52Z</time>
      </trkpt>
      <trkpt lat="44.14027" lon="6.76597">
        <ele>1016.9</ele>
        <time>2022-06-11T15:00:53Z</time>
      </trkpt>
      <trkpt lat="44.14031" lon="6.76594">
        <ele>1016.6</ele>
        <time>2022-06-11T15:00:54Z</time>
      </trkpt>
      <trkpt lat="44.14035" lon="6.76592">
        <ele>1016.4</ele>
        <time>2022-06-11T15:00:55Z</time>
      </trkpt>
      <trkpt lat="44.14039" lon="6.76589">
        <ele>1016.2</ele>
        <time>2022-06-11T15:00:56Z</time>
      </trkpt>
      <trkpt lat="44.14042" lon="6.76588">
        <ele>1016.1</ele>
        <time>2022-06-11T15:00:57Z</time>
      </trkpt>
      <trkpt lat="44.14047" lon="6.76586">
        <ele>1016</ele>
        <time>2022-06-11T15:00:58Z</time>
      </trkpt>
      <trkpt lat="44.14051" lon="6.76585">
        <ele>1016</ele>
        <time>2022-06-11T15:00:59Z</time>
      </trkpt>
      <trkpt lat="44.14056" lon="6.76584">
        <ele>1016</ele>
        <time>2022-06-11T15:01:00Z</time>
      </trkpt>
      <trkpt lat="44.14061" lon="6.76583">
        <ele>1015.9</ele>
        <time>2022-06-11T15:01:01Z</time>
      </trkpt>
      <trkpt lat="44.14066" lon="6.76582">
        <ele>1015.8</ele>
        <time>2022-06-11T15:01:02Z</time>
      </trkpt>
      <trkpt lat="44.1407" lon="6.76581">
        <ele>1015.7</ele>
        <time>2022-06-11T15:01:03Z</time>
      </trkpt>
      <trkpt lat="44.14075" lon="6.76581">
        <ele>1015.6</ele>
        <time>2022-06-11T15:01:04Z</time>
      </trkpt>
      <trkpt lat="44.1408" lon="6.7658">
        <ele>1015.5</ele>
        <time>2022-06-11T15:01:05Z</time>
      </trkpt>
      <trkpt lat="44.14085" lon="6.7658">
        <ele>1015.5</ele>
        <time>2022-06-11T15:01:06Z</time>
      </trkpt>
      <trkpt lat="44.1409" lon="6.76579">
        <ele>1015.6</ele>
        <time>2022-06-11T15:01:07Z</time>
      </trkpt>
      <trkpt lat="44.14095" lon="6.76578">
        <ele>1015.7</ele>
        <time>2022-06-11T15:01:08Z</time>
      </trkpt>
      <trkpt lat="44.141" lon="6.76577">
        <ele>1015.7</ele>
        <time>2022-06-11T15:01:09Z</time>
      </trkpt>
      <trkpt lat="44.14105" lon="6.76576">
        <ele>1015.7</ele>
        <time>2022-06-11T15:01:10Z</time>
      </trkpt>
      <trkpt lat="44.1411" lon="6.76575">
        <ele>1015.7</ele>
        <time>2022-06-11T15:01:11Z</time>
      </trkpt>
      <trkpt lat="44.14115" lon="6.76574">
        <ele>1015.7</ele>
        <time>2022-06-11T15:01:12Z</time>
      </trkpt>
      <trkpt lat="44.1412" lon="6.76573">
        <ele>1015.6</ele>
        <time>2022-06-11T15:01:13Z</time>
      </trkpt>
      <trkpt lat="44.14126" lon="6.76571">
        <ele>1015.5</ele>
        <time>2022-06-11T15:01:14Z</time>
      </trkpt>
      <trkpt lat="44.14132" lon="6.76571">
        <ele>1015.6</ele>
        <time>2022-06-11T15:01:15Z</time>
      </trkpt>
      <trkpt lat="44.14138" lon="6.76573">
        <ele>1015.8</ele>
        <time>2022-06-11T15:01:16Z</time>
      </trkpt>
      <trkpt lat="44.14144" lon="6.76575">
        <ele>1016.2</ele>
        <time>2022-06-11T15:01:17Z</time>
      </trkpt>
      <trkpt lat="44.14149" lon="6.76577">
        <ele>1016.7</ele>
        <time>2022-06-11T15:01:18Z</time>
      </trkpt>
      <trkpt lat="44.14155" lon="6.76579">
        <ele>1017.1</ele>
        <time>2022-06-11T15:01:19Z</time>
      </trkpt>
      <trkpt lat="44.14161" lon="6.76579">
        <ele>1017.4</ele>
        <time>2022-06-11T15:01:20Z</time>
      </trkpt>
      <trkpt lat="44.14167" lon="6.76579">
        <ele>1017.6</ele>
        <time>2022-06-11T15:01:21Z</time>
      </trkpt>
      <trkpt lat="44.14173" lon="6.76579">
        <ele>1017.8</ele>
        <time>2022-06-11T15:01:22Z</time>
      </trkpt>
      <trkpt lat="44.14179" lon="6.76579">
        <ele>1018</ele>
        <time>2022-06-11T15:01:23Z</time>
      </trkpt>
      <trkpt lat="44.14185" lon="6.76579">
        <ele>1018.1</ele>
        <time>2022-06-11T15:01:24Z</time>
      </trkpt>
      <trkpt lat="44.14191" lon="6.76579">
        <ele>1018.3</ele>
        <time>2022-06-11T15:01:25Z</time>
      </trkpt>
      <trkpt lat="44.14196" lon="6.76578">
        <ele>1018.5</ele>
        <time>2022-06-11T15:01:26Z</time>
      </trkpt>
      <trkpt lat="44.14201" lon="6.76576">
        <ele>1018.9</ele>
        <time>2022-06-11T15:01:27Z</time>
      </trkpt>
      <trkpt lat="44.14206" lon="6.76573">
        <ele>1019.1</ele>
        <time>2022-06-11T15:01:28Z</time>
      </trkpt>
      <trkpt lat="44.14211" lon="6.76568">
        <ele>1019</ele>
        <time>2022-06-11T15:01:29Z</time>
      </trkpt>
      <trkpt lat="44.14215" lon="6.76563">
        <ele>1019</ele>
        <time>2022-06-11T15:01:30Z</time>
      </trkpt>
      <trkpt lat="44.1422" lon="6.76559">
        <ele>1019</ele>
        <time>2022-06-11T15:01:31Z</time>
      </trkpt>
      <trkpt lat="44.14224" lon="6.76554">
        <ele>1019</ele>
        <time>2022-06-11T15:01:32Z</time>
      </trkpt>
      <trkpt lat="44.14227" lon="6.76548">
        <ele>1018.9</ele>
        <time>2022-06-11T15:01:33Z</time>
      </trkpt>
      <trkpt lat="44.1423" lon="6.76543">
        <ele>1018.8</ele>
        <time>2022-06-11T15:01:34Z</time>
      </trkpt>
      <trkpt lat="44.14234" lon="6.76537">
        <ele>1018.6</ele>
        <time>2022-06-11T15:01:35Z</time>
      </trkpt>
      <trkpt lat="44.14237" lon="6.76532">
        <ele>1018.6</ele>
        <time>2022-06-11T15:01:36Z</time>
      </trkpt>
      <trkpt lat="44.1424" lon="6.76528">
        <ele>1018.6</ele>
        <time>2022-06-11T15:01:37Z</time>
      </trkpt>
      <trkpt lat="44.14243" lon="6.76524">
        <ele>1018.9</ele>
        <time>2022-06-11T15:01:38Z</time>
      </trkpt>
      <trkpt lat="44.14247" lon="6.76521">
        <ele>1019.3</ele>
        <time>2022-06-11T15:01:39Z</time>
      </trkpt>
      <trkpt lat="44.1425" lon="6.76519">
        <ele>1019.7</ele>
        <time>2022-06-11T15:01:40Z</time>
      </trkpt>
      <trkpt lat="44.14254" lon="6.76516">
        <ele>1020</ele>
        <time>2022-06-11T15:01:41Z</time>
      </trkpt>
      <trkpt lat="44.14257" lon="6.76513">
        <ele>1020.2</ele>
        <time>2022-06-11T15:01:42Z</time>
      </trkpt>
      <trkpt lat="44.14261" lon="6.76512">
        <ele>1020.6</ele>
        <time>2022-06-11T15:01:43Z</time>
      </trkpt>
      <trkpt lat="44.14264" lon="6.7651">
        <ele>1020.9</ele>
        <time>2022-06-11T15:01:44Z</time>
      </trkpt>
      <trkpt lat="44.14268" lon="6.76509">
        <ele>1021.2</ele>
        <time>2022-06-11T15:01:45Z</time>
      </trkpt>
      <trkpt lat="44.14271" lon="6.76508">
        <ele>1021.6</ele>
        <time>2022-06-11T15:01:46Z</time>
      </trkpt>
      <trkpt lat="44.14274" lon="6.76507">
        <ele>1021.9</ele>
        <time>2022-06-11T15:01:47Z</time>
      </trkpt>
      <trkpt lat="44.14277" lon="6.76505">
        <ele>1022.1</ele>
        <time>2022-06-11T15:01:48Z</time>
      </trkpt>
      <trkpt lat="44.1428" lon="6.76503">
        <ele>1022.2</ele>
        <time>2022-06-11T15:01:49Z</time>
      </trkpt>
      <trkpt lat="44.14284" lon="6.76501">
        <ele>1022.3</ele>
        <time>2022-06-11T15:01:50Z</time>
      </trkpt>
      <trkpt lat="44.14287" lon="6.765">
        <ele>1022.3</ele>
        <time>2022-06-11T15:01:51Z</time>
      </trkpt>
      <trkpt lat="44.14291" lon="6.76499">
        <ele>1022.4</ele>
        <time>2022-06-11T15:01:52Z</time>
      </trkpt>
      <trkpt lat="44.14295" lon="6.765">
        <ele>1022.6</ele>
        <time>2022-06-11T15:01:53Z</time>
      </trkpt>
      <trkpt lat="44.14299" lon="6.76501">
        <ele>1022.8</ele>
        <time>2022-06-11T15:01:54Z</time>
      </trkpt>
      <trkpt lat="44.14302" lon="6.76503">
        <ele>1023.2</ele>
        <time>2022-06-11T15:01:55Z</time>
      </trkpt>
      <trkpt lat="44.14305" lon="6.76506">
        <ele>1023.6</ele>
        <time>2022-06-11T15:01:56Z</time>
      </trkpt>
      <trkpt lat="44.14308" lon="6.7651">
        <ele>1024</ele>
        <time>2022-06-11T15:01:57Z</time>
      </trkpt>
      <trkpt lat="44.14311" lon="6.76513">
        <ele>1024.4</ele>
        <time>2022-06-11T15:01:58Z</time>
      </trkpt>
      <trkpt lat="44.14313" lon="6.76517">
        <ele>1024.8</ele>
        <time>2022-06-11T15:01:59Z</time>
      </trkpt>
      <trkpt lat="44.14315" lon="6.7652">
        <ele>1025.2</ele>
        <time>2022-06-11T15:02:00Z</time>
      </trkpt>
      <trkpt lat="44.14317" lon="6.76524">
        <ele>1025.5</ele>
        <time>2022-06-11T15:02:01Z</time>
      </trkpt>
      <trkpt lat="44.1432" lon="6.76527">
        <ele>1025.9</ele>
        <time>2022-06-11T15:02:02Z</time>
      </trkpt>
      <trkpt lat="44.14324" lon="6.76529">
        <ele>1026.1</ele>
        <time>2022-06-11T15:02:03Z</time>
      </trkpt>
      <trkpt lat="44.14327" lon="6.76529">
        <ele>1026.1</ele>
        <time>2022-06-11T15:02:04Z</time>
      </trkpt>
      <trkpt lat="44.14331" lon="6.76527">
        <ele>1025.9</ele>
        <time>2022-06-11T15:02:05Z</time>
      </trkpt>
      <trkpt lat="44.14334" lon="6.76525">
        <ele>1025.7</ele>
        <time>2022-06-11T15:02:06Z</time>
      </trkpt>
      <trkpt lat="44.14337" lon="6.76523">
        <ele>1025.5</ele>
        <time>2022-06-11T15:02:07Z</time>
      </trkpt>
      <trkpt lat="44.1434" lon="6.7652">
        <ele>1025.2</ele>
        <time>2022-06-11T15:02:08Z</time>
      </trkpt>
      <trkpt lat="44.14344" lon="6.76517">
        <ele>1024.8</ele>
        <time>2022-06-11T15:02:09Z</time>
      </trkpt>
      <trkpt lat="44.14347" lon="6.76514">
        <ele>1024.5</ele>
        <time>2022-06-11T15:02:10Z</time>
      </trkpt>
      <trkpt lat="44.1435" lon="6.76512">
        <ele>1024.2</ele>
        <time>2022-06-11T15:02:11Z</time>
      </trkpt>
      <trkpt lat="44.14353" lon="6.76509">
        <ele>1024</ele>
        <time>2022-06-11T15:02:12Z</time>
      </trkpt>
      <trkpt lat="44.14357" lon="6.76508">
        <ele>1023.8</ele>
        <time>2022-06-11T15:02:13Z</time>
      </trkpt>
      <trkpt lat="44.14361" lon="6.76507">
        <ele>1023.7</ele>
        <time>2022-06-11T15:02:14Z</time>
      </trkpt>
      <trkpt lat="44.14365" lon="6.76506">
        <ele>1023.7</ele>
        <time>2022-06-11T15:02:15Z</time>
      </trkpt>
      <trkpt lat="44.14369" lon="6.76505">
        <ele>1023.6</ele>
        <time>2022-06-11T15:02:16Z</time>
      </trkpt>
      <trkpt lat="44.14373" lon="6.76504">
        <ele>1023.4</ele>
        <time>2022-06-11T15:02:17Z</time>
      </trkpt>
      <trkpt lat="44.14377" lon="6.76502">
        <ele>1023.3</ele>
        <time>2022-06-11T15:02:18Z</time>
      </trkpt>
      <trkpt lat="44.14382" lon="6.76501">
        <ele>1023.1</ele>
        <time>2022-06-11T15:02:19Z</time>
      </trkpt>
      <trkpt lat="44.14387" lon="6.76499">
        <ele>1022.8</ele>
        <time>2022-06-11T15:02:20Z</time>
      </trkpt>
      <trkpt lat="44.14392" lon="6.76497">
        <ele>1022.7</ele>
        <time>2022-06-11T15:02:21Z</time>
      </trkpt>
      <trkpt lat="44.14397" lon="6.76495">
        <ele>1022.5</ele>
        <time>2022-06-11T15:02:22Z</time>
      </trkpt>
      <trkpt lat="44.14403" lon="6.76493">
        <ele>1022.3</ele>
        <time>2022-06-11T15:02:23Z</time>
      </trkpt>
      <trkpt lat="44.14408" lon="6.76492">
        <ele>1022.2</ele>
        <time>2022-06-11T15:02:24Z</time>
      </trkpt>
      <trkpt lat="44.14413" lon="6.76492">
        <ele>1022.1</ele>
        <time>2022-06-11T15:02:25Z</time>
      </trkpt>
      <trkpt lat="44.14418" lon="6.76492">
        <ele>1022.1</ele>
        <time>2022-06-11T15:02:26Z</time>
      </trkpt>
      <trkpt lat="44.14423" lon="6.76492">
        <ele>1022.1</ele>
        <time>2022-06-11T15:02:27Z</time>
      </trkpt>
      <trkpt lat="44.14428" lon="6.76493">
        <ele>1022.3</ele>
        <time>2022-06-11T15:02:28Z</time>
      </trkpt>
      <trkpt lat="44.14433" lon="6.76495">
        <ele>1022.4</ele>
        <time>2022-06-11T15:02:29Z</time>
      </trkpt>
      <trkpt lat="44.14438" lon="6.76497">
        <ele>1022.7</ele>
        <time>2022-06-11T15:02:30Z</time>
      </trkpt>
      <trkpt lat="44.14443" lon="6.76499">
        <ele>1022.9</ele>
        <time>2022-06-11T15:02:31Z</time>
      </trkpt>
      <trkpt lat="44.14448" lon="6.76501">
        <ele>1023.1</ele>
        <time>2022-06-11T15:02:32Z</time>
      </trkpt>
      <trkpt lat="44.14453" lon="6.76503">
        <ele>1023.4</ele>
        <time>2022-06-11T15:02:33Z</time>
      </trkpt>
      <trkpt lat="44.14458" lon="6.76505">
        <ele>1023.6</ele>
        <time>2022-06-11T15:02:34Z</time>
      </trkpt>
      <trkpt lat="44.14464" lon="6.76506">
        <ele>1023.8</ele>
        <time>2022-06-11T15:02:35Z</time>
      </trkpt>
      <trkpt lat="44.14469" lon="6.76508">
        <ele>1023.9</ele>
        <time>2022-06-11T15:02:36Z</time>
      </trkpt>
      <trkpt lat="44.14474" lon="6.76509">
        <ele>1024.1</ele>
        <time>2022-06-11T15:02:37Z</time>
      </trkpt>
      <trkpt lat="44.1448" lon="6.76511">
        <ele>1024.6</ele>
        <time>2022-06-11T15:02:38Z</time>
      </trkpt>
      <trkpt lat="44.14486" lon="6.76513">
        <ele>1025.1</ele>
        <time>2022-06-11T15:02:39Z</time>
      </trkpt>
      <trkpt lat="44.14492" lon="6.76514">
        <ele>1025.6</ele>
        <time>2022-06-11T15:02:40Z</time>
      </trkpt>
      <trkpt lat="44.14499" lon="6.76516">
        <ele>1026</ele>
        <time>2022-06-11T15:02:41Z</time>
      </trkpt>
      <trkpt lat="44.14506" lon="6.76517">
        <ele>1026.4</ele>
        <time>2022-06-11T15:02:42Z</time>
      </trkpt>
      <trkpt lat="44.14512" lon="6.76519">
        <ele>1026.8</ele>
        <time>2022-06-11T15:02:43Z</time>
      </trkpt>
      <trkpt lat="44.14519" lon="6.7652">
        <ele>1027.1</ele>
        <time>2022-06-11T15:02:44Z</time>
      </trkpt>
      <trkpt lat="44.14526" lon="6.76521">
        <ele>1027.4</ele>
        <time>2022-06-11T15:02:45Z</time>
      </trkpt>
      <trkpt lat="44.14532" lon="6.7652">
        <ele>1027.7</ele>
        <time>2022-06-11T15:02:46Z</time>
      </trkpt>
      <trkpt lat="44.14539" lon="6.76519">
        <ele>1028</ele>
        <time>2022-06-11T15:02:47Z</time>
      </trkpt>
      <trkpt lat="44.14545" lon="6.76517">
        <ele>1028.2</ele>
        <time>2022-06-11T15:02:48Z</time>
      </trkpt>
      <trkpt lat="44.14551" lon="6.76516">
        <ele>1028.4</ele>
        <time>2022-06-11T15:02:49Z</time>
      </trkpt>
      <trkpt lat="44.14556" lon="6.76514">
        <ele>1028.6</ele>
        <time>2022-06-11T15:02:50Z</time>
      </trkpt>
      <trkpt lat="44.14562" lon="6.76512">
        <ele>1028.7</ele>
        <time>2022-06-11T15:02:51Z</time>
      </trkpt>
      <trkpt lat="44.14567" lon="6.7651">
        <ele>1028.8</ele>
        <time>2022-06-11T15:02:52Z</time>
      </trkpt>
      <trkpt lat="44.14573" lon="6.76508">
        <ele>1028.8</ele>
        <time>2022-06-11T15:02:53Z</time>
      </trkpt>
      <trkpt lat="44.14578" lon="6.76505">
        <ele>1028.7</ele>
        <time>2022-06-11T15:02:54Z</time>
      </trkpt>
      <trkpt lat="44.14584" lon="6.76503">
        <ele>1028.5</ele>
        <time>2022-06-11T15:02:55Z</time>
      </trkpt>
      <trkpt lat="44.14589" lon="6.76501">
        <ele>1028.5</ele>
        <time>2022-06-11T15:02:56Z</time>
      </trkpt>
      <trkpt lat="44.14594" lon="6.76499">
        <ele>1028.6</ele>
        <time>2022-06-11T15:02:57Z</time>
      </trkpt>
      <trkpt lat="44.14599" lon="6.76496">
        <ele>1028.8</ele>
        <time>2022-06-11T15:02:58Z</time>
      </trkpt>
      <trkpt lat="44.14604" lon="6.76494">
        <ele>1028.9</ele>
        <time>2022-06-11T15:02:59Z</time>
      </trkpt>
      <trkpt lat="44.14608" lon="6.76491">
        <ele>1028.9</ele>
        <time>2022-06-11T15:03:00Z</time>
      </trkpt>
      <trkpt lat="44.14613" lon="6.76489">
        <ele>1028.9</ele>
        <time>2022-06-11T15:03:01Z</time>
      </trkpt>
      <trkpt lat="44.14617" lon="6.76488">
        <ele>1029.2</ele>
        <time>2022-06-11T15:03:02Z</time>
      </trkpt>
      <trkpt lat="44.14621" lon="6.76487">
        <ele>1029.5</ele>
        <time>2022-06-11T15:03:03Z</time>
      </trkpt>
      <trkpt lat="44.14626" lon="6.76488">
        <ele>1030</ele>
        <time>2022-06-11T15:03:04Z</time>
      </trkpt>
      <trkpt lat="44.1463" lon="6.76489">
        <ele>1030.6</ele>
        <time>2022-06-11T15:03:05Z</time>
      </trkpt>
      <trkpt lat="44.14634" lon="6.76491">
        <ele>1031.2</ele>
        <time>2022-06-11T15:03:06Z</time>
      </trkpt>
      <trkpt lat="44.14639" lon="6.76492">
        <ele>1031.9</ele>
        <time>2022-06-11T15:03:07Z</time>
      </trkpt>
      <trkpt lat="44.14645" lon="6.76492">
        <ele>1032.8</ele>
        <time>2022-06-11T15:03:08Z</time>
      </trkpt>
      <trkpt lat="44.1465" lon="6.76489">
        <ele>1033.3</ele>
        <time>2022-06-11T15:03:09Z</time>
      </trkpt>
      <trkpt lat="44.14655" lon="6.76486">
        <ele>1033.6</ele>
        <time>2022-06-11T15:03:10Z</time>
      </trkpt>
      <trkpt lat="44.1466" lon="6.76481">
        <ele>1033.6</ele>
        <time>2022-06-11T15:03:11Z</time>
      </trkpt>
      <trkpt lat="44.14665" lon="6.76477">
        <ele>1033.5</ele>
        <time>2022-06-11T15:03:12Z</time>
      </trkpt>
      <trkpt lat="44.1467" lon="6.76472">
        <ele>1033.5</ele>
        <time>2022-06-11T15:03:13Z</time>
      </trkpt>
      <trkpt lat="44.14674" lon="6.76468">
        <ele>1033.6</ele>
        <time>2022-06-11T15:03:14Z</time>
      </trkpt>
      <trkpt lat="44.14679" lon="6.76463">
        <ele>1033.8</ele>
        <time>2022-06-11T15:03:15Z</time>
      </trkpt>
      <trkpt lat="44.14683" lon="6.7646">
        <ele>1034.1</ele>
        <time>2022-06-11T15:03:16Z</time>
      </trkpt>
      <trkpt lat="44.14688" lon="6.76457">
        <ele>1034.6</ele>
        <time>2022-06-11T15:03:17Z</time>
      </trkpt>
      <trkpt lat="44.14693" lon="6.76453">
        <ele>1035</ele>
        <time>2022-06-11T15:03:18Z</time>
      </trkpt>
      <trkpt lat="44.14698" lon="6.76448">
        <ele>1035.7</ele>
        <time>2022-06-11T15:03:19Z</time>
      </trkpt>
      <trkpt lat="44.14702" lon="6.76442">
        <ele>1036.3</ele>
        <time>2022-06-11T15:03:20Z</time>
      </trkpt>
      <trkpt lat="44.14705" lon="6.76437">
        <ele>1037.2</ele>
        <time>2022-06-11T15:03:21Z</time>
      </trkpt>
      <trkpt lat="44.14709" lon="6.76431">
        <ele>1037.8</ele>
        <time>2022-06-11T15:03:22Z</time>
      </trkpt>
      <trkpt lat="44.14713" lon="6.76425">
        <ele>1038.3</ele>
        <time>2022-06-11T15:03:23Z</time>
      </trkpt>
      <trkpt lat="44.14717" lon="6.76419">
        <ele>1038.8</ele>
        <time>2022-06-11T15:03:24Z</time>
      </trkpt>
      <trkpt lat="44.14721" lon="6.76413">
        <ele>1038.9</ele>
        <time>2022-06-11T15:03:25Z</time>
      </trkpt>
      <trkpt lat="44.14725" lon="6.76406">
        <ele>1039.4</ele>
        <time>2022-06-11T15:03:26Z</time>
      </trkpt>
      <trkpt lat="44.14729" lon="6.76401">
        <ele>1040.1</ele>
        <time>2022-06-11T15:03:27Z</time>
      </trkpt>
      <trkpt lat="44.14733" lon="6.76396">
        <ele>1040.9</ele>
        <time>2022-06-11T15:03:28Z</time>
      </trkpt>
      <trkpt lat="44.14737" lon="6.76391">
        <ele>1041.6</ele>
        <time>2022-06-11T15:03:29Z</time>
      </trkpt>
      <trkpt lat="44.14741" lon="6.76387">
        <ele>1042.5</ele>
        <time>2022-06-11T15:03:30Z</time>
      </trkpt>
      <trkpt lat="44.14745" lon="6.76383">
        <ele>1043.1</ele>
        <time>2022-06-11T15:03:31Z</time>
      </trkpt>
      <trkpt lat="44.14749" lon="6.76379">
        <ele>1043.6</ele>
        <time>2022-06-11T15:03:32Z</time>
      </trkpt>
      <trkpt lat="44.14752" lon="6.76375">
        <ele>1043.9</ele>
        <time>2022-06-11T15:03:33Z</time>
      </trkpt>
      <trkpt lat="44.14755" lon="6.76372">
        <ele>1044.3</ele>
        <time>2022-06-11T15:03:34Z</time>
      </trkpt>
      <trkpt lat="44.14758" lon="6.76368">
        <ele>1044.4</ele>
        <time>2022-06-11T15:03:35Z</time>
      </trkpt>
      <trkpt lat="44.14761" lon="6.76365">
        <ele>1045</ele>
        <time>2022-06-11T15:03:36Z</time>
      </trkpt>
      <trkpt lat="44.14764" lon="6.76362">
        <ele>1045.5</ele>
        <time>2022-06-11T15:03:37Z</time>
      </trkpt>
      <trkpt lat="44.14767" lon="6.76359">
        <ele>1046</ele>
        <time>2022-06-11T15:03:38Z</time>
      </trkpt>
      <trkpt lat="44.1477" lon="6.76356">
        <ele>1046.3</ele>
        <time>2022-06-11T15:03:39Z</time>
      </trkpt>
      <trkpt lat="44.14772" lon="6.76352">
        <ele>1046.3</ele>
        <time>2022-06-11T15:03:40Z</time>
      </trkpt>
      <trkpt lat="44.14775" lon="6.76348">
        <ele>1046.2</ele>
        <time>2022-06-11T15:03:41Z</time>
      </trkpt>
      <trkpt lat="44.14777" lon="6.76344">
        <ele>1045.9</ele>
        <time>2022-06-11T15:03:42Z</time>
      </trkpt>
      <trkpt lat="44.1478" lon="6.76341">
        <ele>1045.9</ele>
        <time>2022-06-11T15:03:43Z</time>
      </trkpt>
      <trkpt lat="44.14782" lon="6.76337">
        <ele>1045.9</ele>
        <time>2022-06-11T15:03:44Z</time>
      </trkpt>
      <trkpt lat="44.14785" lon="6.76335">
        <ele>1046.2</ele>
        <time>2022-06-11T15:03:45Z</time>
      </trkpt>
      <trkpt lat="44.14788" lon="6.76333">
        <ele>1046.9</ele>
        <time>2022-06-11T15:03:46Z</time>
      </trkpt>
      <trkpt lat="44.14791" lon="6.7633">
        <ele>1047.5</ele>
        <time>2022-06-11T15:03:47Z</time>
      </trkpt>
      <trkpt lat="44.14795" lon="6.76328">
        <ele>1048.1</ele>
        <time>2022-06-11T15:03:48Z</time>
      </trkpt>
      <trkpt lat="44.14798" lon="6.76325">
        <ele>1048.5</ele>
        <time>2022-06-11T15:03:49Z</time>
      </trkpt>
      <trkpt lat="44.14802" lon="6.76322">
        <ele>1048.9</ele>
        <time>2022-06-11T15:03:50Z</time>
      </trkpt>
      <trkpt lat="44.14804" lon="6.76319">
        <ele>1049</ele>
        <time>2022-06-11T15:03:51Z</time>
      </trkpt>
      <trkpt lat="44.14808" lon="6.76317">
        <ele>1049.4</ele>
        <time>2022-06-11T15:03:52Z</time>
      </trkpt>
      <trkpt lat="44.14812" lon="6.76314">
        <ele>1050</ele>
        <time>2022-06-11T15:03:53Z</time>
      </trkpt>
      <trkpt lat="44.14815" lon="6.76312">
        <ele>1050.6</ele>
        <time>2022-06-11T15:03:54Z</time>
      </trkpt>
      <trkpt lat="44.14819" lon="6.76309">
        <ele>1051.1</ele>
        <time>2022-06-11T15:03:55Z</time>
      </trkpt>
      <trkpt lat="44.14822" lon="6.76307">
        <ele>1051.9</ele>
        <time>2022-06-11T15:03:56Z</time>
      </trkpt>
      <trkpt lat="44.14826" lon="6.76306">
        <ele>1053</ele>
        <time>2022-06-11T15:03:57Z</time>
      </trkpt>
      <trkpt lat="44.14829" lon="6.76304">
        <ele>1053.5</ele>
        <time>2022-06-11T15:03:58Z</time>
      </trkpt>
      <trkpt lat="44.14831" lon="6.76301">
        <ele>1053.8</ele>
        <time>2022-06-11T15:03:59Z</time>
      </trkpt>
      <trkpt lat="44.14835" lon="6.76298">
        <ele>1054.4</ele>
        <time>2022-06-11T15:04:00Z</time>
      </trkpt>
      <trkpt lat="44.14837" lon="6.76295">
        <ele>1054.6</ele>
        <time>2022-06-11T15:04:01Z</time>
      </trkpt>
      <trkpt lat="44.1484" lon="6.76291">
        <ele>1054.7</ele>
        <time>2022-06-11T15:04:02Z</time>
      </trkpt>
      <trkpt lat="44.14842" lon="6.76286">
        <ele>1054.5</ele>
        <time>2022-06-11T15:04:03Z</time>
      </trkpt>
      <trkpt lat="44.14845" lon="6.7628">
        <ele>1054.1</ele>
        <time>2022-06-11T15:04:04Z</time>
      </trkpt>
      <trkpt lat="44.14847" lon="6.76274">
        <ele>1053.5</ele>
        <time>2022-06-11T15:04:05Z</time>
      </trkpt>
      <trkpt lat="44.14848" lon="6.76267">
        <ele>1052.1</ele>
        <time>2022-06-11T15:04:06Z</time>
      </trkpt>
      <trkpt lat="44.1485" lon="6.76259">
        <ele>1050.6</ele>
        <time>2022-06-11T15:04:07Z</time>
      </trkpt>
      <trkpt lat="44.14851" lon="6.7625">
        <ele>1048.2</ele>
        <time>2022-06-11T15:04:08Z</time>
      </trkpt>
      <trkpt lat="44.14853" lon="6.76243">
        <ele>1046.7</ele>
        <time>2022-06-11T15:04:09Z</time>
      </trkpt>
      <trkpt lat="44.14855" lon="6.76238">
        <ele>1046.2</ele>
        <time>2022-06-11T15:04:10Z</time>
      </trkpt>
      <trkpt lat="44.14857" lon="6.76235">
        <ele>1045.8</ele>
        <time>2022-06-11T15:04:11Z</time>
      </trkpt>
      <trkpt lat="44.1486" lon="6.76234">
        <ele>1046</ele>
        <time>2022-06-11T15:04:12Z</time>
      </trkpt>
      <trkpt lat="44.1486" lon="6.7623">
        <ele>1044.8</ele>
        <time>2022-06-11T15:04:13Z</time>
      </trkpt>
      <trkpt lat="44.14862" lon="6.7623">
        <ele>1045.3</ele>
        <time>2022-06-11T15:04:14Z</time>
      </trkpt>
      <trkpt lat="44.14862" lon="6.76226">
        <ele>1043.8</ele>
        <time>2022-06-11T15:04:15Z</time>
      </trkpt>
      <trkpt lat="44.14863" lon="6.76227">
        <ele>1044.6</ele>
        <time>2022-06-11T15:04:16Z</time>
      </trkpt>
      <trkpt lat="44.14864" lon="6.76229">
        <ele>1046.1</ele>
        <time>2022-06-11T15:04:17Z</time>
      </trkpt>
      <trkpt lat="44.14865" lon="6.76232">
        <ele>1047.5</ele>
        <time>2022-06-11T15:04:18Z</time>
      </trkpt>
      <trkpt lat="44.14865" lon="6.76235">
        <ele>1048.6</ele>
        <time>2022-06-11T15:04:19Z</time>
      </trkpt>
      <trkpt lat="44.14864" lon="6.76238">
        <ele>1049.3</ele>
        <time>2022-06-11T15:04:20Z</time>
      </trkpt>
      <trkpt lat="44.14863" lon="6.7624">
        <ele>1049.8</ele>
        <time>2022-06-11T15:04:21Z</time>
      </trkpt>
      <trkpt lat="44.14862" lon="6.76241">
        <ele>1050</ele>
        <time>2022-06-11T15:04:22Z</time>
      </trkpt>
      <trkpt lat="44.14861" lon="6.76243">
        <ele>1050.3</ele>
        <time>2022-06-11T15:04:23Z</time>
      </trkpt>
      <trkpt lat="44.1486" lon="6.76246">
        <ele>1050.6</ele>
        <time>2022-06-11T15:04:24Z</time>
      </trkpt>
      <trkpt lat="44.14859" lon="6.76248">
        <ele>1051.1</ele>
        <time>2022-06-11T15:04:25Z</time>
      </trkpt>
      <trkpt lat="44.14858" lon="6.76251">
        <ele>1051.8</ele>
        <time>2022-06-11T15:04:26Z</time>
      </trkpt>
      <trkpt lat="44.14858" lon="6.76253">
        <ele>1052.4</ele>
        <time>2022-06-11T15:04:27Z</time>
      </trkpt>
      <trkpt lat="44.14857" lon="6.76256">
        <ele>1052.8</ele>
        <time>2022-06-11T15:04:28Z</time>
      </trkpt>
      <trkpt lat="44.14856" lon="6.76259">
        <ele>1053.2</ele>
        <time>2022-06-11T15:04:29Z</time>
      </trkpt>
      <trkpt lat="44.14855" lon="6.76262">
        <ele>1053.6</ele>
        <time>2022-06-11T15:04:30Z</time>
      </trkpt>
      <trkpt lat="44.14854" lon="6.76264">
        <ele>1054</ele>
        <time>2022-06-11T15:04:31Z</time>
      </trkpt>
      <trkpt lat="44.14853" lon="6.76268">
        <ele>1054.6</ele>
        <time>2022-06-11T15:04:32Z</time>
      </trkpt>
      <trkpt lat="44.14852" lon="6.7627">
        <ele>1055.1</ele>
        <time>2022-06-11T15:04:33Z</time>
      </trkpt>
      <trkpt lat="44.14851" lon="6.76272">
        <ele>1055.2</ele>
        <time>2022-06-11T15:04:34Z</time>
      </trkpt>
      <trkpt lat="44.1485" lon="6.76275">
        <ele>1055.5</ele>
        <time>2022-06-11T15:04:35Z</time>
      </trkpt>
      <trkpt lat="44.14849" lon="6.76277">
        <ele>1055.9</ele>
        <time>2022-06-11T15:04:36Z</time>
      </trkpt>
      <trkpt lat="44.14848" lon="6.7628">
        <ele>1055.8</ele>
        <time>2022-06-11T15:04:37Z</time>
      </trkpt>
      <trkpt lat="44.14847" lon="6.76282">
        <ele>1056</ele>
        <time>2022-06-11T15:04:38Z</time>
      </trkpt>
      <trkpt lat="44.14847" lon="6.76285">
        <ele>1056.3</ele>
        <time>2022-06-11T15:04:39Z</time>
      </trkpt>
      <trkpt lat="44.14846" lon="6.76288">
        <ele>1056.4</ele>
        <time>2022-06-11T15:04:40Z</time>
      </trkpt>
      <trkpt lat="44.14845" lon="6.76291">
        <ele>1056.7</ele>
        <time>2022-06-11T15:04:41Z</time>
      </trkpt>
      <trkpt lat="44.14844" lon="6.76293">
        <ele>1056.9</ele>
        <time>2022-06-11T15:04:42Z</time>
      </trkpt>
      <trkpt lat="44.14843" lon="6.76297">
        <ele>1057.4</ele>
        <time>2022-06-11T15:04:43Z</time>
      </trkpt>
      <trkpt lat="44.14842" lon="6.76299">
        <ele>1057.7</ele>
        <time>2022-06-11T15:04:44Z</time>
      </trkpt>
      <trkpt lat="44.14841" lon="6.76302">
        <ele>1058</ele>
        <time>2022-06-11T15:04:45Z</time>
      </trkpt>
      <trkpt lat="44.14841" lon="6.76305">
        <ele>1058.4</ele>
        <time>2022-06-11T15:04:46Z</time>
      </trkpt>
      <trkpt lat="44.14838" lon="6.76307">
        <ele>1058.1</ele>
        <time>2022-06-11T15:04:47Z</time>
      </trkpt>
      <trkpt lat="44.14837" lon="6.7631">
        <ele>1058</ele>
        <time>2022-06-11T15:04:48Z</time>
      </trkpt>
      <trkpt lat="44.14835" lon="6.76312">
        <ele>1057.9</ele>
        <time>2022-06-11T15:04:49Z</time>
      </trkpt>
      <trkpt lat="44.14834" lon="6.76314">
        <ele>1058.1</ele>
        <time>2022-06-11T15:04:50Z</time>
      </trkpt>
      <trkpt lat="44.14833" lon="6.76317">
        <ele>1058.2</ele>
        <time>2022-06-11T15:04:51Z</time>
      </trkpt>
      <trkpt lat="44.14832" lon="6.76318">
        <ele>1058.1</ele>
        <time>2022-06-11T15:04:52Z</time>
      </trkpt>
      <trkpt lat="44.1483" lon="6.7632">
        <ele>1058.1</ele>
        <time>2022-06-11T15:04:53Z</time>
      </trkpt>
      <trkpt lat="44.14829" lon="6.76322">
        <ele>1058.2</ele>
        <time>2022-06-11T15:04:54Z</time>
      </trkpt>
      <trkpt lat="44.14828" lon="6.76324">
        <ele>1058.2</ele>
        <time>2022-06-11T15:04:55Z</time>
      </trkpt>
      <trkpt lat="44.14826" lon="6.76326">
        <ele>1058.1</ele>
        <time>2022-06-11T15:04:56Z</time>
      </trkpt>
      <trkpt lat="44.14825" lon="6.76327">
        <ele>1058.1</ele>
        <time>2022-06-11T15:04:57Z</time>
      </trkpt>
      <trkpt lat="44.14824" lon="6.76328">
        <ele>1057.9</ele>
        <time>2022-06-11T15:04:58Z</time>
      </trkpt>
      <trkpt lat="44.14822" lon="6.76329">
        <ele>1057.6</ele>
        <time>2022-06-11T15:04:59Z</time>
      </trkpt>
      <trkpt lat="44.1482" lon="6.76331">
        <ele>1057.4</ele>
        <time>2022-06-11T15:05:00Z</time>
      </trkpt>
      <trkpt lat="44.14818" lon="6.76332">
        <ele>1057.3</ele>
        <time>2022-06-11T15:05:01Z</time>
      </trkpt>
      <trkpt lat="44.14817" lon="6.76334">
        <ele>1057.3</ele>
        <time>2022-06-11T15:05:02Z</time>
      </trkpt>
      <trkpt lat="44.14815" lon="6.76335">
        <ele>1057.1</ele>
        <time>2022-06-11T15:05:03Z</time>
      </trkpt>
      <trkpt lat="44.14814" lon="6.76336">
        <ele>1056.9</ele>
        <time>2022-06-11T15:05:04Z</time>
      </trkpt>
      <trkpt lat="44.14812" lon="6.76338">
        <ele>1056.9</ele>
        <time>2022-06-11T15:05:05Z</time>
      </trkpt>
      <trkpt lat="44.14811" lon="6.76339">
        <ele>1056.9</ele>
        <time>2022-06-11T15:05:06Z</time>
      </trkpt>
      <trkpt lat="44.1481" lon="6.7634">
        <ele>1056.7</ele>
        <time>2022-06-11T15:05:07Z</time>
      </trkpt>
      <trkpt lat="44.14808" lon="6.76341">
        <ele>1056.7</ele>
        <time>2022-06-11T15:05:08Z</time>
      </trkpt>
      <trkpt lat="44.14807" lon="6.76343">
        <ele>1056.7</ele>
        <time>2022-06-11T15:05:09Z</time>
      </trkpt>
      <trkpt lat="44.14806" lon="6.76344">
        <ele>1056.9</ele>
        <time>2022-06-11T15:05:10Z</time>
      </trkpt>
      <trkpt lat="44.14805" lon="6.76346">
        <ele>1057.1</ele>
        <time>2022-06-11T15:05:11Z</time>
      </trkpt>
      <trkpt lat="44.14804" lon="6.76349">
        <ele>1057.3</ele>
        <time>2022-06-11T15:05:12Z</time>
      </trkpt>
      <trkpt lat="44.14803" lon="6.76351">
        <ele>1057.6</ele>
        <time>2022-06-11T15:05:13Z</time>
      </trkpt>
      <trkpt lat="44.14802" lon="6.76353">
        <ele>1057.7</ele>
        <time>2022-06-11T15:05:14Z</time>
      </trkpt>
      <trkpt lat="44.14802" lon="6.76355">
        <ele>1057.9</ele>
        <time>2022-06-11T15:05:15Z</time>
      </trkpt>
      <trkpt lat="44.14801" lon="6.76357">
        <ele>1058.1</ele>
        <time>2022-06-11T15:05:16Z</time>
      </trkpt>
      <trkpt lat="44.148" lon="6.76359">
        <ele>1058.3</ele>
        <time>2022-06-11T15:05:17Z</time>
      </trkpt>
      <trkpt lat="44.14799" lon="6.76361">
        <ele>1058.5</ele>
        <time>2022-06-11T15:05:18Z</time>
      </trkpt>
      <trkpt lat="44.14798" lon="6.76363">
        <ele>1058.5</ele>
        <time>2022-06-11T15:05:19Z</time>
      </trkpt>
      <trkpt lat="44.14798" lon="6.76365">
        <ele>1058.6</ele>
        <time>2022-06-11T15:05:20Z</time>
      </trkpt>
      <trkpt lat="44.14798" lon="6.76367">
        <ele>1058.8</ele>
        <time>2022-06-11T15:05:21Z</time>
      </trkpt>
      <trkpt lat="44.14798" lon="6.7637">
        <ele>1059.2</ele>
        <time>2022-06-11T15:05:22Z</time>
      </trkpt>
      <trkpt lat="44.14798" lon="6.76372">
        <ele>1059.6</ele>
        <time>2022-06-11T15:05:23Z</time>
      </trkpt>
      <trkpt lat="44.14799" lon="6.76374">
        <ele>1060.2</ele>
        <time>2022-06-11T15:05:24Z</time>
      </trkpt>
      <trkpt lat="44.148" lon="6.76376">
        <ele>1060.8</ele>
        <time>2022-06-11T15:05:25Z</time>
      </trkpt>
      <trkpt lat="44.14802" lon="6.76377">
        <ele>1061.5</ele>
        <time>2022-06-11T15:05:26Z</time>
      </trkpt>
      <trkpt lat="44.14804" lon="6.76377">
        <ele>1062.2</ele>
        <time>2022-06-11T15:05:27Z</time>
      </trkpt>
      <trkpt lat="44.14806" lon="6.76377">
        <ele>1062.8</ele>
        <time>2022-06-11T15:05:28Z</time>
      </trkpt>
      <trkpt lat="44.14808" lon="6.76377">
        <ele>1063.2</ele>
        <time>2022-06-11T15:05:29Z</time>
      </trkpt>
      <trkpt lat="44.1481" lon="6.76376">
        <ele>1063.5</ele>
        <time>2022-06-11T15:05:30Z</time>
      </trkpt>
      <trkpt lat="44.14812" lon="6.76374">
        <ele>1063.8</ele>
        <time>2022-06-11T15:05:31Z</time>
      </trkpt>
      <trkpt lat="44.14814" lon="6.76373">
        <ele>1064.1</ele>
        <time>2022-06-11T15:05:32Z</time>
      </trkpt>
      <trkpt lat="44.14816" lon="6.76372">
        <ele>1064.4</ele>
        <time>2022-06-11T15:05:33Z</time>
      </trkpt>
      <trkpt lat="44.14818" lon="6.76371">
        <ele>1064.6</ele>
        <time>2022-06-11T15:05:34Z</time>
      </trkpt>
      <trkpt lat="44.14819" lon="6.76369">
        <ele>1064.8</ele>
        <time>2022-06-11T15:05:35Z</time>
      </trkpt>
      <trkpt lat="44.14821" lon="6.76368">
        <ele>1065.1</ele>
        <time>2022-06-11T15:05:36Z</time>
      </trkpt>
      <trkpt lat="44.14823" lon="6.76367">
        <ele>1065.4</ele>
        <time>2022-06-11T15:05:37Z</time>
      </trkpt>
      <trkpt lat="44.14825" lon="6.76366">
        <ele>1065.7</ele>
        <time>2022-06-11T15:05:38Z</time>
      </trkpt>
      <trkpt lat="44.14827" lon="6.76365">
        <ele>1066</ele>
        <time>2022-06-11T15:05:39Z</time>
      </trkpt>
      <trkpt lat="44.14829" lon="6.76363">
        <ele>1066.3</ele>
        <time>2022-06-11T15:05:40Z</time>
      </trkpt>
      <trkpt lat="44.14831" lon="6.76362">
        <ele>1066.6</ele>
        <time>2022-06-11T15:05:41Z</time>
      </trkpt>
      <trkpt lat="44.14833" lon="6.76361">
        <ele>1066.9</ele>
        <time>2022-06-11T15:05:42Z</time>
      </trkpt>
      <trkpt lat="44.14835" lon="6.7636">
        <ele>1067</ele>
        <time>2022-06-11T15:05:43Z</time>
      </trkpt>
      <trkpt lat="44.14837" lon="6.76359">
        <ele>1067.1</ele>
        <time>2022-06-11T15:05:44Z</time>
      </trkpt>
      <trkpt lat="44.14839" lon="6.76358">
        <ele>1067.3</ele>
        <time>2022-06-11T15:05:45Z</time>
      </trkpt>
      <trkpt lat="44.14841" lon="6.76357">
        <ele>1067.5</ele>
        <time>2022-06-11T15:05:46Z</time>
      </trkpt>
      <trkpt lat="44.14844" lon="6.76356">
        <ele>1067.7</ele>
        <time>2022-06-11T15:05:47Z</time>
      </trkpt>
      <trkpt lat="44.14846" lon="6.76355">
        <ele>1067.9</ele>
        <time>2022-06-11T15:05:48Z</time>
      </trkpt>
      <trkpt lat="44.14848" lon="6.76354">
        <ele>1068.1</ele>
        <time>2022-06-11T15:05:49Z</time>
      </trkpt>
      <trkpt lat="44.1485" lon="6.76353">
        <ele>1068.4</ele>
        <time>2022-06-11T15:05:50Z</time>
      </trkpt>
      <trkpt lat="44.14853" lon="6.76352">
        <ele>1068.6</ele>
        <time>2022-06-11T15:05:51Z</time>
      </trkpt>
      <trkpt lat="44.14855" lon="6.76351">
        <ele>1068.9</ele>
        <time>2022-06-11T15:05:52Z</time>
      </trkpt>
      <trkpt lat="44.14858" lon="6.7635">
        <ele>1069.2</ele>
        <time>2022-06-11T15:05:53Z</time>
      </trkpt>
      <trkpt lat="44.1486" lon="6.76349">
        <ele>1069.5</ele>
        <time>2022-06-11T15:05:54Z</time>
      </trkpt>
      <trkpt lat="44.14863" lon="6.76348">
        <ele>1069.8</ele>
        <time>2022-06-11T15:05:55Z</time>
      </trkpt>
      <trkpt lat="44.14866" lon="6.76347">
        <ele>1070.1</ele>
        <time>2022-06-11T15:05:56Z</time>
      </trkpt>
      <trkpt lat="44.14868" lon="6.76345">
        <ele>1070.3</ele>
        <time>2022-06-11T15:05:57Z</time>
      </trkpt>
      <trkpt lat="44.14871" lon="6.76343">
        <ele>1070.5</ele>
        <time>2022-06-11T15:05:58Z</time>
      </trkpt>
      <trkpt lat="44.14873" lon="6.76341">
        <ele>1070.6</ele>
        <time>2022-06-11T15:05:59Z</time>
      </trkpt>
      <trkpt lat="44.14875" lon="6.7634">
        <ele>1070.7</ele>
        <time>2022-06-11T15:06:00Z</time>
      </trkpt>
      <trkpt lat="44.14878" lon="6.76338">
        <ele>1070.9</ele>
        <time>2022-06-11T15:06:01Z</time>
      </trkpt>
      <trkpt lat="44.1488" lon="6.76335">
        <ele>1071</ele>
        <time>2022-06-11T15:06:02Z</time>
      </trkpt>
      <trkpt lat="44.14883" lon="6.76333">
        <ele>1071.1</ele>
        <time>2022-06-11T15:06:03Z</time>
      </trkpt>
      <trkpt lat="44.14885" lon="6.76331">
        <ele>1071.3</ele>
        <time>2022-06-11T15:06:04Z</time>
      </trkpt>
      <trkpt lat="44.14887" lon="6.76328">
        <ele>1071.6</ele>
        <time>2022-06-11T15:06:05Z</time>
      </trkpt>
      <trkpt lat="44.14888" lon="6.76326">
        <ele>1071.9</ele>
        <time>2022-06-11T15:06:06Z</time>
      </trkpt>
      <trkpt lat="44.1489" lon="6.76324">
        <ele>1072.2</ele>
        <time>2022-06-11T15:06:07Z</time>
      </trkpt>
      <trkpt lat="44.14892" lon="6.76321">
        <ele>1072.5</ele>
        <time>2022-06-11T15:06:08Z</time>
      </trkpt>
      <trkpt lat="44.14894" lon="6.76319">
        <ele>1072.9</ele>
        <time>2022-06-11T15:06:09Z</time>
      </trkpt>
      <trkpt lat="44.14895" lon="6.76317">
        <ele>1073.2</ele>
        <time>2022-06-11T15:06:10Z</time>
      </trkpt>
      <trkpt lat="44.14896" lon="6.76315">
        <ele>1073.4</ele>
        <time>2022-06-11T15:06:11Z</time>
      </trkpt>
      <trkpt lat="44.14897" lon="6.76313">
        <ele>1073.5</ele>
        <time>2022-06-11T15:06:12Z</time>
      </trkpt>
      <trkpt lat="44.14898" lon="6.76312">
        <ele>1073.6</ele>
        <time>2022-06-11T15:06:13Z</time>
      </trkpt>
      <trkpt lat="44.14898" lon="6.76312">
        <ele>1073.6</ele>
        <time>2022-06-11T15:06:14Z</time>
      </trkpt>
      <trkpt lat="44.14898" lon="6.76312">
        <ele>1073.6</ele>
        <time>2022-06-11T15:06:15Z</time>
      </trkpt>
    </trkseg>
  </trk>
</gpx>